<?xml version="1.0" encoding="UTF-8" standalone="no" ?>
<gpx xmlns="http://www.topografix.com/GPX/1/1" xmlns:xsi="http://www.w3.org/2001/XMLSchema-instance" xsi:schemaLocation="http://www.topografix.com/GPX/1/1 http://www.topografix.com/GPX/1/1/gpx.xsd" version="1.1" creator="VisuGPX - https://www.visugpx.com">
  <metadata>
    <name>2016-11-05 Bike ride-Amberieux en Dombes O via Toussieux</name>
    <desc><![CDATA[2016-11-05 Bike ride-Amberieux en Dombes O via Toussieux]]></desc>
  </metadata>
  <wpt lat="45.92449" lon="4.73701">
    <ele>174</ele>
    <name><![CDATA[2016-11-05 10:17 (Start)]]></name>
  </wpt>
  <wpt lat="45.9246" lon="4.73719">
    <ele>174</ele>
    <name><![CDATA[2016-11-05 10:17 (End)]]></name>
    <desc><![CDATA[Created by Google My Tracks on Android  Name: 2016-11-05 10:17 Activity type: biking Description: - Total distance: 40.17 km (25.0 mi) Total time: 2:01:14 Moving time: 1:59:34 Average speed: 19.88 km/h (12.4 mi/h) Average moving speed: 20.16 km/h (12.5 mi/h) Max speed: 47.95 km/h (29.8 mi/h) Average pace: 3:01 min/km (4:51 min/mi) Average moving pace: 2:59 min/km (4:47 min/mi) Fastest pace: 1:15 min/km (2:01 min/mi) Max elevation: 299 m (980 ft) Min elevation: 154 m (504 ft) Elevation gain: 778 m (2554 ft) Max grade: 24 % Min grade: -23 % Recorded: 05/11/2016 10:17]]></desc>
  </wpt>
  <trk>
    <name><![CDATA[2016-11-05 10:17]]></name>
    <trkseg>
      <trkpt lat="45.92449" lon="4.73701">
        <ele>174</ele>
        <time>2016-11-05T09:17:43.567Z</time>
      </trkpt>
      <trkpt lat="45.92454" lon="4.73705">
        <ele>174</ele>
        <time>2016-11-05T09:18:43Z</time>
      </trkpt>
      <trkpt lat="45.92458" lon="4.73708">
        <ele>174</ele>
        <time>2016-11-05T09:18:44Z</time>
      </trkpt>
      <trkpt lat="45.92464" lon="4.73701">
        <ele>174</ele>
        <time>2016-11-05T09:18:48Z</time>
      </trkpt>
      <trkpt lat="45.92465" lon="4.73697">
        <ele>174</ele>
        <time>2016-11-05T09:18:49Z</time>
      </trkpt>
      <trkpt lat="45.92466" lon="4.73685">
        <ele>174</ele>
        <time>2016-11-05T09:18:52Z</time>
      </trkpt>
      <trkpt lat="45.92466" lon="4.7368">
        <ele>174</ele>
        <time>2016-11-05T09:18:53Z</time>
      </trkpt>
      <trkpt lat="45.92467" lon="4.7367">
        <ele>174</ele>
        <time>2016-11-05T09:18:55Z</time>
      </trkpt>
      <trkpt lat="45.92468" lon="4.73665">
        <ele>174</ele>
        <time>2016-11-05T09:18:56Z</time>
      </trkpt>
      <trkpt lat="45.9247" lon="4.73653">
        <ele>174</ele>
        <time>2016-11-05T09:18:58Z</time>
      </trkpt>
      <trkpt lat="45.92471" lon="4.73648">
        <ele>174</ele>
        <time>2016-11-05T09:18:59Z</time>
      </trkpt>
      <trkpt lat="45.92476" lon="4.73638">
        <ele>174</ele>
        <time>2016-11-05T09:19:01Z</time>
      </trkpt>
      <trkpt lat="45.9248" lon="4.73637">
        <ele>174</ele>
        <time>2016-11-05T09:19:02Z</time>
      </trkpt>
      <trkpt lat="45.92485" lon="4.73636">
        <ele>174</ele>
        <time>2016-11-05T09:19:03Z</time>
      </trkpt>
      <trkpt lat="45.9249" lon="4.73637">
        <ele>174</ele>
        <time>2016-11-05T09:19:04Z</time>
      </trkpt>
      <trkpt lat="45.92495" lon="4.73639">
        <ele>174</ele>
        <time>2016-11-05T09:19:05Z</time>
      </trkpt>
      <trkpt lat="45.925" lon="4.7364">
        <ele>174</ele>
        <time>2016-11-05T09:19:06Z</time>
      </trkpt>
      <trkpt lat="45.92506" lon="4.7364">
        <ele>174</ele>
        <time>2016-11-05T09:19:07Z</time>
      </trkpt>
      <trkpt lat="45.92511" lon="4.73639">
        <ele>174</ele>
        <time>2016-11-05T09:19:08Z</time>
      </trkpt>
      <trkpt lat="45.92516" lon="4.73638">
        <ele>173</ele>
        <time>2016-11-05T09:19:09Z</time>
      </trkpt>
      <trkpt lat="45.92522" lon="4.73638">
        <ele>173</ele>
        <time>2016-11-05T09:19:10Z</time>
      </trkpt>
      <trkpt lat="45.92528" lon="4.73637">
        <ele>173</ele>
        <time>2016-11-05T09:19:11Z</time>
      </trkpt>
      <trkpt lat="45.92533" lon="4.73637">
        <ele>173</ele>
        <time>2016-11-05T09:19:12Z</time>
      </trkpt>
      <trkpt lat="45.92539" lon="4.73636">
        <ele>173</ele>
        <time>2016-11-05T09:19:13Z</time>
      </trkpt>
      <trkpt lat="45.92544" lon="4.73634">
        <ele>173</ele>
        <time>2016-11-05T09:19:14Z</time>
      </trkpt>
      <trkpt lat="45.9255" lon="4.73633">
        <ele>173</ele>
        <time>2016-11-05T09:19:15Z</time>
      </trkpt>
      <trkpt lat="45.92556" lon="4.73632">
        <ele>173</ele>
        <time>2016-11-05T09:19:16Z</time>
      </trkpt>
      <trkpt lat="45.92572" lon="4.73626">
        <ele>173</ele>
        <time>2016-11-05T09:19:19Z</time>
      </trkpt>
      <trkpt lat="45.92575" lon="4.7362">
        <ele>173</ele>
        <time>2016-11-05T09:19:20Z</time>
      </trkpt>
      <trkpt lat="45.9258" lon="4.73618">
        <ele>173</ele>
        <time>2016-11-05T09:19:21Z</time>
      </trkpt>
      <trkpt lat="45.92585" lon="4.73615">
        <ele>173</ele>
        <time>2016-11-05T09:19:22Z</time>
      </trkpt>
      <trkpt lat="45.9259" lon="4.73613">
        <ele>173</ele>
        <time>2016-11-05T09:19:23Z</time>
      </trkpt>
      <trkpt lat="45.92594" lon="4.73613">
        <ele>173</ele>
        <time>2016-11-05T09:19:24Z</time>
      </trkpt>
      <trkpt lat="45.92604" lon="4.73613">
        <ele>173</ele>
        <time>2016-11-05T09:19:25Z</time>
      </trkpt>
      <trkpt lat="45.92615" lon="4.73623">
        <ele>173</ele>
        <time>2016-11-05T09:19:26Z</time>
      </trkpt>
      <trkpt lat="45.9262" lon="4.7363">
        <ele>173</ele>
        <time>2016-11-05T09:19:28Z</time>
      </trkpt>
      <trkpt lat="45.92623" lon="4.73636">
        <ele>173</ele>
        <time>2016-11-05T09:19:29Z</time>
      </trkpt>
      <trkpt lat="45.92626" lon="4.73644">
        <ele>173</ele>
        <time>2016-11-05T09:19:30Z</time>
      </trkpt>
      <trkpt lat="45.92629" lon="4.73652">
        <ele>173</ele>
        <time>2016-11-05T09:19:31Z</time>
      </trkpt>
      <trkpt lat="45.92631" lon="4.73659">
        <ele>173</ele>
        <time>2016-11-05T09:19:32Z</time>
      </trkpt>
      <trkpt lat="45.92635" lon="4.73665">
        <ele>173</ele>
        <time>2016-11-05T09:19:33Z</time>
      </trkpt>
      <trkpt lat="45.92638" lon="4.73671">
        <ele>173</ele>
        <time>2016-11-05T09:19:34Z</time>
      </trkpt>
      <trkpt lat="45.92642" lon="4.73677">
        <ele>173</ele>
        <time>2016-11-05T09:19:35Z</time>
      </trkpt>
      <trkpt lat="45.92647" lon="4.73683">
        <ele>173</ele>
        <time>2016-11-05T09:19:36Z</time>
      </trkpt>
      <trkpt lat="45.92652" lon="4.73689">
        <ele>173</ele>
        <time>2016-11-05T09:19:37Z</time>
      </trkpt>
      <trkpt lat="45.92658" lon="4.73694">
        <ele>173</ele>
        <time>2016-11-05T09:19:38Z</time>
      </trkpt>
      <trkpt lat="45.92664" lon="4.73698">
        <ele>173</ele>
        <time>2016-11-05T09:19:39Z</time>
      </trkpt>
      <trkpt lat="45.92669" lon="4.73701">
        <ele>174</ele>
        <time>2016-11-05T09:19:40Z</time>
      </trkpt>
      <trkpt lat="45.92675" lon="4.73704">
        <ele>174</ele>
        <time>2016-11-05T09:19:41Z</time>
      </trkpt>
      <trkpt lat="45.92681" lon="4.73705">
        <ele>173</ele>
        <time>2016-11-05T09:19:42Z</time>
      </trkpt>
      <trkpt lat="45.92686" lon="4.73708">
        <ele>173</ele>
        <time>2016-11-05T09:19:43Z</time>
      </trkpt>
      <trkpt lat="45.92691" lon="4.73713">
        <ele>173</ele>
        <time>2016-11-05T09:19:44Z</time>
      </trkpt>
      <trkpt lat="45.92697" lon="4.73713">
        <ele>173</ele>
        <time>2016-11-05T09:19:45Z</time>
      </trkpt>
      <trkpt lat="45.92702" lon="4.73715">
        <ele>173</ele>
        <time>2016-11-05T09:19:46Z</time>
      </trkpt>
      <trkpt lat="45.92708" lon="4.73717">
        <ele>173</ele>
        <time>2016-11-05T09:19:47Z</time>
      </trkpt>
      <trkpt lat="45.92714" lon="4.73717">
        <ele>173</ele>
        <time>2016-11-05T09:19:48Z</time>
      </trkpt>
      <trkpt lat="45.9272" lon="4.73717">
        <ele>173</ele>
        <time>2016-11-05T09:19:49Z</time>
      </trkpt>
      <trkpt lat="45.92751" lon="4.73727">
        <ele>172</ele>
        <time>2016-11-05T09:19:54Z</time>
      </trkpt>
      <trkpt lat="45.92757" lon="4.73729">
        <ele>172</ele>
        <time>2016-11-05T09:19:55Z</time>
      </trkpt>
      <trkpt lat="45.9276" lon="4.73732">
        <ele>172</ele>
        <time>2016-11-05T09:19:56Z</time>
      </trkpt>
      <trkpt lat="45.92765" lon="4.73731">
        <ele>172</ele>
        <time>2016-11-05T09:19:57Z</time>
      </trkpt>
      <trkpt lat="45.92771" lon="4.7373">
        <ele>172</ele>
        <time>2016-11-05T09:19:58Z</time>
      </trkpt>
      <trkpt lat="45.92776" lon="4.73733">
        <ele>172</ele>
        <time>2016-11-05T09:20:00Z</time>
      </trkpt>
      <trkpt lat="45.9278" lon="4.73734">
        <ele>172</ele>
        <time>2016-11-05T09:20:01Z</time>
      </trkpt>
      <trkpt lat="45.92783" lon="4.73728">
        <ele>172</ele>
        <time>2016-11-05T09:20:03Z</time>
      </trkpt>
      <trkpt lat="45.92784" lon="4.73722">
        <ele>172</ele>
        <time>2016-11-05T09:20:04Z</time>
      </trkpt>
      <trkpt lat="45.92787" lon="4.73715">
        <ele>172</ele>
        <time>2016-11-05T09:20:05Z</time>
      </trkpt>
      <trkpt lat="45.92789" lon="4.73708">
        <ele>172</ele>
        <time>2016-11-05T09:20:06Z</time>
      </trkpt>
      <trkpt lat="45.9279" lon="4.73692">
        <ele>172</ele>
        <time>2016-11-05T09:20:08Z</time>
      </trkpt>
      <trkpt lat="45.92792" lon="4.73683">
        <ele>172</ele>
        <time>2016-11-05T09:20:09Z</time>
      </trkpt>
      <trkpt lat="45.92793" lon="4.73675">
        <ele>172</ele>
        <time>2016-11-05T09:20:10Z</time>
      </trkpt>
      <trkpt lat="45.92794" lon="4.73667">
        <ele>172</ele>
        <time>2016-11-05T09:20:11Z</time>
      </trkpt>
      <trkpt lat="45.92795" lon="4.7366">
        <ele>172</ele>
        <time>2016-11-05T09:20:12Z</time>
      </trkpt>
      <trkpt lat="45.92797" lon="4.73652">
        <ele>172</ele>
        <time>2016-11-05T09:20:13Z</time>
      </trkpt>
      <trkpt lat="45.92799" lon="4.73645">
        <ele>172</ele>
        <time>2016-11-05T09:20:14Z</time>
      </trkpt>
      <trkpt lat="45.92802" lon="4.73638">
        <ele>172</ele>
        <time>2016-11-05T09:20:15Z</time>
      </trkpt>
      <trkpt lat="45.92805" lon="4.73633">
        <ele>172</ele>
        <time>2016-11-05T09:20:16Z</time>
      </trkpt>
      <trkpt lat="45.92808" lon="4.73628">
        <ele>172</ele>
        <time>2016-11-05T09:20:17Z</time>
      </trkpt>
      <trkpt lat="45.92811" lon="4.73622">
        <ele>172</ele>
        <time>2016-11-05T09:20:18Z</time>
      </trkpt>
      <trkpt lat="45.92814" lon="4.73616">
        <ele>172</ele>
        <time>2016-11-05T09:20:19Z</time>
      </trkpt>
      <trkpt lat="45.92816" lon="4.7361">
        <ele>172</ele>
        <time>2016-11-05T09:20:20Z</time>
      </trkpt>
      <trkpt lat="45.92817" lon="4.73602">
        <ele>171</ele>
        <time>2016-11-05T09:20:21Z</time>
      </trkpt>
      <trkpt lat="45.92818" lon="4.73581">
        <ele>171</ele>
        <time>2016-11-05T09:20:24Z</time>
      </trkpt>
      <trkpt lat="45.92819" lon="4.73565">
        <ele>171</ele>
        <time>2016-11-05T09:20:26Z</time>
      </trkpt>
      <trkpt lat="45.92821" lon="4.73558">
        <ele>171</ele>
        <time>2016-11-05T09:20:27Z</time>
      </trkpt>
      <trkpt lat="45.92821" lon="4.73551">
        <ele>171</ele>
        <time>2016-11-05T09:20:28Z</time>
      </trkpt>
      <trkpt lat="45.92822" lon="4.73546">
        <ele>171</ele>
        <time>2016-11-05T09:20:29Z</time>
      </trkpt>
      <trkpt lat="45.92823" lon="4.73531">
        <ele>172</ele>
        <time>2016-11-05T09:20:31Z</time>
      </trkpt>
      <trkpt lat="45.92824" lon="4.73523">
        <ele>172</ele>
        <time>2016-11-05T09:20:32Z</time>
      </trkpt>
      <trkpt lat="45.92827" lon="4.73508">
        <ele>172</ele>
        <time>2016-11-05T09:20:34Z</time>
      </trkpt>
      <trkpt lat="45.92828" lon="4.73499">
        <ele>172</ele>
        <time>2016-11-05T09:20:35Z</time>
      </trkpt>
      <trkpt lat="45.92831" lon="4.73465">
        <ele>172</ele>
        <time>2016-11-05T09:20:39Z</time>
      </trkpt>
      <trkpt lat="45.92832" lon="4.73456">
        <ele>172</ele>
        <time>2016-11-05T09:20:40Z</time>
      </trkpt>
      <trkpt lat="45.92833" lon="4.73447">
        <ele>172</ele>
        <time>2016-11-05T09:20:41Z</time>
      </trkpt>
      <trkpt lat="45.92835" lon="4.73438">
        <ele>172</ele>
        <time>2016-11-05T09:20:42Z</time>
      </trkpt>
      <trkpt lat="45.92836" lon="4.73429">
        <ele>172</ele>
        <time>2016-11-05T09:20:43Z</time>
      </trkpt>
      <trkpt lat="45.92837" lon="4.7342">
        <ele>172</ele>
        <time>2016-11-05T09:20:44Z</time>
      </trkpt>
      <trkpt lat="45.92838" lon="4.73411">
        <ele>172</ele>
        <time>2016-11-05T09:20:45Z</time>
      </trkpt>
      <trkpt lat="45.92839" lon="4.73402">
        <ele>172</ele>
        <time>2016-11-05T09:20:46Z</time>
      </trkpt>
      <trkpt lat="45.92841" lon="4.73393">
        <ele>172</ele>
        <time>2016-11-05T09:20:47Z</time>
      </trkpt>
      <trkpt lat="45.92844" lon="4.73367">
        <ele>171</ele>
        <time>2016-11-05T09:20:50Z</time>
      </trkpt>
      <trkpt lat="45.92845" lon="4.73358">
        <ele>171</ele>
        <time>2016-11-05T09:20:51Z</time>
      </trkpt>
      <trkpt lat="45.92846" lon="4.73349">
        <ele>171</ele>
        <time>2016-11-05T09:20:52Z</time>
      </trkpt>
      <trkpt lat="45.92847" lon="4.73341">
        <ele>171</ele>
        <time>2016-11-05T09:20:53Z</time>
      </trkpt>
      <trkpt lat="45.92848" lon="4.73331">
        <ele>171</ele>
        <time>2016-11-05T09:20:54Z</time>
      </trkpt>
      <trkpt lat="45.92849" lon="4.73324">
        <ele>171</ele>
        <time>2016-11-05T09:20:55Z</time>
      </trkpt>
      <trkpt lat="45.92851" lon="4.73318">
        <ele>171</ele>
        <time>2016-11-05T09:20:56Z</time>
      </trkpt>
      <trkpt lat="45.92852" lon="4.73309">
        <ele>171</ele>
        <time>2016-11-05T09:20:57Z</time>
      </trkpt>
      <trkpt lat="45.92853" lon="4.733">
        <ele>171</ele>
        <time>2016-11-05T09:20:58Z</time>
      </trkpt>
      <trkpt lat="45.92853" lon="4.73291">
        <ele>171</ele>
        <time>2016-11-05T09:20:59Z</time>
      </trkpt>
      <trkpt lat="45.92854" lon="4.73282">
        <ele>171</ele>
        <time>2016-11-05T09:21:00Z</time>
      </trkpt>
      <trkpt lat="45.92855" lon="4.73273">
        <ele>171</ele>
        <time>2016-11-05T09:21:01Z</time>
      </trkpt>
      <trkpt lat="45.92856" lon="4.73264">
        <ele>171</ele>
        <time>2016-11-05T09:21:02Z</time>
      </trkpt>
      <trkpt lat="45.92857" lon="4.73256">
        <ele>171</ele>
        <time>2016-11-05T09:21:03Z</time>
      </trkpt>
      <trkpt lat="45.92859" lon="4.73247">
        <ele>171</ele>
        <time>2016-11-05T09:21:04Z</time>
      </trkpt>
      <trkpt lat="45.9286" lon="4.73239">
        <ele>171</ele>
        <time>2016-11-05T09:21:05Z</time>
      </trkpt>
      <trkpt lat="45.92861" lon="4.7323">
        <ele>171</ele>
        <time>2016-11-05T09:21:06Z</time>
      </trkpt>
      <trkpt lat="45.92862" lon="4.73221">
        <ele>171</ele>
        <time>2016-11-05T09:21:07Z</time>
      </trkpt>
      <trkpt lat="45.92863" lon="4.73213">
        <ele>171</ele>
        <time>2016-11-05T09:21:08Z</time>
      </trkpt>
      <trkpt lat="45.92864" lon="4.73204">
        <ele>171</ele>
        <time>2016-11-05T09:21:09Z</time>
      </trkpt>
      <trkpt lat="45.92865" lon="4.73195">
        <ele>171</ele>
        <time>2016-11-05T09:21:10Z</time>
      </trkpt>
      <trkpt lat="45.92866" lon="4.73186">
        <ele>171</ele>
        <time>2016-11-05T09:21:11Z</time>
      </trkpt>
      <trkpt lat="45.92867" lon="4.73178">
        <ele>171</ele>
        <time>2016-11-05T09:21:12Z</time>
      </trkpt>
      <trkpt lat="45.92869" lon="4.7316">
        <ele>171</ele>
        <time>2016-11-05T09:21:14Z</time>
      </trkpt>
      <trkpt lat="45.92869" lon="4.73151">
        <ele>171</ele>
        <time>2016-11-05T09:21:15Z</time>
      </trkpt>
      <trkpt lat="45.92871" lon="4.73142">
        <ele>171</ele>
        <time>2016-11-05T09:21:16Z</time>
      </trkpt>
      <trkpt lat="45.92873" lon="4.73133">
        <ele>171</ele>
        <time>2016-11-05T09:21:17Z</time>
      </trkpt>
      <trkpt lat="45.92874" lon="4.73125">
        <ele>171</ele>
        <time>2016-11-05T09:21:18Z</time>
      </trkpt>
      <trkpt lat="45.92876" lon="4.73117">
        <ele>172</ele>
        <time>2016-11-05T09:21:19Z</time>
      </trkpt>
      <trkpt lat="45.92883" lon="4.73094">
        <ele>172</ele>
        <time>2016-11-05T09:21:22Z</time>
      </trkpt>
      <trkpt lat="45.92886" lon="4.73087">
        <ele>172</ele>
        <time>2016-11-05T09:21:23Z</time>
      </trkpt>
      <trkpt lat="45.92889" lon="4.7308">
        <ele>172</ele>
        <time>2016-11-05T09:21:24Z</time>
      </trkpt>
      <trkpt lat="45.92893" lon="4.73072">
        <ele>172</ele>
        <time>2016-11-05T09:21:25Z</time>
      </trkpt>
      <trkpt lat="45.92896" lon="4.73065">
        <ele>172</ele>
        <time>2016-11-05T09:21:26Z</time>
      </trkpt>
      <trkpt lat="45.929" lon="4.73058">
        <ele>172</ele>
        <time>2016-11-05T09:21:27Z</time>
      </trkpt>
      <trkpt lat="45.92904" lon="4.73051">
        <ele>172</ele>
        <time>2016-11-05T09:21:28Z</time>
      </trkpt>
      <trkpt lat="45.92911" lon="4.73034">
        <ele>172</ele>
        <time>2016-11-05T09:21:30Z</time>
      </trkpt>
      <trkpt lat="45.92924" lon="4.73014">
        <ele>172</ele>
        <time>2016-11-05T09:21:33Z</time>
      </trkpt>
      <trkpt lat="45.92933" lon="4.73004">
        <ele>171</ele>
        <time>2016-11-05T09:21:35Z</time>
      </trkpt>
      <trkpt lat="45.92937" lon="4.72999">
        <ele>171</ele>
        <time>2016-11-05T09:21:36Z</time>
      </trkpt>
      <trkpt lat="45.92942" lon="4.72994">
        <ele>171</ele>
        <time>2016-11-05T09:21:37Z</time>
      </trkpt>
      <trkpt lat="45.92956" lon="4.72977">
        <ele>171</ele>
        <time>2016-11-05T09:21:40Z</time>
      </trkpt>
      <trkpt lat="45.92961" lon="4.72972">
        <ele>171</ele>
        <time>2016-11-05T09:21:41Z</time>
      </trkpt>
      <trkpt lat="45.92965" lon="4.72967">
        <ele>171</ele>
        <time>2016-11-05T09:21:42Z</time>
      </trkpt>
      <trkpt lat="45.9297" lon="4.72961">
        <ele>171</ele>
        <time>2016-11-05T09:21:43Z</time>
      </trkpt>
      <trkpt lat="45.92978" lon="4.72951">
        <ele>171</ele>
        <time>2016-11-05T09:21:45Z</time>
      </trkpt>
      <trkpt lat="45.92982" lon="4.72948">
        <ele>171</ele>
        <time>2016-11-05T09:21:46Z</time>
      </trkpt>
      <trkpt lat="45.92986" lon="4.72943">
        <ele>171</ele>
        <time>2016-11-05T09:21:47Z</time>
      </trkpt>
      <trkpt lat="45.92991" lon="4.72937">
        <ele>171</ele>
        <time>2016-11-05T09:21:48Z</time>
      </trkpt>
      <trkpt lat="45.92995" lon="4.72932">
        <ele>171</ele>
        <time>2016-11-05T09:21:49Z</time>
      </trkpt>
      <trkpt lat="45.93" lon="4.72927">
        <ele>171</ele>
        <time>2016-11-05T09:21:50Z</time>
      </trkpt>
      <trkpt lat="45.93004" lon="4.72922">
        <ele>171</ele>
        <time>2016-11-05T09:21:51Z</time>
      </trkpt>
      <trkpt lat="45.93009" lon="4.72917">
        <ele>171</ele>
        <time>2016-11-05T09:21:52Z</time>
      </trkpt>
      <trkpt lat="45.93012" lon="4.72911">
        <ele>171</ele>
        <time>2016-11-05T09:21:53Z</time>
      </trkpt>
      <trkpt lat="45.93019" lon="4.72903">
        <ele>172</ele>
        <time>2016-11-05T09:21:55Z</time>
      </trkpt>
      <trkpt lat="45.93022" lon="4.72899">
        <ele>172</ele>
        <time>2016-11-05T09:21:56Z</time>
      </trkpt>
      <trkpt lat="45.93028" lon="4.72891">
        <ele>172</ele>
        <time>2016-11-05T09:22:01Z</time>
      </trkpt>
      <trkpt lat="45.93031" lon="4.72892">
        <ele>172</ele>
        <time>2016-11-05T09:22:02Z</time>
      </trkpt>
      <trkpt lat="45.93039" lon="4.72897">
        <ele>172</ele>
        <time>2016-11-05T09:22:03Z</time>
      </trkpt>
      <trkpt lat="45.93044" lon="4.72901">
        <ele>172</ele>
        <time>2016-11-05T09:22:04Z</time>
      </trkpt>
      <trkpt lat="45.93052" lon="4.72906">
        <ele>171</ele>
        <time>2016-11-05T09:22:06Z</time>
      </trkpt>
      <trkpt lat="45.93055" lon="4.72906">
        <ele>171</ele>
        <time>2016-11-05T09:22:07Z</time>
      </trkpt>
      <trkpt lat="45.93056" lon="4.72897">
        <ele>171</ele>
        <time>2016-11-05T09:22:10Z</time>
      </trkpt>
      <trkpt lat="45.93054" lon="4.72889">
        <ele>172</ele>
        <time>2016-11-05T09:22:11Z</time>
      </trkpt>
      <trkpt lat="45.93053" lon="4.72878">
        <ele>172</ele>
        <time>2016-11-05T09:22:14Z</time>
      </trkpt>
      <trkpt lat="45.93052" lon="4.72874">
        <ele>172</ele>
        <time>2016-11-05T09:22:15Z</time>
      </trkpt>
      <trkpt lat="45.93059" lon="4.72867">
        <ele>172</ele>
        <time>2016-11-05T09:22:20Z</time>
      </trkpt>
      <trkpt lat="45.93059" lon="4.72865">
        <ele>172</ele>
        <time>2016-11-05T09:22:21Z</time>
      </trkpt>
      <trkpt lat="45.93059" lon="4.72863">
        <ele>172</ele>
        <time>2016-11-05T09:22:22Z</time>
      </trkpt>
      <trkpt lat="45.93059" lon="4.7286">
        <ele>172</ele>
        <time>2016-11-05T09:22:31Z</time>
      </trkpt>
      <trkpt lat="45.9306" lon="4.72858">
        <ele>172</ele>
        <time>2016-11-05T09:22:32Z</time>
      </trkpt>
      <trkpt lat="45.93067" lon="4.72851">
        <ele>172</ele>
        <time>2016-11-05T09:22:36Z</time>
      </trkpt>
      <trkpt lat="45.93069" lon="4.72849">
        <ele>172</ele>
        <time>2016-11-05T09:22:37Z</time>
      </trkpt>
      <trkpt lat="45.93075" lon="4.72845">
        <ele>173</ele>
        <time>2016-11-05T09:22:39Z</time>
      </trkpt>
      <trkpt lat="45.93078" lon="4.72844">
        <ele>173</ele>
        <time>2016-11-05T09:22:40Z</time>
      </trkpt>
      <trkpt lat="45.93081" lon="4.72839">
        <ele>173</ele>
        <time>2016-11-05T09:22:41Z</time>
      </trkpt>
      <trkpt lat="45.93088" lon="4.72818">
        <ele>172</ele>
        <time>2016-11-05T09:22:42Z</time>
      </trkpt>
      <trkpt lat="45.93092" lon="4.72813">
        <ele>172</ele>
        <time>2016-11-05T09:22:43Z</time>
      </trkpt>
      <trkpt lat="45.93098" lon="4.72808">
        <ele>172</ele>
        <time>2016-11-05T09:22:44Z</time>
      </trkpt>
      <trkpt lat="45.93103" lon="4.72803">
        <ele>171</ele>
        <time>2016-11-05T09:22:45Z</time>
      </trkpt>
      <trkpt lat="45.93108" lon="4.72798">
        <ele>171</ele>
        <time>2016-11-05T09:22:46Z</time>
      </trkpt>
      <trkpt lat="45.93113" lon="4.72792">
        <ele>171</ele>
        <time>2016-11-05T09:22:47Z</time>
      </trkpt>
      <trkpt lat="45.93117" lon="4.72787">
        <ele>171</ele>
        <time>2016-11-05T09:22:48Z</time>
      </trkpt>
      <trkpt lat="45.93122" lon="4.72782">
        <ele>171</ele>
        <time>2016-11-05T09:22:49Z</time>
      </trkpt>
      <trkpt lat="45.93127" lon="4.72776">
        <ele>171</ele>
        <time>2016-11-05T09:22:50Z</time>
      </trkpt>
      <trkpt lat="45.93133" lon="4.7277">
        <ele>171</ele>
        <time>2016-11-05T09:22:51Z</time>
      </trkpt>
      <trkpt lat="45.93139" lon="4.72764">
        <ele>171</ele>
        <time>2016-11-05T09:22:52Z</time>
      </trkpt>
      <trkpt lat="45.93144" lon="4.72758">
        <ele>171</ele>
        <time>2016-11-05T09:22:53Z</time>
      </trkpt>
      <trkpt lat="45.93149" lon="4.72752">
        <ele>170</ele>
        <time>2016-11-05T09:22:54Z</time>
      </trkpt>
      <trkpt lat="45.93155" lon="4.72746">
        <ele>170</ele>
        <time>2016-11-05T09:22:55Z</time>
      </trkpt>
      <trkpt lat="45.9316" lon="4.7274">
        <ele>170</ele>
        <time>2016-11-05T09:22:56Z</time>
      </trkpt>
      <trkpt lat="45.93165" lon="4.72734">
        <ele>170</ele>
        <time>2016-11-05T09:22:57Z</time>
      </trkpt>
      <trkpt lat="45.9317" lon="4.72728">
        <ele>170</ele>
        <time>2016-11-05T09:22:58Z</time>
      </trkpt>
      <trkpt lat="45.93175" lon="4.72722">
        <ele>170</ele>
        <time>2016-11-05T09:22:59Z</time>
      </trkpt>
      <trkpt lat="45.93179" lon="4.72716">
        <ele>169</ele>
        <time>2016-11-05T09:23:00Z</time>
      </trkpt>
      <trkpt lat="45.93184" lon="4.72711">
        <ele>169</ele>
        <time>2016-11-05T09:23:01Z</time>
      </trkpt>
      <trkpt lat="45.93189" lon="4.72705">
        <ele>169</ele>
        <time>2016-11-05T09:23:02Z</time>
      </trkpt>
      <trkpt lat="45.93193" lon="4.727">
        <ele>169</ele>
        <time>2016-11-05T09:23:03Z</time>
      </trkpt>
      <trkpt lat="45.93198" lon="4.72694">
        <ele>169</ele>
        <time>2016-11-05T09:23:04Z</time>
      </trkpt>
      <trkpt lat="45.93202" lon="4.72688">
        <ele>169</ele>
        <time>2016-11-05T09:23:05Z</time>
      </trkpt>
      <trkpt lat="45.93206" lon="4.72683">
        <ele>169</ele>
        <time>2016-11-05T09:23:06Z</time>
      </trkpt>
      <trkpt lat="45.93211" lon="4.72677">
        <ele>169</ele>
        <time>2016-11-05T09:23:07Z</time>
      </trkpt>
      <trkpt lat="45.93216" lon="4.72672">
        <ele>169</ele>
        <time>2016-11-05T09:23:08Z</time>
      </trkpt>
      <trkpt lat="45.93221" lon="4.72666">
        <ele>170</ele>
        <time>2016-11-05T09:23:09Z</time>
      </trkpt>
      <trkpt lat="45.93226" lon="4.7266">
        <ele>170</ele>
        <time>2016-11-05T09:23:10Z</time>
      </trkpt>
      <trkpt lat="45.93231" lon="4.72655">
        <ele>170</ele>
        <time>2016-11-05T09:23:11Z</time>
      </trkpt>
      <trkpt lat="45.93236" lon="4.72649">
        <ele>170</ele>
        <time>2016-11-05T09:23:12Z</time>
      </trkpt>
      <trkpt lat="45.93242" lon="4.72643">
        <ele>170</ele>
        <time>2016-11-05T09:23:13Z</time>
      </trkpt>
      <trkpt lat="45.93247" lon="4.72637">
        <ele>170</ele>
        <time>2016-11-05T09:23:14Z</time>
      </trkpt>
      <trkpt lat="45.93253" lon="4.72632">
        <ele>170</ele>
        <time>2016-11-05T09:23:15Z</time>
      </trkpt>
      <trkpt lat="45.93258" lon="4.72625">
        <ele>170</ele>
        <time>2016-11-05T09:23:16Z</time>
      </trkpt>
      <trkpt lat="45.93263" lon="4.7262">
        <ele>170</ele>
        <time>2016-11-05T09:23:17Z</time>
      </trkpt>
      <trkpt lat="45.93267" lon="4.72614">
        <ele>170</ele>
        <time>2016-11-05T09:23:18Z</time>
      </trkpt>
      <trkpt lat="45.93272" lon="4.72609">
        <ele>170</ele>
        <time>2016-11-05T09:23:19Z</time>
      </trkpt>
      <trkpt lat="45.93276" lon="4.72603">
        <ele>170</ele>
        <time>2016-11-05T09:23:20Z</time>
      </trkpt>
      <trkpt lat="45.93281" lon="4.72598">
        <ele>170</ele>
        <time>2016-11-05T09:23:21Z</time>
      </trkpt>
      <trkpt lat="45.93286" lon="4.72593">
        <ele>170</ele>
        <time>2016-11-05T09:23:22Z</time>
      </trkpt>
      <trkpt lat="45.93291" lon="4.72588">
        <ele>170</ele>
        <time>2016-11-05T09:23:23Z</time>
      </trkpt>
      <trkpt lat="45.93295" lon="4.72582">
        <ele>171</ele>
        <time>2016-11-05T09:23:24Z</time>
      </trkpt>
      <trkpt lat="45.93299" lon="4.72577">
        <ele>171</ele>
        <time>2016-11-05T09:23:25Z</time>
      </trkpt>
      <trkpt lat="45.93304" lon="4.72572">
        <ele>171</ele>
        <time>2016-11-05T09:23:26Z</time>
      </trkpt>
      <trkpt lat="45.93309" lon="4.72567">
        <ele>171</ele>
        <time>2016-11-05T09:23:27Z</time>
      </trkpt>
      <trkpt lat="45.93314" lon="4.72561">
        <ele>171</ele>
        <time>2016-11-05T09:23:28Z</time>
      </trkpt>
      <trkpt lat="45.9332" lon="4.72556">
        <ele>171</ele>
        <time>2016-11-05T09:23:29Z</time>
      </trkpt>
      <trkpt lat="45.93325" lon="4.72551">
        <ele>172</ele>
        <time>2016-11-05T09:23:30Z</time>
      </trkpt>
      <trkpt lat="45.9333" lon="4.72545">
        <ele>172</ele>
        <time>2016-11-05T09:23:31Z</time>
      </trkpt>
      <trkpt lat="45.93334" lon="4.72539">
        <ele>171</ele>
        <time>2016-11-05T09:23:32Z</time>
      </trkpt>
      <trkpt lat="45.93339" lon="4.72533">
        <ele>172</ele>
        <time>2016-11-05T09:23:33Z</time>
      </trkpt>
      <trkpt lat="45.93343" lon="4.72527">
        <ele>172</ele>
        <time>2016-11-05T09:23:34Z</time>
      </trkpt>
      <trkpt lat="45.93348" lon="4.7252">
        <ele>172</ele>
        <time>2016-11-05T09:23:35Z</time>
      </trkpt>
      <trkpt lat="45.93354" lon="4.72515">
        <ele>172</ele>
        <time>2016-11-05T09:23:36Z</time>
      </trkpt>
      <trkpt lat="45.93359" lon="4.72509">
        <ele>172</ele>
        <time>2016-11-05T09:23:37Z</time>
      </trkpt>
      <trkpt lat="45.93364" lon="4.72504">
        <ele>172</ele>
        <time>2016-11-05T09:23:38Z</time>
      </trkpt>
      <trkpt lat="45.93369" lon="4.72498">
        <ele>173</ele>
        <time>2016-11-05T09:23:39Z</time>
      </trkpt>
      <trkpt lat="45.93374" lon="4.72493">
        <ele>173</ele>
        <time>2016-11-05T09:23:40Z</time>
      </trkpt>
      <trkpt lat="45.93378" lon="4.72487">
        <ele>173</ele>
        <time>2016-11-05T09:23:41Z</time>
      </trkpt>
      <trkpt lat="45.93383" lon="4.72482">
        <ele>173</ele>
        <time>2016-11-05T09:23:42Z</time>
      </trkpt>
      <trkpt lat="45.93387" lon="4.72476">
        <ele>173</ele>
        <time>2016-11-05T09:23:43Z</time>
      </trkpt>
      <trkpt lat="45.93392" lon="4.72469">
        <ele>173</ele>
        <time>2016-11-05T09:23:44Z</time>
      </trkpt>
      <trkpt lat="45.93395" lon="4.72463">
        <ele>173</ele>
        <time>2016-11-05T09:23:45Z</time>
      </trkpt>
      <trkpt lat="45.93401" lon="4.72449">
        <ele>173</ele>
        <time>2016-11-05T09:23:47Z</time>
      </trkpt>
      <trkpt lat="45.93404" lon="4.72441">
        <ele>173</ele>
        <time>2016-11-05T09:23:48Z</time>
      </trkpt>
      <trkpt lat="45.93408" lon="4.72434">
        <ele>173</ele>
        <time>2016-11-05T09:23:49Z</time>
      </trkpt>
      <trkpt lat="45.93412" lon="4.72427">
        <ele>174</ele>
        <time>2016-11-05T09:23:50Z</time>
      </trkpt>
      <trkpt lat="45.93417" lon="4.72421">
        <ele>174</ele>
        <time>2016-11-05T09:23:51Z</time>
      </trkpt>
      <trkpt lat="45.93421" lon="4.72415">
        <ele>174</ele>
        <time>2016-11-05T09:23:52Z</time>
      </trkpt>
      <trkpt lat="45.93427" lon="4.72411">
        <ele>174</ele>
        <time>2016-11-05T09:23:53Z</time>
      </trkpt>
      <trkpt lat="45.93432" lon="4.72406">
        <ele>174</ele>
        <time>2016-11-05T09:23:54Z</time>
      </trkpt>
      <trkpt lat="45.93438" lon="4.72407">
        <ele>174</ele>
        <time>2016-11-05T09:23:55Z</time>
      </trkpt>
      <trkpt lat="45.93444" lon="4.72401">
        <ele>173</ele>
        <time>2016-11-05T09:23:56Z</time>
      </trkpt>
      <trkpt lat="45.9345" lon="4.72397">
        <ele>173</ele>
        <time>2016-11-05T09:23:57Z</time>
      </trkpt>
      <trkpt lat="45.93456" lon="4.72394">
        <ele>173</ele>
        <time>2016-11-05T09:23:58Z</time>
      </trkpt>
      <trkpt lat="45.93461" lon="4.72388">
        <ele>173</ele>
        <time>2016-11-05T09:23:59Z</time>
      </trkpt>
      <trkpt lat="45.93466" lon="4.72383">
        <ele>173</ele>
        <time>2016-11-05T09:24:00Z</time>
      </trkpt>
      <trkpt lat="45.93471" lon="4.72377">
        <ele>173</ele>
        <time>2016-11-05T09:24:01Z</time>
      </trkpt>
      <trkpt lat="45.93476" lon="4.7237">
        <ele>173</ele>
        <time>2016-11-05T09:24:02Z</time>
      </trkpt>
      <trkpt lat="45.9348" lon="4.72364">
        <ele>173</ele>
        <time>2016-11-05T09:24:03Z</time>
      </trkpt>
      <trkpt lat="45.93485" lon="4.72357">
        <ele>173</ele>
        <time>2016-11-05T09:24:04Z</time>
      </trkpt>
      <trkpt lat="45.9349" lon="4.72351">
        <ele>173</ele>
        <time>2016-11-05T09:24:05Z</time>
      </trkpt>
      <trkpt lat="45.93498" lon="4.72338">
        <ele>173</ele>
        <time>2016-11-05T09:24:07Z</time>
      </trkpt>
      <trkpt lat="45.93502" lon="4.72327">
        <ele>173</ele>
        <time>2016-11-05T09:24:08Z</time>
      </trkpt>
      <trkpt lat="45.93507" lon="4.72319">
        <ele>173</ele>
        <time>2016-11-05T09:24:09Z</time>
      </trkpt>
      <trkpt lat="45.9351" lon="4.72313">
        <ele>173</ele>
        <time>2016-11-05T09:24:10Z</time>
      </trkpt>
      <trkpt lat="45.93514" lon="4.72307">
        <ele>173</ele>
        <time>2016-11-05T09:24:11Z</time>
      </trkpt>
      <trkpt lat="45.93518" lon="4.72301">
        <ele>172</ele>
        <time>2016-11-05T09:24:12Z</time>
      </trkpt>
      <trkpt lat="45.93522" lon="4.72294">
        <ele>172</ele>
        <time>2016-11-05T09:24:13Z</time>
      </trkpt>
      <trkpt lat="45.93525" lon="4.72287">
        <ele>172</ele>
        <time>2016-11-05T09:24:14Z</time>
      </trkpt>
      <trkpt lat="45.93528" lon="4.7228">
        <ele>172</ele>
        <time>2016-11-05T09:24:15Z</time>
      </trkpt>
      <trkpt lat="45.9353" lon="4.72273">
        <ele>172</ele>
        <time>2016-11-05T09:24:16Z</time>
      </trkpt>
      <trkpt lat="45.93533" lon="4.72267">
        <ele>172</ele>
        <time>2016-11-05T09:24:17Z</time>
      </trkpt>
      <trkpt lat="45.93536" lon="4.7226">
        <ele>172</ele>
        <time>2016-11-05T09:24:18Z</time>
      </trkpt>
      <trkpt lat="45.93539" lon="4.72253">
        <ele>172</ele>
        <time>2016-11-05T09:24:19Z</time>
      </trkpt>
      <trkpt lat="45.93542" lon="4.72246">
        <ele>172</ele>
        <time>2016-11-05T09:24:20Z</time>
      </trkpt>
      <trkpt lat="45.93545" lon="4.72239">
        <ele>172</ele>
        <time>2016-11-05T09:24:21Z</time>
      </trkpt>
      <trkpt lat="45.93548" lon="4.72233">
        <ele>172</ele>
        <time>2016-11-05T09:24:22Z</time>
      </trkpt>
      <trkpt lat="45.93551" lon="4.72227">
        <ele>172</ele>
        <time>2016-11-05T09:24:23Z</time>
      </trkpt>
      <trkpt lat="45.93555" lon="4.72223">
        <ele>173</ele>
        <time>2016-11-05T09:24:24Z</time>
      </trkpt>
      <trkpt lat="45.9356" lon="4.72221">
        <ele>173</ele>
        <time>2016-11-05T09:24:25Z</time>
      </trkpt>
      <trkpt lat="45.93565" lon="4.72222">
        <ele>173</ele>
        <time>2016-11-05T09:24:26Z</time>
      </trkpt>
      <trkpt lat="45.9357" lon="4.72225">
        <ele>173</ele>
        <time>2016-11-05T09:24:27Z</time>
      </trkpt>
      <trkpt lat="45.93575" lon="4.72229">
        <ele>173</ele>
        <time>2016-11-05T09:24:28Z</time>
      </trkpt>
      <trkpt lat="45.93579" lon="4.72233">
        <ele>173</ele>
        <time>2016-11-05T09:24:29Z</time>
      </trkpt>
      <trkpt lat="45.93583" lon="4.72237">
        <ele>173</ele>
        <time>2016-11-05T09:24:30Z</time>
      </trkpt>
      <trkpt lat="45.93586" lon="4.72242">
        <ele>173</ele>
        <time>2016-11-05T09:24:31Z</time>
      </trkpt>
      <trkpt lat="45.9359" lon="4.72246">
        <ele>173</ele>
        <time>2016-11-05T09:24:32Z</time>
      </trkpt>
      <trkpt lat="45.93594" lon="4.7225">
        <ele>173</ele>
        <time>2016-11-05T09:24:33Z</time>
      </trkpt>
      <trkpt lat="45.93598" lon="4.72254">
        <ele>173</ele>
        <time>2016-11-05T09:24:34Z</time>
      </trkpt>
      <trkpt lat="45.93602" lon="4.72259">
        <ele>173</ele>
        <time>2016-11-05T09:24:35Z</time>
      </trkpt>
      <trkpt lat="45.93607" lon="4.72263">
        <ele>173</ele>
        <time>2016-11-05T09:24:36Z</time>
      </trkpt>
      <trkpt lat="45.93611" lon="4.72267">
        <ele>172</ele>
        <time>2016-11-05T09:24:37Z</time>
      </trkpt>
      <trkpt lat="45.93616" lon="4.72273">
        <ele>172</ele>
        <time>2016-11-05T09:24:38Z</time>
      </trkpt>
      <trkpt lat="45.93621" lon="4.72278">
        <ele>172</ele>
        <time>2016-11-05T09:24:39Z</time>
      </trkpt>
      <trkpt lat="45.93625" lon="4.72281">
        <ele>172</ele>
        <time>2016-11-05T09:24:40Z</time>
      </trkpt>
      <trkpt lat="45.93629" lon="4.72286">
        <ele>172</ele>
        <time>2016-11-05T09:24:41Z</time>
      </trkpt>
      <trkpt lat="45.93635" lon="4.7229">
        <ele>172</ele>
        <time>2016-11-05T09:24:42Z</time>
      </trkpt>
      <trkpt lat="45.9364" lon="4.72293">
        <ele>172</ele>
        <time>2016-11-05T09:24:43Z</time>
      </trkpt>
      <trkpt lat="45.93644" lon="4.72297">
        <ele>172</ele>
        <time>2016-11-05T09:24:44Z</time>
      </trkpt>
      <trkpt lat="45.93649" lon="4.72302">
        <ele>172</ele>
        <time>2016-11-05T09:24:45Z</time>
      </trkpt>
      <trkpt lat="45.93654" lon="4.72308">
        <ele>172</ele>
        <time>2016-11-05T09:24:46Z</time>
      </trkpt>
      <trkpt lat="45.93657" lon="4.72313">
        <ele>172</ele>
        <time>2016-11-05T09:24:47Z</time>
      </trkpt>
      <trkpt lat="45.93661" lon="4.72317">
        <ele>172</ele>
        <time>2016-11-05T09:24:48Z</time>
      </trkpt>
      <trkpt lat="45.93666" lon="4.72321">
        <ele>171</ele>
        <time>2016-11-05T09:24:49Z</time>
      </trkpt>
      <trkpt lat="45.9367" lon="4.72326">
        <ele>171</ele>
        <time>2016-11-05T09:24:50Z</time>
      </trkpt>
      <trkpt lat="45.93675" lon="4.72331">
        <ele>171</ele>
        <time>2016-11-05T09:24:51Z</time>
      </trkpt>
      <trkpt lat="45.9368" lon="4.72336">
        <ele>171</ele>
        <time>2016-11-05T09:24:52Z</time>
      </trkpt>
      <trkpt lat="45.93686" lon="4.72339">
        <ele>171</ele>
        <time>2016-11-05T09:24:53Z</time>
      </trkpt>
      <trkpt lat="45.93691" lon="4.72341">
        <ele>171</ele>
        <time>2016-11-05T09:24:54Z</time>
      </trkpt>
      <trkpt lat="45.93697" lon="4.72343">
        <ele>171</ele>
        <time>2016-11-05T09:24:55Z</time>
      </trkpt>
      <trkpt lat="45.93703" lon="4.72348">
        <ele>171</ele>
        <time>2016-11-05T09:24:56Z</time>
      </trkpt>
      <trkpt lat="45.93707" lon="4.72353">
        <ele>171</ele>
        <time>2016-11-05T09:24:57Z</time>
      </trkpt>
      <trkpt lat="45.93714" lon="4.72358">
        <ele>172</ele>
        <time>2016-11-05T09:24:59Z</time>
      </trkpt>
      <trkpt lat="45.93717" lon="4.72355">
        <ele>172</ele>
        <time>2016-11-05T09:25:00Z</time>
      </trkpt>
      <trkpt lat="45.93723" lon="4.72346">
        <ele>172</ele>
        <time>2016-11-05T09:25:02Z</time>
      </trkpt>
      <trkpt lat="45.93726" lon="4.72341">
        <ele>172</ele>
        <time>2016-11-05T09:25:03Z</time>
      </trkpt>
      <trkpt lat="45.93729" lon="4.72336">
        <ele>172</ele>
        <time>2016-11-05T09:25:04Z</time>
      </trkpt>
      <trkpt lat="45.93733" lon="4.7233">
        <ele>172</ele>
        <time>2016-11-05T09:25:05Z</time>
      </trkpt>
      <trkpt lat="45.93737" lon="4.72324">
        <ele>172</ele>
        <time>2016-11-05T09:25:06Z</time>
      </trkpt>
      <trkpt lat="45.93741" lon="4.72317">
        <ele>172</ele>
        <time>2016-11-05T09:25:07Z</time>
      </trkpt>
      <trkpt lat="45.93745" lon="4.7231">
        <ele>172</ele>
        <time>2016-11-05T09:25:08Z</time>
      </trkpt>
      <trkpt lat="45.93748" lon="4.72303">
        <ele>172</ele>
        <time>2016-11-05T09:25:09Z</time>
      </trkpt>
      <trkpt lat="45.93752" lon="4.72296">
        <ele>172</ele>
        <time>2016-11-05T09:25:10Z</time>
      </trkpt>
      <trkpt lat="45.93756" lon="4.72288">
        <ele>172</ele>
        <time>2016-11-05T09:25:11Z</time>
      </trkpt>
      <trkpt lat="45.93759" lon="4.7228">
        <ele>172</ele>
        <time>2016-11-05T09:25:12Z</time>
      </trkpt>
      <trkpt lat="45.93763" lon="4.72274">
        <ele>172</ele>
        <time>2016-11-05T09:25:13Z</time>
      </trkpt>
      <trkpt lat="45.93766" lon="4.72267">
        <ele>172</ele>
        <time>2016-11-05T09:25:14Z</time>
      </trkpt>
      <trkpt lat="45.9377" lon="4.7226">
        <ele>172</ele>
        <time>2016-11-05T09:25:15Z</time>
      </trkpt>
      <trkpt lat="45.93774" lon="4.72253">
        <ele>172</ele>
        <time>2016-11-05T09:25:16Z</time>
      </trkpt>
      <trkpt lat="45.93777" lon="4.72246">
        <ele>172</ele>
        <time>2016-11-05T09:25:17Z</time>
      </trkpt>
      <trkpt lat="45.93781" lon="4.7224">
        <ele>172</ele>
        <time>2016-11-05T09:25:18Z</time>
      </trkpt>
      <trkpt lat="45.93785" lon="4.72234">
        <ele>172</ele>
        <time>2016-11-05T09:25:19Z</time>
      </trkpt>
      <trkpt lat="45.93789" lon="4.72229">
        <ele>172</ele>
        <time>2016-11-05T09:25:20Z</time>
      </trkpt>
      <trkpt lat="45.93793" lon="4.72224">
        <ele>172</ele>
        <time>2016-11-05T09:25:21Z</time>
      </trkpt>
      <trkpt lat="45.93797" lon="4.72218">
        <ele>172</ele>
        <time>2016-11-05T09:25:22Z</time>
      </trkpt>
      <trkpt lat="45.93801" lon="4.72213">
        <ele>172</ele>
        <time>2016-11-05T09:25:23Z</time>
      </trkpt>
      <trkpt lat="45.93804" lon="4.72208">
        <ele>172</ele>
        <time>2016-11-05T09:25:24Z</time>
      </trkpt>
      <trkpt lat="45.93808" lon="4.72202">
        <ele>172</ele>
        <time>2016-11-05T09:25:25Z</time>
      </trkpt>
      <trkpt lat="45.93811" lon="4.72196">
        <ele>172</ele>
        <time>2016-11-05T09:25:26Z</time>
      </trkpt>
      <trkpt lat="45.93814" lon="4.72189">
        <ele>172</ele>
        <time>2016-11-05T09:25:27Z</time>
      </trkpt>
      <trkpt lat="45.93816" lon="4.72181">
        <ele>172</ele>
        <time>2016-11-05T09:25:28Z</time>
      </trkpt>
      <trkpt lat="45.93819" lon="4.72174">
        <ele>172</ele>
        <time>2016-11-05T09:25:29Z</time>
      </trkpt>
      <trkpt lat="45.93822" lon="4.72168">
        <ele>172</ele>
        <time>2016-11-05T09:25:30Z</time>
      </trkpt>
      <trkpt lat="45.93827" lon="4.72164">
        <ele>172</ele>
        <time>2016-11-05T09:25:31Z</time>
      </trkpt>
      <trkpt lat="45.9383" lon="4.7216">
        <ele>172</ele>
        <time>2016-11-05T09:25:32Z</time>
      </trkpt>
      <trkpt lat="45.93833" lon="4.72155">
        <ele>172</ele>
        <time>2016-11-05T09:25:33Z</time>
      </trkpt>
      <trkpt lat="45.93838" lon="4.72147">
        <ele>171</ele>
        <time>2016-11-05T09:25:35Z</time>
      </trkpt>
      <trkpt lat="45.93839" lon="4.72145">
        <ele>172</ele>
        <time>2016-11-05T09:25:36Z</time>
      </trkpt>
      <trkpt lat="45.93844" lon="4.72139">
        <ele>172</ele>
        <time>2016-11-05T09:25:39Z</time>
      </trkpt>
      <trkpt lat="45.93847" lon="4.72136">
        <ele>172</ele>
        <time>2016-11-05T09:25:40Z</time>
      </trkpt>
      <trkpt lat="45.93852" lon="4.72127">
        <ele>172</ele>
        <time>2016-11-05T09:25:42Z</time>
      </trkpt>
      <trkpt lat="45.93854" lon="4.72122">
        <ele>172</ele>
        <time>2016-11-05T09:25:43Z</time>
      </trkpt>
      <trkpt lat="45.93857" lon="4.72117">
        <ele>172</ele>
        <time>2016-11-05T09:25:44Z</time>
      </trkpt>
      <trkpt lat="45.93861" lon="4.72112">
        <ele>172</ele>
        <time>2016-11-05T09:25:45Z</time>
      </trkpt>
      <trkpt lat="45.93864" lon="4.72108">
        <ele>172</ele>
        <time>2016-11-05T09:25:46Z</time>
      </trkpt>
      <trkpt lat="45.93868" lon="4.72103">
        <ele>172</ele>
        <time>2016-11-05T09:25:47Z</time>
      </trkpt>
      <trkpt lat="45.93871" lon="4.72099">
        <ele>172</ele>
        <time>2016-11-05T09:25:48Z</time>
      </trkpt>
      <trkpt lat="45.93875" lon="4.72094">
        <ele>172</ele>
        <time>2016-11-05T09:25:49Z</time>
      </trkpt>
      <trkpt lat="45.93878" lon="4.72089">
        <ele>172</ele>
        <time>2016-11-05T09:25:50Z</time>
      </trkpt>
      <trkpt lat="45.93882" lon="4.72085">
        <ele>172</ele>
        <time>2016-11-05T09:25:51Z</time>
      </trkpt>
      <trkpt lat="45.93886" lon="4.7208">
        <ele>172</ele>
        <time>2016-11-05T09:25:52Z</time>
      </trkpt>
      <trkpt lat="45.9389" lon="4.72075">
        <ele>172</ele>
        <time>2016-11-05T09:25:53Z</time>
      </trkpt>
      <trkpt lat="45.93897" lon="4.72068">
        <ele>172</ele>
        <time>2016-11-05T09:25:55Z</time>
      </trkpt>
      <trkpt lat="45.939" lon="4.72063">
        <ele>172</ele>
        <time>2016-11-05T09:25:56Z</time>
      </trkpt>
      <trkpt lat="45.93907" lon="4.72056">
        <ele>172</ele>
        <time>2016-11-05T09:25:58Z</time>
      </trkpt>
      <trkpt lat="45.93911" lon="4.72051">
        <ele>172</ele>
        <time>2016-11-05T09:25:59Z</time>
      </trkpt>
      <trkpt lat="45.93915" lon="4.72047">
        <ele>172</ele>
        <time>2016-11-05T09:26:00Z</time>
      </trkpt>
      <trkpt lat="45.93919" lon="4.72044">
        <ele>172</ele>
        <time>2016-11-05T09:26:01Z</time>
      </trkpt>
      <trkpt lat="45.93923" lon="4.72039">
        <ele>172</ele>
        <time>2016-11-05T09:26:02Z</time>
      </trkpt>
      <trkpt lat="45.93928" lon="4.72035">
        <ele>172</ele>
        <time>2016-11-05T09:26:03Z</time>
      </trkpt>
      <trkpt lat="45.93932" lon="4.72029">
        <ele>172</ele>
        <time>2016-11-05T09:26:04Z</time>
      </trkpt>
      <trkpt lat="45.93936" lon="4.72024">
        <ele>172</ele>
        <time>2016-11-05T09:26:05Z</time>
      </trkpt>
      <trkpt lat="45.9394" lon="4.72019">
        <ele>172</ele>
        <time>2016-11-05T09:26:06Z</time>
      </trkpt>
      <trkpt lat="45.93943" lon="4.72014">
        <ele>172</ele>
        <time>2016-11-05T09:26:07Z</time>
      </trkpt>
      <trkpt lat="45.93947" lon="4.72009">
        <ele>172</ele>
        <time>2016-11-05T09:26:08Z</time>
      </trkpt>
      <trkpt lat="45.93953" lon="4.72005">
        <ele>172</ele>
        <time>2016-11-05T09:26:09Z</time>
      </trkpt>
      <trkpt lat="45.93958" lon="4.72002">
        <ele>172</ele>
        <time>2016-11-05T09:26:10Z</time>
      </trkpt>
      <trkpt lat="45.93963" lon="4.71999">
        <ele>173</ele>
        <time>2016-11-05T09:26:11Z</time>
      </trkpt>
      <trkpt lat="45.93967" lon="4.71995">
        <ele>173</ele>
        <time>2016-11-05T09:26:12Z</time>
      </trkpt>
      <trkpt lat="45.93972" lon="4.71991">
        <ele>173</ele>
        <time>2016-11-05T09:26:13Z</time>
      </trkpt>
      <trkpt lat="45.93975" lon="4.71985">
        <ele>173</ele>
        <time>2016-11-05T09:26:14Z</time>
      </trkpt>
      <trkpt lat="45.93979" lon="4.71979">
        <ele>173</ele>
        <time>2016-11-05T09:26:15Z</time>
      </trkpt>
      <trkpt lat="45.93982" lon="4.71973">
        <ele>173</ele>
        <time>2016-11-05T09:26:16Z</time>
      </trkpt>
      <trkpt lat="45.93986" lon="4.71967">
        <ele>173</ele>
        <time>2016-11-05T09:26:17Z</time>
      </trkpt>
      <trkpt lat="45.9399" lon="4.71963">
        <ele>173</ele>
        <time>2016-11-05T09:26:18Z</time>
      </trkpt>
      <trkpt lat="45.93994" lon="4.71963">
        <ele>173</ele>
        <time>2016-11-05T09:26:19Z</time>
      </trkpt>
      <trkpt lat="45.93998" lon="4.71966">
        <ele>173</ele>
        <time>2016-11-05T09:26:20Z</time>
      </trkpt>
      <trkpt lat="45.94002" lon="4.71969">
        <ele>174</ele>
        <time>2016-11-05T09:26:21Z</time>
      </trkpt>
      <trkpt lat="45.94006" lon="4.71974">
        <ele>174</ele>
        <time>2016-11-05T09:26:22Z</time>
      </trkpt>
      <trkpt lat="45.94009" lon="4.7198">
        <ele>174</ele>
        <time>2016-11-05T09:26:23Z</time>
      </trkpt>
      <trkpt lat="45.94013" lon="4.71986">
        <ele>174</ele>
        <time>2016-11-05T09:26:24Z</time>
      </trkpt>
      <trkpt lat="45.94018" lon="4.71993">
        <ele>174</ele>
        <time>2016-11-05T09:26:25Z</time>
      </trkpt>
      <trkpt lat="45.94022" lon="4.71999">
        <ele>174</ele>
        <time>2016-11-05T09:26:26Z</time>
      </trkpt>
      <trkpt lat="45.94026" lon="4.72006">
        <ele>173</ele>
        <time>2016-11-05T09:26:27Z</time>
      </trkpt>
      <trkpt lat="45.9403" lon="4.72012">
        <ele>173</ele>
        <time>2016-11-05T09:26:28Z</time>
      </trkpt>
      <trkpt lat="45.94034" lon="4.72018">
        <ele>173</ele>
        <time>2016-11-05T09:26:29Z</time>
      </trkpt>
      <trkpt lat="45.94037" lon="4.72024">
        <ele>173</ele>
        <time>2016-11-05T09:26:30Z</time>
      </trkpt>
      <trkpt lat="45.94039" lon="4.7203">
        <ele>173</ele>
        <time>2016-11-05T09:26:31Z</time>
      </trkpt>
      <trkpt lat="45.94045" lon="4.7204">
        <ele>173</ele>
        <time>2016-11-05T09:26:34Z</time>
      </trkpt>
      <trkpt lat="45.94047" lon="4.72043">
        <ele>173</ele>
        <time>2016-11-05T09:26:35Z</time>
      </trkpt>
      <trkpt lat="45.94053" lon="4.72042">
        <ele>173</ele>
        <time>2016-11-05T09:26:37Z</time>
      </trkpt>
      <trkpt lat="45.94057" lon="4.7204">
        <ele>173</ele>
        <time>2016-11-05T09:26:38Z</time>
      </trkpt>
      <trkpt lat="45.9406" lon="4.72035">
        <ele>173</ele>
        <time>2016-11-05T09:26:39Z</time>
      </trkpt>
      <trkpt lat="45.94065" lon="4.7203">
        <ele>174</ele>
        <time>2016-11-05T09:26:40Z</time>
      </trkpt>
      <trkpt lat="45.94069" lon="4.72025">
        <ele>174</ele>
        <time>2016-11-05T09:26:41Z</time>
      </trkpt>
      <trkpt lat="45.94073" lon="4.7202">
        <ele>174</ele>
        <time>2016-11-05T09:26:42Z</time>
      </trkpt>
      <trkpt lat="45.94077" lon="4.72015">
        <ele>174</ele>
        <time>2016-11-05T09:26:43Z</time>
      </trkpt>
      <trkpt lat="45.94082" lon="4.72009">
        <ele>174</ele>
        <time>2016-11-05T09:26:44Z</time>
      </trkpt>
      <trkpt lat="45.94087" lon="4.72003">
        <ele>175</ele>
        <time>2016-11-05T09:26:45Z</time>
      </trkpt>
      <trkpt lat="45.94091" lon="4.71998">
        <ele>175</ele>
        <time>2016-11-05T09:26:46Z</time>
      </trkpt>
      <trkpt lat="45.94095" lon="4.71993">
        <ele>174</ele>
        <time>2016-11-05T09:26:47Z</time>
      </trkpt>
      <trkpt lat="45.941" lon="4.71988">
        <ele>174</ele>
        <time>2016-11-05T09:26:48Z</time>
      </trkpt>
      <trkpt lat="45.94104" lon="4.71983">
        <ele>174</ele>
        <time>2016-11-05T09:26:49Z</time>
      </trkpt>
      <trkpt lat="45.94108" lon="4.71978">
        <ele>174</ele>
        <time>2016-11-05T09:26:50Z</time>
      </trkpt>
      <trkpt lat="45.94113" lon="4.71973">
        <ele>174</ele>
        <time>2016-11-05T09:26:51Z</time>
      </trkpt>
      <trkpt lat="45.94117" lon="4.7197">
        <ele>174</ele>
        <time>2016-11-05T09:26:52Z</time>
      </trkpt>
      <trkpt lat="45.94125" lon="4.71966">
        <ele>174</ele>
        <time>2016-11-05T09:26:54Z</time>
      </trkpt>
      <trkpt lat="45.9413" lon="4.71967">
        <ele>174</ele>
        <time>2016-11-05T09:26:55Z</time>
      </trkpt>
      <trkpt lat="45.94135" lon="4.71968">
        <ele>174</ele>
        <time>2016-11-05T09:26:56Z</time>
      </trkpt>
      <trkpt lat="45.94139" lon="4.71971">
        <ele>174</ele>
        <time>2016-11-05T09:26:57Z</time>
      </trkpt>
      <trkpt lat="45.94143" lon="4.71976">
        <ele>174</ele>
        <time>2016-11-05T09:26:58Z</time>
      </trkpt>
      <trkpt lat="45.94146" lon="4.71981">
        <ele>173</ele>
        <time>2016-11-05T09:26:59Z</time>
      </trkpt>
      <trkpt lat="45.94151" lon="4.71992">
        <ele>173</ele>
        <time>2016-11-05T09:27:01Z</time>
      </trkpt>
      <trkpt lat="45.94153" lon="4.71998">
        <ele>173</ele>
        <time>2016-11-05T09:27:02Z</time>
      </trkpt>
      <trkpt lat="45.94157" lon="4.72008">
        <ele>173</ele>
        <time>2016-11-05T09:27:04Z</time>
      </trkpt>
      <trkpt lat="45.9416" lon="4.72013">
        <ele>173</ele>
        <time>2016-11-05T09:27:05Z</time>
      </trkpt>
      <trkpt lat="45.94164" lon="4.72023">
        <ele>173</ele>
        <time>2016-11-05T09:27:07Z</time>
      </trkpt>
      <trkpt lat="45.94167" lon="4.72028">
        <ele>173</ele>
        <time>2016-11-05T09:27:08Z</time>
      </trkpt>
      <trkpt lat="45.94171" lon="4.72037">
        <ele>173</ele>
        <time>2016-11-05T09:27:10Z</time>
      </trkpt>
      <trkpt lat="45.94173" lon="4.72042">
        <ele>173</ele>
        <time>2016-11-05T09:27:11Z</time>
      </trkpt>
      <trkpt lat="45.94178" lon="4.72053">
        <ele>173</ele>
        <time>2016-11-05T09:27:13Z</time>
      </trkpt>
      <trkpt lat="45.9418" lon="4.72058">
        <ele>173</ele>
        <time>2016-11-05T09:27:14Z</time>
      </trkpt>
      <trkpt lat="45.94182" lon="4.72064">
        <ele>173</ele>
        <time>2016-11-05T09:27:15Z</time>
      </trkpt>
      <trkpt lat="45.94184" lon="4.72071">
        <ele>173</ele>
        <time>2016-11-05T09:27:16Z</time>
      </trkpt>
      <trkpt lat="45.94187" lon="4.72077">
        <ele>173</ele>
        <time>2016-11-05T09:27:17Z</time>
      </trkpt>
      <trkpt lat="45.94189" lon="4.72084">
        <ele>172</ele>
        <time>2016-11-05T09:27:18Z</time>
      </trkpt>
      <trkpt lat="45.94192" lon="4.7209">
        <ele>172</ele>
        <time>2016-11-05T09:27:19Z</time>
      </trkpt>
      <trkpt lat="45.94196" lon="4.72097">
        <ele>172</ele>
        <time>2016-11-05T09:27:20Z</time>
      </trkpt>
      <trkpt lat="45.94199" lon="4.72104">
        <ele>172</ele>
        <time>2016-11-05T09:27:21Z</time>
      </trkpt>
      <trkpt lat="45.94202" lon="4.72111">
        <ele>172</ele>
        <time>2016-11-05T09:27:22Z</time>
      </trkpt>
      <trkpt lat="45.94206" lon="4.72118">
        <ele>173</ele>
        <time>2016-11-05T09:27:23Z</time>
      </trkpt>
      <trkpt lat="45.9421" lon="4.72126">
        <ele>173</ele>
        <time>2016-11-05T09:27:24Z</time>
      </trkpt>
      <trkpt lat="45.94214" lon="4.72134">
        <ele>173</ele>
        <time>2016-11-05T09:27:25Z</time>
      </trkpt>
      <trkpt lat="45.94218" lon="4.72143">
        <ele>173</ele>
        <time>2016-11-05T09:27:26Z</time>
      </trkpt>
      <trkpt lat="45.94222" lon="4.72153">
        <ele>173</ele>
        <time>2016-11-05T09:27:27Z</time>
      </trkpt>
      <trkpt lat="45.94227" lon="4.72162">
        <ele>173</ele>
        <time>2016-11-05T09:27:28Z</time>
      </trkpt>
      <trkpt lat="45.94231" lon="4.72172">
        <ele>172</ele>
        <time>2016-11-05T09:27:29Z</time>
      </trkpt>
      <trkpt lat="45.94235" lon="4.72183">
        <ele>172</ele>
        <time>2016-11-05T09:27:30Z</time>
      </trkpt>
      <trkpt lat="45.94239" lon="4.72193">
        <ele>172</ele>
        <time>2016-11-05T09:27:31Z</time>
      </trkpt>
      <trkpt lat="45.94244" lon="4.72204">
        <ele>172</ele>
        <time>2016-11-05T09:27:32Z</time>
      </trkpt>
      <trkpt lat="45.94248" lon="4.72214">
        <ele>171</ele>
        <time>2016-11-05T09:27:33Z</time>
      </trkpt>
      <trkpt lat="45.94253" lon="4.72225">
        <ele>172</ele>
        <time>2016-11-05T09:27:34Z</time>
      </trkpt>
      <trkpt lat="45.94257" lon="4.72234">
        <ele>171</ele>
        <time>2016-11-05T09:27:35Z</time>
      </trkpt>
      <trkpt lat="45.94261" lon="4.72244">
        <ele>171</ele>
        <time>2016-11-05T09:27:36Z</time>
      </trkpt>
      <trkpt lat="45.94265" lon="4.72253">
        <ele>171</ele>
        <time>2016-11-05T09:27:37Z</time>
      </trkpt>
      <trkpt lat="45.9427" lon="4.72261">
        <ele>171</ele>
        <time>2016-11-05T09:27:38Z</time>
      </trkpt>
      <trkpt lat="45.94273" lon="4.7227">
        <ele>171</ele>
        <time>2016-11-05T09:27:39Z</time>
      </trkpt>
      <trkpt lat="45.94277" lon="4.72278">
        <ele>171</ele>
        <time>2016-11-05T09:27:40Z</time>
      </trkpt>
      <trkpt lat="45.94281" lon="4.72286">
        <ele>171</ele>
        <time>2016-11-05T09:27:41Z</time>
      </trkpt>
      <trkpt lat="45.94284" lon="4.72295">
        <ele>171</ele>
        <time>2016-11-05T09:27:42Z</time>
      </trkpt>
      <trkpt lat="45.94287" lon="4.72303">
        <ele>171</ele>
        <time>2016-11-05T09:27:43Z</time>
      </trkpt>
      <trkpt lat="45.94291" lon="4.7231">
        <ele>171</ele>
        <time>2016-11-05T09:27:44Z</time>
      </trkpt>
      <trkpt lat="45.94295" lon="4.72318">
        <ele>171</ele>
        <time>2016-11-05T09:27:45Z</time>
      </trkpt>
      <trkpt lat="45.94298" lon="4.72326">
        <ele>171</ele>
        <time>2016-11-05T09:27:46Z</time>
      </trkpt>
      <trkpt lat="45.94302" lon="4.72333">
        <ele>171</ele>
        <time>2016-11-05T09:27:47Z</time>
      </trkpt>
      <trkpt lat="45.94306" lon="4.7234">
        <ele>172</ele>
        <time>2016-11-05T09:27:48Z</time>
      </trkpt>
      <trkpt lat="45.94309" lon="4.72347">
        <ele>172</ele>
        <time>2016-11-05T09:27:49Z</time>
      </trkpt>
      <trkpt lat="45.94313" lon="4.72355">
        <ele>172</ele>
        <time>2016-11-05T09:27:50Z</time>
      </trkpt>
      <trkpt lat="45.94316" lon="4.72362">
        <ele>172</ele>
        <time>2016-11-05T09:27:51Z</time>
      </trkpt>
      <trkpt lat="45.94319" lon="4.72369">
        <ele>172</ele>
        <time>2016-11-05T09:27:52Z</time>
      </trkpt>
      <trkpt lat="45.94322" lon="4.72376">
        <ele>172</ele>
        <time>2016-11-05T09:27:53Z</time>
      </trkpt>
      <trkpt lat="45.94326" lon="4.72384">
        <ele>172</ele>
        <time>2016-11-05T09:27:54Z</time>
      </trkpt>
      <trkpt lat="45.94329" lon="4.72391">
        <ele>172</ele>
        <time>2016-11-05T09:27:55Z</time>
      </trkpt>
      <trkpt lat="45.94332" lon="4.72398">
        <ele>172</ele>
        <time>2016-11-05T09:27:56Z</time>
      </trkpt>
      <trkpt lat="45.94335" lon="4.72406">
        <ele>173</ele>
        <time>2016-11-05T09:27:57Z</time>
      </trkpt>
      <trkpt lat="45.94338" lon="4.72412">
        <ele>173</ele>
        <time>2016-11-05T09:27:58Z</time>
      </trkpt>
      <trkpt lat="45.94342" lon="4.72419">
        <ele>173</ele>
        <time>2016-11-05T09:27:59Z</time>
      </trkpt>
      <trkpt lat="45.94345" lon="4.72425">
        <ele>173</ele>
        <time>2016-11-05T09:28:00Z</time>
      </trkpt>
      <trkpt lat="45.94348" lon="4.72432">
        <ele>173</ele>
        <time>2016-11-05T09:28:01Z</time>
      </trkpt>
      <trkpt lat="45.94351" lon="4.72439">
        <ele>173</ele>
        <time>2016-11-05T09:28:02Z</time>
      </trkpt>
      <trkpt lat="45.94353" lon="4.72445">
        <ele>173</ele>
        <time>2016-11-05T09:28:03Z</time>
      </trkpt>
      <trkpt lat="45.94356" lon="4.72452">
        <ele>173</ele>
        <time>2016-11-05T09:28:04Z</time>
      </trkpt>
      <trkpt lat="45.94359" lon="4.72459">
        <ele>173</ele>
        <time>2016-11-05T09:28:05Z</time>
      </trkpt>
      <trkpt lat="45.94362" lon="4.72465">
        <ele>173</ele>
        <time>2016-11-05T09:28:06Z</time>
      </trkpt>
      <trkpt lat="45.94364" lon="4.72472">
        <ele>173</ele>
        <time>2016-11-05T09:28:07Z</time>
      </trkpt>
      <trkpt lat="45.94367" lon="4.72479">
        <ele>173</ele>
        <time>2016-11-05T09:28:08Z</time>
      </trkpt>
      <trkpt lat="45.9437" lon="4.72486">
        <ele>173</ele>
        <time>2016-11-05T09:28:09Z</time>
      </trkpt>
      <trkpt lat="45.94373" lon="4.72493">
        <ele>173</ele>
        <time>2016-11-05T09:28:10Z</time>
      </trkpt>
      <trkpt lat="45.94376" lon="4.725">
        <ele>174</ele>
        <time>2016-11-05T09:28:11Z</time>
      </trkpt>
      <trkpt lat="45.94378" lon="4.72508">
        <ele>174</ele>
        <time>2016-11-05T09:28:12Z</time>
      </trkpt>
      <trkpt lat="45.9438" lon="4.72515">
        <ele>174</ele>
        <time>2016-11-05T09:28:13Z</time>
      </trkpt>
      <trkpt lat="45.94382" lon="4.72522">
        <ele>174</ele>
        <time>2016-11-05T09:28:14Z</time>
      </trkpt>
      <trkpt lat="45.94383" lon="4.7253">
        <ele>174</ele>
        <time>2016-11-05T09:28:15Z</time>
      </trkpt>
      <trkpt lat="45.94385" lon="4.72538">
        <ele>174</ele>
        <time>2016-11-05T09:28:16Z</time>
      </trkpt>
      <trkpt lat="45.94387" lon="4.72545">
        <ele>173</ele>
        <time>2016-11-05T09:28:17Z</time>
      </trkpt>
      <trkpt lat="45.94388" lon="4.72553">
        <ele>173</ele>
        <time>2016-11-05T09:28:18Z</time>
      </trkpt>
      <trkpt lat="45.94389" lon="4.72561">
        <ele>173</ele>
        <time>2016-11-05T09:28:19Z</time>
      </trkpt>
      <trkpt lat="45.9439" lon="4.72569">
        <ele>173</ele>
        <time>2016-11-05T09:28:20Z</time>
      </trkpt>
      <trkpt lat="45.94392" lon="4.72576">
        <ele>173</ele>
        <time>2016-11-05T09:28:21Z</time>
      </trkpt>
      <trkpt lat="45.94393" lon="4.72584">
        <ele>173</ele>
        <time>2016-11-05T09:28:22Z</time>
      </trkpt>
      <trkpt lat="45.94395" lon="4.72592">
        <ele>173</ele>
        <time>2016-11-05T09:28:23Z</time>
      </trkpt>
      <trkpt lat="45.94396" lon="4.726">
        <ele>173</ele>
        <time>2016-11-05T09:28:24Z</time>
      </trkpt>
      <trkpt lat="45.94396" lon="4.72608">
        <ele>173</ele>
        <time>2016-11-05T09:28:25Z</time>
      </trkpt>
      <trkpt lat="45.94399" lon="4.72615">
        <ele>173</ele>
        <time>2016-11-05T09:28:26Z</time>
      </trkpt>
      <trkpt lat="45.944" lon="4.72623">
        <ele>173</ele>
        <time>2016-11-05T09:28:27Z</time>
      </trkpt>
      <trkpt lat="45.94401" lon="4.7263">
        <ele>174</ele>
        <time>2016-11-05T09:28:28Z</time>
      </trkpt>
      <trkpt lat="45.94402" lon="4.72638">
        <ele>174</ele>
        <time>2016-11-05T09:28:29Z</time>
      </trkpt>
      <trkpt lat="45.94403" lon="4.72646">
        <ele>174</ele>
        <time>2016-11-05T09:28:30Z</time>
      </trkpt>
      <trkpt lat="45.94404" lon="4.72654">
        <ele>174</ele>
        <time>2016-11-05T09:28:31Z</time>
      </trkpt>
      <trkpt lat="45.94405" lon="4.72662">
        <ele>174</ele>
        <time>2016-11-05T09:28:32Z</time>
      </trkpt>
      <trkpt lat="45.94406" lon="4.72671">
        <ele>173</ele>
        <time>2016-11-05T09:28:33Z</time>
      </trkpt>
      <trkpt lat="45.94407" lon="4.72679">
        <ele>173</ele>
        <time>2016-11-05T09:28:34Z</time>
      </trkpt>
      <trkpt lat="45.94408" lon="4.72687">
        <ele>173</ele>
        <time>2016-11-05T09:28:35Z</time>
      </trkpt>
      <trkpt lat="45.94409" lon="4.72695">
        <ele>173</ele>
        <time>2016-11-05T09:28:36Z</time>
      </trkpt>
      <trkpt lat="45.9441" lon="4.72703">
        <ele>172</ele>
        <time>2016-11-05T09:28:37Z</time>
      </trkpt>
      <trkpt lat="45.94411" lon="4.7271">
        <ele>172</ele>
        <time>2016-11-05T09:28:38Z</time>
      </trkpt>
      <trkpt lat="45.94413" lon="4.72717">
        <ele>172</ele>
        <time>2016-11-05T09:28:39Z</time>
      </trkpt>
      <trkpt lat="45.94413" lon="4.72725">
        <ele>172</ele>
        <time>2016-11-05T09:28:40Z</time>
      </trkpt>
      <trkpt lat="45.94414" lon="4.72734">
        <ele>172</ele>
        <time>2016-11-05T09:28:41Z</time>
      </trkpt>
      <trkpt lat="45.94415" lon="4.72741">
        <ele>171</ele>
        <time>2016-11-05T09:28:42Z</time>
      </trkpt>
      <trkpt lat="45.94416" lon="4.72749">
        <ele>171</ele>
        <time>2016-11-05T09:28:43Z</time>
      </trkpt>
      <trkpt lat="45.94417" lon="4.72757">
        <ele>170</ele>
        <time>2016-11-05T09:28:44Z</time>
      </trkpt>
      <trkpt lat="45.94418" lon="4.72764">
        <ele>169</ele>
        <time>2016-11-05T09:28:45Z</time>
      </trkpt>
      <trkpt lat="45.94419" lon="4.72772">
        <ele>169</ele>
        <time>2016-11-05T09:28:46Z</time>
      </trkpt>
      <trkpt lat="45.9442" lon="4.72779">
        <ele>168</ele>
        <time>2016-11-05T09:28:47Z</time>
      </trkpt>
      <trkpt lat="45.9442" lon="4.72786">
        <ele>168</ele>
        <time>2016-11-05T09:28:48Z</time>
      </trkpt>
      <trkpt lat="45.94421" lon="4.72794">
        <ele>168</ele>
        <time>2016-11-05T09:28:49Z</time>
      </trkpt>
      <trkpt lat="45.94423" lon="4.72801">
        <ele>167</ele>
        <time>2016-11-05T09:28:50Z</time>
      </trkpt>
      <trkpt lat="45.94423" lon="4.72808">
        <ele>167</ele>
        <time>2016-11-05T09:28:51Z</time>
      </trkpt>
      <trkpt lat="45.94424" lon="4.72816">
        <ele>167</ele>
        <time>2016-11-05T09:28:52Z</time>
      </trkpt>
      <trkpt lat="45.94425" lon="4.72823">
        <ele>167</ele>
        <time>2016-11-05T09:28:53Z</time>
      </trkpt>
      <trkpt lat="45.94426" lon="4.7283">
        <ele>166</ele>
        <time>2016-11-05T09:28:54Z</time>
      </trkpt>
      <trkpt lat="45.94427" lon="4.72837">
        <ele>166</ele>
        <time>2016-11-05T09:28:55Z</time>
      </trkpt>
      <trkpt lat="45.94428" lon="4.72844">
        <ele>166</ele>
        <time>2016-11-05T09:28:56Z</time>
      </trkpt>
      <trkpt lat="45.94429" lon="4.72851">
        <ele>166</ele>
        <time>2016-11-05T09:28:57Z</time>
      </trkpt>
      <trkpt lat="45.9443" lon="4.72858">
        <ele>166</ele>
        <time>2016-11-05T09:28:58Z</time>
      </trkpt>
      <trkpt lat="45.94431" lon="4.72865">
        <ele>166</ele>
        <time>2016-11-05T09:28:59Z</time>
      </trkpt>
      <trkpt lat="45.94432" lon="4.72872">
        <ele>166</ele>
        <time>2016-11-05T09:29:00Z</time>
      </trkpt>
      <trkpt lat="45.94433" lon="4.7288">
        <ele>166</ele>
        <time>2016-11-05T09:29:01Z</time>
      </trkpt>
      <trkpt lat="45.94434" lon="4.72887">
        <ele>166</ele>
        <time>2016-11-05T09:29:02Z</time>
      </trkpt>
      <trkpt lat="45.94435" lon="4.72894">
        <ele>166</ele>
        <time>2016-11-05T09:29:03Z</time>
      </trkpt>
      <trkpt lat="45.94436" lon="4.72901">
        <ele>166</ele>
        <time>2016-11-05T09:29:04Z</time>
      </trkpt>
      <trkpt lat="45.94437" lon="4.72908">
        <ele>166</ele>
        <time>2016-11-05T09:29:05Z</time>
      </trkpt>
      <trkpt lat="45.94438" lon="4.72916">
        <ele>166</ele>
        <time>2016-11-05T09:29:06Z</time>
      </trkpt>
      <trkpt lat="45.94439" lon="4.72923">
        <ele>167</ele>
        <time>2016-11-05T09:29:07Z</time>
      </trkpt>
      <trkpt lat="45.9444" lon="4.72931">
        <ele>167</ele>
        <time>2016-11-05T09:29:08Z</time>
      </trkpt>
      <trkpt lat="45.94441" lon="4.72939">
        <ele>167</ele>
        <time>2016-11-05T09:29:09Z</time>
      </trkpt>
      <trkpt lat="45.94442" lon="4.72947">
        <ele>167</ele>
        <time>2016-11-05T09:29:10Z</time>
      </trkpt>
      <trkpt lat="45.94443" lon="4.72955">
        <ele>167</ele>
        <time>2016-11-05T09:29:11Z</time>
      </trkpt>
      <trkpt lat="45.94444" lon="4.72965">
        <ele>167</ele>
        <time>2016-11-05T09:29:12Z</time>
      </trkpt>
      <trkpt lat="45.94445" lon="4.72974">
        <ele>167</ele>
        <time>2016-11-05T09:29:13Z</time>
      </trkpt>
      <trkpt lat="45.94446" lon="4.72984">
        <ele>167</ele>
        <time>2016-11-05T09:29:14Z</time>
      </trkpt>
      <trkpt lat="45.94447" lon="4.72993">
        <ele>167</ele>
        <time>2016-11-05T09:29:15Z</time>
      </trkpt>
      <trkpt lat="45.94449" lon="4.73003">
        <ele>169</ele>
        <time>2016-11-05T09:29:16Z</time>
      </trkpt>
      <trkpt lat="45.9445" lon="4.73012">
        <ele>169</ele>
        <time>2016-11-05T09:29:17Z</time>
      </trkpt>
      <trkpt lat="45.94451" lon="4.73022">
        <ele>169</ele>
        <time>2016-11-05T09:29:18Z</time>
      </trkpt>
      <trkpt lat="45.94453" lon="4.73032">
        <ele>169</ele>
        <time>2016-11-05T09:29:19Z</time>
      </trkpt>
      <trkpt lat="45.94454" lon="4.73042">
        <ele>169</ele>
        <time>2016-11-05T09:29:20Z</time>
      </trkpt>
      <trkpt lat="45.94455" lon="4.73052">
        <ele>170</ele>
        <time>2016-11-05T09:29:21Z</time>
      </trkpt>
      <trkpt lat="45.94456" lon="4.73063">
        <ele>170</ele>
        <time>2016-11-05T09:29:22Z</time>
      </trkpt>
      <trkpt lat="45.94457" lon="4.73073">
        <ele>170</ele>
        <time>2016-11-05T09:29:23Z</time>
      </trkpt>
      <trkpt lat="45.94458" lon="4.73083">
        <ele>170</ele>
        <time>2016-11-05T09:29:24Z</time>
      </trkpt>
      <trkpt lat="45.94459" lon="4.73094">
        <ele>171</ele>
        <time>2016-11-05T09:29:25Z</time>
      </trkpt>
      <trkpt lat="45.9446" lon="4.73105">
        <ele>171</ele>
        <time>2016-11-05T09:29:26Z</time>
      </trkpt>
      <trkpt lat="45.94462" lon="4.73114">
        <ele>172</ele>
        <time>2016-11-05T09:29:27Z</time>
      </trkpt>
      <trkpt lat="45.94463" lon="4.73123">
        <ele>172</ele>
        <time>2016-11-05T09:29:28Z</time>
      </trkpt>
      <trkpt lat="45.94465" lon="4.73132">
        <ele>172</ele>
        <time>2016-11-05T09:29:29Z</time>
      </trkpt>
      <trkpt lat="45.94467" lon="4.73141">
        <ele>172</ele>
        <time>2016-11-05T09:29:30Z</time>
      </trkpt>
      <trkpt lat="45.94468" lon="4.7315">
        <ele>172</ele>
        <time>2016-11-05T09:29:31Z</time>
      </trkpt>
      <trkpt lat="45.94469" lon="4.73158">
        <ele>172</ele>
        <time>2016-11-05T09:29:32Z</time>
      </trkpt>
      <trkpt lat="45.9447" lon="4.73167">
        <ele>172</ele>
        <time>2016-11-05T09:29:33Z</time>
      </trkpt>
      <trkpt lat="45.94471" lon="4.73175">
        <ele>174</ele>
        <time>2016-11-05T09:29:34Z</time>
      </trkpt>
      <trkpt lat="45.94472" lon="4.73183">
        <ele>174</ele>
        <time>2016-11-05T09:29:35Z</time>
      </trkpt>
      <trkpt lat="45.94472" lon="4.73192">
        <ele>174</ele>
        <time>2016-11-05T09:29:36Z</time>
      </trkpt>
      <trkpt lat="45.94473" lon="4.732">
        <ele>174</ele>
        <time>2016-11-05T09:29:37Z</time>
      </trkpt>
      <trkpt lat="45.94474" lon="4.73208">
        <ele>175</ele>
        <time>2016-11-05T09:29:38Z</time>
      </trkpt>
      <trkpt lat="45.94476" lon="4.73216">
        <ele>175</ele>
        <time>2016-11-05T09:29:39Z</time>
      </trkpt>
      <trkpt lat="45.94477" lon="4.73224">
        <ele>175</ele>
        <time>2016-11-05T09:29:40Z</time>
      </trkpt>
      <trkpt lat="45.94478" lon="4.73231">
        <ele>175</ele>
        <time>2016-11-05T09:29:41Z</time>
      </trkpt>
      <trkpt lat="45.94479" lon="4.73238">
        <ele>175</ele>
        <time>2016-11-05T09:29:42Z</time>
      </trkpt>
      <trkpt lat="45.94481" lon="4.73251">
        <ele>176</ele>
        <time>2016-11-05T09:29:44Z</time>
      </trkpt>
      <trkpt lat="45.94482" lon="4.73257">
        <ele>176</ele>
        <time>2016-11-05T09:29:45Z</time>
      </trkpt>
      <trkpt lat="45.94483" lon="4.73264">
        <ele>177</ele>
        <time>2016-11-05T09:29:46Z</time>
      </trkpt>
      <trkpt lat="45.94484" lon="4.73271">
        <ele>177</ele>
        <time>2016-11-05T09:29:47Z</time>
      </trkpt>
      <trkpt lat="45.94485" lon="4.73278">
        <ele>177</ele>
        <time>2016-11-05T09:29:48Z</time>
      </trkpt>
      <trkpt lat="45.94485" lon="4.73285">
        <ele>177</ele>
        <time>2016-11-05T09:29:49Z</time>
      </trkpt>
      <trkpt lat="45.94485" lon="4.73293">
        <ele>177</ele>
        <time>2016-11-05T09:29:50Z</time>
      </trkpt>
      <trkpt lat="45.94486" lon="4.733">
        <ele>177</ele>
        <time>2016-11-05T09:29:51Z</time>
      </trkpt>
      <trkpt lat="45.94486" lon="4.73307">
        <ele>177</ele>
        <time>2016-11-05T09:29:52Z</time>
      </trkpt>
      <trkpt lat="45.94487" lon="4.73314">
        <ele>177</ele>
        <time>2016-11-05T09:29:53Z</time>
      </trkpt>
      <trkpt lat="45.94488" lon="4.73321">
        <ele>177</ele>
        <time>2016-11-05T09:29:54Z</time>
      </trkpt>
      <trkpt lat="45.94489" lon="4.73328">
        <ele>177</ele>
        <time>2016-11-05T09:29:55Z</time>
      </trkpt>
      <trkpt lat="45.9449" lon="4.73335">
        <ele>178</ele>
        <time>2016-11-05T09:29:56Z</time>
      </trkpt>
      <trkpt lat="45.94491" lon="4.73342">
        <ele>178</ele>
        <time>2016-11-05T09:29:57Z</time>
      </trkpt>
      <trkpt lat="45.94491" lon="4.73348">
        <ele>178</ele>
        <time>2016-11-05T09:29:58Z</time>
      </trkpt>
      <trkpt lat="45.94492" lon="4.73355">
        <ele>178</ele>
        <time>2016-11-05T09:29:59Z</time>
      </trkpt>
      <trkpt lat="45.94493" lon="4.73366">
        <ele>179</ele>
        <time>2016-11-05T09:30:01Z</time>
      </trkpt>
      <trkpt lat="45.94493" lon="4.73372">
        <ele>179</ele>
        <time>2016-11-05T09:30:02Z</time>
      </trkpt>
      <trkpt lat="45.94494" lon="4.73384">
        <ele>179</ele>
        <time>2016-11-05T09:30:04Z</time>
      </trkpt>
      <trkpt lat="45.94495" lon="4.7339">
        <ele>179</ele>
        <time>2016-11-05T09:30:05Z</time>
      </trkpt>
      <trkpt lat="45.94496" lon="4.73401">
        <ele>180</ele>
        <time>2016-11-05T09:30:07Z</time>
      </trkpt>
      <trkpt lat="45.94496" lon="4.73407">
        <ele>180</ele>
        <time>2016-11-05T09:30:08Z</time>
      </trkpt>
      <trkpt lat="45.94496" lon="4.73419">
        <ele>180</ele>
        <time>2016-11-05T09:30:10Z</time>
      </trkpt>
      <trkpt lat="45.94497" lon="4.73425">
        <ele>181</ele>
        <time>2016-11-05T09:30:11Z</time>
      </trkpt>
      <trkpt lat="45.94497" lon="4.73437">
        <ele>181</ele>
        <time>2016-11-05T09:30:13Z</time>
      </trkpt>
      <trkpt lat="45.94497" lon="4.73444">
        <ele>181</ele>
        <time>2016-11-05T09:30:14Z</time>
      </trkpt>
      <trkpt lat="45.94498" lon="4.73456">
        <ele>182</ele>
        <time>2016-11-05T09:30:16Z</time>
      </trkpt>
      <trkpt lat="45.94499" lon="4.73462">
        <ele>182</ele>
        <time>2016-11-05T09:30:17Z</time>
      </trkpt>
      <trkpt lat="45.94499" lon="4.73468">
        <ele>182</ele>
        <time>2016-11-05T09:30:18Z</time>
      </trkpt>
      <trkpt lat="45.94499" lon="4.73475">
        <ele>182</ele>
        <time>2016-11-05T09:30:19Z</time>
      </trkpt>
      <trkpt lat="45.945" lon="4.73482">
        <ele>182</ele>
        <time>2016-11-05T09:30:20Z</time>
      </trkpt>
      <trkpt lat="45.94499" lon="4.73488">
        <ele>183</ele>
        <time>2016-11-05T09:30:21Z</time>
      </trkpt>
      <trkpt lat="45.945" lon="4.735">
        <ele>183</ele>
        <time>2016-11-05T09:30:23Z</time>
      </trkpt>
      <trkpt lat="45.945" lon="4.73506">
        <ele>183</ele>
        <time>2016-11-05T09:30:24Z</time>
      </trkpt>
      <trkpt lat="45.94501" lon="4.73518">
        <ele>183</ele>
        <time>2016-11-05T09:30:26Z</time>
      </trkpt>
      <trkpt lat="45.94501" lon="4.73523">
        <ele>183</ele>
        <time>2016-11-05T09:30:27Z</time>
      </trkpt>
      <trkpt lat="45.945" lon="4.73534">
        <ele>183</ele>
        <time>2016-11-05T09:30:29Z</time>
      </trkpt>
      <trkpt lat="45.94501" lon="4.73541">
        <ele>183</ele>
        <time>2016-11-05T09:30:30Z</time>
      </trkpt>
      <trkpt lat="45.94501" lon="4.73545">
        <ele>183</ele>
        <time>2016-11-05T09:30:31Z</time>
      </trkpt>
      <trkpt lat="45.94501" lon="4.73548">
        <ele>183</ele>
        <time>2016-11-05T09:30:32Z</time>
      </trkpt>
      <trkpt lat="45.945" lon="4.73549">
        <ele>183</ele>
        <time>2016-11-05T09:30:33Z</time>
      </trkpt>
      <trkpt lat="45.94499" lon="4.73556">
        <ele>185</ele>
        <time>2016-11-05T09:30:34Z</time>
      </trkpt>
      <trkpt lat="45.94499" lon="4.73563">
        <ele>185</ele>
        <time>2016-11-05T09:30:35Z</time>
      </trkpt>
      <trkpt lat="45.94498" lon="4.7357">
        <ele>185</ele>
        <time>2016-11-05T09:30:36Z</time>
      </trkpt>
      <trkpt lat="45.94498" lon="4.73577">
        <ele>185</ele>
        <time>2016-11-05T09:30:37Z</time>
      </trkpt>
      <trkpt lat="45.94497" lon="4.73584">
        <ele>185</ele>
        <time>2016-11-05T09:30:38Z</time>
      </trkpt>
      <trkpt lat="45.94496" lon="4.73591">
        <ele>185</ele>
        <time>2016-11-05T09:30:39Z</time>
      </trkpt>
      <trkpt lat="45.94496" lon="4.73597">
        <ele>185</ele>
        <time>2016-11-05T09:30:40Z</time>
      </trkpt>
      <trkpt lat="45.94495" lon="4.73603">
        <ele>186</ele>
        <time>2016-11-05T09:30:41Z</time>
      </trkpt>
      <trkpt lat="45.94495" lon="4.7361">
        <ele>186</ele>
        <time>2016-11-05T09:30:42Z</time>
      </trkpt>
      <trkpt lat="45.94496" lon="4.73617">
        <ele>186</ele>
        <time>2016-11-05T09:30:43Z</time>
      </trkpt>
      <trkpt lat="45.94495" lon="4.73625">
        <ele>186</ele>
        <time>2016-11-05T09:30:44Z</time>
      </trkpt>
      <trkpt lat="45.94494" lon="4.73632">
        <ele>186</ele>
        <time>2016-11-05T09:30:45Z</time>
      </trkpt>
      <trkpt lat="45.94494" lon="4.7364">
        <ele>186</ele>
        <time>2016-11-05T09:30:46Z</time>
      </trkpt>
      <trkpt lat="45.94493" lon="4.73647">
        <ele>186</ele>
        <time>2016-11-05T09:30:47Z</time>
      </trkpt>
      <trkpt lat="45.94493" lon="4.73655">
        <ele>185</ele>
        <time>2016-11-05T09:30:48Z</time>
      </trkpt>
      <trkpt lat="45.94492" lon="4.73662">
        <ele>185</ele>
        <time>2016-11-05T09:30:49Z</time>
      </trkpt>
      <trkpt lat="45.94492" lon="4.73669">
        <ele>185</ele>
        <time>2016-11-05T09:30:50Z</time>
      </trkpt>
      <trkpt lat="45.94491" lon="4.73676">
        <ele>185</ele>
        <time>2016-11-05T09:30:51Z</time>
      </trkpt>
      <trkpt lat="45.9449" lon="4.73683">
        <ele>186</ele>
        <time>2016-11-05T09:30:52Z</time>
      </trkpt>
      <trkpt lat="45.94489" lon="4.7369">
        <ele>186</ele>
        <time>2016-11-05T09:30:53Z</time>
      </trkpt>
      <trkpt lat="45.94487" lon="4.73702">
        <ele>186</ele>
        <time>2016-11-05T09:30:55Z</time>
      </trkpt>
      <trkpt lat="45.94485" lon="4.73709">
        <ele>186</ele>
        <time>2016-11-05T09:30:56Z</time>
      </trkpt>
      <trkpt lat="45.94484" lon="4.73716">
        <ele>186</ele>
        <time>2016-11-05T09:30:57Z</time>
      </trkpt>
      <trkpt lat="45.94482" lon="4.73723">
        <ele>186</ele>
        <time>2016-11-05T09:30:58Z</time>
      </trkpt>
      <trkpt lat="45.94482" lon="4.7373">
        <ele>186</ele>
        <time>2016-11-05T09:30:59Z</time>
      </trkpt>
      <trkpt lat="45.94481" lon="4.73737">
        <ele>186</ele>
        <time>2016-11-05T09:31:00Z</time>
      </trkpt>
      <trkpt lat="45.94481" lon="4.73743">
        <ele>186</ele>
        <time>2016-11-05T09:31:01Z</time>
      </trkpt>
      <trkpt lat="45.94479" lon="4.73754">
        <ele>186</ele>
        <time>2016-11-05T09:31:03Z</time>
      </trkpt>
      <trkpt lat="45.94478" lon="4.73765">
        <ele>186</ele>
        <time>2016-11-05T09:31:05Z</time>
      </trkpt>
      <trkpt lat="45.9448" lon="4.73771">
        <ele>186</ele>
        <time>2016-11-05T09:31:06Z</time>
      </trkpt>
      <trkpt lat="45.94484" lon="4.73775">
        <ele>186</ele>
        <time>2016-11-05T09:31:07Z</time>
      </trkpt>
      <trkpt lat="45.94489" lon="4.73778">
        <ele>186</ele>
        <time>2016-11-05T09:31:08Z</time>
      </trkpt>
      <trkpt lat="45.94493" lon="4.73781">
        <ele>186</ele>
        <time>2016-11-05T09:31:09Z</time>
      </trkpt>
      <trkpt lat="45.94497" lon="4.73784">
        <ele>186</ele>
        <time>2016-11-05T09:31:10Z</time>
      </trkpt>
      <trkpt lat="45.94501" lon="4.73788">
        <ele>186</ele>
        <time>2016-11-05T09:31:11Z</time>
      </trkpt>
      <trkpt lat="45.94506" lon="4.73792">
        <ele>186</ele>
        <time>2016-11-05T09:31:12Z</time>
      </trkpt>
      <trkpt lat="45.9451" lon="4.73795">
        <ele>186</ele>
        <time>2016-11-05T09:31:13Z</time>
      </trkpt>
      <trkpt lat="45.94514" lon="4.73799">
        <ele>186</ele>
        <time>2016-11-05T09:31:14Z</time>
      </trkpt>
      <trkpt lat="45.94519" lon="4.73802">
        <ele>186</ele>
        <time>2016-11-05T09:31:15Z</time>
      </trkpt>
      <trkpt lat="45.94523" lon="4.73805">
        <ele>186</ele>
        <time>2016-11-05T09:31:16Z</time>
      </trkpt>
      <trkpt lat="45.94527" lon="4.73809">
        <ele>186</ele>
        <time>2016-11-05T09:31:17Z</time>
      </trkpt>
      <trkpt lat="45.94532" lon="4.73813">
        <ele>186</ele>
        <time>2016-11-05T09:31:18Z</time>
      </trkpt>
      <trkpt lat="45.94536" lon="4.73817">
        <ele>186</ele>
        <time>2016-11-05T09:31:19Z</time>
      </trkpt>
      <trkpt lat="45.9454" lon="4.73821">
        <ele>186</ele>
        <time>2016-11-05T09:31:20Z</time>
      </trkpt>
      <trkpt lat="45.94544" lon="4.73825">
        <ele>186</ele>
        <time>2016-11-05T09:31:21Z</time>
      </trkpt>
      <trkpt lat="45.94549" lon="4.7383">
        <ele>186</ele>
        <time>2016-11-05T09:31:22Z</time>
      </trkpt>
      <trkpt lat="45.94553" lon="4.73834">
        <ele>186</ele>
        <time>2016-11-05T09:31:23Z</time>
      </trkpt>
      <trkpt lat="45.94557" lon="4.73839">
        <ele>186</ele>
        <time>2016-11-05T09:31:24Z</time>
      </trkpt>
      <trkpt lat="45.94561" lon="4.73844">
        <ele>186</ele>
        <time>2016-11-05T09:31:25Z</time>
      </trkpt>
      <trkpt lat="45.94566" lon="4.73849">
        <ele>186</ele>
        <time>2016-11-05T09:31:26Z</time>
      </trkpt>
      <trkpt lat="45.94575" lon="4.73859">
        <ele>186</ele>
        <time>2016-11-05T09:31:28Z</time>
      </trkpt>
      <trkpt lat="45.9458" lon="4.73864">
        <ele>186</ele>
        <time>2016-11-05T09:31:29Z</time>
      </trkpt>
      <trkpt lat="45.94584" lon="4.73869">
        <ele>187</ele>
        <time>2016-11-05T09:31:30Z</time>
      </trkpt>
      <trkpt lat="45.94588" lon="4.73874">
        <ele>187</ele>
        <time>2016-11-05T09:31:31Z</time>
      </trkpt>
      <trkpt lat="45.94591" lon="4.73878">
        <ele>187</ele>
        <time>2016-11-05T09:31:32Z</time>
      </trkpt>
      <trkpt lat="45.94595" lon="4.73883">
        <ele>187</ele>
        <time>2016-11-05T09:31:33Z</time>
      </trkpt>
      <trkpt lat="45.94599" lon="4.73887">
        <ele>187</ele>
        <time>2016-11-05T09:31:34Z</time>
      </trkpt>
      <trkpt lat="45.94603" lon="4.73891">
        <ele>187</ele>
        <time>2016-11-05T09:31:35Z</time>
      </trkpt>
      <trkpt lat="45.94606" lon="4.73895">
        <ele>187</ele>
        <time>2016-11-05T09:31:36Z</time>
      </trkpt>
      <trkpt lat="45.94609" lon="4.73899">
        <ele>187</ele>
        <time>2016-11-05T09:31:37Z</time>
      </trkpt>
      <trkpt lat="45.94613" lon="4.73904">
        <ele>187</ele>
        <time>2016-11-05T09:31:38Z</time>
      </trkpt>
      <trkpt lat="45.94616" lon="4.73908">
        <ele>187</ele>
        <time>2016-11-05T09:31:39Z</time>
      </trkpt>
      <trkpt lat="45.9462" lon="4.73913">
        <ele>187</ele>
        <time>2016-11-05T09:31:40Z</time>
      </trkpt>
      <trkpt lat="45.94623" lon="4.73917">
        <ele>187</ele>
        <time>2016-11-05T09:31:41Z</time>
      </trkpt>
      <trkpt lat="45.94626" lon="4.73921">
        <ele>187</ele>
        <time>2016-11-05T09:31:42Z</time>
      </trkpt>
      <trkpt lat="45.94631" lon="4.73925">
        <ele>187</ele>
        <time>2016-11-05T09:31:43Z</time>
      </trkpt>
      <trkpt lat="45.94633" lon="4.7393">
        <ele>187</ele>
        <time>2016-11-05T09:31:44Z</time>
      </trkpt>
      <trkpt lat="45.94636" lon="4.73935">
        <ele>187</ele>
        <time>2016-11-05T09:31:45Z</time>
      </trkpt>
      <trkpt lat="45.9464" lon="4.73941">
        <ele>187</ele>
        <time>2016-11-05T09:31:46Z</time>
      </trkpt>
      <trkpt lat="45.94644" lon="4.73945">
        <ele>187</ele>
        <time>2016-11-05T09:31:47Z</time>
      </trkpt>
      <trkpt lat="45.94648" lon="4.7395">
        <ele>187</ele>
        <time>2016-11-05T09:31:48Z</time>
      </trkpt>
      <trkpt lat="45.94652" lon="4.73955">
        <ele>187</ele>
        <time>2016-11-05T09:31:49Z</time>
      </trkpt>
      <trkpt lat="45.94656" lon="4.73959">
        <ele>187</ele>
        <time>2016-11-05T09:31:50Z</time>
      </trkpt>
      <trkpt lat="45.94659" lon="4.73964">
        <ele>187</ele>
        <time>2016-11-05T09:31:51Z</time>
      </trkpt>
      <trkpt lat="45.94663" lon="4.73969">
        <ele>187</ele>
        <time>2016-11-05T09:31:52Z</time>
      </trkpt>
      <trkpt lat="45.94664" lon="4.73975">
        <ele>187</ele>
        <time>2016-11-05T09:31:53Z</time>
      </trkpt>
      <trkpt lat="45.94669" lon="4.73979">
        <ele>187</ele>
        <time>2016-11-05T09:31:54Z</time>
      </trkpt>
      <trkpt lat="45.94674" lon="4.73983">
        <ele>187</ele>
        <time>2016-11-05T09:31:55Z</time>
      </trkpt>
      <trkpt lat="45.94678" lon="4.73987">
        <ele>187</ele>
        <time>2016-11-05T09:31:56Z</time>
      </trkpt>
      <trkpt lat="45.94682" lon="4.73992">
        <ele>187</ele>
        <time>2016-11-05T09:31:57Z</time>
      </trkpt>
      <trkpt lat="45.94685" lon="4.73997">
        <ele>187</ele>
        <time>2016-11-05T09:31:58Z</time>
      </trkpt>
      <trkpt lat="45.94688" lon="4.74002">
        <ele>187</ele>
        <time>2016-11-05T09:31:59Z</time>
      </trkpt>
      <trkpt lat="45.94691" lon="4.74007">
        <ele>187</ele>
        <time>2016-11-05T09:32:00Z</time>
      </trkpt>
      <trkpt lat="45.94695" lon="4.74012">
        <ele>187</ele>
        <time>2016-11-05T09:32:01Z</time>
      </trkpt>
      <trkpt lat="45.94699" lon="4.74017">
        <ele>187</ele>
        <time>2016-11-05T09:32:02Z</time>
      </trkpt>
      <trkpt lat="45.94702" lon="4.74022">
        <ele>187</ele>
        <time>2016-11-05T09:32:03Z</time>
      </trkpt>
      <trkpt lat="45.94705" lon="4.74026">
        <ele>187</ele>
        <time>2016-11-05T09:32:04Z</time>
      </trkpt>
      <trkpt lat="45.94709" lon="4.74031">
        <ele>187</ele>
        <time>2016-11-05T09:32:05Z</time>
      </trkpt>
      <trkpt lat="45.94712" lon="4.74035">
        <ele>187</ele>
        <time>2016-11-05T09:32:06Z</time>
      </trkpt>
      <trkpt lat="45.94716" lon="4.7404">
        <ele>187</ele>
        <time>2016-11-05T09:32:07Z</time>
      </trkpt>
      <trkpt lat="45.9472" lon="4.74045">
        <ele>187</ele>
        <time>2016-11-05T09:32:08Z</time>
      </trkpt>
      <trkpt lat="45.94723" lon="4.7405">
        <ele>187</ele>
        <time>2016-11-05T09:32:09Z</time>
      </trkpt>
      <trkpt lat="45.94726" lon="4.74055">
        <ele>188</ele>
        <time>2016-11-05T09:32:10Z</time>
      </trkpt>
      <trkpt lat="45.9473" lon="4.7406">
        <ele>188</ele>
        <time>2016-11-05T09:32:11Z</time>
      </trkpt>
      <trkpt lat="45.94734" lon="4.74065">
        <ele>188</ele>
        <time>2016-11-05T09:32:12Z</time>
      </trkpt>
      <trkpt lat="45.94738" lon="4.7407">
        <ele>188</ele>
        <time>2016-11-05T09:32:13Z</time>
      </trkpt>
      <trkpt lat="45.94742" lon="4.74075">
        <ele>188</ele>
        <time>2016-11-05T09:32:14Z</time>
      </trkpt>
      <trkpt lat="45.94746" lon="4.7408">
        <ele>189</ele>
        <time>2016-11-05T09:32:15Z</time>
      </trkpt>
      <trkpt lat="45.9475" lon="4.74085">
        <ele>189</ele>
        <time>2016-11-05T09:32:16Z</time>
      </trkpt>
      <trkpt lat="45.94754" lon="4.7409">
        <ele>189</ele>
        <time>2016-11-05T09:32:17Z</time>
      </trkpt>
      <trkpt lat="45.94757" lon="4.74095">
        <ele>189</ele>
        <time>2016-11-05T09:32:18Z</time>
      </trkpt>
      <trkpt lat="45.9476" lon="4.741">
        <ele>189</ele>
        <time>2016-11-05T09:32:19Z</time>
      </trkpt>
      <trkpt lat="45.94764" lon="4.74105">
        <ele>189</ele>
        <time>2016-11-05T09:32:20Z</time>
      </trkpt>
      <trkpt lat="45.94767" lon="4.7411">
        <ele>189</ele>
        <time>2016-11-05T09:32:21Z</time>
      </trkpt>
      <trkpt lat="45.94771" lon="4.74115">
        <ele>189</ele>
        <time>2016-11-05T09:32:22Z</time>
      </trkpt>
      <trkpt lat="45.94774" lon="4.74119">
        <ele>189</ele>
        <time>2016-11-05T09:32:23Z</time>
      </trkpt>
      <trkpt lat="45.9478" lon="4.74129">
        <ele>189</ele>
        <time>2016-11-05T09:32:25Z</time>
      </trkpt>
      <trkpt lat="45.94786" lon="4.74139">
        <ele>189</ele>
        <time>2016-11-05T09:32:27Z</time>
      </trkpt>
      <trkpt lat="45.9479" lon="4.74144">
        <ele>189</ele>
        <time>2016-11-05T09:32:28Z</time>
      </trkpt>
      <trkpt lat="45.94796" lon="4.74154">
        <ele>189</ele>
        <time>2016-11-05T09:32:30Z</time>
      </trkpt>
      <trkpt lat="45.94799" lon="4.7416">
        <ele>189</ele>
        <time>2016-11-05T09:32:31Z</time>
      </trkpt>
      <trkpt lat="45.94802" lon="4.74165">
        <ele>189</ele>
        <time>2016-11-05T09:32:32Z</time>
      </trkpt>
      <trkpt lat="45.94806" lon="4.7417">
        <ele>189</ele>
        <time>2016-11-05T09:32:33Z</time>
      </trkpt>
      <trkpt lat="45.94808" lon="4.74175">
        <ele>189</ele>
        <time>2016-11-05T09:32:34Z</time>
      </trkpt>
      <trkpt lat="45.94811" lon="4.74181">
        <ele>189</ele>
        <time>2016-11-05T09:32:35Z</time>
      </trkpt>
      <trkpt lat="45.94814" lon="4.74187">
        <ele>189</ele>
        <time>2016-11-05T09:32:36Z</time>
      </trkpt>
      <trkpt lat="45.94817" lon="4.74193">
        <ele>189</ele>
        <time>2016-11-05T09:32:37Z</time>
      </trkpt>
      <trkpt lat="45.94823" lon="4.74199">
        <ele>189</ele>
        <time>2016-11-05T09:32:38Z</time>
      </trkpt>
      <trkpt lat="45.94828" lon="4.74204">
        <ele>189</ele>
        <time>2016-11-05T09:32:39Z</time>
      </trkpt>
      <trkpt lat="45.94832" lon="4.74208">
        <ele>189</ele>
        <time>2016-11-05T09:32:40Z</time>
      </trkpt>
      <trkpt lat="45.94834" lon="4.74214">
        <ele>190</ele>
        <time>2016-11-05T09:32:41Z</time>
      </trkpt>
      <trkpt lat="45.94836" lon="4.74221">
        <ele>190</ele>
        <time>2016-11-05T09:32:42Z</time>
      </trkpt>
      <trkpt lat="45.94841" lon="4.74226">
        <ele>190</ele>
        <time>2016-11-05T09:32:43Z</time>
      </trkpt>
      <trkpt lat="45.94844" lon="4.74231">
        <ele>190</ele>
        <time>2016-11-05T09:32:44Z</time>
      </trkpt>
      <trkpt lat="45.94848" lon="4.74237">
        <ele>190</ele>
        <time>2016-11-05T09:32:45Z</time>
      </trkpt>
      <trkpt lat="45.9485" lon="4.74243">
        <ele>190</ele>
        <time>2016-11-05T09:32:46Z</time>
      </trkpt>
      <trkpt lat="45.94853" lon="4.7425">
        <ele>190</ele>
        <time>2016-11-05T09:32:47Z</time>
      </trkpt>
      <trkpt lat="45.94856" lon="4.74255">
        <ele>190</ele>
        <time>2016-11-05T09:32:48Z</time>
      </trkpt>
      <trkpt lat="45.94858" lon="4.74262">
        <ele>190</ele>
        <time>2016-11-05T09:32:49Z</time>
      </trkpt>
      <trkpt lat="45.94861" lon="4.74269">
        <ele>190</ele>
        <time>2016-11-05T09:32:50Z</time>
      </trkpt>
      <trkpt lat="45.94864" lon="4.74275">
        <ele>190</ele>
        <time>2016-11-05T09:32:51Z</time>
      </trkpt>
      <trkpt lat="45.94868" lon="4.74281">
        <ele>191</ele>
        <time>2016-11-05T09:32:52Z</time>
      </trkpt>
      <trkpt lat="45.94872" lon="4.74287">
        <ele>191</ele>
        <time>2016-11-05T09:32:53Z</time>
      </trkpt>
      <trkpt lat="45.94873" lon="4.74294">
        <ele>191</ele>
        <time>2016-11-05T09:32:54Z</time>
      </trkpt>
      <trkpt lat="45.94876" lon="4.743">
        <ele>191</ele>
        <time>2016-11-05T09:32:55Z</time>
      </trkpt>
      <trkpt lat="45.94879" lon="4.74306">
        <ele>191</ele>
        <time>2016-11-05T09:32:56Z</time>
      </trkpt>
      <trkpt lat="45.94881" lon="4.74312">
        <ele>191</ele>
        <time>2016-11-05T09:32:57Z</time>
      </trkpt>
      <trkpt lat="45.94884" lon="4.74318">
        <ele>191</ele>
        <time>2016-11-05T09:32:58Z</time>
      </trkpt>
      <trkpt lat="45.94886" lon="4.74324">
        <ele>191</ele>
        <time>2016-11-05T09:32:59Z</time>
      </trkpt>
      <trkpt lat="45.94889" lon="4.7433">
        <ele>191</ele>
        <time>2016-11-05T09:33:00Z</time>
      </trkpt>
      <trkpt lat="45.94892" lon="4.74336">
        <ele>191</ele>
        <time>2016-11-05T09:33:01Z</time>
      </trkpt>
      <trkpt lat="45.94895" lon="4.74342">
        <ele>191</ele>
        <time>2016-11-05T09:33:02Z</time>
      </trkpt>
      <trkpt lat="45.94898" lon="4.74348">
        <ele>191</ele>
        <time>2016-11-05T09:33:03Z</time>
      </trkpt>
      <trkpt lat="45.94901" lon="4.74354">
        <ele>191</ele>
        <time>2016-11-05T09:33:04Z</time>
      </trkpt>
      <trkpt lat="45.94904" lon="4.7436">
        <ele>191</ele>
        <time>2016-11-05T09:33:05Z</time>
      </trkpt>
      <trkpt lat="45.94907" lon="4.74367">
        <ele>191</ele>
        <time>2016-11-05T09:33:06Z</time>
      </trkpt>
      <trkpt lat="45.9491" lon="4.74373">
        <ele>191</ele>
        <time>2016-11-05T09:33:07Z</time>
      </trkpt>
      <trkpt lat="45.94915" lon="4.74379">
        <ele>191</ele>
        <time>2016-11-05T09:33:08Z</time>
      </trkpt>
      <trkpt lat="45.94918" lon="4.74385">
        <ele>192</ele>
        <time>2016-11-05T09:33:09Z</time>
      </trkpt>
      <trkpt lat="45.94922" lon="4.7439">
        <ele>192</ele>
        <time>2016-11-05T09:33:10Z</time>
      </trkpt>
      <trkpt lat="45.94924" lon="4.74397">
        <ele>192</ele>
        <time>2016-11-05T09:33:11Z</time>
      </trkpt>
      <trkpt lat="45.94927" lon="4.74403">
        <ele>192</ele>
        <time>2016-11-05T09:33:12Z</time>
      </trkpt>
      <trkpt lat="45.9493" lon="4.74409">
        <ele>192</ele>
        <time>2016-11-05T09:33:13Z</time>
      </trkpt>
      <trkpt lat="45.94933" lon="4.74415">
        <ele>192</ele>
        <time>2016-11-05T09:33:14Z</time>
      </trkpt>
      <trkpt lat="45.94936" lon="4.74421">
        <ele>192</ele>
        <time>2016-11-05T09:33:15Z</time>
      </trkpt>
      <trkpt lat="45.94938" lon="4.74427">
        <ele>192</ele>
        <time>2016-11-05T09:33:16Z</time>
      </trkpt>
      <trkpt lat="45.94941" lon="4.74433">
        <ele>192</ele>
        <time>2016-11-05T09:33:17Z</time>
      </trkpt>
      <trkpt lat="45.94944" lon="4.74439">
        <ele>192</ele>
        <time>2016-11-05T09:33:18Z</time>
      </trkpt>
      <trkpt lat="45.94947" lon="4.74445">
        <ele>192</ele>
        <time>2016-11-05T09:33:19Z</time>
      </trkpt>
      <trkpt lat="45.9495" lon="4.7445">
        <ele>192</ele>
        <time>2016-11-05T09:33:20Z</time>
      </trkpt>
      <trkpt lat="45.94952" lon="4.74456">
        <ele>192</ele>
        <time>2016-11-05T09:33:21Z</time>
      </trkpt>
      <trkpt lat="45.94955" lon="4.74461">
        <ele>193</ele>
        <time>2016-11-05T09:33:22Z</time>
      </trkpt>
      <trkpt lat="45.94958" lon="4.74466">
        <ele>193</ele>
        <time>2016-11-05T09:33:23Z</time>
      </trkpt>
      <trkpt lat="45.94961" lon="4.74471">
        <ele>193</ele>
        <time>2016-11-05T09:33:24Z</time>
      </trkpt>
      <trkpt lat="45.94963" lon="4.74477">
        <ele>193</ele>
        <time>2016-11-05T09:33:25Z</time>
      </trkpt>
      <trkpt lat="45.94966" lon="4.74482">
        <ele>193</ele>
        <time>2016-11-05T09:33:26Z</time>
      </trkpt>
      <trkpt lat="45.94968" lon="4.74488">
        <ele>193</ele>
        <time>2016-11-05T09:33:27Z</time>
      </trkpt>
      <trkpt lat="45.94971" lon="4.74493">
        <ele>193</ele>
        <time>2016-11-05T09:33:28Z</time>
      </trkpt>
      <trkpt lat="45.94974" lon="4.74499">
        <ele>193</ele>
        <time>2016-11-05T09:33:29Z</time>
      </trkpt>
      <trkpt lat="45.94977" lon="4.74505">
        <ele>193</ele>
        <time>2016-11-05T09:33:30Z</time>
      </trkpt>
      <trkpt lat="45.94979" lon="4.7451">
        <ele>193</ele>
        <time>2016-11-05T09:33:31Z</time>
      </trkpt>
      <trkpt lat="45.94982" lon="4.74516">
        <ele>193</ele>
        <time>2016-11-05T09:33:32Z</time>
      </trkpt>
      <trkpt lat="45.94985" lon="4.74521">
        <ele>193</ele>
        <time>2016-11-05T09:33:33Z</time>
      </trkpt>
      <trkpt lat="45.94988" lon="4.74526">
        <ele>193</ele>
        <time>2016-11-05T09:33:34Z</time>
      </trkpt>
      <trkpt lat="45.94991" lon="4.74532">
        <ele>193</ele>
        <time>2016-11-05T09:33:35Z</time>
      </trkpt>
      <trkpt lat="45.94993" lon="4.74538">
        <ele>193</ele>
        <time>2016-11-05T09:33:36Z</time>
      </trkpt>
      <trkpt lat="45.94996" lon="4.74543">
        <ele>193</ele>
        <time>2016-11-05T09:33:37Z</time>
      </trkpt>
      <trkpt lat="45.94998" lon="4.74549">
        <ele>193</ele>
        <time>2016-11-05T09:33:38Z</time>
      </trkpt>
      <trkpt lat="45.95002" lon="4.74555">
        <ele>194</ele>
        <time>2016-11-05T09:33:39Z</time>
      </trkpt>
      <trkpt lat="45.95005" lon="4.74561">
        <ele>194</ele>
        <time>2016-11-05T09:33:40Z</time>
      </trkpt>
      <trkpt lat="45.9501" lon="4.74566">
        <ele>194</ele>
        <time>2016-11-05T09:33:41Z</time>
      </trkpt>
      <trkpt lat="45.95014" lon="4.74571">
        <ele>194</ele>
        <time>2016-11-05T09:33:42Z</time>
      </trkpt>
      <trkpt lat="45.95016" lon="4.74577">
        <ele>194</ele>
        <time>2016-11-05T09:33:43Z</time>
      </trkpt>
      <trkpt lat="45.95019" lon="4.74582">
        <ele>194</ele>
        <time>2016-11-05T09:33:44Z</time>
      </trkpt>
      <trkpt lat="45.95022" lon="4.74587">
        <ele>194</ele>
        <time>2016-11-05T09:33:45Z</time>
      </trkpt>
      <trkpt lat="45.95026" lon="4.74592">
        <ele>194</ele>
        <time>2016-11-05T09:33:46Z</time>
      </trkpt>
      <trkpt lat="45.95029" lon="4.74598">
        <ele>194</ele>
        <time>2016-11-05T09:33:47Z</time>
      </trkpt>
      <trkpt lat="45.95032" lon="4.74603">
        <ele>194</ele>
        <time>2016-11-05T09:33:48Z</time>
      </trkpt>
      <trkpt lat="45.95035" lon="4.74609">
        <ele>194</ele>
        <time>2016-11-05T09:33:49Z</time>
      </trkpt>
      <trkpt lat="45.95038" lon="4.74615">
        <ele>194</ele>
        <time>2016-11-05T09:33:50Z</time>
      </trkpt>
      <trkpt lat="45.95041" lon="4.74621">
        <ele>194</ele>
        <time>2016-11-05T09:33:51Z</time>
      </trkpt>
      <trkpt lat="45.95044" lon="4.74626">
        <ele>194</ele>
        <time>2016-11-05T09:33:52Z</time>
      </trkpt>
      <trkpt lat="45.9505" lon="4.74638">
        <ele>194</ele>
        <time>2016-11-05T09:33:54Z</time>
      </trkpt>
      <trkpt lat="45.95054" lon="4.74644">
        <ele>194</ele>
        <time>2016-11-05T09:33:55Z</time>
      </trkpt>
      <trkpt lat="45.95058" lon="4.74649">
        <ele>194</ele>
        <time>2016-11-05T09:33:56Z</time>
      </trkpt>
      <trkpt lat="45.95062" lon="4.74655">
        <ele>195</ele>
        <time>2016-11-05T09:33:57Z</time>
      </trkpt>
      <trkpt lat="45.95065" lon="4.74661">
        <ele>195</ele>
        <time>2016-11-05T09:33:58Z</time>
      </trkpt>
      <trkpt lat="45.95068" lon="4.74667">
        <ele>195</ele>
        <time>2016-11-05T09:33:59Z</time>
      </trkpt>
      <trkpt lat="45.95071" lon="4.74673">
        <ele>194</ele>
        <time>2016-11-05T09:34:00Z</time>
      </trkpt>
      <trkpt lat="45.95074" lon="4.74679">
        <ele>194</ele>
        <time>2016-11-05T09:34:01Z</time>
      </trkpt>
      <trkpt lat="45.95077" lon="4.74684">
        <ele>194</ele>
        <time>2016-11-05T09:34:02Z</time>
      </trkpt>
      <trkpt lat="45.95081" lon="4.7469">
        <ele>194</ele>
        <time>2016-11-05T09:34:03Z</time>
      </trkpt>
      <trkpt lat="45.95083" lon="4.74696">
        <ele>194</ele>
        <time>2016-11-05T09:34:04Z</time>
      </trkpt>
      <trkpt lat="45.95086" lon="4.74702">
        <ele>194</ele>
        <time>2016-11-05T09:34:05Z</time>
      </trkpt>
      <trkpt lat="45.9509" lon="4.74708">
        <ele>194</ele>
        <time>2016-11-05T09:34:06Z</time>
      </trkpt>
      <trkpt lat="45.95092" lon="4.74714">
        <ele>194</ele>
        <time>2016-11-05T09:34:07Z</time>
      </trkpt>
      <trkpt lat="45.95096" lon="4.74719">
        <ele>194</ele>
        <time>2016-11-05T09:34:08Z</time>
      </trkpt>
      <trkpt lat="45.951" lon="4.74724">
        <ele>194</ele>
        <time>2016-11-05T09:34:09Z</time>
      </trkpt>
      <trkpt lat="45.95102" lon="4.7473">
        <ele>194</ele>
        <time>2016-11-05T09:34:10Z</time>
      </trkpt>
      <trkpt lat="45.95105" lon="4.74735">
        <ele>194</ele>
        <time>2016-11-05T09:34:11Z</time>
      </trkpt>
      <trkpt lat="45.95109" lon="4.74741">
        <ele>194</ele>
        <time>2016-11-05T09:34:12Z</time>
      </trkpt>
      <trkpt lat="45.95112" lon="4.74746">
        <ele>194</ele>
        <time>2016-11-05T09:34:13Z</time>
      </trkpt>
      <trkpt lat="45.95116" lon="4.74752">
        <ele>194</ele>
        <time>2016-11-05T09:34:14Z</time>
      </trkpt>
      <trkpt lat="45.95119" lon="4.74757">
        <ele>194</ele>
        <time>2016-11-05T09:34:15Z</time>
      </trkpt>
      <trkpt lat="45.95123" lon="4.74763">
        <ele>194</ele>
        <time>2016-11-05T09:34:16Z</time>
      </trkpt>
      <trkpt lat="45.95127" lon="4.74769">
        <ele>194</ele>
        <time>2016-11-05T09:34:17Z</time>
      </trkpt>
      <trkpt lat="45.9513" lon="4.74774">
        <ele>194</ele>
        <time>2016-11-05T09:34:18Z</time>
      </trkpt>
      <trkpt lat="45.95133" lon="4.7478">
        <ele>194</ele>
        <time>2016-11-05T09:34:19Z</time>
      </trkpt>
      <trkpt lat="45.95135" lon="4.74785">
        <ele>194</ele>
        <time>2016-11-05T09:34:20Z</time>
      </trkpt>
      <trkpt lat="45.95139" lon="4.74791">
        <ele>194</ele>
        <time>2016-11-05T09:34:21Z</time>
      </trkpt>
      <trkpt lat="45.95142" lon="4.74796">
        <ele>194</ele>
        <time>2016-11-05T09:34:22Z</time>
      </trkpt>
      <trkpt lat="45.95145" lon="4.74802">
        <ele>194</ele>
        <time>2016-11-05T09:34:23Z</time>
      </trkpt>
      <trkpt lat="45.95149" lon="4.74807">
        <ele>194</ele>
        <time>2016-11-05T09:34:24Z</time>
      </trkpt>
      <trkpt lat="45.95154" lon="4.74817">
        <ele>194</ele>
        <time>2016-11-05T09:34:26Z</time>
      </trkpt>
      <trkpt lat="45.95156" lon="4.74823">
        <ele>194</ele>
        <time>2016-11-05T09:34:27Z</time>
      </trkpt>
      <trkpt lat="45.9516" lon="4.7483">
        <ele>194</ele>
        <time>2016-11-05T09:34:28Z</time>
      </trkpt>
      <trkpt lat="45.95163" lon="4.74836">
        <ele>194</ele>
        <time>2016-11-05T09:34:29Z</time>
      </trkpt>
      <trkpt lat="45.95166" lon="4.74842">
        <ele>194</ele>
        <time>2016-11-05T09:34:30Z</time>
      </trkpt>
      <trkpt lat="45.9517" lon="4.74847">
        <ele>194</ele>
        <time>2016-11-05T09:34:31Z</time>
      </trkpt>
      <trkpt lat="45.95174" lon="4.74852">
        <ele>194</ele>
        <time>2016-11-05T09:34:32Z</time>
      </trkpt>
      <trkpt lat="45.95178" lon="4.74858">
        <ele>194</ele>
        <time>2016-11-05T09:34:33Z</time>
      </trkpt>
      <trkpt lat="45.95181" lon="4.74863">
        <ele>194</ele>
        <time>2016-11-05T09:34:34Z</time>
      </trkpt>
      <trkpt lat="45.95185" lon="4.74868">
        <ele>194</ele>
        <time>2016-11-05T09:34:35Z</time>
      </trkpt>
      <trkpt lat="45.95189" lon="4.74878">
        <ele>194</ele>
        <time>2016-11-05T09:34:37Z</time>
      </trkpt>
      <trkpt lat="45.95193" lon="4.74884">
        <ele>194</ele>
        <time>2016-11-05T09:34:38Z</time>
      </trkpt>
      <trkpt lat="45.95199" lon="4.74889">
        <ele>194</ele>
        <time>2016-11-05T09:34:39Z</time>
      </trkpt>
      <trkpt lat="45.95203" lon="4.74896">
        <ele>194</ele>
        <time>2016-11-05T09:34:40Z</time>
      </trkpt>
      <trkpt lat="45.95206" lon="4.74902">
        <ele>194</ele>
        <time>2016-11-05T09:34:41Z</time>
      </trkpt>
      <trkpt lat="45.95214" lon="4.74914">
        <ele>193</ele>
        <time>2016-11-05T09:34:43Z</time>
      </trkpt>
      <trkpt lat="45.95217" lon="4.7492">
        <ele>192</ele>
        <time>2016-11-05T09:34:44Z</time>
      </trkpt>
      <trkpt lat="45.9522" lon="4.74926">
        <ele>192</ele>
        <time>2016-11-05T09:34:45Z</time>
      </trkpt>
      <trkpt lat="45.95224" lon="4.74932">
        <ele>192</ele>
        <time>2016-11-05T09:34:46Z</time>
      </trkpt>
      <trkpt lat="45.95227" lon="4.74938">
        <ele>192</ele>
        <time>2016-11-05T09:34:47Z</time>
      </trkpt>
      <trkpt lat="45.95233" lon="4.74943">
        <ele>192</ele>
        <time>2016-11-05T09:34:48Z</time>
      </trkpt>
      <trkpt lat="45.95235" lon="4.7495">
        <ele>192</ele>
        <time>2016-11-05T09:34:49Z</time>
      </trkpt>
      <trkpt lat="45.95241" lon="4.74958">
        <ele>192</ele>
        <time>2016-11-05T09:34:51Z</time>
      </trkpt>
      <trkpt lat="45.95247" lon="4.74963">
        <ele>191</ele>
        <time>2016-11-05T09:34:52Z</time>
      </trkpt>
      <trkpt lat="45.95251" lon="4.74969">
        <ele>192</ele>
        <time>2016-11-05T09:34:53Z</time>
      </trkpt>
      <trkpt lat="45.95256" lon="4.74975">
        <ele>192</ele>
        <time>2016-11-05T09:34:54Z</time>
      </trkpt>
      <trkpt lat="45.95263" lon="4.7498">
        <ele>192</ele>
        <time>2016-11-05T09:34:55Z</time>
      </trkpt>
      <trkpt lat="45.9527" lon="4.74985">
        <ele>192</ele>
        <time>2016-11-05T09:34:56Z</time>
      </trkpt>
      <trkpt lat="45.95274" lon="4.74991">
        <ele>192</ele>
        <time>2016-11-05T09:34:57Z</time>
      </trkpt>
      <trkpt lat="45.95279" lon="4.74998">
        <ele>192</ele>
        <time>2016-11-05T09:34:58Z</time>
      </trkpt>
      <trkpt lat="45.95283" lon="4.75004">
        <ele>191</ele>
        <time>2016-11-05T09:34:59Z</time>
      </trkpt>
      <trkpt lat="45.95287" lon="4.75011">
        <ele>191</ele>
        <time>2016-11-05T09:35:00Z</time>
      </trkpt>
      <trkpt lat="45.95291" lon="4.75019">
        <ele>191</ele>
        <time>2016-11-05T09:35:01Z</time>
      </trkpt>
      <trkpt lat="45.95294" lon="4.75026">
        <ele>191</ele>
        <time>2016-11-05T09:35:02Z</time>
      </trkpt>
      <trkpt lat="45.95298" lon="4.75034">
        <ele>191</ele>
        <time>2016-11-05T09:35:03Z</time>
      </trkpt>
      <trkpt lat="45.95302" lon="4.75041">
        <ele>191</ele>
        <time>2016-11-05T09:35:04Z</time>
      </trkpt>
      <trkpt lat="45.95306" lon="4.75048">
        <ele>192</ele>
        <time>2016-11-05T09:35:05Z</time>
      </trkpt>
      <trkpt lat="45.9531" lon="4.75055">
        <ele>192</ele>
        <time>2016-11-05T09:35:06Z</time>
      </trkpt>
      <trkpt lat="45.95314" lon="4.75062">
        <ele>192</ele>
        <time>2016-11-05T09:35:07Z</time>
      </trkpt>
      <trkpt lat="45.95317" lon="4.75069">
        <ele>192</ele>
        <time>2016-11-05T09:35:08Z</time>
      </trkpt>
      <trkpt lat="45.95322" lon="4.75076">
        <ele>192</ele>
        <time>2016-11-05T09:35:09Z</time>
      </trkpt>
      <trkpt lat="45.95325" lon="4.75082">
        <ele>192</ele>
        <time>2016-11-05T09:35:10Z</time>
      </trkpt>
      <trkpt lat="45.95329" lon="4.75089">
        <ele>192</ele>
        <time>2016-11-05T09:35:11Z</time>
      </trkpt>
      <trkpt lat="45.95333" lon="4.75095">
        <ele>191</ele>
        <time>2016-11-05T09:35:12Z</time>
      </trkpt>
      <trkpt lat="45.95337" lon="4.75101">
        <ele>192</ele>
        <time>2016-11-05T09:35:13Z</time>
      </trkpt>
      <trkpt lat="45.95341" lon="4.75107">
        <ele>192</ele>
        <time>2016-11-05T09:35:14Z</time>
      </trkpt>
      <trkpt lat="45.95345" lon="4.75114">
        <ele>192</ele>
        <time>2016-11-05T09:35:15Z</time>
      </trkpt>
      <trkpt lat="45.95349" lon="4.7512">
        <ele>191</ele>
        <time>2016-11-05T09:35:16Z</time>
      </trkpt>
      <trkpt lat="45.95353" lon="4.75126">
        <ele>191</ele>
        <time>2016-11-05T09:35:17Z</time>
      </trkpt>
      <trkpt lat="45.95357" lon="4.75133">
        <ele>191</ele>
        <time>2016-11-05T09:35:18Z</time>
      </trkpt>
      <trkpt lat="45.9536" lon="4.75139">
        <ele>191</ele>
        <time>2016-11-05T09:35:19Z</time>
      </trkpt>
      <trkpt lat="45.95364" lon="4.75146">
        <ele>191</ele>
        <time>2016-11-05T09:35:20Z</time>
      </trkpt>
      <trkpt lat="45.95369" lon="4.75153">
        <ele>191</ele>
        <time>2016-11-05T09:35:21Z</time>
      </trkpt>
      <trkpt lat="45.95373" lon="4.75159">
        <ele>191</ele>
        <time>2016-11-05T09:35:22Z</time>
      </trkpt>
      <trkpt lat="45.95377" lon="4.75167">
        <ele>191</ele>
        <time>2016-11-05T09:35:23Z</time>
      </trkpt>
      <trkpt lat="45.95384" lon="4.75181">
        <ele>189</ele>
        <time>2016-11-05T09:35:25Z</time>
      </trkpt>
      <trkpt lat="45.95385" lon="4.7519">
        <ele>189</ele>
        <time>2016-11-05T09:35:26Z</time>
      </trkpt>
      <trkpt lat="45.95388" lon="4.75197">
        <ele>189</ele>
        <time>2016-11-05T09:35:27Z</time>
      </trkpt>
      <trkpt lat="45.95392" lon="4.75204">
        <ele>188</ele>
        <time>2016-11-05T09:35:28Z</time>
      </trkpt>
      <trkpt lat="45.95396" lon="4.75211">
        <ele>188</ele>
        <time>2016-11-05T09:35:29Z</time>
      </trkpt>
      <trkpt lat="45.95399" lon="4.75219">
        <ele>188</ele>
        <time>2016-11-05T09:35:30Z</time>
      </trkpt>
      <trkpt lat="45.95403" lon="4.75226">
        <ele>188</ele>
        <time>2016-11-05T09:35:31Z</time>
      </trkpt>
      <trkpt lat="45.95408" lon="4.75233">
        <ele>188</ele>
        <time>2016-11-05T09:35:32Z</time>
      </trkpt>
      <trkpt lat="45.95414" lon="4.75239">
        <ele>189</ele>
        <time>2016-11-05T09:35:33Z</time>
      </trkpt>
      <trkpt lat="45.95418" lon="4.75245">
        <ele>189</ele>
        <time>2016-11-05T09:35:34Z</time>
      </trkpt>
      <trkpt lat="45.95422" lon="4.75252">
        <ele>189</ele>
        <time>2016-11-05T09:35:35Z</time>
      </trkpt>
      <trkpt lat="45.95422" lon="4.75261">
        <ele>189</ele>
        <time>2016-11-05T09:35:36Z</time>
      </trkpt>
      <trkpt lat="45.95427" lon="4.75268">
        <ele>189</ele>
        <time>2016-11-05T09:35:37Z</time>
      </trkpt>
      <trkpt lat="45.9543" lon="4.75276">
        <ele>188</ele>
        <time>2016-11-05T09:35:38Z</time>
      </trkpt>
      <trkpt lat="45.95436" lon="4.75282">
        <ele>188</ele>
        <time>2016-11-05T09:35:39Z</time>
      </trkpt>
      <trkpt lat="45.95442" lon="4.75289">
        <ele>188</ele>
        <time>2016-11-05T09:35:40Z</time>
      </trkpt>
      <trkpt lat="45.95448" lon="4.75295">
        <ele>188</ele>
        <time>2016-11-05T09:35:41Z</time>
      </trkpt>
      <trkpt lat="45.95455" lon="4.75302">
        <ele>188</ele>
        <time>2016-11-05T09:35:42Z</time>
      </trkpt>
      <trkpt lat="45.9546" lon="4.75309">
        <ele>188</ele>
        <time>2016-11-05T09:35:43Z</time>
      </trkpt>
      <trkpt lat="45.95464" lon="4.75317">
        <ele>188</ele>
        <time>2016-11-05T09:35:44Z</time>
      </trkpt>
      <trkpt lat="45.95468" lon="4.75325">
        <ele>188</ele>
        <time>2016-11-05T09:35:45Z</time>
      </trkpt>
      <trkpt lat="45.95473" lon="4.75332">
        <ele>188</ele>
        <time>2016-11-05T09:35:46Z</time>
      </trkpt>
      <trkpt lat="45.95482" lon="4.75348">
        <ele>186</ele>
        <time>2016-11-05T09:35:48Z</time>
      </trkpt>
      <trkpt lat="45.95487" lon="4.75356">
        <ele>186</ele>
        <time>2016-11-05T09:35:49Z</time>
      </trkpt>
      <trkpt lat="45.95493" lon="4.75363">
        <ele>186</ele>
        <time>2016-11-05T09:35:50Z</time>
      </trkpt>
      <trkpt lat="45.95498" lon="4.75371">
        <ele>186</ele>
        <time>2016-11-05T09:35:51Z</time>
      </trkpt>
      <trkpt lat="45.95502" lon="4.75379">
        <ele>188</ele>
        <time>2016-11-05T09:35:52Z</time>
      </trkpt>
      <trkpt lat="45.95505" lon="4.75388">
        <ele>188</ele>
        <time>2016-11-05T09:35:53Z</time>
      </trkpt>
      <trkpt lat="45.95508" lon="4.75397">
        <ele>188</ele>
        <time>2016-11-05T09:35:54Z</time>
      </trkpt>
      <trkpt lat="45.95511" lon="4.75406">
        <ele>187</ele>
        <time>2016-11-05T09:35:55Z</time>
      </trkpt>
      <trkpt lat="45.95513" lon="4.75415">
        <ele>187</ele>
        <time>2016-11-05T09:35:56Z</time>
      </trkpt>
      <trkpt lat="45.95515" lon="4.75425">
        <ele>186</ele>
        <time>2016-11-05T09:35:57Z</time>
      </trkpt>
      <trkpt lat="45.95516" lon="4.75434">
        <ele>187</ele>
        <time>2016-11-05T09:35:58Z</time>
      </trkpt>
      <trkpt lat="45.95516" lon="4.75444">
        <ele>187</ele>
        <time>2016-11-05T09:35:59Z</time>
      </trkpt>
      <trkpt lat="45.95515" lon="4.75455">
        <ele>187</ele>
        <time>2016-11-05T09:36:00Z</time>
      </trkpt>
      <trkpt lat="45.95515" lon="4.75465">
        <ele>187</ele>
        <time>2016-11-05T09:36:01Z</time>
      </trkpt>
      <trkpt lat="45.95514" lon="4.75474">
        <ele>186</ele>
        <time>2016-11-05T09:36:02Z</time>
      </trkpt>
      <trkpt lat="45.95517" lon="4.75484">
        <ele>186</ele>
        <time>2016-11-05T09:36:03Z</time>
      </trkpt>
      <trkpt lat="45.95519" lon="4.75491">
        <ele>186</ele>
        <time>2016-11-05T09:36:04Z</time>
      </trkpt>
      <trkpt lat="45.95523" lon="4.75497">
        <ele>186</ele>
        <time>2016-11-05T09:36:05Z</time>
      </trkpt>
      <trkpt lat="45.95528" lon="4.75501">
        <ele>185</ele>
        <time>2016-11-05T09:36:06Z</time>
      </trkpt>
      <trkpt lat="45.95533" lon="4.75506">
        <ele>186</ele>
        <time>2016-11-05T09:36:07Z</time>
      </trkpt>
      <trkpt lat="45.95538" lon="4.7551">
        <ele>186</ele>
        <time>2016-11-05T09:36:08Z</time>
      </trkpt>
      <trkpt lat="45.95543" lon="4.75515">
        <ele>186</ele>
        <time>2016-11-05T09:36:09Z</time>
      </trkpt>
      <trkpt lat="45.95548" lon="4.75521">
        <ele>186</ele>
        <time>2016-11-05T09:36:10Z</time>
      </trkpt>
      <trkpt lat="45.95553" lon="4.75526">
        <ele>186</ele>
        <time>2016-11-05T09:36:11Z</time>
      </trkpt>
      <trkpt lat="45.95558" lon="4.75531">
        <ele>186</ele>
        <time>2016-11-05T09:36:12Z</time>
      </trkpt>
      <trkpt lat="45.95563" lon="4.75536">
        <ele>186</ele>
        <time>2016-11-05T09:36:13Z</time>
      </trkpt>
      <trkpt lat="45.95568" lon="4.75541">
        <ele>186</ele>
        <time>2016-11-05T09:36:14Z</time>
      </trkpt>
      <trkpt lat="45.95573" lon="4.75546">
        <ele>186</ele>
        <time>2016-11-05T09:36:15Z</time>
      </trkpt>
      <trkpt lat="45.95577" lon="4.75551">
        <ele>186</ele>
        <time>2016-11-05T09:36:16Z</time>
      </trkpt>
      <trkpt lat="45.95582" lon="4.75556">
        <ele>186</ele>
        <time>2016-11-05T09:36:17Z</time>
      </trkpt>
      <trkpt lat="45.95586" lon="4.75562">
        <ele>188</ele>
        <time>2016-11-05T09:36:18Z</time>
      </trkpt>
      <trkpt lat="45.9559" lon="4.75567">
        <ele>188</ele>
        <time>2016-11-05T09:36:19Z</time>
      </trkpt>
      <trkpt lat="45.95593" lon="4.75572">
        <ele>188</ele>
        <time>2016-11-05T09:36:20Z</time>
      </trkpt>
      <trkpt lat="45.95596" lon="4.75579">
        <ele>187</ele>
        <time>2016-11-05T09:36:21Z</time>
      </trkpt>
      <trkpt lat="45.95599" lon="4.75587">
        <ele>187</ele>
        <time>2016-11-05T09:36:22Z</time>
      </trkpt>
      <trkpt lat="45.95602" lon="4.75594">
        <ele>187</ele>
        <time>2016-11-05T09:36:23Z</time>
      </trkpt>
      <trkpt lat="45.95605" lon="4.75601">
        <ele>187</ele>
        <time>2016-11-05T09:36:24Z</time>
      </trkpt>
      <trkpt lat="45.95608" lon="4.75609">
        <ele>188</ele>
        <time>2016-11-05T09:36:25Z</time>
      </trkpt>
      <trkpt lat="45.9561" lon="4.75617">
        <ele>188</ele>
        <time>2016-11-05T09:36:26Z</time>
      </trkpt>
      <trkpt lat="45.95613" lon="4.75625">
        <ele>188</ele>
        <time>2016-11-05T09:36:27Z</time>
      </trkpt>
      <trkpt lat="45.95615" lon="4.75632">
        <ele>188</ele>
        <time>2016-11-05T09:36:28Z</time>
      </trkpt>
      <trkpt lat="45.95617" lon="4.7564">
        <ele>188</ele>
        <time>2016-11-05T09:36:29Z</time>
      </trkpt>
      <trkpt lat="45.95618" lon="4.75648">
        <ele>188</ele>
        <time>2016-11-05T09:36:30Z</time>
      </trkpt>
      <trkpt lat="45.9562" lon="4.75656">
        <ele>188</ele>
        <time>2016-11-05T09:36:31Z</time>
      </trkpt>
      <trkpt lat="45.95621" lon="4.75664">
        <ele>188</ele>
        <time>2016-11-05T09:36:32Z</time>
      </trkpt>
      <trkpt lat="45.95622" lon="4.75672">
        <ele>187</ele>
        <time>2016-11-05T09:36:33Z</time>
      </trkpt>
      <trkpt lat="45.95623" lon="4.75679">
        <ele>187</ele>
        <time>2016-11-05T09:36:34Z</time>
      </trkpt>
      <trkpt lat="45.95623" lon="4.75687">
        <ele>187</ele>
        <time>2016-11-05T09:36:35Z</time>
      </trkpt>
      <trkpt lat="45.95624" lon="4.75695">
        <ele>187</ele>
        <time>2016-11-05T09:36:36Z</time>
      </trkpt>
      <trkpt lat="45.95625" lon="4.75703">
        <ele>187</ele>
        <time>2016-11-05T09:36:37Z</time>
      </trkpt>
      <trkpt lat="45.95626" lon="4.7571">
        <ele>187</ele>
        <time>2016-11-05T09:36:38Z</time>
      </trkpt>
      <trkpt lat="45.95628" lon="4.75718">
        <ele>187</ele>
        <time>2016-11-05T09:36:39Z</time>
      </trkpt>
      <trkpt lat="45.95629" lon="4.75726">
        <ele>187</ele>
        <time>2016-11-05T09:36:40Z</time>
      </trkpt>
      <trkpt lat="45.9563" lon="4.75734">
        <ele>187</ele>
        <time>2016-11-05T09:36:41Z</time>
      </trkpt>
      <trkpt lat="45.95631" lon="4.75742">
        <ele>187</ele>
        <time>2016-11-05T09:36:42Z</time>
      </trkpt>
      <trkpt lat="45.95632" lon="4.75749">
        <ele>187</ele>
        <time>2016-11-05T09:36:43Z</time>
      </trkpt>
      <trkpt lat="45.95633" lon="4.75757">
        <ele>186</ele>
        <time>2016-11-05T09:36:44Z</time>
      </trkpt>
      <trkpt lat="45.95634" lon="4.75766">
        <ele>186</ele>
        <time>2016-11-05T09:36:45Z</time>
      </trkpt>
      <trkpt lat="45.95635" lon="4.75774">
        <ele>186</ele>
        <time>2016-11-05T09:36:46Z</time>
      </trkpt>
      <trkpt lat="45.95637" lon="4.75782">
        <ele>185</ele>
        <time>2016-11-05T09:36:47Z</time>
      </trkpt>
      <trkpt lat="45.95638" lon="4.7579">
        <ele>185</ele>
        <time>2016-11-05T09:36:48Z</time>
      </trkpt>
      <trkpt lat="45.95639" lon="4.75799">
        <ele>185</ele>
        <time>2016-11-05T09:36:49Z</time>
      </trkpt>
      <trkpt lat="45.9564" lon="4.75807">
        <ele>185</ele>
        <time>2016-11-05T09:36:50Z</time>
      </trkpt>
      <trkpt lat="45.95642" lon="4.75816">
        <ele>185</ele>
        <time>2016-11-05T09:36:51Z</time>
      </trkpt>
      <trkpt lat="45.95644" lon="4.75825">
        <ele>185</ele>
        <time>2016-11-05T09:36:52Z</time>
      </trkpt>
      <trkpt lat="45.95646" lon="4.75833">
        <ele>185</ele>
        <time>2016-11-05T09:36:53Z</time>
      </trkpt>
      <trkpt lat="45.95648" lon="4.75842">
        <ele>185</ele>
        <time>2016-11-05T09:36:54Z</time>
      </trkpt>
      <trkpt lat="45.9565" lon="4.7585">
        <ele>184</ele>
        <time>2016-11-05T09:36:55Z</time>
      </trkpt>
      <trkpt lat="45.95652" lon="4.75858">
        <ele>184</ele>
        <time>2016-11-05T09:36:56Z</time>
      </trkpt>
      <trkpt lat="45.95654" lon="4.75866">
        <ele>184</ele>
        <time>2016-11-05T09:36:57Z</time>
      </trkpt>
      <trkpt lat="45.95656" lon="4.75874">
        <ele>184</ele>
        <time>2016-11-05T09:36:58Z</time>
      </trkpt>
      <trkpt lat="45.95659" lon="4.75882">
        <ele>184</ele>
        <time>2016-11-05T09:36:59Z</time>
      </trkpt>
      <trkpt lat="45.95661" lon="4.7589">
        <ele>184</ele>
        <time>2016-11-05T09:37:00Z</time>
      </trkpt>
      <trkpt lat="45.95664" lon="4.75898">
        <ele>184</ele>
        <time>2016-11-05T09:37:01Z</time>
      </trkpt>
      <trkpt lat="45.95667" lon="4.75906">
        <ele>185</ele>
        <time>2016-11-05T09:37:02Z</time>
      </trkpt>
      <trkpt lat="45.9567" lon="4.75914">
        <ele>184</ele>
        <time>2016-11-05T09:37:03Z</time>
      </trkpt>
      <trkpt lat="45.95674" lon="4.75923">
        <ele>184</ele>
        <time>2016-11-05T09:37:04Z</time>
      </trkpt>
      <trkpt lat="45.95677" lon="4.75931">
        <ele>185</ele>
        <time>2016-11-05T09:37:05Z</time>
      </trkpt>
      <trkpt lat="45.95681" lon="4.75938">
        <ele>185</ele>
        <time>2016-11-05T09:37:06Z</time>
      </trkpt>
      <trkpt lat="45.95685" lon="4.75946">
        <ele>185</ele>
        <time>2016-11-05T09:37:07Z</time>
      </trkpt>
      <trkpt lat="45.95688" lon="4.75953">
        <ele>185</ele>
        <time>2016-11-05T09:37:08Z</time>
      </trkpt>
      <trkpt lat="45.95691" lon="4.7596">
        <ele>185</ele>
        <time>2016-11-05T09:37:09Z</time>
      </trkpt>
      <trkpt lat="45.95694" lon="4.75967">
        <ele>185</ele>
        <time>2016-11-05T09:37:10Z</time>
      </trkpt>
      <trkpt lat="45.95697" lon="4.75974">
        <ele>185</ele>
        <time>2016-11-05T09:37:11Z</time>
      </trkpt>
      <trkpt lat="45.95701" lon="4.75981">
        <ele>185</ele>
        <time>2016-11-05T09:37:12Z</time>
      </trkpt>
      <trkpt lat="45.95704" lon="4.75987">
        <ele>185</ele>
        <time>2016-11-05T09:37:13Z</time>
      </trkpt>
      <trkpt lat="45.95707" lon="4.75994">
        <ele>185</ele>
        <time>2016-11-05T09:37:14Z</time>
      </trkpt>
      <trkpt lat="45.9571" lon="4.76002">
        <ele>184</ele>
        <time>2016-11-05T09:37:15Z</time>
      </trkpt>
      <trkpt lat="45.95714" lon="4.76009">
        <ele>184</ele>
        <time>2016-11-05T09:37:16Z</time>
      </trkpt>
      <trkpt lat="45.95717" lon="4.76016">
        <ele>184</ele>
        <time>2016-11-05T09:37:17Z</time>
      </trkpt>
      <trkpt lat="45.9572" lon="4.76023">
        <ele>184</ele>
        <time>2016-11-05T09:37:18Z</time>
      </trkpt>
      <trkpt lat="45.95724" lon="4.7603">
        <ele>184</ele>
        <time>2016-11-05T09:37:19Z</time>
      </trkpt>
      <trkpt lat="45.95727" lon="4.76037">
        <ele>184</ele>
        <time>2016-11-05T09:37:20Z</time>
      </trkpt>
      <trkpt lat="45.95729" lon="4.76043">
        <ele>184</ele>
        <time>2016-11-05T09:37:21Z</time>
      </trkpt>
      <trkpt lat="45.95732" lon="4.76049">
        <ele>184</ele>
        <time>2016-11-05T09:37:22Z</time>
      </trkpt>
      <trkpt lat="45.95735" lon="4.76056">
        <ele>184</ele>
        <time>2016-11-05T09:37:23Z</time>
      </trkpt>
      <trkpt lat="45.95737" lon="4.76063">
        <ele>184</ele>
        <time>2016-11-05T09:37:24Z</time>
      </trkpt>
      <trkpt lat="45.9574" lon="4.76069">
        <ele>185</ele>
        <time>2016-11-05T09:37:25Z</time>
      </trkpt>
      <trkpt lat="45.95743" lon="4.76076">
        <ele>185</ele>
        <time>2016-11-05T09:37:26Z</time>
      </trkpt>
      <trkpt lat="45.95745" lon="4.76084">
        <ele>185</ele>
        <time>2016-11-05T09:37:27Z</time>
      </trkpt>
      <trkpt lat="45.95748" lon="4.76091">
        <ele>185</ele>
        <time>2016-11-05T09:37:28Z</time>
      </trkpt>
      <trkpt lat="45.9575" lon="4.76098">
        <ele>186</ele>
        <time>2016-11-05T09:37:29Z</time>
      </trkpt>
      <trkpt lat="45.95752" lon="4.76106">
        <ele>186</ele>
        <time>2016-11-05T09:37:30Z</time>
      </trkpt>
      <trkpt lat="45.95754" lon="4.76113">
        <ele>186</ele>
        <time>2016-11-05T09:37:31Z</time>
      </trkpt>
      <trkpt lat="45.95755" lon="4.76121">
        <ele>186</ele>
        <time>2016-11-05T09:37:32Z</time>
      </trkpt>
      <trkpt lat="45.95756" lon="4.76129">
        <ele>186</ele>
        <time>2016-11-05T09:37:33Z</time>
      </trkpt>
      <trkpt lat="45.95757" lon="4.76137">
        <ele>186</ele>
        <time>2016-11-05T09:37:34Z</time>
      </trkpt>
      <trkpt lat="45.95758" lon="4.76145">
        <ele>186</ele>
        <time>2016-11-05T09:37:35Z</time>
      </trkpt>
      <trkpt lat="45.95758" lon="4.76153">
        <ele>186</ele>
        <time>2016-11-05T09:37:36Z</time>
      </trkpt>
      <trkpt lat="45.95759" lon="4.76161">
        <ele>185</ele>
        <time>2016-11-05T09:37:37Z</time>
      </trkpt>
      <trkpt lat="45.95759" lon="4.76169">
        <ele>185</ele>
        <time>2016-11-05T09:37:38Z</time>
      </trkpt>
      <trkpt lat="45.9576" lon="4.76177">
        <ele>185</ele>
        <time>2016-11-05T09:37:39Z</time>
      </trkpt>
      <trkpt lat="45.9576" lon="4.76184">
        <ele>186</ele>
        <time>2016-11-05T09:37:40Z</time>
      </trkpt>
      <trkpt lat="45.95761" lon="4.76192">
        <ele>186</ele>
        <time>2016-11-05T09:37:41Z</time>
      </trkpt>
      <trkpt lat="45.95761" lon="4.762">
        <ele>186</ele>
        <time>2016-11-05T09:37:42Z</time>
      </trkpt>
      <trkpt lat="45.95762" lon="4.76207">
        <ele>186</ele>
        <time>2016-11-05T09:37:43Z</time>
      </trkpt>
      <trkpt lat="45.95763" lon="4.76214">
        <ele>186</ele>
        <time>2016-11-05T09:37:44Z</time>
      </trkpt>
      <trkpt lat="45.95764" lon="4.76222">
        <ele>186</ele>
        <time>2016-11-05T09:37:45Z</time>
      </trkpt>
      <trkpt lat="45.95764" lon="4.76229">
        <ele>186</ele>
        <time>2016-11-05T09:37:46Z</time>
      </trkpt>
      <trkpt lat="45.95764" lon="4.76237">
        <ele>186</ele>
        <time>2016-11-05T09:37:47Z</time>
      </trkpt>
      <trkpt lat="45.95765" lon="4.76244">
        <ele>185</ele>
        <time>2016-11-05T09:37:48Z</time>
      </trkpt>
      <trkpt lat="45.95765" lon="4.76252">
        <ele>185</ele>
        <time>2016-11-05T09:37:49Z</time>
      </trkpt>
      <trkpt lat="45.95764" lon="4.7626">
        <ele>185</ele>
        <time>2016-11-05T09:37:50Z</time>
      </trkpt>
      <trkpt lat="45.95763" lon="4.76267">
        <ele>185</ele>
        <time>2016-11-05T09:37:51Z</time>
      </trkpt>
      <trkpt lat="45.95759" lon="4.76275">
        <ele>185</ele>
        <time>2016-11-05T09:37:52Z</time>
      </trkpt>
      <trkpt lat="45.95758" lon="4.76284">
        <ele>185</ele>
        <time>2016-11-05T09:37:53Z</time>
      </trkpt>
      <trkpt lat="45.95758" lon="4.76291">
        <ele>185</ele>
        <time>2016-11-05T09:37:54Z</time>
      </trkpt>
      <trkpt lat="45.95759" lon="4.76299">
        <ele>185</ele>
        <time>2016-11-05T09:37:55Z</time>
      </trkpt>
      <trkpt lat="45.9576" lon="4.76308">
        <ele>185</ele>
        <time>2016-11-05T09:37:56Z</time>
      </trkpt>
      <trkpt lat="45.95765" lon="4.76317">
        <ele>185</ele>
        <time>2016-11-05T09:37:57Z</time>
      </trkpt>
      <trkpt lat="45.95768" lon="4.76326">
        <ele>185</ele>
        <time>2016-11-05T09:37:58Z</time>
      </trkpt>
      <trkpt lat="45.95771" lon="4.76335">
        <ele>186</ele>
        <time>2016-11-05T09:37:59Z</time>
      </trkpt>
      <trkpt lat="45.95775" lon="4.76344">
        <ele>186</ele>
        <time>2016-11-05T09:38:00Z</time>
      </trkpt>
      <trkpt lat="45.95777" lon="4.76351">
        <ele>186</ele>
        <time>2016-11-05T09:38:01Z</time>
      </trkpt>
      <trkpt lat="45.95774" lon="4.76359">
        <ele>186</ele>
        <time>2016-11-05T09:38:02Z</time>
      </trkpt>
      <trkpt lat="45.95774" lon="4.76366">
        <ele>186</ele>
        <time>2016-11-05T09:38:03Z</time>
      </trkpt>
      <trkpt lat="45.95773" lon="4.76374">
        <ele>186</ele>
        <time>2016-11-05T09:38:04Z</time>
      </trkpt>
      <trkpt lat="45.95772" lon="4.76382">
        <ele>186</ele>
        <time>2016-11-05T09:38:05Z</time>
      </trkpt>
      <trkpt lat="45.95772" lon="4.76389">
        <ele>186</ele>
        <time>2016-11-05T09:38:06Z</time>
      </trkpt>
      <trkpt lat="45.95771" lon="4.76397">
        <ele>186</ele>
        <time>2016-11-05T09:38:07Z</time>
      </trkpt>
      <trkpt lat="45.95774" lon="4.76404">
        <ele>186</ele>
        <time>2016-11-05T09:38:08Z</time>
      </trkpt>
      <trkpt lat="45.95776" lon="4.76411">
        <ele>186</ele>
        <time>2016-11-05T09:38:09Z</time>
      </trkpt>
      <trkpt lat="45.95776" lon="4.76419">
        <ele>186</ele>
        <time>2016-11-05T09:38:10Z</time>
      </trkpt>
      <trkpt lat="45.95777" lon="4.76427">
        <ele>186</ele>
        <time>2016-11-05T09:38:11Z</time>
      </trkpt>
      <trkpt lat="45.95778" lon="4.76434">
        <ele>186</ele>
        <time>2016-11-05T09:38:12Z</time>
      </trkpt>
      <trkpt lat="45.95779" lon="4.76441">
        <ele>186</ele>
        <time>2016-11-05T09:38:13Z</time>
      </trkpt>
      <trkpt lat="45.9578" lon="4.76449">
        <ele>186</ele>
        <time>2016-11-05T09:38:14Z</time>
      </trkpt>
      <trkpt lat="45.95781" lon="4.76457">
        <ele>186</ele>
        <time>2016-11-05T09:38:15Z</time>
      </trkpt>
      <trkpt lat="45.95782" lon="4.76464">
        <ele>186</ele>
        <time>2016-11-05T09:38:16Z</time>
      </trkpt>
      <trkpt lat="45.95783" lon="4.76472">
        <ele>186</ele>
        <time>2016-11-05T09:38:17Z</time>
      </trkpt>
      <trkpt lat="45.95784" lon="4.76479">
        <ele>186</ele>
        <time>2016-11-05T09:38:18Z</time>
      </trkpt>
      <trkpt lat="45.95785" lon="4.76486">
        <ele>186</ele>
        <time>2016-11-05T09:38:19Z</time>
      </trkpt>
      <trkpt lat="45.95786" lon="4.76494">
        <ele>186</ele>
        <time>2016-11-05T09:38:20Z</time>
      </trkpt>
      <trkpt lat="45.95788" lon="4.76501">
        <ele>187</ele>
        <time>2016-11-05T09:38:21Z</time>
      </trkpt>
      <trkpt lat="45.95788" lon="4.76509">
        <ele>187</ele>
        <time>2016-11-05T09:38:22Z</time>
      </trkpt>
      <trkpt lat="45.95789" lon="4.76518">
        <ele>187</ele>
        <time>2016-11-05T09:38:23Z</time>
      </trkpt>
      <trkpt lat="45.9579" lon="4.76526">
        <ele>187</ele>
        <time>2016-11-05T09:38:24Z</time>
      </trkpt>
      <trkpt lat="45.95792" lon="4.76534">
        <ele>187</ele>
        <time>2016-11-05T09:38:25Z</time>
      </trkpt>
      <trkpt lat="45.95793" lon="4.76543">
        <ele>187</ele>
        <time>2016-11-05T09:38:26Z</time>
      </trkpt>
      <trkpt lat="45.95794" lon="4.76551">
        <ele>187</ele>
        <time>2016-11-05T09:38:27Z</time>
      </trkpt>
      <trkpt lat="45.95796" lon="4.76559">
        <ele>187</ele>
        <time>2016-11-05T09:38:28Z</time>
      </trkpt>
      <trkpt lat="45.95797" lon="4.76567">
        <ele>187</ele>
        <time>2016-11-05T09:38:29Z</time>
      </trkpt>
      <trkpt lat="45.95798" lon="4.76575">
        <ele>187</ele>
        <time>2016-11-05T09:38:30Z</time>
      </trkpt>
      <trkpt lat="45.958" lon="4.76582">
        <ele>187</ele>
        <time>2016-11-05T09:38:31Z</time>
      </trkpt>
      <trkpt lat="45.958" lon="4.7659">
        <ele>187</ele>
        <time>2016-11-05T09:38:32Z</time>
      </trkpt>
      <trkpt lat="45.95801" lon="4.76598">
        <ele>187</ele>
        <time>2016-11-05T09:38:33Z</time>
      </trkpt>
      <trkpt lat="45.95802" lon="4.76605">
        <ele>187</ele>
        <time>2016-11-05T09:38:34Z</time>
      </trkpt>
      <trkpt lat="45.95803" lon="4.76613">
        <ele>188</ele>
        <time>2016-11-05T09:38:35Z</time>
      </trkpt>
      <trkpt lat="45.95804" lon="4.7662">
        <ele>188</ele>
        <time>2016-11-05T09:38:36Z</time>
      </trkpt>
      <trkpt lat="45.95805" lon="4.76627">
        <ele>188</ele>
        <time>2016-11-05T09:38:37Z</time>
      </trkpt>
      <trkpt lat="45.95805" lon="4.76635">
        <ele>188</ele>
        <time>2016-11-05T09:38:38Z</time>
      </trkpt>
      <trkpt lat="45.95806" lon="4.76642">
        <ele>188</ele>
        <time>2016-11-05T09:38:39Z</time>
      </trkpt>
      <trkpt lat="45.95807" lon="4.76649">
        <ele>188</ele>
        <time>2016-11-05T09:38:40Z</time>
      </trkpt>
      <trkpt lat="45.95808" lon="4.76657">
        <ele>188</ele>
        <time>2016-11-05T09:38:41Z</time>
      </trkpt>
      <trkpt lat="45.95809" lon="4.76664">
        <ele>188</ele>
        <time>2016-11-05T09:38:42Z</time>
      </trkpt>
      <trkpt lat="45.9581" lon="4.76671">
        <ele>189</ele>
        <time>2016-11-05T09:38:43Z</time>
      </trkpt>
      <trkpt lat="45.95811" lon="4.76678">
        <ele>189</ele>
        <time>2016-11-05T09:38:44Z</time>
      </trkpt>
      <trkpt lat="45.95812" lon="4.76685">
        <ele>189</ele>
        <time>2016-11-05T09:38:45Z</time>
      </trkpt>
      <trkpt lat="45.95813" lon="4.76693">
        <ele>189</ele>
        <time>2016-11-05T09:38:46Z</time>
      </trkpt>
      <trkpt lat="45.95814" lon="4.767">
        <ele>189</ele>
        <time>2016-11-05T09:38:47Z</time>
      </trkpt>
      <trkpt lat="45.95815" lon="4.76707">
        <ele>189</ele>
        <time>2016-11-05T09:38:48Z</time>
      </trkpt>
      <trkpt lat="45.95816" lon="4.76714">
        <ele>189</ele>
        <time>2016-11-05T09:38:49Z</time>
      </trkpt>
      <trkpt lat="45.95817" lon="4.76721">
        <ele>189</ele>
        <time>2016-11-05T09:38:50Z</time>
      </trkpt>
      <trkpt lat="45.95818" lon="4.76728">
        <ele>190</ele>
        <time>2016-11-05T09:38:51Z</time>
      </trkpt>
      <trkpt lat="45.95819" lon="4.76734">
        <ele>190</ele>
        <time>2016-11-05T09:38:52Z</time>
      </trkpt>
      <trkpt lat="45.95819" lon="4.76742">
        <ele>190</ele>
        <time>2016-11-05T09:38:53Z</time>
      </trkpt>
      <trkpt lat="45.95821" lon="4.76748">
        <ele>190</ele>
        <time>2016-11-05T09:38:54Z</time>
      </trkpt>
      <trkpt lat="45.95822" lon="4.76755">
        <ele>190</ele>
        <time>2016-11-05T09:38:55Z</time>
      </trkpt>
      <trkpt lat="45.95823" lon="4.76763">
        <ele>190</ele>
        <time>2016-11-05T09:38:56Z</time>
      </trkpt>
      <trkpt lat="45.95824" lon="4.7677">
        <ele>190</ele>
        <time>2016-11-05T09:38:57Z</time>
      </trkpt>
      <trkpt lat="45.95825" lon="4.76778">
        <ele>190</ele>
        <time>2016-11-05T09:38:58Z</time>
      </trkpt>
      <trkpt lat="45.95826" lon="4.76786">
        <ele>190</ele>
        <time>2016-11-05T09:38:59Z</time>
      </trkpt>
      <trkpt lat="45.95827" lon="4.76794">
        <ele>190</ele>
        <time>2016-11-05T09:39:00Z</time>
      </trkpt>
      <trkpt lat="45.95827" lon="4.76803">
        <ele>190</ele>
        <time>2016-11-05T09:39:01Z</time>
      </trkpt>
      <trkpt lat="45.95827" lon="4.76811">
        <ele>190</ele>
        <time>2016-11-05T09:39:02Z</time>
      </trkpt>
      <trkpt lat="45.95826" lon="4.76819">
        <ele>190</ele>
        <time>2016-11-05T09:39:03Z</time>
      </trkpt>
      <trkpt lat="45.95825" lon="4.76827">
        <ele>190</ele>
        <time>2016-11-05T09:39:04Z</time>
      </trkpt>
      <trkpt lat="45.95824" lon="4.76835">
        <ele>190</ele>
        <time>2016-11-05T09:39:05Z</time>
      </trkpt>
      <trkpt lat="45.95823" lon="4.76843">
        <ele>190</ele>
        <time>2016-11-05T09:39:06Z</time>
      </trkpt>
      <trkpt lat="45.95821" lon="4.76851">
        <ele>189</ele>
        <time>2016-11-05T09:39:07Z</time>
      </trkpt>
      <trkpt lat="45.95819" lon="4.76858">
        <ele>189</ele>
        <time>2016-11-05T09:39:08Z</time>
      </trkpt>
      <trkpt lat="45.95818" lon="4.76866">
        <ele>189</ele>
        <time>2016-11-05T09:39:09Z</time>
      </trkpt>
      <trkpt lat="45.95817" lon="4.76873">
        <ele>189</ele>
        <time>2016-11-05T09:39:10Z</time>
      </trkpt>
      <trkpt lat="45.95815" lon="4.76881">
        <ele>189</ele>
        <time>2016-11-05T09:39:11Z</time>
      </trkpt>
      <trkpt lat="45.95814" lon="4.76888">
        <ele>189</ele>
        <time>2016-11-05T09:39:12Z</time>
      </trkpt>
      <trkpt lat="45.95813" lon="4.76895">
        <ele>189</ele>
        <time>2016-11-05T09:39:13Z</time>
      </trkpt>
      <trkpt lat="45.95812" lon="4.76903">
        <ele>189</ele>
        <time>2016-11-05T09:39:14Z</time>
      </trkpt>
      <trkpt lat="45.9581" lon="4.7691">
        <ele>189</ele>
        <time>2016-11-05T09:39:15Z</time>
      </trkpt>
      <trkpt lat="45.95809" lon="4.76918">
        <ele>189</ele>
        <time>2016-11-05T09:39:16Z</time>
      </trkpt>
      <trkpt lat="45.95808" lon="4.76925">
        <ele>189</ele>
        <time>2016-11-05T09:39:17Z</time>
      </trkpt>
      <trkpt lat="45.95806" lon="4.76933">
        <ele>189</ele>
        <time>2016-11-05T09:39:18Z</time>
      </trkpt>
      <trkpt lat="45.95805" lon="4.7694">
        <ele>189</ele>
        <time>2016-11-05T09:39:19Z</time>
      </trkpt>
      <trkpt lat="45.95804" lon="4.76948">
        <ele>189</ele>
        <time>2016-11-05T09:39:20Z</time>
      </trkpt>
      <trkpt lat="45.95803" lon="4.76955">
        <ele>189</ele>
        <time>2016-11-05T09:39:21Z</time>
      </trkpt>
      <trkpt lat="45.95801" lon="4.76962">
        <ele>189</ele>
        <time>2016-11-05T09:39:22Z</time>
      </trkpt>
      <trkpt lat="45.95799" lon="4.76969">
        <ele>189</ele>
        <time>2016-11-05T09:39:23Z</time>
      </trkpt>
      <trkpt lat="45.95798" lon="4.76977">
        <ele>189</ele>
        <time>2016-11-05T09:39:24Z</time>
      </trkpt>
      <trkpt lat="45.95796" lon="4.76984">
        <ele>189</ele>
        <time>2016-11-05T09:39:25Z</time>
      </trkpt>
      <trkpt lat="45.95798" lon="4.76992">
        <ele>189</ele>
        <time>2016-11-05T09:39:26Z</time>
      </trkpt>
      <trkpt lat="45.958" lon="4.77001">
        <ele>190</ele>
        <time>2016-11-05T09:39:27Z</time>
      </trkpt>
      <trkpt lat="45.95803" lon="4.77008">
        <ele>190</ele>
        <time>2016-11-05T09:39:28Z</time>
      </trkpt>
      <trkpt lat="45.95807" lon="4.77014">
        <ele>190</ele>
        <time>2016-11-05T09:39:29Z</time>
      </trkpt>
      <trkpt lat="45.95812" lon="4.77018">
        <ele>190</ele>
        <time>2016-11-05T09:39:30Z</time>
      </trkpt>
      <trkpt lat="45.95821" lon="4.77025">
        <ele>190</ele>
        <time>2016-11-05T09:39:31Z</time>
      </trkpt>
      <trkpt lat="45.95827" lon="4.77034">
        <ele>190</ele>
        <time>2016-11-05T09:39:32Z</time>
      </trkpt>
      <trkpt lat="45.95822" lon="4.77045">
        <ele>190</ele>
        <time>2016-11-05T09:39:33Z</time>
      </trkpt>
      <trkpt lat="45.95824" lon="4.77052">
        <ele>190</ele>
        <time>2016-11-05T09:39:34Z</time>
      </trkpt>
      <trkpt lat="45.95826" lon="4.7706">
        <ele>190</ele>
        <time>2016-11-05T09:39:35Z</time>
      </trkpt>
      <trkpt lat="45.95829" lon="4.77067">
        <ele>191</ele>
        <time>2016-11-05T09:39:36Z</time>
      </trkpt>
      <trkpt lat="45.95832" lon="4.77075">
        <ele>191</ele>
        <time>2016-11-05T09:39:37Z</time>
      </trkpt>
      <trkpt lat="45.95835" lon="4.77082">
        <ele>192</ele>
        <time>2016-11-05T09:39:38Z</time>
      </trkpt>
      <trkpt lat="45.95838" lon="4.77089">
        <ele>192</ele>
        <time>2016-11-05T09:39:39Z</time>
      </trkpt>
      <trkpt lat="45.95839" lon="4.77096">
        <ele>193</ele>
        <time>2016-11-05T09:39:40Z</time>
      </trkpt>
      <trkpt lat="45.95841" lon="4.77104">
        <ele>193</ele>
        <time>2016-11-05T09:39:41Z</time>
      </trkpt>
      <trkpt lat="45.95843" lon="4.77111">
        <ele>193</ele>
        <time>2016-11-05T09:39:42Z</time>
      </trkpt>
      <trkpt lat="45.95845" lon="4.77119">
        <ele>193</ele>
        <time>2016-11-05T09:39:43Z</time>
      </trkpt>
      <trkpt lat="45.95847" lon="4.77126">
        <ele>193</ele>
        <time>2016-11-05T09:39:44Z</time>
      </trkpt>
      <trkpt lat="45.95849" lon="4.77134">
        <ele>193</ele>
        <time>2016-11-05T09:39:45Z</time>
      </trkpt>
      <trkpt lat="45.9585" lon="4.77141">
        <ele>193</ele>
        <time>2016-11-05T09:39:46Z</time>
      </trkpt>
      <trkpt lat="45.95852" lon="4.77149">
        <ele>192</ele>
        <time>2016-11-05T09:39:47Z</time>
      </trkpt>
      <trkpt lat="45.95854" lon="4.77156">
        <ele>192</ele>
        <time>2016-11-05T09:39:48Z</time>
      </trkpt>
      <trkpt lat="45.95857" lon="4.77163">
        <ele>192</ele>
        <time>2016-11-05T09:39:49Z</time>
      </trkpt>
      <trkpt lat="45.95858" lon="4.77171">
        <ele>192</ele>
        <time>2016-11-05T09:39:50Z</time>
      </trkpt>
      <trkpt lat="45.9586" lon="4.77179">
        <ele>192</ele>
        <time>2016-11-05T09:39:51Z</time>
      </trkpt>
      <trkpt lat="45.95862" lon="4.77186">
        <ele>192</ele>
        <time>2016-11-05T09:39:52Z</time>
      </trkpt>
      <trkpt lat="45.95863" lon="4.77194">
        <ele>192</ele>
        <time>2016-11-05T09:39:53Z</time>
      </trkpt>
      <trkpt lat="45.95865" lon="4.77201">
        <ele>193</ele>
        <time>2016-11-05T09:39:54Z</time>
      </trkpt>
      <trkpt lat="45.95866" lon="4.77208">
        <ele>193</ele>
        <time>2016-11-05T09:39:55Z</time>
      </trkpt>
      <trkpt lat="45.95867" lon="4.77215">
        <ele>193</ele>
        <time>2016-11-05T09:39:56Z</time>
      </trkpt>
      <trkpt lat="45.95869" lon="4.77223">
        <ele>193</ele>
        <time>2016-11-05T09:39:57Z</time>
      </trkpt>
      <trkpt lat="45.95871" lon="4.7723">
        <ele>193</ele>
        <time>2016-11-05T09:39:58Z</time>
      </trkpt>
      <trkpt lat="45.95872" lon="4.77237">
        <ele>193</ele>
        <time>2016-11-05T09:39:59Z</time>
      </trkpt>
      <trkpt lat="45.95873" lon="4.77245">
        <ele>193</ele>
        <time>2016-11-05T09:40:00Z</time>
      </trkpt>
      <trkpt lat="45.95875" lon="4.77252">
        <ele>193</ele>
        <time>2016-11-05T09:40:01Z</time>
      </trkpt>
      <trkpt lat="45.95876" lon="4.7726">
        <ele>193</ele>
        <time>2016-11-05T09:40:02Z</time>
      </trkpt>
      <trkpt lat="45.95878" lon="4.77267">
        <ele>193</ele>
        <time>2016-11-05T09:40:03Z</time>
      </trkpt>
      <trkpt lat="45.95879" lon="4.77274">
        <ele>193</ele>
        <time>2016-11-05T09:40:04Z</time>
      </trkpt>
      <trkpt lat="45.95881" lon="4.77282">
        <ele>193</ele>
        <time>2016-11-05T09:40:05Z</time>
      </trkpt>
      <trkpt lat="45.95883" lon="4.77289">
        <ele>193</ele>
        <time>2016-11-05T09:40:06Z</time>
      </trkpt>
      <trkpt lat="45.95885" lon="4.77296">
        <ele>193</ele>
        <time>2016-11-05T09:40:07Z</time>
      </trkpt>
      <trkpt lat="45.95886" lon="4.77303">
        <ele>193</ele>
        <time>2016-11-05T09:40:08Z</time>
      </trkpt>
      <trkpt lat="45.95888" lon="4.7731">
        <ele>193</ele>
        <time>2016-11-05T09:40:09Z</time>
      </trkpt>
      <trkpt lat="45.9589" lon="4.77316">
        <ele>193</ele>
        <time>2016-11-05T09:40:10Z</time>
      </trkpt>
      <trkpt lat="45.95892" lon="4.77322">
        <ele>193</ele>
        <time>2016-11-05T09:40:11Z</time>
      </trkpt>
      <trkpt lat="45.95894" lon="4.77329">
        <ele>193</ele>
        <time>2016-11-05T09:40:12Z</time>
      </trkpt>
      <trkpt lat="45.95896" lon="4.77336">
        <ele>193</ele>
        <time>2016-11-05T09:40:13Z</time>
      </trkpt>
      <trkpt lat="45.95898" lon="4.77342">
        <ele>193</ele>
        <time>2016-11-05T09:40:14Z</time>
      </trkpt>
      <trkpt lat="45.959" lon="4.77348">
        <ele>193</ele>
        <time>2016-11-05T09:40:15Z</time>
      </trkpt>
      <trkpt lat="45.95903" lon="4.77354">
        <ele>193</ele>
        <time>2016-11-05T09:40:16Z</time>
      </trkpt>
      <trkpt lat="45.95905" lon="4.7736">
        <ele>193</ele>
        <time>2016-11-05T09:40:17Z</time>
      </trkpt>
      <trkpt lat="45.95907" lon="4.77367">
        <ele>193</ele>
        <time>2016-11-05T09:40:18Z</time>
      </trkpt>
      <trkpt lat="45.95909" lon="4.77373">
        <ele>193</ele>
        <time>2016-11-05T09:40:19Z</time>
      </trkpt>
      <trkpt lat="45.95912" lon="4.77379">
        <ele>193</ele>
        <time>2016-11-05T09:40:20Z</time>
      </trkpt>
      <trkpt lat="45.95914" lon="4.77386">
        <ele>193</ele>
        <time>2016-11-05T09:40:21Z</time>
      </trkpt>
      <trkpt lat="45.95916" lon="4.77392">
        <ele>193</ele>
        <time>2016-11-05T09:40:22Z</time>
      </trkpt>
      <trkpt lat="45.95918" lon="4.77398">
        <ele>196</ele>
        <time>2016-11-05T09:40:23Z</time>
      </trkpt>
      <trkpt lat="45.9592" lon="4.77405">
        <ele>195</ele>
        <time>2016-11-05T09:40:24Z</time>
      </trkpt>
      <trkpt lat="45.95922" lon="4.77412">
        <ele>195</ele>
        <time>2016-11-05T09:40:25Z</time>
      </trkpt>
      <trkpt lat="45.95925" lon="4.77418">
        <ele>195</ele>
        <time>2016-11-05T09:40:26Z</time>
      </trkpt>
      <trkpt lat="45.95927" lon="4.77424">
        <ele>195</ele>
        <time>2016-11-05T09:40:27Z</time>
      </trkpt>
      <trkpt lat="45.95929" lon="4.7743">
        <ele>195</ele>
        <time>2016-11-05T09:40:28Z</time>
      </trkpt>
      <trkpt lat="45.95931" lon="4.77436">
        <ele>195</ele>
        <time>2016-11-05T09:40:29Z</time>
      </trkpt>
      <trkpt lat="45.95933" lon="4.77442">
        <ele>195</ele>
        <time>2016-11-05T09:40:30Z</time>
      </trkpt>
      <trkpt lat="45.95935" lon="4.77449">
        <ele>195</ele>
        <time>2016-11-05T09:40:31Z</time>
      </trkpt>
      <trkpt lat="45.95937" lon="4.77456">
        <ele>195</ele>
        <time>2016-11-05T09:40:32Z</time>
      </trkpt>
      <trkpt lat="45.95939" lon="4.77462">
        <ele>195</ele>
        <time>2016-11-05T09:40:33Z</time>
      </trkpt>
      <trkpt lat="45.95941" lon="4.77469">
        <ele>195</ele>
        <time>2016-11-05T09:40:34Z</time>
      </trkpt>
      <trkpt lat="45.95944" lon="4.77475">
        <ele>195</ele>
        <time>2016-11-05T09:40:35Z</time>
      </trkpt>
      <trkpt lat="45.95946" lon="4.77483">
        <ele>195</ele>
        <time>2016-11-05T09:40:36Z</time>
      </trkpt>
      <trkpt lat="45.95948" lon="4.77489">
        <ele>195</ele>
        <time>2016-11-05T09:40:37Z</time>
      </trkpt>
      <trkpt lat="45.95951" lon="4.77495">
        <ele>195</ele>
        <time>2016-11-05T09:40:38Z</time>
      </trkpt>
      <trkpt lat="45.95954" lon="4.77501">
        <ele>195</ele>
        <time>2016-11-05T09:40:39Z</time>
      </trkpt>
      <trkpt lat="45.95959" lon="4.77511">
        <ele>195</ele>
        <time>2016-11-05T09:40:41Z</time>
      </trkpt>
      <trkpt lat="45.95961" lon="4.77516">
        <ele>195</ele>
        <time>2016-11-05T09:40:42Z</time>
      </trkpt>
      <trkpt lat="45.95965" lon="4.77526">
        <ele>195</ele>
        <time>2016-11-05T09:40:44Z</time>
      </trkpt>
      <trkpt lat="45.95967" lon="4.7753">
        <ele>195</ele>
        <time>2016-11-05T09:40:45Z</time>
      </trkpt>
      <trkpt lat="45.95971" lon="4.77539">
        <ele>195</ele>
        <time>2016-11-05T09:40:47Z</time>
      </trkpt>
      <trkpt lat="45.95973" lon="4.77543">
        <ele>195</ele>
        <time>2016-11-05T09:40:48Z</time>
      </trkpt>
      <trkpt lat="45.95978" lon="4.77552">
        <ele>195</ele>
        <time>2016-11-05T09:40:50Z</time>
      </trkpt>
      <trkpt lat="45.9598" lon="4.77556">
        <ele>196</ele>
        <time>2016-11-05T09:40:51Z</time>
      </trkpt>
      <trkpt lat="45.95985" lon="4.77567">
        <ele>196</ele>
        <time>2016-11-05T09:40:53Z</time>
      </trkpt>
      <trkpt lat="45.95987" lon="4.77573">
        <ele>196</ele>
        <time>2016-11-05T09:40:54Z</time>
      </trkpt>
      <trkpt lat="45.9599" lon="4.77583">
        <ele>196</ele>
        <time>2016-11-05T09:40:56Z</time>
      </trkpt>
      <trkpt lat="45.95991" lon="4.77586">
        <ele>196</ele>
        <time>2016-11-05T09:40:57Z</time>
      </trkpt>
      <trkpt lat="45.9599" lon="4.77594">
        <ele>195</ele>
        <time>2016-11-05T09:41:01Z</time>
      </trkpt>
      <trkpt lat="45.95991" lon="4.77594">
        <ele>195</ele>
        <time>2016-11-05T09:41:02Z</time>
      </trkpt>
      <trkpt lat="45.95991" lon="4.77596">
        <ele>195</ele>
        <time>2016-11-05T09:41:09Z</time>
      </trkpt>
      <trkpt lat="45.95993" lon="4.77598">
        <ele>195</ele>
        <time>2016-11-05T09:41:10Z</time>
      </trkpt>
      <trkpt lat="45.96001" lon="4.77601">
        <ele>198</ele>
        <time>2016-11-05T09:41:14Z</time>
      </trkpt>
      <trkpt lat="45.96004" lon="4.77602">
        <ele>198</ele>
        <time>2016-11-05T09:41:15Z</time>
      </trkpt>
      <trkpt lat="45.96007" lon="4.77612">
        <ele>199</ele>
        <time>2016-11-05T09:41:17Z</time>
      </trkpt>
      <trkpt lat="45.96012" lon="4.77615">
        <ele>199</ele>
        <time>2016-11-05T09:41:18Z</time>
      </trkpt>
      <trkpt lat="45.96019" lon="4.77623">
        <ele>199</ele>
        <time>2016-11-05T09:41:20Z</time>
      </trkpt>
      <trkpt lat="45.96022" lon="4.77627">
        <ele>199</ele>
        <time>2016-11-05T09:41:21Z</time>
      </trkpt>
      <trkpt lat="45.96026" lon="4.77632">
        <ele>199</ele>
        <time>2016-11-05T09:41:22Z</time>
      </trkpt>
      <trkpt lat="45.96031" lon="4.77636">
        <ele>199</ele>
        <time>2016-11-05T09:41:23Z</time>
      </trkpt>
      <trkpt lat="45.96034" lon="4.7764">
        <ele>199</ele>
        <time>2016-11-05T09:41:24Z</time>
      </trkpt>
      <trkpt lat="45.96038" lon="4.77644">
        <ele>199</ele>
        <time>2016-11-05T09:41:25Z</time>
      </trkpt>
      <trkpt lat="45.96045" lon="4.77651">
        <ele>199</ele>
        <time>2016-11-05T09:41:27Z</time>
      </trkpt>
      <trkpt lat="45.96049" lon="4.77655">
        <ele>200</ele>
        <time>2016-11-05T09:41:28Z</time>
      </trkpt>
      <trkpt lat="45.96052" lon="4.7766">
        <ele>200</ele>
        <time>2016-11-05T09:41:29Z</time>
      </trkpt>
      <trkpt lat="45.96055" lon="4.77664">
        <ele>200</ele>
        <time>2016-11-05T09:41:30Z</time>
      </trkpt>
      <trkpt lat="45.96059" lon="4.77669">
        <ele>198</ele>
        <time>2016-11-05T09:41:31Z</time>
      </trkpt>
      <trkpt lat="45.96065" lon="4.77678">
        <ele>198</ele>
        <time>2016-11-05T09:41:33Z</time>
      </trkpt>
      <trkpt lat="45.96068" lon="4.77682">
        <ele>198</ele>
        <time>2016-11-05T09:41:34Z</time>
      </trkpt>
      <trkpt lat="45.96072" lon="4.77685">
        <ele>198</ele>
        <time>2016-11-05T09:41:35Z</time>
      </trkpt>
      <trkpt lat="45.96078" lon="4.77694">
        <ele>197</ele>
        <time>2016-11-05T09:41:37Z</time>
      </trkpt>
      <trkpt lat="45.96081" lon="4.77699">
        <ele>197</ele>
        <time>2016-11-05T09:41:38Z</time>
      </trkpt>
      <trkpt lat="45.96084" lon="4.77705">
        <ele>200</ele>
        <time>2016-11-05T09:41:39Z</time>
      </trkpt>
      <trkpt lat="45.96087" lon="4.77709">
        <ele>200</ele>
        <time>2016-11-05T09:41:40Z</time>
      </trkpt>
      <trkpt lat="45.96092" lon="4.7772">
        <ele>199</ele>
        <time>2016-11-05T09:41:42Z</time>
      </trkpt>
      <trkpt lat="45.96094" lon="4.77725">
        <ele>199</ele>
        <time>2016-11-05T09:41:43Z</time>
      </trkpt>
      <trkpt lat="45.96097" lon="4.77731">
        <ele>199</ele>
        <time>2016-11-05T09:41:44Z</time>
      </trkpt>
      <trkpt lat="45.96101" lon="4.77736">
        <ele>198</ele>
        <time>2016-11-05T09:41:45Z</time>
      </trkpt>
      <trkpt lat="45.96104" lon="4.77741">
        <ele>198</ele>
        <time>2016-11-05T09:41:46Z</time>
      </trkpt>
      <trkpt lat="45.96107" lon="4.77746">
        <ele>199</ele>
        <time>2016-11-05T09:41:47Z</time>
      </trkpt>
      <trkpt lat="45.9611" lon="4.77752">
        <ele>197</ele>
        <time>2016-11-05T09:41:48Z</time>
      </trkpt>
      <trkpt lat="45.96113" lon="4.77757">
        <ele>197</ele>
        <time>2016-11-05T09:41:49Z</time>
      </trkpt>
      <trkpt lat="45.96119" lon="4.77766">
        <ele>197</ele>
        <time>2016-11-05T09:41:51Z</time>
      </trkpt>
      <trkpt lat="45.96123" lon="4.7777">
        <ele>197</ele>
        <time>2016-11-05T09:41:52Z</time>
      </trkpt>
      <trkpt lat="45.96129" lon="4.77779">
        <ele>198</ele>
        <time>2016-11-05T09:41:54Z</time>
      </trkpt>
      <trkpt lat="45.96131" lon="4.77783">
        <ele>198</ele>
        <time>2016-11-05T09:41:55Z</time>
      </trkpt>
      <trkpt lat="45.96137" lon="4.77793">
        <ele>198</ele>
        <time>2016-11-05T09:41:57Z</time>
      </trkpt>
      <trkpt lat="45.9614" lon="4.77798">
        <ele>198</ele>
        <time>2016-11-05T09:41:58Z</time>
      </trkpt>
      <trkpt lat="45.96145" lon="4.77807">
        <ele>198</ele>
        <time>2016-11-05T09:42:00Z</time>
      </trkpt>
      <trkpt lat="45.96148" lon="4.77812">
        <ele>198</ele>
        <time>2016-11-05T09:42:01Z</time>
      </trkpt>
      <trkpt lat="45.96153" lon="4.77822">
        <ele>198</ele>
        <time>2016-11-05T09:42:03Z</time>
      </trkpt>
      <trkpt lat="45.96155" lon="4.77828">
        <ele>198</ele>
        <time>2016-11-05T09:42:04Z</time>
      </trkpt>
      <trkpt lat="45.96158" lon="4.77835">
        <ele>198</ele>
        <time>2016-11-05T09:42:05Z</time>
      </trkpt>
      <trkpt lat="45.96161" lon="4.7784">
        <ele>198</ele>
        <time>2016-11-05T09:42:06Z</time>
      </trkpt>
      <trkpt lat="45.96165" lon="4.77846">
        <ele>197</ele>
        <time>2016-11-05T09:42:07Z</time>
      </trkpt>
      <trkpt lat="45.96168" lon="4.77851">
        <ele>201</ele>
        <time>2016-11-05T09:42:08Z</time>
      </trkpt>
      <trkpt lat="45.96171" lon="4.77857">
        <ele>201</ele>
        <time>2016-11-05T09:42:09Z</time>
      </trkpt>
      <trkpt lat="45.96174" lon="4.77862">
        <ele>201</ele>
        <time>2016-11-05T09:42:10Z</time>
      </trkpt>
      <trkpt lat="45.96177" lon="4.77867">
        <ele>201</ele>
        <time>2016-11-05T09:42:11Z</time>
      </trkpt>
      <trkpt lat="45.96181" lon="4.77873">
        <ele>201</ele>
        <time>2016-11-05T09:42:12Z</time>
      </trkpt>
      <trkpt lat="45.96184" lon="4.77878">
        <ele>201</ele>
        <time>2016-11-05T09:42:13Z</time>
      </trkpt>
      <trkpt lat="45.96187" lon="4.77883">
        <ele>201</ele>
        <time>2016-11-05T09:42:14Z</time>
      </trkpt>
      <trkpt lat="45.9619" lon="4.77888">
        <ele>201</ele>
        <time>2016-11-05T09:42:15Z</time>
      </trkpt>
      <trkpt lat="45.96194" lon="4.77894">
        <ele>201</ele>
        <time>2016-11-05T09:42:16Z</time>
      </trkpt>
      <trkpt lat="45.96197" lon="4.77899">
        <ele>201</ele>
        <time>2016-11-05T09:42:17Z</time>
      </trkpt>
      <trkpt lat="45.962" lon="4.77905">
        <ele>201</ele>
        <time>2016-11-05T09:42:18Z</time>
      </trkpt>
      <trkpt lat="45.96203" lon="4.7791">
        <ele>202</ele>
        <time>2016-11-05T09:42:19Z</time>
      </trkpt>
      <trkpt lat="45.96206" lon="4.77916">
        <ele>202</ele>
        <time>2016-11-05T09:42:20Z</time>
      </trkpt>
      <trkpt lat="45.96209" lon="4.77921">
        <ele>199</ele>
        <time>2016-11-05T09:42:21Z</time>
      </trkpt>
      <trkpt lat="45.96212" lon="4.77926">
        <ele>199</ele>
        <time>2016-11-05T09:42:22Z</time>
      </trkpt>
      <trkpt lat="45.96215" lon="4.77931">
        <ele>199</ele>
        <time>2016-11-05T09:42:23Z</time>
      </trkpt>
      <trkpt lat="45.96219" lon="4.77936">
        <ele>200</ele>
        <time>2016-11-05T09:42:24Z</time>
      </trkpt>
      <trkpt lat="45.96222" lon="4.77941">
        <ele>200</ele>
        <time>2016-11-05T09:42:25Z</time>
      </trkpt>
      <trkpt lat="45.96226" lon="4.77946">
        <ele>200</ele>
        <time>2016-11-05T09:42:26Z</time>
      </trkpt>
      <trkpt lat="45.9623" lon="4.7795">
        <ele>199</ele>
        <time>2016-11-05T09:42:27Z</time>
      </trkpt>
      <trkpt lat="45.96234" lon="4.77954">
        <ele>199</ele>
        <time>2016-11-05T09:42:28Z</time>
      </trkpt>
      <trkpt lat="45.96239" lon="4.77958">
        <ele>199</ele>
        <time>2016-11-05T09:42:29Z</time>
      </trkpt>
      <trkpt lat="45.96243" lon="4.77962">
        <ele>199</ele>
        <time>2016-11-05T09:42:30Z</time>
      </trkpt>
      <trkpt lat="45.96247" lon="4.77966">
        <ele>199</ele>
        <time>2016-11-05T09:42:31Z</time>
      </trkpt>
      <trkpt lat="45.96252" lon="4.7797">
        <ele>203</ele>
        <time>2016-11-05T09:42:32Z</time>
      </trkpt>
      <trkpt lat="45.96256" lon="4.77974">
        <ele>203</ele>
        <time>2016-11-05T09:42:33Z</time>
      </trkpt>
      <trkpt lat="45.96261" lon="4.77977">
        <ele>203</ele>
        <time>2016-11-05T09:42:34Z</time>
      </trkpt>
      <trkpt lat="45.96265" lon="4.77981">
        <ele>202</ele>
        <time>2016-11-05T09:42:35Z</time>
      </trkpt>
      <trkpt lat="45.9627" lon="4.77985">
        <ele>203</ele>
        <time>2016-11-05T09:42:36Z</time>
      </trkpt>
      <trkpt lat="45.96274" lon="4.77989">
        <ele>203</ele>
        <time>2016-11-05T09:42:37Z</time>
      </trkpt>
      <trkpt lat="45.96279" lon="4.77993">
        <ele>203</ele>
        <time>2016-11-05T09:42:38Z</time>
      </trkpt>
      <trkpt lat="45.96284" lon="4.77997">
        <ele>203</ele>
        <time>2016-11-05T09:42:39Z</time>
      </trkpt>
      <trkpt lat="45.96289" lon="4.78002">
        <ele>199</ele>
        <time>2016-11-05T09:42:40Z</time>
      </trkpt>
      <trkpt lat="45.96294" lon="4.78006">
        <ele>199</ele>
        <time>2016-11-05T09:42:41Z</time>
      </trkpt>
      <trkpt lat="45.96298" lon="4.78011">
        <ele>199</ele>
        <time>2016-11-05T09:42:42Z</time>
      </trkpt>
      <trkpt lat="45.96303" lon="4.78016">
        <ele>200</ele>
        <time>2016-11-05T09:42:43Z</time>
      </trkpt>
      <trkpt lat="45.96308" lon="4.78021">
        <ele>200</ele>
        <time>2016-11-05T09:42:44Z</time>
      </trkpt>
      <trkpt lat="45.96313" lon="4.78026">
        <ele>200</ele>
        <time>2016-11-05T09:42:45Z</time>
      </trkpt>
      <trkpt lat="45.96317" lon="4.78031">
        <ele>200</ele>
        <time>2016-11-05T09:42:46Z</time>
      </trkpt>
      <trkpt lat="45.96321" lon="4.78037">
        <ele>200</ele>
        <time>2016-11-05T09:42:47Z</time>
      </trkpt>
      <trkpt lat="45.96325" lon="4.78042">
        <ele>199</ele>
        <time>2016-11-05T09:42:48Z</time>
      </trkpt>
      <trkpt lat="45.96329" lon="4.78047">
        <ele>199</ele>
        <time>2016-11-05T09:42:49Z</time>
      </trkpt>
      <trkpt lat="45.96333" lon="4.78053">
        <ele>199</ele>
        <time>2016-11-05T09:42:50Z</time>
      </trkpt>
      <trkpt lat="45.96338" lon="4.78059">
        <ele>202</ele>
        <time>2016-11-05T09:42:51Z</time>
      </trkpt>
      <trkpt lat="45.96343" lon="4.78064">
        <ele>202</ele>
        <time>2016-11-05T09:42:52Z</time>
      </trkpt>
      <trkpt lat="45.96347" lon="4.78069">
        <ele>201</ele>
        <time>2016-11-05T09:42:53Z</time>
      </trkpt>
      <trkpt lat="45.96352" lon="4.78074">
        <ele>201</ele>
        <time>2016-11-05T09:42:54Z</time>
      </trkpt>
      <trkpt lat="45.96357" lon="4.78079">
        <ele>202</ele>
        <time>2016-11-05T09:42:55Z</time>
      </trkpt>
      <trkpt lat="45.96361" lon="4.78084">
        <ele>199</ele>
        <time>2016-11-05T09:42:56Z</time>
      </trkpt>
      <trkpt lat="45.96365" lon="4.78089">
        <ele>199</ele>
        <time>2016-11-05T09:42:57Z</time>
      </trkpt>
      <trkpt lat="45.96369" lon="4.78092">
        <ele>199</ele>
        <time>2016-11-05T09:42:58Z</time>
      </trkpt>
      <trkpt lat="45.96373" lon="4.78096">
        <ele>200</ele>
        <time>2016-11-05T09:42:59Z</time>
      </trkpt>
      <trkpt lat="45.96377" lon="4.78099">
        <ele>200</ele>
        <time>2016-11-05T09:43:00Z</time>
      </trkpt>
      <trkpt lat="45.96381" lon="4.78103">
        <ele>200</ele>
        <time>2016-11-05T09:43:01Z</time>
      </trkpt>
      <trkpt lat="45.96385" lon="4.78106">
        <ele>200</ele>
        <time>2016-11-05T09:43:02Z</time>
      </trkpt>
      <trkpt lat="45.96389" lon="4.7811">
        <ele>200</ele>
        <time>2016-11-05T09:43:03Z</time>
      </trkpt>
      <trkpt lat="45.96393" lon="4.78114">
        <ele>200</ele>
        <time>2016-11-05T09:43:04Z</time>
      </trkpt>
      <trkpt lat="45.96397" lon="4.78118">
        <ele>200</ele>
        <time>2016-11-05T09:43:05Z</time>
      </trkpt>
      <trkpt lat="45.96401" lon="4.78122">
        <ele>200</ele>
        <time>2016-11-05T09:43:06Z</time>
      </trkpt>
      <trkpt lat="45.96406" lon="4.78126">
        <ele>200</ele>
        <time>2016-11-05T09:43:07Z</time>
      </trkpt>
      <trkpt lat="45.9641" lon="4.7813">
        <ele>199</ele>
        <time>2016-11-05T09:43:08Z</time>
      </trkpt>
      <trkpt lat="45.96414" lon="4.78134">
        <ele>199</ele>
        <time>2016-11-05T09:43:09Z</time>
      </trkpt>
      <trkpt lat="45.96418" lon="4.78139">
        <ele>203</ele>
        <time>2016-11-05T09:43:10Z</time>
      </trkpt>
      <trkpt lat="45.96422" lon="4.78143">
        <ele>203</ele>
        <time>2016-11-05T09:43:11Z</time>
      </trkpt>
      <trkpt lat="45.96427" lon="4.78148">
        <ele>202</ele>
        <time>2016-11-05T09:43:12Z</time>
      </trkpt>
      <trkpt lat="45.96431" lon="4.78152">
        <ele>202</ele>
        <time>2016-11-05T09:43:13Z</time>
      </trkpt>
      <trkpt lat="45.96436" lon="4.78156">
        <ele>202</ele>
        <time>2016-11-05T09:43:14Z</time>
      </trkpt>
      <trkpt lat="45.9644" lon="4.7816">
        <ele>203</ele>
        <time>2016-11-05T09:43:15Z</time>
      </trkpt>
      <trkpt lat="45.96444" lon="4.78165">
        <ele>203</ele>
        <time>2016-11-05T09:43:16Z</time>
      </trkpt>
      <trkpt lat="45.96449" lon="4.78169">
        <ele>199</ele>
        <time>2016-11-05T09:43:17Z</time>
      </trkpt>
      <trkpt lat="45.96453" lon="4.78173">
        <ele>200</ele>
        <time>2016-11-05T09:43:18Z</time>
      </trkpt>
      <trkpt lat="45.96458" lon="4.78177">
        <ele>200</ele>
        <time>2016-11-05T09:43:19Z</time>
      </trkpt>
      <trkpt lat="45.96463" lon="4.78179">
        <ele>200</ele>
        <time>2016-11-05T09:43:20Z</time>
      </trkpt>
      <trkpt lat="45.96467" lon="4.78183">
        <ele>200</ele>
        <time>2016-11-05T09:43:21Z</time>
      </trkpt>
      <trkpt lat="45.96471" lon="4.78187">
        <ele>200</ele>
        <time>2016-11-05T09:43:22Z</time>
      </trkpt>
      <trkpt lat="45.96475" lon="4.78189">
        <ele>200</ele>
        <time>2016-11-05T09:43:23Z</time>
      </trkpt>
      <trkpt lat="45.9648" lon="4.78191">
        <ele>201</ele>
        <time>2016-11-05T09:43:24Z</time>
      </trkpt>
      <trkpt lat="45.96486" lon="4.78193">
        <ele>201</ele>
        <time>2016-11-05T09:43:25Z</time>
      </trkpt>
      <trkpt lat="45.9649" lon="4.78195">
        <ele>201</ele>
        <time>2016-11-05T09:43:26Z</time>
      </trkpt>
      <trkpt lat="45.96493" lon="4.78196">
        <ele>201</ele>
        <time>2016-11-05T09:43:27Z</time>
      </trkpt>
      <trkpt lat="45.96499" lon="4.782">
        <ele>200</ele>
        <time>2016-11-05T09:43:28Z</time>
      </trkpt>
      <trkpt lat="45.96506" lon="4.78205">
        <ele>205</ele>
        <time>2016-11-05T09:43:29Z</time>
      </trkpt>
      <trkpt lat="45.96511" lon="4.78211">
        <ele>205</ele>
        <time>2016-11-05T09:43:30Z</time>
      </trkpt>
      <trkpt lat="45.96515" lon="4.78217">
        <ele>205</ele>
        <time>2016-11-05T09:43:31Z</time>
      </trkpt>
      <trkpt lat="45.9652" lon="4.78223">
        <ele>205</ele>
        <time>2016-11-05T09:43:32Z</time>
      </trkpt>
      <trkpt lat="45.96523" lon="4.78229">
        <ele>204</ele>
        <time>2016-11-05T09:43:33Z</time>
      </trkpt>
      <trkpt lat="45.96527" lon="4.78234">
        <ele>204</ele>
        <time>2016-11-05T09:43:34Z</time>
      </trkpt>
      <trkpt lat="45.9653" lon="4.7824">
        <ele>204</ele>
        <time>2016-11-05T09:43:35Z</time>
      </trkpt>
      <trkpt lat="45.96534" lon="4.78246">
        <ele>204</ele>
        <time>2016-11-05T09:43:36Z</time>
      </trkpt>
      <trkpt lat="45.96537" lon="4.78252">
        <ele>200</ele>
        <time>2016-11-05T09:43:37Z</time>
      </trkpt>
      <trkpt lat="45.9654" lon="4.78258">
        <ele>200</ele>
        <time>2016-11-05T09:43:38Z</time>
      </trkpt>
      <trkpt lat="45.96547" lon="4.78267">
        <ele>200</ele>
        <time>2016-11-05T09:43:40Z</time>
      </trkpt>
      <trkpt lat="45.96551" lon="4.78272">
        <ele>201</ele>
        <time>2016-11-05T09:43:41Z</time>
      </trkpt>
      <trkpt lat="45.96556" lon="4.78277">
        <ele>201</ele>
        <time>2016-11-05T09:43:42Z</time>
      </trkpt>
      <trkpt lat="45.9656" lon="4.78282">
        <ele>201</ele>
        <time>2016-11-05T09:43:43Z</time>
      </trkpt>
      <trkpt lat="45.96564" lon="4.78287">
        <ele>200</ele>
        <time>2016-11-05T09:43:44Z</time>
      </trkpt>
      <trkpt lat="45.96567" lon="4.78291">
        <ele>200</ele>
        <time>2016-11-05T09:43:45Z</time>
      </trkpt>
      <trkpt lat="45.96571" lon="4.78295">
        <ele>200</ele>
        <time>2016-11-05T09:43:46Z</time>
      </trkpt>
      <trkpt lat="45.96574" lon="4.78301">
        <ele>200</ele>
        <time>2016-11-05T09:43:47Z</time>
      </trkpt>
      <trkpt lat="45.96578" lon="4.78305">
        <ele>200</ele>
        <time>2016-11-05T09:43:48Z</time>
      </trkpt>
      <trkpt lat="45.96582" lon="4.7831">
        <ele>199</ele>
        <time>2016-11-05T09:43:49Z</time>
      </trkpt>
      <trkpt lat="45.96586" lon="4.78313">
        <ele>203</ele>
        <time>2016-11-05T09:43:50Z</time>
      </trkpt>
      <trkpt lat="45.9659" lon="4.78317">
        <ele>202</ele>
        <time>2016-11-05T09:43:51Z</time>
      </trkpt>
      <trkpt lat="45.96594" lon="4.78321">
        <ele>202</ele>
        <time>2016-11-05T09:43:52Z</time>
      </trkpt>
      <trkpt lat="45.96598" lon="4.78325">
        <ele>202</ele>
        <time>2016-11-05T09:43:53Z</time>
      </trkpt>
      <trkpt lat="45.96602" lon="4.78329">
        <ele>203</ele>
        <time>2016-11-05T09:43:54Z</time>
      </trkpt>
      <trkpt lat="45.96606" lon="4.78333">
        <ele>203</ele>
        <time>2016-11-05T09:43:55Z</time>
      </trkpt>
      <trkpt lat="45.9661" lon="4.78338">
        <ele>200</ele>
        <time>2016-11-05T09:43:56Z</time>
      </trkpt>
      <trkpt lat="45.96613" lon="4.78342">
        <ele>200</ele>
        <time>2016-11-05T09:43:57Z</time>
      </trkpt>
      <trkpt lat="45.96618" lon="4.78346">
        <ele>201</ele>
        <time>2016-11-05T09:43:58Z</time>
      </trkpt>
      <trkpt lat="45.96622" lon="4.7835">
        <ele>201</ele>
        <time>2016-11-05T09:43:59Z</time>
      </trkpt>
      <trkpt lat="45.96626" lon="4.78353">
        <ele>201</ele>
        <time>2016-11-05T09:44:00Z</time>
      </trkpt>
      <trkpt lat="45.9663" lon="4.78357">
        <ele>201</ele>
        <time>2016-11-05T09:44:01Z</time>
      </trkpt>
      <trkpt lat="45.96634" lon="4.78362">
        <ele>201</ele>
        <time>2016-11-05T09:44:02Z</time>
      </trkpt>
      <trkpt lat="45.96639" lon="4.78367">
        <ele>201</ele>
        <time>2016-11-05T09:44:03Z</time>
      </trkpt>
      <trkpt lat="45.96644" lon="4.78371">
        <ele>201</ele>
        <time>2016-11-05T09:44:04Z</time>
      </trkpt>
      <trkpt lat="45.96648" lon="4.78376">
        <ele>201</ele>
        <time>2016-11-05T09:44:05Z</time>
      </trkpt>
      <trkpt lat="45.96653" lon="4.7838">
        <ele>201</ele>
        <time>2016-11-05T09:44:06Z</time>
      </trkpt>
      <trkpt lat="45.96657" lon="4.78384">
        <ele>201</ele>
        <time>2016-11-05T09:44:07Z</time>
      </trkpt>
      <trkpt lat="45.96662" lon="4.78388">
        <ele>201</ele>
        <time>2016-11-05T09:44:08Z</time>
      </trkpt>
      <trkpt lat="45.96665" lon="4.78392">
        <ele>201</ele>
        <time>2016-11-05T09:44:09Z</time>
      </trkpt>
      <trkpt lat="45.96669" lon="4.78396">
        <ele>204</ele>
        <time>2016-11-05T09:44:10Z</time>
      </trkpt>
      <trkpt lat="45.96673" lon="4.784">
        <ele>204</ele>
        <time>2016-11-05T09:44:11Z</time>
      </trkpt>
      <trkpt lat="45.96677" lon="4.78405">
        <ele>204</ele>
        <time>2016-11-05T09:44:12Z</time>
      </trkpt>
      <trkpt lat="45.96681" lon="4.78409">
        <ele>204</ele>
        <time>2016-11-05T09:44:13Z</time>
      </trkpt>
      <trkpt lat="45.96686" lon="4.78413">
        <ele>204</ele>
        <time>2016-11-05T09:44:14Z</time>
      </trkpt>
      <trkpt lat="45.9669" lon="4.78417">
        <ele>202</ele>
        <time>2016-11-05T09:44:15Z</time>
      </trkpt>
      <trkpt lat="45.96694" lon="4.78421">
        <ele>202</ele>
        <time>2016-11-05T09:44:16Z</time>
      </trkpt>
      <trkpt lat="45.96698" lon="4.78424">
        <ele>203</ele>
        <time>2016-11-05T09:44:17Z</time>
      </trkpt>
      <trkpt lat="45.96702" lon="4.78428">
        <ele>203</ele>
        <time>2016-11-05T09:44:18Z</time>
      </trkpt>
      <trkpt lat="45.96706" lon="4.78432">
        <ele>203</ele>
        <time>2016-11-05T09:44:19Z</time>
      </trkpt>
      <trkpt lat="45.9671" lon="4.78437">
        <ele>203</ele>
        <time>2016-11-05T09:44:20Z</time>
      </trkpt>
      <trkpt lat="45.96714" lon="4.78442">
        <ele>203</ele>
        <time>2016-11-05T09:44:21Z</time>
      </trkpt>
      <trkpt lat="45.96718" lon="4.78447">
        <ele>203</ele>
        <time>2016-11-05T09:44:22Z</time>
      </trkpt>
      <trkpt lat="45.96723" lon="4.78452">
        <ele>203</ele>
        <time>2016-11-05T09:44:23Z</time>
      </trkpt>
      <trkpt lat="45.96728" lon="4.78455">
        <ele>203</ele>
        <time>2016-11-05T09:44:24Z</time>
      </trkpt>
      <trkpt lat="45.96733" lon="4.7846">
        <ele>203</ele>
        <time>2016-11-05T09:44:25Z</time>
      </trkpt>
      <trkpt lat="45.96738" lon="4.78465">
        <ele>203</ele>
        <time>2016-11-05T09:44:26Z</time>
      </trkpt>
      <trkpt lat="45.96743" lon="4.78469">
        <ele>203</ele>
        <time>2016-11-05T09:44:27Z</time>
      </trkpt>
      <trkpt lat="45.96747" lon="4.78473">
        <ele>203</ele>
        <time>2016-11-05T09:44:28Z</time>
      </trkpt>
      <trkpt lat="45.96752" lon="4.78477">
        <ele>205</ele>
        <time>2016-11-05T09:44:29Z</time>
      </trkpt>
      <trkpt lat="45.96757" lon="4.78482">
        <ele>205</ele>
        <time>2016-11-05T09:44:30Z</time>
      </trkpt>
      <trkpt lat="45.96761" lon="4.78487">
        <ele>205</ele>
        <time>2016-11-05T09:44:31Z</time>
      </trkpt>
      <trkpt lat="45.96765" lon="4.78493">
        <ele>205</ele>
        <time>2016-11-05T09:44:32Z</time>
      </trkpt>
      <trkpt lat="45.96769" lon="4.78499">
        <ele>205</ele>
        <time>2016-11-05T09:44:33Z</time>
      </trkpt>
      <trkpt lat="45.96772" lon="4.78505">
        <ele>203</ele>
        <time>2016-11-05T09:44:34Z</time>
      </trkpt>
      <trkpt lat="45.96776" lon="4.78511">
        <ele>203</ele>
        <time>2016-11-05T09:44:35Z</time>
      </trkpt>
      <trkpt lat="45.96779" lon="4.78517">
        <ele>203</ele>
        <time>2016-11-05T09:44:36Z</time>
      </trkpt>
      <trkpt lat="45.96783" lon="4.78523">
        <ele>203</ele>
        <time>2016-11-05T09:44:37Z</time>
      </trkpt>
      <trkpt lat="45.96786" lon="4.78528">
        <ele>203</ele>
        <time>2016-11-05T09:44:38Z</time>
      </trkpt>
      <trkpt lat="45.9679" lon="4.78533">
        <ele>203</ele>
        <time>2016-11-05T09:44:39Z</time>
      </trkpt>
      <trkpt lat="45.96794" lon="4.78539">
        <ele>203</ele>
        <time>2016-11-05T09:44:40Z</time>
      </trkpt>
      <trkpt lat="45.96797" lon="4.78545">
        <ele>203</ele>
        <time>2016-11-05T09:44:41Z</time>
      </trkpt>
      <trkpt lat="45.968" lon="4.78551">
        <ele>203</ele>
        <time>2016-11-05T09:44:42Z</time>
      </trkpt>
      <trkpt lat="45.96804" lon="4.78557">
        <ele>203</ele>
        <time>2016-11-05T09:44:43Z</time>
      </trkpt>
      <trkpt lat="45.96808" lon="4.78562">
        <ele>203</ele>
        <time>2016-11-05T09:44:44Z</time>
      </trkpt>
      <trkpt lat="45.96812" lon="4.78568">
        <ele>203</ele>
        <time>2016-11-05T09:44:45Z</time>
      </trkpt>
      <trkpt lat="45.96815" lon="4.78573">
        <ele>203</ele>
        <time>2016-11-05T09:44:46Z</time>
      </trkpt>
      <trkpt lat="45.96818" lon="4.78578">
        <ele>203</ele>
        <time>2016-11-05T09:44:47Z</time>
      </trkpt>
      <trkpt lat="45.96821" lon="4.78583">
        <ele>203</ele>
        <time>2016-11-05T09:44:48Z</time>
      </trkpt>
      <trkpt lat="45.96824" lon="4.78589">
        <ele>202</ele>
        <time>2016-11-05T09:44:49Z</time>
      </trkpt>
      <trkpt lat="45.96826" lon="4.78596">
        <ele>202</ele>
        <time>2016-11-05T09:44:50Z</time>
      </trkpt>
      <trkpt lat="45.96828" lon="4.78603">
        <ele>202</ele>
        <time>2016-11-05T09:44:51Z</time>
      </trkpt>
      <trkpt lat="45.9683" lon="4.7861">
        <ele>202</ele>
        <time>2016-11-05T09:44:52Z</time>
      </trkpt>
      <trkpt lat="45.96832" lon="4.78617">
        <ele>202</ele>
        <time>2016-11-05T09:44:53Z</time>
      </trkpt>
      <trkpt lat="45.96834" lon="4.78625">
        <ele>203</ele>
        <time>2016-11-05T09:44:54Z</time>
      </trkpt>
      <trkpt lat="45.96837" lon="4.78632">
        <ele>203</ele>
        <time>2016-11-05T09:44:55Z</time>
      </trkpt>
      <trkpt lat="45.9684" lon="4.78638">
        <ele>203</ele>
        <time>2016-11-05T09:44:56Z</time>
      </trkpt>
      <trkpt lat="45.96844" lon="4.78644">
        <ele>203</ele>
        <time>2016-11-05T09:44:57Z</time>
      </trkpt>
      <trkpt lat="45.96846" lon="4.7865">
        <ele>203</ele>
        <time>2016-11-05T09:44:58Z</time>
      </trkpt>
      <trkpt lat="45.9685" lon="4.78654">
        <ele>203</ele>
        <time>2016-11-05T09:44:59Z</time>
      </trkpt>
      <trkpt lat="45.96854" lon="4.7866">
        <ele>203</ele>
        <time>2016-11-05T09:45:00Z</time>
      </trkpt>
      <trkpt lat="45.96857" lon="4.78666">
        <ele>203</ele>
        <time>2016-11-05T09:45:01Z</time>
      </trkpt>
      <trkpt lat="45.9686" lon="4.78671">
        <ele>202</ele>
        <time>2016-11-05T09:45:02Z</time>
      </trkpt>
      <trkpt lat="45.96862" lon="4.78678">
        <ele>202</ele>
        <time>2016-11-05T09:45:03Z</time>
      </trkpt>
      <trkpt lat="45.96865" lon="4.78684">
        <ele>202</ele>
        <time>2016-11-05T09:45:04Z</time>
      </trkpt>
      <trkpt lat="45.96869" lon="4.7869">
        <ele>202</ele>
        <time>2016-11-05T09:45:05Z</time>
      </trkpt>
      <trkpt lat="45.96872" lon="4.78697">
        <ele>202</ele>
        <time>2016-11-05T09:45:06Z</time>
      </trkpt>
      <trkpt lat="45.96876" lon="4.78706">
        <ele>202</ele>
        <time>2016-11-05T09:45:07Z</time>
      </trkpt>
      <trkpt lat="45.9688" lon="4.78715">
        <ele>202</ele>
        <time>2016-11-05T09:45:08Z</time>
      </trkpt>
      <trkpt lat="45.96883" lon="4.78722">
        <ele>202</ele>
        <time>2016-11-05T09:45:09Z</time>
      </trkpt>
      <trkpt lat="45.96887" lon="4.78729">
        <ele>202</ele>
        <time>2016-11-05T09:45:10Z</time>
      </trkpt>
      <trkpt lat="45.9689" lon="4.78734">
        <ele>202</ele>
        <time>2016-11-05T09:45:11Z</time>
      </trkpt>
      <trkpt lat="45.96893" lon="4.7874">
        <ele>202</ele>
        <time>2016-11-05T09:45:12Z</time>
      </trkpt>
      <trkpt lat="45.96896" lon="4.78746">
        <ele>202</ele>
        <time>2016-11-05T09:45:13Z</time>
      </trkpt>
      <trkpt lat="45.96898" lon="4.78753">
        <ele>202</ele>
        <time>2016-11-05T09:45:14Z</time>
      </trkpt>
      <trkpt lat="45.96899" lon="4.78759">
        <ele>201</ele>
        <time>2016-11-05T09:45:15Z</time>
      </trkpt>
      <trkpt lat="45.96901" lon="4.78765">
        <ele>201</ele>
        <time>2016-11-05T09:45:16Z</time>
      </trkpt>
      <trkpt lat="45.96904" lon="4.78771">
        <ele>201</ele>
        <time>2016-11-05T09:45:17Z</time>
      </trkpt>
      <trkpt lat="45.96907" lon="4.78776">
        <ele>201</ele>
        <time>2016-11-05T09:45:18Z</time>
      </trkpt>
      <trkpt lat="45.96909" lon="4.78782">
        <ele>201</ele>
        <time>2016-11-05T09:45:19Z</time>
      </trkpt>
      <trkpt lat="45.96912" lon="4.78788">
        <ele>201</ele>
        <time>2016-11-05T09:45:20Z</time>
      </trkpt>
      <trkpt lat="45.96915" lon="4.78794">
        <ele>201</ele>
        <time>2016-11-05T09:45:21Z</time>
      </trkpt>
      <trkpt lat="45.96918" lon="4.78799">
        <ele>203</ele>
        <time>2016-11-05T09:45:22Z</time>
      </trkpt>
      <trkpt lat="45.96922" lon="4.78805">
        <ele>203</ele>
        <time>2016-11-05T09:45:23Z</time>
      </trkpt>
      <trkpt lat="45.96925" lon="4.78811">
        <ele>202</ele>
        <time>2016-11-05T09:45:24Z</time>
      </trkpt>
      <trkpt lat="45.96928" lon="4.78817">
        <ele>202</ele>
        <time>2016-11-05T09:45:25Z</time>
      </trkpt>
      <trkpt lat="45.96932" lon="4.78822">
        <ele>202</ele>
        <time>2016-11-05T09:45:26Z</time>
      </trkpt>
      <trkpt lat="45.96935" lon="4.78828">
        <ele>202</ele>
        <time>2016-11-05T09:45:27Z</time>
      </trkpt>
      <trkpt lat="45.96938" lon="4.78833">
        <ele>202</ele>
        <time>2016-11-05T09:45:28Z</time>
      </trkpt>
      <trkpt lat="45.96942" lon="4.78838">
        <ele>202</ele>
        <time>2016-11-05T09:45:29Z</time>
      </trkpt>
      <trkpt lat="45.96946" lon="4.78843">
        <ele>202</ele>
        <time>2016-11-05T09:45:30Z</time>
      </trkpt>
      <trkpt lat="45.9695" lon="4.78848">
        <ele>202</ele>
        <time>2016-11-05T09:45:31Z</time>
      </trkpt>
      <trkpt lat="45.96954" lon="4.78853">
        <ele>203</ele>
        <time>2016-11-05T09:45:32Z</time>
      </trkpt>
      <trkpt lat="45.96958" lon="4.78857">
        <ele>203</ele>
        <time>2016-11-05T09:45:33Z</time>
      </trkpt>
      <trkpt lat="45.96962" lon="4.78862">
        <ele>203</ele>
        <time>2016-11-05T09:45:34Z</time>
      </trkpt>
      <trkpt lat="45.96966" lon="4.78867">
        <ele>203</ele>
        <time>2016-11-05T09:45:35Z</time>
      </trkpt>
      <trkpt lat="45.9697" lon="4.78871">
        <ele>203</ele>
        <time>2016-11-05T09:45:36Z</time>
      </trkpt>
      <trkpt lat="45.96974" lon="4.78876">
        <ele>203</ele>
        <time>2016-11-05T09:45:37Z</time>
      </trkpt>
      <trkpt lat="45.96979" lon="4.78881">
        <ele>203</ele>
        <time>2016-11-05T09:45:38Z</time>
      </trkpt>
      <trkpt lat="45.96982" lon="4.78886">
        <ele>203</ele>
        <time>2016-11-05T09:45:39Z</time>
      </trkpt>
      <trkpt lat="45.96985" lon="4.78891">
        <ele>203</ele>
        <time>2016-11-05T09:45:40Z</time>
      </trkpt>
      <trkpt lat="45.96988" lon="4.78897">
        <ele>203</ele>
        <time>2016-11-05T09:45:41Z</time>
      </trkpt>
      <trkpt lat="45.96993" lon="4.78901">
        <ele>203</ele>
        <time>2016-11-05T09:45:42Z</time>
      </trkpt>
      <trkpt lat="45.96999" lon="4.78905">
        <ele>204</ele>
        <time>2016-11-05T09:45:43Z</time>
      </trkpt>
      <trkpt lat="45.97002" lon="4.7891">
        <ele>205</ele>
        <time>2016-11-05T09:45:44Z</time>
      </trkpt>
      <trkpt lat="45.97007" lon="4.78914">
        <ele>205</ele>
        <time>2016-11-05T09:45:45Z</time>
      </trkpt>
      <trkpt lat="45.97012" lon="4.78916">
        <ele>206</ele>
        <time>2016-11-05T09:45:46Z</time>
      </trkpt>
      <trkpt lat="45.97016" lon="4.78921">
        <ele>205</ele>
        <time>2016-11-05T09:45:47Z</time>
      </trkpt>
      <trkpt lat="45.9702" lon="4.78927">
        <ele>205</ele>
        <time>2016-11-05T09:45:48Z</time>
      </trkpt>
      <trkpt lat="45.97024" lon="4.78933">
        <ele>205</ele>
        <time>2016-11-05T09:45:49Z</time>
      </trkpt>
      <trkpt lat="45.97026" lon="4.78939">
        <ele>205</ele>
        <time>2016-11-05T09:45:50Z</time>
      </trkpt>
      <trkpt lat="45.97029" lon="4.78945">
        <ele>205</ele>
        <time>2016-11-05T09:45:51Z</time>
      </trkpt>
      <trkpt lat="45.97032" lon="4.78951">
        <ele>205</ele>
        <time>2016-11-05T09:45:52Z</time>
      </trkpt>
      <trkpt lat="45.97034" lon="4.78957">
        <ele>205</ele>
        <time>2016-11-05T09:45:53Z</time>
      </trkpt>
      <trkpt lat="45.97038" lon="4.78961">
        <ele>205</ele>
        <time>2016-11-05T09:45:54Z</time>
      </trkpt>
      <trkpt lat="45.97038" lon="4.78968">
        <ele>205</ele>
        <time>2016-11-05T09:45:55Z</time>
      </trkpt>
      <trkpt lat="45.97042" lon="4.78973">
        <ele>205</ele>
        <time>2016-11-05T09:45:56Z</time>
      </trkpt>
      <trkpt lat="45.97046" lon="4.78984">
        <ele>205</ele>
        <time>2016-11-05T09:45:58Z</time>
      </trkpt>
      <trkpt lat="45.97047" lon="4.7899">
        <ele>205</ele>
        <time>2016-11-05T09:45:59Z</time>
      </trkpt>
      <trkpt lat="45.97049" lon="4.79">
        <ele>203</ele>
        <time>2016-11-05T09:46:01Z</time>
      </trkpt>
      <trkpt lat="45.9705" lon="4.79008">
        <ele>203</ele>
        <time>2016-11-05T09:46:02Z</time>
      </trkpt>
      <trkpt lat="45.97052" lon="4.79016">
        <ele>203</ele>
        <time>2016-11-05T09:46:03Z</time>
      </trkpt>
      <trkpt lat="45.97061" lon="4.79038">
        <ele>203</ele>
        <time>2016-11-05T09:46:06Z</time>
      </trkpt>
      <trkpt lat="45.97065" lon="4.79046">
        <ele>203</ele>
        <time>2016-11-05T09:46:07Z</time>
      </trkpt>
      <trkpt lat="45.97067" lon="4.79054">
        <ele>203</ele>
        <time>2016-11-05T09:46:08Z</time>
      </trkpt>
      <trkpt lat="45.97069" lon="4.79061">
        <ele>203</ele>
        <time>2016-11-05T09:46:09Z</time>
      </trkpt>
      <trkpt lat="45.97072" lon="4.79074">
        <ele>204</ele>
        <time>2016-11-05T09:46:11Z</time>
      </trkpt>
      <trkpt lat="45.97074" lon="4.79088">
        <ele>204</ele>
        <time>2016-11-05T09:46:13Z</time>
      </trkpt>
      <trkpt lat="45.97079" lon="4.79103">
        <ele>204</ele>
        <time>2016-11-05T09:46:15Z</time>
      </trkpt>
      <trkpt lat="45.97081" lon="4.79109">
        <ele>204</ele>
        <time>2016-11-05T09:46:16Z</time>
      </trkpt>
      <trkpt lat="45.97084" lon="4.79116">
        <ele>206</ele>
        <time>2016-11-05T09:46:17Z</time>
      </trkpt>
      <trkpt lat="45.97087" lon="4.79122">
        <ele>206</ele>
        <time>2016-11-05T09:46:18Z</time>
      </trkpt>
      <trkpt lat="45.97101" lon="4.79145">
        <ele>206</ele>
        <time>2016-11-05T09:46:22Z</time>
      </trkpt>
      <trkpt lat="45.97105" lon="4.79152">
        <ele>206</ele>
        <time>2016-11-05T09:46:23Z</time>
      </trkpt>
      <trkpt lat="45.97109" lon="4.79158">
        <ele>206</ele>
        <time>2016-11-05T09:46:24Z</time>
      </trkpt>
      <trkpt lat="45.97115" lon="4.79171">
        <ele>206</ele>
        <time>2016-11-05T09:46:26Z</time>
      </trkpt>
      <trkpt lat="45.97119" lon="4.79177">
        <ele>206</ele>
        <time>2016-11-05T09:46:27Z</time>
      </trkpt>
      <trkpt lat="45.97122" lon="4.79183">
        <ele>206</ele>
        <time>2016-11-05T09:46:28Z</time>
      </trkpt>
      <trkpt lat="45.97125" lon="4.7919">
        <ele>206</ele>
        <time>2016-11-05T09:46:29Z</time>
      </trkpt>
      <trkpt lat="45.97128" lon="4.79195">
        <ele>206</ele>
        <time>2016-11-05T09:46:30Z</time>
      </trkpt>
      <trkpt lat="45.9714" lon="4.7922">
        <ele>206</ele>
        <time>2016-11-05T09:46:34Z</time>
      </trkpt>
      <trkpt lat="45.97142" lon="4.79226">
        <ele>205</ele>
        <time>2016-11-05T09:46:35Z</time>
      </trkpt>
      <trkpt lat="45.97144" lon="4.79235">
        <ele>205</ele>
        <time>2016-11-05T09:46:36Z</time>
      </trkpt>
      <trkpt lat="45.97149" lon="4.79241">
        <ele>205</ele>
        <time>2016-11-05T09:46:37Z</time>
      </trkpt>
      <trkpt lat="45.97152" lon="4.79247">
        <ele>205</ele>
        <time>2016-11-05T09:46:38Z</time>
      </trkpt>
      <trkpt lat="45.97154" lon="4.79254">
        <ele>205</ele>
        <time>2016-11-05T09:46:39Z</time>
      </trkpt>
      <trkpt lat="45.97157" lon="4.7926">
        <ele>205</ele>
        <time>2016-11-05T09:46:40Z</time>
      </trkpt>
      <trkpt lat="45.97159" lon="4.79266">
        <ele>205</ele>
        <time>2016-11-05T09:46:41Z</time>
      </trkpt>
      <trkpt lat="45.97162" lon="4.79273">
        <ele>204</ele>
        <time>2016-11-05T09:46:42Z</time>
      </trkpt>
      <trkpt lat="45.97164" lon="4.79279">
        <ele>204</ele>
        <time>2016-11-05T09:46:43Z</time>
      </trkpt>
      <trkpt lat="45.97166" lon="4.79286">
        <ele>204</ele>
        <time>2016-11-05T09:46:44Z</time>
      </trkpt>
      <trkpt lat="45.97168" lon="4.79292">
        <ele>207</ele>
        <time>2016-11-05T09:46:45Z</time>
      </trkpt>
      <trkpt lat="45.9717" lon="4.79299">
        <ele>207</ele>
        <time>2016-11-05T09:46:46Z</time>
      </trkpt>
      <trkpt lat="45.97173" lon="4.79305">
        <ele>207</ele>
        <time>2016-11-05T09:46:47Z</time>
      </trkpt>
      <trkpt lat="45.97176" lon="4.79311">
        <ele>207</ele>
        <time>2016-11-05T09:46:48Z</time>
      </trkpt>
      <trkpt lat="45.97178" lon="4.79317">
        <ele>207</ele>
        <time>2016-11-05T09:46:49Z</time>
      </trkpt>
      <trkpt lat="45.97179" lon="4.79323">
        <ele>207</ele>
        <time>2016-11-05T09:46:50Z</time>
      </trkpt>
      <trkpt lat="45.97183" lon="4.79329">
        <ele>207</ele>
        <time>2016-11-05T09:46:51Z</time>
      </trkpt>
      <trkpt lat="45.97187" lon="4.79335">
        <ele>207</ele>
        <time>2016-11-05T09:46:52Z</time>
      </trkpt>
      <trkpt lat="45.97191" lon="4.79346">
        <ele>207</ele>
        <time>2016-11-05T09:46:54Z</time>
      </trkpt>
      <trkpt lat="45.97197" lon="4.79351">
        <ele>207</ele>
        <time>2016-11-05T09:46:55Z</time>
      </trkpt>
      <trkpt lat="45.97196" lon="4.79358">
        <ele>207</ele>
        <time>2016-11-05T09:46:56Z</time>
      </trkpt>
      <trkpt lat="45.97195" lon="4.79365">
        <ele>207</ele>
        <time>2016-11-05T09:46:57Z</time>
      </trkpt>
      <trkpt lat="45.972" lon="4.79371">
        <ele>207</ele>
        <time>2016-11-05T09:46:58Z</time>
      </trkpt>
      <trkpt lat="45.97205" lon="4.79377">
        <ele>208</ele>
        <time>2016-11-05T09:46:59Z</time>
      </trkpt>
      <trkpt lat="45.97209" lon="4.79382">
        <ele>208</ele>
        <time>2016-11-05T09:47:00Z</time>
      </trkpt>
      <trkpt lat="45.97213" lon="4.79387">
        <ele>208</ele>
        <time>2016-11-05T09:47:01Z</time>
      </trkpt>
      <trkpt lat="45.97218" lon="4.79391">
        <ele>208</ele>
        <time>2016-11-05T09:47:02Z</time>
      </trkpt>
      <trkpt lat="45.97224" lon="4.79393">
        <ele>208</ele>
        <time>2016-11-05T09:47:03Z</time>
      </trkpt>
      <trkpt lat="45.97222" lon="4.79401">
        <ele>208</ele>
        <time>2016-11-05T09:47:04Z</time>
      </trkpt>
      <trkpt lat="45.97226" lon="4.79413">
        <ele>208</ele>
        <time>2016-11-05T09:47:06Z</time>
      </trkpt>
      <trkpt lat="45.97227" lon="4.79419">
        <ele>209</ele>
        <time>2016-11-05T09:47:07Z</time>
      </trkpt>
      <trkpt lat="45.97229" lon="4.79425">
        <ele>209</ele>
        <time>2016-11-05T09:47:08Z</time>
      </trkpt>
      <trkpt lat="45.97231" lon="4.79431">
        <ele>209</ele>
        <time>2016-11-05T09:47:09Z</time>
      </trkpt>
      <trkpt lat="45.97233" lon="4.79438">
        <ele>209</ele>
        <time>2016-11-05T09:47:10Z</time>
      </trkpt>
      <trkpt lat="45.97235" lon="4.79444">
        <ele>209</ele>
        <time>2016-11-05T09:47:11Z</time>
      </trkpt>
      <trkpt lat="45.97236" lon="4.7945">
        <ele>209</ele>
        <time>2016-11-05T09:47:12Z</time>
      </trkpt>
      <trkpt lat="45.97238" lon="4.79456">
        <ele>209</ele>
        <time>2016-11-05T09:47:13Z</time>
      </trkpt>
      <trkpt lat="45.9724" lon="4.79462">
        <ele>209</ele>
        <time>2016-11-05T09:47:14Z</time>
      </trkpt>
      <trkpt lat="45.97241" lon="4.79468">
        <ele>209</ele>
        <time>2016-11-05T09:47:15Z</time>
      </trkpt>
      <trkpt lat="45.97241" lon="4.79475">
        <ele>209</ele>
        <time>2016-11-05T09:47:16Z</time>
      </trkpt>
      <trkpt lat="45.97245" lon="4.79487">
        <ele>210</ele>
        <time>2016-11-05T09:47:18Z</time>
      </trkpt>
      <trkpt lat="45.97246" lon="4.79493">
        <ele>210</ele>
        <time>2016-11-05T09:47:19Z</time>
      </trkpt>
      <trkpt lat="45.97247" lon="4.795">
        <ele>211</ele>
        <time>2016-11-05T09:47:20Z</time>
      </trkpt>
      <trkpt lat="45.97252" lon="4.79535">
        <ele>214</ele>
        <time>2016-11-05T09:47:25Z</time>
      </trkpt>
      <trkpt lat="45.97252" lon="4.79542">
        <ele>214</ele>
        <time>2016-11-05T09:47:26Z</time>
      </trkpt>
      <trkpt lat="45.97252" lon="4.79549">
        <ele>214</ele>
        <time>2016-11-05T09:47:27Z</time>
      </trkpt>
      <trkpt lat="45.97253" lon="4.79555">
        <ele>213</ele>
        <time>2016-11-05T09:47:28Z</time>
      </trkpt>
      <trkpt lat="45.97252" lon="4.79562">
        <ele>213</ele>
        <time>2016-11-05T09:47:29Z</time>
      </trkpt>
      <trkpt lat="45.9725" lon="4.79568">
        <ele>210</ele>
        <time>2016-11-05T09:47:30Z</time>
      </trkpt>
      <trkpt lat="45.97247" lon="4.79574">
        <ele>210</ele>
        <time>2016-11-05T09:47:31Z</time>
      </trkpt>
      <trkpt lat="45.97247" lon="4.79581">
        <ele>210</ele>
        <time>2016-11-05T09:47:32Z</time>
      </trkpt>
      <trkpt lat="45.97248" lon="4.7959">
        <ele>210</ele>
        <time>2016-11-05T09:47:33Z</time>
      </trkpt>
      <trkpt lat="45.97251" lon="4.79595">
        <ele>212</ele>
        <time>2016-11-05T09:47:34Z</time>
      </trkpt>
      <trkpt lat="45.97254" lon="4.79602">
        <ele>212</ele>
        <time>2016-11-05T09:47:35Z</time>
      </trkpt>
      <trkpt lat="45.97257" lon="4.79611">
        <ele>213</ele>
        <time>2016-11-05T09:47:36Z</time>
      </trkpt>
      <trkpt lat="45.97258" lon="4.79618">
        <ele>213</ele>
        <time>2016-11-05T09:47:37Z</time>
      </trkpt>
      <trkpt lat="45.97257" lon="4.79625">
        <ele>213</ele>
        <time>2016-11-05T09:47:38Z</time>
      </trkpt>
      <trkpt lat="45.97258" lon="4.79632">
        <ele>213</ele>
        <time>2016-11-05T09:47:39Z</time>
      </trkpt>
      <trkpt lat="45.97258" lon="4.79639">
        <ele>212</ele>
        <time>2016-11-05T09:47:40Z</time>
      </trkpt>
      <trkpt lat="45.97258" lon="4.79646">
        <ele>212</ele>
        <time>2016-11-05T09:47:41Z</time>
      </trkpt>
      <trkpt lat="45.97256" lon="4.79658">
        <ele>210</ele>
        <time>2016-11-05T09:47:43Z</time>
      </trkpt>
      <trkpt lat="45.97255" lon="4.79665">
        <ele>209</ele>
        <time>2016-11-05T09:47:44Z</time>
      </trkpt>
      <trkpt lat="45.97254" lon="4.79672">
        <ele>209</ele>
        <time>2016-11-05T09:47:45Z</time>
      </trkpt>
      <trkpt lat="45.97253" lon="4.79679">
        <ele>210</ele>
        <time>2016-11-05T09:47:46Z</time>
      </trkpt>
      <trkpt lat="45.97251" lon="4.79686">
        <ele>211</ele>
        <time>2016-11-05T09:47:47Z</time>
      </trkpt>
      <trkpt lat="45.9725" lon="4.79693">
        <ele>208</ele>
        <time>2016-11-05T09:47:48Z</time>
      </trkpt>
      <trkpt lat="45.97248" lon="4.79701">
        <ele>208</ele>
        <time>2016-11-05T09:47:49Z</time>
      </trkpt>
      <trkpt lat="45.97247" lon="4.79709">
        <ele>209</ele>
        <time>2016-11-05T09:47:50Z</time>
      </trkpt>
      <trkpt lat="45.97246" lon="4.79716">
        <ele>209</ele>
        <time>2016-11-05T09:47:51Z</time>
      </trkpt>
      <trkpt lat="45.97245" lon="4.79723">
        <ele>209</ele>
        <time>2016-11-05T09:47:52Z</time>
      </trkpt>
      <trkpt lat="45.97244" lon="4.79731">
        <ele>209</ele>
        <time>2016-11-05T09:47:53Z</time>
      </trkpt>
      <trkpt lat="45.97244" lon="4.79738">
        <ele>209</ele>
        <time>2016-11-05T09:47:54Z</time>
      </trkpt>
      <trkpt lat="45.97243" lon="4.79746">
        <ele>209</ele>
        <time>2016-11-05T09:47:55Z</time>
      </trkpt>
      <trkpt lat="45.97242" lon="4.79753">
        <ele>209</ele>
        <time>2016-11-05T09:47:56Z</time>
      </trkpt>
      <trkpt lat="45.97241" lon="4.7976">
        <ele>209</ele>
        <time>2016-11-05T09:47:57Z</time>
      </trkpt>
      <trkpt lat="45.9724" lon="4.79768">
        <ele>210</ele>
        <time>2016-11-05T09:47:58Z</time>
      </trkpt>
      <trkpt lat="45.9724" lon="4.79776">
        <ele>210</ele>
        <time>2016-11-05T09:47:59Z</time>
      </trkpt>
      <trkpt lat="45.97239" lon="4.79782">
        <ele>210</ele>
        <time>2016-11-05T09:48:00Z</time>
      </trkpt>
      <trkpt lat="45.9724" lon="4.79789">
        <ele>210</ele>
        <time>2016-11-05T09:48:01Z</time>
      </trkpt>
      <trkpt lat="45.97239" lon="4.79795">
        <ele>210</ele>
        <time>2016-11-05T09:48:02Z</time>
      </trkpt>
      <trkpt lat="45.97239" lon="4.79807">
        <ele>210</ele>
        <time>2016-11-05T09:48:04Z</time>
      </trkpt>
      <trkpt lat="45.97238" lon="4.79813">
        <ele>211</ele>
        <time>2016-11-05T09:48:05Z</time>
      </trkpt>
      <trkpt lat="45.97238" lon="4.79825">
        <ele>211</ele>
        <time>2016-11-05T09:48:07Z</time>
      </trkpt>
      <trkpt lat="45.97238" lon="4.79832">
        <ele>211</ele>
        <time>2016-11-05T09:48:08Z</time>
      </trkpt>
      <trkpt lat="45.97239" lon="4.79854">
        <ele>211</ele>
        <time>2016-11-05T09:48:11Z</time>
      </trkpt>
      <trkpt lat="45.97239" lon="4.79861">
        <ele>211</ele>
        <time>2016-11-05T09:48:12Z</time>
      </trkpt>
      <trkpt lat="45.9724" lon="4.79867">
        <ele>211</ele>
        <time>2016-11-05T09:48:13Z</time>
      </trkpt>
      <trkpt lat="45.97242" lon="4.79873">
        <ele>211</ele>
        <time>2016-11-05T09:48:14Z</time>
      </trkpt>
      <trkpt lat="45.97251" lon="4.79898">
        <ele>213</ele>
        <time>2016-11-05T09:48:20Z</time>
      </trkpt>
      <trkpt lat="45.97254" lon="4.79909">
        <ele>212</ele>
        <time>2016-11-05T09:48:25Z</time>
      </trkpt>
      <trkpt lat="45.97254" lon="4.79909">
        <ele>212</ele>
        <time>2016-11-05T09:48:26Z</time>
      </trkpt>
      <trkpt lat="45.97254" lon="4.79908">
        <ele>212</ele>
        <time>2016-11-05T09:48:36Z</time>
      </trkpt>
      <trkpt lat="45.97254" lon="4.79909">
        <ele>212</ele>
        <time>2016-11-05T09:48:37Z</time>
      </trkpt>
      <trkpt lat="45.9726" lon="4.79914">
        <ele>213</ele>
        <time>2016-11-05T09:48:40Z</time>
      </trkpt>
      <trkpt lat="45.97263" lon="4.79915">
        <ele>213</ele>
        <time>2016-11-05T09:48:41Z</time>
      </trkpt>
      <trkpt lat="45.9727" lon="4.79914">
        <ele>213</ele>
        <time>2016-11-05T09:48:43Z</time>
      </trkpt>
      <trkpt lat="45.97274" lon="4.79913">
        <ele>213</ele>
        <time>2016-11-05T09:48:44Z</time>
      </trkpt>
      <trkpt lat="45.97283" lon="4.79913">
        <ele>213</ele>
        <time>2016-11-05T09:48:46Z</time>
      </trkpt>
      <trkpt lat="45.97288" lon="4.79908">
        <ele>213</ele>
        <time>2016-11-05T09:48:48Z</time>
      </trkpt>
      <trkpt lat="45.97293" lon="4.79907">
        <ele>213</ele>
        <time>2016-11-05T09:48:49Z</time>
      </trkpt>
      <trkpt lat="45.97299" lon="4.79907">
        <ele>213</ele>
        <time>2016-11-05T09:48:50Z</time>
      </trkpt>
      <trkpt lat="45.97304" lon="4.79907">
        <ele>213</ele>
        <time>2016-11-05T09:48:51Z</time>
      </trkpt>
      <trkpt lat="45.97319" lon="4.79905">
        <ele>213</ele>
        <time>2016-11-05T09:48:54Z</time>
      </trkpt>
      <trkpt lat="45.97324" lon="4.79904">
        <ele>213</ele>
        <time>2016-11-05T09:48:55Z</time>
      </trkpt>
      <trkpt lat="45.97329" lon="4.79904">
        <ele>213</ele>
        <time>2016-11-05T09:48:56Z</time>
      </trkpt>
      <trkpt lat="45.97333" lon="4.79903">
        <ele>213</ele>
        <time>2016-11-05T09:48:57Z</time>
      </trkpt>
      <trkpt lat="45.97347" lon="4.799">
        <ele>216</ele>
        <time>2016-11-05T09:49:00Z</time>
      </trkpt>
      <trkpt lat="45.97355" lon="4.79899">
        <ele>216</ele>
        <time>2016-11-05T09:49:02Z</time>
      </trkpt>
      <trkpt lat="45.9736" lon="4.79898">
        <ele>216</ele>
        <time>2016-11-05T09:49:03Z</time>
      </trkpt>
      <trkpt lat="45.97367" lon="4.79897">
        <ele>217</ele>
        <time>2016-11-05T09:49:05Z</time>
      </trkpt>
      <trkpt lat="45.97378" lon="4.7989">
        <ele>217</ele>
        <time>2016-11-05T09:49:08Z</time>
      </trkpt>
      <trkpt lat="45.97383" lon="4.79889">
        <ele>217</ele>
        <time>2016-11-05T09:49:09Z</time>
      </trkpt>
      <trkpt lat="45.97388" lon="4.7989">
        <ele>217</ele>
        <time>2016-11-05T09:49:10Z</time>
      </trkpt>
      <trkpt lat="45.97393" lon="4.7989">
        <ele>218</ele>
        <time>2016-11-05T09:49:11Z</time>
      </trkpt>
      <trkpt lat="45.97397" lon="4.7989">
        <ele>218</ele>
        <time>2016-11-05T09:49:12Z</time>
      </trkpt>
      <trkpt lat="45.97406" lon="4.79891">
        <ele>218</ele>
        <time>2016-11-05T09:49:14Z</time>
      </trkpt>
      <trkpt lat="45.9741" lon="4.7989">
        <ele>218</ele>
        <time>2016-11-05T09:49:15Z</time>
      </trkpt>
      <trkpt lat="45.97419" lon="4.79891">
        <ele>220</ele>
        <time>2016-11-05T09:49:17Z</time>
      </trkpt>
      <trkpt lat="45.97423" lon="4.79891">
        <ele>220</ele>
        <time>2016-11-05T09:49:18Z</time>
      </trkpt>
      <trkpt lat="45.97432" lon="4.7989">
        <ele>220</ele>
        <time>2016-11-05T09:49:20Z</time>
      </trkpt>
      <trkpt lat="45.97436" lon="4.79889">
        <ele>220</ele>
        <time>2016-11-05T09:49:21Z</time>
      </trkpt>
      <trkpt lat="45.9744" lon="4.79889">
        <ele>220</ele>
        <time>2016-11-05T09:49:22Z</time>
      </trkpt>
      <trkpt lat="45.97445" lon="4.79888">
        <ele>220</ele>
        <time>2016-11-05T09:49:23Z</time>
      </trkpt>
      <trkpt lat="45.97453" lon="4.79888">
        <ele>221</ele>
        <time>2016-11-05T09:49:25Z</time>
      </trkpt>
      <trkpt lat="45.97458" lon="4.79888">
        <ele>221</ele>
        <time>2016-11-05T09:49:26Z</time>
      </trkpt>
      <trkpt lat="45.97466" lon="4.79887">
        <ele>221</ele>
        <time>2016-11-05T09:49:28Z</time>
      </trkpt>
      <trkpt lat="45.9747" lon="4.79887">
        <ele>221</ele>
        <time>2016-11-05T09:49:29Z</time>
      </trkpt>
      <trkpt lat="45.97479" lon="4.79885">
        <ele>221</ele>
        <time>2016-11-05T09:49:31Z</time>
      </trkpt>
      <trkpt lat="45.97483" lon="4.79885">
        <ele>221</ele>
        <time>2016-11-05T09:49:32Z</time>
      </trkpt>
      <trkpt lat="45.97491" lon="4.79885">
        <ele>221</ele>
        <time>2016-11-05T09:49:34Z</time>
      </trkpt>
      <trkpt lat="45.97495" lon="4.79884">
        <ele>221</ele>
        <time>2016-11-05T09:49:35Z</time>
      </trkpt>
      <trkpt lat="45.97504" lon="4.79884">
        <ele>221</ele>
        <time>2016-11-05T09:49:37Z</time>
      </trkpt>
      <trkpt lat="45.97508" lon="4.79884">
        <ele>221</ele>
        <time>2016-11-05T09:49:38Z</time>
      </trkpt>
      <trkpt lat="45.97516" lon="4.79884">
        <ele>222</ele>
        <time>2016-11-05T09:49:40Z</time>
      </trkpt>
      <trkpt lat="45.9752" lon="4.79883">
        <ele>222</ele>
        <time>2016-11-05T09:49:41Z</time>
      </trkpt>
      <trkpt lat="45.97527" lon="4.79881">
        <ele>222</ele>
        <time>2016-11-05T09:49:43Z</time>
      </trkpt>
      <trkpt lat="45.97531" lon="4.79881">
        <ele>222</ele>
        <time>2016-11-05T09:49:44Z</time>
      </trkpt>
      <trkpt lat="45.97538" lon="4.79881">
        <ele>222</ele>
        <time>2016-11-05T09:49:46Z</time>
      </trkpt>
      <trkpt lat="45.97542" lon="4.7988">
        <ele>222</ele>
        <time>2016-11-05T09:49:47Z</time>
      </trkpt>
      <trkpt lat="45.9755" lon="4.79878">
        <ele>222</ele>
        <time>2016-11-05T09:49:49Z</time>
      </trkpt>
      <trkpt lat="45.97553" lon="4.79877">
        <ele>222</ele>
        <time>2016-11-05T09:49:50Z</time>
      </trkpt>
      <trkpt lat="45.97561" lon="4.79876">
        <ele>222</ele>
        <time>2016-11-05T09:49:52Z</time>
      </trkpt>
      <trkpt lat="45.97564" lon="4.79875">
        <ele>222</ele>
        <time>2016-11-05T09:49:53Z</time>
      </trkpt>
      <trkpt lat="45.97571" lon="4.79873">
        <ele>222</ele>
        <time>2016-11-05T09:49:55Z</time>
      </trkpt>
      <trkpt lat="45.97575" lon="4.79872">
        <ele>222</ele>
        <time>2016-11-05T09:49:56Z</time>
      </trkpt>
      <trkpt lat="45.97582" lon="4.7987">
        <ele>222</ele>
        <time>2016-11-05T09:49:58Z</time>
      </trkpt>
      <trkpt lat="45.97586" lon="4.79868">
        <ele>221</ele>
        <time>2016-11-05T09:49:59Z</time>
      </trkpt>
      <trkpt lat="45.97592" lon="4.79866">
        <ele>221</ele>
        <time>2016-11-05T09:50:01Z</time>
      </trkpt>
      <trkpt lat="45.97596" lon="4.79864">
        <ele>221</ele>
        <time>2016-11-05T09:50:02Z</time>
      </trkpt>
      <trkpt lat="45.97603" lon="4.79862">
        <ele>221</ele>
        <time>2016-11-05T09:50:04Z</time>
      </trkpt>
      <trkpt lat="45.97606" lon="4.79862">
        <ele>221</ele>
        <time>2016-11-05T09:50:05Z</time>
      </trkpt>
      <trkpt lat="45.97613" lon="4.79859">
        <ele>221</ele>
        <time>2016-11-05T09:50:07Z</time>
      </trkpt>
      <trkpt lat="45.97617" lon="4.79858">
        <ele>221</ele>
        <time>2016-11-05T09:50:08Z</time>
      </trkpt>
      <trkpt lat="45.97624" lon="4.79855">
        <ele>221</ele>
        <time>2016-11-05T09:50:10Z</time>
      </trkpt>
      <trkpt lat="45.97629" lon="4.79854">
        <ele>221</ele>
        <time>2016-11-05T09:50:11Z</time>
      </trkpt>
      <trkpt lat="45.97637" lon="4.79851">
        <ele>221</ele>
        <time>2016-11-05T09:50:13Z</time>
      </trkpt>
      <trkpt lat="45.97641" lon="4.79849">
        <ele>221</ele>
        <time>2016-11-05T09:50:14Z</time>
      </trkpt>
      <trkpt lat="45.97645" lon="4.79847">
        <ele>221</ele>
        <time>2016-11-05T09:50:15Z</time>
      </trkpt>
      <trkpt lat="45.9765" lon="4.79846">
        <ele>221</ele>
        <time>2016-11-05T09:50:16Z</time>
      </trkpt>
      <trkpt lat="45.97654" lon="4.79844">
        <ele>221</ele>
        <time>2016-11-05T09:50:17Z</time>
      </trkpt>
      <trkpt lat="45.97659" lon="4.79843">
        <ele>221</ele>
        <time>2016-11-05T09:50:18Z</time>
      </trkpt>
      <trkpt lat="45.97664" lon="4.79841">
        <ele>221</ele>
        <time>2016-11-05T09:50:19Z</time>
      </trkpt>
      <trkpt lat="45.97668" lon="4.7984">
        <ele>221</ele>
        <time>2016-11-05T09:50:20Z</time>
      </trkpt>
      <trkpt lat="45.97673" lon="4.79838">
        <ele>221</ele>
        <time>2016-11-05T09:50:21Z</time>
      </trkpt>
      <trkpt lat="45.97677" lon="4.79837">
        <ele>221</ele>
        <time>2016-11-05T09:50:22Z</time>
      </trkpt>
      <trkpt lat="45.97682" lon="4.79836">
        <ele>221</ele>
        <time>2016-11-05T09:50:23Z</time>
      </trkpt>
      <trkpt lat="45.97687" lon="4.79834">
        <ele>221</ele>
        <time>2016-11-05T09:50:24Z</time>
      </trkpt>
      <trkpt lat="45.97692" lon="4.79833">
        <ele>223</ele>
        <time>2016-11-05T09:50:25Z</time>
      </trkpt>
      <trkpt lat="45.97698" lon="4.79833">
        <ele>223</ele>
        <time>2016-11-05T09:50:26Z</time>
      </trkpt>
      <trkpt lat="45.97703" lon="4.79832">
        <ele>223</ele>
        <time>2016-11-05T09:50:27Z</time>
      </trkpt>
      <trkpt lat="45.97708" lon="4.7983">
        <ele>223</ele>
        <time>2016-11-05T09:50:28Z</time>
      </trkpt>
      <trkpt lat="45.97713" lon="4.7983">
        <ele>223</ele>
        <time>2016-11-05T09:50:29Z</time>
      </trkpt>
      <trkpt lat="45.97718" lon="4.79829">
        <ele>223</ele>
        <time>2016-11-05T09:50:30Z</time>
      </trkpt>
      <trkpt lat="45.97723" lon="4.79828">
        <ele>223</ele>
        <time>2016-11-05T09:50:31Z</time>
      </trkpt>
      <trkpt lat="45.97728" lon="4.79826">
        <ele>223</ele>
        <time>2016-11-05T09:50:32Z</time>
      </trkpt>
      <trkpt lat="45.97733" lon="4.79826">
        <ele>223</ele>
        <time>2016-11-05T09:50:33Z</time>
      </trkpt>
      <trkpt lat="45.97738" lon="4.79825">
        <ele>223</ele>
        <time>2016-11-05T09:50:34Z</time>
      </trkpt>
      <trkpt lat="45.97743" lon="4.79824">
        <ele>223</ele>
        <time>2016-11-05T09:50:35Z</time>
      </trkpt>
      <trkpt lat="45.97749" lon="4.79823">
        <ele>222</ele>
        <time>2016-11-05T09:50:36Z</time>
      </trkpt>
      <trkpt lat="45.97754" lon="4.79822">
        <ele>222</ele>
        <time>2016-11-05T09:50:37Z</time>
      </trkpt>
      <trkpt lat="45.97759" lon="4.79821">
        <ele>223</ele>
        <time>2016-11-05T09:50:38Z</time>
      </trkpt>
      <trkpt lat="45.97765" lon="4.7982">
        <ele>223</ele>
        <time>2016-11-05T09:50:39Z</time>
      </trkpt>
      <trkpt lat="45.9777" lon="4.79819">
        <ele>223</ele>
        <time>2016-11-05T09:50:40Z</time>
      </trkpt>
      <trkpt lat="45.97776" lon="4.79819">
        <ele>223</ele>
        <time>2016-11-05T09:50:41Z</time>
      </trkpt>
      <trkpt lat="45.97781" lon="4.79819">
        <ele>223</ele>
        <time>2016-11-05T09:50:42Z</time>
      </trkpt>
      <trkpt lat="45.97786" lon="4.79819">
        <ele>223</ele>
        <time>2016-11-05T09:50:43Z</time>
      </trkpt>
      <trkpt lat="45.97791" lon="4.79819">
        <ele>223</ele>
        <time>2016-11-05T09:50:44Z</time>
      </trkpt>
      <trkpt lat="45.97796" lon="4.79818">
        <ele>223</ele>
        <time>2016-11-05T09:50:45Z</time>
      </trkpt>
      <trkpt lat="45.97805" lon="4.79816">
        <ele>223</ele>
        <time>2016-11-05T09:50:47Z</time>
      </trkpt>
      <trkpt lat="45.9781" lon="4.79814">
        <ele>223</ele>
        <time>2016-11-05T09:50:48Z</time>
      </trkpt>
      <trkpt lat="45.97815" lon="4.79813">
        <ele>223</ele>
        <time>2016-11-05T09:50:49Z</time>
      </trkpt>
      <trkpt lat="45.9782" lon="4.79812">
        <ele>223</ele>
        <time>2016-11-05T09:50:50Z</time>
      </trkpt>
      <trkpt lat="45.97825" lon="4.79811">
        <ele>223</ele>
        <time>2016-11-05T09:50:51Z</time>
      </trkpt>
      <trkpt lat="45.97831" lon="4.7981">
        <ele>223</ele>
        <time>2016-11-05T09:50:52Z</time>
      </trkpt>
      <trkpt lat="45.9785" lon="4.79807">
        <ele>224</ele>
        <time>2016-11-05T09:50:55Z</time>
      </trkpt>
      <trkpt lat="45.97855" lon="4.79805">
        <ele>224</ele>
        <time>2016-11-05T09:50:56Z</time>
      </trkpt>
      <trkpt lat="45.9786" lon="4.79804">
        <ele>224</ele>
        <time>2016-11-05T09:50:57Z</time>
      </trkpt>
      <trkpt lat="45.97865" lon="4.79804">
        <ele>224</ele>
        <time>2016-11-05T09:50:58Z</time>
      </trkpt>
      <trkpt lat="45.97871" lon="4.79803">
        <ele>224</ele>
        <time>2016-11-05T09:50:59Z</time>
      </trkpt>
      <trkpt lat="45.97877" lon="4.79802">
        <ele>224</ele>
        <time>2016-11-05T09:51:00Z</time>
      </trkpt>
      <trkpt lat="45.97888" lon="4.79801">
        <ele>224</ele>
        <time>2016-11-05T09:51:02Z</time>
      </trkpt>
      <trkpt lat="45.97893" lon="4.798">
        <ele>224</ele>
        <time>2016-11-05T09:51:03Z</time>
      </trkpt>
      <trkpt lat="45.97904" lon="4.79798">
        <ele>224</ele>
        <time>2016-11-05T09:51:05Z</time>
      </trkpt>
      <trkpt lat="45.97909" lon="4.79796">
        <ele>224</ele>
        <time>2016-11-05T09:51:06Z</time>
      </trkpt>
      <trkpt lat="45.97914" lon="4.79796">
        <ele>224</ele>
        <time>2016-11-05T09:51:07Z</time>
      </trkpt>
      <trkpt lat="45.9792" lon="4.79796">
        <ele>224</ele>
        <time>2016-11-05T09:51:08Z</time>
      </trkpt>
      <trkpt lat="45.97925" lon="4.79795">
        <ele>224</ele>
        <time>2016-11-05T09:51:09Z</time>
      </trkpt>
      <trkpt lat="45.9793" lon="4.79793">
        <ele>224</ele>
        <time>2016-11-05T09:51:10Z</time>
      </trkpt>
      <trkpt lat="45.97935" lon="4.79793">
        <ele>224</ele>
        <time>2016-11-05T09:51:11Z</time>
      </trkpt>
      <trkpt lat="45.9794" lon="4.79792">
        <ele>224</ele>
        <time>2016-11-05T09:51:12Z</time>
      </trkpt>
      <trkpt lat="45.97945" lon="4.79789">
        <ele>224</ele>
        <time>2016-11-05T09:51:13Z</time>
      </trkpt>
      <trkpt lat="45.9795" lon="4.79786">
        <ele>224</ele>
        <time>2016-11-05T09:51:14Z</time>
      </trkpt>
      <trkpt lat="45.97956" lon="4.79784">
        <ele>224</ele>
        <time>2016-11-05T09:51:15Z</time>
      </trkpt>
      <trkpt lat="45.97961" lon="4.79782">
        <ele>224</ele>
        <time>2016-11-05T09:51:16Z</time>
      </trkpt>
      <trkpt lat="45.97966" lon="4.7978">
        <ele>224</ele>
        <time>2016-11-05T09:51:17Z</time>
      </trkpt>
      <trkpt lat="45.97971" lon="4.79782">
        <ele>224</ele>
        <time>2016-11-05T09:51:18Z</time>
      </trkpt>
      <trkpt lat="45.97977" lon="4.79781">
        <ele>224</ele>
        <time>2016-11-05T09:51:19Z</time>
      </trkpt>
      <trkpt lat="45.97981" lon="4.79781">
        <ele>224</ele>
        <time>2016-11-05T09:51:20Z</time>
      </trkpt>
      <trkpt lat="45.97987" lon="4.79778">
        <ele>224</ele>
        <time>2016-11-05T09:51:21Z</time>
      </trkpt>
      <trkpt lat="45.97993" lon="4.79776">
        <ele>224</ele>
        <time>2016-11-05T09:51:22Z</time>
      </trkpt>
      <trkpt lat="45.97998" lon="4.79779">
        <ele>224</ele>
        <time>2016-11-05T09:51:23Z</time>
      </trkpt>
      <trkpt lat="45.98003" lon="4.79777">
        <ele>223</ele>
        <time>2016-11-05T09:51:24Z</time>
      </trkpt>
      <trkpt lat="45.98008" lon="4.79777">
        <ele>223</ele>
        <time>2016-11-05T09:51:25Z</time>
      </trkpt>
      <trkpt lat="45.98013" lon="4.79776">
        <ele>223</ele>
        <time>2016-11-05T09:51:26Z</time>
      </trkpt>
      <trkpt lat="45.98018" lon="4.79778">
        <ele>223</ele>
        <time>2016-11-05T09:51:27Z</time>
      </trkpt>
      <trkpt lat="45.98024" lon="4.79778">
        <ele>223</ele>
        <time>2016-11-05T09:51:28Z</time>
      </trkpt>
      <trkpt lat="45.98029" lon="4.79777">
        <ele>223</ele>
        <time>2016-11-05T09:51:29Z</time>
      </trkpt>
      <trkpt lat="45.98035" lon="4.79777">
        <ele>223</ele>
        <time>2016-11-05T09:51:30Z</time>
      </trkpt>
      <trkpt lat="45.9804" lon="4.79776">
        <ele>223</ele>
        <time>2016-11-05T09:51:31Z</time>
      </trkpt>
      <trkpt lat="45.98046" lon="4.79775">
        <ele>223</ele>
        <time>2016-11-05T09:51:32Z</time>
      </trkpt>
      <trkpt lat="45.98051" lon="4.79775">
        <ele>223</ele>
        <time>2016-11-05T09:51:33Z</time>
      </trkpt>
      <trkpt lat="45.98056" lon="4.79774">
        <ele>223</ele>
        <time>2016-11-05T09:51:34Z</time>
      </trkpt>
      <trkpt lat="45.98062" lon="4.79773">
        <ele>223</ele>
        <time>2016-11-05T09:51:35Z</time>
      </trkpt>
      <trkpt lat="45.98067" lon="4.79772">
        <ele>223</ele>
        <time>2016-11-05T09:51:36Z</time>
      </trkpt>
      <trkpt lat="45.98072" lon="4.79771">
        <ele>223</ele>
        <time>2016-11-05T09:51:37Z</time>
      </trkpt>
      <trkpt lat="45.98078" lon="4.7977">
        <ele>223</ele>
        <time>2016-11-05T09:51:38Z</time>
      </trkpt>
      <trkpt lat="45.98083" lon="4.79769">
        <ele>223</ele>
        <time>2016-11-05T09:51:39Z</time>
      </trkpt>
      <trkpt lat="45.98089" lon="4.79768">
        <ele>223</ele>
        <time>2016-11-05T09:51:40Z</time>
      </trkpt>
      <trkpt lat="45.98094" lon="4.79767">
        <ele>223</ele>
        <time>2016-11-05T09:51:41Z</time>
      </trkpt>
      <trkpt lat="45.98099" lon="4.79767">
        <ele>223</ele>
        <time>2016-11-05T09:51:42Z</time>
      </trkpt>
      <trkpt lat="45.98104" lon="4.79766">
        <ele>224</ele>
        <time>2016-11-05T09:51:43Z</time>
      </trkpt>
      <trkpt lat="45.98109" lon="4.79765">
        <ele>224</ele>
        <time>2016-11-05T09:51:44Z</time>
      </trkpt>
      <trkpt lat="45.98114" lon="4.79764">
        <ele>224</ele>
        <time>2016-11-05T09:51:45Z</time>
      </trkpt>
      <trkpt lat="45.98119" lon="4.79764">
        <ele>224</ele>
        <time>2016-11-05T09:51:46Z</time>
      </trkpt>
      <trkpt lat="45.98124" lon="4.79763">
        <ele>224</ele>
        <time>2016-11-05T09:51:47Z</time>
      </trkpt>
      <trkpt lat="45.9813" lon="4.79763">
        <ele>224</ele>
        <time>2016-11-05T09:51:48Z</time>
      </trkpt>
      <trkpt lat="45.98145" lon="4.79762">
        <ele>225</ele>
        <time>2016-11-05T09:51:51Z</time>
      </trkpt>
      <trkpt lat="45.98151" lon="4.79762">
        <ele>225</ele>
        <time>2016-11-05T09:51:52Z</time>
      </trkpt>
      <trkpt lat="45.98156" lon="4.79764">
        <ele>225</ele>
        <time>2016-11-05T09:51:53Z</time>
      </trkpt>
      <trkpt lat="45.98161" lon="4.79767">
        <ele>225</ele>
        <time>2016-11-05T09:51:54Z</time>
      </trkpt>
      <trkpt lat="45.98166" lon="4.79771">
        <ele>225</ele>
        <time>2016-11-05T09:51:55Z</time>
      </trkpt>
      <trkpt lat="45.9817" lon="4.79776">
        <ele>226</ele>
        <time>2016-11-05T09:51:56Z</time>
      </trkpt>
      <trkpt lat="45.98173" lon="4.79782">
        <ele>226</ele>
        <time>2016-11-05T09:51:57Z</time>
      </trkpt>
      <trkpt lat="45.98176" lon="4.79788">
        <ele>226</ele>
        <time>2016-11-05T09:51:58Z</time>
      </trkpt>
      <trkpt lat="45.98178" lon="4.79795">
        <ele>226</ele>
        <time>2016-11-05T09:51:59Z</time>
      </trkpt>
      <trkpt lat="45.9818" lon="4.79802">
        <ele>226</ele>
        <time>2016-11-05T09:52:00Z</time>
      </trkpt>
      <trkpt lat="45.98183" lon="4.79808">
        <ele>225</ele>
        <time>2016-11-05T09:52:01Z</time>
      </trkpt>
      <trkpt lat="45.98185" lon="4.79816">
        <ele>225</ele>
        <time>2016-11-05T09:52:02Z</time>
      </trkpt>
      <trkpt lat="45.98188" lon="4.79823">
        <ele>225</ele>
        <time>2016-11-05T09:52:03Z</time>
      </trkpt>
      <trkpt lat="45.98191" lon="4.79832">
        <ele>225</ele>
        <time>2016-11-05T09:52:04Z</time>
      </trkpt>
      <trkpt lat="45.98194" lon="4.7984">
        <ele>225</ele>
        <time>2016-11-05T09:52:05Z</time>
      </trkpt>
      <trkpt lat="45.98197" lon="4.79849">
        <ele>225</ele>
        <time>2016-11-05T09:52:06Z</time>
      </trkpt>
      <trkpt lat="45.982" lon="4.79858">
        <ele>225</ele>
        <time>2016-11-05T09:52:07Z</time>
      </trkpt>
      <trkpt lat="45.98203" lon="4.79867">
        <ele>225</ele>
        <time>2016-11-05T09:52:08Z</time>
      </trkpt>
      <trkpt lat="45.98206" lon="4.79876">
        <ele>225</ele>
        <time>2016-11-05T09:52:09Z</time>
      </trkpt>
      <trkpt lat="45.9821" lon="4.79884">
        <ele>225</ele>
        <time>2016-11-05T09:52:10Z</time>
      </trkpt>
      <trkpt lat="45.98214" lon="4.79892">
        <ele>225</ele>
        <time>2016-11-05T09:52:11Z</time>
      </trkpt>
      <trkpt lat="45.98217" lon="4.799">
        <ele>225</ele>
        <time>2016-11-05T09:52:12Z</time>
      </trkpt>
      <trkpt lat="45.98219" lon="4.79909">
        <ele>225</ele>
        <time>2016-11-05T09:52:13Z</time>
      </trkpt>
      <trkpt lat="45.98222" lon="4.79917">
        <ele>225</ele>
        <time>2016-11-05T09:52:14Z</time>
      </trkpt>
      <trkpt lat="45.98225" lon="4.79924">
        <ele>225</ele>
        <time>2016-11-05T09:52:15Z</time>
      </trkpt>
      <trkpt lat="45.98227" lon="4.79932">
        <ele>225</ele>
        <time>2016-11-05T09:52:16Z</time>
      </trkpt>
      <trkpt lat="45.9823" lon="4.79939">
        <ele>225</ele>
        <time>2016-11-05T09:52:17Z</time>
      </trkpt>
      <trkpt lat="45.98232" lon="4.79947">
        <ele>225</ele>
        <time>2016-11-05T09:52:18Z</time>
      </trkpt>
      <trkpt lat="45.98235" lon="4.79954">
        <ele>225</ele>
        <time>2016-11-05T09:52:19Z</time>
      </trkpt>
      <trkpt lat="45.98237" lon="4.79961">
        <ele>225</ele>
        <time>2016-11-05T09:52:20Z</time>
      </trkpt>
      <trkpt lat="45.98239" lon="4.79968">
        <ele>225</ele>
        <time>2016-11-05T09:52:21Z</time>
      </trkpt>
      <trkpt lat="45.98241" lon="4.79976">
        <ele>225</ele>
        <time>2016-11-05T09:52:22Z</time>
      </trkpt>
      <trkpt lat="45.98244" lon="4.79984">
        <ele>225</ele>
        <time>2016-11-05T09:52:23Z</time>
      </trkpt>
      <trkpt lat="45.98246" lon="4.79992">
        <ele>226</ele>
        <time>2016-11-05T09:52:24Z</time>
      </trkpt>
      <trkpt lat="45.98248" lon="4.80001">
        <ele>226</ele>
        <time>2016-11-05T09:52:25Z</time>
      </trkpt>
      <trkpt lat="45.98251" lon="4.80008">
        <ele>227</ele>
        <time>2016-11-05T09:52:26Z</time>
      </trkpt>
      <trkpt lat="45.98254" lon="4.80016">
        <ele>228</ele>
        <time>2016-11-05T09:52:27Z</time>
      </trkpt>
      <trkpt lat="45.98257" lon="4.80023">
        <ele>228</ele>
        <time>2016-11-05T09:52:28Z</time>
      </trkpt>
      <trkpt lat="45.9826" lon="4.8003">
        <ele>228</ele>
        <time>2016-11-05T09:52:29Z</time>
      </trkpt>
      <trkpt lat="45.98262" lon="4.80037">
        <ele>228</ele>
        <time>2016-11-05T09:52:30Z</time>
      </trkpt>
      <trkpt lat="45.98264" lon="4.80044">
        <ele>228</ele>
        <time>2016-11-05T09:52:31Z</time>
      </trkpt>
      <trkpt lat="45.98267" lon="4.80052">
        <ele>228</ele>
        <time>2016-11-05T09:52:32Z</time>
      </trkpt>
      <trkpt lat="45.9827" lon="4.80059">
        <ele>228</ele>
        <time>2016-11-05T09:52:33Z</time>
      </trkpt>
      <trkpt lat="45.98273" lon="4.80067">
        <ele>228</ele>
        <time>2016-11-05T09:52:34Z</time>
      </trkpt>
      <trkpt lat="45.98276" lon="4.80075">
        <ele>228</ele>
        <time>2016-11-05T09:52:35Z</time>
      </trkpt>
      <trkpt lat="45.98278" lon="4.80082">
        <ele>229</ele>
        <time>2016-11-05T09:52:36Z</time>
      </trkpt>
      <trkpt lat="45.98281" lon="4.8009">
        <ele>228</ele>
        <time>2016-11-05T09:52:37Z</time>
      </trkpt>
      <trkpt lat="45.98283" lon="4.80097">
        <ele>228</ele>
        <time>2016-11-05T09:52:38Z</time>
      </trkpt>
      <trkpt lat="45.98286" lon="4.80103">
        <ele>228</ele>
        <time>2016-11-05T09:52:39Z</time>
      </trkpt>
      <trkpt lat="45.98288" lon="4.8011">
        <ele>228</ele>
        <time>2016-11-05T09:52:40Z</time>
      </trkpt>
      <trkpt lat="45.9829" lon="4.80117">
        <ele>228</ele>
        <time>2016-11-05T09:52:41Z</time>
      </trkpt>
      <trkpt lat="45.98294" lon="4.80125">
        <ele>228</ele>
        <time>2016-11-05T09:52:42Z</time>
      </trkpt>
      <trkpt lat="45.98296" lon="4.80132">
        <ele>228</ele>
        <time>2016-11-05T09:52:43Z</time>
      </trkpt>
      <trkpt lat="45.98299" lon="4.8014">
        <ele>228</ele>
        <time>2016-11-05T09:52:44Z</time>
      </trkpt>
      <trkpt lat="45.98302" lon="4.80148">
        <ele>228</ele>
        <time>2016-11-05T09:52:45Z</time>
      </trkpt>
      <trkpt lat="45.98305" lon="4.80156">
        <ele>228</ele>
        <time>2016-11-05T09:52:46Z</time>
      </trkpt>
      <trkpt lat="45.98308" lon="4.80164">
        <ele>228</ele>
        <time>2016-11-05T09:52:47Z</time>
      </trkpt>
      <trkpt lat="45.98311" lon="4.80172">
        <ele>227</ele>
        <time>2016-11-05T09:52:48Z</time>
      </trkpt>
      <trkpt lat="45.98313" lon="4.8018">
        <ele>227</ele>
        <time>2016-11-05T09:52:49Z</time>
      </trkpt>
      <trkpt lat="45.98316" lon="4.80187">
        <ele>227</ele>
        <time>2016-11-05T09:52:50Z</time>
      </trkpt>
      <trkpt lat="45.98319" lon="4.80195">
        <ele>227</ele>
        <time>2016-11-05T09:52:51Z</time>
      </trkpt>
      <trkpt lat="45.98322" lon="4.80202">
        <ele>227</ele>
        <time>2016-11-05T09:52:52Z</time>
      </trkpt>
      <trkpt lat="45.98324" lon="4.80208">
        <ele>227</ele>
        <time>2016-11-05T09:52:53Z</time>
      </trkpt>
      <trkpt lat="45.98326" lon="4.80215">
        <ele>227</ele>
        <time>2016-11-05T09:52:54Z</time>
      </trkpt>
      <trkpt lat="45.98326" lon="4.80223">
        <ele>227</ele>
        <time>2016-11-05T09:52:55Z</time>
      </trkpt>
      <trkpt lat="45.98326" lon="4.8023">
        <ele>228</ele>
        <time>2016-11-05T09:52:56Z</time>
      </trkpt>
      <trkpt lat="45.98324" lon="4.80237">
        <ele>228</ele>
        <time>2016-11-05T09:52:57Z</time>
      </trkpt>
      <trkpt lat="45.98323" lon="4.80245">
        <ele>228</ele>
        <time>2016-11-05T09:52:58Z</time>
      </trkpt>
      <trkpt lat="45.9832" lon="4.80252">
        <ele>228</ele>
        <time>2016-11-05T09:52:59Z</time>
      </trkpt>
      <trkpt lat="45.98318" lon="4.8026">
        <ele>227</ele>
        <time>2016-11-05T09:53:00Z</time>
      </trkpt>
      <trkpt lat="45.98316" lon="4.80268">
        <ele>227</ele>
        <time>2016-11-05T09:53:01Z</time>
      </trkpt>
      <trkpt lat="45.98315" lon="4.80276">
        <ele>227</ele>
        <time>2016-11-05T09:53:02Z</time>
      </trkpt>
      <trkpt lat="45.98313" lon="4.80285">
        <ele>226</ele>
        <time>2016-11-05T09:53:03Z</time>
      </trkpt>
      <trkpt lat="45.98311" lon="4.80294">
        <ele>226</ele>
        <time>2016-11-05T09:53:04Z</time>
      </trkpt>
      <trkpt lat="45.98309" lon="4.80303">
        <ele>226</ele>
        <time>2016-11-05T09:53:05Z</time>
      </trkpt>
      <trkpt lat="45.98306" lon="4.80312">
        <ele>226</ele>
        <time>2016-11-05T09:53:06Z</time>
      </trkpt>
      <trkpt lat="45.98305" lon="4.80322">
        <ele>226</ele>
        <time>2016-11-05T09:53:07Z</time>
      </trkpt>
      <trkpt lat="45.98303" lon="4.80331">
        <ele>226</ele>
        <time>2016-11-05T09:53:08Z</time>
      </trkpt>
      <trkpt lat="45.98301" lon="4.8034">
        <ele>225</ele>
        <time>2016-11-05T09:53:09Z</time>
      </trkpt>
      <trkpt lat="45.98298" lon="4.80349">
        <ele>225</ele>
        <time>2016-11-05T09:53:10Z</time>
      </trkpt>
      <trkpt lat="45.98296" lon="4.80358">
        <ele>225</ele>
        <time>2016-11-05T09:53:11Z</time>
      </trkpt>
      <trkpt lat="45.98294" lon="4.80368">
        <ele>224</ele>
        <time>2016-11-05T09:53:12Z</time>
      </trkpt>
      <trkpt lat="45.98292" lon="4.80377">
        <ele>224</ele>
        <time>2016-11-05T09:53:13Z</time>
      </trkpt>
      <trkpt lat="45.9829" lon="4.80387">
        <ele>224</ele>
        <time>2016-11-05T09:53:14Z</time>
      </trkpt>
      <trkpt lat="45.98288" lon="4.80397">
        <ele>224</ele>
        <time>2016-11-05T09:53:15Z</time>
      </trkpt>
      <trkpt lat="45.98286" lon="4.80407">
        <ele>224</ele>
        <time>2016-11-05T09:53:16Z</time>
      </trkpt>
      <trkpt lat="45.98285" lon="4.80417">
        <ele>224</ele>
        <time>2016-11-05T09:53:17Z</time>
      </trkpt>
      <trkpt lat="45.98283" lon="4.80426">
        <ele>223</ele>
        <time>2016-11-05T09:53:18Z</time>
      </trkpt>
      <trkpt lat="45.98281" lon="4.80436">
        <ele>223</ele>
        <time>2016-11-05T09:53:19Z</time>
      </trkpt>
      <trkpt lat="45.98279" lon="4.80445">
        <ele>223</ele>
        <time>2016-11-05T09:53:20Z</time>
      </trkpt>
      <trkpt lat="45.98276" lon="4.80454">
        <ele>223</ele>
        <time>2016-11-05T09:53:21Z</time>
      </trkpt>
      <trkpt lat="45.98274" lon="4.80462">
        <ele>223</ele>
        <time>2016-11-05T09:53:22Z</time>
      </trkpt>
      <trkpt lat="45.98272" lon="4.80472">
        <ele>223</ele>
        <time>2016-11-05T09:53:23Z</time>
      </trkpt>
      <trkpt lat="45.98269" lon="4.80481">
        <ele>223</ele>
        <time>2016-11-05T09:53:24Z</time>
      </trkpt>
      <trkpt lat="45.98267" lon="4.80489">
        <ele>223</ele>
        <time>2016-11-05T09:53:25Z</time>
      </trkpt>
      <trkpt lat="45.98265" lon="4.80498">
        <ele>223</ele>
        <time>2016-11-05T09:53:26Z</time>
      </trkpt>
      <trkpt lat="45.98263" lon="4.80506">
        <ele>223</ele>
        <time>2016-11-05T09:53:27Z</time>
      </trkpt>
      <trkpt lat="45.98261" lon="4.80514">
        <ele>223</ele>
        <time>2016-11-05T09:53:28Z</time>
      </trkpt>
      <trkpt lat="45.98258" lon="4.80521">
        <ele>223</ele>
        <time>2016-11-05T09:53:29Z</time>
      </trkpt>
      <trkpt lat="45.98256" lon="4.80529">
        <ele>224</ele>
        <time>2016-11-05T09:53:30Z</time>
      </trkpt>
      <trkpt lat="45.98253" lon="4.80537">
        <ele>224</ele>
        <time>2016-11-05T09:53:31Z</time>
      </trkpt>
      <trkpt lat="45.98251" lon="4.80545">
        <ele>224</ele>
        <time>2016-11-05T09:53:32Z</time>
      </trkpt>
      <trkpt lat="45.98249" lon="4.80554">
        <ele>223</ele>
        <time>2016-11-05T09:53:33Z</time>
      </trkpt>
      <trkpt lat="45.98246" lon="4.80562">
        <ele>223</ele>
        <time>2016-11-05T09:53:34Z</time>
      </trkpt>
      <trkpt lat="45.98244" lon="4.8057">
        <ele>224</ele>
        <time>2016-11-05T09:53:35Z</time>
      </trkpt>
      <trkpt lat="45.98242" lon="4.80578">
        <ele>224</ele>
        <time>2016-11-05T09:53:36Z</time>
      </trkpt>
      <trkpt lat="45.9824" lon="4.80585">
        <ele>224</ele>
        <time>2016-11-05T09:53:37Z</time>
      </trkpt>
      <trkpt lat="45.98239" lon="4.80592">
        <ele>224</ele>
        <time>2016-11-05T09:53:38Z</time>
      </trkpt>
      <trkpt lat="45.98237" lon="4.80599">
        <ele>224</ele>
        <time>2016-11-05T09:53:39Z</time>
      </trkpt>
      <trkpt lat="45.98235" lon="4.80605">
        <ele>224</ele>
        <time>2016-11-05T09:53:40Z</time>
      </trkpt>
      <trkpt lat="45.98233" lon="4.80612">
        <ele>224</ele>
        <time>2016-11-05T09:53:41Z</time>
      </trkpt>
      <trkpt lat="45.98231" lon="4.80619">
        <ele>224</ele>
        <time>2016-11-05T09:53:42Z</time>
      </trkpt>
      <trkpt lat="45.98229" lon="4.80625">
        <ele>224</ele>
        <time>2016-11-05T09:53:43Z</time>
      </trkpt>
      <trkpt lat="45.98224" lon="4.80636">
        <ele>224</ele>
        <time>2016-11-05T09:53:45Z</time>
      </trkpt>
      <trkpt lat="45.98222" lon="4.80642">
        <ele>224</ele>
        <time>2016-11-05T09:53:46Z</time>
      </trkpt>
      <trkpt lat="45.98219" lon="4.80653">
        <ele>224</ele>
        <time>2016-11-05T09:53:48Z</time>
      </trkpt>
      <trkpt lat="45.98217" lon="4.80658">
        <ele>224</ele>
        <time>2016-11-05T09:53:49Z</time>
      </trkpt>
      <trkpt lat="45.9821" lon="4.80666">
        <ele>224</ele>
        <time>2016-11-05T09:53:51Z</time>
      </trkpt>
      <trkpt lat="45.98206" lon="4.80669">
        <ele>224</ele>
        <time>2016-11-05T09:53:52Z</time>
      </trkpt>
      <trkpt lat="45.982" lon="4.80673">
        <ele>225</ele>
        <time>2016-11-05T09:53:54Z</time>
      </trkpt>
      <trkpt lat="45.98196" lon="4.8068">
        <ele>225</ele>
        <time>2016-11-05T09:53:55Z</time>
      </trkpt>
      <trkpt lat="45.98188" lon="4.80684">
        <ele>225</ele>
        <time>2016-11-05T09:53:57Z</time>
      </trkpt>
      <trkpt lat="45.98183" lon="4.80684">
        <ele>225</ele>
        <time>2016-11-05T09:53:58Z</time>
      </trkpt>
      <trkpt lat="45.98178" lon="4.80685">
        <ele>225</ele>
        <time>2016-11-05T09:53:59Z</time>
      </trkpt>
      <trkpt lat="45.98173" lon="4.80686">
        <ele>225</ele>
        <time>2016-11-05T09:54:00Z</time>
      </trkpt>
      <trkpt lat="45.98165" lon="4.80685">
        <ele>227</ele>
        <time>2016-11-05T09:54:02Z</time>
      </trkpt>
      <trkpt lat="45.98161" lon="4.80686">
        <ele>227</ele>
        <time>2016-11-05T09:54:03Z</time>
      </trkpt>
      <trkpt lat="45.98154" lon="4.80687">
        <ele>227</ele>
        <time>2016-11-05T09:54:05Z</time>
      </trkpt>
      <trkpt lat="45.98151" lon="4.80688">
        <ele>227</ele>
        <time>2016-11-05T09:54:06Z</time>
      </trkpt>
      <trkpt lat="45.98144" lon="4.80689">
        <ele>228</ele>
        <time>2016-11-05T09:54:08Z</time>
      </trkpt>
      <trkpt lat="45.9814" lon="4.80689">
        <ele>228</ele>
        <time>2016-11-05T09:54:09Z</time>
      </trkpt>
      <trkpt lat="45.98133" lon="4.80687">
        <ele>228</ele>
        <time>2016-11-05T09:54:11Z</time>
      </trkpt>
      <trkpt lat="45.98129" lon="4.80687">
        <ele>228</ele>
        <time>2016-11-05T09:54:12Z</time>
      </trkpt>
      <trkpt lat="45.98122" lon="4.80688">
        <ele>228</ele>
        <time>2016-11-05T09:54:14Z</time>
      </trkpt>
      <trkpt lat="45.98119" lon="4.80688">
        <ele>228</ele>
        <time>2016-11-05T09:54:15Z</time>
      </trkpt>
      <trkpt lat="45.9811" lon="4.80688">
        <ele>228</ele>
        <time>2016-11-05T09:54:17Z</time>
      </trkpt>
      <trkpt lat="45.98108" lon="4.80689">
        <ele>228</ele>
        <time>2016-11-05T09:54:18Z</time>
      </trkpt>
      <trkpt lat="45.98102" lon="4.8069">
        <ele>228</ele>
        <time>2016-11-05T09:54:20Z</time>
      </trkpt>
      <trkpt lat="45.98098" lon="4.8069">
        <ele>228</ele>
        <time>2016-11-05T09:54:21Z</time>
      </trkpt>
      <trkpt lat="45.98089" lon="4.8069">
        <ele>228</ele>
        <time>2016-11-05T09:54:23Z</time>
      </trkpt>
      <trkpt lat="45.98085" lon="4.80689">
        <ele>228</ele>
        <time>2016-11-05T09:54:24Z</time>
      </trkpt>
      <trkpt lat="45.98077" lon="4.80689">
        <ele>230</ele>
        <time>2016-11-05T09:54:26Z</time>
      </trkpt>
      <trkpt lat="45.98074" lon="4.80689">
        <ele>230</ele>
        <time>2016-11-05T09:54:27Z</time>
      </trkpt>
      <trkpt lat="45.98065" lon="4.8069">
        <ele>230</ele>
        <time>2016-11-05T09:54:29Z</time>
      </trkpt>
      <trkpt lat="45.98061" lon="4.80691">
        <ele>230</ele>
        <time>2016-11-05T09:54:30Z</time>
      </trkpt>
      <trkpt lat="45.98054" lon="4.80693">
        <ele>230</ele>
        <time>2016-11-05T09:54:32Z</time>
      </trkpt>
      <trkpt lat="45.9805" lon="4.80694">
        <ele>230</ele>
        <time>2016-11-05T09:54:33Z</time>
      </trkpt>
      <trkpt lat="45.98042" lon="4.80695">
        <ele>230</ele>
        <time>2016-11-05T09:54:35Z</time>
      </trkpt>
      <trkpt lat="45.98039" lon="4.80697">
        <ele>230</ele>
        <time>2016-11-05T09:54:36Z</time>
      </trkpt>
      <trkpt lat="45.98033" lon="4.80706">
        <ele>231</ele>
        <time>2016-11-05T09:54:39Z</time>
      </trkpt>
      <trkpt lat="45.98032" lon="4.8071">
        <ele>231</ele>
        <time>2016-11-05T09:54:40Z</time>
      </trkpt>
      <trkpt lat="45.98033" lon="4.80721">
        <ele>231</ele>
        <time>2016-11-05T09:54:43Z</time>
      </trkpt>
      <trkpt lat="45.98034" lon="4.80724">
        <ele>231</ele>
        <time>2016-11-05T09:54:44Z</time>
      </trkpt>
      <trkpt lat="45.98036" lon="4.80734">
        <ele>231</ele>
        <time>2016-11-05T09:54:47Z</time>
      </trkpt>
      <trkpt lat="45.98037" lon="4.80738">
        <ele>231</ele>
        <time>2016-11-05T09:54:48Z</time>
      </trkpt>
      <trkpt lat="45.98039" lon="4.80749">
        <ele>231</ele>
        <time>2016-11-05T09:54:51Z</time>
      </trkpt>
      <trkpt lat="45.9804" lon="4.80753">
        <ele>233</ele>
        <time>2016-11-05T09:54:52Z</time>
      </trkpt>
      <trkpt lat="45.98042" lon="4.80765">
        <ele>233</ele>
        <time>2016-11-05T09:54:55Z</time>
      </trkpt>
      <trkpt lat="45.98043" lon="4.80769">
        <ele>233</ele>
        <time>2016-11-05T09:54:56Z</time>
      </trkpt>
      <trkpt lat="45.98045" lon="4.80781">
        <ele>233</ele>
        <time>2016-11-05T09:54:59Z</time>
      </trkpt>
      <trkpt lat="45.98046" lon="4.80784">
        <ele>233</ele>
        <time>2016-11-05T09:55:00Z</time>
      </trkpt>
      <trkpt lat="45.98048" lon="4.80795">
        <ele>233</ele>
        <time>2016-11-05T09:55:03Z</time>
      </trkpt>
      <trkpt lat="45.98046" lon="4.80799">
        <ele>234</ele>
        <time>2016-11-05T09:55:04Z</time>
      </trkpt>
      <trkpt lat="45.98052" lon="4.80807">
        <ele>234</ele>
        <time>2016-11-05T09:55:06Z</time>
      </trkpt>
      <trkpt lat="45.98057" lon="4.80811">
        <ele>234</ele>
        <time>2016-11-05T09:55:07Z</time>
      </trkpt>
      <trkpt lat="45.98058" lon="4.80815">
        <ele>234</ele>
        <time>2016-11-05T09:55:08Z</time>
      </trkpt>
      <trkpt lat="45.98064" lon="4.80819">
        <ele>234</ele>
        <time>2016-11-05T09:55:09Z</time>
      </trkpt>
      <trkpt lat="45.98066" lon="4.80829">
        <ele>234</ele>
        <time>2016-11-05T09:55:12Z</time>
      </trkpt>
      <trkpt lat="45.98066" lon="4.80833">
        <ele>234</ele>
        <time>2016-11-05T09:55:13Z</time>
      </trkpt>
      <trkpt lat="45.98066" lon="4.80845">
        <ele>236</ele>
        <time>2016-11-05T09:55:16Z</time>
      </trkpt>
      <trkpt lat="45.98067" lon="4.80849">
        <ele>236</ele>
        <time>2016-11-05T09:55:17Z</time>
      </trkpt>
      <trkpt lat="45.98069" lon="4.80861">
        <ele>236</ele>
        <time>2016-11-05T09:55:20Z</time>
      </trkpt>
      <trkpt lat="45.98071" lon="4.80864">
        <ele>237</ele>
        <time>2016-11-05T09:55:21Z</time>
      </trkpt>
      <trkpt lat="45.98073" lon="4.80874">
        <ele>237</ele>
        <time>2016-11-05T09:55:24Z</time>
      </trkpt>
      <trkpt lat="45.98073" lon="4.80878">
        <ele>237</ele>
        <time>2016-11-05T09:55:25Z</time>
      </trkpt>
      <trkpt lat="45.98074" lon="4.80889">
        <ele>238</ele>
        <time>2016-11-05T09:55:28Z</time>
      </trkpt>
      <trkpt lat="45.98075" lon="4.80894">
        <ele>238</ele>
        <time>2016-11-05T09:55:29Z</time>
      </trkpt>
      <trkpt lat="45.98077" lon="4.80906">
        <ele>238</ele>
        <time>2016-11-05T09:55:32Z</time>
      </trkpt>
      <trkpt lat="45.98078" lon="4.8091">
        <ele>238</ele>
        <time>2016-11-05T09:55:33Z</time>
      </trkpt>
      <trkpt lat="45.9808" lon="4.80921">
        <ele>239</ele>
        <time>2016-11-05T09:55:36Z</time>
      </trkpt>
      <trkpt lat="45.98082" lon="4.80925">
        <ele>240</ele>
        <time>2016-11-05T09:55:37Z</time>
      </trkpt>
      <trkpt lat="45.98083" lon="4.80936">
        <ele>240</ele>
        <time>2016-11-05T09:55:40Z</time>
      </trkpt>
      <trkpt lat="45.98084" lon="4.80939">
        <ele>238</ele>
        <time>2016-11-05T09:55:41Z</time>
      </trkpt>
      <trkpt lat="45.98087" lon="4.80951">
        <ele>238</ele>
        <time>2016-11-05T09:55:44Z</time>
      </trkpt>
      <trkpt lat="45.98088" lon="4.80955">
        <ele>238</ele>
        <time>2016-11-05T09:55:45Z</time>
      </trkpt>
      <trkpt lat="45.98091" lon="4.80966">
        <ele>239</ele>
        <time>2016-11-05T09:55:48Z</time>
      </trkpt>
      <trkpt lat="45.98092" lon="4.8097">
        <ele>239</ele>
        <time>2016-11-05T09:55:49Z</time>
      </trkpt>
      <trkpt lat="45.98094" lon="4.80981">
        <ele>240</ele>
        <time>2016-11-05T09:55:52Z</time>
      </trkpt>
      <trkpt lat="45.98095" lon="4.80985">
        <ele>240</ele>
        <time>2016-11-05T09:55:53Z</time>
      </trkpt>
      <trkpt lat="45.98097" lon="4.80993">
        <ele>240</ele>
        <time>2016-11-05T09:55:55Z</time>
      </trkpt>
      <trkpt lat="45.98099" lon="4.80997">
        <ele>240</ele>
        <time>2016-11-05T09:55:56Z</time>
      </trkpt>
      <trkpt lat="45.98103" lon="4.81007">
        <ele>242</ele>
        <time>2016-11-05T09:55:58Z</time>
      </trkpt>
      <trkpt lat="45.98105" lon="4.81012">
        <ele>242</ele>
        <time>2016-11-05T09:55:59Z</time>
      </trkpt>
      <trkpt lat="45.98108" lon="4.81022">
        <ele>242</ele>
        <time>2016-11-05T09:56:01Z</time>
      </trkpt>
      <trkpt lat="45.9811" lon="4.81027">
        <ele>242</ele>
        <time>2016-11-05T09:56:02Z</time>
      </trkpt>
      <trkpt lat="45.98114" lon="4.81038">
        <ele>242</ele>
        <time>2016-11-05T09:56:04Z</time>
      </trkpt>
      <trkpt lat="45.98116" lon="4.81043">
        <ele>242</ele>
        <time>2016-11-05T09:56:05Z</time>
      </trkpt>
      <trkpt lat="45.98119" lon="4.81054">
        <ele>243</ele>
        <time>2016-11-05T09:56:07Z</time>
      </trkpt>
      <trkpt lat="45.98121" lon="4.81058">
        <ele>243</ele>
        <time>2016-11-05T09:56:08Z</time>
      </trkpt>
      <trkpt lat="45.98125" lon="4.81068">
        <ele>243</ele>
        <time>2016-11-05T09:56:10Z</time>
      </trkpt>
      <trkpt lat="45.98126" lon="4.81073">
        <ele>243</ele>
        <time>2016-11-05T09:56:11Z</time>
      </trkpt>
      <trkpt lat="45.98129" lon="4.81081">
        <ele>243</ele>
        <time>2016-11-05T09:56:13Z</time>
      </trkpt>
      <trkpt lat="45.98131" lon="4.81086">
        <ele>245</ele>
        <time>2016-11-05T09:56:14Z</time>
      </trkpt>
      <trkpt lat="45.98133" lon="4.81095">
        <ele>245</ele>
        <time>2016-11-05T09:56:16Z</time>
      </trkpt>
      <trkpt lat="45.98135" lon="4.811">
        <ele>245</ele>
        <time>2016-11-05T09:56:17Z</time>
      </trkpt>
      <trkpt lat="45.98139" lon="4.8111">
        <ele>245</ele>
        <time>2016-11-05T09:56:19Z</time>
      </trkpt>
      <trkpt lat="45.98141" lon="4.81115">
        <ele>245</ele>
        <time>2016-11-05T09:56:20Z</time>
      </trkpt>
      <trkpt lat="45.98144" lon="4.81125">
        <ele>245</ele>
        <time>2016-11-05T09:56:22Z</time>
      </trkpt>
      <trkpt lat="45.98146" lon="4.8113">
        <ele>245</ele>
        <time>2016-11-05T09:56:23Z</time>
      </trkpt>
      <trkpt lat="45.98151" lon="4.81139">
        <ele>245</ele>
        <time>2016-11-05T09:56:25Z</time>
      </trkpt>
      <trkpt lat="45.98153" lon="4.81144">
        <ele>245</ele>
        <time>2016-11-05T09:56:26Z</time>
      </trkpt>
      <trkpt lat="45.98156" lon="4.81153">
        <ele>245</ele>
        <time>2016-11-05T09:56:28Z</time>
      </trkpt>
      <trkpt lat="45.98158" lon="4.81157">
        <ele>245</ele>
        <time>2016-11-05T09:56:29Z</time>
      </trkpt>
      <trkpt lat="45.98161" lon="4.81167">
        <ele>245</ele>
        <time>2016-11-05T09:56:31Z</time>
      </trkpt>
      <trkpt lat="45.98163" lon="4.81172">
        <ele>245</ele>
        <time>2016-11-05T09:56:32Z</time>
      </trkpt>
      <trkpt lat="45.98165" lon="4.81182">
        <ele>246</ele>
        <time>2016-11-05T09:56:34Z</time>
      </trkpt>
      <trkpt lat="45.98166" lon="4.81187">
        <ele>246</ele>
        <time>2016-11-05T09:56:35Z</time>
      </trkpt>
      <trkpt lat="45.98167" lon="4.81196">
        <ele>245</ele>
        <time>2016-11-05T09:56:37Z</time>
      </trkpt>
      <trkpt lat="45.98168" lon="4.81201">
        <ele>245</ele>
        <time>2016-11-05T09:56:38Z</time>
      </trkpt>
      <trkpt lat="45.9817" lon="4.81211">
        <ele>246</ele>
        <time>2016-11-05T09:56:40Z</time>
      </trkpt>
      <trkpt lat="45.9817" lon="4.81217">
        <ele>246</ele>
        <time>2016-11-05T09:56:41Z</time>
      </trkpt>
      <trkpt lat="45.9817" lon="4.81229">
        <ele>246</ele>
        <time>2016-11-05T09:56:43Z</time>
      </trkpt>
      <trkpt lat="45.98171" lon="4.81234">
        <ele>247</ele>
        <time>2016-11-05T09:56:44Z</time>
      </trkpt>
      <trkpt lat="45.98171" lon="4.81244">
        <ele>247</ele>
        <time>2016-11-05T09:56:46Z</time>
      </trkpt>
      <trkpt lat="45.98172" lon="4.8125">
        <ele>247</ele>
        <time>2016-11-05T09:56:47Z</time>
      </trkpt>
      <trkpt lat="45.98174" lon="4.8126">
        <ele>247</ele>
        <time>2016-11-05T09:56:49Z</time>
      </trkpt>
      <trkpt lat="45.98175" lon="4.81266">
        <ele>247</ele>
        <time>2016-11-05T09:56:50Z</time>
      </trkpt>
      <trkpt lat="45.98178" lon="4.81278">
        <ele>247</ele>
        <time>2016-11-05T09:56:52Z</time>
      </trkpt>
      <trkpt lat="45.9818" lon="4.81284">
        <ele>247</ele>
        <time>2016-11-05T09:56:53Z</time>
      </trkpt>
      <trkpt lat="45.98182" lon="4.81295">
        <ele>247</ele>
        <time>2016-11-05T09:56:55Z</time>
      </trkpt>
      <trkpt lat="45.98183" lon="4.81302">
        <ele>247</ele>
        <time>2016-11-05T09:56:56Z</time>
      </trkpt>
      <trkpt lat="45.98185" lon="4.81313">
        <ele>247</ele>
        <time>2016-11-05T09:56:58Z</time>
      </trkpt>
      <trkpt lat="45.98186" lon="4.81318">
        <ele>247</ele>
        <time>2016-11-05T09:56:59Z</time>
      </trkpt>
      <trkpt lat="45.98189" lon="4.81329">
        <ele>247</ele>
        <time>2016-11-05T09:57:01Z</time>
      </trkpt>
      <trkpt lat="45.9819" lon="4.81334">
        <ele>248</ele>
        <time>2016-11-05T09:57:02Z</time>
      </trkpt>
      <trkpt lat="45.98193" lon="4.81344">
        <ele>248</ele>
        <time>2016-11-05T09:57:04Z</time>
      </trkpt>
      <trkpt lat="45.98194" lon="4.81349">
        <ele>248</ele>
        <time>2016-11-05T09:57:05Z</time>
      </trkpt>
      <trkpt lat="45.98196" lon="4.8136">
        <ele>248</ele>
        <time>2016-11-05T09:57:07Z</time>
      </trkpt>
      <trkpt lat="45.98197" lon="4.81366">
        <ele>248</ele>
        <time>2016-11-05T09:57:08Z</time>
      </trkpt>
      <trkpt lat="45.98199" lon="4.81377">
        <ele>248</ele>
        <time>2016-11-05T09:57:10Z</time>
      </trkpt>
      <trkpt lat="45.982" lon="4.81381">
        <ele>248</ele>
        <time>2016-11-05T09:57:11Z</time>
      </trkpt>
      <trkpt lat="45.98202" lon="4.81392">
        <ele>248</ele>
        <time>2016-11-05T09:57:13Z</time>
      </trkpt>
      <trkpt lat="45.98204" lon="4.81397">
        <ele>248</ele>
        <time>2016-11-05T09:57:14Z</time>
      </trkpt>
      <trkpt lat="45.98208" lon="4.81407">
        <ele>248</ele>
        <time>2016-11-05T09:57:16Z</time>
      </trkpt>
      <trkpt lat="45.9821" lon="4.81413">
        <ele>248</ele>
        <time>2016-11-05T09:57:17Z</time>
      </trkpt>
      <trkpt lat="45.98214" lon="4.81424">
        <ele>249</ele>
        <time>2016-11-05T09:57:19Z</time>
      </trkpt>
      <trkpt lat="45.98216" lon="4.81429">
        <ele>249</ele>
        <time>2016-11-05T09:57:20Z</time>
      </trkpt>
      <trkpt lat="45.98219" lon="4.8144">
        <ele>249</ele>
        <time>2016-11-05T09:57:22Z</time>
      </trkpt>
      <trkpt lat="45.98221" lon="4.81445">
        <ele>249</ele>
        <time>2016-11-05T09:57:23Z</time>
      </trkpt>
      <trkpt lat="45.98223" lon="4.8145">
        <ele>249</ele>
        <time>2016-11-05T09:57:24Z</time>
      </trkpt>
      <trkpt lat="45.98226" lon="4.81456">
        <ele>249</ele>
        <time>2016-11-05T09:57:25Z</time>
      </trkpt>
      <trkpt lat="45.98228" lon="4.81462">
        <ele>249</ele>
        <time>2016-11-05T09:57:26Z</time>
      </trkpt>
      <trkpt lat="45.98231" lon="4.81468">
        <ele>249</ele>
        <time>2016-11-05T09:57:27Z</time>
      </trkpt>
      <trkpt lat="45.98233" lon="4.81474">
        <ele>249</ele>
        <time>2016-11-05T09:57:28Z</time>
      </trkpt>
      <trkpt lat="45.98235" lon="4.81481">
        <ele>249</ele>
        <time>2016-11-05T09:57:29Z</time>
      </trkpt>
      <trkpt lat="45.98237" lon="4.81487">
        <ele>249</ele>
        <time>2016-11-05T09:57:30Z</time>
      </trkpt>
      <trkpt lat="45.98239" lon="4.81495">
        <ele>249</ele>
        <time>2016-11-05T09:57:31Z</time>
      </trkpt>
      <trkpt lat="45.98242" lon="4.81502">
        <ele>249</ele>
        <time>2016-11-05T09:57:32Z</time>
      </trkpt>
      <trkpt lat="45.98244" lon="4.81509">
        <ele>249</ele>
        <time>2016-11-05T09:57:33Z</time>
      </trkpt>
      <trkpt lat="45.98247" lon="4.81516">
        <ele>249</ele>
        <time>2016-11-05T09:57:34Z</time>
      </trkpt>
      <trkpt lat="45.98249" lon="4.81524">
        <ele>249</ele>
        <time>2016-11-05T09:57:35Z</time>
      </trkpt>
      <trkpt lat="45.98251" lon="4.81531">
        <ele>247</ele>
        <time>2016-11-05T09:57:36Z</time>
      </trkpt>
      <trkpt lat="45.98253" lon="4.81538">
        <ele>247</ele>
        <time>2016-11-05T09:57:37Z</time>
      </trkpt>
      <trkpt lat="45.98256" lon="4.81545">
        <ele>247</ele>
        <time>2016-11-05T09:57:38Z</time>
      </trkpt>
      <trkpt lat="45.98258" lon="4.81552">
        <ele>247</ele>
        <time>2016-11-05T09:57:39Z</time>
      </trkpt>
      <trkpt lat="45.98261" lon="4.81558">
        <ele>247</ele>
        <time>2016-11-05T09:57:40Z</time>
      </trkpt>
      <trkpt lat="45.98263" lon="4.81565">
        <ele>247</ele>
        <time>2016-11-05T09:57:41Z</time>
      </trkpt>
      <trkpt lat="45.98264" lon="4.81571">
        <ele>247</ele>
        <time>2016-11-05T09:57:42Z</time>
      </trkpt>
      <trkpt lat="45.98266" lon="4.81578">
        <ele>247</ele>
        <time>2016-11-05T09:57:43Z</time>
      </trkpt>
      <trkpt lat="45.98268" lon="4.81584">
        <ele>247</ele>
        <time>2016-11-05T09:57:44Z</time>
      </trkpt>
      <trkpt lat="45.98271" lon="4.81591">
        <ele>247</ele>
        <time>2016-11-05T09:57:45Z</time>
      </trkpt>
      <trkpt lat="45.98273" lon="4.81598">
        <ele>247</ele>
        <time>2016-11-05T09:57:46Z</time>
      </trkpt>
      <trkpt lat="45.98276" lon="4.81604">
        <ele>247</ele>
        <time>2016-11-05T09:57:47Z</time>
      </trkpt>
      <trkpt lat="45.98278" lon="4.81611">
        <ele>247</ele>
        <time>2016-11-05T09:57:48Z</time>
      </trkpt>
      <trkpt lat="45.98281" lon="4.81617">
        <ele>247</ele>
        <time>2016-11-05T09:57:49Z</time>
      </trkpt>
      <trkpt lat="45.98285" lon="4.81623">
        <ele>247</ele>
        <time>2016-11-05T09:57:50Z</time>
      </trkpt>
      <trkpt lat="45.98288" lon="4.81629">
        <ele>247</ele>
        <time>2016-11-05T09:57:51Z</time>
      </trkpt>
      <trkpt lat="45.98292" lon="4.81634">
        <ele>247</ele>
        <time>2016-11-05T09:57:52Z</time>
      </trkpt>
      <trkpt lat="45.98297" lon="4.81639">
        <ele>247</ele>
        <time>2016-11-05T09:57:53Z</time>
      </trkpt>
      <trkpt lat="45.98301" lon="4.81644">
        <ele>246</ele>
        <time>2016-11-05T09:57:54Z</time>
      </trkpt>
      <trkpt lat="45.98306" lon="4.81649">
        <ele>246</ele>
        <time>2016-11-05T09:57:55Z</time>
      </trkpt>
      <trkpt lat="45.98311" lon="4.81652">
        <ele>246</ele>
        <time>2016-11-05T09:57:56Z</time>
      </trkpt>
      <trkpt lat="45.98315" lon="4.81657">
        <ele>246</ele>
        <time>2016-11-05T09:57:57Z</time>
      </trkpt>
      <trkpt lat="45.9832" lon="4.8166">
        <ele>246</ele>
        <time>2016-11-05T09:57:58Z</time>
      </trkpt>
      <trkpt lat="45.98325" lon="4.81664">
        <ele>246</ele>
        <time>2016-11-05T09:57:59Z</time>
      </trkpt>
      <trkpt lat="45.9833" lon="4.81668">
        <ele>246</ele>
        <time>2016-11-05T09:58:00Z</time>
      </trkpt>
      <trkpt lat="45.98335" lon="4.81671">
        <ele>246</ele>
        <time>2016-11-05T09:58:01Z</time>
      </trkpt>
      <trkpt lat="45.98341" lon="4.81673">
        <ele>245</ele>
        <time>2016-11-05T09:58:02Z</time>
      </trkpt>
      <trkpt lat="45.98347" lon="4.81675">
        <ele>245</ele>
        <time>2016-11-05T09:58:03Z</time>
      </trkpt>
      <trkpt lat="45.98353" lon="4.81676">
        <ele>245</ele>
        <time>2016-11-05T09:58:04Z</time>
      </trkpt>
      <trkpt lat="45.98359" lon="4.81676">
        <ele>244</ele>
        <time>2016-11-05T09:58:05Z</time>
      </trkpt>
      <trkpt lat="45.98365" lon="4.81676">
        <ele>244</ele>
        <time>2016-11-05T09:58:06Z</time>
      </trkpt>
      <trkpt lat="45.98371" lon="4.81674">
        <ele>244</ele>
        <time>2016-11-05T09:58:07Z</time>
      </trkpt>
      <trkpt lat="45.98377" lon="4.81673">
        <ele>244</ele>
        <time>2016-11-05T09:58:08Z</time>
      </trkpt>
      <trkpt lat="45.98383" lon="4.81672">
        <ele>243</ele>
        <time>2016-11-05T09:58:09Z</time>
      </trkpt>
      <trkpt lat="45.98389" lon="4.8167">
        <ele>243</ele>
        <time>2016-11-05T09:58:10Z</time>
      </trkpt>
      <trkpt lat="45.98395" lon="4.81668">
        <ele>243</ele>
        <time>2016-11-05T09:58:11Z</time>
      </trkpt>
      <trkpt lat="45.98401" lon="4.81667">
        <ele>242</ele>
        <time>2016-11-05T09:58:12Z</time>
      </trkpt>
      <trkpt lat="45.98407" lon="4.81666">
        <ele>241</ele>
        <time>2016-11-05T09:58:13Z</time>
      </trkpt>
      <trkpt lat="45.98412" lon="4.81665">
        <ele>241</ele>
        <time>2016-11-05T09:58:14Z</time>
      </trkpt>
      <trkpt lat="45.98418" lon="4.81666">
        <ele>241</ele>
        <time>2016-11-05T09:58:15Z</time>
      </trkpt>
      <trkpt lat="45.98424" lon="4.81667">
        <ele>241</ele>
        <time>2016-11-05T09:58:16Z</time>
      </trkpt>
      <trkpt lat="45.98429" lon="4.81669">
        <ele>240</ele>
        <time>2016-11-05T09:58:17Z</time>
      </trkpt>
      <trkpt lat="45.98435" lon="4.81673">
        <ele>240</ele>
        <time>2016-11-05T09:58:18Z</time>
      </trkpt>
      <trkpt lat="45.9844" lon="4.81677">
        <ele>240</ele>
        <time>2016-11-05T09:58:19Z</time>
      </trkpt>
      <trkpt lat="45.98445" lon="4.81683">
        <ele>239</ele>
        <time>2016-11-05T09:58:20Z</time>
      </trkpt>
      <trkpt lat="45.98449" lon="4.81689">
        <ele>239</ele>
        <time>2016-11-05T09:58:21Z</time>
      </trkpt>
      <trkpt lat="45.98453" lon="4.81696">
        <ele>239</ele>
        <time>2016-11-05T09:58:22Z</time>
      </trkpt>
      <trkpt lat="45.98457" lon="4.81703">
        <ele>239</ele>
        <time>2016-11-05T09:58:23Z</time>
      </trkpt>
      <trkpt lat="45.98461" lon="4.81711">
        <ele>239</ele>
        <time>2016-11-05T09:58:24Z</time>
      </trkpt>
      <trkpt lat="45.98466" lon="4.81718">
        <ele>239</ele>
        <time>2016-11-05T09:58:25Z</time>
      </trkpt>
      <trkpt lat="45.98471" lon="4.81725">
        <ele>239</ele>
        <time>2016-11-05T09:58:26Z</time>
      </trkpt>
      <trkpt lat="45.98477" lon="4.81732">
        <ele>238</ele>
        <time>2016-11-05T09:58:27Z</time>
      </trkpt>
      <trkpt lat="45.98483" lon="4.81738">
        <ele>238</ele>
        <time>2016-11-05T09:58:28Z</time>
      </trkpt>
      <trkpt lat="45.9849" lon="4.81745">
        <ele>238</ele>
        <time>2016-11-05T09:58:29Z</time>
      </trkpt>
      <trkpt lat="45.98497" lon="4.81752">
        <ele>238</ele>
        <time>2016-11-05T09:58:30Z</time>
      </trkpt>
      <trkpt lat="45.98504" lon="4.8176">
        <ele>237</ele>
        <time>2016-11-05T09:58:31Z</time>
      </trkpt>
      <trkpt lat="45.9851" lon="4.81768">
        <ele>237</ele>
        <time>2016-11-05T09:58:32Z</time>
      </trkpt>
      <trkpt lat="45.98517" lon="4.81777">
        <ele>238</ele>
        <time>2016-11-05T09:58:33Z</time>
      </trkpt>
      <trkpt lat="45.98523" lon="4.81786">
        <ele>238</ele>
        <time>2016-11-05T09:58:34Z</time>
      </trkpt>
      <trkpt lat="45.98529" lon="4.81794">
        <ele>238</ele>
        <time>2016-11-05T09:58:35Z</time>
      </trkpt>
      <trkpt lat="45.98534" lon="4.818">
        <ele>238</ele>
        <time>2016-11-05T09:58:36Z</time>
      </trkpt>
      <trkpt lat="45.98539" lon="4.81806">
        <ele>238</ele>
        <time>2016-11-05T09:58:37Z</time>
      </trkpt>
      <trkpt lat="45.98544" lon="4.8181">
        <ele>238</ele>
        <time>2016-11-05T09:58:38Z</time>
      </trkpt>
      <trkpt lat="45.98549" lon="4.81812">
        <ele>238</ele>
        <time>2016-11-05T09:58:39Z</time>
      </trkpt>
      <trkpt lat="45.98555" lon="4.81811">
        <ele>238</ele>
        <time>2016-11-05T09:58:40Z</time>
      </trkpt>
      <trkpt lat="45.98559" lon="4.81807">
        <ele>238</ele>
        <time>2016-11-05T09:58:41Z</time>
      </trkpt>
      <trkpt lat="45.98564" lon="4.81802">
        <ele>238</ele>
        <time>2016-11-05T09:58:42Z</time>
      </trkpt>
      <trkpt lat="45.98567" lon="4.81797">
        <ele>238</ele>
        <time>2016-11-05T09:58:43Z</time>
      </trkpt>
      <trkpt lat="45.98571" lon="4.81791">
        <ele>238</ele>
        <time>2016-11-05T09:58:44Z</time>
      </trkpt>
      <trkpt lat="45.98575" lon="4.81786">
        <ele>238</ele>
        <time>2016-11-05T09:58:45Z</time>
      </trkpt>
      <trkpt lat="45.98579" lon="4.81781">
        <ele>238</ele>
        <time>2016-11-05T09:58:46Z</time>
      </trkpt>
      <trkpt lat="45.98583" lon="4.81776">
        <ele>237</ele>
        <time>2016-11-05T09:58:47Z</time>
      </trkpt>
      <trkpt lat="45.98588" lon="4.81771">
        <ele>238</ele>
        <time>2016-11-05T09:58:48Z</time>
      </trkpt>
      <trkpt lat="45.98593" lon="4.81768">
        <ele>238</ele>
        <time>2016-11-05T09:58:49Z</time>
      </trkpt>
      <trkpt lat="45.98599" lon="4.81765">
        <ele>238</ele>
        <time>2016-11-05T09:58:50Z</time>
      </trkpt>
      <trkpt lat="45.98605" lon="4.81762">
        <ele>238</ele>
        <time>2016-11-05T09:58:51Z</time>
      </trkpt>
      <trkpt lat="45.9861" lon="4.8176">
        <ele>238</ele>
        <time>2016-11-05T09:58:52Z</time>
      </trkpt>
      <trkpt lat="45.98616" lon="4.81759">
        <ele>238</ele>
        <time>2016-11-05T09:58:53Z</time>
      </trkpt>
      <trkpt lat="45.98621" lon="4.81757">
        <ele>238</ele>
        <time>2016-11-05T09:58:54Z</time>
      </trkpt>
      <trkpt lat="45.98626" lon="4.81756">
        <ele>238</ele>
        <time>2016-11-05T09:58:55Z</time>
      </trkpt>
      <trkpt lat="45.98631" lon="4.81754">
        <ele>238</ele>
        <time>2016-11-05T09:58:56Z</time>
      </trkpt>
      <trkpt lat="45.98637" lon="4.81752">
        <ele>238</ele>
        <time>2016-11-05T09:58:57Z</time>
      </trkpt>
      <trkpt lat="45.98641" lon="4.81751">
        <ele>238</ele>
        <time>2016-11-05T09:58:58Z</time>
      </trkpt>
      <trkpt lat="45.98647" lon="4.81749">
        <ele>237</ele>
        <time>2016-11-05T09:58:59Z</time>
      </trkpt>
      <trkpt lat="45.98652" lon="4.81748">
        <ele>237</ele>
        <time>2016-11-05T09:59:00Z</time>
      </trkpt>
      <trkpt lat="45.98657" lon="4.81746">
        <ele>237</ele>
        <time>2016-11-05T09:59:01Z</time>
      </trkpt>
      <trkpt lat="45.98662" lon="4.81745">
        <ele>238</ele>
        <time>2016-11-05T09:59:02Z</time>
      </trkpt>
      <trkpt lat="45.98667" lon="4.81743">
        <ele>238</ele>
        <time>2016-11-05T09:59:03Z</time>
      </trkpt>
      <trkpt lat="45.98672" lon="4.81742">
        <ele>238</ele>
        <time>2016-11-05T09:59:04Z</time>
      </trkpt>
      <trkpt lat="45.98677" lon="4.8174">
        <ele>238</ele>
        <time>2016-11-05T09:59:05Z</time>
      </trkpt>
      <trkpt lat="45.98682" lon="4.81738">
        <ele>238</ele>
        <time>2016-11-05T09:59:06Z</time>
      </trkpt>
      <trkpt lat="45.98687" lon="4.81736">
        <ele>238</ele>
        <time>2016-11-05T09:59:07Z</time>
      </trkpt>
      <trkpt lat="45.98692" lon="4.81735">
        <ele>238</ele>
        <time>2016-11-05T09:59:08Z</time>
      </trkpt>
      <trkpt lat="45.98697" lon="4.81733">
        <ele>239</ele>
        <time>2016-11-05T09:59:09Z</time>
      </trkpt>
      <trkpt lat="45.98701" lon="4.81732">
        <ele>239</ele>
        <time>2016-11-05T09:59:10Z</time>
      </trkpt>
      <trkpt lat="45.98706" lon="4.81731">
        <ele>239</ele>
        <time>2016-11-05T09:59:11Z</time>
      </trkpt>
      <trkpt lat="45.98711" lon="4.8173">
        <ele>239</ele>
        <time>2016-11-05T09:59:12Z</time>
      </trkpt>
      <trkpt lat="45.98717" lon="4.8173">
        <ele>239</ele>
        <time>2016-11-05T09:59:13Z</time>
      </trkpt>
      <trkpt lat="45.98722" lon="4.81731">
        <ele>239</ele>
        <time>2016-11-05T09:59:14Z</time>
      </trkpt>
      <trkpt lat="45.98726" lon="4.81733">
        <ele>239</ele>
        <time>2016-11-05T09:59:15Z</time>
      </trkpt>
      <trkpt lat="45.9873" lon="4.81737">
        <ele>239</ele>
        <time>2016-11-05T09:59:16Z</time>
      </trkpt>
      <trkpt lat="45.98733" lon="4.81742">
        <ele>240</ele>
        <time>2016-11-05T09:59:17Z</time>
      </trkpt>
      <trkpt lat="45.98736" lon="4.81748">
        <ele>240</ele>
        <time>2016-11-05T09:59:18Z</time>
      </trkpt>
      <trkpt lat="45.98739" lon="4.81755">
        <ele>240</ele>
        <time>2016-11-05T09:59:19Z</time>
      </trkpt>
      <trkpt lat="45.98742" lon="4.81762">
        <ele>240</ele>
        <time>2016-11-05T09:59:20Z</time>
      </trkpt>
      <trkpt lat="45.98745" lon="4.81769">
        <ele>240</ele>
        <time>2016-11-05T09:59:21Z</time>
      </trkpt>
      <trkpt lat="45.98748" lon="4.81775">
        <ele>240</ele>
        <time>2016-11-05T09:59:22Z</time>
      </trkpt>
      <trkpt lat="45.98751" lon="4.81782">
        <ele>241</ele>
        <time>2016-11-05T09:59:23Z</time>
      </trkpt>
      <trkpt lat="45.98754" lon="4.81788">
        <ele>241</ele>
        <time>2016-11-05T09:59:24Z</time>
      </trkpt>
      <trkpt lat="45.98757" lon="4.81795">
        <ele>240</ele>
        <time>2016-11-05T09:59:25Z</time>
      </trkpt>
      <trkpt lat="45.9876" lon="4.81802">
        <ele>240</ele>
        <time>2016-11-05T09:59:26Z</time>
      </trkpt>
      <trkpt lat="45.98765" lon="4.81808">
        <ele>240</ele>
        <time>2016-11-05T09:59:27Z</time>
      </trkpt>
      <trkpt lat="45.98768" lon="4.81815">
        <ele>240</ele>
        <time>2016-11-05T09:59:28Z</time>
      </trkpt>
      <trkpt lat="45.98771" lon="4.81823">
        <ele>240</ele>
        <time>2016-11-05T09:59:29Z</time>
      </trkpt>
      <trkpt lat="45.98775" lon="4.8183">
        <ele>240</ele>
        <time>2016-11-05T09:59:30Z</time>
      </trkpt>
      <trkpt lat="45.98779" lon="4.81837">
        <ele>239</ele>
        <time>2016-11-05T09:59:31Z</time>
      </trkpt>
      <trkpt lat="45.98782" lon="4.81845">
        <ele>239</ele>
        <time>2016-11-05T09:59:32Z</time>
      </trkpt>
      <trkpt lat="45.98785" lon="4.81853">
        <ele>239</ele>
        <time>2016-11-05T09:59:33Z</time>
      </trkpt>
      <trkpt lat="45.98789" lon="4.81861">
        <ele>239</ele>
        <time>2016-11-05T09:59:34Z</time>
      </trkpt>
      <trkpt lat="45.98792" lon="4.81869">
        <ele>239</ele>
        <time>2016-11-05T09:59:35Z</time>
      </trkpt>
      <trkpt lat="45.98795" lon="4.81878">
        <ele>239</ele>
        <time>2016-11-05T09:59:36Z</time>
      </trkpt>
      <trkpt lat="45.98797" lon="4.81887">
        <ele>239</ele>
        <time>2016-11-05T09:59:37Z</time>
      </trkpt>
      <trkpt lat="45.988" lon="4.81896">
        <ele>239</ele>
        <time>2016-11-05T09:59:38Z</time>
      </trkpt>
      <trkpt lat="45.98802" lon="4.81904">
        <ele>239</ele>
        <time>2016-11-05T09:59:39Z</time>
      </trkpt>
      <trkpt lat="45.98804" lon="4.81913">
        <ele>239</ele>
        <time>2016-11-05T09:59:40Z</time>
      </trkpt>
      <trkpt lat="45.98805" lon="4.81922">
        <ele>239</ele>
        <time>2016-11-05T09:59:41Z</time>
      </trkpt>
      <trkpt lat="45.98807" lon="4.8193">
        <ele>239</ele>
        <time>2016-11-05T09:59:42Z</time>
      </trkpt>
      <trkpt lat="45.98808" lon="4.81939">
        <ele>239</ele>
        <time>2016-11-05T09:59:43Z</time>
      </trkpt>
      <trkpt lat="45.9881" lon="4.81947">
        <ele>239</ele>
        <time>2016-11-05T09:59:44Z</time>
      </trkpt>
      <trkpt lat="45.98811" lon="4.81955">
        <ele>239</ele>
        <time>2016-11-05T09:59:45Z</time>
      </trkpt>
      <trkpt lat="45.98812" lon="4.81963">
        <ele>239</ele>
        <time>2016-11-05T09:59:46Z</time>
      </trkpt>
      <trkpt lat="45.98814" lon="4.81971">
        <ele>239</ele>
        <time>2016-11-05T09:59:47Z</time>
      </trkpt>
      <trkpt lat="45.98815" lon="4.81979">
        <ele>239</ele>
        <time>2016-11-05T09:59:48Z</time>
      </trkpt>
      <trkpt lat="45.98817" lon="4.81987">
        <ele>238</ele>
        <time>2016-11-05T09:59:49Z</time>
      </trkpt>
      <trkpt lat="45.98818" lon="4.81996">
        <ele>238</ele>
        <time>2016-11-05T09:59:50Z</time>
      </trkpt>
      <trkpt lat="45.98819" lon="4.82003">
        <ele>238</ele>
        <time>2016-11-05T09:59:51Z</time>
      </trkpt>
      <trkpt lat="45.9882" lon="4.82011">
        <ele>238</ele>
        <time>2016-11-05T09:59:52Z</time>
      </trkpt>
      <trkpt lat="45.98822" lon="4.82019">
        <ele>238</ele>
        <time>2016-11-05T09:59:53Z</time>
      </trkpt>
      <trkpt lat="45.98823" lon="4.82027">
        <ele>238</ele>
        <time>2016-11-05T09:59:54Z</time>
      </trkpt>
      <trkpt lat="45.98824" lon="4.82035">
        <ele>238</ele>
        <time>2016-11-05T09:59:55Z</time>
      </trkpt>
      <trkpt lat="45.98825" lon="4.82043">
        <ele>238</ele>
        <time>2016-11-05T09:59:56Z</time>
      </trkpt>
      <trkpt lat="45.98826" lon="4.82051">
        <ele>237</ele>
        <time>2016-11-05T09:59:57Z</time>
      </trkpt>
      <trkpt lat="45.98827" lon="4.82059">
        <ele>237</ele>
        <time>2016-11-05T09:59:58Z</time>
      </trkpt>
      <trkpt lat="45.98828" lon="4.82066">
        <ele>237</ele>
        <time>2016-11-05T09:59:59Z</time>
      </trkpt>
      <trkpt lat="45.9883" lon="4.82074">
        <ele>237</ele>
        <time>2016-11-05T10:00:00Z</time>
      </trkpt>
      <trkpt lat="45.98831" lon="4.82083">
        <ele>236</ele>
        <time>2016-11-05T10:00:01Z</time>
      </trkpt>
      <trkpt lat="45.98833" lon="4.82091">
        <ele>236</ele>
        <time>2016-11-05T10:00:02Z</time>
      </trkpt>
      <trkpt lat="45.98834" lon="4.82099">
        <ele>236</ele>
        <time>2016-11-05T10:00:03Z</time>
      </trkpt>
      <trkpt lat="45.98835" lon="4.82107">
        <ele>236</ele>
        <time>2016-11-05T10:00:04Z</time>
      </trkpt>
      <trkpt lat="45.98837" lon="4.82115">
        <ele>235</ele>
        <time>2016-11-05T10:00:05Z</time>
      </trkpt>
      <trkpt lat="45.98838" lon="4.82123">
        <ele>236</ele>
        <time>2016-11-05T10:00:06Z</time>
      </trkpt>
      <trkpt lat="45.9884" lon="4.82131">
        <ele>236</ele>
        <time>2016-11-05T10:00:07Z</time>
      </trkpt>
      <trkpt lat="45.98842" lon="4.82138">
        <ele>236</ele>
        <time>2016-11-05T10:00:08Z</time>
      </trkpt>
      <trkpt lat="45.98843" lon="4.82145">
        <ele>236</ele>
        <time>2016-11-05T10:00:09Z</time>
      </trkpt>
      <trkpt lat="45.98845" lon="4.82152">
        <ele>236</ele>
        <time>2016-11-05T10:00:10Z</time>
      </trkpt>
      <trkpt lat="45.98847" lon="4.82159">
        <ele>236</ele>
        <time>2016-11-05T10:00:11Z</time>
      </trkpt>
      <trkpt lat="45.98849" lon="4.82167">
        <ele>236</ele>
        <time>2016-11-05T10:00:12Z</time>
      </trkpt>
      <trkpt lat="45.98851" lon="4.82175">
        <ele>236</ele>
        <time>2016-11-05T10:00:13Z</time>
      </trkpt>
      <trkpt lat="45.98852" lon="4.82183">
        <ele>236</ele>
        <time>2016-11-05T10:00:14Z</time>
      </trkpt>
      <trkpt lat="45.98854" lon="4.82191">
        <ele>236</ele>
        <time>2016-11-05T10:00:15Z</time>
      </trkpt>
      <trkpt lat="45.98855" lon="4.822">
        <ele>236</ele>
        <time>2016-11-05T10:00:16Z</time>
      </trkpt>
      <trkpt lat="45.98861" lon="4.82208">
        <ele>236</ele>
        <time>2016-11-05T10:00:17Z</time>
      </trkpt>
      <trkpt lat="45.98884" lon="4.82241">
        <ele>236</ele>
        <time>2016-11-05T10:00:22Z</time>
      </trkpt>
      <trkpt lat="45.98886" lon="4.82247">
        <ele>235</ele>
        <time>2016-11-05T10:00:23Z</time>
      </trkpt>
      <trkpt lat="45.98889" lon="4.82254">
        <ele>236</ele>
        <time>2016-11-05T10:00:24Z</time>
      </trkpt>
      <trkpt lat="45.98892" lon="4.8226">
        <ele>236</ele>
        <time>2016-11-05T10:00:25Z</time>
      </trkpt>
      <trkpt lat="45.98895" lon="4.82266">
        <ele>236</ele>
        <time>2016-11-05T10:00:26Z</time>
      </trkpt>
      <trkpt lat="45.98898" lon="4.82272">
        <ele>236</ele>
        <time>2016-11-05T10:00:27Z</time>
      </trkpt>
      <trkpt lat="45.98902" lon="4.82277">
        <ele>236</ele>
        <time>2016-11-05T10:00:28Z</time>
      </trkpt>
      <trkpt lat="45.98906" lon="4.82283">
        <ele>236</ele>
        <time>2016-11-05T10:00:29Z</time>
      </trkpt>
      <trkpt lat="45.9891" lon="4.82288">
        <ele>236</ele>
        <time>2016-11-05T10:00:30Z</time>
      </trkpt>
      <trkpt lat="45.98915" lon="4.82294">
        <ele>236</ele>
        <time>2016-11-05T10:00:31Z</time>
      </trkpt>
      <trkpt lat="45.98919" lon="4.82299">
        <ele>234</ele>
        <time>2016-11-05T10:00:32Z</time>
      </trkpt>
      <trkpt lat="45.98924" lon="4.82304">
        <ele>234</ele>
        <time>2016-11-05T10:00:33Z</time>
      </trkpt>
      <trkpt lat="45.98928" lon="4.82309">
        <ele>234</ele>
        <time>2016-11-05T10:00:34Z</time>
      </trkpt>
      <trkpt lat="45.98946" lon="4.82328">
        <ele>234</ele>
        <time>2016-11-05T10:00:38Z</time>
      </trkpt>
      <trkpt lat="45.98953" lon="4.82343">
        <ele>235</ele>
        <time>2016-11-05T10:00:40Z</time>
      </trkpt>
      <trkpt lat="45.98956" lon="4.8235">
        <ele>235</ele>
        <time>2016-11-05T10:00:41Z</time>
      </trkpt>
      <trkpt lat="45.98961" lon="4.82368">
        <ele>235</ele>
        <time>2016-11-05T10:00:43Z</time>
      </trkpt>
      <trkpt lat="45.98963" lon="4.82376">
        <ele>235</ele>
        <time>2016-11-05T10:00:44Z</time>
      </trkpt>
      <trkpt lat="45.98965" lon="4.82384">
        <ele>235</ele>
        <time>2016-11-05T10:00:45Z</time>
      </trkpt>
      <trkpt lat="45.98968" lon="4.824">
        <ele>235</ele>
        <time>2016-11-05T10:00:47Z</time>
      </trkpt>
      <trkpt lat="45.9897" lon="4.82408">
        <ele>235</ele>
        <time>2016-11-05T10:00:48Z</time>
      </trkpt>
      <trkpt lat="45.98972" lon="4.82416">
        <ele>235</ele>
        <time>2016-11-05T10:00:49Z</time>
      </trkpt>
      <trkpt lat="45.98974" lon="4.82424">
        <ele>236</ele>
        <time>2016-11-05T10:00:50Z</time>
      </trkpt>
      <trkpt lat="45.98976" lon="4.82432">
        <ele>236</ele>
        <time>2016-11-05T10:00:51Z</time>
      </trkpt>
      <trkpt lat="45.98977" lon="4.8244">
        <ele>236</ele>
        <time>2016-11-05T10:00:52Z</time>
      </trkpt>
      <trkpt lat="45.98979" lon="4.82449">
        <ele>236</ele>
        <time>2016-11-05T10:00:53Z</time>
      </trkpt>
      <trkpt lat="45.98981" lon="4.82457">
        <ele>236</ele>
        <time>2016-11-05T10:00:54Z</time>
      </trkpt>
      <trkpt lat="45.98983" lon="4.82464">
        <ele>236</ele>
        <time>2016-11-05T10:00:55Z</time>
      </trkpt>
      <trkpt lat="45.98986" lon="4.82472">
        <ele>236</ele>
        <time>2016-11-05T10:00:56Z</time>
      </trkpt>
      <trkpt lat="45.98988" lon="4.82479">
        <ele>236</ele>
        <time>2016-11-05T10:00:57Z</time>
      </trkpt>
      <trkpt lat="45.98991" lon="4.82487">
        <ele>236</ele>
        <time>2016-11-05T10:00:58Z</time>
      </trkpt>
      <trkpt lat="45.98993" lon="4.82494">
        <ele>236</ele>
        <time>2016-11-05T10:00:59Z</time>
      </trkpt>
      <trkpt lat="45.98996" lon="4.82502">
        <ele>236</ele>
        <time>2016-11-05T10:01:00Z</time>
      </trkpt>
      <trkpt lat="45.98999" lon="4.82509">
        <ele>236</ele>
        <time>2016-11-05T10:01:01Z</time>
      </trkpt>
      <trkpt lat="45.99002" lon="4.82516">
        <ele>235</ele>
        <time>2016-11-05T10:01:02Z</time>
      </trkpt>
      <trkpt lat="45.99006" lon="4.82523">
        <ele>235</ele>
        <time>2016-11-05T10:01:03Z</time>
      </trkpt>
      <trkpt lat="45.9901" lon="4.8253">
        <ele>235</ele>
        <time>2016-11-05T10:01:04Z</time>
      </trkpt>
      <trkpt lat="45.99014" lon="4.82536">
        <ele>235</ele>
        <time>2016-11-05T10:01:05Z</time>
      </trkpt>
      <trkpt lat="45.99018" lon="4.82543">
        <ele>235</ele>
        <time>2016-11-05T10:01:06Z</time>
      </trkpt>
      <trkpt lat="45.99023" lon="4.82549">
        <ele>235</ele>
        <time>2016-11-05T10:01:07Z</time>
      </trkpt>
      <trkpt lat="45.99028" lon="4.82553">
        <ele>235</ele>
        <time>2016-11-05T10:01:08Z</time>
      </trkpt>
      <trkpt lat="45.99033" lon="4.82557">
        <ele>235</ele>
        <time>2016-11-05T10:01:09Z</time>
      </trkpt>
      <trkpt lat="45.99039" lon="4.82561">
        <ele>235</ele>
        <time>2016-11-05T10:01:10Z</time>
      </trkpt>
      <trkpt lat="45.99045" lon="4.82565">
        <ele>235</ele>
        <time>2016-11-05T10:01:11Z</time>
      </trkpt>
      <trkpt lat="45.99051" lon="4.82567">
        <ele>235</ele>
        <time>2016-11-05T10:01:12Z</time>
      </trkpt>
      <trkpt lat="45.99057" lon="4.82569">
        <ele>235</ele>
        <time>2016-11-05T10:01:13Z</time>
      </trkpt>
      <trkpt lat="45.99062" lon="4.8257">
        <ele>235</ele>
        <time>2016-11-05T10:01:14Z</time>
      </trkpt>
      <trkpt lat="45.99067" lon="4.82572">
        <ele>235</ele>
        <time>2016-11-05T10:01:15Z</time>
      </trkpt>
      <trkpt lat="45.99074" lon="4.8258">
        <ele>235</ele>
        <time>2016-11-05T10:01:17Z</time>
      </trkpt>
      <trkpt lat="45.99075" lon="4.82585">
        <ele>235</ele>
        <time>2016-11-05T10:01:18Z</time>
      </trkpt>
      <trkpt lat="45.99073" lon="4.82594">
        <ele>235</ele>
        <time>2016-11-05T10:01:20Z</time>
      </trkpt>
      <trkpt lat="45.99071" lon="4.82599">
        <ele>235</ele>
        <time>2016-11-05T10:01:21Z</time>
      </trkpt>
      <trkpt lat="45.99066" lon="4.82608">
        <ele>236</ele>
        <time>2016-11-05T10:01:23Z</time>
      </trkpt>
      <trkpt lat="45.99064" lon="4.82613">
        <ele>236</ele>
        <time>2016-11-05T10:01:24Z</time>
      </trkpt>
      <trkpt lat="45.99061" lon="4.82622">
        <ele>236</ele>
        <time>2016-11-05T10:01:26Z</time>
      </trkpt>
      <trkpt lat="45.99059" lon="4.82627">
        <ele>236</ele>
        <time>2016-11-05T10:01:27Z</time>
      </trkpt>
      <trkpt lat="45.99054" lon="4.82635">
        <ele>236</ele>
        <time>2016-11-05T10:01:29Z</time>
      </trkpt>
      <trkpt lat="45.99052" lon="4.8264">
        <ele>236</ele>
        <time>2016-11-05T10:01:30Z</time>
      </trkpt>
      <trkpt lat="45.99048" lon="4.82649">
        <ele>236</ele>
        <time>2016-11-05T10:01:32Z</time>
      </trkpt>
      <trkpt lat="45.99046" lon="4.82653">
        <ele>236</ele>
        <time>2016-11-05T10:01:33Z</time>
      </trkpt>
      <trkpt lat="45.99042" lon="4.82662">
        <ele>236</ele>
        <time>2016-11-05T10:01:35Z</time>
      </trkpt>
      <trkpt lat="45.9904" lon="4.82666">
        <ele>236</ele>
        <time>2016-11-05T10:01:36Z</time>
      </trkpt>
      <trkpt lat="45.99036" lon="4.82674">
        <ele>238</ele>
        <time>2016-11-05T10:01:38Z</time>
      </trkpt>
      <trkpt lat="45.99034" lon="4.82679">
        <ele>238</ele>
        <time>2016-11-05T10:01:39Z</time>
      </trkpt>
      <trkpt lat="45.9903" lon="4.82688">
        <ele>238</ele>
        <time>2016-11-05T10:01:41Z</time>
      </trkpt>
      <trkpt lat="45.99028" lon="4.82692">
        <ele>238</ele>
        <time>2016-11-05T10:01:42Z</time>
      </trkpt>
      <trkpt lat="45.99024" lon="4.827">
        <ele>238</ele>
        <time>2016-11-05T10:01:44Z</time>
      </trkpt>
      <trkpt lat="45.99023" lon="4.82704">
        <ele>238</ele>
        <time>2016-11-05T10:01:45Z</time>
      </trkpt>
      <trkpt lat="45.99019" lon="4.82712">
        <ele>239</ele>
        <time>2016-11-05T10:01:47Z</time>
      </trkpt>
      <trkpt lat="45.99018" lon="4.82716">
        <ele>239</ele>
        <time>2016-11-05T10:01:48Z</time>
      </trkpt>
      <trkpt lat="45.99014" lon="4.82723">
        <ele>239</ele>
        <time>2016-11-05T10:01:50Z</time>
      </trkpt>
      <trkpt lat="45.99012" lon="4.82728">
        <ele>239</ele>
        <time>2016-11-05T10:01:51Z</time>
      </trkpt>
      <trkpt lat="45.99008" lon="4.82735">
        <ele>240</ele>
        <time>2016-11-05T10:01:53Z</time>
      </trkpt>
      <trkpt lat="45.99007" lon="4.82739">
        <ele>240</ele>
        <time>2016-11-05T10:01:54Z</time>
      </trkpt>
      <trkpt lat="45.99004" lon="4.82747">
        <ele>240</ele>
        <time>2016-11-05T10:01:56Z</time>
      </trkpt>
      <trkpt lat="45.99003" lon="4.82751">
        <ele>241</ele>
        <time>2016-11-05T10:01:57Z</time>
      </trkpt>
      <trkpt lat="45.98998" lon="4.82761">
        <ele>244</ele>
        <time>2016-11-05T10:02:00Z</time>
      </trkpt>
      <trkpt lat="45.98996" lon="4.82764">
        <ele>244</ele>
        <time>2016-11-05T10:02:01Z</time>
      </trkpt>
      <trkpt lat="45.98994" lon="4.82772">
        <ele>245</ele>
        <time>2016-11-05T10:02:03Z</time>
      </trkpt>
      <trkpt lat="45.98992" lon="4.82776">
        <ele>246</ele>
        <time>2016-11-05T10:02:04Z</time>
      </trkpt>
      <trkpt lat="45.98988" lon="4.82787">
        <ele>247</ele>
        <time>2016-11-05T10:02:07Z</time>
      </trkpt>
      <trkpt lat="45.98986" lon="4.8279">
        <ele>247</ele>
        <time>2016-11-05T10:02:08Z</time>
      </trkpt>
      <trkpt lat="45.98982" lon="4.82801">
        <ele>248</ele>
        <time>2016-11-05T10:02:11Z</time>
      </trkpt>
      <trkpt lat="45.98981" lon="4.82804">
        <ele>248</ele>
        <time>2016-11-05T10:02:12Z</time>
      </trkpt>
      <trkpt lat="45.98975" lon="4.82813">
        <ele>248</ele>
        <time>2016-11-05T10:02:15Z</time>
      </trkpt>
      <trkpt lat="45.98973" lon="4.82817">
        <ele>249</ele>
        <time>2016-11-05T10:02:16Z</time>
      </trkpt>
      <trkpt lat="45.9897" lon="4.82827">
        <ele>249</ele>
        <time>2016-11-05T10:02:19Z</time>
      </trkpt>
      <trkpt lat="45.98969" lon="4.8283">
        <ele>249</ele>
        <time>2016-11-05T10:02:20Z</time>
      </trkpt>
      <trkpt lat="45.98965" lon="4.82838">
        <ele>252</ele>
        <time>2016-11-05T10:02:23Z</time>
      </trkpt>
      <trkpt lat="45.98963" lon="4.82841">
        <ele>252</ele>
        <time>2016-11-05T10:02:24Z</time>
      </trkpt>
      <trkpt lat="45.98959" lon="4.82852">
        <ele>252</ele>
        <time>2016-11-05T10:02:27Z</time>
      </trkpt>
      <trkpt lat="45.98958" lon="4.82855">
        <ele>252</ele>
        <time>2016-11-05T10:02:28Z</time>
      </trkpt>
      <trkpt lat="45.98954" lon="4.82863">
        <ele>252</ele>
        <time>2016-11-05T10:02:31Z</time>
      </trkpt>
      <trkpt lat="45.98952" lon="4.82866">
        <ele>253</ele>
        <time>2016-11-05T10:02:32Z</time>
      </trkpt>
      <trkpt lat="45.98949" lon="4.82877">
        <ele>253</ele>
        <time>2016-11-05T10:02:36Z</time>
      </trkpt>
      <trkpt lat="45.98948" lon="4.8288">
        <ele>253</ele>
        <time>2016-11-05T10:02:37Z</time>
      </trkpt>
      <trkpt lat="45.98943" lon="4.82889">
        <ele>253</ele>
        <time>2016-11-05T10:02:41Z</time>
      </trkpt>
      <trkpt lat="45.98941" lon="4.82891">
        <ele>253</ele>
        <time>2016-11-05T10:02:42Z</time>
      </trkpt>
      <trkpt lat="45.98937" lon="4.82899">
        <ele>253</ele>
        <time>2016-11-05T10:02:45Z</time>
      </trkpt>
      <trkpt lat="45.98936" lon="4.82902">
        <ele>254</ele>
        <time>2016-11-05T10:02:46Z</time>
      </trkpt>
      <trkpt lat="45.98931" lon="4.82911">
        <ele>254</ele>
        <time>2016-11-05T10:02:49Z</time>
      </trkpt>
      <trkpt lat="45.9893" lon="4.82914">
        <ele>254</ele>
        <time>2016-11-05T10:02:50Z</time>
      </trkpt>
      <trkpt lat="45.98927" lon="4.82925">
        <ele>255</ele>
        <time>2016-11-05T10:02:53Z</time>
      </trkpt>
      <trkpt lat="45.98926" lon="4.82929">
        <ele>255</ele>
        <time>2016-11-05T10:02:54Z</time>
      </trkpt>
      <trkpt lat="45.98921" lon="4.82939">
        <ele>255</ele>
        <time>2016-11-05T10:02:58Z</time>
      </trkpt>
      <trkpt lat="45.9892" lon="4.82943">
        <ele>255</ele>
        <time>2016-11-05T10:02:59Z</time>
      </trkpt>
      <trkpt lat="45.98916" lon="4.82951">
        <ele>258</ele>
        <time>2016-11-05T10:03:02Z</time>
      </trkpt>
      <trkpt lat="45.98914" lon="4.82954">
        <ele>258</ele>
        <time>2016-11-05T10:03:03Z</time>
      </trkpt>
      <trkpt lat="45.98908" lon="4.82962">
        <ele>259</ele>
        <time>2016-11-05T10:03:06Z</time>
      </trkpt>
      <trkpt lat="45.98907" lon="4.82965">
        <ele>259</ele>
        <time>2016-11-05T10:03:07Z</time>
      </trkpt>
      <trkpt lat="45.98899" lon="4.82972">
        <ele>259</ele>
        <time>2016-11-05T10:03:10Z</time>
      </trkpt>
      <trkpt lat="45.98897" lon="4.82974">
        <ele>259</ele>
        <time>2016-11-05T10:03:11Z</time>
      </trkpt>
      <trkpt lat="45.9889" lon="4.8298">
        <ele>259</ele>
        <time>2016-11-05T10:03:14Z</time>
      </trkpt>
      <trkpt lat="45.98888" lon="4.82981">
        <ele>259</ele>
        <time>2016-11-05T10:03:15Z</time>
      </trkpt>
      <trkpt lat="45.98881" lon="4.82988">
        <ele>260</ele>
        <time>2016-11-05T10:03:18Z</time>
      </trkpt>
      <trkpt lat="45.98879" lon="4.82991">
        <ele>260</ele>
        <time>2016-11-05T10:03:19Z</time>
      </trkpt>
      <trkpt lat="45.98871" lon="4.82995">
        <ele>260</ele>
        <time>2016-11-05T10:03:22Z</time>
      </trkpt>
      <trkpt lat="45.98868" lon="4.82997">
        <ele>260</ele>
        <time>2016-11-05T10:03:23Z</time>
      </trkpt>
      <trkpt lat="45.98862" lon="4.83002">
        <ele>260</ele>
        <time>2016-11-05T10:03:26Z</time>
      </trkpt>
      <trkpt lat="45.9886" lon="4.83003">
        <ele>261</ele>
        <time>2016-11-05T10:03:27Z</time>
      </trkpt>
      <trkpt lat="45.98854" lon="4.83008">
        <ele>261</ele>
        <time>2016-11-05T10:03:30Z</time>
      </trkpt>
      <trkpt lat="45.98851" lon="4.83009">
        <ele>261</ele>
        <time>2016-11-05T10:03:31Z</time>
      </trkpt>
      <trkpt lat="45.98844" lon="4.83013">
        <ele>261</ele>
        <time>2016-11-05T10:03:34Z</time>
      </trkpt>
      <trkpt lat="45.98841" lon="4.83014">
        <ele>261</ele>
        <time>2016-11-05T10:03:35Z</time>
      </trkpt>
      <trkpt lat="45.98836" lon="4.83018">
        <ele>261</ele>
        <time>2016-11-05T10:03:37Z</time>
      </trkpt>
      <trkpt lat="45.98833" lon="4.8302">
        <ele>264</ele>
        <time>2016-11-05T10:03:38Z</time>
      </trkpt>
      <trkpt lat="45.98828" lon="4.83024">
        <ele>264</ele>
        <time>2016-11-05T10:03:40Z</time>
      </trkpt>
      <trkpt lat="45.98825" lon="4.83026">
        <ele>264</ele>
        <time>2016-11-05T10:03:41Z</time>
      </trkpt>
      <trkpt lat="45.98819" lon="4.8303">
        <ele>264</ele>
        <time>2016-11-05T10:03:43Z</time>
      </trkpt>
      <trkpt lat="45.98816" lon="4.83032">
        <ele>264</ele>
        <time>2016-11-05T10:03:44Z</time>
      </trkpt>
      <trkpt lat="45.98809" lon="4.8304">
        <ele>264</ele>
        <time>2016-11-05T10:03:47Z</time>
      </trkpt>
      <trkpt lat="45.98807" lon="4.83042">
        <ele>264</ele>
        <time>2016-11-05T10:03:48Z</time>
      </trkpt>
      <trkpt lat="45.988" lon="4.83046">
        <ele>264</ele>
        <time>2016-11-05T10:03:51Z</time>
      </trkpt>
      <trkpt lat="45.98798" lon="4.83048">
        <ele>264</ele>
        <time>2016-11-05T10:03:52Z</time>
      </trkpt>
      <trkpt lat="45.98792" lon="4.83051">
        <ele>265</ele>
        <time>2016-11-05T10:03:54Z</time>
      </trkpt>
      <trkpt lat="45.98789" lon="4.83054">
        <ele>265</ele>
        <time>2016-11-05T10:03:55Z</time>
      </trkpt>
      <trkpt lat="45.98783" lon="4.83059">
        <ele>265</ele>
        <time>2016-11-05T10:03:57Z</time>
      </trkpt>
      <trkpt lat="45.98781" lon="4.83061">
        <ele>265</ele>
        <time>2016-11-05T10:03:58Z</time>
      </trkpt>
      <trkpt lat="45.98773" lon="4.83068">
        <ele>265</ele>
        <time>2016-11-05T10:04:01Z</time>
      </trkpt>
      <trkpt lat="45.98771" lon="4.8307">
        <ele>265</ele>
        <time>2016-11-05T10:04:02Z</time>
      </trkpt>
      <trkpt lat="45.98764" lon="4.83077">
        <ele>266</ele>
        <time>2016-11-05T10:04:05Z</time>
      </trkpt>
      <trkpt lat="45.98761" lon="4.83079">
        <ele>266</ele>
        <time>2016-11-05T10:04:06Z</time>
      </trkpt>
      <trkpt lat="45.98754" lon="4.83086">
        <ele>266</ele>
        <time>2016-11-05T10:04:09Z</time>
      </trkpt>
      <trkpt lat="45.98752" lon="4.83089">
        <ele>266</ele>
        <time>2016-11-05T10:04:10Z</time>
      </trkpt>
      <trkpt lat="45.98747" lon="4.83093">
        <ele>267</ele>
        <time>2016-11-05T10:04:12Z</time>
      </trkpt>
      <trkpt lat="45.98744" lon="4.83096">
        <ele>267</ele>
        <time>2016-11-05T10:04:13Z</time>
      </trkpt>
      <trkpt lat="45.98738" lon="4.83101">
        <ele>267</ele>
        <time>2016-11-05T10:04:15Z</time>
      </trkpt>
      <trkpt lat="45.98736" lon="4.83103">
        <ele>267</ele>
        <time>2016-11-05T10:04:16Z</time>
      </trkpt>
      <trkpt lat="45.9873" lon="4.83107">
        <ele>267</ele>
        <time>2016-11-05T10:04:18Z</time>
      </trkpt>
      <trkpt lat="45.98727" lon="4.8311">
        <ele>267</ele>
        <time>2016-11-05T10:04:19Z</time>
      </trkpt>
      <trkpt lat="45.98721" lon="4.83115">
        <ele>267</ele>
        <time>2016-11-05T10:04:21Z</time>
      </trkpt>
      <trkpt lat="45.98719" lon="4.83117">
        <ele>267</ele>
        <time>2016-11-05T10:04:22Z</time>
      </trkpt>
      <trkpt lat="45.98712" lon="4.83122">
        <ele>267</ele>
        <time>2016-11-05T10:04:24Z</time>
      </trkpt>
      <trkpt lat="45.98709" lon="4.83124">
        <ele>267</ele>
        <time>2016-11-05T10:04:25Z</time>
      </trkpt>
      <trkpt lat="45.98703" lon="4.83129">
        <ele>266</ele>
        <time>2016-11-05T10:04:27Z</time>
      </trkpt>
      <trkpt lat="45.987" lon="4.83131">
        <ele>266</ele>
        <time>2016-11-05T10:04:28Z</time>
      </trkpt>
      <trkpt lat="45.98694" lon="4.83136">
        <ele>266</ele>
        <time>2016-11-05T10:04:30Z</time>
      </trkpt>
      <trkpt lat="45.98691" lon="4.83138">
        <ele>266</ele>
        <time>2016-11-05T10:04:31Z</time>
      </trkpt>
      <trkpt lat="45.98685" lon="4.83143">
        <ele>266</ele>
        <time>2016-11-05T10:04:33Z</time>
      </trkpt>
      <trkpt lat="45.98682" lon="4.83145">
        <ele>266</ele>
        <time>2016-11-05T10:04:34Z</time>
      </trkpt>
      <trkpt lat="45.98676" lon="4.8315">
        <ele>266</ele>
        <time>2016-11-05T10:04:36Z</time>
      </trkpt>
      <trkpt lat="45.98672" lon="4.83152">
        <ele>266</ele>
        <time>2016-11-05T10:04:37Z</time>
      </trkpt>
      <trkpt lat="45.98666" lon="4.83157">
        <ele>267</ele>
        <time>2016-11-05T10:04:39Z</time>
      </trkpt>
      <trkpt lat="45.98662" lon="4.8316">
        <ele>267</ele>
        <time>2016-11-05T10:04:40Z</time>
      </trkpt>
      <trkpt lat="45.98655" lon="4.83165">
        <ele>267</ele>
        <time>2016-11-05T10:04:42Z</time>
      </trkpt>
      <trkpt lat="45.98652" lon="4.83168">
        <ele>267</ele>
        <time>2016-11-05T10:04:43Z</time>
      </trkpt>
      <trkpt lat="45.98645" lon="4.83175">
        <ele>267</ele>
        <time>2016-11-05T10:04:45Z</time>
      </trkpt>
      <trkpt lat="45.98642" lon="4.83177">
        <ele>267</ele>
        <time>2016-11-05T10:04:46Z</time>
      </trkpt>
      <trkpt lat="45.98636" lon="4.83183">
        <ele>267</ele>
        <time>2016-11-05T10:04:48Z</time>
      </trkpt>
      <trkpt lat="45.98633" lon="4.83186">
        <ele>267</ele>
        <time>2016-11-05T10:04:49Z</time>
      </trkpt>
      <trkpt lat="45.98628" lon="4.83192">
        <ele>267</ele>
        <time>2016-11-05T10:04:51Z</time>
      </trkpt>
      <trkpt lat="45.98625" lon="4.83195">
        <ele>267</ele>
        <time>2016-11-05T10:04:52Z</time>
      </trkpt>
      <trkpt lat="45.9862" lon="4.83201">
        <ele>267</ele>
        <time>2016-11-05T10:04:54Z</time>
      </trkpt>
      <trkpt lat="45.98617" lon="4.83203">
        <ele>267</ele>
        <time>2016-11-05T10:04:55Z</time>
      </trkpt>
      <trkpt lat="45.98612" lon="4.8321">
        <ele>267</ele>
        <time>2016-11-05T10:04:57Z</time>
      </trkpt>
      <trkpt lat="45.9861" lon="4.83214">
        <ele>267</ele>
        <time>2016-11-05T10:04:58Z</time>
      </trkpt>
      <trkpt lat="45.98604" lon="4.83221">
        <ele>267</ele>
        <time>2016-11-05T10:05:00Z</time>
      </trkpt>
      <trkpt lat="45.98602" lon="4.83224">
        <ele>267</ele>
        <time>2016-11-05T10:05:01Z</time>
      </trkpt>
      <trkpt lat="45.98597" lon="4.83231">
        <ele>268</ele>
        <time>2016-11-05T10:05:03Z</time>
      </trkpt>
      <trkpt lat="45.98594" lon="4.83234">
        <ele>268</ele>
        <time>2016-11-05T10:05:04Z</time>
      </trkpt>
      <trkpt lat="45.98589" lon="4.83242">
        <ele>268</ele>
        <time>2016-11-05T10:05:06Z</time>
      </trkpt>
      <trkpt lat="45.98586" lon="4.83245">
        <ele>268</ele>
        <time>2016-11-05T10:05:07Z</time>
      </trkpt>
      <trkpt lat="45.98581" lon="4.83252">
        <ele>268</ele>
        <time>2016-11-05T10:05:09Z</time>
      </trkpt>
      <trkpt lat="45.98578" lon="4.83256">
        <ele>268</ele>
        <time>2016-11-05T10:05:10Z</time>
      </trkpt>
      <trkpt lat="45.98573" lon="4.83264">
        <ele>269</ele>
        <time>2016-11-05T10:05:12Z</time>
      </trkpt>
      <trkpt lat="45.9857" lon="4.83267">
        <ele>269</ele>
        <time>2016-11-05T10:05:13Z</time>
      </trkpt>
      <trkpt lat="45.98565" lon="4.83275">
        <ele>269</ele>
        <time>2016-11-05T10:05:15Z</time>
      </trkpt>
      <trkpt lat="45.98562" lon="4.83279">
        <ele>269</ele>
        <time>2016-11-05T10:05:16Z</time>
      </trkpt>
      <trkpt lat="45.98557" lon="4.83286">
        <ele>269</ele>
        <time>2016-11-05T10:05:18Z</time>
      </trkpt>
      <trkpt lat="45.98554" lon="4.8329">
        <ele>269</ele>
        <time>2016-11-05T10:05:19Z</time>
      </trkpt>
      <trkpt lat="45.98549" lon="4.83298">
        <ele>269</ele>
        <time>2016-11-05T10:05:21Z</time>
      </trkpt>
      <trkpt lat="45.98546" lon="4.83301">
        <ele>269</ele>
        <time>2016-11-05T10:05:22Z</time>
      </trkpt>
      <trkpt lat="45.98541" lon="4.83309">
        <ele>269</ele>
        <time>2016-11-05T10:05:24Z</time>
      </trkpt>
      <trkpt lat="45.98538" lon="4.83312">
        <ele>269</ele>
        <time>2016-11-05T10:05:25Z</time>
      </trkpt>
      <trkpt lat="45.98532" lon="4.83319">
        <ele>269</ele>
        <time>2016-11-05T10:05:27Z</time>
      </trkpt>
      <trkpt lat="45.9853" lon="4.83323">
        <ele>269</ele>
        <time>2016-11-05T10:05:28Z</time>
      </trkpt>
      <trkpt lat="45.98524" lon="4.8333">
        <ele>270</ele>
        <time>2016-11-05T10:05:30Z</time>
      </trkpt>
      <trkpt lat="45.98522" lon="4.83334">
        <ele>270</ele>
        <time>2016-11-05T10:05:31Z</time>
      </trkpt>
      <trkpt lat="45.98516" lon="4.83342">
        <ele>270</ele>
        <time>2016-11-05T10:05:33Z</time>
      </trkpt>
      <trkpt lat="45.98512" lon="4.83346">
        <ele>270</ele>
        <time>2016-11-05T10:05:34Z</time>
      </trkpt>
      <trkpt lat="45.98506" lon="4.83354">
        <ele>270</ele>
        <time>2016-11-05T10:05:36Z</time>
      </trkpt>
      <trkpt lat="45.98503" lon="4.83359">
        <ele>270</ele>
        <time>2016-11-05T10:05:37Z</time>
      </trkpt>
      <trkpt lat="45.98497" lon="4.83368">
        <ele>270</ele>
        <time>2016-11-05T10:05:39Z</time>
      </trkpt>
      <trkpt lat="45.98494" lon="4.83372">
        <ele>270</ele>
        <time>2016-11-05T10:05:40Z</time>
      </trkpt>
      <trkpt lat="45.9849" lon="4.83376">
        <ele>269</ele>
        <time>2016-11-05T10:05:41Z</time>
      </trkpt>
      <trkpt lat="45.98487" lon="4.83381">
        <ele>269</ele>
        <time>2016-11-05T10:05:42Z</time>
      </trkpt>
      <trkpt lat="45.98484" lon="4.83385">
        <ele>269</ele>
        <time>2016-11-05T10:05:43Z</time>
      </trkpt>
      <trkpt lat="45.9848" lon="4.83389">
        <ele>269</ele>
        <time>2016-11-05T10:05:44Z</time>
      </trkpt>
      <trkpt lat="45.98477" lon="4.83394">
        <ele>269</ele>
        <time>2016-11-05T10:05:45Z</time>
      </trkpt>
      <trkpt lat="45.98473" lon="4.83399">
        <ele>269</ele>
        <time>2016-11-05T10:05:46Z</time>
      </trkpt>
      <trkpt lat="45.9847" lon="4.83404">
        <ele>269</ele>
        <time>2016-11-05T10:05:47Z</time>
      </trkpt>
      <trkpt lat="45.98467" lon="4.83409">
        <ele>269</ele>
        <time>2016-11-05T10:05:48Z</time>
      </trkpt>
      <trkpt lat="45.98463" lon="4.83413">
        <ele>269</ele>
        <time>2016-11-05T10:05:49Z</time>
      </trkpt>
      <trkpt lat="45.9846" lon="4.83417">
        <ele>269</ele>
        <time>2016-11-05T10:05:50Z</time>
      </trkpt>
      <trkpt lat="45.98453" lon="4.83426">
        <ele>269</ele>
        <time>2016-11-05T10:05:52Z</time>
      </trkpt>
      <trkpt lat="45.9845" lon="4.83431">
        <ele>268</ele>
        <time>2016-11-05T10:05:53Z</time>
      </trkpt>
      <trkpt lat="45.98447" lon="4.83436">
        <ele>268</ele>
        <time>2016-11-05T10:05:54Z</time>
      </trkpt>
      <trkpt lat="45.98443" lon="4.8344">
        <ele>268</ele>
        <time>2016-11-05T10:05:55Z</time>
      </trkpt>
      <trkpt lat="45.98439" lon="4.83445">
        <ele>268</ele>
        <time>2016-11-05T10:05:56Z</time>
      </trkpt>
      <trkpt lat="45.98436" lon="4.8345">
        <ele>268</ele>
        <time>2016-11-05T10:05:57Z</time>
      </trkpt>
      <trkpt lat="45.98432" lon="4.83455">
        <ele>268</ele>
        <time>2016-11-05T10:05:58Z</time>
      </trkpt>
      <trkpt lat="45.98429" lon="4.8346">
        <ele>268</ele>
        <time>2016-11-05T10:05:59Z</time>
      </trkpt>
      <trkpt lat="45.98425" lon="4.83464">
        <ele>268</ele>
        <time>2016-11-05T10:06:00Z</time>
      </trkpt>
      <trkpt lat="45.98422" lon="4.83469">
        <ele>268</ele>
        <time>2016-11-05T10:06:01Z</time>
      </trkpt>
      <trkpt lat="45.98416" lon="4.83477">
        <ele>269</ele>
        <time>2016-11-05T10:06:03Z</time>
      </trkpt>
      <trkpt lat="45.98413" lon="4.83481">
        <ele>269</ele>
        <time>2016-11-05T10:06:04Z</time>
      </trkpt>
      <trkpt lat="45.98407" lon="4.83489">
        <ele>269</ele>
        <time>2016-11-05T10:06:06Z</time>
      </trkpt>
      <trkpt lat="45.98404" lon="4.83493">
        <ele>269</ele>
        <time>2016-11-05T10:06:07Z</time>
      </trkpt>
      <trkpt lat="45.98398" lon="4.83501">
        <ele>269</ele>
        <time>2016-11-05T10:06:09Z</time>
      </trkpt>
      <trkpt lat="45.98395" lon="4.83505">
        <ele>269</ele>
        <time>2016-11-05T10:06:10Z</time>
      </trkpt>
      <trkpt lat="45.98389" lon="4.83514">
        <ele>269</ele>
        <time>2016-11-05T10:06:12Z</time>
      </trkpt>
      <trkpt lat="45.98386" lon="4.83519">
        <ele>269</ele>
        <time>2016-11-05T10:06:13Z</time>
      </trkpt>
      <trkpt lat="45.98382" lon="4.83524">
        <ele>269</ele>
        <time>2016-11-05T10:06:14Z</time>
      </trkpt>
      <trkpt lat="45.98379" lon="4.83528">
        <ele>269</ele>
        <time>2016-11-05T10:06:15Z</time>
      </trkpt>
      <trkpt lat="45.98375" lon="4.83533">
        <ele>269</ele>
        <time>2016-11-05T10:06:16Z</time>
      </trkpt>
      <trkpt lat="45.98371" lon="4.83538">
        <ele>269</ele>
        <time>2016-11-05T10:06:17Z</time>
      </trkpt>
      <trkpt lat="45.98368" lon="4.83542">
        <ele>269</ele>
        <time>2016-11-05T10:06:18Z</time>
      </trkpt>
      <trkpt lat="45.98365" lon="4.83547">
        <ele>269</ele>
        <time>2016-11-05T10:06:19Z</time>
      </trkpt>
      <trkpt lat="45.98358" lon="4.83555">
        <ele>269</ele>
        <time>2016-11-05T10:06:21Z</time>
      </trkpt>
      <trkpt lat="45.98355" lon="4.83559">
        <ele>269</ele>
        <time>2016-11-05T10:06:22Z</time>
      </trkpt>
      <trkpt lat="45.9835" lon="4.83567">
        <ele>269</ele>
        <time>2016-11-05T10:06:24Z</time>
      </trkpt>
      <trkpt lat="45.98347" lon="4.83571">
        <ele>269</ele>
        <time>2016-11-05T10:06:25Z</time>
      </trkpt>
      <trkpt lat="45.98341" lon="4.8358">
        <ele>270</ele>
        <time>2016-11-05T10:06:27Z</time>
      </trkpt>
      <trkpt lat="45.98337" lon="4.83584">
        <ele>270</ele>
        <time>2016-11-05T10:06:28Z</time>
      </trkpt>
      <trkpt lat="45.98331" lon="4.83593">
        <ele>270</ele>
        <time>2016-11-05T10:06:30Z</time>
      </trkpt>
      <trkpt lat="45.98327" lon="4.83597">
        <ele>271</ele>
        <time>2016-11-05T10:06:31Z</time>
      </trkpt>
      <trkpt lat="45.98321" lon="4.83606">
        <ele>271</ele>
        <time>2016-11-05T10:06:33Z</time>
      </trkpt>
      <trkpt lat="45.98318" lon="4.8361">
        <ele>271</ele>
        <time>2016-11-05T10:06:34Z</time>
      </trkpt>
      <trkpt lat="45.98313" lon="4.83619">
        <ele>271</ele>
        <time>2016-11-05T10:06:36Z</time>
      </trkpt>
      <trkpt lat="45.9831" lon="4.83624">
        <ele>271</ele>
        <time>2016-11-05T10:06:37Z</time>
      </trkpt>
      <trkpt lat="45.98306" lon="4.83634">
        <ele>271</ele>
        <time>2016-11-05T10:06:39Z</time>
      </trkpt>
      <trkpt lat="45.98304" lon="4.83639">
        <ele>271</ele>
        <time>2016-11-05T10:06:40Z</time>
      </trkpt>
      <trkpt lat="45.98299" lon="4.83649">
        <ele>271</ele>
        <time>2016-11-05T10:06:42Z</time>
      </trkpt>
      <trkpt lat="45.98297" lon="4.83655">
        <ele>271</ele>
        <time>2016-11-05T10:06:43Z</time>
      </trkpt>
      <trkpt lat="45.98292" lon="4.83665">
        <ele>272</ele>
        <time>2016-11-05T10:06:45Z</time>
      </trkpt>
      <trkpt lat="45.9829" lon="4.83671">
        <ele>272</ele>
        <time>2016-11-05T10:06:46Z</time>
      </trkpt>
      <trkpt lat="45.98286" lon="4.83682">
        <ele>272</ele>
        <time>2016-11-05T10:06:48Z</time>
      </trkpt>
      <trkpt lat="45.98284" lon="4.83688">
        <ele>272</ele>
        <time>2016-11-05T10:06:49Z</time>
      </trkpt>
      <trkpt lat="45.9828" lon="4.83699">
        <ele>272</ele>
        <time>2016-11-05T10:06:51Z</time>
      </trkpt>
      <trkpt lat="45.98278" lon="4.83704">
        <ele>272</ele>
        <time>2016-11-05T10:06:52Z</time>
      </trkpt>
      <trkpt lat="45.98274" lon="4.83715">
        <ele>272</ele>
        <time>2016-11-05T10:06:54Z</time>
      </trkpt>
      <trkpt lat="45.98272" lon="4.8372">
        <ele>272</ele>
        <time>2016-11-05T10:06:55Z</time>
      </trkpt>
      <trkpt lat="45.98269" lon="4.8373">
        <ele>272</ele>
        <time>2016-11-05T10:06:57Z</time>
      </trkpt>
      <trkpt lat="45.98267" lon="4.83736">
        <ele>272</ele>
        <time>2016-11-05T10:06:58Z</time>
      </trkpt>
      <trkpt lat="45.98263" lon="4.83746">
        <ele>272</ele>
        <time>2016-11-05T10:07:00Z</time>
      </trkpt>
      <trkpt lat="45.98261" lon="4.83751">
        <ele>272</ele>
        <time>2016-11-05T10:07:01Z</time>
      </trkpt>
      <trkpt lat="45.98257" lon="4.83761">
        <ele>272</ele>
        <time>2016-11-05T10:07:03Z</time>
      </trkpt>
      <trkpt lat="45.98255" lon="4.83767">
        <ele>272</ele>
        <time>2016-11-05T10:07:04Z</time>
      </trkpt>
      <trkpt lat="45.98252" lon="4.83777">
        <ele>272</ele>
        <time>2016-11-05T10:07:06Z</time>
      </trkpt>
      <trkpt lat="45.9825" lon="4.83782">
        <ele>272</ele>
        <time>2016-11-05T10:07:07Z</time>
      </trkpt>
      <trkpt lat="45.98247" lon="4.83793">
        <ele>272</ele>
        <time>2016-11-05T10:07:09Z</time>
      </trkpt>
      <trkpt lat="45.98245" lon="4.83799">
        <ele>272</ele>
        <time>2016-11-05T10:07:10Z</time>
      </trkpt>
      <trkpt lat="45.98241" lon="4.8381">
        <ele>272</ele>
        <time>2016-11-05T10:07:12Z</time>
      </trkpt>
      <trkpt lat="45.98239" lon="4.83815">
        <ele>272</ele>
        <time>2016-11-05T10:07:13Z</time>
      </trkpt>
      <trkpt lat="45.98235" lon="4.83826">
        <ele>272</ele>
        <time>2016-11-05T10:07:15Z</time>
      </trkpt>
      <trkpt lat="45.98234" lon="4.83831">
        <ele>272</ele>
        <time>2016-11-05T10:07:16Z</time>
      </trkpt>
      <trkpt lat="45.9823" lon="4.83842">
        <ele>272</ele>
        <time>2016-11-05T10:07:18Z</time>
      </trkpt>
      <trkpt lat="45.98228" lon="4.83847">
        <ele>272</ele>
        <time>2016-11-05T10:07:19Z</time>
      </trkpt>
      <trkpt lat="45.98226" lon="4.83853">
        <ele>272</ele>
        <time>2016-11-05T10:07:20Z</time>
      </trkpt>
      <trkpt lat="45.98224" lon="4.83859">
        <ele>272</ele>
        <time>2016-11-05T10:07:21Z</time>
      </trkpt>
      <trkpt lat="45.9822" lon="4.83871">
        <ele>272</ele>
        <time>2016-11-05T10:07:23Z</time>
      </trkpt>
      <trkpt lat="45.98218" lon="4.83876">
        <ele>272</ele>
        <time>2016-11-05T10:07:24Z</time>
      </trkpt>
      <trkpt lat="45.98213" lon="4.83887">
        <ele>273</ele>
        <time>2016-11-05T10:07:26Z</time>
      </trkpt>
      <trkpt lat="45.98212" lon="4.83892">
        <ele>273</ele>
        <time>2016-11-05T10:07:27Z</time>
      </trkpt>
      <trkpt lat="45.98208" lon="4.83904">
        <ele>273</ele>
        <time>2016-11-05T10:07:29Z</time>
      </trkpt>
      <trkpt lat="45.98207" lon="4.83909">
        <ele>273</ele>
        <time>2016-11-05T10:07:30Z</time>
      </trkpt>
      <trkpt lat="45.98203" lon="4.8392">
        <ele>273</ele>
        <time>2016-11-05T10:07:32Z</time>
      </trkpt>
      <trkpt lat="45.98201" lon="4.83925">
        <ele>273</ele>
        <time>2016-11-05T10:07:33Z</time>
      </trkpt>
      <trkpt lat="45.98197" lon="4.83936">
        <ele>273</ele>
        <time>2016-11-05T10:07:35Z</time>
      </trkpt>
      <trkpt lat="45.98195" lon="4.83942">
        <ele>273</ele>
        <time>2016-11-05T10:07:36Z</time>
      </trkpt>
      <trkpt lat="45.98191" lon="4.83953">
        <ele>273</ele>
        <time>2016-11-05T10:07:38Z</time>
      </trkpt>
      <trkpt lat="45.98189" lon="4.83959">
        <ele>273</ele>
        <time>2016-11-05T10:07:39Z</time>
      </trkpt>
      <trkpt lat="45.98185" lon="4.83969">
        <ele>273</ele>
        <time>2016-11-05T10:07:41Z</time>
      </trkpt>
      <trkpt lat="45.98183" lon="4.83975">
        <ele>273</ele>
        <time>2016-11-05T10:07:42Z</time>
      </trkpt>
      <trkpt lat="45.98179" lon="4.83986">
        <ele>273</ele>
        <time>2016-11-05T10:07:44Z</time>
      </trkpt>
      <trkpt lat="45.98177" lon="4.83991">
        <ele>273</ele>
        <time>2016-11-05T10:07:45Z</time>
      </trkpt>
      <trkpt lat="45.98172" lon="4.84002">
        <ele>273</ele>
        <time>2016-11-05T10:07:47Z</time>
      </trkpt>
      <trkpt lat="45.9817" lon="4.84007">
        <ele>273</ele>
        <time>2016-11-05T10:07:48Z</time>
      </trkpt>
      <trkpt lat="45.98165" lon="4.84017">
        <ele>273</ele>
        <time>2016-11-05T10:07:50Z</time>
      </trkpt>
      <trkpt lat="45.98162" lon="4.84022">
        <ele>273</ele>
        <time>2016-11-05T10:07:51Z</time>
      </trkpt>
      <trkpt lat="45.98157" lon="4.84031">
        <ele>273</ele>
        <time>2016-11-05T10:07:53Z</time>
      </trkpt>
      <trkpt lat="45.98154" lon="4.84036">
        <ele>273</ele>
        <time>2016-11-05T10:07:54Z</time>
      </trkpt>
      <trkpt lat="45.98148" lon="4.84045">
        <ele>273</ele>
        <time>2016-11-05T10:07:56Z</time>
      </trkpt>
      <trkpt lat="45.98145" lon="4.8405">
        <ele>273</ele>
        <time>2016-11-05T10:07:57Z</time>
      </trkpt>
      <trkpt lat="45.98141" lon="4.84055">
        <ele>273</ele>
        <time>2016-11-05T10:07:58Z</time>
      </trkpt>
      <trkpt lat="45.98138" lon="4.84059">
        <ele>273</ele>
        <time>2016-11-05T10:07:59Z</time>
      </trkpt>
      <trkpt lat="45.98132" lon="4.84067">
        <ele>273</ele>
        <time>2016-11-05T10:08:01Z</time>
      </trkpt>
      <trkpt lat="45.98129" lon="4.84071">
        <ele>273</ele>
        <time>2016-11-05T10:08:02Z</time>
      </trkpt>
      <trkpt lat="45.98122" lon="4.84078">
        <ele>273</ele>
        <time>2016-11-05T10:08:04Z</time>
      </trkpt>
      <trkpt lat="45.98119" lon="4.84082">
        <ele>273</ele>
        <time>2016-11-05T10:08:05Z</time>
      </trkpt>
      <trkpt lat="45.98113" lon="4.84089">
        <ele>273</ele>
        <time>2016-11-05T10:08:07Z</time>
      </trkpt>
      <trkpt lat="45.98109" lon="4.84093">
        <ele>273</ele>
        <time>2016-11-05T10:08:08Z</time>
      </trkpt>
      <trkpt lat="45.98105" lon="4.84096">
        <ele>273</ele>
        <time>2016-11-05T10:08:09Z</time>
      </trkpt>
      <trkpt lat="45.98101" lon="4.841">
        <ele>273</ele>
        <time>2016-11-05T10:08:10Z</time>
      </trkpt>
      <trkpt lat="45.98097" lon="4.84104">
        <ele>273</ele>
        <time>2016-11-05T10:08:11Z</time>
      </trkpt>
      <trkpt lat="45.98094" lon="4.84107">
        <ele>273</ele>
        <time>2016-11-05T10:08:12Z</time>
      </trkpt>
      <trkpt lat="45.98086" lon="4.84113">
        <ele>273</ele>
        <time>2016-11-05T10:08:14Z</time>
      </trkpt>
      <trkpt lat="45.98083" lon="4.84117">
        <ele>273</ele>
        <time>2016-11-05T10:08:15Z</time>
      </trkpt>
      <trkpt lat="45.98076" lon="4.84124">
        <ele>273</ele>
        <time>2016-11-05T10:08:17Z</time>
      </trkpt>
      <trkpt lat="45.98072" lon="4.84127">
        <ele>273</ele>
        <time>2016-11-05T10:08:18Z</time>
      </trkpt>
      <trkpt lat="45.98065" lon="4.84133">
        <ele>273</ele>
        <time>2016-11-05T10:08:20Z</time>
      </trkpt>
      <trkpt lat="45.98062" lon="4.84137">
        <ele>273</ele>
        <time>2016-11-05T10:08:21Z</time>
      </trkpt>
      <trkpt lat="45.98055" lon="4.84143">
        <ele>273</ele>
        <time>2016-11-05T10:08:23Z</time>
      </trkpt>
      <trkpt lat="45.98051" lon="4.84146">
        <ele>273</ele>
        <time>2016-11-05T10:08:24Z</time>
      </trkpt>
      <trkpt lat="45.98044" lon="4.84153">
        <ele>273</ele>
        <time>2016-11-05T10:08:26Z</time>
      </trkpt>
      <trkpt lat="45.98041" lon="4.84156">
        <ele>273</ele>
        <time>2016-11-05T10:08:27Z</time>
      </trkpt>
      <trkpt lat="45.98034" lon="4.84163">
        <ele>273</ele>
        <time>2016-11-05T10:08:29Z</time>
      </trkpt>
      <trkpt lat="45.98031" lon="4.84166">
        <ele>273</ele>
        <time>2016-11-05T10:08:30Z</time>
      </trkpt>
      <trkpt lat="45.98024" lon="4.84173">
        <ele>274</ele>
        <time>2016-11-05T10:08:32Z</time>
      </trkpt>
      <trkpt lat="45.9802" lon="4.84176">
        <ele>274</ele>
        <time>2016-11-05T10:08:33Z</time>
      </trkpt>
      <trkpt lat="45.98016" lon="4.8418">
        <ele>274</ele>
        <time>2016-11-05T10:08:34Z</time>
      </trkpt>
      <trkpt lat="45.98013" lon="4.84184">
        <ele>274</ele>
        <time>2016-11-05T10:08:35Z</time>
      </trkpt>
      <trkpt lat="45.98009" lon="4.84188">
        <ele>274</ele>
        <time>2016-11-05T10:08:36Z</time>
      </trkpt>
      <trkpt lat="45.98005" lon="4.84191">
        <ele>274</ele>
        <time>2016-11-05T10:08:37Z</time>
      </trkpt>
      <trkpt lat="45.97997" lon="4.84198">
        <ele>274</ele>
        <time>2016-11-05T10:08:39Z</time>
      </trkpt>
      <trkpt lat="45.97994" lon="4.84201">
        <ele>274</ele>
        <time>2016-11-05T10:08:40Z</time>
      </trkpt>
      <trkpt lat="45.97987" lon="4.84207">
        <ele>274</ele>
        <time>2016-11-05T10:08:42Z</time>
      </trkpt>
      <trkpt lat="45.97983" lon="4.84211">
        <ele>274</ele>
        <time>2016-11-05T10:08:43Z</time>
      </trkpt>
      <trkpt lat="45.97976" lon="4.84218">
        <ele>274</ele>
        <time>2016-11-05T10:08:45Z</time>
      </trkpt>
      <trkpt lat="45.97973" lon="4.8422">
        <ele>274</ele>
        <time>2016-11-05T10:08:46Z</time>
      </trkpt>
      <trkpt lat="45.97966" lon="4.84226">
        <ele>274</ele>
        <time>2016-11-05T10:08:48Z</time>
      </trkpt>
      <trkpt lat="45.97962" lon="4.8423">
        <ele>274</ele>
        <time>2016-11-05T10:08:49Z</time>
      </trkpt>
      <trkpt lat="45.97955" lon="4.84236">
        <ele>275</ele>
        <time>2016-11-05T10:08:51Z</time>
      </trkpt>
      <trkpt lat="45.97952" lon="4.8424">
        <ele>275</ele>
        <time>2016-11-05T10:08:52Z</time>
      </trkpt>
      <trkpt lat="45.97945" lon="4.84246">
        <ele>275</ele>
        <time>2016-11-05T10:08:54Z</time>
      </trkpt>
      <trkpt lat="45.97942" lon="4.84249">
        <ele>275</ele>
        <time>2016-11-05T10:08:55Z</time>
      </trkpt>
      <trkpt lat="45.97936" lon="4.84256">
        <ele>275</ele>
        <time>2016-11-05T10:08:57Z</time>
      </trkpt>
      <trkpt lat="45.97933" lon="4.8426">
        <ele>275</ele>
        <time>2016-11-05T10:08:58Z</time>
      </trkpt>
      <trkpt lat="45.97927" lon="4.84269">
        <ele>275</ele>
        <time>2016-11-05T10:09:00Z</time>
      </trkpt>
      <trkpt lat="45.97925" lon="4.84274">
        <ele>275</ele>
        <time>2016-11-05T10:09:01Z</time>
      </trkpt>
      <trkpt lat="45.97923" lon="4.84286">
        <ele>275</ele>
        <time>2016-11-05T10:09:03Z</time>
      </trkpt>
      <trkpt lat="45.97923" lon="4.84293">
        <ele>275</ele>
        <time>2016-11-05T10:09:04Z</time>
      </trkpt>
      <trkpt lat="45.97924" lon="4.84299">
        <ele>275</ele>
        <time>2016-11-05T10:09:05Z</time>
      </trkpt>
      <trkpt lat="45.97925" lon="4.84306">
        <ele>275</ele>
        <time>2016-11-05T10:09:06Z</time>
      </trkpt>
      <trkpt lat="45.97926" lon="4.84312">
        <ele>275</ele>
        <time>2016-11-05T10:09:07Z</time>
      </trkpt>
      <trkpt lat="45.97927" lon="4.84319">
        <ele>275</ele>
        <time>2016-11-05T10:09:08Z</time>
      </trkpt>
      <trkpt lat="45.97928" lon="4.84325">
        <ele>275</ele>
        <time>2016-11-05T10:09:09Z</time>
      </trkpt>
      <trkpt lat="45.97929" lon="4.84331">
        <ele>275</ele>
        <time>2016-11-05T10:09:10Z</time>
      </trkpt>
      <trkpt lat="45.9793" lon="4.84338">
        <ele>275</ele>
        <time>2016-11-05T10:09:11Z</time>
      </trkpt>
      <trkpt lat="45.97931" lon="4.84345">
        <ele>275</ele>
        <time>2016-11-05T10:09:12Z</time>
      </trkpt>
      <trkpt lat="45.97932" lon="4.84352">
        <ele>275</ele>
        <time>2016-11-05T10:09:13Z</time>
      </trkpt>
      <trkpt lat="45.97932" lon="4.84359">
        <ele>275</ele>
        <time>2016-11-05T10:09:14Z</time>
      </trkpt>
      <trkpt lat="45.97934" lon="4.84366">
        <ele>275</ele>
        <time>2016-11-05T10:09:15Z</time>
      </trkpt>
      <trkpt lat="45.97935" lon="4.84372">
        <ele>275</ele>
        <time>2016-11-05T10:09:16Z</time>
      </trkpt>
      <trkpt lat="45.97936" lon="4.84379">
        <ele>275</ele>
        <time>2016-11-05T10:09:17Z</time>
      </trkpt>
      <trkpt lat="45.97937" lon="4.84385">
        <ele>275</ele>
        <time>2016-11-05T10:09:18Z</time>
      </trkpt>
      <trkpt lat="45.97938" lon="4.84392">
        <ele>275</ele>
        <time>2016-11-05T10:09:19Z</time>
      </trkpt>
      <trkpt lat="45.97939" lon="4.84399">
        <ele>275</ele>
        <time>2016-11-05T10:09:20Z</time>
      </trkpt>
      <trkpt lat="45.9794" lon="4.84405">
        <ele>275</ele>
        <time>2016-11-05T10:09:21Z</time>
      </trkpt>
      <trkpt lat="45.97941" lon="4.84412">
        <ele>275</ele>
        <time>2016-11-05T10:09:22Z</time>
      </trkpt>
      <trkpt lat="45.97942" lon="4.84419">
        <ele>275</ele>
        <time>2016-11-05T10:09:23Z</time>
      </trkpt>
      <trkpt lat="45.97943" lon="4.84426">
        <ele>275</ele>
        <time>2016-11-05T10:09:24Z</time>
      </trkpt>
      <trkpt lat="45.97944" lon="4.84433">
        <ele>275</ele>
        <time>2016-11-05T10:09:25Z</time>
      </trkpt>
      <trkpt lat="45.97945" lon="4.8444">
        <ele>275</ele>
        <time>2016-11-05T10:09:26Z</time>
      </trkpt>
      <trkpt lat="45.97947" lon="4.84447">
        <ele>275</ele>
        <time>2016-11-05T10:09:27Z</time>
      </trkpt>
      <trkpt lat="45.97948" lon="4.84455">
        <ele>275</ele>
        <time>2016-11-05T10:09:28Z</time>
      </trkpt>
      <trkpt lat="45.97948" lon="4.84462">
        <ele>275</ele>
        <time>2016-11-05T10:09:29Z</time>
      </trkpt>
      <trkpt lat="45.9795" lon="4.84469">
        <ele>275</ele>
        <time>2016-11-05T10:09:30Z</time>
      </trkpt>
      <trkpt lat="45.97951" lon="4.84476">
        <ele>275</ele>
        <time>2016-11-05T10:09:31Z</time>
      </trkpt>
      <trkpt lat="45.97952" lon="4.84483">
        <ele>275</ele>
        <time>2016-11-05T10:09:32Z</time>
      </trkpt>
      <trkpt lat="45.97953" lon="4.8449">
        <ele>275</ele>
        <time>2016-11-05T10:09:33Z</time>
      </trkpt>
      <trkpt lat="45.97954" lon="4.84497">
        <ele>275</ele>
        <time>2016-11-05T10:09:34Z</time>
      </trkpt>
      <trkpt lat="45.97955" lon="4.84505">
        <ele>275</ele>
        <time>2016-11-05T10:09:35Z</time>
      </trkpt>
      <trkpt lat="45.97956" lon="4.84512">
        <ele>275</ele>
        <time>2016-11-05T10:09:36Z</time>
      </trkpt>
      <trkpt lat="45.97958" lon="4.84519">
        <ele>275</ele>
        <time>2016-11-05T10:09:37Z</time>
      </trkpt>
      <trkpt lat="45.97959" lon="4.84525">
        <ele>275</ele>
        <time>2016-11-05T10:09:38Z</time>
      </trkpt>
      <trkpt lat="45.9796" lon="4.84532">
        <ele>275</ele>
        <time>2016-11-05T10:09:39Z</time>
      </trkpt>
      <trkpt lat="45.97961" lon="4.84538">
        <ele>275</ele>
        <time>2016-11-05T10:09:40Z</time>
      </trkpt>
      <trkpt lat="45.97962" lon="4.84545">
        <ele>275</ele>
        <time>2016-11-05T10:09:41Z</time>
      </trkpt>
      <trkpt lat="45.97963" lon="4.84551">
        <ele>275</ele>
        <time>2016-11-05T10:09:42Z</time>
      </trkpt>
      <trkpt lat="45.97965" lon="4.84558">
        <ele>275</ele>
        <time>2016-11-05T10:09:43Z</time>
      </trkpt>
      <trkpt lat="45.97966" lon="4.84565">
        <ele>275</ele>
        <time>2016-11-05T10:09:44Z</time>
      </trkpt>
      <trkpt lat="45.97967" lon="4.84572">
        <ele>275</ele>
        <time>2016-11-05T10:09:45Z</time>
      </trkpt>
      <trkpt lat="45.97968" lon="4.84579">
        <ele>275</ele>
        <time>2016-11-05T10:09:46Z</time>
      </trkpt>
      <trkpt lat="45.97969" lon="4.84586">
        <ele>275</ele>
        <time>2016-11-05T10:09:47Z</time>
      </trkpt>
      <trkpt lat="45.97971" lon="4.84593">
        <ele>275</ele>
        <time>2016-11-05T10:09:48Z</time>
      </trkpt>
      <trkpt lat="45.97972" lon="4.846">
        <ele>275</ele>
        <time>2016-11-05T10:09:49Z</time>
      </trkpt>
      <trkpt lat="45.97973" lon="4.84607">
        <ele>275</ele>
        <time>2016-11-05T10:09:50Z</time>
      </trkpt>
      <trkpt lat="45.97974" lon="4.84614">
        <ele>275</ele>
        <time>2016-11-05T10:09:51Z</time>
      </trkpt>
      <trkpt lat="45.97975" lon="4.84621">
        <ele>275</ele>
        <time>2016-11-05T10:09:52Z</time>
      </trkpt>
      <trkpt lat="45.97976" lon="4.84629">
        <ele>275</ele>
        <time>2016-11-05T10:09:53Z</time>
      </trkpt>
      <trkpt lat="45.97978" lon="4.84636">
        <ele>275</ele>
        <time>2016-11-05T10:09:54Z</time>
      </trkpt>
      <trkpt lat="45.97979" lon="4.84643">
        <ele>275</ele>
        <time>2016-11-05T10:09:55Z</time>
      </trkpt>
      <trkpt lat="45.9798" lon="4.8465">
        <ele>275</ele>
        <time>2016-11-05T10:09:56Z</time>
      </trkpt>
      <trkpt lat="45.97982" lon="4.84657">
        <ele>274</ele>
        <time>2016-11-05T10:09:57Z</time>
      </trkpt>
      <trkpt lat="45.97983" lon="4.84664">
        <ele>274</ele>
        <time>2016-11-05T10:09:58Z</time>
      </trkpt>
      <trkpt lat="45.97983" lon="4.84671">
        <ele>275</ele>
        <time>2016-11-05T10:09:59Z</time>
      </trkpt>
      <trkpt lat="45.97984" lon="4.84678">
        <ele>275</ele>
        <time>2016-11-05T10:10:00Z</time>
      </trkpt>
      <trkpt lat="45.97985" lon="4.84685">
        <ele>275</ele>
        <time>2016-11-05T10:10:01Z</time>
      </trkpt>
      <trkpt lat="45.97986" lon="4.84692">
        <ele>275</ele>
        <time>2016-11-05T10:10:02Z</time>
      </trkpt>
      <trkpt lat="45.97987" lon="4.84699">
        <ele>275</ele>
        <time>2016-11-05T10:10:03Z</time>
      </trkpt>
      <trkpt lat="45.97987" lon="4.84706">
        <ele>275</ele>
        <time>2016-11-05T10:10:04Z</time>
      </trkpt>
      <trkpt lat="45.97987" lon="4.84712">
        <ele>275</ele>
        <time>2016-11-05T10:10:05Z</time>
      </trkpt>
      <trkpt lat="45.97988" lon="4.84719">
        <ele>275</ele>
        <time>2016-11-05T10:10:06Z</time>
      </trkpt>
      <trkpt lat="45.97988" lon="4.84726">
        <ele>275</ele>
        <time>2016-11-05T10:10:07Z</time>
      </trkpt>
      <trkpt lat="45.97989" lon="4.84732">
        <ele>275</ele>
        <time>2016-11-05T10:10:08Z</time>
      </trkpt>
      <trkpt lat="45.97989" lon="4.84745">
        <ele>275</ele>
        <time>2016-11-05T10:10:10Z</time>
      </trkpt>
      <trkpt lat="45.9799" lon="4.84751">
        <ele>275</ele>
        <time>2016-11-05T10:10:11Z</time>
      </trkpt>
      <trkpt lat="45.9799" lon="4.84757">
        <ele>275</ele>
        <time>2016-11-05T10:10:12Z</time>
      </trkpt>
      <trkpt lat="45.97991" lon="4.84764">
        <ele>275</ele>
        <time>2016-11-05T10:10:13Z</time>
      </trkpt>
      <trkpt lat="45.97992" lon="4.84771">
        <ele>274</ele>
        <time>2016-11-05T10:10:14Z</time>
      </trkpt>
      <trkpt lat="45.97992" lon="4.84778">
        <ele>274</ele>
        <time>2016-11-05T10:10:15Z</time>
      </trkpt>
      <trkpt lat="45.97993" lon="4.84785">
        <ele>274</ele>
        <time>2016-11-05T10:10:16Z</time>
      </trkpt>
      <trkpt lat="45.97994" lon="4.84791">
        <ele>274</ele>
        <time>2016-11-05T10:10:17Z</time>
      </trkpt>
      <trkpt lat="45.97994" lon="4.84797">
        <ele>274</ele>
        <time>2016-11-05T10:10:18Z</time>
      </trkpt>
      <trkpt lat="45.97995" lon="4.84804">
        <ele>274</ele>
        <time>2016-11-05T10:10:19Z</time>
      </trkpt>
      <trkpt lat="45.97996" lon="4.84816">
        <ele>273</ele>
        <time>2016-11-05T10:10:21Z</time>
      </trkpt>
      <trkpt lat="45.97996" lon="4.84822">
        <ele>273</ele>
        <time>2016-11-05T10:10:22Z</time>
      </trkpt>
      <trkpt lat="45.97997" lon="4.84835">
        <ele>272</ele>
        <time>2016-11-05T10:10:24Z</time>
      </trkpt>
      <trkpt lat="45.97998" lon="4.84841">
        <ele>272</ele>
        <time>2016-11-05T10:10:25Z</time>
      </trkpt>
      <trkpt lat="45.97998" lon="4.84848">
        <ele>272</ele>
        <time>2016-11-05T10:10:26Z</time>
      </trkpt>
      <trkpt lat="45.97999" lon="4.84855">
        <ele>272</ele>
        <time>2016-11-05T10:10:27Z</time>
      </trkpt>
      <trkpt lat="45.98" lon="4.84861">
        <ele>272</ele>
        <time>2016-11-05T10:10:28Z</time>
      </trkpt>
      <trkpt lat="45.98" lon="4.84868">
        <ele>272</ele>
        <time>2016-11-05T10:10:29Z</time>
      </trkpt>
      <trkpt lat="45.98001" lon="4.84874">
        <ele>272</ele>
        <time>2016-11-05T10:10:30Z</time>
      </trkpt>
      <trkpt lat="45.98002" lon="4.84881">
        <ele>272</ele>
        <time>2016-11-05T10:10:31Z</time>
      </trkpt>
      <trkpt lat="45.98003" lon="4.84888">
        <ele>272</ele>
        <time>2016-11-05T10:10:32Z</time>
      </trkpt>
      <trkpt lat="45.98005" lon="4.84895">
        <ele>272</ele>
        <time>2016-11-05T10:10:33Z</time>
      </trkpt>
      <trkpt lat="45.98006" lon="4.84902">
        <ele>272</ele>
        <time>2016-11-05T10:10:34Z</time>
      </trkpt>
      <trkpt lat="45.98006" lon="4.8491">
        <ele>272</ele>
        <time>2016-11-05T10:10:35Z</time>
      </trkpt>
      <trkpt lat="45.98007" lon="4.84918">
        <ele>272</ele>
        <time>2016-11-05T10:10:36Z</time>
      </trkpt>
      <trkpt lat="45.98008" lon="4.84926">
        <ele>272</ele>
        <time>2016-11-05T10:10:37Z</time>
      </trkpt>
      <trkpt lat="45.98008" lon="4.84933">
        <ele>272</ele>
        <time>2016-11-05T10:10:38Z</time>
      </trkpt>
      <trkpt lat="45.98009" lon="4.84941">
        <ele>272</ele>
        <time>2016-11-05T10:10:39Z</time>
      </trkpt>
      <trkpt lat="45.98009" lon="4.84948">
        <ele>272</ele>
        <time>2016-11-05T10:10:40Z</time>
      </trkpt>
      <trkpt lat="45.9801" lon="4.84955">
        <ele>272</ele>
        <time>2016-11-05T10:10:41Z</time>
      </trkpt>
      <trkpt lat="45.98011" lon="4.84961">
        <ele>272</ele>
        <time>2016-11-05T10:10:42Z</time>
      </trkpt>
      <trkpt lat="45.98011" lon="4.84968">
        <ele>272</ele>
        <time>2016-11-05T10:10:43Z</time>
      </trkpt>
      <trkpt lat="45.98011" lon="4.84975">
        <ele>272</ele>
        <time>2016-11-05T10:10:44Z</time>
      </trkpt>
      <trkpt lat="45.98011" lon="4.84983">
        <ele>272</ele>
        <time>2016-11-05T10:10:45Z</time>
      </trkpt>
      <trkpt lat="45.98012" lon="4.8499">
        <ele>272</ele>
        <time>2016-11-05T10:10:46Z</time>
      </trkpt>
      <trkpt lat="45.98013" lon="4.84998">
        <ele>272</ele>
        <time>2016-11-05T10:10:47Z</time>
      </trkpt>
      <trkpt lat="45.98014" lon="4.85006">
        <ele>272</ele>
        <time>2016-11-05T10:10:48Z</time>
      </trkpt>
      <trkpt lat="45.98015" lon="4.85013">
        <ele>272</ele>
        <time>2016-11-05T10:10:49Z</time>
      </trkpt>
      <trkpt lat="45.98015" lon="4.8502">
        <ele>273</ele>
        <time>2016-11-05T10:10:50Z</time>
      </trkpt>
      <trkpt lat="45.98015" lon="4.85027">
        <ele>273</ele>
        <time>2016-11-05T10:10:51Z</time>
      </trkpt>
      <trkpt lat="45.98016" lon="4.85034">
        <ele>273</ele>
        <time>2016-11-05T10:10:52Z</time>
      </trkpt>
      <trkpt lat="45.98016" lon="4.85041">
        <ele>273</ele>
        <time>2016-11-05T10:10:53Z</time>
      </trkpt>
      <trkpt lat="45.98017" lon="4.85047">
        <ele>273</ele>
        <time>2016-11-05T10:10:54Z</time>
      </trkpt>
      <trkpt lat="45.98017" lon="4.85054">
        <ele>273</ele>
        <time>2016-11-05T10:10:55Z</time>
      </trkpt>
      <trkpt lat="45.98017" lon="4.85066">
        <ele>273</ele>
        <time>2016-11-05T10:10:57Z</time>
      </trkpt>
      <trkpt lat="45.98017" lon="4.85073">
        <ele>273</ele>
        <time>2016-11-05T10:10:58Z</time>
      </trkpt>
      <trkpt lat="45.98018" lon="4.8508">
        <ele>273</ele>
        <time>2016-11-05T10:10:59Z</time>
      </trkpt>
      <trkpt lat="45.98018" lon="4.85087">
        <ele>274</ele>
        <time>2016-11-05T10:11:00Z</time>
      </trkpt>
      <trkpt lat="45.98019" lon="4.85093">
        <ele>274</ele>
        <time>2016-11-05T10:11:01Z</time>
      </trkpt>
      <trkpt lat="45.9802" lon="4.85099">
        <ele>274</ele>
        <time>2016-11-05T10:11:02Z</time>
      </trkpt>
      <trkpt lat="45.98022" lon="4.85112">
        <ele>274</ele>
        <time>2016-11-05T10:11:04Z</time>
      </trkpt>
      <trkpt lat="45.98024" lon="4.85117">
        <ele>274</ele>
        <time>2016-11-05T10:11:05Z</time>
      </trkpt>
      <trkpt lat="45.98027" lon="4.85129">
        <ele>274</ele>
        <time>2016-11-05T10:11:07Z</time>
      </trkpt>
      <trkpt lat="45.98028" lon="4.85135">
        <ele>275</ele>
        <time>2016-11-05T10:11:08Z</time>
      </trkpt>
      <trkpt lat="45.98031" lon="4.85145">
        <ele>275</ele>
        <time>2016-11-05T10:11:10Z</time>
      </trkpt>
      <trkpt lat="45.98033" lon="4.85151">
        <ele>275</ele>
        <time>2016-11-05T10:11:11Z</time>
      </trkpt>
      <trkpt lat="45.98036" lon="4.85161">
        <ele>275</ele>
        <time>2016-11-05T10:11:13Z</time>
      </trkpt>
      <trkpt lat="45.98038" lon="4.85166">
        <ele>275</ele>
        <time>2016-11-05T10:11:14Z</time>
      </trkpt>
      <trkpt lat="45.98042" lon="4.85177">
        <ele>276</ele>
        <time>2016-11-05T10:11:16Z</time>
      </trkpt>
      <trkpt lat="45.98043" lon="4.85182">
        <ele>276</ele>
        <time>2016-11-05T10:11:17Z</time>
      </trkpt>
      <trkpt lat="45.98047" lon="4.85193">
        <ele>276</ele>
        <time>2016-11-05T10:11:19Z</time>
      </trkpt>
      <trkpt lat="45.98049" lon="4.85198">
        <ele>276</ele>
        <time>2016-11-05T10:11:20Z</time>
      </trkpt>
      <trkpt lat="45.98052" lon="4.85209">
        <ele>276</ele>
        <time>2016-11-05T10:11:22Z</time>
      </trkpt>
      <trkpt lat="45.98054" lon="4.85214">
        <ele>276</ele>
        <time>2016-11-05T10:11:23Z</time>
      </trkpt>
      <trkpt lat="45.98057" lon="4.85225">
        <ele>276</ele>
        <time>2016-11-05T10:11:25Z</time>
      </trkpt>
      <trkpt lat="45.98059" lon="4.85231">
        <ele>276</ele>
        <time>2016-11-05T10:11:26Z</time>
      </trkpt>
      <trkpt lat="45.98061" lon="4.85236">
        <ele>276</ele>
        <time>2016-11-05T10:11:27Z</time>
      </trkpt>
      <trkpt lat="45.98064" lon="4.85242">
        <ele>276</ele>
        <time>2016-11-05T10:11:28Z</time>
      </trkpt>
      <trkpt lat="45.98067" lon="4.85247">
        <ele>276</ele>
        <time>2016-11-05T10:11:29Z</time>
      </trkpt>
      <trkpt lat="45.9807" lon="4.85253">
        <ele>276</ele>
        <time>2016-11-05T10:11:30Z</time>
      </trkpt>
      <trkpt lat="45.98073" lon="4.85258">
        <ele>276</ele>
        <time>2016-11-05T10:11:31Z</time>
      </trkpt>
      <trkpt lat="45.98077" lon="4.85264">
        <ele>276</ele>
        <time>2016-11-05T10:11:32Z</time>
      </trkpt>
      <trkpt lat="45.9808" lon="4.8527">
        <ele>276</ele>
        <time>2016-11-05T10:11:33Z</time>
      </trkpt>
      <trkpt lat="45.98084" lon="4.85276">
        <ele>276</ele>
        <time>2016-11-05T10:11:34Z</time>
      </trkpt>
      <trkpt lat="45.98087" lon="4.85281">
        <ele>276</ele>
        <time>2016-11-05T10:11:35Z</time>
      </trkpt>
      <trkpt lat="45.98089" lon="4.85287">
        <ele>276</ele>
        <time>2016-11-05T10:11:36Z</time>
      </trkpt>
      <trkpt lat="45.98092" lon="4.85293">
        <ele>276</ele>
        <time>2016-11-05T10:11:37Z</time>
      </trkpt>
      <trkpt lat="45.98094" lon="4.853">
        <ele>276</ele>
        <time>2016-11-05T10:11:38Z</time>
      </trkpt>
      <trkpt lat="45.98097" lon="4.85305">
        <ele>276</ele>
        <time>2016-11-05T10:11:39Z</time>
      </trkpt>
      <trkpt lat="45.98099" lon="4.85311">
        <ele>276</ele>
        <time>2016-11-05T10:11:40Z</time>
      </trkpt>
      <trkpt lat="45.98103" lon="4.85322">
        <ele>276</ele>
        <time>2016-11-05T10:11:42Z</time>
      </trkpt>
      <trkpt lat="45.98106" lon="4.85327">
        <ele>276</ele>
        <time>2016-11-05T10:11:43Z</time>
      </trkpt>
      <trkpt lat="45.9811" lon="4.85337">
        <ele>276</ele>
        <time>2016-11-05T10:11:45Z</time>
      </trkpt>
      <trkpt lat="45.98112" lon="4.85341">
        <ele>276</ele>
        <time>2016-11-05T10:11:46Z</time>
      </trkpt>
      <trkpt lat="45.98114" lon="4.85346">
        <ele>276</ele>
        <time>2016-11-05T10:11:47Z</time>
      </trkpt>
      <trkpt lat="45.98117" lon="4.85352">
        <ele>276</ele>
        <time>2016-11-05T10:11:48Z</time>
      </trkpt>
      <trkpt lat="45.98119" lon="4.85359">
        <ele>276</ele>
        <time>2016-11-05T10:11:49Z</time>
      </trkpt>
      <trkpt lat="45.98121" lon="4.85366">
        <ele>276</ele>
        <time>2016-11-05T10:11:50Z</time>
      </trkpt>
      <trkpt lat="45.98124" lon="4.85373">
        <ele>276</ele>
        <time>2016-11-05T10:11:51Z</time>
      </trkpt>
      <trkpt lat="45.98126" lon="4.85379">
        <ele>276</ele>
        <time>2016-11-05T10:11:52Z</time>
      </trkpt>
      <trkpt lat="45.98129" lon="4.85385">
        <ele>276</ele>
        <time>2016-11-05T10:11:53Z</time>
      </trkpt>
      <trkpt lat="45.98131" lon="4.85391">
        <ele>276</ele>
        <time>2016-11-05T10:11:54Z</time>
      </trkpt>
      <trkpt lat="45.98134" lon="4.85397">
        <ele>276</ele>
        <time>2016-11-05T10:11:55Z</time>
      </trkpt>
      <trkpt lat="45.98136" lon="4.85403">
        <ele>276</ele>
        <time>2016-11-05T10:11:56Z</time>
      </trkpt>
      <trkpt lat="45.98139" lon="4.85409">
        <ele>276</ele>
        <time>2016-11-05T10:11:57Z</time>
      </trkpt>
      <trkpt lat="45.98141" lon="4.85416">
        <ele>276</ele>
        <time>2016-11-05T10:11:58Z</time>
      </trkpt>
      <trkpt lat="45.98143" lon="4.85423">
        <ele>276</ele>
        <time>2016-11-05T10:11:59Z</time>
      </trkpt>
      <trkpt lat="45.98146" lon="4.85429">
        <ele>276</ele>
        <time>2016-11-05T10:12:00Z</time>
      </trkpt>
      <trkpt lat="45.98148" lon="4.85435">
        <ele>276</ele>
        <time>2016-11-05T10:12:01Z</time>
      </trkpt>
      <trkpt lat="45.98151" lon="4.85441">
        <ele>276</ele>
        <time>2016-11-05T10:12:02Z</time>
      </trkpt>
      <trkpt lat="45.98153" lon="4.85447">
        <ele>276</ele>
        <time>2016-11-05T10:12:03Z</time>
      </trkpt>
      <trkpt lat="45.98156" lon="4.85453">
        <ele>276</ele>
        <time>2016-11-05T10:12:04Z</time>
      </trkpt>
      <trkpt lat="45.98158" lon="4.85459">
        <ele>275</ele>
        <time>2016-11-05T10:12:05Z</time>
      </trkpt>
      <trkpt lat="45.9816" lon="4.85464">
        <ele>275</ele>
        <time>2016-11-05T10:12:06Z</time>
      </trkpt>
      <trkpt lat="45.98163" lon="4.8547">
        <ele>275</ele>
        <time>2016-11-05T10:12:07Z</time>
      </trkpt>
      <trkpt lat="45.98165" lon="4.85475">
        <ele>275</ele>
        <time>2016-11-05T10:12:08Z</time>
      </trkpt>
      <trkpt lat="45.98168" lon="4.8548">
        <ele>275</ele>
        <time>2016-11-05T10:12:09Z</time>
      </trkpt>
      <trkpt lat="45.9817" lon="4.85486">
        <ele>275</ele>
        <time>2016-11-05T10:12:10Z</time>
      </trkpt>
      <trkpt lat="45.98173" lon="4.85492">
        <ele>275</ele>
        <time>2016-11-05T10:12:11Z</time>
      </trkpt>
      <trkpt lat="45.98175" lon="4.85498">
        <ele>275</ele>
        <time>2016-11-05T10:12:12Z</time>
      </trkpt>
      <trkpt lat="45.98177" lon="4.85504">
        <ele>275</ele>
        <time>2016-11-05T10:12:13Z</time>
      </trkpt>
      <trkpt lat="45.9818" lon="4.85511">
        <ele>275</ele>
        <time>2016-11-05T10:12:14Z</time>
      </trkpt>
      <trkpt lat="45.98183" lon="4.85517">
        <ele>275</ele>
        <time>2016-11-05T10:12:15Z</time>
      </trkpt>
      <trkpt lat="45.98184" lon="4.85524">
        <ele>276</ele>
        <time>2016-11-05T10:12:16Z</time>
      </trkpt>
      <trkpt lat="45.98186" lon="4.8553">
        <ele>276</ele>
        <time>2016-11-05T10:12:17Z</time>
      </trkpt>
      <trkpt lat="45.98188" lon="4.85536">
        <ele>276</ele>
        <time>2016-11-05T10:12:18Z</time>
      </trkpt>
      <trkpt lat="45.98191" lon="4.85542">
        <ele>276</ele>
        <time>2016-11-05T10:12:19Z</time>
      </trkpt>
      <trkpt lat="45.98193" lon="4.85548">
        <ele>276</ele>
        <time>2016-11-05T10:12:20Z</time>
      </trkpt>
      <trkpt lat="45.98196" lon="4.85555">
        <ele>276</ele>
        <time>2016-11-05T10:12:21Z</time>
      </trkpt>
      <trkpt lat="45.98198" lon="4.85562">
        <ele>276</ele>
        <time>2016-11-05T10:12:22Z</time>
      </trkpt>
      <trkpt lat="45.98201" lon="4.85569">
        <ele>276</ele>
        <time>2016-11-05T10:12:23Z</time>
      </trkpt>
      <trkpt lat="45.98204" lon="4.85576">
        <ele>276</ele>
        <time>2016-11-05T10:12:24Z</time>
      </trkpt>
      <trkpt lat="45.98207" lon="4.85582">
        <ele>276</ele>
        <time>2016-11-05T10:12:25Z</time>
      </trkpt>
      <trkpt lat="45.9821" lon="4.85589">
        <ele>277</ele>
        <time>2016-11-05T10:12:26Z</time>
      </trkpt>
      <trkpt lat="45.98213" lon="4.85596">
        <ele>277</ele>
        <time>2016-11-05T10:12:27Z</time>
      </trkpt>
      <trkpt lat="45.98216" lon="4.85603">
        <ele>277</ele>
        <time>2016-11-05T10:12:28Z</time>
      </trkpt>
      <trkpt lat="45.98219" lon="4.85609">
        <ele>277</ele>
        <time>2016-11-05T10:12:29Z</time>
      </trkpt>
      <trkpt lat="45.98222" lon="4.85615">
        <ele>277</ele>
        <time>2016-11-05T10:12:30Z</time>
      </trkpt>
      <trkpt lat="45.98224" lon="4.85621">
        <ele>277</ele>
        <time>2016-11-05T10:12:31Z</time>
      </trkpt>
      <trkpt lat="45.98227" lon="4.85627">
        <ele>277</ele>
        <time>2016-11-05T10:12:32Z</time>
      </trkpt>
      <trkpt lat="45.9823" lon="4.85633">
        <ele>277</ele>
        <time>2016-11-05T10:12:33Z</time>
      </trkpt>
      <trkpt lat="45.98232" lon="4.8564">
        <ele>277</ele>
        <time>2016-11-05T10:12:34Z</time>
      </trkpt>
      <trkpt lat="45.98235" lon="4.85646">
        <ele>277</ele>
        <time>2016-11-05T10:12:35Z</time>
      </trkpt>
      <trkpt lat="45.98237" lon="4.85652">
        <ele>276</ele>
        <time>2016-11-05T10:12:36Z</time>
      </trkpt>
      <trkpt lat="45.9824" lon="4.85659">
        <ele>276</ele>
        <time>2016-11-05T10:12:37Z</time>
      </trkpt>
      <trkpt lat="45.98242" lon="4.85665">
        <ele>276</ele>
        <time>2016-11-05T10:12:38Z</time>
      </trkpt>
      <trkpt lat="45.98244" lon="4.85672">
        <ele>276</ele>
        <time>2016-11-05T10:12:39Z</time>
      </trkpt>
      <trkpt lat="45.98247" lon="4.85678">
        <ele>276</ele>
        <time>2016-11-05T10:12:40Z</time>
      </trkpt>
      <trkpt lat="45.98249" lon="4.85685">
        <ele>276</ele>
        <time>2016-11-05T10:12:41Z</time>
      </trkpt>
      <trkpt lat="45.98251" lon="4.85691">
        <ele>275</ele>
        <time>2016-11-05T10:12:42Z</time>
      </trkpt>
      <trkpt lat="45.98253" lon="4.85697">
        <ele>275</ele>
        <time>2016-11-05T10:12:43Z</time>
      </trkpt>
      <trkpt lat="45.98256" lon="4.85703">
        <ele>275</ele>
        <time>2016-11-05T10:12:44Z</time>
      </trkpt>
      <trkpt lat="45.9826" lon="4.85714">
        <ele>275</ele>
        <time>2016-11-05T10:12:46Z</time>
      </trkpt>
      <trkpt lat="45.98262" lon="4.85719">
        <ele>275</ele>
        <time>2016-11-05T10:12:47Z</time>
      </trkpt>
      <trkpt lat="45.98266" lon="4.8573">
        <ele>275</ele>
        <time>2016-11-05T10:12:50Z</time>
      </trkpt>
      <trkpt lat="45.98267" lon="4.85732">
        <ele>275</ele>
        <time>2016-11-05T10:12:51Z</time>
      </trkpt>
      <trkpt lat="45.98272" lon="4.85738">
        <ele>275</ele>
        <time>2016-11-05T10:15:10Z</time>
      </trkpt>
      <trkpt lat="45.98273" lon="4.85741">
        <ele>274</ele>
        <time>2016-11-05T10:15:11Z</time>
      </trkpt>
      <trkpt lat="45.98274" lon="4.85751">
        <ele>275</ele>
        <time>2016-11-05T10:15:14Z</time>
      </trkpt>
      <trkpt lat="45.98275" lon="4.85754">
        <ele>275</ele>
        <time>2016-11-05T10:15:15Z</time>
      </trkpt>
      <trkpt lat="45.98279" lon="4.85763">
        <ele>275</ele>
        <time>2016-11-05T10:15:18Z</time>
      </trkpt>
      <trkpt lat="45.98281" lon="4.85766">
        <ele>275</ele>
        <time>2016-11-05T10:15:19Z</time>
      </trkpt>
      <trkpt lat="45.98284" lon="4.85776">
        <ele>275</ele>
        <time>2016-11-05T10:15:22Z</time>
      </trkpt>
      <trkpt lat="45.98285" lon="4.8578">
        <ele>275</ele>
        <time>2016-11-05T10:15:23Z</time>
      </trkpt>
      <trkpt lat="45.98289" lon="4.85789">
        <ele>275</ele>
        <time>2016-11-05T10:15:25Z</time>
      </trkpt>
      <trkpt lat="45.98291" lon="4.85794">
        <ele>275</ele>
        <time>2016-11-05T10:15:26Z</time>
      </trkpt>
      <trkpt lat="45.98295" lon="4.85804">
        <ele>275</ele>
        <time>2016-11-05T10:15:28Z</time>
      </trkpt>
      <trkpt lat="45.98297" lon="4.8581">
        <ele>275</ele>
        <time>2016-11-05T10:15:29Z</time>
      </trkpt>
      <trkpt lat="45.98302" lon="4.8582">
        <ele>275</ele>
        <time>2016-11-05T10:15:31Z</time>
      </trkpt>
      <trkpt lat="45.98305" lon="4.85825">
        <ele>275</ele>
        <time>2016-11-05T10:15:32Z</time>
      </trkpt>
      <trkpt lat="45.98307" lon="4.85831">
        <ele>275</ele>
        <time>2016-11-05T10:15:33Z</time>
      </trkpt>
      <trkpt lat="45.9831" lon="4.85837">
        <ele>276</ele>
        <time>2016-11-05T10:15:34Z</time>
      </trkpt>
      <trkpt lat="45.98312" lon="4.85842">
        <ele>276</ele>
        <time>2016-11-05T10:15:35Z</time>
      </trkpt>
      <trkpt lat="45.98314" lon="4.85848">
        <ele>276</ele>
        <time>2016-11-05T10:15:36Z</time>
      </trkpt>
      <trkpt lat="45.98317" lon="4.85854">
        <ele>276</ele>
        <time>2016-11-05T10:15:37Z</time>
      </trkpt>
      <trkpt lat="45.98319" lon="4.85861">
        <ele>276</ele>
        <time>2016-11-05T10:15:38Z</time>
      </trkpt>
      <trkpt lat="45.98321" lon="4.85868">
        <ele>276</ele>
        <time>2016-11-05T10:15:39Z</time>
      </trkpt>
      <trkpt lat="45.98324" lon="4.85875">
        <ele>276</ele>
        <time>2016-11-05T10:15:40Z</time>
      </trkpt>
      <trkpt lat="45.98326" lon="4.85882">
        <ele>276</ele>
        <time>2016-11-05T10:15:41Z</time>
      </trkpt>
      <trkpt lat="45.98329" lon="4.85888">
        <ele>276</ele>
        <time>2016-11-05T10:15:42Z</time>
      </trkpt>
      <trkpt lat="45.98332" lon="4.85894">
        <ele>276</ele>
        <time>2016-11-05T10:15:43Z</time>
      </trkpt>
      <trkpt lat="45.98335" lon="4.859">
        <ele>276</ele>
        <time>2016-11-05T10:15:44Z</time>
      </trkpt>
      <trkpt lat="45.98339" lon="4.85911">
        <ele>276</ele>
        <time>2016-11-05T10:15:46Z</time>
      </trkpt>
      <trkpt lat="45.98342" lon="4.85916">
        <ele>276</ele>
        <time>2016-11-05T10:15:47Z</time>
      </trkpt>
      <trkpt lat="45.98345" lon="4.85922">
        <ele>276</ele>
        <time>2016-11-05T10:15:48Z</time>
      </trkpt>
      <trkpt lat="45.98348" lon="4.85928">
        <ele>276</ele>
        <time>2016-11-05T10:15:49Z</time>
      </trkpt>
      <trkpt lat="45.9835" lon="4.85934">
        <ele>276</ele>
        <time>2016-11-05T10:15:50Z</time>
      </trkpt>
      <trkpt lat="45.98353" lon="4.8594">
        <ele>276</ele>
        <time>2016-11-05T10:15:51Z</time>
      </trkpt>
      <trkpt lat="45.98356" lon="4.85946">
        <ele>276</ele>
        <time>2016-11-05T10:15:52Z</time>
      </trkpt>
      <trkpt lat="45.98358" lon="4.85952">
        <ele>276</ele>
        <time>2016-11-05T10:15:53Z</time>
      </trkpt>
      <trkpt lat="45.98361" lon="4.85958">
        <ele>276</ele>
        <time>2016-11-05T10:15:54Z</time>
      </trkpt>
      <trkpt lat="45.98364" lon="4.85964">
        <ele>276</ele>
        <time>2016-11-05T10:15:55Z</time>
      </trkpt>
      <trkpt lat="45.98367" lon="4.8597">
        <ele>276</ele>
        <time>2016-11-05T10:15:56Z</time>
      </trkpt>
      <trkpt lat="45.98369" lon="4.85977">
        <ele>276</ele>
        <time>2016-11-05T10:15:57Z</time>
      </trkpt>
      <trkpt lat="45.98371" lon="4.85983">
        <ele>276</ele>
        <time>2016-11-05T10:15:58Z</time>
      </trkpt>
      <trkpt lat="45.98373" lon="4.8599">
        <ele>276</ele>
        <time>2016-11-05T10:15:59Z</time>
      </trkpt>
      <trkpt lat="45.98375" lon="4.85997">
        <ele>277</ele>
        <time>2016-11-05T10:16:00Z</time>
      </trkpt>
      <trkpt lat="45.98377" lon="4.86004">
        <ele>277</ele>
        <time>2016-11-05T10:16:01Z</time>
      </trkpt>
      <trkpt lat="45.9838" lon="4.8601">
        <ele>277</ele>
        <time>2016-11-05T10:16:02Z</time>
      </trkpt>
      <trkpt lat="45.98382" lon="4.86017">
        <ele>277</ele>
        <time>2016-11-05T10:16:03Z</time>
      </trkpt>
      <trkpt lat="45.98385" lon="4.86024">
        <ele>277</ele>
        <time>2016-11-05T10:16:04Z</time>
      </trkpt>
      <trkpt lat="45.98387" lon="4.86032">
        <ele>277</ele>
        <time>2016-11-05T10:16:05Z</time>
      </trkpt>
      <trkpt lat="45.98389" lon="4.8604">
        <ele>277</ele>
        <time>2016-11-05T10:16:06Z</time>
      </trkpt>
      <trkpt lat="45.98391" lon="4.86047">
        <ele>277</ele>
        <time>2016-11-05T10:16:07Z</time>
      </trkpt>
      <trkpt lat="45.98393" lon="4.86055">
        <ele>277</ele>
        <time>2016-11-05T10:16:08Z</time>
      </trkpt>
      <trkpt lat="45.98395" lon="4.86062">
        <ele>277</ele>
        <time>2016-11-05T10:16:09Z</time>
      </trkpt>
      <trkpt lat="45.98397" lon="4.8607">
        <ele>277</ele>
        <time>2016-11-05T10:16:10Z</time>
      </trkpt>
      <trkpt lat="45.98399" lon="4.86076">
        <ele>277</ele>
        <time>2016-11-05T10:16:11Z</time>
      </trkpt>
      <trkpt lat="45.98402" lon="4.86083">
        <ele>277</ele>
        <time>2016-11-05T10:16:12Z</time>
      </trkpt>
      <trkpt lat="45.98403" lon="4.86089">
        <ele>277</ele>
        <time>2016-11-05T10:16:13Z</time>
      </trkpt>
      <trkpt lat="45.98404" lon="4.86101">
        <ele>277</ele>
        <time>2016-11-05T10:16:15Z</time>
      </trkpt>
      <trkpt lat="45.98406" lon="4.86107">
        <ele>277</ele>
        <time>2016-11-05T10:16:16Z</time>
      </trkpt>
      <trkpt lat="45.98408" lon="4.86118">
        <ele>277</ele>
        <time>2016-11-05T10:16:18Z</time>
      </trkpt>
      <trkpt lat="45.9841" lon="4.86123">
        <ele>277</ele>
        <time>2016-11-05T10:16:19Z</time>
      </trkpt>
      <trkpt lat="45.98411" lon="4.86132">
        <ele>276</ele>
        <time>2016-11-05T10:16:21Z</time>
      </trkpt>
      <trkpt lat="45.98412" lon="4.86137">
        <ele>276</ele>
        <time>2016-11-05T10:16:22Z</time>
      </trkpt>
      <trkpt lat="45.98413" lon="4.86147">
        <ele>276</ele>
        <time>2016-11-05T10:16:24Z</time>
      </trkpt>
      <trkpt lat="45.98414" lon="4.86153">
        <ele>276</ele>
        <time>2016-11-05T10:16:25Z</time>
      </trkpt>
      <trkpt lat="45.98416" lon="4.86164">
        <ele>276</ele>
        <time>2016-11-05T10:16:27Z</time>
      </trkpt>
      <trkpt lat="45.98417" lon="4.8617">
        <ele>276</ele>
        <time>2016-11-05T10:16:28Z</time>
      </trkpt>
      <trkpt lat="45.98419" lon="4.86182">
        <ele>275</ele>
        <time>2016-11-05T10:16:30Z</time>
      </trkpt>
      <trkpt lat="45.9842" lon="4.86188">
        <ele>275</ele>
        <time>2016-11-05T10:16:31Z</time>
      </trkpt>
      <trkpt lat="45.98422" lon="4.86195">
        <ele>275</ele>
        <time>2016-11-05T10:16:32Z</time>
      </trkpt>
      <trkpt lat="45.98424" lon="4.86201">
        <ele>275</ele>
        <time>2016-11-05T10:16:33Z</time>
      </trkpt>
      <trkpt lat="45.98425" lon="4.86208">
        <ele>275</ele>
        <time>2016-11-05T10:16:34Z</time>
      </trkpt>
      <trkpt lat="45.98425" lon="4.86215">
        <ele>275</ele>
        <time>2016-11-05T10:16:35Z</time>
      </trkpt>
      <trkpt lat="45.98426" lon="4.86222">
        <ele>275</ele>
        <time>2016-11-05T10:16:36Z</time>
      </trkpt>
      <trkpt lat="45.98427" lon="4.8623">
        <ele>275</ele>
        <time>2016-11-05T10:16:37Z</time>
      </trkpt>
      <trkpt lat="45.98428" lon="4.86237">
        <ele>275</ele>
        <time>2016-11-05T10:16:38Z</time>
      </trkpt>
      <trkpt lat="45.9843" lon="4.86245">
        <ele>275</ele>
        <time>2016-11-05T10:16:39Z</time>
      </trkpt>
      <trkpt lat="45.98431" lon="4.86254">
        <ele>275</ele>
        <time>2016-11-05T10:16:40Z</time>
      </trkpt>
      <trkpt lat="45.98432" lon="4.86263">
        <ele>275</ele>
        <time>2016-11-05T10:16:41Z</time>
      </trkpt>
      <trkpt lat="45.98434" lon="4.86273">
        <ele>275</ele>
        <time>2016-11-05T10:16:42Z</time>
      </trkpt>
      <trkpt lat="45.98435" lon="4.86283">
        <ele>276</ele>
        <time>2016-11-05T10:16:43Z</time>
      </trkpt>
      <trkpt lat="45.98437" lon="4.86292">
        <ele>276</ele>
        <time>2016-11-05T10:16:44Z</time>
      </trkpt>
      <trkpt lat="45.98437" lon="4.86302">
        <ele>276</ele>
        <time>2016-11-05T10:16:45Z</time>
      </trkpt>
      <trkpt lat="45.98439" lon="4.86313">
        <ele>276</ele>
        <time>2016-11-05T10:16:46Z</time>
      </trkpt>
      <trkpt lat="45.98442" lon="4.86323">
        <ele>276</ele>
        <time>2016-11-05T10:16:47Z</time>
      </trkpt>
      <trkpt lat="45.98444" lon="4.86333">
        <ele>276</ele>
        <time>2016-11-05T10:16:48Z</time>
      </trkpt>
      <trkpt lat="45.98447" lon="4.86342">
        <ele>277</ele>
        <time>2016-11-05T10:16:49Z</time>
      </trkpt>
      <trkpt lat="45.98449" lon="4.86352">
        <ele>277</ele>
        <time>2016-11-05T10:16:50Z</time>
      </trkpt>
      <trkpt lat="45.98452" lon="4.86361">
        <ele>277</ele>
        <time>2016-11-05T10:16:51Z</time>
      </trkpt>
      <trkpt lat="45.98454" lon="4.8637">
        <ele>277</ele>
        <time>2016-11-05T10:16:52Z</time>
      </trkpt>
      <trkpt lat="45.98457" lon="4.86379">
        <ele>277</ele>
        <time>2016-11-05T10:16:53Z</time>
      </trkpt>
      <trkpt lat="45.98461" lon="4.86387">
        <ele>277</ele>
        <time>2016-11-05T10:16:54Z</time>
      </trkpt>
      <trkpt lat="45.98464" lon="4.86396">
        <ele>277</ele>
        <time>2016-11-05T10:16:55Z</time>
      </trkpt>
      <trkpt lat="45.98468" lon="4.86404">
        <ele>277</ele>
        <time>2016-11-05T10:16:56Z</time>
      </trkpt>
      <trkpt lat="45.98472" lon="4.86413">
        <ele>277</ele>
        <time>2016-11-05T10:16:57Z</time>
      </trkpt>
      <trkpt lat="45.98475" lon="4.86421">
        <ele>278</ele>
        <time>2016-11-05T10:16:58Z</time>
      </trkpt>
      <trkpt lat="45.98479" lon="4.86429">
        <ele>278</ele>
        <time>2016-11-05T10:16:59Z</time>
      </trkpt>
      <trkpt lat="45.98483" lon="4.86437">
        <ele>278</ele>
        <time>2016-11-05T10:17:00Z</time>
      </trkpt>
      <trkpt lat="45.98487" lon="4.86445">
        <ele>278</ele>
        <time>2016-11-05T10:17:01Z</time>
      </trkpt>
      <trkpt lat="45.98491" lon="4.86452">
        <ele>278</ele>
        <time>2016-11-05T10:17:02Z</time>
      </trkpt>
      <trkpt lat="45.98495" lon="4.8646">
        <ele>278</ele>
        <time>2016-11-05T10:17:03Z</time>
      </trkpt>
      <trkpt lat="45.98498" lon="4.86467">
        <ele>279</ele>
        <time>2016-11-05T10:17:04Z</time>
      </trkpt>
      <trkpt lat="45.98501" lon="4.86474">
        <ele>278</ele>
        <time>2016-11-05T10:17:05Z</time>
      </trkpt>
      <trkpt lat="45.98505" lon="4.8648">
        <ele>278</ele>
        <time>2016-11-05T10:17:06Z</time>
      </trkpt>
      <trkpt lat="45.98508" lon="4.86488">
        <ele>279</ele>
        <time>2016-11-05T10:17:07Z</time>
      </trkpt>
      <trkpt lat="45.98511" lon="4.86496">
        <ele>279</ele>
        <time>2016-11-05T10:17:08Z</time>
      </trkpt>
      <trkpt lat="45.98514" lon="4.86503">
        <ele>279</ele>
        <time>2016-11-05T10:17:09Z</time>
      </trkpt>
      <trkpt lat="45.98518" lon="4.8651">
        <ele>279</ele>
        <time>2016-11-05T10:17:10Z</time>
      </trkpt>
      <trkpt lat="45.98523" lon="4.86517">
        <ele>279</ele>
        <time>2016-11-05T10:17:11Z</time>
      </trkpt>
      <trkpt lat="45.98526" lon="4.86525">
        <ele>279</ele>
        <time>2016-11-05T10:17:12Z</time>
      </trkpt>
      <trkpt lat="45.9853" lon="4.86531">
        <ele>279</ele>
        <time>2016-11-05T10:17:13Z</time>
      </trkpt>
      <trkpt lat="45.98533" lon="4.86538">
        <ele>279</ele>
        <time>2016-11-05T10:17:14Z</time>
      </trkpt>
      <trkpt lat="45.98535" lon="4.86546">
        <ele>279</ele>
        <time>2016-11-05T10:17:15Z</time>
      </trkpt>
      <trkpt lat="45.98539" lon="4.86554">
        <ele>278</ele>
        <time>2016-11-05T10:17:16Z</time>
      </trkpt>
      <trkpt lat="45.98542" lon="4.86562">
        <ele>278</ele>
        <time>2016-11-05T10:17:17Z</time>
      </trkpt>
      <trkpt lat="45.98545" lon="4.8657">
        <ele>278</ele>
        <time>2016-11-05T10:17:18Z</time>
      </trkpt>
      <trkpt lat="45.98548" lon="4.86579">
        <ele>278</ele>
        <time>2016-11-05T10:17:19Z</time>
      </trkpt>
      <trkpt lat="45.9855" lon="4.86588">
        <ele>278</ele>
        <time>2016-11-05T10:17:20Z</time>
      </trkpt>
      <trkpt lat="45.98552" lon="4.86596">
        <ele>278</ele>
        <time>2016-11-05T10:17:21Z</time>
      </trkpt>
      <trkpt lat="45.98553" lon="4.86605">
        <ele>278</ele>
        <time>2016-11-05T10:17:22Z</time>
      </trkpt>
      <trkpt lat="45.98555" lon="4.86613">
        <ele>278</ele>
        <time>2016-11-05T10:17:23Z</time>
      </trkpt>
      <trkpt lat="45.98557" lon="4.86622">
        <ele>278</ele>
        <time>2016-11-05T10:17:24Z</time>
      </trkpt>
      <trkpt lat="45.98559" lon="4.86631">
        <ele>278</ele>
        <time>2016-11-05T10:17:25Z</time>
      </trkpt>
      <trkpt lat="45.9856" lon="4.8664">
        <ele>277</ele>
        <time>2016-11-05T10:17:26Z</time>
      </trkpt>
      <trkpt lat="45.98562" lon="4.86649">
        <ele>277</ele>
        <time>2016-11-05T10:17:27Z</time>
      </trkpt>
      <trkpt lat="45.98563" lon="4.86658">
        <ele>277</ele>
        <time>2016-11-05T10:17:28Z</time>
      </trkpt>
      <trkpt lat="45.98564" lon="4.86667">
        <ele>276</ele>
        <time>2016-11-05T10:17:29Z</time>
      </trkpt>
      <trkpt lat="45.98565" lon="4.86676">
        <ele>277</ele>
        <time>2016-11-05T10:17:30Z</time>
      </trkpt>
      <trkpt lat="45.98565" lon="4.86684">
        <ele>277</ele>
        <time>2016-11-05T10:17:31Z</time>
      </trkpt>
      <trkpt lat="45.98566" lon="4.86692">
        <ele>277</ele>
        <time>2016-11-05T10:17:32Z</time>
      </trkpt>
      <trkpt lat="45.98566" lon="4.867">
        <ele>277</ele>
        <time>2016-11-05T10:17:33Z</time>
      </trkpt>
      <trkpt lat="45.98567" lon="4.86707">
        <ele>277</ele>
        <time>2016-11-05T10:17:34Z</time>
      </trkpt>
      <trkpt lat="45.98567" lon="4.86715">
        <ele>277</ele>
        <time>2016-11-05T10:17:35Z</time>
      </trkpt>
      <trkpt lat="45.98568" lon="4.86722">
        <ele>277</ele>
        <time>2016-11-05T10:17:36Z</time>
      </trkpt>
      <trkpt lat="45.98569" lon="4.8673">
        <ele>277</ele>
        <time>2016-11-05T10:17:37Z</time>
      </trkpt>
      <trkpt lat="45.9857" lon="4.86737">
        <ele>277</ele>
        <time>2016-11-05T10:17:38Z</time>
      </trkpt>
      <trkpt lat="45.98571" lon="4.86745">
        <ele>277</ele>
        <time>2016-11-05T10:17:39Z</time>
      </trkpt>
      <trkpt lat="45.98572" lon="4.86754">
        <ele>277</ele>
        <time>2016-11-05T10:17:40Z</time>
      </trkpt>
      <trkpt lat="45.98573" lon="4.86762">
        <ele>277</ele>
        <time>2016-11-05T10:17:41Z</time>
      </trkpt>
      <trkpt lat="45.98574" lon="4.86771">
        <ele>277</ele>
        <time>2016-11-05T10:17:42Z</time>
      </trkpt>
      <trkpt lat="45.98575" lon="4.8678">
        <ele>277</ele>
        <time>2016-11-05T10:17:43Z</time>
      </trkpt>
      <trkpt lat="45.98576" lon="4.86789">
        <ele>277</ele>
        <time>2016-11-05T10:17:44Z</time>
      </trkpt>
      <trkpt lat="45.98577" lon="4.86797">
        <ele>278</ele>
        <time>2016-11-05T10:17:45Z</time>
      </trkpt>
      <trkpt lat="45.98578" lon="4.86804">
        <ele>278</ele>
        <time>2016-11-05T10:17:46Z</time>
      </trkpt>
      <trkpt lat="45.98579" lon="4.86812">
        <ele>277</ele>
        <time>2016-11-05T10:17:47Z</time>
      </trkpt>
      <trkpt lat="45.98581" lon="4.86821">
        <ele>277</ele>
        <time>2016-11-05T10:17:48Z</time>
      </trkpt>
      <trkpt lat="45.98582" lon="4.86829">
        <ele>277</ele>
        <time>2016-11-05T10:17:49Z</time>
      </trkpt>
      <trkpt lat="45.98582" lon="4.86837">
        <ele>277</ele>
        <time>2016-11-05T10:17:50Z</time>
      </trkpt>
      <trkpt lat="45.98582" lon="4.86846">
        <ele>278</ele>
        <time>2016-11-05T10:17:51Z</time>
      </trkpt>
      <trkpt lat="45.98582" lon="4.86855">
        <ele>279</ele>
        <time>2016-11-05T10:17:52Z</time>
      </trkpt>
      <trkpt lat="45.98582" lon="4.86864">
        <ele>279</ele>
        <time>2016-11-05T10:17:53Z</time>
      </trkpt>
      <trkpt lat="45.98583" lon="4.86873">
        <ele>279</ele>
        <time>2016-11-05T10:17:54Z</time>
      </trkpt>
      <trkpt lat="45.98583" lon="4.86882">
        <ele>279</ele>
        <time>2016-11-05T10:17:55Z</time>
      </trkpt>
      <trkpt lat="45.98583" lon="4.8689">
        <ele>279</ele>
        <time>2016-11-05T10:17:56Z</time>
      </trkpt>
      <trkpt lat="45.98583" lon="4.869">
        <ele>279</ele>
        <time>2016-11-05T10:17:57Z</time>
      </trkpt>
      <trkpt lat="45.98583" lon="4.86908">
        <ele>279</ele>
        <time>2016-11-05T10:17:58Z</time>
      </trkpt>
      <trkpt lat="45.98583" lon="4.86917">
        <ele>279</ele>
        <time>2016-11-05T10:17:59Z</time>
      </trkpt>
      <trkpt lat="45.98584" lon="4.86926">
        <ele>279</ele>
        <time>2016-11-05T10:18:00Z</time>
      </trkpt>
      <trkpt lat="45.98584" lon="4.86935">
        <ele>279</ele>
        <time>2016-11-05T10:18:01Z</time>
      </trkpt>
      <trkpt lat="45.98584" lon="4.86944">
        <ele>279</ele>
        <time>2016-11-05T10:18:02Z</time>
      </trkpt>
      <trkpt lat="45.98585" lon="4.86952">
        <ele>279</ele>
        <time>2016-11-05T10:18:03Z</time>
      </trkpt>
      <trkpt lat="45.98586" lon="4.8696">
        <ele>279</ele>
        <time>2016-11-05T10:18:04Z</time>
      </trkpt>
      <trkpt lat="45.98586" lon="4.86968">
        <ele>279</ele>
        <time>2016-11-05T10:18:05Z</time>
      </trkpt>
      <trkpt lat="45.98586" lon="4.86978">
        <ele>279</ele>
        <time>2016-11-05T10:18:06Z</time>
      </trkpt>
      <trkpt lat="45.98587" lon="4.86987">
        <ele>279</ele>
        <time>2016-11-05T10:18:07Z</time>
      </trkpt>
      <trkpt lat="45.98588" lon="4.86996">
        <ele>280</ele>
        <time>2016-11-05T10:18:08Z</time>
      </trkpt>
      <trkpt lat="45.98589" lon="4.87005">
        <ele>280</ele>
        <time>2016-11-05T10:18:09Z</time>
      </trkpt>
      <trkpt lat="45.98591" lon="4.87014">
        <ele>279</ele>
        <time>2016-11-05T10:18:10Z</time>
      </trkpt>
      <trkpt lat="45.98592" lon="4.87023">
        <ele>279</ele>
        <time>2016-11-05T10:18:11Z</time>
      </trkpt>
      <trkpt lat="45.98594" lon="4.87033">
        <ele>279</ele>
        <time>2016-11-05T10:18:12Z</time>
      </trkpt>
      <trkpt lat="45.98597" lon="4.87042">
        <ele>279</ele>
        <time>2016-11-05T10:18:13Z</time>
      </trkpt>
      <trkpt lat="45.98598" lon="4.87051">
        <ele>279</ele>
        <time>2016-11-05T10:18:14Z</time>
      </trkpt>
      <trkpt lat="45.986" lon="4.8706">
        <ele>279</ele>
        <time>2016-11-05T10:18:15Z</time>
      </trkpt>
      <trkpt lat="45.98601" lon="4.87067">
        <ele>279</ele>
        <time>2016-11-05T10:18:16Z</time>
      </trkpt>
      <trkpt lat="45.98603" lon="4.87074">
        <ele>279</ele>
        <time>2016-11-05T10:18:17Z</time>
      </trkpt>
      <trkpt lat="45.98605" lon="4.87081">
        <ele>279</ele>
        <time>2016-11-05T10:18:18Z</time>
      </trkpt>
      <trkpt lat="45.98606" lon="4.87089">
        <ele>279</ele>
        <time>2016-11-05T10:18:19Z</time>
      </trkpt>
      <trkpt lat="45.98607" lon="4.87096">
        <ele>279</ele>
        <time>2016-11-05T10:18:20Z</time>
      </trkpt>
      <trkpt lat="45.98608" lon="4.87105">
        <ele>279</ele>
        <time>2016-11-05T10:18:21Z</time>
      </trkpt>
      <trkpt lat="45.98608" lon="4.87114">
        <ele>279</ele>
        <time>2016-11-05T10:18:22Z</time>
      </trkpt>
      <trkpt lat="45.98609" lon="4.87123">
        <ele>279</ele>
        <time>2016-11-05T10:18:23Z</time>
      </trkpt>
      <trkpt lat="45.98609" lon="4.87132">
        <ele>279</ele>
        <time>2016-11-05T10:18:24Z</time>
      </trkpt>
      <trkpt lat="45.98608" lon="4.87141">
        <ele>278</ele>
        <time>2016-11-05T10:18:25Z</time>
      </trkpt>
      <trkpt lat="45.98607" lon="4.87149">
        <ele>278</ele>
        <time>2016-11-05T10:18:26Z</time>
      </trkpt>
      <trkpt lat="45.98606" lon="4.87158">
        <ele>278</ele>
        <time>2016-11-05T10:18:27Z</time>
      </trkpt>
      <trkpt lat="45.98605" lon="4.87167">
        <ele>278</ele>
        <time>2016-11-05T10:18:28Z</time>
      </trkpt>
      <trkpt lat="45.98604" lon="4.87176">
        <ele>277</ele>
        <time>2016-11-05T10:18:29Z</time>
      </trkpt>
      <trkpt lat="45.98603" lon="4.87185">
        <ele>277</ele>
        <time>2016-11-05T10:18:30Z</time>
      </trkpt>
      <trkpt lat="45.98601" lon="4.87195">
        <ele>277</ele>
        <time>2016-11-05T10:18:31Z</time>
      </trkpt>
      <trkpt lat="45.986" lon="4.87204">
        <ele>277</ele>
        <time>2016-11-05T10:18:32Z</time>
      </trkpt>
      <trkpt lat="45.98599" lon="4.87213">
        <ele>277</ele>
        <time>2016-11-05T10:18:33Z</time>
      </trkpt>
      <trkpt lat="45.98598" lon="4.87223">
        <ele>277</ele>
        <time>2016-11-05T10:18:34Z</time>
      </trkpt>
      <trkpt lat="45.98597" lon="4.87232">
        <ele>277</ele>
        <time>2016-11-05T10:18:35Z</time>
      </trkpt>
      <trkpt lat="45.98597" lon="4.87242">
        <ele>277</ele>
        <time>2016-11-05T10:18:36Z</time>
      </trkpt>
      <trkpt lat="45.98596" lon="4.87252">
        <ele>276</ele>
        <time>2016-11-05T10:18:37Z</time>
      </trkpt>
      <trkpt lat="45.98595" lon="4.87262">
        <ele>275</ele>
        <time>2016-11-05T10:18:38Z</time>
      </trkpt>
      <trkpt lat="45.98594" lon="4.87272">
        <ele>275</ele>
        <time>2016-11-05T10:18:39Z</time>
      </trkpt>
      <trkpt lat="45.98594" lon="4.87282">
        <ele>275</ele>
        <time>2016-11-05T10:18:40Z</time>
      </trkpt>
      <trkpt lat="45.98595" lon="4.87292">
        <ele>275</ele>
        <time>2016-11-05T10:18:41Z</time>
      </trkpt>
      <trkpt lat="45.98595" lon="4.87302">
        <ele>274</ele>
        <time>2016-11-05T10:18:42Z</time>
      </trkpt>
      <trkpt lat="45.98596" lon="4.87313">
        <ele>274</ele>
        <time>2016-11-05T10:18:43Z</time>
      </trkpt>
      <trkpt lat="45.98598" lon="4.87325">
        <ele>274</ele>
        <time>2016-11-05T10:18:44Z</time>
      </trkpt>
      <trkpt lat="45.986" lon="4.87335">
        <ele>273</ele>
        <time>2016-11-05T10:18:45Z</time>
      </trkpt>
      <trkpt lat="45.98602" lon="4.87346">
        <ele>272</ele>
        <time>2016-11-05T10:18:46Z</time>
      </trkpt>
      <trkpt lat="45.98604" lon="4.87358">
        <ele>272</ele>
        <time>2016-11-05T10:18:47Z</time>
      </trkpt>
      <trkpt lat="45.98606" lon="4.87368">
        <ele>272</ele>
        <time>2016-11-05T10:18:48Z</time>
      </trkpt>
      <trkpt lat="45.98609" lon="4.87379">
        <ele>271</ele>
        <time>2016-11-05T10:18:49Z</time>
      </trkpt>
      <trkpt lat="45.98612" lon="4.87391">
        <ele>271</ele>
        <time>2016-11-05T10:18:50Z</time>
      </trkpt>
      <trkpt lat="45.98614" lon="4.87402">
        <ele>271</ele>
        <time>2016-11-05T10:18:51Z</time>
      </trkpt>
      <trkpt lat="45.98616" lon="4.87414">
        <ele>271</ele>
        <time>2016-11-05T10:18:52Z</time>
      </trkpt>
      <trkpt lat="45.98619" lon="4.87425">
        <ele>269</ele>
        <time>2016-11-05T10:18:53Z</time>
      </trkpt>
      <trkpt lat="45.98621" lon="4.87436">
        <ele>269</ele>
        <time>2016-11-05T10:18:54Z</time>
      </trkpt>
      <trkpt lat="45.98623" lon="4.87447">
        <ele>268</ele>
        <time>2016-11-05T10:18:55Z</time>
      </trkpt>
      <trkpt lat="45.98625" lon="4.87458">
        <ele>268</ele>
        <time>2016-11-05T10:18:56Z</time>
      </trkpt>
      <trkpt lat="45.98627" lon="4.87469">
        <ele>268</ele>
        <time>2016-11-05T10:18:57Z</time>
      </trkpt>
      <trkpt lat="45.98629" lon="4.8748">
        <ele>268</ele>
        <time>2016-11-05T10:18:58Z</time>
      </trkpt>
      <trkpt lat="45.98631" lon="4.8749">
        <ele>268</ele>
        <time>2016-11-05T10:18:59Z</time>
      </trkpt>
      <trkpt lat="45.98633" lon="4.875">
        <ele>267</ele>
        <time>2016-11-05T10:19:00Z</time>
      </trkpt>
      <trkpt lat="45.98635" lon="4.8751">
        <ele>267</ele>
        <time>2016-11-05T10:19:01Z</time>
      </trkpt>
      <trkpt lat="45.98636" lon="4.8752">
        <ele>267</ele>
        <time>2016-11-05T10:19:02Z</time>
      </trkpt>
      <trkpt lat="45.98638" lon="4.87529">
        <ele>267</ele>
        <time>2016-11-05T10:19:03Z</time>
      </trkpt>
      <trkpt lat="45.9864" lon="4.87539">
        <ele>267</ele>
        <time>2016-11-05T10:19:04Z</time>
      </trkpt>
      <trkpt lat="45.98643" lon="4.87547">
        <ele>267</ele>
        <time>2016-11-05T10:19:05Z</time>
      </trkpt>
      <trkpt lat="45.98647" lon="4.87555">
        <ele>267</ele>
        <time>2016-11-05T10:19:06Z</time>
      </trkpt>
      <trkpt lat="45.98651" lon="4.87562">
        <ele>267</ele>
        <time>2016-11-05T10:19:07Z</time>
      </trkpt>
      <trkpt lat="45.98656" lon="4.87567">
        <ele>267</ele>
        <time>2016-11-05T10:19:08Z</time>
      </trkpt>
      <trkpt lat="45.98662" lon="4.87569">
        <ele>267</ele>
        <time>2016-11-05T10:19:09Z</time>
      </trkpt>
      <trkpt lat="45.98669" lon="4.87569">
        <ele>267</ele>
        <time>2016-11-05T10:19:10Z</time>
      </trkpt>
      <trkpt lat="45.98675" lon="4.87567">
        <ele>267</ele>
        <time>2016-11-05T10:19:11Z</time>
      </trkpt>
      <trkpt lat="45.9868" lon="4.87566">
        <ele>267</ele>
        <time>2016-11-05T10:19:12Z</time>
      </trkpt>
      <trkpt lat="45.98685" lon="4.87565">
        <ele>267</ele>
        <time>2016-11-05T10:19:13Z</time>
      </trkpt>
      <trkpt lat="45.98691" lon="4.87564">
        <ele>267</ele>
        <time>2016-11-05T10:19:14Z</time>
      </trkpt>
      <trkpt lat="45.98697" lon="4.87562">
        <ele>267</ele>
        <time>2016-11-05T10:19:15Z</time>
      </trkpt>
      <trkpt lat="45.98702" lon="4.87561">
        <ele>267</ele>
        <time>2016-11-05T10:19:16Z</time>
      </trkpt>
      <trkpt lat="45.98707" lon="4.87561">
        <ele>267</ele>
        <time>2016-11-05T10:19:17Z</time>
      </trkpt>
      <trkpt lat="45.98711" lon="4.87559">
        <ele>267</ele>
        <time>2016-11-05T10:19:18Z</time>
      </trkpt>
      <trkpt lat="45.98716" lon="4.87557">
        <ele>267</ele>
        <time>2016-11-05T10:19:19Z</time>
      </trkpt>
      <trkpt lat="45.98721" lon="4.87556">
        <ele>267</ele>
        <time>2016-11-05T10:19:20Z</time>
      </trkpt>
      <trkpt lat="45.98726" lon="4.87555">
        <ele>267</ele>
        <time>2016-11-05T10:19:21Z</time>
      </trkpt>
      <trkpt lat="45.98731" lon="4.87555">
        <ele>267</ele>
        <time>2016-11-05T10:19:22Z</time>
      </trkpt>
      <trkpt lat="45.98736" lon="4.87555">
        <ele>267</ele>
        <time>2016-11-05T10:19:23Z</time>
      </trkpt>
      <trkpt lat="45.9874" lon="4.87556">
        <ele>267</ele>
        <time>2016-11-05T10:19:24Z</time>
      </trkpt>
      <trkpt lat="45.98745" lon="4.87557">
        <ele>267</ele>
        <time>2016-11-05T10:19:25Z</time>
      </trkpt>
      <trkpt lat="45.9875" lon="4.87559">
        <ele>267</ele>
        <time>2016-11-05T10:19:26Z</time>
      </trkpt>
      <trkpt lat="45.98754" lon="4.87562">
        <ele>269</ele>
        <time>2016-11-05T10:19:27Z</time>
      </trkpt>
      <trkpt lat="45.98758" lon="4.87565">
        <ele>269</ele>
        <time>2016-11-05T10:19:28Z</time>
      </trkpt>
      <trkpt lat="45.98762" lon="4.87568">
        <ele>269</ele>
        <time>2016-11-05T10:19:29Z</time>
      </trkpt>
      <trkpt lat="45.98766" lon="4.87572">
        <ele>269</ele>
        <time>2016-11-05T10:19:30Z</time>
      </trkpt>
      <trkpt lat="45.9877" lon="4.87576">
        <ele>269</ele>
        <time>2016-11-05T10:19:31Z</time>
      </trkpt>
      <trkpt lat="45.98773" lon="4.87581">
        <ele>269</ele>
        <time>2016-11-05T10:19:32Z</time>
      </trkpt>
      <trkpt lat="45.98776" lon="4.87585">
        <ele>270</ele>
        <time>2016-11-05T10:19:33Z</time>
      </trkpt>
      <trkpt lat="45.9878" lon="4.87589">
        <ele>270</ele>
        <time>2016-11-05T10:19:34Z</time>
      </trkpt>
      <trkpt lat="45.98783" lon="4.87593">
        <ele>271</ele>
        <time>2016-11-05T10:19:35Z</time>
      </trkpt>
      <trkpt lat="45.9879" lon="4.876">
        <ele>271</ele>
        <time>2016-11-05T10:19:37Z</time>
      </trkpt>
      <trkpt lat="45.98793" lon="4.87604">
        <ele>271</ele>
        <time>2016-11-05T10:19:38Z</time>
      </trkpt>
      <trkpt lat="45.98799" lon="4.87614">
        <ele>271</ele>
        <time>2016-11-05T10:19:40Z</time>
      </trkpt>
      <trkpt lat="45.98801" lon="4.87618">
        <ele>271</ele>
        <time>2016-11-05T10:19:41Z</time>
      </trkpt>
      <trkpt lat="45.98804" lon="4.8763">
        <ele>271</ele>
        <time>2016-11-05T10:19:43Z</time>
      </trkpt>
      <trkpt lat="45.98805" lon="4.87635">
        <ele>271</ele>
        <time>2016-11-05T10:19:44Z</time>
      </trkpt>
      <trkpt lat="45.98809" lon="4.87645">
        <ele>272</ele>
        <time>2016-11-05T10:19:46Z</time>
      </trkpt>
      <trkpt lat="45.98811" lon="4.87651">
        <ele>272</ele>
        <time>2016-11-05T10:19:47Z</time>
      </trkpt>
      <trkpt lat="45.98813" lon="4.87657">
        <ele>272</ele>
        <time>2016-11-05T10:19:48Z</time>
      </trkpt>
      <trkpt lat="45.98815" lon="4.87664">
        <ele>272</ele>
        <time>2016-11-05T10:19:49Z</time>
      </trkpt>
      <trkpt lat="45.98817" lon="4.8767">
        <ele>273</ele>
        <time>2016-11-05T10:19:50Z</time>
      </trkpt>
      <trkpt lat="45.98819" lon="4.87677">
        <ele>273</ele>
        <time>2016-11-05T10:19:51Z</time>
      </trkpt>
      <trkpt lat="45.98821" lon="4.87684">
        <ele>273</ele>
        <time>2016-11-05T10:19:52Z</time>
      </trkpt>
      <trkpt lat="45.98823" lon="4.87691">
        <ele>273</ele>
        <time>2016-11-05T10:19:53Z</time>
      </trkpt>
      <trkpt lat="45.98824" lon="4.87698">
        <ele>273</ele>
        <time>2016-11-05T10:19:54Z</time>
      </trkpt>
      <trkpt lat="45.98826" lon="4.87704">
        <ele>273</ele>
        <time>2016-11-05T10:19:55Z</time>
      </trkpt>
      <trkpt lat="45.98828" lon="4.87711">
        <ele>273</ele>
        <time>2016-11-05T10:19:56Z</time>
      </trkpt>
      <trkpt lat="45.98829" lon="4.87718">
        <ele>274</ele>
        <time>2016-11-05T10:19:57Z</time>
      </trkpt>
      <trkpt lat="45.98831" lon="4.87724">
        <ele>274</ele>
        <time>2016-11-05T10:19:58Z</time>
      </trkpt>
      <trkpt lat="45.98832" lon="4.8773">
        <ele>274</ele>
        <time>2016-11-05T10:19:59Z</time>
      </trkpt>
      <trkpt lat="45.98835" lon="4.87742">
        <ele>273</ele>
        <time>2016-11-05T10:20:01Z</time>
      </trkpt>
      <trkpt lat="45.98836" lon="4.87749">
        <ele>273</ele>
        <time>2016-11-05T10:20:02Z</time>
      </trkpt>
      <trkpt lat="45.98838" lon="4.87755">
        <ele>273</ele>
        <time>2016-11-05T10:20:03Z</time>
      </trkpt>
      <trkpt lat="45.98839" lon="4.87761">
        <ele>273</ele>
        <time>2016-11-05T10:20:04Z</time>
      </trkpt>
      <trkpt lat="45.98841" lon="4.87768">
        <ele>273</ele>
        <time>2016-11-05T10:20:05Z</time>
      </trkpt>
      <trkpt lat="45.98843" lon="4.87774">
        <ele>273</ele>
        <time>2016-11-05T10:20:06Z</time>
      </trkpt>
      <trkpt lat="45.98845" lon="4.8778">
        <ele>273</ele>
        <time>2016-11-05T10:20:07Z</time>
      </trkpt>
      <trkpt lat="45.98847" lon="4.87786">
        <ele>273</ele>
        <time>2016-11-05T10:20:08Z</time>
      </trkpt>
      <trkpt lat="45.9885" lon="4.87792">
        <ele>273</ele>
        <time>2016-11-05T10:20:09Z</time>
      </trkpt>
      <trkpt lat="45.98852" lon="4.87798">
        <ele>273</ele>
        <time>2016-11-05T10:20:10Z</time>
      </trkpt>
      <trkpt lat="45.98854" lon="4.87804">
        <ele>273</ele>
        <time>2016-11-05T10:20:11Z</time>
      </trkpt>
      <trkpt lat="45.98856" lon="4.8781">
        <ele>273</ele>
        <time>2016-11-05T10:20:12Z</time>
      </trkpt>
      <trkpt lat="45.9886" lon="4.87821">
        <ele>273</ele>
        <time>2016-11-05T10:20:14Z</time>
      </trkpt>
      <trkpt lat="45.98862" lon="4.87827">
        <ele>273</ele>
        <time>2016-11-05T10:20:15Z</time>
      </trkpt>
      <trkpt lat="45.98864" lon="4.87832">
        <ele>273</ele>
        <time>2016-11-05T10:20:16Z</time>
      </trkpt>
      <trkpt lat="45.98867" lon="4.87839">
        <ele>273</ele>
        <time>2016-11-05T10:20:17Z</time>
      </trkpt>
      <trkpt lat="45.98871" lon="4.8785">
        <ele>273</ele>
        <time>2016-11-05T10:20:19Z</time>
      </trkpt>
      <trkpt lat="45.98873" lon="4.87854">
        <ele>273</ele>
        <time>2016-11-05T10:20:20Z</time>
      </trkpt>
      <trkpt lat="45.98879" lon="4.87863">
        <ele>272</ele>
        <time>2016-11-05T10:20:22Z</time>
      </trkpt>
      <trkpt lat="45.98882" lon="4.87868">
        <ele>272</ele>
        <time>2016-11-05T10:20:23Z</time>
      </trkpt>
      <trkpt lat="45.98888" lon="4.87877">
        <ele>272</ele>
        <time>2016-11-05T10:20:25Z</time>
      </trkpt>
      <trkpt lat="45.98891" lon="4.87881">
        <ele>272</ele>
        <time>2016-11-05T10:20:26Z</time>
      </trkpt>
      <trkpt lat="45.98894" lon="4.87886">
        <ele>272</ele>
        <time>2016-11-05T10:20:27Z</time>
      </trkpt>
      <trkpt lat="45.98897" lon="4.8789">
        <ele>272</ele>
        <time>2016-11-05T10:20:28Z</time>
      </trkpt>
      <trkpt lat="45.98904" lon="4.87898">
        <ele>272</ele>
        <time>2016-11-05T10:20:30Z</time>
      </trkpt>
      <trkpt lat="45.98907" lon="4.87901">
        <ele>272</ele>
        <time>2016-11-05T10:20:31Z</time>
      </trkpt>
      <trkpt lat="45.98914" lon="4.87908">
        <ele>271</ele>
        <time>2016-11-05T10:20:33Z</time>
      </trkpt>
      <trkpt lat="45.98918" lon="4.87911">
        <ele>272</ele>
        <time>2016-11-05T10:20:34Z</time>
      </trkpt>
      <trkpt lat="45.98926" lon="4.87917">
        <ele>272</ele>
        <time>2016-11-05T10:20:36Z</time>
      </trkpt>
      <trkpt lat="45.9893" lon="4.87919">
        <ele>272</ele>
        <time>2016-11-05T10:20:37Z</time>
      </trkpt>
      <trkpt lat="45.98937" lon="4.87924">
        <ele>272</ele>
        <time>2016-11-05T10:20:39Z</time>
      </trkpt>
      <trkpt lat="45.98941" lon="4.87926">
        <ele>273</ele>
        <time>2016-11-05T10:20:40Z</time>
      </trkpt>
      <trkpt lat="45.98949" lon="4.8793">
        <ele>273</ele>
        <time>2016-11-05T10:20:42Z</time>
      </trkpt>
      <trkpt lat="45.98953" lon="4.87932">
        <ele>273</ele>
        <time>2016-11-05T10:20:43Z</time>
      </trkpt>
      <trkpt lat="45.98961" lon="4.87937">
        <ele>273</ele>
        <time>2016-11-05T10:20:45Z</time>
      </trkpt>
      <trkpt lat="45.98965" lon="4.87939">
        <ele>274</ele>
        <time>2016-11-05T10:20:46Z</time>
      </trkpt>
      <trkpt lat="45.98972" lon="4.87945">
        <ele>274</ele>
        <time>2016-11-05T10:20:48Z</time>
      </trkpt>
      <trkpt lat="45.98976" lon="4.87947">
        <ele>274</ele>
        <time>2016-11-05T10:20:49Z</time>
      </trkpt>
      <trkpt lat="45.98983" lon="4.87952">
        <ele>274</ele>
        <time>2016-11-05T10:20:51Z</time>
      </trkpt>
      <trkpt lat="45.98987" lon="4.87954">
        <ele>274</ele>
        <time>2016-11-05T10:20:52Z</time>
      </trkpt>
      <trkpt lat="45.98994" lon="4.87957">
        <ele>274</ele>
        <time>2016-11-05T10:20:54Z</time>
      </trkpt>
      <trkpt lat="45.98997" lon="4.87958">
        <ele>274</ele>
        <time>2016-11-05T10:20:55Z</time>
      </trkpt>
      <trkpt lat="45.99004" lon="4.87962">
        <ele>276</ele>
        <time>2016-11-05T10:20:57Z</time>
      </trkpt>
      <trkpt lat="45.99007" lon="4.87963">
        <ele>276</ele>
        <time>2016-11-05T10:20:58Z</time>
      </trkpt>
      <trkpt lat="45.99013" lon="4.87967">
        <ele>276</ele>
        <time>2016-11-05T10:21:00Z</time>
      </trkpt>
      <trkpt lat="45.99016" lon="4.87969">
        <ele>276</ele>
        <time>2016-11-05T10:21:01Z</time>
      </trkpt>
      <trkpt lat="45.99024" lon="4.87972">
        <ele>276</ele>
        <time>2016-11-05T10:21:03Z</time>
      </trkpt>
      <trkpt lat="45.99027" lon="4.87974">
        <ele>276</ele>
        <time>2016-11-05T10:21:04Z</time>
      </trkpt>
      <trkpt lat="45.99035" lon="4.87978">
        <ele>276</ele>
        <time>2016-11-05T10:21:06Z</time>
      </trkpt>
      <trkpt lat="45.99038" lon="4.8798">
        <ele>276</ele>
        <time>2016-11-05T10:21:07Z</time>
      </trkpt>
      <trkpt lat="45.99045" lon="4.87985">
        <ele>277</ele>
        <time>2016-11-05T10:21:09Z</time>
      </trkpt>
      <trkpt lat="45.99049" lon="4.87987">
        <ele>277</ele>
        <time>2016-11-05T10:21:10Z</time>
      </trkpt>
      <trkpt lat="45.99056" lon="4.87992">
        <ele>277</ele>
        <time>2016-11-05T10:21:12Z</time>
      </trkpt>
      <trkpt lat="45.99059" lon="4.87994">
        <ele>277</ele>
        <time>2016-11-05T10:21:13Z</time>
      </trkpt>
      <trkpt lat="45.99066" lon="4.87998">
        <ele>277</ele>
        <time>2016-11-05T10:21:15Z</time>
      </trkpt>
      <trkpt lat="45.9907" lon="4.88">
        <ele>277</ele>
        <time>2016-11-05T10:21:16Z</time>
      </trkpt>
      <trkpt lat="45.99077" lon="4.88006">
        <ele>278</ele>
        <time>2016-11-05T10:21:18Z</time>
      </trkpt>
      <trkpt lat="45.99082" lon="4.88009">
        <ele>278</ele>
        <time>2016-11-05T10:21:19Z</time>
      </trkpt>
      <trkpt lat="45.99087" lon="4.8801">
        <ele>278</ele>
        <time>2016-11-05T10:21:20Z</time>
      </trkpt>
      <trkpt lat="45.99091" lon="4.88012">
        <ele>278</ele>
        <time>2016-11-05T10:21:21Z</time>
      </trkpt>
      <trkpt lat="45.99099" lon="4.88017">
        <ele>278</ele>
        <time>2016-11-05T10:21:23Z</time>
      </trkpt>
      <trkpt lat="45.99103" lon="4.88019">
        <ele>278</ele>
        <time>2016-11-05T10:21:24Z</time>
      </trkpt>
      <trkpt lat="45.99111" lon="4.88024">
        <ele>278</ele>
        <time>2016-11-05T10:21:26Z</time>
      </trkpt>
      <trkpt lat="45.99115" lon="4.88027">
        <ele>278</ele>
        <time>2016-11-05T10:21:27Z</time>
      </trkpt>
      <trkpt lat="45.9912" lon="4.88029">
        <ele>278</ele>
        <time>2016-11-05T10:21:28Z</time>
      </trkpt>
      <trkpt lat="45.99124" lon="4.88032">
        <ele>278</ele>
        <time>2016-11-05T10:21:29Z</time>
      </trkpt>
      <trkpt lat="45.99132" lon="4.88037">
        <ele>279</ele>
        <time>2016-11-05T10:21:31Z</time>
      </trkpt>
      <trkpt lat="45.99136" lon="4.8804">
        <ele>279</ele>
        <time>2016-11-05T10:21:32Z</time>
      </trkpt>
      <trkpt lat="45.99144" lon="4.88045">
        <ele>279</ele>
        <time>2016-11-05T10:21:34Z</time>
      </trkpt>
      <trkpt lat="45.99148" lon="4.88048">
        <ele>279</ele>
        <time>2016-11-05T10:21:35Z</time>
      </trkpt>
      <trkpt lat="45.99152" lon="4.8805">
        <ele>279</ele>
        <time>2016-11-05T10:21:36Z</time>
      </trkpt>
      <trkpt lat="45.99157" lon="4.88052">
        <ele>279</ele>
        <time>2016-11-05T10:21:37Z</time>
      </trkpt>
      <trkpt lat="45.99164" lon="4.88058">
        <ele>279</ele>
        <time>2016-11-05T10:21:39Z</time>
      </trkpt>
      <trkpt lat="45.99168" lon="4.88061">
        <ele>279</ele>
        <time>2016-11-05T10:21:40Z</time>
      </trkpt>
      <trkpt lat="45.99175" lon="4.88067">
        <ele>279</ele>
        <time>2016-11-05T10:21:42Z</time>
      </trkpt>
      <trkpt lat="45.99179" lon="4.8807">
        <ele>279</ele>
        <time>2016-11-05T10:21:43Z</time>
      </trkpt>
      <trkpt lat="45.99186" lon="4.88077">
        <ele>279</ele>
        <time>2016-11-05T10:21:45Z</time>
      </trkpt>
      <trkpt lat="45.9919" lon="4.8808">
        <ele>280</ele>
        <time>2016-11-05T10:21:46Z</time>
      </trkpt>
      <trkpt lat="45.99198" lon="4.88086">
        <ele>280</ele>
        <time>2016-11-05T10:21:48Z</time>
      </trkpt>
      <trkpt lat="45.99202" lon="4.8809">
        <ele>280</ele>
        <time>2016-11-05T10:21:49Z</time>
      </trkpt>
      <trkpt lat="45.99206" lon="4.88093">
        <ele>280</ele>
        <time>2016-11-05T10:21:50Z</time>
      </trkpt>
      <trkpt lat="45.9921" lon="4.88097">
        <ele>280</ele>
        <time>2016-11-05T10:21:51Z</time>
      </trkpt>
      <trkpt lat="45.99214" lon="4.881">
        <ele>280</ele>
        <time>2016-11-05T10:21:52Z</time>
      </trkpt>
      <trkpt lat="45.99218" lon="4.88103">
        <ele>280</ele>
        <time>2016-11-05T10:21:53Z</time>
      </trkpt>
      <trkpt lat="45.99222" lon="4.88107">
        <ele>280</ele>
        <time>2016-11-05T10:21:54Z</time>
      </trkpt>
      <trkpt lat="45.99227" lon="4.8811">
        <ele>280</ele>
        <time>2016-11-05T10:21:55Z</time>
      </trkpt>
      <trkpt lat="45.99231" lon="4.88114">
        <ele>280</ele>
        <time>2016-11-05T10:21:56Z</time>
      </trkpt>
      <trkpt lat="45.99235" lon="4.88117">
        <ele>280</ele>
        <time>2016-11-05T10:21:57Z</time>
      </trkpt>
      <trkpt lat="45.99238" lon="4.88121">
        <ele>280</ele>
        <time>2016-11-05T10:21:58Z</time>
      </trkpt>
      <trkpt lat="45.99242" lon="4.88125">
        <ele>280</ele>
        <time>2016-11-05T10:21:59Z</time>
      </trkpt>
      <trkpt lat="45.99246" lon="4.88128">
        <ele>280</ele>
        <time>2016-11-05T10:22:00Z</time>
      </trkpt>
      <trkpt lat="45.9925" lon="4.88132">
        <ele>280</ele>
        <time>2016-11-05T10:22:01Z</time>
      </trkpt>
      <trkpt lat="45.99257" lon="4.88139">
        <ele>283</ele>
        <time>2016-11-05T10:22:03Z</time>
      </trkpt>
      <trkpt lat="45.99261" lon="4.88143">
        <ele>283</ele>
        <time>2016-11-05T10:22:04Z</time>
      </trkpt>
      <trkpt lat="45.99264" lon="4.88146">
        <ele>283</ele>
        <time>2016-11-05T10:22:05Z</time>
      </trkpt>
      <trkpt lat="45.99268" lon="4.88149">
        <ele>283</ele>
        <time>2016-11-05T10:22:06Z</time>
      </trkpt>
      <trkpt lat="45.99272" lon="4.88152">
        <ele>283</ele>
        <time>2016-11-05T10:22:07Z</time>
      </trkpt>
      <trkpt lat="45.99276" lon="4.88156">
        <ele>283</ele>
        <time>2016-11-05T10:22:08Z</time>
      </trkpt>
      <trkpt lat="45.9928" lon="4.88159">
        <ele>284</ele>
        <time>2016-11-05T10:22:09Z</time>
      </trkpt>
      <trkpt lat="45.99284" lon="4.88163">
        <ele>284</ele>
        <time>2016-11-05T10:22:10Z</time>
      </trkpt>
      <trkpt lat="45.99288" lon="4.88167">
        <ele>284</ele>
        <time>2016-11-05T10:22:11Z</time>
      </trkpt>
      <trkpt lat="45.99293" lon="4.8817">
        <ele>284</ele>
        <time>2016-11-05T10:22:12Z</time>
      </trkpt>
      <trkpt lat="45.99297" lon="4.88174">
        <ele>284</ele>
        <time>2016-11-05T10:22:13Z</time>
      </trkpt>
      <trkpt lat="45.99301" lon="4.88178">
        <ele>285</ele>
        <time>2016-11-05T10:22:14Z</time>
      </trkpt>
      <trkpt lat="45.99305" lon="4.88182">
        <ele>285</ele>
        <time>2016-11-05T10:22:15Z</time>
      </trkpt>
      <trkpt lat="45.9931" lon="4.88185">
        <ele>285</ele>
        <time>2016-11-05T10:22:16Z</time>
      </trkpt>
      <trkpt lat="45.99314" lon="4.88188">
        <ele>285</ele>
        <time>2016-11-05T10:22:17Z</time>
      </trkpt>
      <trkpt lat="45.99318" lon="4.88191">
        <ele>285</ele>
        <time>2016-11-05T10:22:18Z</time>
      </trkpt>
      <trkpt lat="45.99322" lon="4.88195">
        <ele>285</ele>
        <time>2016-11-05T10:22:19Z</time>
      </trkpt>
      <trkpt lat="45.99325" lon="4.88198">
        <ele>285</ele>
        <time>2016-11-05T10:22:20Z</time>
      </trkpt>
      <trkpt lat="45.99333" lon="4.88204">
        <ele>285</ele>
        <time>2016-11-05T10:22:22Z</time>
      </trkpt>
      <trkpt lat="45.99337" lon="4.88207">
        <ele>288</ele>
        <time>2016-11-05T10:22:23Z</time>
      </trkpt>
      <trkpt lat="45.99345" lon="4.88214">
        <ele>287</ele>
        <time>2016-11-05T10:22:25Z</time>
      </trkpt>
      <trkpt lat="45.99348" lon="4.88217">
        <ele>287</ele>
        <time>2016-11-05T10:22:26Z</time>
      </trkpt>
      <trkpt lat="45.99353" lon="4.88221">
        <ele>287</ele>
        <time>2016-11-05T10:22:27Z</time>
      </trkpt>
      <trkpt lat="45.99357" lon="4.88225">
        <ele>287</ele>
        <time>2016-11-05T10:22:28Z</time>
      </trkpt>
      <trkpt lat="45.99361" lon="4.88229">
        <ele>287</ele>
        <time>2016-11-05T10:22:29Z</time>
      </trkpt>
      <trkpt lat="45.99365" lon="4.88234">
        <ele>287</ele>
        <time>2016-11-05T10:22:30Z</time>
      </trkpt>
      <trkpt lat="45.99368" lon="4.88238">
        <ele>287</ele>
        <time>2016-11-05T10:22:31Z</time>
      </trkpt>
      <trkpt lat="45.99372" lon="4.88244">
        <ele>287</ele>
        <time>2016-11-05T10:22:32Z</time>
      </trkpt>
      <trkpt lat="45.99376" lon="4.88249">
        <ele>287</ele>
        <time>2016-11-05T10:22:33Z</time>
      </trkpt>
      <trkpt lat="45.99379" lon="4.88255">
        <ele>285</ele>
        <time>2016-11-05T10:22:34Z</time>
      </trkpt>
      <trkpt lat="45.99382" lon="4.88262">
        <ele>285</ele>
        <time>2016-11-05T10:22:35Z</time>
      </trkpt>
      <trkpt lat="45.99385" lon="4.88267">
        <ele>285</ele>
        <time>2016-11-05T10:22:36Z</time>
      </trkpt>
      <trkpt lat="45.99388" lon="4.88273">
        <ele>284</ele>
        <time>2016-11-05T10:22:37Z</time>
      </trkpt>
      <trkpt lat="45.9939" lon="4.8828">
        <ele>284</ele>
        <time>2016-11-05T10:22:38Z</time>
      </trkpt>
      <trkpt lat="45.99393" lon="4.88286">
        <ele>284</ele>
        <time>2016-11-05T10:22:39Z</time>
      </trkpt>
      <trkpt lat="45.99395" lon="4.88292">
        <ele>284</ele>
        <time>2016-11-05T10:22:40Z</time>
      </trkpt>
      <trkpt lat="45.99398" lon="4.88298">
        <ele>284</ele>
        <time>2016-11-05T10:22:41Z</time>
      </trkpt>
      <trkpt lat="45.994" lon="4.88304">
        <ele>284</ele>
        <time>2016-11-05T10:22:42Z</time>
      </trkpt>
      <trkpt lat="45.99402" lon="4.8831">
        <ele>283</ele>
        <time>2016-11-05T10:22:43Z</time>
      </trkpt>
      <trkpt lat="45.99404" lon="4.88316">
        <ele>283</ele>
        <time>2016-11-05T10:22:44Z</time>
      </trkpt>
      <trkpt lat="45.99407" lon="4.88322">
        <ele>283</ele>
        <time>2016-11-05T10:22:45Z</time>
      </trkpt>
      <trkpt lat="45.99409" lon="4.88327">
        <ele>283</ele>
        <time>2016-11-05T10:22:46Z</time>
      </trkpt>
      <trkpt lat="45.99412" lon="4.88333">
        <ele>282</ele>
        <time>2016-11-05T10:22:47Z</time>
      </trkpt>
      <trkpt lat="45.99414" lon="4.88339">
        <ele>282</ele>
        <time>2016-11-05T10:22:48Z</time>
      </trkpt>
      <trkpt lat="45.99418" lon="4.8835">
        <ele>282</ele>
        <time>2016-11-05T10:22:50Z</time>
      </trkpt>
      <trkpt lat="45.9942" lon="4.88356">
        <ele>283</ele>
        <time>2016-11-05T10:22:51Z</time>
      </trkpt>
      <trkpt lat="45.99422" lon="4.88361">
        <ele>283</ele>
        <time>2016-11-05T10:22:52Z</time>
      </trkpt>
      <trkpt lat="45.99425" lon="4.88367">
        <ele>283</ele>
        <time>2016-11-05T10:22:53Z</time>
      </trkpt>
      <trkpt lat="45.99427" lon="4.88373">
        <ele>283</ele>
        <time>2016-11-05T10:22:54Z</time>
      </trkpt>
      <trkpt lat="45.99429" lon="4.88379">
        <ele>283</ele>
        <time>2016-11-05T10:22:55Z</time>
      </trkpt>
      <trkpt lat="45.99431" lon="4.88385">
        <ele>283</ele>
        <time>2016-11-05T10:22:56Z</time>
      </trkpt>
      <trkpt lat="45.99434" lon="4.88391">
        <ele>283</ele>
        <time>2016-11-05T10:22:57Z</time>
      </trkpt>
      <trkpt lat="45.99437" lon="4.88396">
        <ele>283</ele>
        <time>2016-11-05T10:22:58Z</time>
      </trkpt>
      <trkpt lat="45.9944" lon="4.88401">
        <ele>283</ele>
        <time>2016-11-05T10:22:59Z</time>
      </trkpt>
      <trkpt lat="45.99444" lon="4.88406">
        <ele>283</ele>
        <time>2016-11-05T10:23:00Z</time>
      </trkpt>
      <trkpt lat="45.99448" lon="4.88411">
        <ele>283</ele>
        <time>2016-11-05T10:23:01Z</time>
      </trkpt>
      <trkpt lat="45.99452" lon="4.88415">
        <ele>283</ele>
        <time>2016-11-05T10:23:02Z</time>
      </trkpt>
      <trkpt lat="45.99457" lon="4.88418">
        <ele>283</ele>
        <time>2016-11-05T10:23:03Z</time>
      </trkpt>
      <trkpt lat="45.99461" lon="4.88422">
        <ele>284</ele>
        <time>2016-11-05T10:23:04Z</time>
      </trkpt>
      <trkpt lat="45.99465" lon="4.88426">
        <ele>284</ele>
        <time>2016-11-05T10:23:05Z</time>
      </trkpt>
      <trkpt lat="45.99469" lon="4.8843">
        <ele>284</ele>
        <time>2016-11-05T10:23:06Z</time>
      </trkpt>
      <trkpt lat="45.99473" lon="4.88434">
        <ele>284</ele>
        <time>2016-11-05T10:23:07Z</time>
      </trkpt>
      <trkpt lat="45.99477" lon="4.88439">
        <ele>284</ele>
        <time>2016-11-05T10:23:08Z</time>
      </trkpt>
      <trkpt lat="45.9948" lon="4.88444">
        <ele>284</ele>
        <time>2016-11-05T10:23:09Z</time>
      </trkpt>
      <trkpt lat="45.99484" lon="4.8845">
        <ele>284</ele>
        <time>2016-11-05T10:23:10Z</time>
      </trkpt>
      <trkpt lat="45.99487" lon="4.88455">
        <ele>284</ele>
        <time>2016-11-05T10:23:11Z</time>
      </trkpt>
      <trkpt lat="45.9949" lon="4.88461">
        <ele>284</ele>
        <time>2016-11-05T10:23:12Z</time>
      </trkpt>
      <trkpt lat="45.99494" lon="4.88466">
        <ele>284</ele>
        <time>2016-11-05T10:23:13Z</time>
      </trkpt>
      <trkpt lat="45.99497" lon="4.88472">
        <ele>284</ele>
        <time>2016-11-05T10:23:14Z</time>
      </trkpt>
      <trkpt lat="45.995" lon="4.88478">
        <ele>284</ele>
        <time>2016-11-05T10:23:15Z</time>
      </trkpt>
      <trkpt lat="45.99503" lon="4.88483">
        <ele>284</ele>
        <time>2016-11-05T10:23:16Z</time>
      </trkpt>
      <trkpt lat="45.99506" lon="4.88489">
        <ele>284</ele>
        <time>2016-11-05T10:23:17Z</time>
      </trkpt>
      <trkpt lat="45.99509" lon="4.88495">
        <ele>284</ele>
        <time>2016-11-05T10:23:18Z</time>
      </trkpt>
      <trkpt lat="45.99511" lon="4.88501">
        <ele>284</ele>
        <time>2016-11-05T10:23:19Z</time>
      </trkpt>
      <trkpt lat="45.99514" lon="4.88507">
        <ele>285</ele>
        <time>2016-11-05T10:23:20Z</time>
      </trkpt>
      <trkpt lat="45.99517" lon="4.88513">
        <ele>285</ele>
        <time>2016-11-05T10:23:21Z</time>
      </trkpt>
      <trkpt lat="45.9952" lon="4.88519">
        <ele>285</ele>
        <time>2016-11-05T10:23:22Z</time>
      </trkpt>
      <trkpt lat="45.99523" lon="4.88524">
        <ele>285</ele>
        <time>2016-11-05T10:23:23Z</time>
      </trkpt>
      <trkpt lat="45.99526" lon="4.88531">
        <ele>285</ele>
        <time>2016-11-05T10:23:24Z</time>
      </trkpt>
      <trkpt lat="45.99529" lon="4.88537">
        <ele>285</ele>
        <time>2016-11-05T10:23:25Z</time>
      </trkpt>
      <trkpt lat="45.99532" lon="4.88543">
        <ele>285</ele>
        <time>2016-11-05T10:23:26Z</time>
      </trkpt>
      <trkpt lat="45.99535" lon="4.88549">
        <ele>285</ele>
        <time>2016-11-05T10:23:27Z</time>
      </trkpt>
      <trkpt lat="45.99538" lon="4.88555">
        <ele>285</ele>
        <time>2016-11-05T10:23:28Z</time>
      </trkpt>
      <trkpt lat="45.9954" lon="4.88562">
        <ele>285</ele>
        <time>2016-11-05T10:23:29Z</time>
      </trkpt>
      <trkpt lat="45.99542" lon="4.88568">
        <ele>285</ele>
        <time>2016-11-05T10:23:30Z</time>
      </trkpt>
      <trkpt lat="45.99544" lon="4.88575">
        <ele>286</ele>
        <time>2016-11-05T10:23:31Z</time>
      </trkpt>
      <trkpt lat="45.99546" lon="4.88582">
        <ele>286</ele>
        <time>2016-11-05T10:23:32Z</time>
      </trkpt>
      <trkpt lat="45.99547" lon="4.88589">
        <ele>286</ele>
        <time>2016-11-05T10:23:33Z</time>
      </trkpt>
      <trkpt lat="45.99548" lon="4.88597">
        <ele>286</ele>
        <time>2016-11-05T10:23:34Z</time>
      </trkpt>
      <trkpt lat="45.99548" lon="4.88605">
        <ele>286</ele>
        <time>2016-11-05T10:23:35Z</time>
      </trkpt>
      <trkpt lat="45.99549" lon="4.88613">
        <ele>286</ele>
        <time>2016-11-05T10:23:36Z</time>
      </trkpt>
      <trkpt lat="45.99549" lon="4.8862">
        <ele>286</ele>
        <time>2016-11-05T10:23:37Z</time>
      </trkpt>
      <trkpt lat="45.9955" lon="4.88627">
        <ele>286</ele>
        <time>2016-11-05T10:23:38Z</time>
      </trkpt>
      <trkpt lat="45.99551" lon="4.88635">
        <ele>286</ele>
        <time>2016-11-05T10:23:39Z</time>
      </trkpt>
      <trkpt lat="45.99552" lon="4.88642">
        <ele>286</ele>
        <time>2016-11-05T10:23:40Z</time>
      </trkpt>
      <trkpt lat="45.99552" lon="4.88649">
        <ele>286</ele>
        <time>2016-11-05T10:23:41Z</time>
      </trkpt>
      <trkpt lat="45.99553" lon="4.88656">
        <ele>286</ele>
        <time>2016-11-05T10:23:42Z</time>
      </trkpt>
      <trkpt lat="45.99554" lon="4.88662">
        <ele>286</ele>
        <time>2016-11-05T10:23:43Z</time>
      </trkpt>
      <trkpt lat="45.99555" lon="4.88669">
        <ele>286</ele>
        <time>2016-11-05T10:23:44Z</time>
      </trkpt>
      <trkpt lat="45.99555" lon="4.88676">
        <ele>286</ele>
        <time>2016-11-05T10:23:45Z</time>
      </trkpt>
      <trkpt lat="45.99556" lon="4.88682">
        <ele>286</ele>
        <time>2016-11-05T10:23:46Z</time>
      </trkpt>
      <trkpt lat="45.99557" lon="4.88689">
        <ele>286</ele>
        <time>2016-11-05T10:23:47Z</time>
      </trkpt>
      <trkpt lat="45.99558" lon="4.88695">
        <ele>286</ele>
        <time>2016-11-05T10:23:48Z</time>
      </trkpt>
      <trkpt lat="45.99558" lon="4.88702">
        <ele>286</ele>
        <time>2016-11-05T10:23:49Z</time>
      </trkpt>
      <trkpt lat="45.9956" lon="4.88714">
        <ele>286</ele>
        <time>2016-11-05T10:23:51Z</time>
      </trkpt>
      <trkpt lat="45.99561" lon="4.8872">
        <ele>286</ele>
        <time>2016-11-05T10:23:52Z</time>
      </trkpt>
      <trkpt lat="45.99562" lon="4.88732">
        <ele>287</ele>
        <time>2016-11-05T10:23:54Z</time>
      </trkpt>
      <trkpt lat="45.99563" lon="4.88739">
        <ele>287</ele>
        <time>2016-11-05T10:23:55Z</time>
      </trkpt>
      <trkpt lat="45.99563" lon="4.88745">
        <ele>287</ele>
        <time>2016-11-05T10:23:56Z</time>
      </trkpt>
      <trkpt lat="45.99564" lon="4.88752">
        <ele>287</ele>
        <time>2016-11-05T10:23:57Z</time>
      </trkpt>
      <trkpt lat="45.99565" lon="4.88759">
        <ele>287</ele>
        <time>2016-11-05T10:23:58Z</time>
      </trkpt>
      <trkpt lat="45.99565" lon="4.88766">
        <ele>287</ele>
        <time>2016-11-05T10:23:59Z</time>
      </trkpt>
      <trkpt lat="45.99566" lon="4.88773">
        <ele>287</ele>
        <time>2016-11-05T10:24:00Z</time>
      </trkpt>
      <trkpt lat="45.99567" lon="4.88779">
        <ele>287</ele>
        <time>2016-11-05T10:24:01Z</time>
      </trkpt>
      <trkpt lat="45.99568" lon="4.88786">
        <ele>287</ele>
        <time>2016-11-05T10:24:02Z</time>
      </trkpt>
      <trkpt lat="45.99568" lon="4.88792">
        <ele>287</ele>
        <time>2016-11-05T10:24:03Z</time>
      </trkpt>
      <trkpt lat="45.99569" lon="4.88799">
        <ele>287</ele>
        <time>2016-11-05T10:24:04Z</time>
      </trkpt>
      <trkpt lat="45.99568" lon="4.88805">
        <ele>287</ele>
        <time>2016-11-05T10:24:05Z</time>
      </trkpt>
      <trkpt lat="45.99569" lon="4.88811">
        <ele>287</ele>
        <time>2016-11-05T10:24:06Z</time>
      </trkpt>
      <trkpt lat="45.99569" lon="4.88818">
        <ele>287</ele>
        <time>2016-11-05T10:24:07Z</time>
      </trkpt>
      <trkpt lat="45.9957" lon="4.88825">
        <ele>287</ele>
        <time>2016-11-05T10:24:08Z</time>
      </trkpt>
      <trkpt lat="45.99571" lon="4.88832">
        <ele>287</ele>
        <time>2016-11-05T10:24:09Z</time>
      </trkpt>
      <trkpt lat="45.99571" lon="4.88839">
        <ele>287</ele>
        <time>2016-11-05T10:24:10Z</time>
      </trkpt>
      <trkpt lat="45.99572" lon="4.88846">
        <ele>287</ele>
        <time>2016-11-05T10:24:11Z</time>
      </trkpt>
      <trkpt lat="45.99573" lon="4.88853">
        <ele>287</ele>
        <time>2016-11-05T10:24:12Z</time>
      </trkpt>
      <trkpt lat="45.99573" lon="4.8886">
        <ele>287</ele>
        <time>2016-11-05T10:24:13Z</time>
      </trkpt>
      <trkpt lat="45.99574" lon="4.88867">
        <ele>287</ele>
        <time>2016-11-05T10:24:14Z</time>
      </trkpt>
      <trkpt lat="45.99575" lon="4.88874">
        <ele>287</ele>
        <time>2016-11-05T10:24:15Z</time>
      </trkpt>
      <trkpt lat="45.99575" lon="4.88881">
        <ele>287</ele>
        <time>2016-11-05T10:24:16Z</time>
      </trkpt>
      <trkpt lat="45.99576" lon="4.88888">
        <ele>287</ele>
        <time>2016-11-05T10:24:17Z</time>
      </trkpt>
      <trkpt lat="45.99576" lon="4.88895">
        <ele>287</ele>
        <time>2016-11-05T10:24:18Z</time>
      </trkpt>
      <trkpt lat="45.99577" lon="4.88901">
        <ele>287</ele>
        <time>2016-11-05T10:24:19Z</time>
      </trkpt>
      <trkpt lat="45.99579" lon="4.88908">
        <ele>287</ele>
        <time>2016-11-05T10:24:20Z</time>
      </trkpt>
      <trkpt lat="45.99578" lon="4.88915">
        <ele>287</ele>
        <time>2016-11-05T10:24:21Z</time>
      </trkpt>
      <trkpt lat="45.99579" lon="4.88922">
        <ele>287</ele>
        <time>2016-11-05T10:24:22Z</time>
      </trkpt>
      <trkpt lat="45.9958" lon="4.88928">
        <ele>287</ele>
        <time>2016-11-05T10:24:23Z</time>
      </trkpt>
      <trkpt lat="45.9958" lon="4.88935">
        <ele>287</ele>
        <time>2016-11-05T10:24:24Z</time>
      </trkpt>
      <trkpt lat="45.99581" lon="4.88942">
        <ele>287</ele>
        <time>2016-11-05T10:24:25Z</time>
      </trkpt>
      <trkpt lat="45.99581" lon="4.88949">
        <ele>287</ele>
        <time>2016-11-05T10:24:26Z</time>
      </trkpt>
      <trkpt lat="45.99582" lon="4.88956">
        <ele>287</ele>
        <time>2016-11-05T10:24:27Z</time>
      </trkpt>
      <trkpt lat="45.99582" lon="4.88963">
        <ele>287</ele>
        <time>2016-11-05T10:24:28Z</time>
      </trkpt>
      <trkpt lat="45.99582" lon="4.88971">
        <ele>287</ele>
        <time>2016-11-05T10:24:29Z</time>
      </trkpt>
      <trkpt lat="45.99583" lon="4.88979">
        <ele>287</ele>
        <time>2016-11-05T10:24:30Z</time>
      </trkpt>
      <trkpt lat="45.99583" lon="4.88986">
        <ele>288</ele>
        <time>2016-11-05T10:24:31Z</time>
      </trkpt>
      <trkpt lat="45.99583" lon="4.88994">
        <ele>288</ele>
        <time>2016-11-05T10:24:32Z</time>
      </trkpt>
      <trkpt lat="45.99583" lon="4.89002">
        <ele>288</ele>
        <time>2016-11-05T10:24:33Z</time>
      </trkpt>
      <trkpt lat="45.99583" lon="4.89011">
        <ele>288</ele>
        <time>2016-11-05T10:24:34Z</time>
      </trkpt>
      <trkpt lat="45.99583" lon="4.89019">
        <ele>288</ele>
        <time>2016-11-05T10:24:35Z</time>
      </trkpt>
      <trkpt lat="45.99582" lon="4.89027">
        <ele>288</ele>
        <time>2016-11-05T10:24:36Z</time>
      </trkpt>
      <trkpt lat="45.99581" lon="4.89036">
        <ele>288</ele>
        <time>2016-11-05T10:24:37Z</time>
      </trkpt>
      <trkpt lat="45.9958" lon="4.89044">
        <ele>288</ele>
        <time>2016-11-05T10:24:38Z</time>
      </trkpt>
      <trkpt lat="45.9958" lon="4.89052">
        <ele>288</ele>
        <time>2016-11-05T10:24:39Z</time>
      </trkpt>
      <trkpt lat="45.99579" lon="4.8906">
        <ele>289</ele>
        <time>2016-11-05T10:24:40Z</time>
      </trkpt>
      <trkpt lat="45.99579" lon="4.89068">
        <ele>289</ele>
        <time>2016-11-05T10:24:41Z</time>
      </trkpt>
      <trkpt lat="45.99579" lon="4.89076">
        <ele>289</ele>
        <time>2016-11-05T10:24:42Z</time>
      </trkpt>
      <trkpt lat="45.99579" lon="4.89083">
        <ele>289</ele>
        <time>2016-11-05T10:24:43Z</time>
      </trkpt>
      <trkpt lat="45.99578" lon="4.89091">
        <ele>289</ele>
        <time>2016-11-05T10:24:44Z</time>
      </trkpt>
      <trkpt lat="45.99577" lon="4.89099">
        <ele>289</ele>
        <time>2016-11-05T10:24:45Z</time>
      </trkpt>
      <trkpt lat="45.99577" lon="4.89107">
        <ele>289</ele>
        <time>2016-11-05T10:24:46Z</time>
      </trkpt>
      <trkpt lat="45.99576" lon="4.89115">
        <ele>289</ele>
        <time>2016-11-05T10:24:47Z</time>
      </trkpt>
      <trkpt lat="45.99575" lon="4.89123">
        <ele>289</ele>
        <time>2016-11-05T10:24:48Z</time>
      </trkpt>
      <trkpt lat="45.99575" lon="4.89131">
        <ele>289</ele>
        <time>2016-11-05T10:24:49Z</time>
      </trkpt>
      <trkpt lat="45.99576" lon="4.8914">
        <ele>289</ele>
        <time>2016-11-05T10:24:50Z</time>
      </trkpt>
      <trkpt lat="45.99576" lon="4.89149">
        <ele>289</ele>
        <time>2016-11-05T10:24:51Z</time>
      </trkpt>
      <trkpt lat="45.99576" lon="4.89157">
        <ele>288</ele>
        <time>2016-11-05T10:24:52Z</time>
      </trkpt>
      <trkpt lat="45.99576" lon="4.89164">
        <ele>288</ele>
        <time>2016-11-05T10:24:53Z</time>
      </trkpt>
      <trkpt lat="45.99577" lon="4.89172">
        <ele>288</ele>
        <time>2016-11-05T10:24:54Z</time>
      </trkpt>
      <trkpt lat="45.99578" lon="4.8918">
        <ele>288</ele>
        <time>2016-11-05T10:24:55Z</time>
      </trkpt>
      <trkpt lat="45.99578" lon="4.89187">
        <ele>288</ele>
        <time>2016-11-05T10:24:56Z</time>
      </trkpt>
      <trkpt lat="45.99579" lon="4.89195">
        <ele>288</ele>
        <time>2016-11-05T10:24:57Z</time>
      </trkpt>
      <trkpt lat="45.9958" lon="4.89203">
        <ele>288</ele>
        <time>2016-11-05T10:24:58Z</time>
      </trkpt>
      <trkpt lat="45.9958" lon="4.8921">
        <ele>288</ele>
        <time>2016-11-05T10:24:59Z</time>
      </trkpt>
      <trkpt lat="45.99581" lon="4.89217">
        <ele>288</ele>
        <time>2016-11-05T10:25:00Z</time>
      </trkpt>
      <trkpt lat="45.99582" lon="4.89225">
        <ele>288</ele>
        <time>2016-11-05T10:25:01Z</time>
      </trkpt>
      <trkpt lat="45.99582" lon="4.89232">
        <ele>288</ele>
        <time>2016-11-05T10:25:02Z</time>
      </trkpt>
      <trkpt lat="45.99583" lon="4.89239">
        <ele>288</ele>
        <time>2016-11-05T10:25:03Z</time>
      </trkpt>
      <trkpt lat="45.99583" lon="4.89247">
        <ele>288</ele>
        <time>2016-11-05T10:25:04Z</time>
      </trkpt>
      <trkpt lat="45.99584" lon="4.89254">
        <ele>288</ele>
        <time>2016-11-05T10:25:05Z</time>
      </trkpt>
      <trkpt lat="45.99584" lon="4.89262">
        <ele>288</ele>
        <time>2016-11-05T10:25:06Z</time>
      </trkpt>
      <trkpt lat="45.99584" lon="4.89269">
        <ele>288</ele>
        <time>2016-11-05T10:25:07Z</time>
      </trkpt>
      <trkpt lat="45.99584" lon="4.89277">
        <ele>289</ele>
        <time>2016-11-05T10:25:08Z</time>
      </trkpt>
      <trkpt lat="45.99585" lon="4.89284">
        <ele>289</ele>
        <time>2016-11-05T10:25:09Z</time>
      </trkpt>
      <trkpt lat="45.99585" lon="4.89291">
        <ele>289</ele>
        <time>2016-11-05T10:25:10Z</time>
      </trkpt>
      <trkpt lat="45.99586" lon="4.89298">
        <ele>289</ele>
        <time>2016-11-05T10:25:11Z</time>
      </trkpt>
      <trkpt lat="45.99586" lon="4.89305">
        <ele>289</ele>
        <time>2016-11-05T10:25:12Z</time>
      </trkpt>
      <trkpt lat="45.99586" lon="4.89313">
        <ele>289</ele>
        <time>2016-11-05T10:25:13Z</time>
      </trkpt>
      <trkpt lat="45.99587" lon="4.89321">
        <ele>289</ele>
        <time>2016-11-05T10:25:14Z</time>
      </trkpt>
      <trkpt lat="45.99587" lon="4.89329">
        <ele>289</ele>
        <time>2016-11-05T10:25:15Z</time>
      </trkpt>
      <trkpt lat="45.99588" lon="4.89337">
        <ele>289</ele>
        <time>2016-11-05T10:25:16Z</time>
      </trkpt>
      <trkpt lat="45.99588" lon="4.89345">
        <ele>289</ele>
        <time>2016-11-05T10:25:17Z</time>
      </trkpt>
      <trkpt lat="45.99589" lon="4.89353">
        <ele>289</ele>
        <time>2016-11-05T10:25:18Z</time>
      </trkpt>
      <trkpt lat="45.99589" lon="4.89361">
        <ele>289</ele>
        <time>2016-11-05T10:25:19Z</time>
      </trkpt>
      <trkpt lat="45.9959" lon="4.89368">
        <ele>289</ele>
        <time>2016-11-05T10:25:20Z</time>
      </trkpt>
      <trkpt lat="45.9959" lon="4.89375">
        <ele>289</ele>
        <time>2016-11-05T10:25:21Z</time>
      </trkpt>
      <trkpt lat="45.9959" lon="4.89381">
        <ele>290</ele>
        <time>2016-11-05T10:25:22Z</time>
      </trkpt>
      <trkpt lat="45.9959" lon="4.89388">
        <ele>290</ele>
        <time>2016-11-05T10:25:23Z</time>
      </trkpt>
      <trkpt lat="45.99591" lon="4.89395">
        <ele>290</ele>
        <time>2016-11-05T10:25:24Z</time>
      </trkpt>
      <trkpt lat="45.99591" lon="4.89402">
        <ele>290</ele>
        <time>2016-11-05T10:25:25Z</time>
      </trkpt>
      <trkpt lat="45.99591" lon="4.89409">
        <ele>290</ele>
        <time>2016-11-05T10:25:26Z</time>
      </trkpt>
      <trkpt lat="45.99592" lon="4.89416">
        <ele>290</ele>
        <time>2016-11-05T10:25:27Z</time>
      </trkpt>
      <trkpt lat="45.99593" lon="4.89423">
        <ele>290</ele>
        <time>2016-11-05T10:25:28Z</time>
      </trkpt>
      <trkpt lat="45.99593" lon="4.8943">
        <ele>290</ele>
        <time>2016-11-05T10:25:29Z</time>
      </trkpt>
      <trkpt lat="45.99593" lon="4.89437">
        <ele>290</ele>
        <time>2016-11-05T10:25:30Z</time>
      </trkpt>
      <trkpt lat="45.99594" lon="4.89445">
        <ele>290</ele>
        <time>2016-11-05T10:25:31Z</time>
      </trkpt>
      <trkpt lat="45.99594" lon="4.89452">
        <ele>290</ele>
        <time>2016-11-05T10:25:32Z</time>
      </trkpt>
      <trkpt lat="45.99595" lon="4.89459">
        <ele>290</ele>
        <time>2016-11-05T10:25:33Z</time>
      </trkpt>
      <trkpt lat="45.99595" lon="4.89466">
        <ele>290</ele>
        <time>2016-11-05T10:25:34Z</time>
      </trkpt>
      <trkpt lat="45.99595" lon="4.89474">
        <ele>290</ele>
        <time>2016-11-05T10:25:35Z</time>
      </trkpt>
      <trkpt lat="45.99596" lon="4.89481">
        <ele>290</ele>
        <time>2016-11-05T10:25:36Z</time>
      </trkpt>
      <trkpt lat="45.99596" lon="4.89488">
        <ele>290</ele>
        <time>2016-11-05T10:25:37Z</time>
      </trkpt>
      <trkpt lat="45.99596" lon="4.89495">
        <ele>290</ele>
        <time>2016-11-05T10:25:38Z</time>
      </trkpt>
      <trkpt lat="45.99597" lon="4.89503">
        <ele>290</ele>
        <time>2016-11-05T10:25:39Z</time>
      </trkpt>
      <trkpt lat="45.99597" lon="4.8951">
        <ele>290</ele>
        <time>2016-11-05T10:25:40Z</time>
      </trkpt>
      <trkpt lat="45.99598" lon="4.89517">
        <ele>290</ele>
        <time>2016-11-05T10:25:41Z</time>
      </trkpt>
      <trkpt lat="45.99598" lon="4.89525">
        <ele>291</ele>
        <time>2016-11-05T10:25:42Z</time>
      </trkpt>
      <trkpt lat="45.99599" lon="4.89532">
        <ele>291</ele>
        <time>2016-11-05T10:25:43Z</time>
      </trkpt>
      <trkpt lat="45.99599" lon="4.89539">
        <ele>291</ele>
        <time>2016-11-05T10:25:44Z</time>
      </trkpt>
      <trkpt lat="45.99599" lon="4.89546">
        <ele>291</ele>
        <time>2016-11-05T10:25:45Z</time>
      </trkpt>
      <trkpt lat="45.996" lon="4.89554">
        <ele>291</ele>
        <time>2016-11-05T10:25:46Z</time>
      </trkpt>
      <trkpt lat="45.996" lon="4.89561">
        <ele>291</ele>
        <time>2016-11-05T10:25:47Z</time>
      </trkpt>
      <trkpt lat="45.99601" lon="4.89567">
        <ele>291</ele>
        <time>2016-11-05T10:25:48Z</time>
      </trkpt>
      <trkpt lat="45.99601" lon="4.89574">
        <ele>291</ele>
        <time>2016-11-05T10:25:49Z</time>
      </trkpt>
      <trkpt lat="45.99601" lon="4.89581">
        <ele>291</ele>
        <time>2016-11-05T10:25:50Z</time>
      </trkpt>
      <trkpt lat="45.99601" lon="4.89588">
        <ele>292</ele>
        <time>2016-11-05T10:25:51Z</time>
      </trkpt>
      <trkpt lat="45.996" lon="4.89595">
        <ele>292</ele>
        <time>2016-11-05T10:25:52Z</time>
      </trkpt>
      <trkpt lat="45.99601" lon="4.89602">
        <ele>292</ele>
        <time>2016-11-05T10:25:53Z</time>
      </trkpt>
      <trkpt lat="45.99601" lon="4.89614">
        <ele>291</ele>
        <time>2016-11-05T10:25:55Z</time>
      </trkpt>
      <trkpt lat="45.99602" lon="4.89621">
        <ele>291</ele>
        <time>2016-11-05T10:25:56Z</time>
      </trkpt>
      <trkpt lat="45.99602" lon="4.89627">
        <ele>291</ele>
        <time>2016-11-05T10:25:57Z</time>
      </trkpt>
      <trkpt lat="45.99603" lon="4.89634">
        <ele>291</ele>
        <time>2016-11-05T10:25:58Z</time>
      </trkpt>
      <trkpt lat="45.99603" lon="4.8964">
        <ele>291</ele>
        <time>2016-11-05T10:25:59Z</time>
      </trkpt>
      <trkpt lat="45.99603" lon="4.89647">
        <ele>291</ele>
        <time>2016-11-05T10:26:00Z</time>
      </trkpt>
      <trkpt lat="45.99604" lon="4.89654">
        <ele>291</ele>
        <time>2016-11-05T10:26:01Z</time>
      </trkpt>
      <trkpt lat="45.99603" lon="4.89662">
        <ele>292</ele>
        <time>2016-11-05T10:26:02Z</time>
      </trkpt>
      <trkpt lat="45.99603" lon="4.89669">
        <ele>292</ele>
        <time>2016-11-05T10:26:03Z</time>
      </trkpt>
      <trkpt lat="45.99603" lon="4.89676">
        <ele>292</ele>
        <time>2016-11-05T10:26:04Z</time>
      </trkpt>
      <trkpt lat="45.99603" lon="4.89683">
        <ele>292</ele>
        <time>2016-11-05T10:26:05Z</time>
      </trkpt>
      <trkpt lat="45.99602" lon="4.89689">
        <ele>292</ele>
        <time>2016-11-05T10:26:06Z</time>
      </trkpt>
      <trkpt lat="45.99602" lon="4.89702">
        <ele>292</ele>
        <time>2016-11-05T10:26:08Z</time>
      </trkpt>
      <trkpt lat="45.99602" lon="4.89708">
        <ele>292</ele>
        <time>2016-11-05T10:26:09Z</time>
      </trkpt>
      <trkpt lat="45.99602" lon="4.89715">
        <ele>292</ele>
        <time>2016-11-05T10:26:10Z</time>
      </trkpt>
      <trkpt lat="45.99602" lon="4.89722">
        <ele>292</ele>
        <time>2016-11-05T10:26:11Z</time>
      </trkpt>
      <trkpt lat="45.99602" lon="4.89734">
        <ele>292</ele>
        <time>2016-11-05T10:26:13Z</time>
      </trkpt>
      <trkpt lat="45.99602" lon="4.89741">
        <ele>292</ele>
        <time>2016-11-05T10:26:14Z</time>
      </trkpt>
      <trkpt lat="45.99602" lon="4.89747">
        <ele>292</ele>
        <time>2016-11-05T10:26:15Z</time>
      </trkpt>
      <trkpt lat="45.99602" lon="4.89754">
        <ele>292</ele>
        <time>2016-11-05T10:26:16Z</time>
      </trkpt>
      <trkpt lat="45.99602" lon="4.8976">
        <ele>292</ele>
        <time>2016-11-05T10:26:17Z</time>
      </trkpt>
      <trkpt lat="45.99601" lon="4.89767">
        <ele>292</ele>
        <time>2016-11-05T10:26:18Z</time>
      </trkpt>
      <trkpt lat="45.99601" lon="4.89774">
        <ele>292</ele>
        <time>2016-11-05T10:26:19Z</time>
      </trkpt>
      <trkpt lat="45.99601" lon="4.89781">
        <ele>292</ele>
        <time>2016-11-05T10:26:20Z</time>
      </trkpt>
      <trkpt lat="45.99601" lon="4.89788">
        <ele>292</ele>
        <time>2016-11-05T10:26:21Z</time>
      </trkpt>
      <trkpt lat="45.99601" lon="4.89795">
        <ele>292</ele>
        <time>2016-11-05T10:26:22Z</time>
      </trkpt>
      <trkpt lat="45.99601" lon="4.89803">
        <ele>292</ele>
        <time>2016-11-05T10:26:23Z</time>
      </trkpt>
      <trkpt lat="45.99601" lon="4.8981">
        <ele>292</ele>
        <time>2016-11-05T10:26:24Z</time>
      </trkpt>
      <trkpt lat="45.99602" lon="4.89817">
        <ele>292</ele>
        <time>2016-11-05T10:26:25Z</time>
      </trkpt>
      <trkpt lat="45.99601" lon="4.89823">
        <ele>292</ele>
        <time>2016-11-05T10:26:26Z</time>
      </trkpt>
      <trkpt lat="45.99601" lon="4.8983">
        <ele>293</ele>
        <time>2016-11-05T10:26:27Z</time>
      </trkpt>
      <trkpt lat="45.99602" lon="4.89837">
        <ele>293</ele>
        <time>2016-11-05T10:26:28Z</time>
      </trkpt>
      <trkpt lat="45.99601" lon="4.89845">
        <ele>293</ele>
        <time>2016-11-05T10:26:29Z</time>
      </trkpt>
      <trkpt lat="45.99601" lon="4.89853">
        <ele>293</ele>
        <time>2016-11-05T10:26:30Z</time>
      </trkpt>
      <trkpt lat="45.99601" lon="4.89861">
        <ele>293</ele>
        <time>2016-11-05T10:26:31Z</time>
      </trkpt>
      <trkpt lat="45.99601" lon="4.89868">
        <ele>293</ele>
        <time>2016-11-05T10:26:32Z</time>
      </trkpt>
      <trkpt lat="45.99601" lon="4.89875">
        <ele>293</ele>
        <time>2016-11-05T10:26:33Z</time>
      </trkpt>
      <trkpt lat="45.99601" lon="4.89882">
        <ele>292</ele>
        <time>2016-11-05T10:26:34Z</time>
      </trkpt>
      <trkpt lat="45.99601" lon="4.89889">
        <ele>292</ele>
        <time>2016-11-05T10:26:35Z</time>
      </trkpt>
      <trkpt lat="45.99601" lon="4.89896">
        <ele>292</ele>
        <time>2016-11-05T10:26:36Z</time>
      </trkpt>
      <trkpt lat="45.99601" lon="4.89902">
        <ele>292</ele>
        <time>2016-11-05T10:26:37Z</time>
      </trkpt>
      <trkpt lat="45.996" lon="4.89909">
        <ele>292</ele>
        <time>2016-11-05T10:26:38Z</time>
      </trkpt>
      <trkpt lat="45.99601" lon="4.89916">
        <ele>292</ele>
        <time>2016-11-05T10:26:39Z</time>
      </trkpt>
      <trkpt lat="45.996" lon="4.89922">
        <ele>293</ele>
        <time>2016-11-05T10:26:40Z</time>
      </trkpt>
      <trkpt lat="45.99601" lon="4.89935">
        <ele>293</ele>
        <time>2016-11-05T10:26:42Z</time>
      </trkpt>
      <trkpt lat="45.99601" lon="4.89942">
        <ele>293</ele>
        <time>2016-11-05T10:26:43Z</time>
      </trkpt>
      <trkpt lat="45.99601" lon="4.89954">
        <ele>294</ele>
        <time>2016-11-05T10:26:45Z</time>
      </trkpt>
      <trkpt lat="45.99602" lon="4.8996">
        <ele>294</ele>
        <time>2016-11-05T10:26:46Z</time>
      </trkpt>
      <trkpt lat="45.99603" lon="4.89972">
        <ele>294</ele>
        <time>2016-11-05T10:26:48Z</time>
      </trkpt>
      <trkpt lat="45.99603" lon="4.89978">
        <ele>294</ele>
        <time>2016-11-05T10:26:49Z</time>
      </trkpt>
      <trkpt lat="45.99605" lon="4.8999">
        <ele>294</ele>
        <time>2016-11-05T10:26:51Z</time>
      </trkpt>
      <trkpt lat="45.99606" lon="4.89996">
        <ele>295</ele>
        <time>2016-11-05T10:26:52Z</time>
      </trkpt>
      <trkpt lat="45.99607" lon="4.90007">
        <ele>296</ele>
        <time>2016-11-05T10:26:54Z</time>
      </trkpt>
      <trkpt lat="45.99609" lon="4.90013">
        <ele>296</ele>
        <time>2016-11-05T10:26:55Z</time>
      </trkpt>
      <trkpt lat="45.99612" lon="4.90025">
        <ele>296</ele>
        <time>2016-11-05T10:26:57Z</time>
      </trkpt>
      <trkpt lat="45.99613" lon="4.9003">
        <ele>296</ele>
        <time>2016-11-05T10:26:58Z</time>
      </trkpt>
      <trkpt lat="45.99617" lon="4.9004">
        <ele>296</ele>
        <time>2016-11-05T10:27:00Z</time>
      </trkpt>
      <trkpt lat="45.9962" lon="4.90045">
        <ele>297</ele>
        <time>2016-11-05T10:27:01Z</time>
      </trkpt>
      <trkpt lat="45.99624" lon="4.90055">
        <ele>297</ele>
        <time>2016-11-05T10:27:03Z</time>
      </trkpt>
      <trkpt lat="45.99626" lon="4.9006">
        <ele>297</ele>
        <time>2016-11-05T10:27:04Z</time>
      </trkpt>
      <trkpt lat="45.9963" lon="4.9007">
        <ele>297</ele>
        <time>2016-11-05T10:27:06Z</time>
      </trkpt>
      <trkpt lat="45.99633" lon="4.90075">
        <ele>297</ele>
        <time>2016-11-05T10:27:07Z</time>
      </trkpt>
      <trkpt lat="45.99635" lon="4.90085">
        <ele>298</ele>
        <time>2016-11-05T10:27:09Z</time>
      </trkpt>
      <trkpt lat="45.99637" lon="4.9009">
        <ele>299</ele>
        <time>2016-11-05T10:27:10Z</time>
      </trkpt>
      <trkpt lat="45.99639" lon="4.901">
        <ele>299</ele>
        <time>2016-11-05T10:27:12Z</time>
      </trkpt>
      <trkpt lat="45.9964" lon="4.90106">
        <ele>299</ele>
        <time>2016-11-05T10:27:13Z</time>
      </trkpt>
      <trkpt lat="45.99643" lon="4.90116">
        <ele>299</ele>
        <time>2016-11-05T10:27:15Z</time>
      </trkpt>
      <trkpt lat="45.99644" lon="4.90121">
        <ele>299</ele>
        <time>2016-11-05T10:27:16Z</time>
      </trkpt>
      <trkpt lat="45.99647" lon="4.90131">
        <ele>299</ele>
        <time>2016-11-05T10:27:18Z</time>
      </trkpt>
      <trkpt lat="45.99648" lon="4.90136">
        <ele>299</ele>
        <time>2016-11-05T10:27:19Z</time>
      </trkpt>
      <trkpt lat="45.99651" lon="4.90145">
        <ele>300</ele>
        <time>2016-11-05T10:27:21Z</time>
      </trkpt>
      <trkpt lat="45.99652" lon="4.9015">
        <ele>300</ele>
        <time>2016-11-05T10:27:22Z</time>
      </trkpt>
      <trkpt lat="45.99654" lon="4.9016">
        <ele>300</ele>
        <time>2016-11-05T10:27:24Z</time>
      </trkpt>
      <trkpt lat="45.99655" lon="4.90165">
        <ele>300</ele>
        <time>2016-11-05T10:27:25Z</time>
      </trkpt>
      <trkpt lat="45.99658" lon="4.90174">
        <ele>301</ele>
        <time>2016-11-05T10:27:27Z</time>
      </trkpt>
      <trkpt lat="45.9966" lon="4.90178">
        <ele>301</ele>
        <time>2016-11-05T10:27:28Z</time>
      </trkpt>
      <trkpt lat="45.99662" lon="4.90187">
        <ele>301</ele>
        <time>2016-11-05T10:27:30Z</time>
      </trkpt>
      <trkpt lat="45.99663" lon="4.90192">
        <ele>301</ele>
        <time>2016-11-05T10:27:31Z</time>
      </trkpt>
      <trkpt lat="45.99666" lon="4.90202">
        <ele>302</ele>
        <time>2016-11-05T10:27:33Z</time>
      </trkpt>
      <trkpt lat="45.99667" lon="4.90206">
        <ele>303</ele>
        <time>2016-11-05T10:27:34Z</time>
      </trkpt>
      <trkpt lat="45.9967" lon="4.90214">
        <ele>303</ele>
        <time>2016-11-05T10:27:36Z</time>
      </trkpt>
      <trkpt lat="45.99671" lon="4.90218">
        <ele>303</ele>
        <time>2016-11-05T10:27:37Z</time>
      </trkpt>
      <trkpt lat="45.99672" lon="4.90231">
        <ele>304</ele>
        <time>2016-11-05T10:27:40Z</time>
      </trkpt>
      <trkpt lat="45.99674" lon="4.90234">
        <ele>304</ele>
        <time>2016-11-05T10:27:41Z</time>
      </trkpt>
      <trkpt lat="45.99678" lon="4.90242">
        <ele>304</ele>
        <time>2016-11-05T10:27:43Z</time>
      </trkpt>
      <trkpt lat="45.9968" lon="4.90246">
        <ele>304</ele>
        <time>2016-11-05T10:27:44Z</time>
      </trkpt>
      <trkpt lat="45.99681" lon="4.90255">
        <ele>304</ele>
        <time>2016-11-05T10:27:46Z</time>
      </trkpt>
      <trkpt lat="45.9968" lon="4.90259">
        <ele>304</ele>
        <time>2016-11-05T10:27:47Z</time>
      </trkpt>
      <trkpt lat="45.99682" lon="4.90267">
        <ele>305</ele>
        <time>2016-11-05T10:27:48Z</time>
      </trkpt>
      <trkpt lat="45.99682" lon="4.90272">
        <ele>305</ele>
        <time>2016-11-05T10:27:49Z</time>
      </trkpt>
      <trkpt lat="45.99683" lon="4.90282">
        <ele>305</ele>
        <time>2016-11-05T10:27:51Z</time>
      </trkpt>
      <trkpt lat="45.99684" lon="4.90287">
        <ele>305</ele>
        <time>2016-11-05T10:27:52Z</time>
      </trkpt>
      <trkpt lat="45.99681" lon="4.90295">
        <ele>304</ele>
        <time>2016-11-05T10:27:54Z</time>
      </trkpt>
      <trkpt lat="45.99677" lon="4.90299">
        <ele>304</ele>
        <time>2016-11-05T10:27:55Z</time>
      </trkpt>
      <trkpt lat="45.99679" lon="4.90309">
        <ele>304</ele>
        <time>2016-11-05T10:27:57Z</time>
      </trkpt>
      <trkpt lat="45.99679" lon="4.90313">
        <ele>304</ele>
        <time>2016-11-05T10:27:58Z</time>
      </trkpt>
      <trkpt lat="45.99676" lon="4.90325">
        <ele>303</ele>
        <time>2016-11-05T10:28:03Z</time>
      </trkpt>
      <trkpt lat="45.99675" lon="4.90327">
        <ele>303</ele>
        <time>2016-11-05T10:28:04Z</time>
      </trkpt>
      <trkpt lat="45.99668" lon="4.90327">
        <ele>303</ele>
        <time>2016-11-05T10:28:07Z</time>
      </trkpt>
      <trkpt lat="45.99665" lon="4.90325">
        <ele>302</ele>
        <time>2016-11-05T10:28:08Z</time>
      </trkpt>
      <trkpt lat="45.9966" lon="4.90324">
        <ele>302</ele>
        <time>2016-11-05T10:28:09Z</time>
      </trkpt>
      <trkpt lat="45.99655" lon="4.90323">
        <ele>302</ele>
        <time>2016-11-05T10:28:10Z</time>
      </trkpt>
      <trkpt lat="45.99644" lon="4.90322">
        <ele>302</ele>
        <time>2016-11-05T10:28:12Z</time>
      </trkpt>
      <trkpt lat="45.99639" lon="4.90321">
        <ele>302</ele>
        <time>2016-11-05T10:28:13Z</time>
      </trkpt>
      <trkpt lat="45.99635" lon="4.9032">
        <ele>302</ele>
        <time>2016-11-05T10:28:14Z</time>
      </trkpt>
      <trkpt lat="45.99626" lon="4.90321">
        <ele>302</ele>
        <time>2016-11-05T10:28:16Z</time>
      </trkpt>
      <trkpt lat="45.99621" lon="4.90322">
        <ele>302</ele>
        <time>2016-11-05T10:28:17Z</time>
      </trkpt>
      <trkpt lat="45.99609" lon="4.90326">
        <ele>301</ele>
        <time>2016-11-05T10:28:20Z</time>
      </trkpt>
      <trkpt lat="45.99604" lon="4.90324">
        <ele>301</ele>
        <time>2016-11-05T10:28:21Z</time>
      </trkpt>
      <trkpt lat="45.99594" lon="4.90323">
        <ele>301</ele>
        <time>2016-11-05T10:28:23Z</time>
      </trkpt>
      <trkpt lat="45.99575" lon="4.9032">
        <ele>301</ele>
        <time>2016-11-05T10:28:27Z</time>
      </trkpt>
      <trkpt lat="45.99567" lon="4.90318">
        <ele>301</ele>
        <time>2016-11-05T10:28:29Z</time>
      </trkpt>
      <trkpt lat="45.99563" lon="4.90318">
        <ele>301</ele>
        <time>2016-11-05T10:28:30Z</time>
      </trkpt>
      <trkpt lat="45.99555" lon="4.90317">
        <ele>300</ele>
        <time>2016-11-05T10:28:32Z</time>
      </trkpt>
      <trkpt lat="45.99551" lon="4.90317">
        <ele>300</ele>
        <time>2016-11-05T10:28:33Z</time>
      </trkpt>
      <trkpt lat="45.99547" lon="4.90317">
        <ele>300</ele>
        <time>2016-11-05T10:28:34Z</time>
      </trkpt>
      <trkpt lat="45.99538" lon="4.90315">
        <ele>300</ele>
        <time>2016-11-05T10:28:36Z</time>
      </trkpt>
      <trkpt lat="45.99529" lon="4.90314">
        <ele>300</ele>
        <time>2016-11-05T10:28:38Z</time>
      </trkpt>
      <trkpt lat="45.99521" lon="4.90312">
        <ele>300</ele>
        <time>2016-11-05T10:28:40Z</time>
      </trkpt>
      <trkpt lat="45.99517" lon="4.90312">
        <ele>300</ele>
        <time>2016-11-05T10:28:41Z</time>
      </trkpt>
      <trkpt lat="45.99512" lon="4.90308">
        <ele>300</ele>
        <time>2016-11-05T10:28:42Z</time>
      </trkpt>
      <trkpt lat="45.99505" lon="4.90306">
        <ele>300</ele>
        <time>2016-11-05T10:28:44Z</time>
      </trkpt>
      <trkpt lat="45.99501" lon="4.90305">
        <ele>300</ele>
        <time>2016-11-05T10:28:45Z</time>
      </trkpt>
      <trkpt lat="45.99492" lon="4.90303">
        <ele>300</ele>
        <time>2016-11-05T10:28:47Z</time>
      </trkpt>
      <trkpt lat="45.9948" lon="4.90303">
        <ele>300</ele>
        <time>2016-11-05T10:28:50Z</time>
      </trkpt>
      <trkpt lat="45.99474" lon="4.90305">
        <ele>300</ele>
        <time>2016-11-05T10:28:51Z</time>
      </trkpt>
      <trkpt lat="45.99467" lon="4.90304">
        <ele>300</ele>
        <time>2016-11-05T10:28:52Z</time>
      </trkpt>
      <trkpt lat="45.99456" lon="4.90309">
        <ele>300</ele>
        <time>2016-11-05T10:28:53Z</time>
      </trkpt>
      <trkpt lat="45.99453" lon="4.90315">
        <ele>300</ele>
        <time>2016-11-05T10:28:54Z</time>
      </trkpt>
      <trkpt lat="45.99449" lon="4.90319">
        <ele>300</ele>
        <time>2016-11-05T10:28:55Z</time>
      </trkpt>
      <trkpt lat="45.99444" lon="4.90316">
        <ele>300</ele>
        <time>2016-11-05T10:28:56Z</time>
      </trkpt>
      <trkpt lat="45.9944" lon="4.90312">
        <ele>300</ele>
        <time>2016-11-05T10:28:57Z</time>
      </trkpt>
      <trkpt lat="45.99431" lon="4.90312">
        <ele>300</ele>
        <time>2016-11-05T10:28:59Z</time>
      </trkpt>
      <trkpt lat="45.99427" lon="4.90312">
        <ele>300</ele>
        <time>2016-11-05T10:29:00Z</time>
      </trkpt>
      <trkpt lat="45.99422" lon="4.90309">
        <ele>300</ele>
        <time>2016-11-05T10:29:01Z</time>
      </trkpt>
      <trkpt lat="45.99417" lon="4.90306">
        <ele>300</ele>
        <time>2016-11-05T10:29:02Z</time>
      </trkpt>
      <trkpt lat="45.99412" lon="4.90305">
        <ele>300</ele>
        <time>2016-11-05T10:29:03Z</time>
      </trkpt>
      <trkpt lat="45.99407" lon="4.90305">
        <ele>300</ele>
        <time>2016-11-05T10:29:04Z</time>
      </trkpt>
      <trkpt lat="45.99403" lon="4.90303">
        <ele>300</ele>
        <time>2016-11-05T10:29:05Z</time>
      </trkpt>
      <trkpt lat="45.99398" lon="4.90301">
        <ele>300</ele>
        <time>2016-11-05T10:29:06Z</time>
      </trkpt>
      <trkpt lat="45.99393" lon="4.90302">
        <ele>300</ele>
        <time>2016-11-05T10:29:07Z</time>
      </trkpt>
      <trkpt lat="45.99388" lon="4.90301">
        <ele>300</ele>
        <time>2016-11-05T10:29:08Z</time>
      </trkpt>
      <trkpt lat="45.99383" lon="4.90301">
        <ele>300</ele>
        <time>2016-11-05T10:29:09Z</time>
      </trkpt>
      <trkpt lat="45.99378" lon="4.903">
        <ele>300</ele>
        <time>2016-11-05T10:29:10Z</time>
      </trkpt>
      <trkpt lat="45.99374" lon="4.90299">
        <ele>300</ele>
        <time>2016-11-05T10:29:11Z</time>
      </trkpt>
      <trkpt lat="45.99369" lon="4.90298">
        <ele>300</ele>
        <time>2016-11-05T10:29:12Z</time>
      </trkpt>
      <trkpt lat="45.99331" lon="4.9029">
        <ele>299</ele>
        <time>2016-11-05T10:29:20Z</time>
      </trkpt>
      <trkpt lat="45.99312" lon="4.90271">
        <ele>299</ele>
        <time>2016-11-05T10:29:25Z</time>
      </trkpt>
      <trkpt lat="45.99311" lon="4.90265">
        <ele>299</ele>
        <time>2016-11-05T10:29:26Z</time>
      </trkpt>
      <trkpt lat="45.99308" lon="4.9026">
        <ele>299</ele>
        <time>2016-11-05T10:29:27Z</time>
      </trkpt>
      <trkpt lat="45.99304" lon="4.90254">
        <ele>299</ele>
        <time>2016-11-05T10:29:28Z</time>
      </trkpt>
      <trkpt lat="45.99301" lon="4.90249">
        <ele>298</ele>
        <time>2016-11-05T10:29:29Z</time>
      </trkpt>
      <trkpt lat="45.99298" lon="4.90244">
        <ele>298</ele>
        <time>2016-11-05T10:29:30Z</time>
      </trkpt>
      <trkpt lat="45.9929" lon="4.90234">
        <ele>298</ele>
        <time>2016-11-05T10:29:32Z</time>
      </trkpt>
      <trkpt lat="45.99281" lon="4.90218">
        <ele>298</ele>
        <time>2016-11-05T10:29:35Z</time>
      </trkpt>
      <trkpt lat="45.99273" lon="4.90209">
        <ele>298</ele>
        <time>2016-11-05T10:29:37Z</time>
      </trkpt>
      <trkpt lat="45.99269" lon="4.90203">
        <ele>298</ele>
        <time>2016-11-05T10:29:38Z</time>
      </trkpt>
      <trkpt lat="45.99264" lon="4.90198">
        <ele>298</ele>
        <time>2016-11-05T10:29:39Z</time>
      </trkpt>
      <trkpt lat="45.9926" lon="4.90192">
        <ele>298</ele>
        <time>2016-11-05T10:29:40Z</time>
      </trkpt>
      <trkpt lat="45.99256" lon="4.90187">
        <ele>298</ele>
        <time>2016-11-05T10:29:41Z</time>
      </trkpt>
      <trkpt lat="45.99252" lon="4.90181">
        <ele>297</ele>
        <time>2016-11-05T10:29:42Z</time>
      </trkpt>
      <trkpt lat="45.99248" lon="4.90176">
        <ele>297</ele>
        <time>2016-11-05T10:29:43Z</time>
      </trkpt>
      <trkpt lat="45.99244" lon="4.9017">
        <ele>297</ele>
        <time>2016-11-05T10:29:44Z</time>
      </trkpt>
      <trkpt lat="45.9924" lon="4.90164">
        <ele>297</ele>
        <time>2016-11-05T10:29:45Z</time>
      </trkpt>
      <trkpt lat="45.99237" lon="4.90158">
        <ele>297</ele>
        <time>2016-11-05T10:29:46Z</time>
      </trkpt>
      <trkpt lat="45.99233" lon="4.90153">
        <ele>297</ele>
        <time>2016-11-05T10:29:47Z</time>
      </trkpt>
      <trkpt lat="45.99225" lon="4.90141">
        <ele>297</ele>
        <time>2016-11-05T10:29:49Z</time>
      </trkpt>
      <trkpt lat="45.99221" lon="4.90136">
        <ele>297</ele>
        <time>2016-11-05T10:29:50Z</time>
      </trkpt>
      <trkpt lat="45.99217" lon="4.90131">
        <ele>297</ele>
        <time>2016-11-05T10:29:51Z</time>
      </trkpt>
      <trkpt lat="45.99214" lon="4.90125">
        <ele>297</ele>
        <time>2016-11-05T10:29:52Z</time>
      </trkpt>
      <trkpt lat="45.9921" lon="4.90119">
        <ele>297</ele>
        <time>2016-11-05T10:29:53Z</time>
      </trkpt>
      <trkpt lat="45.99206" lon="4.90114">
        <ele>297</ele>
        <time>2016-11-05T10:29:54Z</time>
      </trkpt>
      <trkpt lat="45.99202" lon="4.90109">
        <ele>297</ele>
        <time>2016-11-05T10:29:55Z</time>
      </trkpt>
      <trkpt lat="45.99198" lon="4.90103">
        <ele>297</ele>
        <time>2016-11-05T10:29:56Z</time>
      </trkpt>
      <trkpt lat="45.99194" lon="4.90098">
        <ele>297</ele>
        <time>2016-11-05T10:29:57Z</time>
      </trkpt>
      <trkpt lat="45.9919" lon="4.90091">
        <ele>297</ele>
        <time>2016-11-05T10:29:58Z</time>
      </trkpt>
      <trkpt lat="45.99185" lon="4.90085">
        <ele>297</ele>
        <time>2016-11-05T10:29:59Z</time>
      </trkpt>
      <trkpt lat="45.99181" lon="4.90079">
        <ele>297</ele>
        <time>2016-11-05T10:30:00Z</time>
      </trkpt>
      <trkpt lat="45.99176" lon="4.90073">
        <ele>297</ele>
        <time>2016-11-05T10:30:01Z</time>
      </trkpt>
      <trkpt lat="45.99171" lon="4.90066">
        <ele>297</ele>
        <time>2016-11-05T10:30:02Z</time>
      </trkpt>
      <trkpt lat="45.99167" lon="4.9006">
        <ele>297</ele>
        <time>2016-11-05T10:30:03Z</time>
      </trkpt>
      <trkpt lat="45.99149" lon="4.90037">
        <ele>297</ele>
        <time>2016-11-05T10:30:07Z</time>
      </trkpt>
      <trkpt lat="45.99145" lon="4.90032">
        <ele>297</ele>
        <time>2016-11-05T10:30:08Z</time>
      </trkpt>
      <trkpt lat="45.99141" lon="4.90026">
        <ele>297</ele>
        <time>2016-11-05T10:30:09Z</time>
      </trkpt>
      <trkpt lat="45.99136" lon="4.90021">
        <ele>297</ele>
        <time>2016-11-05T10:30:10Z</time>
      </trkpt>
      <trkpt lat="45.99132" lon="4.90015">
        <ele>296</ele>
        <time>2016-11-05T10:30:11Z</time>
      </trkpt>
      <trkpt lat="45.99128" lon="4.9001">
        <ele>296</ele>
        <time>2016-11-05T10:30:12Z</time>
      </trkpt>
      <trkpt lat="45.99124" lon="4.90005">
        <ele>296</ele>
        <time>2016-11-05T10:30:13Z</time>
      </trkpt>
      <trkpt lat="45.99119" lon="4.9">
        <ele>295</ele>
        <time>2016-11-05T10:30:14Z</time>
      </trkpt>
      <trkpt lat="45.99115" lon="4.89995">
        <ele>295</ele>
        <time>2016-11-05T10:30:15Z</time>
      </trkpt>
      <trkpt lat="45.9911" lon="4.89989">
        <ele>295</ele>
        <time>2016-11-05T10:30:16Z</time>
      </trkpt>
      <trkpt lat="45.99106" lon="4.89983">
        <ele>295</ele>
        <time>2016-11-05T10:30:17Z</time>
      </trkpt>
      <trkpt lat="45.99102" lon="4.89977">
        <ele>295</ele>
        <time>2016-11-05T10:30:18Z</time>
      </trkpt>
      <trkpt lat="45.99099" lon="4.89971">
        <ele>295</ele>
        <time>2016-11-05T10:30:19Z</time>
      </trkpt>
      <trkpt lat="45.99094" lon="4.89965">
        <ele>295</ele>
        <time>2016-11-05T10:30:20Z</time>
      </trkpt>
      <trkpt lat="45.9909" lon="4.89959">
        <ele>295</ele>
        <time>2016-11-05T10:30:21Z</time>
      </trkpt>
      <trkpt lat="45.99086" lon="4.89953">
        <ele>295</ele>
        <time>2016-11-05T10:30:22Z</time>
      </trkpt>
      <trkpt lat="45.99082" lon="4.89947">
        <ele>294</ele>
        <time>2016-11-05T10:30:23Z</time>
      </trkpt>
      <trkpt lat="45.99077" lon="4.89941">
        <ele>294</ele>
        <time>2016-11-05T10:30:24Z</time>
      </trkpt>
      <trkpt lat="45.99073" lon="4.89936">
        <ele>294</ele>
        <time>2016-11-05T10:30:25Z</time>
      </trkpt>
      <trkpt lat="45.99069" lon="4.89931">
        <ele>294</ele>
        <time>2016-11-05T10:30:26Z</time>
      </trkpt>
      <trkpt lat="45.99065" lon="4.89926">
        <ele>294</ele>
        <time>2016-11-05T10:30:27Z</time>
      </trkpt>
      <trkpt lat="45.99061" lon="4.89921">
        <ele>294</ele>
        <time>2016-11-05T10:30:28Z</time>
      </trkpt>
      <trkpt lat="45.99057" lon="4.89915">
        <ele>293</ele>
        <time>2016-11-05T10:30:29Z</time>
      </trkpt>
      <trkpt lat="45.99054" lon="4.89909">
        <ele>293</ele>
        <time>2016-11-05T10:30:30Z</time>
      </trkpt>
      <trkpt lat="45.9905" lon="4.89902">
        <ele>293</ele>
        <time>2016-11-05T10:30:31Z</time>
      </trkpt>
      <trkpt lat="45.99046" lon="4.89896">
        <ele>293</ele>
        <time>2016-11-05T10:30:32Z</time>
      </trkpt>
      <trkpt lat="45.99041" lon="4.8989">
        <ele>293</ele>
        <time>2016-11-05T10:30:33Z</time>
      </trkpt>
      <trkpt lat="45.99037" lon="4.89884">
        <ele>293</ele>
        <time>2016-11-05T10:30:34Z</time>
      </trkpt>
      <trkpt lat="45.99033" lon="4.89879">
        <ele>293</ele>
        <time>2016-11-05T10:30:35Z</time>
      </trkpt>
      <trkpt lat="45.99028" lon="4.89873">
        <ele>293</ele>
        <time>2016-11-05T10:30:36Z</time>
      </trkpt>
      <trkpt lat="45.99024" lon="4.89868">
        <ele>293</ele>
        <time>2016-11-05T10:30:37Z</time>
      </trkpt>
      <trkpt lat="45.9902" lon="4.89862">
        <ele>293</ele>
        <time>2016-11-05T10:30:38Z</time>
      </trkpt>
      <trkpt lat="45.99016" lon="4.89857">
        <ele>293</ele>
        <time>2016-11-05T10:30:39Z</time>
      </trkpt>
      <trkpt lat="45.99012" lon="4.89852">
        <ele>293</ele>
        <time>2016-11-05T10:30:40Z</time>
      </trkpt>
      <trkpt lat="45.99008" lon="4.89847">
        <ele>293</ele>
        <time>2016-11-05T10:30:41Z</time>
      </trkpt>
      <trkpt lat="45.99004" lon="4.89842">
        <ele>293</ele>
        <time>2016-11-05T10:30:42Z</time>
      </trkpt>
      <trkpt lat="45.99001" lon="4.89837">
        <ele>293</ele>
        <time>2016-11-05T10:30:43Z</time>
      </trkpt>
      <trkpt lat="45.98997" lon="4.89832">
        <ele>293</ele>
        <time>2016-11-05T10:30:44Z</time>
      </trkpt>
      <trkpt lat="45.98993" lon="4.89827">
        <ele>293</ele>
        <time>2016-11-05T10:30:45Z</time>
      </trkpt>
      <trkpt lat="45.98989" lon="4.89822">
        <ele>293</ele>
        <time>2016-11-05T10:30:46Z</time>
      </trkpt>
      <trkpt lat="45.98985" lon="4.89817">
        <ele>293</ele>
        <time>2016-11-05T10:30:47Z</time>
      </trkpt>
      <trkpt lat="45.9898" lon="4.89812">
        <ele>293</ele>
        <time>2016-11-05T10:30:48Z</time>
      </trkpt>
      <trkpt lat="45.98976" lon="4.89807">
        <ele>293</ele>
        <time>2016-11-05T10:30:49Z</time>
      </trkpt>
      <trkpt lat="45.98972" lon="4.89802">
        <ele>293</ele>
        <time>2016-11-05T10:30:50Z</time>
      </trkpt>
      <trkpt lat="45.98968" lon="4.89798">
        <ele>293</ele>
        <time>2016-11-05T10:30:51Z</time>
      </trkpt>
      <trkpt lat="45.98963" lon="4.89794">
        <ele>293</ele>
        <time>2016-11-05T10:30:52Z</time>
      </trkpt>
      <trkpt lat="45.98959" lon="4.8979">
        <ele>293</ele>
        <time>2016-11-05T10:30:53Z</time>
      </trkpt>
      <trkpt lat="45.98954" lon="4.89785">
        <ele>293</ele>
        <time>2016-11-05T10:30:54Z</time>
      </trkpt>
      <trkpt lat="45.98949" lon="4.89782">
        <ele>293</ele>
        <time>2016-11-05T10:30:55Z</time>
      </trkpt>
      <trkpt lat="45.98944" lon="4.89778">
        <ele>293</ele>
        <time>2016-11-05T10:30:56Z</time>
      </trkpt>
      <trkpt lat="45.98939" lon="4.89774">
        <ele>293</ele>
        <time>2016-11-05T10:30:57Z</time>
      </trkpt>
      <trkpt lat="45.98934" lon="4.89771">
        <ele>293</ele>
        <time>2016-11-05T10:30:58Z</time>
      </trkpt>
      <trkpt lat="45.98928" lon="4.89767">
        <ele>293</ele>
        <time>2016-11-05T10:30:59Z</time>
      </trkpt>
      <trkpt lat="45.98923" lon="4.89763">
        <ele>293</ele>
        <time>2016-11-05T10:31:00Z</time>
      </trkpt>
      <trkpt lat="45.98918" lon="4.8976">
        <ele>293</ele>
        <time>2016-11-05T10:31:01Z</time>
      </trkpt>
      <trkpt lat="45.98912" lon="4.89757">
        <ele>293</ele>
        <time>2016-11-05T10:31:02Z</time>
      </trkpt>
      <trkpt lat="45.98907" lon="4.89753">
        <ele>293</ele>
        <time>2016-11-05T10:31:03Z</time>
      </trkpt>
      <trkpt lat="45.98902" lon="4.8975">
        <ele>293</ele>
        <time>2016-11-05T10:31:04Z</time>
      </trkpt>
      <trkpt lat="45.98897" lon="4.89747">
        <ele>293</ele>
        <time>2016-11-05T10:31:05Z</time>
      </trkpt>
      <trkpt lat="45.98893" lon="4.89744">
        <ele>293</ele>
        <time>2016-11-05T10:31:06Z</time>
      </trkpt>
      <trkpt lat="45.98888" lon="4.89741">
        <ele>293</ele>
        <time>2016-11-05T10:31:07Z</time>
      </trkpt>
      <trkpt lat="45.98884" lon="4.89738">
        <ele>293</ele>
        <time>2016-11-05T10:31:08Z</time>
      </trkpt>
      <trkpt lat="45.9888" lon="4.89734">
        <ele>293</ele>
        <time>2016-11-05T10:31:09Z</time>
      </trkpt>
      <trkpt lat="45.98875" lon="4.89731">
        <ele>293</ele>
        <time>2016-11-05T10:31:10Z</time>
      </trkpt>
      <trkpt lat="45.98871" lon="4.89727">
        <ele>293</ele>
        <time>2016-11-05T10:31:11Z</time>
      </trkpt>
      <trkpt lat="45.98866" lon="4.89724">
        <ele>293</ele>
        <time>2016-11-05T10:31:12Z</time>
      </trkpt>
      <trkpt lat="45.98861" lon="4.8972">
        <ele>293</ele>
        <time>2016-11-05T10:31:13Z</time>
      </trkpt>
      <trkpt lat="45.98856" lon="4.89716">
        <ele>293</ele>
        <time>2016-11-05T10:31:14Z</time>
      </trkpt>
      <trkpt lat="45.98852" lon="4.89712">
        <ele>293</ele>
        <time>2016-11-05T10:31:15Z</time>
      </trkpt>
      <trkpt lat="45.98847" lon="4.89707">
        <ele>292</ele>
        <time>2016-11-05T10:31:16Z</time>
      </trkpt>
      <trkpt lat="45.98843" lon="4.89703">
        <ele>292</ele>
        <time>2016-11-05T10:31:17Z</time>
      </trkpt>
      <trkpt lat="45.98838" lon="4.89698">
        <ele>292</ele>
        <time>2016-11-05T10:31:18Z</time>
      </trkpt>
      <trkpt lat="45.98834" lon="4.89694">
        <ele>292</ele>
        <time>2016-11-05T10:31:19Z</time>
      </trkpt>
      <trkpt lat="45.98829" lon="4.89691">
        <ele>292</ele>
        <time>2016-11-05T10:31:20Z</time>
      </trkpt>
      <trkpt lat="45.98825" lon="4.89687">
        <ele>292</ele>
        <time>2016-11-05T10:31:21Z</time>
      </trkpt>
      <trkpt lat="45.9882" lon="4.89683">
        <ele>292</ele>
        <time>2016-11-05T10:31:22Z</time>
      </trkpt>
      <trkpt lat="45.98815" lon="4.89679">
        <ele>292</ele>
        <time>2016-11-05T10:31:23Z</time>
      </trkpt>
      <trkpt lat="45.98811" lon="4.89673">
        <ele>292</ele>
        <time>2016-11-05T10:31:24Z</time>
      </trkpt>
      <trkpt lat="45.98807" lon="4.89669">
        <ele>292</ele>
        <time>2016-11-05T10:31:25Z</time>
      </trkpt>
      <trkpt lat="45.98802" lon="4.89664">
        <ele>291</ele>
        <time>2016-11-05T10:31:26Z</time>
      </trkpt>
      <trkpt lat="45.98798" lon="4.89658">
        <ele>291</ele>
        <time>2016-11-05T10:31:27Z</time>
      </trkpt>
      <trkpt lat="45.98793" lon="4.89652">
        <ele>291</ele>
        <time>2016-11-05T10:31:28Z</time>
      </trkpt>
      <trkpt lat="45.98788" lon="4.89646">
        <ele>291</ele>
        <time>2016-11-05T10:31:29Z</time>
      </trkpt>
      <trkpt lat="45.98784" lon="4.8964">
        <ele>291</ele>
        <time>2016-11-05T10:31:30Z</time>
      </trkpt>
      <trkpt lat="45.9878" lon="4.89634">
        <ele>291</ele>
        <time>2016-11-05T10:31:31Z</time>
      </trkpt>
      <trkpt lat="45.98775" lon="4.89628">
        <ele>291</ele>
        <time>2016-11-05T10:31:32Z</time>
      </trkpt>
      <trkpt lat="45.98771" lon="4.89622">
        <ele>291</ele>
        <time>2016-11-05T10:31:33Z</time>
      </trkpt>
      <trkpt lat="45.98767" lon="4.89616">
        <ele>291</ele>
        <time>2016-11-05T10:31:34Z</time>
      </trkpt>
      <trkpt lat="45.98763" lon="4.8961">
        <ele>291</ele>
        <time>2016-11-05T10:31:35Z</time>
      </trkpt>
      <trkpt lat="45.98759" lon="4.89604">
        <ele>291</ele>
        <time>2016-11-05T10:31:36Z</time>
      </trkpt>
      <trkpt lat="45.98754" lon="4.89598">
        <ele>291</ele>
        <time>2016-11-05T10:31:37Z</time>
      </trkpt>
      <trkpt lat="45.9875" lon="4.89592">
        <ele>291</ele>
        <time>2016-11-05T10:31:38Z</time>
      </trkpt>
      <trkpt lat="45.98746" lon="4.89586">
        <ele>291</ele>
        <time>2016-11-05T10:31:39Z</time>
      </trkpt>
      <trkpt lat="45.98742" lon="4.8958">
        <ele>291</ele>
        <time>2016-11-05T10:31:40Z</time>
      </trkpt>
      <trkpt lat="45.98737" lon="4.89574">
        <ele>290</ele>
        <time>2016-11-05T10:31:41Z</time>
      </trkpt>
      <trkpt lat="45.98733" lon="4.89568">
        <ele>290</ele>
        <time>2016-11-05T10:31:42Z</time>
      </trkpt>
      <trkpt lat="45.98729" lon="4.89562">
        <ele>290</ele>
        <time>2016-11-05T10:31:43Z</time>
      </trkpt>
      <trkpt lat="45.98725" lon="4.89556">
        <ele>290</ele>
        <time>2016-11-05T10:31:44Z</time>
      </trkpt>
      <trkpt lat="45.98721" lon="4.8955">
        <ele>290</ele>
        <time>2016-11-05T10:31:45Z</time>
      </trkpt>
      <trkpt lat="45.98716" lon="4.89544">
        <ele>290</ele>
        <time>2016-11-05T10:31:46Z</time>
      </trkpt>
      <trkpt lat="45.98712" lon="4.89538">
        <ele>289</ele>
        <time>2016-11-05T10:31:47Z</time>
      </trkpt>
      <trkpt lat="45.98707" lon="4.89532">
        <ele>289</ele>
        <time>2016-11-05T10:31:48Z</time>
      </trkpt>
      <trkpt lat="45.98703" lon="4.89526">
        <ele>289</ele>
        <time>2016-11-05T10:31:49Z</time>
      </trkpt>
      <trkpt lat="45.98698" lon="4.8952">
        <ele>289</ele>
        <time>2016-11-05T10:31:50Z</time>
      </trkpt>
      <trkpt lat="45.98694" lon="4.89514">
        <ele>289</ele>
        <time>2016-11-05T10:31:51Z</time>
      </trkpt>
      <trkpt lat="45.9869" lon="4.89508">
        <ele>289</ele>
        <time>2016-11-05T10:31:52Z</time>
      </trkpt>
      <trkpt lat="45.98686" lon="4.89503">
        <ele>289</ele>
        <time>2016-11-05T10:31:53Z</time>
      </trkpt>
      <trkpt lat="45.98682" lon="4.89497">
        <ele>289</ele>
        <time>2016-11-05T10:31:54Z</time>
      </trkpt>
      <trkpt lat="45.98678" lon="4.89492">
        <ele>289</ele>
        <time>2016-11-05T10:31:55Z</time>
      </trkpt>
      <trkpt lat="45.98673" lon="4.89487">
        <ele>289</ele>
        <time>2016-11-05T10:31:56Z</time>
      </trkpt>
      <trkpt lat="45.98669" lon="4.89482">
        <ele>289</ele>
        <time>2016-11-05T10:31:57Z</time>
      </trkpt>
      <trkpt lat="45.98665" lon="4.89476">
        <ele>290</ele>
        <time>2016-11-05T10:31:58Z</time>
      </trkpt>
      <trkpt lat="45.98661" lon="4.89469">
        <ele>290</ele>
        <time>2016-11-05T10:31:59Z</time>
      </trkpt>
      <trkpt lat="45.98656" lon="4.89463">
        <ele>290</ele>
        <time>2016-11-05T10:32:00Z</time>
      </trkpt>
      <trkpt lat="45.98651" lon="4.89457">
        <ele>290</ele>
        <time>2016-11-05T10:32:01Z</time>
      </trkpt>
      <trkpt lat="45.98646" lon="4.89452">
        <ele>291</ele>
        <time>2016-11-05T10:32:02Z</time>
      </trkpt>
      <trkpt lat="45.98641" lon="4.89446">
        <ele>291</ele>
        <time>2016-11-05T10:32:03Z</time>
      </trkpt>
      <trkpt lat="45.98635" lon="4.89441">
        <ele>291</ele>
        <time>2016-11-05T10:32:04Z</time>
      </trkpt>
      <trkpt lat="45.9863" lon="4.89436">
        <ele>291</ele>
        <time>2016-11-05T10:32:05Z</time>
      </trkpt>
      <trkpt lat="45.98625" lon="4.8943">
        <ele>291</ele>
        <time>2016-11-05T10:32:06Z</time>
      </trkpt>
      <trkpt lat="45.9862" lon="4.89425">
        <ele>291</ele>
        <time>2016-11-05T10:32:07Z</time>
      </trkpt>
      <trkpt lat="45.98616" lon="4.89421">
        <ele>292</ele>
        <time>2016-11-05T10:32:08Z</time>
      </trkpt>
      <trkpt lat="45.98611" lon="4.89416">
        <ele>291</ele>
        <time>2016-11-05T10:32:09Z</time>
      </trkpt>
      <trkpt lat="45.98606" lon="4.89412">
        <ele>292</ele>
        <time>2016-11-05T10:32:10Z</time>
      </trkpt>
      <trkpt lat="45.98602" lon="4.89408">
        <ele>292</ele>
        <time>2016-11-05T10:32:11Z</time>
      </trkpt>
      <trkpt lat="45.98598" lon="4.89404">
        <ele>292</ele>
        <time>2016-11-05T10:32:12Z</time>
      </trkpt>
      <trkpt lat="45.98593" lon="4.89399">
        <ele>292</ele>
        <time>2016-11-05T10:32:13Z</time>
      </trkpt>
      <trkpt lat="45.98589" lon="4.89395">
        <ele>292</ele>
        <time>2016-11-05T10:32:14Z</time>
      </trkpt>
      <trkpt lat="45.98585" lon="4.8939">
        <ele>292</ele>
        <time>2016-11-05T10:32:15Z</time>
      </trkpt>
      <trkpt lat="45.9858" lon="4.89385">
        <ele>295</ele>
        <time>2016-11-05T10:32:16Z</time>
      </trkpt>
      <trkpt lat="45.98576" lon="4.89381">
        <ele>295</ele>
        <time>2016-11-05T10:32:17Z</time>
      </trkpt>
      <trkpt lat="45.98571" lon="4.89376">
        <ele>295</ele>
        <time>2016-11-05T10:32:18Z</time>
      </trkpt>
      <trkpt lat="45.98566" lon="4.89371">
        <ele>295</ele>
        <time>2016-11-05T10:32:19Z</time>
      </trkpt>
      <trkpt lat="45.98562" lon="4.89366">
        <ele>295</ele>
        <time>2016-11-05T10:32:20Z</time>
      </trkpt>
      <trkpt lat="45.98557" lon="4.8936">
        <ele>295</ele>
        <time>2016-11-05T10:32:21Z</time>
      </trkpt>
      <trkpt lat="45.98553" lon="4.89355">
        <ele>295</ele>
        <time>2016-11-05T10:32:22Z</time>
      </trkpt>
      <trkpt lat="45.98548" lon="4.8935">
        <ele>295</ele>
        <time>2016-11-05T10:32:23Z</time>
      </trkpt>
      <trkpt lat="45.98544" lon="4.89345">
        <ele>295</ele>
        <time>2016-11-05T10:32:24Z</time>
      </trkpt>
      <trkpt lat="45.9854" lon="4.89339">
        <ele>295</ele>
        <time>2016-11-05T10:32:25Z</time>
      </trkpt>
      <trkpt lat="45.98536" lon="4.89334">
        <ele>295</ele>
        <time>2016-11-05T10:32:26Z</time>
      </trkpt>
      <trkpt lat="45.98533" lon="4.89329">
        <ele>293</ele>
        <time>2016-11-05T10:32:27Z</time>
      </trkpt>
      <trkpt lat="45.9853" lon="4.89323">
        <ele>293</ele>
        <time>2016-11-05T10:32:28Z</time>
      </trkpt>
      <trkpt lat="45.98526" lon="4.89318">
        <ele>293</ele>
        <time>2016-11-05T10:32:29Z</time>
      </trkpt>
      <trkpt lat="45.98523" lon="4.89313">
        <ele>293</ele>
        <time>2016-11-05T10:32:30Z</time>
      </trkpt>
      <trkpt lat="45.98519" lon="4.89308">
        <ele>293</ele>
        <time>2016-11-05T10:32:31Z</time>
      </trkpt>
      <trkpt lat="45.98515" lon="4.89302">
        <ele>293</ele>
        <time>2016-11-05T10:32:32Z</time>
      </trkpt>
      <trkpt lat="45.98512" lon="4.89297">
        <ele>293</ele>
        <time>2016-11-05T10:32:33Z</time>
      </trkpt>
      <trkpt lat="45.98508" lon="4.89292">
        <ele>292</ele>
        <time>2016-11-05T10:32:34Z</time>
      </trkpt>
      <trkpt lat="45.98505" lon="4.89286">
        <ele>292</ele>
        <time>2016-11-05T10:32:35Z</time>
      </trkpt>
      <trkpt lat="45.98501" lon="4.89281">
        <ele>292</ele>
        <time>2016-11-05T10:32:36Z</time>
      </trkpt>
      <trkpt lat="45.98498" lon="4.89275">
        <ele>292</ele>
        <time>2016-11-05T10:32:37Z</time>
      </trkpt>
      <trkpt lat="45.98494" lon="4.89269">
        <ele>291</ele>
        <time>2016-11-05T10:32:38Z</time>
      </trkpt>
      <trkpt lat="45.98491" lon="4.89264">
        <ele>291</ele>
        <time>2016-11-05T10:32:39Z</time>
      </trkpt>
      <trkpt lat="45.98487" lon="4.8926">
        <ele>291</ele>
        <time>2016-11-05T10:32:40Z</time>
      </trkpt>
      <trkpt lat="45.98483" lon="4.89255">
        <ele>291</ele>
        <time>2016-11-05T10:32:41Z</time>
      </trkpt>
      <trkpt lat="45.98479" lon="4.89248">
        <ele>289</ele>
        <time>2016-11-05T10:32:42Z</time>
      </trkpt>
      <trkpt lat="45.98476" lon="4.89241">
        <ele>289</ele>
        <time>2016-11-05T10:32:43Z</time>
      </trkpt>
      <trkpt lat="45.98472" lon="4.89234">
        <ele>289</ele>
        <time>2016-11-05T10:32:44Z</time>
      </trkpt>
      <trkpt lat="45.98468" lon="4.89226">
        <ele>289</ele>
        <time>2016-11-05T10:32:45Z</time>
      </trkpt>
      <trkpt lat="45.98464" lon="4.89219">
        <ele>289</ele>
        <time>2016-11-05T10:32:46Z</time>
      </trkpt>
      <trkpt lat="45.98461" lon="4.89212">
        <ele>289</ele>
        <time>2016-11-05T10:32:47Z</time>
      </trkpt>
      <trkpt lat="45.98457" lon="4.89204">
        <ele>289</ele>
        <time>2016-11-05T10:32:48Z</time>
      </trkpt>
      <trkpt lat="45.98453" lon="4.89197">
        <ele>289</ele>
        <time>2016-11-05T10:32:49Z</time>
      </trkpt>
      <trkpt lat="45.98451" lon="4.89189">
        <ele>289</ele>
        <time>2016-11-05T10:32:50Z</time>
      </trkpt>
      <trkpt lat="45.98447" lon="4.89181">
        <ele>288</ele>
        <time>2016-11-05T10:32:51Z</time>
      </trkpt>
      <trkpt lat="45.98443" lon="4.89173">
        <ele>288</ele>
        <time>2016-11-05T10:32:52Z</time>
      </trkpt>
      <trkpt lat="45.98439" lon="4.89166">
        <ele>288</ele>
        <time>2016-11-05T10:32:53Z</time>
      </trkpt>
      <trkpt lat="45.98435" lon="4.8916">
        <ele>288</ele>
        <time>2016-11-05T10:32:54Z</time>
      </trkpt>
      <trkpt lat="45.98431" lon="4.89152">
        <ele>288</ele>
        <time>2016-11-05T10:32:55Z</time>
      </trkpt>
      <trkpt lat="45.98427" lon="4.89144">
        <ele>288</ele>
        <time>2016-11-05T10:32:56Z</time>
      </trkpt>
      <trkpt lat="45.98423" lon="4.89136">
        <ele>288</ele>
        <time>2016-11-05T10:32:57Z</time>
      </trkpt>
      <trkpt lat="45.98418" lon="4.89129">
        <ele>288</ele>
        <time>2016-11-05T10:32:58Z</time>
      </trkpt>
      <trkpt lat="45.98413" lon="4.89121">
        <ele>285</ele>
        <time>2016-11-05T10:32:59Z</time>
      </trkpt>
      <trkpt lat="45.98409" lon="4.89113">
        <ele>286</ele>
        <time>2016-11-05T10:33:00Z</time>
      </trkpt>
      <trkpt lat="45.98405" lon="4.89105">
        <ele>286</ele>
        <time>2016-11-05T10:33:01Z</time>
      </trkpt>
      <trkpt lat="45.98401" lon="4.89098">
        <ele>286</ele>
        <time>2016-11-05T10:33:02Z</time>
      </trkpt>
      <trkpt lat="45.98398" lon="4.89091">
        <ele>286</ele>
        <time>2016-11-05T10:33:03Z</time>
      </trkpt>
      <trkpt lat="45.98394" lon="4.89084">
        <ele>286</ele>
        <time>2016-11-05T10:33:04Z</time>
      </trkpt>
      <trkpt lat="45.98391" lon="4.89077">
        <ele>285</ele>
        <time>2016-11-05T10:33:05Z</time>
      </trkpt>
      <trkpt lat="45.98387" lon="4.8907">
        <ele>285</ele>
        <time>2016-11-05T10:33:06Z</time>
      </trkpt>
      <trkpt lat="45.98384" lon="4.89063">
        <ele>285</ele>
        <time>2016-11-05T10:33:07Z</time>
      </trkpt>
      <trkpt lat="45.9838" lon="4.89055">
        <ele>284</ele>
        <time>2016-11-05T10:33:08Z</time>
      </trkpt>
      <trkpt lat="45.98378" lon="4.89046">
        <ele>284</ele>
        <time>2016-11-05T10:33:09Z</time>
      </trkpt>
      <trkpt lat="45.98375" lon="4.89038">
        <ele>284</ele>
        <time>2016-11-05T10:33:10Z</time>
      </trkpt>
      <trkpt lat="45.98373" lon="4.89029">
        <ele>284</ele>
        <time>2016-11-05T10:33:11Z</time>
      </trkpt>
      <trkpt lat="45.98371" lon="4.8902">
        <ele>284</ele>
        <time>2016-11-05T10:33:12Z</time>
      </trkpt>
      <trkpt lat="45.98369" lon="4.89012">
        <ele>283</ele>
        <time>2016-11-05T10:33:13Z</time>
      </trkpt>
      <trkpt lat="45.98367" lon="4.89003">
        <ele>283</ele>
        <time>2016-11-05T10:33:14Z</time>
      </trkpt>
      <trkpt lat="45.98364" lon="4.88994">
        <ele>282</ele>
        <time>2016-11-05T10:33:15Z</time>
      </trkpt>
      <trkpt lat="45.98362" lon="4.88984">
        <ele>282</ele>
        <time>2016-11-05T10:33:16Z</time>
      </trkpt>
      <trkpt lat="45.9836" lon="4.88976">
        <ele>282</ele>
        <time>2016-11-05T10:33:17Z</time>
      </trkpt>
      <trkpt lat="45.98358" lon="4.88967">
        <ele>282</ele>
        <time>2016-11-05T10:33:18Z</time>
      </trkpt>
      <trkpt lat="45.98356" lon="4.88959">
        <ele>282</ele>
        <time>2016-11-05T10:33:19Z</time>
      </trkpt>
      <trkpt lat="45.98354" lon="4.8895">
        <ele>282</ele>
        <time>2016-11-05T10:33:20Z</time>
      </trkpt>
      <trkpt lat="45.98352" lon="4.88941">
        <ele>282</ele>
        <time>2016-11-05T10:33:21Z</time>
      </trkpt>
      <trkpt lat="45.9835" lon="4.88933">
        <ele>281</ele>
        <time>2016-11-05T10:33:22Z</time>
      </trkpt>
      <trkpt lat="45.98348" lon="4.88924">
        <ele>281</ele>
        <time>2016-11-05T10:33:23Z</time>
      </trkpt>
      <trkpt lat="45.98345" lon="4.88916">
        <ele>280</ele>
        <time>2016-11-05T10:33:24Z</time>
      </trkpt>
      <trkpt lat="45.98343" lon="4.88907">
        <ele>280</ele>
        <time>2016-11-05T10:33:25Z</time>
      </trkpt>
      <trkpt lat="45.98341" lon="4.88899">
        <ele>280</ele>
        <time>2016-11-05T10:33:26Z</time>
      </trkpt>
      <trkpt lat="45.98339" lon="4.8889">
        <ele>280</ele>
        <time>2016-11-05T10:33:27Z</time>
      </trkpt>
      <trkpt lat="45.98337" lon="4.88881">
        <ele>280</ele>
        <time>2016-11-05T10:33:28Z</time>
      </trkpt>
      <trkpt lat="45.98335" lon="4.88872">
        <ele>280</ele>
        <time>2016-11-05T10:33:29Z</time>
      </trkpt>
      <trkpt lat="45.98334" lon="4.88863">
        <ele>280</ele>
        <time>2016-11-05T10:33:30Z</time>
      </trkpt>
      <trkpt lat="45.98331" lon="4.88854">
        <ele>278</ele>
        <time>2016-11-05T10:33:31Z</time>
      </trkpt>
      <trkpt lat="45.98329" lon="4.88844">
        <ele>278</ele>
        <time>2016-11-05T10:33:32Z</time>
      </trkpt>
      <trkpt lat="45.98327" lon="4.88834">
        <ele>278</ele>
        <time>2016-11-05T10:33:33Z</time>
      </trkpt>
      <trkpt lat="45.98325" lon="4.88826">
        <ele>278</ele>
        <time>2016-11-05T10:33:34Z</time>
      </trkpt>
      <trkpt lat="45.98323" lon="4.88817">
        <ele>277</ele>
        <time>2016-11-05T10:33:35Z</time>
      </trkpt>
      <trkpt lat="45.98321" lon="4.88808">
        <ele>277</ele>
        <time>2016-11-05T10:33:36Z</time>
      </trkpt>
      <trkpt lat="45.98319" lon="4.88799">
        <ele>277</ele>
        <time>2016-11-05T10:33:37Z</time>
      </trkpt>
      <trkpt lat="45.98317" lon="4.8879">
        <ele>277</ele>
        <time>2016-11-05T10:33:38Z</time>
      </trkpt>
      <trkpt lat="45.98314" lon="4.88782">
        <ele>277</ele>
        <time>2016-11-05T10:33:39Z</time>
      </trkpt>
      <trkpt lat="45.98312" lon="4.88774">
        <ele>277</ele>
        <time>2016-11-05T10:33:40Z</time>
      </trkpt>
      <trkpt lat="45.9831" lon="4.88766">
        <ele>277</ele>
        <time>2016-11-05T10:33:41Z</time>
      </trkpt>
      <trkpt lat="45.98308" lon="4.88759">
        <ele>276</ele>
        <time>2016-11-05T10:33:42Z</time>
      </trkpt>
      <trkpt lat="45.98307" lon="4.88751">
        <ele>276</ele>
        <time>2016-11-05T10:33:43Z</time>
      </trkpt>
      <trkpt lat="45.98305" lon="4.88743">
        <ele>276</ele>
        <time>2016-11-05T10:33:44Z</time>
      </trkpt>
      <trkpt lat="45.98303" lon="4.88735">
        <ele>276</ele>
        <time>2016-11-05T10:33:45Z</time>
      </trkpt>
      <trkpt lat="45.98301" lon="4.88727">
        <ele>276</ele>
        <time>2016-11-05T10:33:46Z</time>
      </trkpt>
      <trkpt lat="45.98299" lon="4.8872">
        <ele>276</ele>
        <time>2016-11-05T10:33:47Z</time>
      </trkpt>
      <trkpt lat="45.98297" lon="4.88712">
        <ele>276</ele>
        <time>2016-11-05T10:33:48Z</time>
      </trkpt>
      <trkpt lat="45.98295" lon="4.88704">
        <ele>276</ele>
        <time>2016-11-05T10:33:49Z</time>
      </trkpt>
      <trkpt lat="45.98293" lon="4.88696">
        <ele>276</ele>
        <time>2016-11-05T10:33:50Z</time>
      </trkpt>
      <trkpt lat="45.98291" lon="4.88688">
        <ele>276</ele>
        <time>2016-11-05T10:33:51Z</time>
      </trkpt>
      <trkpt lat="45.98289" lon="4.88679">
        <ele>276</ele>
        <time>2016-11-05T10:33:52Z</time>
      </trkpt>
      <trkpt lat="45.98286" lon="4.88671">
        <ele>276</ele>
        <time>2016-11-05T10:33:53Z</time>
      </trkpt>
      <trkpt lat="45.98284" lon="4.88663">
        <ele>276</ele>
        <time>2016-11-05T10:33:54Z</time>
      </trkpt>
      <trkpt lat="45.98282" lon="4.88654">
        <ele>276</ele>
        <time>2016-11-05T10:33:55Z</time>
      </trkpt>
      <trkpt lat="45.9828" lon="4.88646">
        <ele>276</ele>
        <time>2016-11-05T10:33:56Z</time>
      </trkpt>
      <trkpt lat="45.98278" lon="4.88637">
        <ele>276</ele>
        <time>2016-11-05T10:33:57Z</time>
      </trkpt>
      <trkpt lat="45.98276" lon="4.88628">
        <ele>276</ele>
        <time>2016-11-05T10:33:58Z</time>
      </trkpt>
      <trkpt lat="45.98273" lon="4.88619">
        <ele>276</ele>
        <time>2016-11-05T10:33:59Z</time>
      </trkpt>
      <trkpt lat="45.98271" lon="4.8861">
        <ele>276</ele>
        <time>2016-11-05T10:34:00Z</time>
      </trkpt>
      <trkpt lat="45.98269" lon="4.88602">
        <ele>276</ele>
        <time>2016-11-05T10:34:01Z</time>
      </trkpt>
      <trkpt lat="45.98267" lon="4.88594">
        <ele>275</ele>
        <time>2016-11-05T10:34:02Z</time>
      </trkpt>
      <trkpt lat="45.98265" lon="4.88586">
        <ele>275</ele>
        <time>2016-11-05T10:34:03Z</time>
      </trkpt>
      <trkpt lat="45.98264" lon="4.88577">
        <ele>276</ele>
        <time>2016-11-05T10:34:04Z</time>
      </trkpt>
      <trkpt lat="45.98262" lon="4.88569">
        <ele>276</ele>
        <time>2016-11-05T10:34:05Z</time>
      </trkpt>
      <trkpt lat="45.9826" lon="4.88562">
        <ele>276</ele>
        <time>2016-11-05T10:34:06Z</time>
      </trkpt>
      <trkpt lat="45.98257" lon="4.88555">
        <ele>276</ele>
        <time>2016-11-05T10:34:07Z</time>
      </trkpt>
      <trkpt lat="45.98255" lon="4.88548">
        <ele>276</ele>
        <time>2016-11-05T10:34:08Z</time>
      </trkpt>
      <trkpt lat="45.98253" lon="4.88541">
        <ele>276</ele>
        <time>2016-11-05T10:34:09Z</time>
      </trkpt>
      <trkpt lat="45.98252" lon="4.88534">
        <ele>276</ele>
        <time>2016-11-05T10:34:10Z</time>
      </trkpt>
      <trkpt lat="45.98251" lon="4.88527">
        <ele>277</ele>
        <time>2016-11-05T10:34:11Z</time>
      </trkpt>
      <trkpt lat="45.98249" lon="4.88521">
        <ele>276</ele>
        <time>2016-11-05T10:34:12Z</time>
      </trkpt>
      <trkpt lat="45.98247" lon="4.88514">
        <ele>276</ele>
        <time>2016-11-05T10:34:13Z</time>
      </trkpt>
      <trkpt lat="45.98246" lon="4.88507">
        <ele>277</ele>
        <time>2016-11-05T10:34:14Z</time>
      </trkpt>
      <trkpt lat="45.98244" lon="4.885">
        <ele>277</ele>
        <time>2016-11-05T10:34:15Z</time>
      </trkpt>
      <trkpt lat="45.98242" lon="4.88492">
        <ele>276</ele>
        <time>2016-11-05T10:34:16Z</time>
      </trkpt>
      <trkpt lat="45.9824" lon="4.88484">
        <ele>276</ele>
        <time>2016-11-05T10:34:17Z</time>
      </trkpt>
      <trkpt lat="45.98238" lon="4.88476">
        <ele>276</ele>
        <time>2016-11-05T10:34:18Z</time>
      </trkpt>
      <trkpt lat="45.98236" lon="4.88467">
        <ele>276</ele>
        <time>2016-11-05T10:34:19Z</time>
      </trkpt>
      <trkpt lat="45.98234" lon="4.88459">
        <ele>276</ele>
        <time>2016-11-05T10:34:20Z</time>
      </trkpt>
      <trkpt lat="45.98233" lon="4.8845">
        <ele>276</ele>
        <time>2016-11-05T10:34:21Z</time>
      </trkpt>
      <trkpt lat="45.9823" lon="4.88441">
        <ele>276</ele>
        <time>2016-11-05T10:34:22Z</time>
      </trkpt>
      <trkpt lat="45.98228" lon="4.88432">
        <ele>276</ele>
        <time>2016-11-05T10:34:23Z</time>
      </trkpt>
      <trkpt lat="45.98226" lon="4.88423">
        <ele>276</ele>
        <time>2016-11-05T10:34:24Z</time>
      </trkpt>
      <trkpt lat="45.98224" lon="4.88415">
        <ele>275</ele>
        <time>2016-11-05T10:34:25Z</time>
      </trkpt>
      <trkpt lat="45.98222" lon="4.88406">
        <ele>275</ele>
        <time>2016-11-05T10:34:26Z</time>
      </trkpt>
      <trkpt lat="45.9822" lon="4.88397">
        <ele>275</ele>
        <time>2016-11-05T10:34:27Z</time>
      </trkpt>
      <trkpt lat="45.98218" lon="4.88388">
        <ele>275</ele>
        <time>2016-11-05T10:34:28Z</time>
      </trkpt>
      <trkpt lat="45.98217" lon="4.8838">
        <ele>275</ele>
        <time>2016-11-05T10:34:29Z</time>
      </trkpt>
      <trkpt lat="45.98216" lon="4.88371">
        <ele>275</ele>
        <time>2016-11-05T10:34:30Z</time>
      </trkpt>
      <trkpt lat="45.98215" lon="4.88363">
        <ele>275</ele>
        <time>2016-11-05T10:34:31Z</time>
      </trkpt>
      <trkpt lat="45.98215" lon="4.88355">
        <ele>275</ele>
        <time>2016-11-05T10:34:32Z</time>
      </trkpt>
      <trkpt lat="45.98215" lon="4.88346">
        <ele>275</ele>
        <time>2016-11-05T10:34:33Z</time>
      </trkpt>
      <trkpt lat="45.98214" lon="4.88336">
        <ele>275</ele>
        <time>2016-11-05T10:34:34Z</time>
      </trkpt>
      <trkpt lat="45.98213" lon="4.88327">
        <ele>274</ele>
        <time>2016-11-05T10:34:35Z</time>
      </trkpt>
      <trkpt lat="45.98212" lon="4.88317">
        <ele>274</ele>
        <time>2016-11-05T10:34:36Z</time>
      </trkpt>
      <trkpt lat="45.98211" lon="4.88307">
        <ele>274</ele>
        <time>2016-11-05T10:34:37Z</time>
      </trkpt>
      <trkpt lat="45.98209" lon="4.88297">
        <ele>274</ele>
        <time>2016-11-05T10:34:38Z</time>
      </trkpt>
      <trkpt lat="45.98208" lon="4.88288">
        <ele>274</ele>
        <time>2016-11-05T10:34:39Z</time>
      </trkpt>
      <trkpt lat="45.98205" lon="4.88277">
        <ele>274</ele>
        <time>2016-11-05T10:34:40Z</time>
      </trkpt>
      <trkpt lat="45.98204" lon="4.88268">
        <ele>274</ele>
        <time>2016-11-05T10:34:41Z</time>
      </trkpt>
      <trkpt lat="45.98202" lon="4.88259">
        <ele>274</ele>
        <time>2016-11-05T10:34:42Z</time>
      </trkpt>
      <trkpt lat="45.982" lon="4.8825">
        <ele>273</ele>
        <time>2016-11-05T10:34:43Z</time>
      </trkpt>
      <trkpt lat="45.98197" lon="4.88241">
        <ele>273</ele>
        <time>2016-11-05T10:34:44Z</time>
      </trkpt>
      <trkpt lat="45.98195" lon="4.88233">
        <ele>273</ele>
        <time>2016-11-05T10:34:45Z</time>
      </trkpt>
      <trkpt lat="45.98193" lon="4.88224">
        <ele>273</ele>
        <time>2016-11-05T10:34:46Z</time>
      </trkpt>
      <trkpt lat="45.9819" lon="4.88217">
        <ele>273</ele>
        <time>2016-11-05T10:34:47Z</time>
      </trkpt>
      <trkpt lat="45.98188" lon="4.88209">
        <ele>273</ele>
        <time>2016-11-05T10:34:48Z</time>
      </trkpt>
      <trkpt lat="45.98186" lon="4.88202">
        <ele>273</ele>
        <time>2016-11-05T10:34:49Z</time>
      </trkpt>
      <trkpt lat="45.98184" lon="4.88194">
        <ele>273</ele>
        <time>2016-11-05T10:34:50Z</time>
      </trkpt>
      <trkpt lat="45.98181" lon="4.88187">
        <ele>273</ele>
        <time>2016-11-05T10:34:51Z</time>
      </trkpt>
      <trkpt lat="45.98179" lon="4.8818">
        <ele>273</ele>
        <time>2016-11-05T10:34:52Z</time>
      </trkpt>
      <trkpt lat="45.98176" lon="4.88172">
        <ele>273</ele>
        <time>2016-11-05T10:34:53Z</time>
      </trkpt>
      <trkpt lat="45.98174" lon="4.88164">
        <ele>273</ele>
        <time>2016-11-05T10:34:54Z</time>
      </trkpt>
      <trkpt lat="45.98171" lon="4.88156">
        <ele>273</ele>
        <time>2016-11-05T10:34:55Z</time>
      </trkpt>
      <trkpt lat="45.98169" lon="4.88148">
        <ele>273</ele>
        <time>2016-11-05T10:34:56Z</time>
      </trkpt>
      <trkpt lat="45.98167" lon="4.88139">
        <ele>273</ele>
        <time>2016-11-05T10:34:57Z</time>
      </trkpt>
      <trkpt lat="45.98165" lon="4.88131">
        <ele>274</ele>
        <time>2016-11-05T10:34:58Z</time>
      </trkpt>
      <trkpt lat="45.98162" lon="4.88123">
        <ele>274</ele>
        <time>2016-11-05T10:34:59Z</time>
      </trkpt>
      <trkpt lat="45.98159" lon="4.88114">
        <ele>274</ele>
        <time>2016-11-05T10:35:00Z</time>
      </trkpt>
      <trkpt lat="45.98157" lon="4.88106">
        <ele>274</ele>
        <time>2016-11-05T10:35:01Z</time>
      </trkpt>
      <trkpt lat="45.98154" lon="4.88098">
        <ele>274</ele>
        <time>2016-11-05T10:35:02Z</time>
      </trkpt>
      <trkpt lat="45.98153" lon="4.88092">
        <ele>274</ele>
        <time>2016-11-05T10:35:03Z</time>
      </trkpt>
      <trkpt lat="45.98152" lon="4.88086">
        <ele>274</ele>
        <time>2016-11-05T10:35:04Z</time>
      </trkpt>
      <trkpt lat="45.9815" lon="4.8808">
        <ele>274</ele>
        <time>2016-11-05T10:35:05Z</time>
      </trkpt>
      <trkpt lat="45.98147" lon="4.88074">
        <ele>275</ele>
        <time>2016-11-05T10:35:06Z</time>
      </trkpt>
      <trkpt lat="45.98145" lon="4.88067">
        <ele>275</ele>
        <time>2016-11-05T10:35:07Z</time>
      </trkpt>
      <trkpt lat="45.98143" lon="4.88061">
        <ele>275</ele>
        <time>2016-11-05T10:35:08Z</time>
      </trkpt>
      <trkpt lat="45.98141" lon="4.88054">
        <ele>275</ele>
        <time>2016-11-05T10:35:09Z</time>
      </trkpt>
      <trkpt lat="45.98139" lon="4.88047">
        <ele>275</ele>
        <time>2016-11-05T10:35:10Z</time>
      </trkpt>
      <trkpt lat="45.98136" lon="4.8804">
        <ele>276</ele>
        <time>2016-11-05T10:35:11Z</time>
      </trkpt>
      <trkpt lat="45.98135" lon="4.88033">
        <ele>276</ele>
        <time>2016-11-05T10:35:12Z</time>
      </trkpt>
      <trkpt lat="45.98132" lon="4.88027">
        <ele>276</ele>
        <time>2016-11-05T10:35:13Z</time>
      </trkpt>
      <trkpt lat="45.9813" lon="4.8802">
        <ele>276</ele>
        <time>2016-11-05T10:35:14Z</time>
      </trkpt>
      <trkpt lat="45.98128" lon="4.88014">
        <ele>276</ele>
        <time>2016-11-05T10:35:15Z</time>
      </trkpt>
      <trkpt lat="45.98125" lon="4.88003">
        <ele>276</ele>
        <time>2016-11-05T10:35:17Z</time>
      </trkpt>
      <trkpt lat="45.98123" lon="4.87997">
        <ele>277</ele>
        <time>2016-11-05T10:35:18Z</time>
      </trkpt>
      <trkpt lat="45.9812" lon="4.87986">
        <ele>277</ele>
        <time>2016-11-05T10:35:20Z</time>
      </trkpt>
      <trkpt lat="45.98119" lon="4.87981">
        <ele>277</ele>
        <time>2016-11-05T10:35:21Z</time>
      </trkpt>
      <trkpt lat="45.98115" lon="4.87971">
        <ele>277</ele>
        <time>2016-11-05T10:35:23Z</time>
      </trkpt>
      <trkpt lat="45.98114" lon="4.87966">
        <ele>277</ele>
        <time>2016-11-05T10:35:24Z</time>
      </trkpt>
      <trkpt lat="45.98111" lon="4.87956">
        <ele>277</ele>
        <time>2016-11-05T10:35:26Z</time>
      </trkpt>
      <trkpt lat="45.98109" lon="4.8795">
        <ele>277</ele>
        <time>2016-11-05T10:35:27Z</time>
      </trkpt>
      <trkpt lat="45.98105" lon="4.87939">
        <ele>277</ele>
        <time>2016-11-05T10:35:29Z</time>
      </trkpt>
      <trkpt lat="45.98104" lon="4.87934">
        <ele>277</ele>
        <time>2016-11-05T10:35:30Z</time>
      </trkpt>
      <trkpt lat="45.981" lon="4.87923">
        <ele>278</ele>
        <time>2016-11-05T10:35:32Z</time>
      </trkpt>
      <trkpt lat="45.98099" lon="4.87917">
        <ele>278</ele>
        <time>2016-11-05T10:35:33Z</time>
      </trkpt>
      <trkpt lat="45.98096" lon="4.87906">
        <ele>278</ele>
        <time>2016-11-05T10:35:35Z</time>
      </trkpt>
      <trkpt lat="45.98094" lon="4.879">
        <ele>278</ele>
        <time>2016-11-05T10:35:36Z</time>
      </trkpt>
      <trkpt lat="45.98091" lon="4.87888">
        <ele>278</ele>
        <time>2016-11-05T10:35:38Z</time>
      </trkpt>
      <trkpt lat="45.98089" lon="4.87882">
        <ele>278</ele>
        <time>2016-11-05T10:35:39Z</time>
      </trkpt>
      <trkpt lat="45.98085" lon="4.87871">
        <ele>278</ele>
        <time>2016-11-05T10:35:41Z</time>
      </trkpt>
      <trkpt lat="45.98084" lon="4.87865">
        <ele>278</ele>
        <time>2016-11-05T10:35:42Z</time>
      </trkpt>
      <trkpt lat="45.9808" lon="4.87854">
        <ele>280</ele>
        <time>2016-11-05T10:35:44Z</time>
      </trkpt>
      <trkpt lat="45.98078" lon="4.87848">
        <ele>279</ele>
        <time>2016-11-05T10:35:45Z</time>
      </trkpt>
      <trkpt lat="45.98074" lon="4.87837">
        <ele>279</ele>
        <time>2016-11-05T10:35:47Z</time>
      </trkpt>
      <trkpt lat="45.98072" lon="4.87831">
        <ele>279</ele>
        <time>2016-11-05T10:35:48Z</time>
      </trkpt>
      <trkpt lat="45.9807" lon="4.8782">
        <ele>279</ele>
        <time>2016-11-05T10:35:50Z</time>
      </trkpt>
      <trkpt lat="45.98068" lon="4.87814">
        <ele>280</ele>
        <time>2016-11-05T10:35:51Z</time>
      </trkpt>
      <trkpt lat="45.98065" lon="4.87803">
        <ele>280</ele>
        <time>2016-11-05T10:35:53Z</time>
      </trkpt>
      <trkpt lat="45.98063" lon="4.87797">
        <ele>280</ele>
        <time>2016-11-05T10:35:54Z</time>
      </trkpt>
      <trkpt lat="45.98059" lon="4.87785">
        <ele>280</ele>
        <time>2016-11-05T10:35:56Z</time>
      </trkpt>
      <trkpt lat="45.98056" lon="4.87779">
        <ele>280</ele>
        <time>2016-11-05T10:35:57Z</time>
      </trkpt>
      <trkpt lat="45.98054" lon="4.87773">
        <ele>280</ele>
        <time>2016-11-05T10:35:58Z</time>
      </trkpt>
      <trkpt lat="45.98051" lon="4.87767">
        <ele>280</ele>
        <time>2016-11-05T10:35:59Z</time>
      </trkpt>
      <trkpt lat="45.98049" lon="4.8776">
        <ele>280</ele>
        <time>2016-11-05T10:36:00Z</time>
      </trkpt>
      <trkpt lat="45.98047" lon="4.87755">
        <ele>280</ele>
        <time>2016-11-05T10:36:01Z</time>
      </trkpt>
      <trkpt lat="45.98044" lon="4.87743">
        <ele>280</ele>
        <time>2016-11-05T10:36:03Z</time>
      </trkpt>
      <trkpt lat="45.98042" lon="4.87737">
        <ele>279</ele>
        <time>2016-11-05T10:36:04Z</time>
      </trkpt>
      <trkpt lat="45.98039" lon="4.8773">
        <ele>279</ele>
        <time>2016-11-05T10:36:05Z</time>
      </trkpt>
      <trkpt lat="45.98035" lon="4.87725">
        <ele>279</ele>
        <time>2016-11-05T10:36:06Z</time>
      </trkpt>
      <trkpt lat="45.98032" lon="4.87719">
        <ele>279</ele>
        <time>2016-11-05T10:36:07Z</time>
      </trkpt>
      <trkpt lat="45.98031" lon="4.87712">
        <ele>279</ele>
        <time>2016-11-05T10:36:08Z</time>
      </trkpt>
      <trkpt lat="45.98029" lon="4.877">
        <ele>280</ele>
        <time>2016-11-05T10:36:10Z</time>
      </trkpt>
      <trkpt lat="45.98027" lon="4.87696">
        <ele>280</ele>
        <time>2016-11-05T10:36:11Z</time>
      </trkpt>
      <trkpt lat="45.98026" lon="4.87685">
        <ele>280</ele>
        <time>2016-11-05T10:36:13Z</time>
      </trkpt>
      <trkpt lat="45.98022" lon="4.8768">
        <ele>280</ele>
        <time>2016-11-05T10:36:14Z</time>
      </trkpt>
      <trkpt lat="45.98019" lon="4.87673">
        <ele>280</ele>
        <time>2016-11-05T10:36:15Z</time>
      </trkpt>
      <trkpt lat="45.98016" lon="4.87667">
        <ele>280</ele>
        <time>2016-11-05T10:36:16Z</time>
      </trkpt>
      <trkpt lat="45.98014" lon="4.87662">
        <ele>280</ele>
        <time>2016-11-05T10:36:17Z</time>
      </trkpt>
      <trkpt lat="45.98012" lon="4.87655">
        <ele>280</ele>
        <time>2016-11-05T10:36:18Z</time>
      </trkpt>
      <trkpt lat="45.9801" lon="4.87649">
        <ele>280</ele>
        <time>2016-11-05T10:36:19Z</time>
      </trkpt>
      <trkpt lat="45.98008" lon="4.87643">
        <ele>280</ele>
        <time>2016-11-05T10:36:20Z</time>
      </trkpt>
      <trkpt lat="45.98004" lon="4.87633">
        <ele>280</ele>
        <time>2016-11-05T10:36:25Z</time>
      </trkpt>
      <trkpt lat="45.98001" lon="4.87626">
        <ele>280</ele>
        <time>2016-11-05T10:36:26Z</time>
      </trkpt>
      <trkpt lat="45.97999" lon="4.87615">
        <ele>280</ele>
        <time>2016-11-05T10:36:27Z</time>
      </trkpt>
      <trkpt lat="45.97997" lon="4.87608">
        <ele>280</ele>
        <time>2016-11-05T10:36:28Z</time>
      </trkpt>
      <trkpt lat="45.97994" lon="4.87598">
        <ele>280</ele>
        <time>2016-11-05T10:36:29Z</time>
      </trkpt>
      <trkpt lat="45.9799" lon="4.8759">
        <ele>280</ele>
        <time>2016-11-05T10:36:30Z</time>
      </trkpt>
      <trkpt lat="45.97987" lon="4.87584">
        <ele>280</ele>
        <time>2016-11-05T10:36:31Z</time>
      </trkpt>
      <trkpt lat="45.97983" lon="4.87579">
        <ele>280</ele>
        <time>2016-11-05T10:36:32Z</time>
      </trkpt>
      <trkpt lat="45.9798" lon="4.87572">
        <ele>279</ele>
        <time>2016-11-05T10:36:33Z</time>
      </trkpt>
      <trkpt lat="45.97976" lon="4.87567">
        <ele>279</ele>
        <time>2016-11-05T10:36:34Z</time>
      </trkpt>
      <trkpt lat="45.97972" lon="4.87561">
        <ele>279</ele>
        <time>2016-11-05T10:36:35Z</time>
      </trkpt>
      <trkpt lat="45.97964" lon="4.8755">
        <ele>279</ele>
        <time>2016-11-05T10:36:37Z</time>
      </trkpt>
      <trkpt lat="45.97959" lon="4.87547">
        <ele>279</ele>
        <time>2016-11-05T10:36:38Z</time>
      </trkpt>
      <trkpt lat="45.97954" lon="4.87544">
        <ele>279</ele>
        <time>2016-11-05T10:36:39Z</time>
      </trkpt>
      <trkpt lat="45.97948" lon="4.87541">
        <ele>279</ele>
        <time>2016-11-05T10:36:40Z</time>
      </trkpt>
      <trkpt lat="45.97943" lon="4.87539">
        <ele>279</ele>
        <time>2016-11-05T10:36:41Z</time>
      </trkpt>
      <trkpt lat="45.97938" lon="4.87536">
        <ele>279</ele>
        <time>2016-11-05T10:36:42Z</time>
      </trkpt>
      <trkpt lat="45.97932" lon="4.87533">
        <ele>279</ele>
        <time>2016-11-05T10:36:43Z</time>
      </trkpt>
      <trkpt lat="45.97928" lon="4.87531">
        <ele>279</ele>
        <time>2016-11-05T10:36:44Z</time>
      </trkpt>
      <trkpt lat="45.97924" lon="4.8753">
        <ele>279</ele>
        <time>2016-11-05T10:36:45Z</time>
      </trkpt>
      <trkpt lat="45.97919" lon="4.87528">
        <ele>279</ele>
        <time>2016-11-05T10:36:46Z</time>
      </trkpt>
      <trkpt lat="45.97914" lon="4.87526">
        <ele>280</ele>
        <time>2016-11-05T10:36:47Z</time>
      </trkpt>
      <trkpt lat="45.9791" lon="4.87524">
        <ele>280</ele>
        <time>2016-11-05T10:36:48Z</time>
      </trkpt>
      <trkpt lat="45.97905" lon="4.87521">
        <ele>280</ele>
        <time>2016-11-05T10:36:49Z</time>
      </trkpt>
      <trkpt lat="45.97901" lon="4.87519">
        <ele>280</ele>
        <time>2016-11-05T10:36:50Z</time>
      </trkpt>
      <trkpt lat="45.97892" lon="4.87515">
        <ele>280</ele>
        <time>2016-11-05T10:36:52Z</time>
      </trkpt>
      <trkpt lat="45.97888" lon="4.87512">
        <ele>281</ele>
        <time>2016-11-05T10:36:53Z</time>
      </trkpt>
      <trkpt lat="45.97883" lon="4.87509">
        <ele>281</ele>
        <time>2016-11-05T10:36:54Z</time>
      </trkpt>
      <trkpt lat="45.97875" lon="4.87505">
        <ele>281</ele>
        <time>2016-11-05T10:36:56Z</time>
      </trkpt>
      <trkpt lat="45.97873" lon="4.87504">
        <ele>281</ele>
        <time>2016-11-05T10:36:57Z</time>
      </trkpt>
      <trkpt lat="45.9787" lon="4.87501">
        <ele>281</ele>
        <time>2016-11-05T10:36:58Z</time>
      </trkpt>
      <trkpt lat="45.97865" lon="4.87493">
        <ele>280</ele>
        <time>2016-11-05T10:36:59Z</time>
      </trkpt>
      <trkpt lat="45.9786" lon="4.8749">
        <ele>281</ele>
        <time>2016-11-05T10:37:02Z</time>
      </trkpt>
      <trkpt lat="45.97856" lon="4.87488">
        <ele>281</ele>
        <time>2016-11-05T10:37:03Z</time>
      </trkpt>
      <trkpt lat="45.97851" lon="4.87483">
        <ele>281</ele>
        <time>2016-11-05T10:37:04Z</time>
      </trkpt>
      <trkpt lat="45.97846" lon="4.87474">
        <ele>281</ele>
        <time>2016-11-05T10:37:05Z</time>
      </trkpt>
      <trkpt lat="45.97841" lon="4.8747">
        <ele>281</ele>
        <time>2016-11-05T10:37:06Z</time>
      </trkpt>
      <trkpt lat="45.97837" lon="4.87465">
        <ele>281</ele>
        <time>2016-11-05T10:37:07Z</time>
      </trkpt>
      <trkpt lat="45.97833" lon="4.87461">
        <ele>282</ele>
        <time>2016-11-05T10:37:08Z</time>
      </trkpt>
      <trkpt lat="45.97827" lon="4.87455">
        <ele>282</ele>
        <time>2016-11-05T10:37:09Z</time>
      </trkpt>
      <trkpt lat="45.97822" lon="4.87451">
        <ele>282</ele>
        <time>2016-11-05T10:37:10Z</time>
      </trkpt>
      <trkpt lat="45.97818" lon="4.87446">
        <ele>282</ele>
        <time>2016-11-05T10:37:11Z</time>
      </trkpt>
      <trkpt lat="45.97814" lon="4.87441">
        <ele>282</ele>
        <time>2016-11-05T10:37:12Z</time>
      </trkpt>
      <trkpt lat="45.9781" lon="4.87437">
        <ele>282</ele>
        <time>2016-11-05T10:37:13Z</time>
      </trkpt>
      <trkpt lat="45.97806" lon="4.87432">
        <ele>283</ele>
        <time>2016-11-05T10:37:14Z</time>
      </trkpt>
      <trkpt lat="45.97803" lon="4.87428">
        <ele>283</ele>
        <time>2016-11-05T10:37:15Z</time>
      </trkpt>
      <trkpt lat="45.97797" lon="4.87422">
        <ele>283</ele>
        <time>2016-11-05T10:37:17Z</time>
      </trkpt>
      <trkpt lat="45.97793" lon="4.87419">
        <ele>283</ele>
        <time>2016-11-05T10:37:18Z</time>
      </trkpt>
      <trkpt lat="45.97785" lon="4.87413">
        <ele>284</ele>
        <time>2016-11-05T10:37:20Z</time>
      </trkpt>
      <trkpt lat="45.97781" lon="4.87414">
        <ele>284</ele>
        <time>2016-11-05T10:37:21Z</time>
      </trkpt>
      <trkpt lat="45.97778" lon="4.87411">
        <ele>284</ele>
        <time>2016-11-05T10:37:22Z</time>
      </trkpt>
      <trkpt lat="45.97777" lon="4.87402">
        <ele>284</ele>
        <time>2016-11-05T10:37:23Z</time>
      </trkpt>
      <trkpt lat="45.97774" lon="4.87397">
        <ele>284</ele>
        <time>2016-11-05T10:37:24Z</time>
      </trkpt>
      <trkpt lat="45.97772" lon="4.87391">
        <ele>284</ele>
        <time>2016-11-05T10:37:25Z</time>
      </trkpt>
      <trkpt lat="45.97769" lon="4.87385">
        <ele>284</ele>
        <time>2016-11-05T10:37:26Z</time>
      </trkpt>
      <trkpt lat="45.97766" lon="4.8738">
        <ele>284</ele>
        <time>2016-11-05T10:37:27Z</time>
      </trkpt>
      <trkpt lat="45.97762" lon="4.87374">
        <ele>284</ele>
        <time>2016-11-05T10:37:28Z</time>
      </trkpt>
      <trkpt lat="45.97759" lon="4.8737">
        <ele>285</ele>
        <time>2016-11-05T10:37:29Z</time>
      </trkpt>
      <trkpt lat="45.97753" lon="4.87361">
        <ele>285</ele>
        <time>2016-11-05T10:37:31Z</time>
      </trkpt>
      <trkpt lat="45.9775" lon="4.87357">
        <ele>285</ele>
        <time>2016-11-05T10:37:32Z</time>
      </trkpt>
      <trkpt lat="45.97744" lon="4.87348">
        <ele>286</ele>
        <time>2016-11-05T10:37:34Z</time>
      </trkpt>
      <trkpt lat="45.97741" lon="4.87343">
        <ele>286</ele>
        <time>2016-11-05T10:37:35Z</time>
      </trkpt>
      <trkpt lat="45.97736" lon="4.87337">
        <ele>286</ele>
        <time>2016-11-05T10:37:37Z</time>
      </trkpt>
      <trkpt lat="45.97732" lon="4.87334">
        <ele>286</ele>
        <time>2016-11-05T10:37:38Z</time>
      </trkpt>
      <trkpt lat="45.97726" lon="4.87327">
        <ele>286</ele>
        <time>2016-11-05T10:37:40Z</time>
      </trkpt>
      <trkpt lat="45.97724" lon="4.87323">
        <ele>286</ele>
        <time>2016-11-05T10:37:41Z</time>
      </trkpt>
      <trkpt lat="45.97718" lon="4.87314">
        <ele>286</ele>
        <time>2016-11-05T10:37:43Z</time>
      </trkpt>
      <trkpt lat="45.97714" lon="4.8731">
        <ele>286</ele>
        <time>2016-11-05T10:37:44Z</time>
      </trkpt>
      <trkpt lat="45.97707" lon="4.87302">
        <ele>286</ele>
        <time>2016-11-05T10:37:46Z</time>
      </trkpt>
      <trkpt lat="45.97704" lon="4.87297">
        <ele>286</ele>
        <time>2016-11-05T10:37:47Z</time>
      </trkpt>
      <trkpt lat="45.977" lon="4.87293">
        <ele>286</ele>
        <time>2016-11-05T10:37:48Z</time>
      </trkpt>
      <trkpt lat="45.97696" lon="4.87289">
        <ele>286</ele>
        <time>2016-11-05T10:37:49Z</time>
      </trkpt>
      <trkpt lat="45.97692" lon="4.87284">
        <ele>286</ele>
        <time>2016-11-05T10:37:50Z</time>
      </trkpt>
      <trkpt lat="45.97688" lon="4.8728">
        <ele>286</ele>
        <time>2016-11-05T10:37:51Z</time>
      </trkpt>
      <trkpt lat="45.97683" lon="4.87276">
        <ele>286</ele>
        <time>2016-11-05T10:37:52Z</time>
      </trkpt>
      <trkpt lat="45.97679" lon="4.87272">
        <ele>286</ele>
        <time>2016-11-05T10:37:53Z</time>
      </trkpt>
      <trkpt lat="45.97675" lon="4.87268">
        <ele>286</ele>
        <time>2016-11-05T10:37:54Z</time>
      </trkpt>
      <trkpt lat="45.97671" lon="4.87263">
        <ele>286</ele>
        <time>2016-11-05T10:37:55Z</time>
      </trkpt>
      <trkpt lat="45.97667" lon="4.8726">
        <ele>286</ele>
        <time>2016-11-05T10:37:56Z</time>
      </trkpt>
      <trkpt lat="45.97664" lon="4.87256">
        <ele>286</ele>
        <time>2016-11-05T10:37:57Z</time>
      </trkpt>
      <trkpt lat="45.9766" lon="4.87253">
        <ele>286</ele>
        <time>2016-11-05T10:37:58Z</time>
      </trkpt>
      <trkpt lat="45.97655" lon="4.8725">
        <ele>285</ele>
        <time>2016-11-05T10:37:59Z</time>
      </trkpt>
      <trkpt lat="45.97651" lon="4.87247">
        <ele>285</ele>
        <time>2016-11-05T10:38:00Z</time>
      </trkpt>
      <trkpt lat="45.97646" lon="4.87244">
        <ele>285</ele>
        <time>2016-11-05T10:38:01Z</time>
      </trkpt>
      <trkpt lat="45.97641" lon="4.8724">
        <ele>284</ele>
        <time>2016-11-05T10:38:02Z</time>
      </trkpt>
      <trkpt lat="45.97637" lon="4.87237">
        <ele>284</ele>
        <time>2016-11-05T10:38:03Z</time>
      </trkpt>
      <trkpt lat="45.97633" lon="4.87234">
        <ele>284</ele>
        <time>2016-11-05T10:38:04Z</time>
      </trkpt>
      <trkpt lat="45.97629" lon="4.8723">
        <ele>284</ele>
        <time>2016-11-05T10:38:05Z</time>
      </trkpt>
      <trkpt lat="45.97625" lon="4.87227">
        <ele>284</ele>
        <time>2016-11-05T10:38:06Z</time>
      </trkpt>
      <trkpt lat="45.97621" lon="4.87223">
        <ele>284</ele>
        <time>2016-11-05T10:38:07Z</time>
      </trkpt>
      <trkpt lat="45.97614" lon="4.87217">
        <ele>284</ele>
        <time>2016-11-05T10:38:09Z</time>
      </trkpt>
      <trkpt lat="45.9761" lon="4.87214">
        <ele>284</ele>
        <time>2016-11-05T10:38:10Z</time>
      </trkpt>
      <trkpt lat="45.97603" lon="4.87207">
        <ele>284</ele>
        <time>2016-11-05T10:38:12Z</time>
      </trkpt>
      <trkpt lat="45.976" lon="4.87203">
        <ele>284</ele>
        <time>2016-11-05T10:38:13Z</time>
      </trkpt>
      <trkpt lat="45.97596" lon="4.87199">
        <ele>283</ele>
        <time>2016-11-05T10:38:14Z</time>
      </trkpt>
      <trkpt lat="45.97592" lon="4.87196">
        <ele>283</ele>
        <time>2016-11-05T10:38:15Z</time>
      </trkpt>
      <trkpt lat="45.97588" lon="4.87191">
        <ele>283</ele>
        <time>2016-11-05T10:38:16Z</time>
      </trkpt>
      <trkpt lat="45.97584" lon="4.87187">
        <ele>283</ele>
        <time>2016-11-05T10:38:17Z</time>
      </trkpt>
      <trkpt lat="45.9758" lon="4.87183">
        <ele>283</ele>
        <time>2016-11-05T10:38:18Z</time>
      </trkpt>
      <trkpt lat="45.97576" lon="4.8718">
        <ele>283</ele>
        <time>2016-11-05T10:38:19Z</time>
      </trkpt>
      <trkpt lat="45.97573" lon="4.87176">
        <ele>283</ele>
        <time>2016-11-05T10:38:20Z</time>
      </trkpt>
      <trkpt lat="45.97569" lon="4.87172">
        <ele>283</ele>
        <time>2016-11-05T10:38:21Z</time>
      </trkpt>
      <trkpt lat="45.97564" lon="4.87168">
        <ele>283</ele>
        <time>2016-11-05T10:38:22Z</time>
      </trkpt>
      <trkpt lat="45.9756" lon="4.87165">
        <ele>283</ele>
        <time>2016-11-05T10:38:23Z</time>
      </trkpt>
      <trkpt lat="45.97556" lon="4.8716">
        <ele>283</ele>
        <time>2016-11-05T10:38:24Z</time>
      </trkpt>
      <trkpt lat="45.97552" lon="4.87157">
        <ele>283</ele>
        <time>2016-11-05T10:38:25Z</time>
      </trkpt>
      <trkpt lat="45.97548" lon="4.87153">
        <ele>283</ele>
        <time>2016-11-05T10:38:26Z</time>
      </trkpt>
      <trkpt lat="45.97544" lon="4.87149">
        <ele>283</ele>
        <time>2016-11-05T10:38:27Z</time>
      </trkpt>
      <trkpt lat="45.97539" lon="4.87145">
        <ele>283</ele>
        <time>2016-11-05T10:38:28Z</time>
      </trkpt>
      <trkpt lat="45.97536" lon="4.87142">
        <ele>283</ele>
        <time>2016-11-05T10:38:29Z</time>
      </trkpt>
      <trkpt lat="45.97532" lon="4.87138">
        <ele>283</ele>
        <time>2016-11-05T10:38:30Z</time>
      </trkpt>
      <trkpt lat="45.97528" lon="4.87135">
        <ele>283</ele>
        <time>2016-11-05T10:38:31Z</time>
      </trkpt>
      <trkpt lat="45.97524" lon="4.87131">
        <ele>283</ele>
        <time>2016-11-05T10:38:32Z</time>
      </trkpt>
      <trkpt lat="45.9752" lon="4.87126">
        <ele>283</ele>
        <time>2016-11-05T10:38:33Z</time>
      </trkpt>
      <trkpt lat="45.97513" lon="4.87119">
        <ele>283</ele>
        <time>2016-11-05T10:38:35Z</time>
      </trkpt>
      <trkpt lat="45.9751" lon="4.87115">
        <ele>283</ele>
        <time>2016-11-05T10:38:36Z</time>
      </trkpt>
      <trkpt lat="45.97503" lon="4.87107">
        <ele>283</ele>
        <time>2016-11-05T10:38:38Z</time>
      </trkpt>
      <trkpt lat="45.975" lon="4.87103">
        <ele>283</ele>
        <time>2016-11-05T10:38:39Z</time>
      </trkpt>
      <trkpt lat="45.97493" lon="4.87095">
        <ele>283</ele>
        <time>2016-11-05T10:38:41Z</time>
      </trkpt>
      <trkpt lat="45.9749" lon="4.87091">
        <ele>283</ele>
        <time>2016-11-05T10:38:42Z</time>
      </trkpt>
      <trkpt lat="45.97486" lon="4.87088">
        <ele>283</ele>
        <time>2016-11-05T10:38:43Z</time>
      </trkpt>
      <trkpt lat="45.97482" lon="4.87085">
        <ele>283</ele>
        <time>2016-11-05T10:38:44Z</time>
      </trkpt>
      <trkpt lat="45.97478" lon="4.87081">
        <ele>284</ele>
        <time>2016-11-05T10:38:45Z</time>
      </trkpt>
      <trkpt lat="45.97475" lon="4.87077">
        <ele>284</ele>
        <time>2016-11-05T10:38:46Z</time>
      </trkpt>
      <trkpt lat="45.97471" lon="4.87073">
        <ele>284</ele>
        <time>2016-11-05T10:38:47Z</time>
      </trkpt>
      <trkpt lat="45.97467" lon="4.87069">
        <ele>284</ele>
        <time>2016-11-05T10:38:48Z</time>
      </trkpt>
      <trkpt lat="45.97463" lon="4.87065">
        <ele>284</ele>
        <time>2016-11-05T10:38:49Z</time>
      </trkpt>
      <trkpt lat="45.97459" lon="4.8706">
        <ele>284</ele>
        <time>2016-11-05T10:38:50Z</time>
      </trkpt>
      <trkpt lat="45.97454" lon="4.87056">
        <ele>284</ele>
        <time>2016-11-05T10:38:51Z</time>
      </trkpt>
      <trkpt lat="45.9745" lon="4.87051">
        <ele>284</ele>
        <time>2016-11-05T10:38:52Z</time>
      </trkpt>
      <trkpt lat="45.97445" lon="4.87046">
        <ele>284</ele>
        <time>2016-11-05T10:38:53Z</time>
      </trkpt>
      <trkpt lat="45.97441" lon="4.87041">
        <ele>284</ele>
        <time>2016-11-05T10:38:54Z</time>
      </trkpt>
      <trkpt lat="45.97437" lon="4.87037">
        <ele>284</ele>
        <time>2016-11-05T10:38:55Z</time>
      </trkpt>
      <trkpt lat="45.97433" lon="4.87033">
        <ele>284</ele>
        <time>2016-11-05T10:38:56Z</time>
      </trkpt>
      <trkpt lat="45.97428" lon="4.87028">
        <ele>284</ele>
        <time>2016-11-05T10:38:57Z</time>
      </trkpt>
      <trkpt lat="45.97424" lon="4.87024">
        <ele>284</ele>
        <time>2016-11-05T10:38:58Z</time>
      </trkpt>
      <trkpt lat="45.9742" lon="4.8702">
        <ele>284</ele>
        <time>2016-11-05T10:38:59Z</time>
      </trkpt>
      <trkpt lat="45.97416" lon="4.87016">
        <ele>285</ele>
        <time>2016-11-05T10:39:00Z</time>
      </trkpt>
      <trkpt lat="45.97412" lon="4.87012">
        <ele>285</ele>
        <time>2016-11-05T10:39:01Z</time>
      </trkpt>
      <trkpt lat="45.97408" lon="4.87008">
        <ele>285</ele>
        <time>2016-11-05T10:39:02Z</time>
      </trkpt>
      <trkpt lat="45.974" lon="4.87001">
        <ele>285</ele>
        <time>2016-11-05T10:39:04Z</time>
      </trkpt>
      <trkpt lat="45.97396" lon="4.86998">
        <ele>285</ele>
        <time>2016-11-05T10:39:05Z</time>
      </trkpt>
      <trkpt lat="45.97389" lon="4.8699">
        <ele>285</ele>
        <time>2016-11-05T10:39:07Z</time>
      </trkpt>
      <trkpt lat="45.97385" lon="4.86986">
        <ele>285</ele>
        <time>2016-11-05T10:39:08Z</time>
      </trkpt>
      <trkpt lat="45.97382" lon="4.86983">
        <ele>285</ele>
        <time>2016-11-05T10:39:09Z</time>
      </trkpt>
      <trkpt lat="45.97375" lon="4.86976">
        <ele>285</ele>
        <time>2016-11-05T10:39:11Z</time>
      </trkpt>
      <trkpt lat="45.97371" lon="4.86972">
        <ele>285</ele>
        <time>2016-11-05T10:39:12Z</time>
      </trkpt>
      <trkpt lat="45.97366" lon="4.86969">
        <ele>285</ele>
        <time>2016-11-05T10:39:13Z</time>
      </trkpt>
      <trkpt lat="45.97362" lon="4.86964">
        <ele>285</ele>
        <time>2016-11-05T10:39:14Z</time>
      </trkpt>
      <trkpt lat="45.97357" lon="4.8696">
        <ele>285</ele>
        <time>2016-11-05T10:39:15Z</time>
      </trkpt>
      <trkpt lat="45.97353" lon="4.86956">
        <ele>284</ele>
        <time>2016-11-05T10:39:16Z</time>
      </trkpt>
      <trkpt lat="45.97348" lon="4.8695">
        <ele>284</ele>
        <time>2016-11-05T10:39:17Z</time>
      </trkpt>
      <trkpt lat="45.97344" lon="4.86944">
        <ele>284</ele>
        <time>2016-11-05T10:39:18Z</time>
      </trkpt>
      <trkpt lat="45.97339" lon="4.8694">
        <ele>284</ele>
        <time>2016-11-05T10:39:19Z</time>
      </trkpt>
      <trkpt lat="45.97333" lon="4.86932">
        <ele>284</ele>
        <time>2016-11-05T10:39:21Z</time>
      </trkpt>
      <trkpt lat="45.9733" lon="4.86926">
        <ele>284</ele>
        <time>2016-11-05T10:39:22Z</time>
      </trkpt>
      <trkpt lat="45.97326" lon="4.86922">
        <ele>284</ele>
        <time>2016-11-05T10:39:23Z</time>
      </trkpt>
      <trkpt lat="45.97323" lon="4.86917">
        <ele>284</ele>
        <time>2016-11-05T10:39:24Z</time>
      </trkpt>
      <trkpt lat="45.9732" lon="4.86911">
        <ele>284</ele>
        <time>2016-11-05T10:39:25Z</time>
      </trkpt>
      <trkpt lat="45.97316" lon="4.86906">
        <ele>284</ele>
        <time>2016-11-05T10:39:26Z</time>
      </trkpt>
      <trkpt lat="45.97313" lon="4.86901">
        <ele>284</ele>
        <time>2016-11-05T10:39:27Z</time>
      </trkpt>
      <trkpt lat="45.97309" lon="4.86896">
        <ele>284</ele>
        <time>2016-11-05T10:39:28Z</time>
      </trkpt>
      <trkpt lat="45.97305" lon="4.86891">
        <ele>284</ele>
        <time>2016-11-05T10:39:29Z</time>
      </trkpt>
      <trkpt lat="45.97301" lon="4.86886">
        <ele>284</ele>
        <time>2016-11-05T10:39:30Z</time>
      </trkpt>
      <trkpt lat="45.97297" lon="4.8688">
        <ele>284</ele>
        <time>2016-11-05T10:39:31Z</time>
      </trkpt>
      <trkpt lat="45.97293" lon="4.86875">
        <ele>284</ele>
        <time>2016-11-05T10:39:32Z</time>
      </trkpt>
      <trkpt lat="45.97289" lon="4.8687">
        <ele>285</ele>
        <time>2016-11-05T10:39:33Z</time>
      </trkpt>
      <trkpt lat="45.97286" lon="4.86864">
        <ele>285</ele>
        <time>2016-11-05T10:39:34Z</time>
      </trkpt>
      <trkpt lat="45.97283" lon="4.86859">
        <ele>285</ele>
        <time>2016-11-05T10:39:35Z</time>
      </trkpt>
      <trkpt lat="45.97279" lon="4.86854">
        <ele>285</ele>
        <time>2016-11-05T10:39:36Z</time>
      </trkpt>
      <trkpt lat="45.97276" lon="4.86849">
        <ele>285</ele>
        <time>2016-11-05T10:39:37Z</time>
      </trkpt>
      <trkpt lat="45.97273" lon="4.86843">
        <ele>285</ele>
        <time>2016-11-05T10:39:38Z</time>
      </trkpt>
      <trkpt lat="45.9727" lon="4.86838">
        <ele>285</ele>
        <time>2016-11-05T10:39:39Z</time>
      </trkpt>
      <trkpt lat="45.97265" lon="4.86828">
        <ele>285</ele>
        <time>2016-11-05T10:39:41Z</time>
      </trkpt>
      <trkpt lat="45.97263" lon="4.86823">
        <ele>285</ele>
        <time>2016-11-05T10:39:42Z</time>
      </trkpt>
      <trkpt lat="45.97257" lon="4.86813">
        <ele>285</ele>
        <time>2016-11-05T10:39:44Z</time>
      </trkpt>
      <trkpt lat="45.97255" lon="4.86809">
        <ele>285</ele>
        <time>2016-11-05T10:39:45Z</time>
      </trkpt>
      <trkpt lat="45.97249" lon="4.868">
        <ele>284</ele>
        <time>2016-11-05T10:39:47Z</time>
      </trkpt>
      <trkpt lat="45.97245" lon="4.86797">
        <ele>284</ele>
        <time>2016-11-05T10:39:48Z</time>
      </trkpt>
      <trkpt lat="45.97237" lon="4.86791">
        <ele>284</ele>
        <time>2016-11-05T10:39:50Z</time>
      </trkpt>
      <trkpt lat="45.97233" lon="4.86789">
        <ele>284</ele>
        <time>2016-11-05T10:39:51Z</time>
      </trkpt>
      <trkpt lat="45.97229" lon="4.86787">
        <ele>284</ele>
        <time>2016-11-05T10:39:52Z</time>
      </trkpt>
      <trkpt lat="45.97224" lon="4.86786">
        <ele>284</ele>
        <time>2016-11-05T10:39:53Z</time>
      </trkpt>
      <trkpt lat="45.97215" lon="4.86786">
        <ele>284</ele>
        <time>2016-11-05T10:39:55Z</time>
      </trkpt>
      <trkpt lat="45.97206" lon="4.86788">
        <ele>284</ele>
        <time>2016-11-05T10:39:57Z</time>
      </trkpt>
      <trkpt lat="45.97201" lon="4.86789">
        <ele>284</ele>
        <time>2016-11-05T10:39:58Z</time>
      </trkpt>
      <trkpt lat="45.97197" lon="4.86791">
        <ele>284</ele>
        <time>2016-11-05T10:39:59Z</time>
      </trkpt>
      <trkpt lat="45.97192" lon="4.86793">
        <ele>284</ele>
        <time>2016-11-05T10:40:00Z</time>
      </trkpt>
      <trkpt lat="45.97187" lon="4.86795">
        <ele>284</ele>
        <time>2016-11-05T10:40:01Z</time>
      </trkpt>
      <trkpt lat="45.97183" lon="4.86796">
        <ele>284</ele>
        <time>2016-11-05T10:40:02Z</time>
      </trkpt>
      <trkpt lat="45.97178" lon="4.86798">
        <ele>284</ele>
        <time>2016-11-05T10:40:03Z</time>
      </trkpt>
      <trkpt lat="45.97173" lon="4.868">
        <ele>283</ele>
        <time>2016-11-05T10:40:04Z</time>
      </trkpt>
      <trkpt lat="45.97169" lon="4.86803">
        <ele>283</ele>
        <time>2016-11-05T10:40:05Z</time>
      </trkpt>
      <trkpt lat="45.97164" lon="4.86805">
        <ele>283</ele>
        <time>2016-11-05T10:40:06Z</time>
      </trkpt>
      <trkpt lat="45.9716" lon="4.86808">
        <ele>283</ele>
        <time>2016-11-05T10:40:07Z</time>
      </trkpt>
      <trkpt lat="45.97156" lon="4.86809">
        <ele>283</ele>
        <time>2016-11-05T10:40:08Z</time>
      </trkpt>
      <trkpt lat="45.97151" lon="4.86811">
        <ele>283</ele>
        <time>2016-11-05T10:40:09Z</time>
      </trkpt>
      <trkpt lat="45.97147" lon="4.86814">
        <ele>283</ele>
        <time>2016-11-05T10:40:10Z</time>
      </trkpt>
      <trkpt lat="45.97142" lon="4.86816">
        <ele>283</ele>
        <time>2016-11-05T10:40:11Z</time>
      </trkpt>
      <trkpt lat="45.97138" lon="4.86818">
        <ele>283</ele>
        <time>2016-11-05T10:40:12Z</time>
      </trkpt>
      <trkpt lat="45.97133" lon="4.8682">
        <ele>283</ele>
        <time>2016-11-05T10:40:13Z</time>
      </trkpt>
      <trkpt lat="45.97129" lon="4.86821">
        <ele>283</ele>
        <time>2016-11-05T10:40:14Z</time>
      </trkpt>
      <trkpt lat="45.97124" lon="4.86823">
        <ele>283</ele>
        <time>2016-11-05T10:40:15Z</time>
      </trkpt>
      <trkpt lat="45.97116" lon="4.86826">
        <ele>283</ele>
        <time>2016-11-05T10:40:17Z</time>
      </trkpt>
      <trkpt lat="45.97111" lon="4.86827">
        <ele>283</ele>
        <time>2016-11-05T10:40:18Z</time>
      </trkpt>
      <trkpt lat="45.97107" lon="4.86828">
        <ele>284</ele>
        <time>2016-11-05T10:40:19Z</time>
      </trkpt>
      <trkpt lat="45.97102" lon="4.86829">
        <ele>284</ele>
        <time>2016-11-05T10:40:20Z</time>
      </trkpt>
      <trkpt lat="45.97097" lon="4.8683">
        <ele>284</ele>
        <time>2016-11-05T10:40:21Z</time>
      </trkpt>
      <trkpt lat="45.97092" lon="4.86831">
        <ele>284</ele>
        <time>2016-11-05T10:40:22Z</time>
      </trkpt>
      <trkpt lat="45.97087" lon="4.86832">
        <ele>284</ele>
        <time>2016-11-05T10:40:23Z</time>
      </trkpt>
      <trkpt lat="45.97083" lon="4.86832">
        <ele>284</ele>
        <time>2016-11-05T10:40:24Z</time>
      </trkpt>
      <trkpt lat="45.97078" lon="4.86833">
        <ele>284</ele>
        <time>2016-11-05T10:40:25Z</time>
      </trkpt>
      <trkpt lat="45.97073" lon="4.86834">
        <ele>284</ele>
        <time>2016-11-05T10:40:26Z</time>
      </trkpt>
      <trkpt lat="45.97069" lon="4.86834">
        <ele>284</ele>
        <time>2016-11-05T10:40:27Z</time>
      </trkpt>
      <trkpt lat="45.97064" lon="4.86835">
        <ele>284</ele>
        <time>2016-11-05T10:40:28Z</time>
      </trkpt>
      <trkpt lat="45.9706" lon="4.86836">
        <ele>284</ele>
        <time>2016-11-05T10:40:29Z</time>
      </trkpt>
      <trkpt lat="45.97055" lon="4.86836">
        <ele>285</ele>
        <time>2016-11-05T10:40:30Z</time>
      </trkpt>
      <trkpt lat="45.9705" lon="4.86837">
        <ele>285</ele>
        <time>2016-11-05T10:40:31Z</time>
      </trkpt>
      <trkpt lat="45.97046" lon="4.86838">
        <ele>285</ele>
        <time>2016-11-05T10:40:32Z</time>
      </trkpt>
      <trkpt lat="45.97041" lon="4.86838">
        <ele>285</ele>
        <time>2016-11-05T10:40:33Z</time>
      </trkpt>
      <trkpt lat="45.97037" lon="4.86839">
        <ele>285</ele>
        <time>2016-11-05T10:40:34Z</time>
      </trkpt>
      <trkpt lat="45.97028" lon="4.86841">
        <ele>285</ele>
        <time>2016-11-05T10:40:36Z</time>
      </trkpt>
      <trkpt lat="45.97023" lon="4.86842">
        <ele>285</ele>
        <time>2016-11-05T10:40:37Z</time>
      </trkpt>
      <trkpt lat="45.97015" lon="4.86844">
        <ele>285</ele>
        <time>2016-11-05T10:40:39Z</time>
      </trkpt>
      <trkpt lat="45.9701" lon="4.86844">
        <ele>285</ele>
        <time>2016-11-05T10:40:40Z</time>
      </trkpt>
      <trkpt lat="45.97006" lon="4.86844">
        <ele>285</ele>
        <time>2016-11-05T10:40:41Z</time>
      </trkpt>
      <trkpt lat="45.97001" lon="4.86844">
        <ele>285</ele>
        <time>2016-11-05T10:40:42Z</time>
      </trkpt>
      <trkpt lat="45.96992" lon="4.86844">
        <ele>286</ele>
        <time>2016-11-05T10:40:44Z</time>
      </trkpt>
      <trkpt lat="45.96988" lon="4.86843">
        <ele>286</ele>
        <time>2016-11-05T10:40:45Z</time>
      </trkpt>
      <trkpt lat="45.96979" lon="4.86841">
        <ele>286</ele>
        <time>2016-11-05T10:40:47Z</time>
      </trkpt>
      <trkpt lat="45.96975" lon="4.86839">
        <ele>286</ele>
        <time>2016-11-05T10:40:48Z</time>
      </trkpt>
      <trkpt lat="45.96966" lon="4.86837">
        <ele>286</ele>
        <time>2016-11-05T10:40:50Z</time>
      </trkpt>
      <trkpt lat="45.96963" lon="4.86836">
        <ele>287</ele>
        <time>2016-11-05T10:40:51Z</time>
      </trkpt>
      <trkpt lat="45.96955" lon="4.86833">
        <ele>286</ele>
        <time>2016-11-05T10:40:53Z</time>
      </trkpt>
      <trkpt lat="45.96951" lon="4.86831">
        <ele>287</ele>
        <time>2016-11-05T10:40:54Z</time>
      </trkpt>
      <trkpt lat="45.96944" lon="4.86826">
        <ele>287</ele>
        <time>2016-11-05T10:40:56Z</time>
      </trkpt>
      <trkpt lat="45.9694" lon="4.86823">
        <ele>287</ele>
        <time>2016-11-05T10:40:57Z</time>
      </trkpt>
      <trkpt lat="45.96935" lon="4.8682">
        <ele>287</ele>
        <time>2016-11-05T10:40:58Z</time>
      </trkpt>
      <trkpt lat="45.96931" lon="4.86818">
        <ele>287</ele>
        <time>2016-11-05T10:40:59Z</time>
      </trkpt>
      <trkpt lat="45.96927" lon="4.86815">
        <ele>287</ele>
        <time>2016-11-05T10:41:00Z</time>
      </trkpt>
      <trkpt lat="45.96922" lon="4.86813">
        <ele>287</ele>
        <time>2016-11-05T10:41:01Z</time>
      </trkpt>
      <trkpt lat="45.96914" lon="4.86807">
        <ele>288</ele>
        <time>2016-11-05T10:41:03Z</time>
      </trkpt>
      <trkpt lat="45.96911" lon="4.86805">
        <ele>288</ele>
        <time>2016-11-05T10:41:04Z</time>
      </trkpt>
      <trkpt lat="45.96904" lon="4.86798">
        <ele>289</ele>
        <time>2016-11-05T10:41:06Z</time>
      </trkpt>
      <trkpt lat="45.96901" lon="4.86794">
        <ele>289</ele>
        <time>2016-11-05T10:41:07Z</time>
      </trkpt>
      <trkpt lat="45.96897" lon="4.86791">
        <ele>289</ele>
        <time>2016-11-05T10:41:08Z</time>
      </trkpt>
      <trkpt lat="45.96893" lon="4.86786">
        <ele>289</ele>
        <time>2016-11-05T10:41:09Z</time>
      </trkpt>
      <trkpt lat="45.96887" lon="4.86781">
        <ele>289</ele>
        <time>2016-11-05T10:41:11Z</time>
      </trkpt>
      <trkpt lat="45.96884" lon="4.86777">
        <ele>289</ele>
        <time>2016-11-05T10:41:12Z</time>
      </trkpt>
      <trkpt lat="45.96878" lon="4.86771">
        <ele>289</ele>
        <time>2016-11-05T10:41:14Z</time>
      </trkpt>
      <trkpt lat="45.96874" lon="4.86768">
        <ele>289</ele>
        <time>2016-11-05T10:41:15Z</time>
      </trkpt>
      <trkpt lat="45.96867" lon="4.86761">
        <ele>289</ele>
        <time>2016-11-05T10:41:17Z</time>
      </trkpt>
      <trkpt lat="45.96863" lon="4.86758">
        <ele>289</ele>
        <time>2016-11-05T10:41:18Z</time>
      </trkpt>
      <trkpt lat="45.96856" lon="4.86751">
        <ele>289</ele>
        <time>2016-11-05T10:41:20Z</time>
      </trkpt>
      <trkpt lat="45.96853" lon="4.86748">
        <ele>288</ele>
        <time>2016-11-05T10:41:21Z</time>
      </trkpt>
      <trkpt lat="45.96846" lon="4.86741">
        <ele>289</ele>
        <time>2016-11-05T10:41:23Z</time>
      </trkpt>
      <trkpt lat="45.96843" lon="4.86737">
        <ele>289</ele>
        <time>2016-11-05T10:41:24Z</time>
      </trkpt>
      <trkpt lat="45.96839" lon="4.86734">
        <ele>289</ele>
        <time>2016-11-05T10:41:25Z</time>
      </trkpt>
      <trkpt lat="45.96835" lon="4.86731">
        <ele>288</ele>
        <time>2016-11-05T10:41:26Z</time>
      </trkpt>
      <trkpt lat="45.96831" lon="4.86727">
        <ele>289</ele>
        <time>2016-11-05T10:41:27Z</time>
      </trkpt>
      <trkpt lat="45.96827" lon="4.86723">
        <ele>289</ele>
        <time>2016-11-05T10:41:28Z</time>
      </trkpt>
      <trkpt lat="45.96823" lon="4.86719">
        <ele>289</ele>
        <time>2016-11-05T10:41:29Z</time>
      </trkpt>
      <trkpt lat="45.96819" lon="4.86715">
        <ele>289</ele>
        <time>2016-11-05T10:41:30Z</time>
      </trkpt>
      <trkpt lat="45.96815" lon="4.86712">
        <ele>289</ele>
        <time>2016-11-05T10:41:31Z</time>
      </trkpt>
      <trkpt lat="45.9681" lon="4.86708">
        <ele>289</ele>
        <time>2016-11-05T10:41:32Z</time>
      </trkpt>
      <trkpt lat="45.96806" lon="4.86704">
        <ele>289</ele>
        <time>2016-11-05T10:41:33Z</time>
      </trkpt>
      <trkpt lat="45.96803" lon="4.867">
        <ele>289</ele>
        <time>2016-11-05T10:41:34Z</time>
      </trkpt>
      <trkpt lat="45.96796" lon="4.86693">
        <ele>289</ele>
        <time>2016-11-05T10:41:36Z</time>
      </trkpt>
      <trkpt lat="45.96792" lon="4.86689">
        <ele>289</ele>
        <time>2016-11-05T10:41:37Z</time>
      </trkpt>
      <trkpt lat="45.96786" lon="4.86683">
        <ele>289</ele>
        <time>2016-11-05T10:41:39Z</time>
      </trkpt>
      <trkpt lat="45.96783" lon="4.86679">
        <ele>289</ele>
        <time>2016-11-05T10:41:40Z</time>
      </trkpt>
      <trkpt lat="45.96776" lon="4.86672">
        <ele>289</ele>
        <time>2016-11-05T10:41:42Z</time>
      </trkpt>
      <trkpt lat="45.96773" lon="4.86668">
        <ele>289</ele>
        <time>2016-11-05T10:41:43Z</time>
      </trkpt>
      <trkpt lat="45.96768" lon="4.86659">
        <ele>290</ele>
        <time>2016-11-05T10:41:45Z</time>
      </trkpt>
      <trkpt lat="45.96766" lon="4.86655">
        <ele>290</ele>
        <time>2016-11-05T10:41:46Z</time>
      </trkpt>
      <trkpt lat="45.96762" lon="4.86646">
        <ele>290</ele>
        <time>2016-11-05T10:41:48Z</time>
      </trkpt>
      <trkpt lat="45.9676" lon="4.86642">
        <ele>290</ele>
        <time>2016-11-05T10:41:49Z</time>
      </trkpt>
      <trkpt lat="45.96756" lon="4.86632">
        <ele>290</ele>
        <time>2016-11-05T10:41:51Z</time>
      </trkpt>
      <trkpt lat="45.96753" lon="4.86628">
        <ele>290</ele>
        <time>2016-11-05T10:41:52Z</time>
      </trkpt>
      <trkpt lat="45.96749" lon="4.86625">
        <ele>290</ele>
        <time>2016-11-05T10:41:53Z</time>
      </trkpt>
      <trkpt lat="45.96744" lon="4.86623">
        <ele>290</ele>
        <time>2016-11-05T10:41:54Z</time>
      </trkpt>
      <trkpt lat="45.96739" lon="4.86621">
        <ele>290</ele>
        <time>2016-11-05T10:41:55Z</time>
      </trkpt>
      <trkpt lat="45.96734" lon="4.8662">
        <ele>290</ele>
        <time>2016-11-05T10:41:56Z</time>
      </trkpt>
      <trkpt lat="45.96726" lon="4.86618">
        <ele>290</ele>
        <time>2016-11-05T10:41:58Z</time>
      </trkpt>
      <trkpt lat="45.96722" lon="4.86617">
        <ele>290</ele>
        <time>2016-11-05T10:41:59Z</time>
      </trkpt>
      <trkpt lat="45.96714" lon="4.86614">
        <ele>290</ele>
        <time>2016-11-05T10:42:01Z</time>
      </trkpt>
      <trkpt lat="45.96711" lon="4.86612">
        <ele>290</ele>
        <time>2016-11-05T10:42:02Z</time>
      </trkpt>
      <trkpt lat="45.96704" lon="4.86606">
        <ele>290</ele>
        <time>2016-11-05T10:42:04Z</time>
      </trkpt>
      <trkpt lat="45.96701" lon="4.86603">
        <ele>290</ele>
        <time>2016-11-05T10:42:05Z</time>
      </trkpt>
      <trkpt lat="45.96694" lon="4.86596">
        <ele>290</ele>
        <time>2016-11-05T10:42:07Z</time>
      </trkpt>
      <trkpt lat="45.9669" lon="4.86592">
        <ele>290</ele>
        <time>2016-11-05T10:42:08Z</time>
      </trkpt>
      <trkpt lat="45.96682" lon="4.86586">
        <ele>290</ele>
        <time>2016-11-05T10:42:10Z</time>
      </trkpt>
      <trkpt lat="45.96678" lon="4.86583">
        <ele>290</ele>
        <time>2016-11-05T10:42:11Z</time>
      </trkpt>
      <trkpt lat="45.96671" lon="4.86575">
        <ele>290</ele>
        <time>2016-11-05T10:42:13Z</time>
      </trkpt>
      <trkpt lat="45.96667" lon="4.86571">
        <ele>290</ele>
        <time>2016-11-05T10:42:14Z</time>
      </trkpt>
      <trkpt lat="45.96664" lon="4.86567">
        <ele>290</ele>
        <time>2016-11-05T10:42:15Z</time>
      </trkpt>
      <trkpt lat="45.9666" lon="4.86564">
        <ele>290</ele>
        <time>2016-11-05T10:42:16Z</time>
      </trkpt>
      <trkpt lat="45.96653" lon="4.86557">
        <ele>291</ele>
        <time>2016-11-05T10:42:18Z</time>
      </trkpt>
      <trkpt lat="45.9665" lon="4.86553">
        <ele>291</ele>
        <time>2016-11-05T10:42:19Z</time>
      </trkpt>
      <trkpt lat="45.96643" lon="4.86547">
        <ele>291</ele>
        <time>2016-11-05T10:42:21Z</time>
      </trkpt>
      <trkpt lat="45.96639" lon="4.86544">
        <ele>291</ele>
        <time>2016-11-05T10:42:22Z</time>
      </trkpt>
      <trkpt lat="45.96632" lon="4.86538">
        <ele>291</ele>
        <time>2016-11-05T10:42:24Z</time>
      </trkpt>
      <trkpt lat="45.96629" lon="4.86534">
        <ele>291</ele>
        <time>2016-11-05T10:42:25Z</time>
      </trkpt>
      <trkpt lat="45.96622" lon="4.86527">
        <ele>291</ele>
        <time>2016-11-05T10:42:27Z</time>
      </trkpt>
      <trkpt lat="45.96618" lon="4.86524">
        <ele>291</ele>
        <time>2016-11-05T10:42:28Z</time>
      </trkpt>
      <trkpt lat="45.96615" lon="4.86521">
        <ele>291</ele>
        <time>2016-11-05T10:42:29Z</time>
      </trkpt>
      <trkpt lat="45.96611" lon="4.86517">
        <ele>291</ele>
        <time>2016-11-05T10:42:30Z</time>
      </trkpt>
      <trkpt lat="45.96607" lon="4.86513">
        <ele>291</ele>
        <time>2016-11-05T10:42:31Z</time>
      </trkpt>
      <trkpt lat="45.96603" lon="4.86509">
        <ele>291</ele>
        <time>2016-11-05T10:42:32Z</time>
      </trkpt>
      <trkpt lat="45.96599" lon="4.86505">
        <ele>291</ele>
        <time>2016-11-05T10:42:33Z</time>
      </trkpt>
      <trkpt lat="45.96595" lon="4.86501">
        <ele>292</ele>
        <time>2016-11-05T10:42:34Z</time>
      </trkpt>
      <trkpt lat="45.96592" lon="4.86496">
        <ele>292</ele>
        <time>2016-11-05T10:42:35Z</time>
      </trkpt>
      <trkpt lat="45.96589" lon="4.8649">
        <ele>292</ele>
        <time>2016-11-05T10:42:36Z</time>
      </trkpt>
      <trkpt lat="45.96586" lon="4.86484">
        <ele>292</ele>
        <time>2016-11-05T10:42:37Z</time>
      </trkpt>
      <trkpt lat="45.96584" lon="4.86479">
        <ele>291</ele>
        <time>2016-11-05T10:42:38Z</time>
      </trkpt>
      <trkpt lat="45.96582" lon="4.86472">
        <ele>290</ele>
        <time>2016-11-05T10:42:39Z</time>
      </trkpt>
      <trkpt lat="45.96581" lon="4.86465">
        <ele>289</ele>
        <time>2016-11-05T10:42:40Z</time>
      </trkpt>
      <trkpt lat="45.96581" lon="4.86457">
        <ele>289</ele>
        <time>2016-11-05T10:42:41Z</time>
      </trkpt>
      <trkpt lat="45.96581" lon="4.86449">
        <ele>289</ele>
        <time>2016-11-05T10:42:42Z</time>
      </trkpt>
      <trkpt lat="45.9658" lon="4.86441">
        <ele>289</ele>
        <time>2016-11-05T10:42:43Z</time>
      </trkpt>
      <trkpt lat="45.9658" lon="4.86432">
        <ele>289</ele>
        <time>2016-11-05T10:42:44Z</time>
      </trkpt>
      <trkpt lat="45.9658" lon="4.86424">
        <ele>289</ele>
        <time>2016-11-05T10:42:45Z</time>
      </trkpt>
      <trkpt lat="45.96579" lon="4.86416">
        <ele>289</ele>
        <time>2016-11-05T10:42:46Z</time>
      </trkpt>
      <trkpt lat="45.96579" lon="4.86407">
        <ele>288</ele>
        <time>2016-11-05T10:42:47Z</time>
      </trkpt>
      <trkpt lat="45.96579" lon="4.86398">
        <ele>287</ele>
        <time>2016-11-05T10:42:48Z</time>
      </trkpt>
      <trkpt lat="45.96579" lon="4.86389">
        <ele>287</ele>
        <time>2016-11-05T10:42:49Z</time>
      </trkpt>
      <trkpt lat="45.96578" lon="4.8638">
        <ele>286</ele>
        <time>2016-11-05T10:42:50Z</time>
      </trkpt>
      <trkpt lat="45.96578" lon="4.86371">
        <ele>286</ele>
        <time>2016-11-05T10:42:51Z</time>
      </trkpt>
      <trkpt lat="45.96578" lon="4.86362">
        <ele>286</ele>
        <time>2016-11-05T10:42:52Z</time>
      </trkpt>
      <trkpt lat="45.96578" lon="4.86353">
        <ele>285</ele>
        <time>2016-11-05T10:42:53Z</time>
      </trkpt>
      <trkpt lat="45.96579" lon="4.86345">
        <ele>285</ele>
        <time>2016-11-05T10:42:54Z</time>
      </trkpt>
      <trkpt lat="45.96578" lon="4.86336">
        <ele>285</ele>
        <time>2016-11-05T10:42:55Z</time>
      </trkpt>
      <trkpt lat="45.96578" lon="4.86328">
        <ele>284</ele>
        <time>2016-11-05T10:42:56Z</time>
      </trkpt>
      <trkpt lat="45.96578" lon="4.86319">
        <ele>284</ele>
        <time>2016-11-05T10:42:57Z</time>
      </trkpt>
      <trkpt lat="45.96579" lon="4.8631">
        <ele>283</ele>
        <time>2016-11-05T10:42:58Z</time>
      </trkpt>
      <trkpt lat="45.96579" lon="4.86302">
        <ele>283</ele>
        <time>2016-11-05T10:42:59Z</time>
      </trkpt>
      <trkpt lat="45.96579" lon="4.86292">
        <ele>282</ele>
        <time>2016-11-05T10:43:00Z</time>
      </trkpt>
      <trkpt lat="45.9658" lon="4.86283">
        <ele>282</ele>
        <time>2016-11-05T10:43:01Z</time>
      </trkpt>
      <trkpt lat="45.96581" lon="4.86273">
        <ele>282</ele>
        <time>2016-11-05T10:43:02Z</time>
      </trkpt>
      <trkpt lat="45.96581" lon="4.86264">
        <ele>281</ele>
        <time>2016-11-05T10:43:03Z</time>
      </trkpt>
      <trkpt lat="45.96582" lon="4.86253">
        <ele>281</ele>
        <time>2016-11-05T10:43:04Z</time>
      </trkpt>
      <trkpt lat="45.96583" lon="4.86242">
        <ele>280</ele>
        <time>2016-11-05T10:43:05Z</time>
      </trkpt>
      <trkpt lat="45.96584" lon="4.86231">
        <ele>282</ele>
        <time>2016-11-05T10:43:06Z</time>
      </trkpt>
      <trkpt lat="45.96586" lon="4.86219">
        <ele>282</ele>
        <time>2016-11-05T10:43:07Z</time>
      </trkpt>
      <trkpt lat="45.96587" lon="4.86207">
        <ele>282</ele>
        <time>2016-11-05T10:43:08Z</time>
      </trkpt>
      <trkpt lat="45.96588" lon="4.86195">
        <ele>282</ele>
        <time>2016-11-05T10:43:09Z</time>
      </trkpt>
      <trkpt lat="45.96589" lon="4.86182">
        <ele>281</ele>
        <time>2016-11-05T10:43:10Z</time>
      </trkpt>
      <trkpt lat="45.96591" lon="4.86169">
        <ele>281</ele>
        <time>2016-11-05T10:43:11Z</time>
      </trkpt>
      <trkpt lat="45.96592" lon="4.86157">
        <ele>281</ele>
        <time>2016-11-05T10:43:12Z</time>
      </trkpt>
      <trkpt lat="45.96594" lon="4.86144">
        <ele>281</ele>
        <time>2016-11-05T10:43:13Z</time>
      </trkpt>
      <trkpt lat="45.96595" lon="4.86131">
        <ele>281</ele>
        <time>2016-11-05T10:43:14Z</time>
      </trkpt>
      <trkpt lat="45.96595" lon="4.86119">
        <ele>281</ele>
        <time>2016-11-05T10:43:15Z</time>
      </trkpt>
      <trkpt lat="45.96596" lon="4.86106">
        <ele>281</ele>
        <time>2016-11-05T10:43:16Z</time>
      </trkpt>
      <trkpt lat="45.96595" lon="4.86094">
        <ele>280</ele>
        <time>2016-11-05T10:43:17Z</time>
      </trkpt>
      <trkpt lat="45.96592" lon="4.86081">
        <ele>279</ele>
        <time>2016-11-05T10:43:18Z</time>
      </trkpt>
      <trkpt lat="45.96589" lon="4.8607">
        <ele>279</ele>
        <time>2016-11-05T10:43:19Z</time>
      </trkpt>
      <trkpt lat="45.96585" lon="4.86059">
        <ele>280</ele>
        <time>2016-11-05T10:43:20Z</time>
      </trkpt>
      <trkpt lat="45.9658" lon="4.86048">
        <ele>276</ele>
        <time>2016-11-05T10:43:21Z</time>
      </trkpt>
      <trkpt lat="45.96575" lon="4.86038">
        <ele>276</ele>
        <time>2016-11-05T10:43:22Z</time>
      </trkpt>
      <trkpt lat="45.9657" lon="4.86029">
        <ele>276</ele>
        <time>2016-11-05T10:43:23Z</time>
      </trkpt>
      <trkpt lat="45.96565" lon="4.86019">
        <ele>276</ele>
        <time>2016-11-05T10:43:24Z</time>
      </trkpt>
      <trkpt lat="45.9656" lon="4.8601">
        <ele>276</ele>
        <time>2016-11-05T10:43:25Z</time>
      </trkpt>
      <trkpt lat="45.96555" lon="4.86001">
        <ele>276</ele>
        <time>2016-11-05T10:43:26Z</time>
      </trkpt>
      <trkpt lat="45.9655" lon="4.85993">
        <ele>276</ele>
        <time>2016-11-05T10:43:27Z</time>
      </trkpt>
      <trkpt lat="45.96546" lon="4.85984">
        <ele>275</ele>
        <time>2016-11-05T10:43:28Z</time>
      </trkpt>
      <trkpt lat="45.96541" lon="4.85975">
        <ele>275</ele>
        <time>2016-11-05T10:43:29Z</time>
      </trkpt>
      <trkpt lat="45.96537" lon="4.85966">
        <ele>275</ele>
        <time>2016-11-05T10:43:30Z</time>
      </trkpt>
      <trkpt lat="45.96532" lon="4.85957">
        <ele>275</ele>
        <time>2016-11-05T10:43:31Z</time>
      </trkpt>
      <trkpt lat="45.96529" lon="4.85948">
        <ele>275</ele>
        <time>2016-11-05T10:43:32Z</time>
      </trkpt>
      <trkpt lat="45.96525" lon="4.85939">
        <ele>275</ele>
        <time>2016-11-05T10:43:33Z</time>
      </trkpt>
      <trkpt lat="45.96522" lon="4.8593">
        <ele>275</ele>
        <time>2016-11-05T10:43:34Z</time>
      </trkpt>
      <trkpt lat="45.96519" lon="4.8592">
        <ele>275</ele>
        <time>2016-11-05T10:43:35Z</time>
      </trkpt>
      <trkpt lat="45.96516" lon="4.85911">
        <ele>275</ele>
        <time>2016-11-05T10:43:36Z</time>
      </trkpt>
      <trkpt lat="45.96514" lon="4.85901">
        <ele>275</ele>
        <time>2016-11-05T10:43:37Z</time>
      </trkpt>
      <trkpt lat="45.96512" lon="4.85892">
        <ele>275</ele>
        <time>2016-11-05T10:43:38Z</time>
      </trkpt>
      <trkpt lat="45.9651" lon="4.85882">
        <ele>275</ele>
        <time>2016-11-05T10:43:39Z</time>
      </trkpt>
      <trkpt lat="45.96508" lon="4.85872">
        <ele>275</ele>
        <time>2016-11-05T10:43:40Z</time>
      </trkpt>
      <trkpt lat="45.96507" lon="4.85862">
        <ele>275</ele>
        <time>2016-11-05T10:43:41Z</time>
      </trkpt>
      <trkpt lat="45.96506" lon="4.85853">
        <ele>275</ele>
        <time>2016-11-05T10:43:42Z</time>
      </trkpt>
      <trkpt lat="45.96504" lon="4.85844">
        <ele>275</ele>
        <time>2016-11-05T10:43:43Z</time>
      </trkpt>
      <trkpt lat="45.96503" lon="4.85835">
        <ele>275</ele>
        <time>2016-11-05T10:43:44Z</time>
      </trkpt>
      <trkpt lat="45.96502" lon="4.85826">
        <ele>275</ele>
        <time>2016-11-05T10:43:45Z</time>
      </trkpt>
      <trkpt lat="45.96501" lon="4.85817">
        <ele>275</ele>
        <time>2016-11-05T10:43:46Z</time>
      </trkpt>
      <trkpt lat="45.96499" lon="4.85808">
        <ele>274</ele>
        <time>2016-11-05T10:43:47Z</time>
      </trkpt>
      <trkpt lat="45.96498" lon="4.858">
        <ele>274</ele>
        <time>2016-11-05T10:43:48Z</time>
      </trkpt>
      <trkpt lat="45.96497" lon="4.85792">
        <ele>274</ele>
        <time>2016-11-05T10:43:49Z</time>
      </trkpt>
      <trkpt lat="45.96495" lon="4.85783">
        <ele>274</ele>
        <time>2016-11-05T10:43:50Z</time>
      </trkpt>
      <trkpt lat="45.96494" lon="4.85773">
        <ele>274</ele>
        <time>2016-11-05T10:43:51Z</time>
      </trkpt>
      <trkpt lat="45.96493" lon="4.85763">
        <ele>274</ele>
        <time>2016-11-05T10:43:52Z</time>
      </trkpt>
      <trkpt lat="45.96492" lon="4.85754">
        <ele>274</ele>
        <time>2016-11-05T10:43:53Z</time>
      </trkpt>
      <trkpt lat="45.9649" lon="4.85744">
        <ele>273</ele>
        <time>2016-11-05T10:43:54Z</time>
      </trkpt>
      <trkpt lat="45.96489" lon="4.85735">
        <ele>273</ele>
        <time>2016-11-05T10:43:55Z</time>
      </trkpt>
      <trkpt lat="45.96487" lon="4.85726">
        <ele>273</ele>
        <time>2016-11-05T10:43:56Z</time>
      </trkpt>
      <trkpt lat="45.96486" lon="4.85717">
        <ele>272</ele>
        <time>2016-11-05T10:43:57Z</time>
      </trkpt>
      <trkpt lat="45.96484" lon="4.85708">
        <ele>272</ele>
        <time>2016-11-05T10:43:58Z</time>
      </trkpt>
      <trkpt lat="45.96483" lon="4.857">
        <ele>272</ele>
        <time>2016-11-05T10:43:59Z</time>
      </trkpt>
      <trkpt lat="45.96482" lon="4.85692">
        <ele>272</ele>
        <time>2016-11-05T10:44:00Z</time>
      </trkpt>
      <trkpt lat="45.96481" lon="4.85684">
        <ele>272</ele>
        <time>2016-11-05T10:44:01Z</time>
      </trkpt>
      <trkpt lat="45.96479" lon="4.85676">
        <ele>272</ele>
        <time>2016-11-05T10:44:02Z</time>
      </trkpt>
      <trkpt lat="45.96478" lon="4.85668">
        <ele>272</ele>
        <time>2016-11-05T10:44:03Z</time>
      </trkpt>
      <trkpt lat="45.96477" lon="4.8566">
        <ele>271</ele>
        <time>2016-11-05T10:44:04Z</time>
      </trkpt>
      <trkpt lat="45.96476" lon="4.85653">
        <ele>271</ele>
        <time>2016-11-05T10:44:05Z</time>
      </trkpt>
      <trkpt lat="45.96475" lon="4.85645">
        <ele>271</ele>
        <time>2016-11-05T10:44:06Z</time>
      </trkpt>
      <trkpt lat="45.96475" lon="4.85637">
        <ele>271</ele>
        <time>2016-11-05T10:44:07Z</time>
      </trkpt>
      <trkpt lat="45.96474" lon="4.85629">
        <ele>271</ele>
        <time>2016-11-05T10:44:08Z</time>
      </trkpt>
      <trkpt lat="45.96473" lon="4.8562">
        <ele>271</ele>
        <time>2016-11-05T10:44:09Z</time>
      </trkpt>
      <trkpt lat="45.96473" lon="4.8561">
        <ele>271</ele>
        <time>2016-11-05T10:44:10Z</time>
      </trkpt>
      <trkpt lat="45.96472" lon="4.856">
        <ele>271</ele>
        <time>2016-11-05T10:44:11Z</time>
      </trkpt>
      <trkpt lat="45.96471" lon="4.85591">
        <ele>271</ele>
        <time>2016-11-05T10:44:12Z</time>
      </trkpt>
      <trkpt lat="45.9647" lon="4.85583">
        <ele>272</ele>
        <time>2016-11-05T10:44:13Z</time>
      </trkpt>
      <trkpt lat="45.96469" lon="4.85574">
        <ele>272</ele>
        <time>2016-11-05T10:44:14Z</time>
      </trkpt>
      <trkpt lat="45.96468" lon="4.85566">
        <ele>272</ele>
        <time>2016-11-05T10:44:15Z</time>
      </trkpt>
      <trkpt lat="45.96467" lon="4.85557">
        <ele>272</ele>
        <time>2016-11-05T10:44:16Z</time>
      </trkpt>
      <trkpt lat="45.96467" lon="4.85549">
        <ele>272</ele>
        <time>2016-11-05T10:44:17Z</time>
      </trkpt>
      <trkpt lat="45.96467" lon="4.8554">
        <ele>272</ele>
        <time>2016-11-05T10:44:18Z</time>
      </trkpt>
      <trkpt lat="45.96466" lon="4.85531">
        <ele>272</ele>
        <time>2016-11-05T10:44:19Z</time>
      </trkpt>
      <trkpt lat="45.96466" lon="4.85522">
        <ele>272</ele>
        <time>2016-11-05T10:44:20Z</time>
      </trkpt>
      <trkpt lat="45.96466" lon="4.85513">
        <ele>272</ele>
        <time>2016-11-05T10:44:21Z</time>
      </trkpt>
      <trkpt lat="45.96465" lon="4.85504">
        <ele>272</ele>
        <time>2016-11-05T10:44:22Z</time>
      </trkpt>
      <trkpt lat="45.96465" lon="4.85495">
        <ele>272</ele>
        <time>2016-11-05T10:44:23Z</time>
      </trkpt>
      <trkpt lat="45.96465" lon="4.85486">
        <ele>272</ele>
        <time>2016-11-05T10:44:24Z</time>
      </trkpt>
      <trkpt lat="45.96465" lon="4.85477">
        <ele>272</ele>
        <time>2016-11-05T10:44:25Z</time>
      </trkpt>
      <trkpt lat="45.96464" lon="4.85469">
        <ele>272</ele>
        <time>2016-11-05T10:44:26Z</time>
      </trkpt>
      <trkpt lat="45.96464" lon="4.85461">
        <ele>272</ele>
        <time>2016-11-05T10:44:27Z</time>
      </trkpt>
      <trkpt lat="45.96464" lon="4.85453">
        <ele>272</ele>
        <time>2016-11-05T10:44:28Z</time>
      </trkpt>
      <trkpt lat="45.96463" lon="4.85445">
        <ele>272</ele>
        <time>2016-11-05T10:44:29Z</time>
      </trkpt>
      <trkpt lat="45.96462" lon="4.85436">
        <ele>272</ele>
        <time>2016-11-05T10:44:30Z</time>
      </trkpt>
      <trkpt lat="45.96462" lon="4.85428">
        <ele>272</ele>
        <time>2016-11-05T10:44:31Z</time>
      </trkpt>
      <trkpt lat="45.96461" lon="4.85419">
        <ele>272</ele>
        <time>2016-11-05T10:44:32Z</time>
      </trkpt>
      <trkpt lat="45.9646" lon="4.8541">
        <ele>272</ele>
        <time>2016-11-05T10:44:33Z</time>
      </trkpt>
      <trkpt lat="45.96459" lon="4.85401">
        <ele>272</ele>
        <time>2016-11-05T10:44:34Z</time>
      </trkpt>
      <trkpt lat="45.96458" lon="4.85392">
        <ele>272</ele>
        <time>2016-11-05T10:44:35Z</time>
      </trkpt>
      <trkpt lat="45.96458" lon="4.85382">
        <ele>272</ele>
        <time>2016-11-05T10:44:36Z</time>
      </trkpt>
      <trkpt lat="45.96457" lon="4.85373">
        <ele>272</ele>
        <time>2016-11-05T10:44:37Z</time>
      </trkpt>
      <trkpt lat="45.96456" lon="4.85364">
        <ele>272</ele>
        <time>2016-11-05T10:44:38Z</time>
      </trkpt>
      <trkpt lat="45.96455" lon="4.85355">
        <ele>272</ele>
        <time>2016-11-05T10:44:39Z</time>
      </trkpt>
      <trkpt lat="45.96454" lon="4.85347">
        <ele>272</ele>
        <time>2016-11-05T10:44:40Z</time>
      </trkpt>
      <trkpt lat="45.96453" lon="4.85338">
        <ele>272</ele>
        <time>2016-11-05T10:44:41Z</time>
      </trkpt>
      <trkpt lat="45.96453" lon="4.85329">
        <ele>271</ele>
        <time>2016-11-05T10:44:42Z</time>
      </trkpt>
      <trkpt lat="45.96453" lon="4.8532">
        <ele>271</ele>
        <time>2016-11-05T10:44:43Z</time>
      </trkpt>
      <trkpt lat="45.96452" lon="4.85311">
        <ele>271</ele>
        <time>2016-11-05T10:44:44Z</time>
      </trkpt>
      <trkpt lat="45.96451" lon="4.85302">
        <ele>270</ele>
        <time>2016-11-05T10:44:45Z</time>
      </trkpt>
      <trkpt lat="45.96451" lon="4.85294">
        <ele>270</ele>
        <time>2016-11-05T10:44:46Z</time>
      </trkpt>
      <trkpt lat="45.9645" lon="4.85286">
        <ele>270</ele>
        <time>2016-11-05T10:44:47Z</time>
      </trkpt>
      <trkpt lat="45.9645" lon="4.85277">
        <ele>270</ele>
        <time>2016-11-05T10:44:48Z</time>
      </trkpt>
      <trkpt lat="45.9645" lon="4.8527">
        <ele>270</ele>
        <time>2016-11-05T10:44:49Z</time>
      </trkpt>
      <trkpt lat="45.9645" lon="4.85262">
        <ele>270</ele>
        <time>2016-11-05T10:44:50Z</time>
      </trkpt>
      <trkpt lat="45.9645" lon="4.85254">
        <ele>270</ele>
        <time>2016-11-05T10:44:51Z</time>
      </trkpt>
      <trkpt lat="45.96451" lon="4.85246">
        <ele>269</ele>
        <time>2016-11-05T10:44:52Z</time>
      </trkpt>
      <trkpt lat="45.96451" lon="4.85237">
        <ele>269</ele>
        <time>2016-11-05T10:44:53Z</time>
      </trkpt>
      <trkpt lat="45.96452" lon="4.85228">
        <ele>269</ele>
        <time>2016-11-05T10:44:54Z</time>
      </trkpt>
      <trkpt lat="45.96452" lon="4.85218">
        <ele>269</ele>
        <time>2016-11-05T10:44:55Z</time>
      </trkpt>
      <trkpt lat="45.96453" lon="4.85208">
        <ele>269</ele>
        <time>2016-11-05T10:44:56Z</time>
      </trkpt>
      <trkpt lat="45.96453" lon="4.85198">
        <ele>269</ele>
        <time>2016-11-05T10:44:57Z</time>
      </trkpt>
      <trkpt lat="45.96453" lon="4.85188">
        <ele>269</ele>
        <time>2016-11-05T10:44:58Z</time>
      </trkpt>
      <trkpt lat="45.96454" lon="4.85178">
        <ele>269</ele>
        <time>2016-11-05T10:44:59Z</time>
      </trkpt>
      <trkpt lat="45.96455" lon="4.85168">
        <ele>269</ele>
        <time>2016-11-05T10:45:00Z</time>
      </trkpt>
      <trkpt lat="45.96457" lon="4.85158">
        <ele>268</ele>
        <time>2016-11-05T10:45:01Z</time>
      </trkpt>
      <trkpt lat="45.9646" lon="4.85148">
        <ele>268</ele>
        <time>2016-11-05T10:45:02Z</time>
      </trkpt>
      <trkpt lat="45.96462" lon="4.85139">
        <ele>268</ele>
        <time>2016-11-05T10:45:03Z</time>
      </trkpt>
      <trkpt lat="45.96465" lon="4.85129">
        <ele>268</ele>
        <time>2016-11-05T10:45:04Z</time>
      </trkpt>
      <trkpt lat="45.96466" lon="4.85119">
        <ele>268</ele>
        <time>2016-11-05T10:45:05Z</time>
      </trkpt>
      <trkpt lat="45.96467" lon="4.85107">
        <ele>268</ele>
        <time>2016-11-05T10:45:06Z</time>
      </trkpt>
      <trkpt lat="45.96466" lon="4.85096">
        <ele>268</ele>
        <time>2016-11-05T10:45:07Z</time>
      </trkpt>
      <trkpt lat="45.96466" lon="4.85084">
        <ele>268</ele>
        <time>2016-11-05T10:45:08Z</time>
      </trkpt>
      <trkpt lat="45.96466" lon="4.85072">
        <ele>266</ele>
        <time>2016-11-05T10:45:09Z</time>
      </trkpt>
      <trkpt lat="45.96466" lon="4.85059">
        <ele>266</ele>
        <time>2016-11-05T10:45:10Z</time>
      </trkpt>
      <trkpt lat="45.96467" lon="4.85047">
        <ele>266</ele>
        <time>2016-11-05T10:45:11Z</time>
      </trkpt>
      <trkpt lat="45.96467" lon="4.85034">
        <ele>266</ele>
        <time>2016-11-05T10:45:12Z</time>
      </trkpt>
      <trkpt lat="45.96469" lon="4.85022">
        <ele>266</ele>
        <time>2016-11-05T10:45:13Z</time>
      </trkpt>
      <trkpt lat="45.9647" lon="4.85009">
        <ele>266</ele>
        <time>2016-11-05T10:45:14Z</time>
      </trkpt>
      <trkpt lat="45.96471" lon="4.84996">
        <ele>263</ele>
        <time>2016-11-05T10:45:15Z</time>
      </trkpt>
      <trkpt lat="45.96473" lon="4.84982">
        <ele>262</ele>
        <time>2016-11-05T10:45:16Z</time>
      </trkpt>
      <trkpt lat="45.96475" lon="4.84969">
        <ele>262</ele>
        <time>2016-11-05T10:45:17Z</time>
      </trkpt>
      <trkpt lat="45.96478" lon="4.84956">
        <ele>261</ele>
        <time>2016-11-05T10:45:18Z</time>
      </trkpt>
      <trkpt lat="45.96481" lon="4.84942">
        <ele>260</ele>
        <time>2016-11-05T10:45:19Z</time>
      </trkpt>
      <trkpt lat="45.96484" lon="4.84928">
        <ele>259</ele>
        <time>2016-11-05T10:45:20Z</time>
      </trkpt>
      <trkpt lat="45.96487" lon="4.84914">
        <ele>256</ele>
        <time>2016-11-05T10:45:21Z</time>
      </trkpt>
      <trkpt lat="45.9649" lon="4.849">
        <ele>256</ele>
        <time>2016-11-05T10:45:22Z</time>
      </trkpt>
      <trkpt lat="45.96493" lon="4.84887">
        <ele>255</ele>
        <time>2016-11-05T10:45:23Z</time>
      </trkpt>
      <trkpt lat="45.96496" lon="4.84873">
        <ele>255</ele>
        <time>2016-11-05T10:45:24Z</time>
      </trkpt>
      <trkpt lat="45.965" lon="4.84859">
        <ele>254</ele>
        <time>2016-11-05T10:45:25Z</time>
      </trkpt>
      <trkpt lat="45.96503" lon="4.84846">
        <ele>255</ele>
        <time>2016-11-05T10:45:26Z</time>
      </trkpt>
      <trkpt lat="45.96506" lon="4.84832">
        <ele>253</ele>
        <time>2016-11-05T10:45:27Z</time>
      </trkpt>
      <trkpt lat="45.9651" lon="4.84819">
        <ele>254</ele>
        <time>2016-11-05T10:45:28Z</time>
      </trkpt>
      <trkpt lat="45.96512" lon="4.84806">
        <ele>254</ele>
        <time>2016-11-05T10:45:29Z</time>
      </trkpt>
      <trkpt lat="45.96515" lon="4.84792">
        <ele>254</ele>
        <time>2016-11-05T10:45:30Z</time>
      </trkpt>
      <trkpt lat="45.96518" lon="4.84779">
        <ele>254</ele>
        <time>2016-11-05T10:45:31Z</time>
      </trkpt>
      <trkpt lat="45.96521" lon="4.84765">
        <ele>253</ele>
        <time>2016-11-05T10:45:32Z</time>
      </trkpt>
      <trkpt lat="45.96524" lon="4.84752">
        <ele>253</ele>
        <time>2016-11-05T10:45:33Z</time>
      </trkpt>
      <trkpt lat="45.96527" lon="4.84739">
        <ele>253</ele>
        <time>2016-11-05T10:45:34Z</time>
      </trkpt>
      <trkpt lat="45.96529" lon="4.84725">
        <ele>253</ele>
        <time>2016-11-05T10:45:35Z</time>
      </trkpt>
      <trkpt lat="45.96529" lon="4.84711">
        <ele>253</ele>
        <time>2016-11-05T10:45:36Z</time>
      </trkpt>
      <trkpt lat="45.96529" lon="4.84698">
        <ele>253</ele>
        <time>2016-11-05T10:45:37Z</time>
      </trkpt>
      <trkpt lat="45.96527" lon="4.84686">
        <ele>252</ele>
        <time>2016-11-05T10:45:38Z</time>
      </trkpt>
      <trkpt lat="45.96525" lon="4.84674">
        <ele>252</ele>
        <time>2016-11-05T10:45:39Z</time>
      </trkpt>
      <trkpt lat="45.96523" lon="4.84662">
        <ele>252</ele>
        <time>2016-11-05T10:45:40Z</time>
      </trkpt>
      <trkpt lat="45.96521" lon="4.84651">
        <ele>252</ele>
        <time>2016-11-05T10:45:41Z</time>
      </trkpt>
      <trkpt lat="45.9652" lon="4.8464">
        <ele>252</ele>
        <time>2016-11-05T10:45:42Z</time>
      </trkpt>
      <trkpt lat="45.9652" lon="4.84629">
        <ele>252</ele>
        <time>2016-11-05T10:45:43Z</time>
      </trkpt>
      <trkpt lat="45.96521" lon="4.84618">
        <ele>252</ele>
        <time>2016-11-05T10:45:44Z</time>
      </trkpt>
      <trkpt lat="45.96521" lon="4.84608">
        <ele>252</ele>
        <time>2016-11-05T10:45:45Z</time>
      </trkpt>
      <trkpt lat="45.96521" lon="4.84597">
        <ele>252</ele>
        <time>2016-11-05T10:45:46Z</time>
      </trkpt>
      <trkpt lat="45.96521" lon="4.84587">
        <ele>252</ele>
        <time>2016-11-05T10:45:47Z</time>
      </trkpt>
      <trkpt lat="45.96521" lon="4.84578">
        <ele>253</ele>
        <time>2016-11-05T10:45:48Z</time>
      </trkpt>
      <trkpt lat="45.96522" lon="4.84569">
        <ele>253</ele>
        <time>2016-11-05T10:45:49Z</time>
      </trkpt>
      <trkpt lat="45.96523" lon="4.8456">
        <ele>253</ele>
        <time>2016-11-05T10:45:50Z</time>
      </trkpt>
      <trkpt lat="45.96524" lon="4.84552">
        <ele>253</ele>
        <time>2016-11-05T10:45:51Z</time>
      </trkpt>
      <trkpt lat="45.96525" lon="4.84543">
        <ele>253</ele>
        <time>2016-11-05T10:45:52Z</time>
      </trkpt>
      <trkpt lat="45.96526" lon="4.84534">
        <ele>253</ele>
        <time>2016-11-05T10:45:53Z</time>
      </trkpt>
      <trkpt lat="45.96526" lon="4.84526">
        <ele>253</ele>
        <time>2016-11-05T10:45:54Z</time>
      </trkpt>
      <trkpt lat="45.96527" lon="4.84517">
        <ele>253</ele>
        <time>2016-11-05T10:45:55Z</time>
      </trkpt>
      <trkpt lat="45.96527" lon="4.84508">
        <ele>253</ele>
        <time>2016-11-05T10:45:56Z</time>
      </trkpt>
      <trkpt lat="45.96527" lon="4.845">
        <ele>253</ele>
        <time>2016-11-05T10:45:57Z</time>
      </trkpt>
      <trkpt lat="45.96527" lon="4.84491">
        <ele>253</ele>
        <time>2016-11-05T10:45:58Z</time>
      </trkpt>
      <trkpt lat="45.96527" lon="4.84482">
        <ele>253</ele>
        <time>2016-11-05T10:45:59Z</time>
      </trkpt>
      <trkpt lat="45.96527" lon="4.84473">
        <ele>253</ele>
        <time>2016-11-05T10:46:00Z</time>
      </trkpt>
      <trkpt lat="45.96528" lon="4.84464">
        <ele>253</ele>
        <time>2016-11-05T10:46:01Z</time>
      </trkpt>
      <trkpt lat="45.96528" lon="4.84455">
        <ele>253</ele>
        <time>2016-11-05T10:46:02Z</time>
      </trkpt>
      <trkpt lat="45.96528" lon="4.84445">
        <ele>253</ele>
        <time>2016-11-05T10:46:03Z</time>
      </trkpt>
      <trkpt lat="45.96529" lon="4.84436">
        <ele>253</ele>
        <time>2016-11-05T10:46:04Z</time>
      </trkpt>
      <trkpt lat="45.9653" lon="4.84426">
        <ele>253</ele>
        <time>2016-11-05T10:46:05Z</time>
      </trkpt>
      <trkpt lat="45.9653" lon="4.84417">
        <ele>253</ele>
        <time>2016-11-05T10:46:06Z</time>
      </trkpt>
      <trkpt lat="45.9653" lon="4.84409">
        <ele>252</ele>
        <time>2016-11-05T10:46:07Z</time>
      </trkpt>
      <trkpt lat="45.9653" lon="4.844">
        <ele>252</ele>
        <time>2016-11-05T10:46:08Z</time>
      </trkpt>
      <trkpt lat="45.9653" lon="4.84391">
        <ele>252</ele>
        <time>2016-11-05T10:46:09Z</time>
      </trkpt>
      <trkpt lat="45.9653" lon="4.84382">
        <ele>251</ele>
        <time>2016-11-05T10:46:10Z</time>
      </trkpt>
      <trkpt lat="45.9653" lon="4.84374">
        <ele>251</ele>
        <time>2016-11-05T10:46:11Z</time>
      </trkpt>
      <trkpt lat="45.96529" lon="4.84365">
        <ele>251</ele>
        <time>2016-11-05T10:46:12Z</time>
      </trkpt>
      <trkpt lat="45.96526" lon="4.84356">
        <ele>251</ele>
        <time>2016-11-05T10:46:13Z</time>
      </trkpt>
      <trkpt lat="45.96524" lon="4.84348">
        <ele>251</ele>
        <time>2016-11-05T10:46:14Z</time>
      </trkpt>
      <trkpt lat="45.96522" lon="4.8434">
        <ele>251</ele>
        <time>2016-11-05T10:46:15Z</time>
      </trkpt>
      <trkpt lat="45.96521" lon="4.84332">
        <ele>250</ele>
        <time>2016-11-05T10:46:16Z</time>
      </trkpt>
      <trkpt lat="45.96519" lon="4.84324">
        <ele>250</ele>
        <time>2016-11-05T10:46:17Z</time>
      </trkpt>
      <trkpt lat="45.96518" lon="4.84317">
        <ele>250</ele>
        <time>2016-11-05T10:46:18Z</time>
      </trkpt>
      <trkpt lat="45.96516" lon="4.84309">
        <ele>250</ele>
        <time>2016-11-05T10:46:19Z</time>
      </trkpt>
      <trkpt lat="45.96514" lon="4.84301">
        <ele>250</ele>
        <time>2016-11-05T10:46:20Z</time>
      </trkpt>
      <trkpt lat="45.96513" lon="4.84294">
        <ele>250</ele>
        <time>2016-11-05T10:46:21Z</time>
      </trkpt>
      <trkpt lat="45.96511" lon="4.84286">
        <ele>250</ele>
        <time>2016-11-05T10:46:22Z</time>
      </trkpt>
      <trkpt lat="45.9651" lon="4.84278">
        <ele>250</ele>
        <time>2016-11-05T10:46:23Z</time>
      </trkpt>
      <trkpt lat="45.96508" lon="4.8427">
        <ele>250</ele>
        <time>2016-11-05T10:46:24Z</time>
      </trkpt>
      <trkpt lat="45.96507" lon="4.84262">
        <ele>251</ele>
        <time>2016-11-05T10:46:25Z</time>
      </trkpt>
      <trkpt lat="45.96505" lon="4.84255">
        <ele>251</ele>
        <time>2016-11-05T10:46:26Z</time>
      </trkpt>
      <trkpt lat="45.96503" lon="4.84248">
        <ele>251</ele>
        <time>2016-11-05T10:46:27Z</time>
      </trkpt>
      <trkpt lat="45.96501" lon="4.8424">
        <ele>250</ele>
        <time>2016-11-05T10:46:28Z</time>
      </trkpt>
      <trkpt lat="45.965" lon="4.84232">
        <ele>250</ele>
        <time>2016-11-05T10:46:29Z</time>
      </trkpt>
      <trkpt lat="45.96499" lon="4.84224">
        <ele>252</ele>
        <time>2016-11-05T10:46:30Z</time>
      </trkpt>
      <trkpt lat="45.96497" lon="4.84217">
        <ele>252</ele>
        <time>2016-11-05T10:46:31Z</time>
      </trkpt>
      <trkpt lat="45.96495" lon="4.8421">
        <ele>251</ele>
        <time>2016-11-05T10:46:32Z</time>
      </trkpt>
      <trkpt lat="45.96494" lon="4.84202">
        <ele>251</ele>
        <time>2016-11-05T10:46:33Z</time>
      </trkpt>
      <trkpt lat="45.96492" lon="4.84195">
        <ele>251</ele>
        <time>2016-11-05T10:46:34Z</time>
      </trkpt>
      <trkpt lat="45.96491" lon="4.84188">
        <ele>251</ele>
        <time>2016-11-05T10:46:35Z</time>
      </trkpt>
      <trkpt lat="45.96489" lon="4.84181">
        <ele>251</ele>
        <time>2016-11-05T10:46:36Z</time>
      </trkpt>
      <trkpt lat="45.96488" lon="4.84174">
        <ele>250</ele>
        <time>2016-11-05T10:46:37Z</time>
      </trkpt>
      <trkpt lat="45.96486" lon="4.84166">
        <ele>250</ele>
        <time>2016-11-05T10:46:38Z</time>
      </trkpt>
      <trkpt lat="45.96485" lon="4.84159">
        <ele>250</ele>
        <time>2016-11-05T10:46:39Z</time>
      </trkpt>
      <trkpt lat="45.96483" lon="4.84151">
        <ele>251</ele>
        <time>2016-11-05T10:46:40Z</time>
      </trkpt>
      <trkpt lat="45.96481" lon="4.84143">
        <ele>251</ele>
        <time>2016-11-05T10:46:41Z</time>
      </trkpt>
      <trkpt lat="45.96479" lon="4.84136">
        <ele>251</ele>
        <time>2016-11-05T10:46:42Z</time>
      </trkpt>
      <trkpt lat="45.96476" lon="4.84128">
        <ele>251</ele>
        <time>2016-11-05T10:46:43Z</time>
      </trkpt>
      <trkpt lat="45.96473" lon="4.8412">
        <ele>251</ele>
        <time>2016-11-05T10:46:44Z</time>
      </trkpt>
      <trkpt lat="45.96471" lon="4.84112">
        <ele>251</ele>
        <time>2016-11-05T10:46:45Z</time>
      </trkpt>
      <trkpt lat="45.96468" lon="4.84104">
        <ele>251</ele>
        <time>2016-11-05T10:46:46Z</time>
      </trkpt>
      <trkpt lat="45.96465" lon="4.84096">
        <ele>251</ele>
        <time>2016-11-05T10:46:47Z</time>
      </trkpt>
      <trkpt lat="45.96462" lon="4.84088">
        <ele>251</ele>
        <time>2016-11-05T10:46:48Z</time>
      </trkpt>
      <trkpt lat="45.96459" lon="4.8408">
        <ele>251</ele>
        <time>2016-11-05T10:46:49Z</time>
      </trkpt>
      <trkpt lat="45.96456" lon="4.84072">
        <ele>251</ele>
        <time>2016-11-05T10:46:50Z</time>
      </trkpt>
      <trkpt lat="45.96454" lon="4.84064">
        <ele>251</ele>
        <time>2016-11-05T10:46:51Z</time>
      </trkpt>
      <trkpt lat="45.96451" lon="4.84056">
        <ele>251</ele>
        <time>2016-11-05T10:46:52Z</time>
      </trkpt>
      <trkpt lat="45.96449" lon="4.84047">
        <ele>251</ele>
        <time>2016-11-05T10:46:53Z</time>
      </trkpt>
      <trkpt lat="45.96446" lon="4.84039">
        <ele>251</ele>
        <time>2016-11-05T10:46:54Z</time>
      </trkpt>
      <trkpt lat="45.96443" lon="4.84031">
        <ele>251</ele>
        <time>2016-11-05T10:46:55Z</time>
      </trkpt>
      <trkpt lat="45.9644" lon="4.84023">
        <ele>251</ele>
        <time>2016-11-05T10:46:56Z</time>
      </trkpt>
      <trkpt lat="45.96437" lon="4.84015">
        <ele>251</ele>
        <time>2016-11-05T10:46:57Z</time>
      </trkpt>
      <trkpt lat="45.96434" lon="4.84007">
        <ele>252</ele>
        <time>2016-11-05T10:46:58Z</time>
      </trkpt>
      <trkpt lat="45.9643" lon="4.83999">
        <ele>251</ele>
        <time>2016-11-05T10:46:59Z</time>
      </trkpt>
      <trkpt lat="45.96427" lon="4.83991">
        <ele>251</ele>
        <time>2016-11-05T10:47:00Z</time>
      </trkpt>
      <trkpt lat="45.96423" lon="4.83983">
        <ele>251</ele>
        <time>2016-11-05T10:47:01Z</time>
      </trkpt>
      <trkpt lat="45.96419" lon="4.83975">
        <ele>250</ele>
        <time>2016-11-05T10:47:02Z</time>
      </trkpt>
      <trkpt lat="45.96415" lon="4.83967">
        <ele>252</ele>
        <time>2016-11-05T10:47:03Z</time>
      </trkpt>
      <trkpt lat="45.96411" lon="4.83958">
        <ele>252</ele>
        <time>2016-11-05T10:47:04Z</time>
      </trkpt>
      <trkpt lat="45.96407" lon="4.8395">
        <ele>252</ele>
        <time>2016-11-05T10:47:05Z</time>
      </trkpt>
      <trkpt lat="45.96404" lon="4.83941">
        <ele>251</ele>
        <time>2016-11-05T10:47:06Z</time>
      </trkpt>
      <trkpt lat="45.964" lon="4.83933">
        <ele>251</ele>
        <time>2016-11-05T10:47:07Z</time>
      </trkpt>
      <trkpt lat="45.96396" lon="4.83924">
        <ele>251</ele>
        <time>2016-11-05T10:47:08Z</time>
      </trkpt>
      <trkpt lat="45.96392" lon="4.83916">
        <ele>248</ele>
        <time>2016-11-05T10:47:09Z</time>
      </trkpt>
      <trkpt lat="45.96388" lon="4.83908">
        <ele>248</ele>
        <time>2016-11-05T10:47:10Z</time>
      </trkpt>
      <trkpt lat="45.96384" lon="4.83899">
        <ele>248</ele>
        <time>2016-11-05T10:47:11Z</time>
      </trkpt>
      <trkpt lat="45.96381" lon="4.83891">
        <ele>248</ele>
        <time>2016-11-05T10:47:12Z</time>
      </trkpt>
      <trkpt lat="45.96377" lon="4.83882">
        <ele>247</ele>
        <time>2016-11-05T10:47:13Z</time>
      </trkpt>
      <trkpt lat="45.96374" lon="4.83874">
        <ele>247</ele>
        <time>2016-11-05T10:47:14Z</time>
      </trkpt>
      <trkpt lat="45.9637" lon="4.83866">
        <ele>247</ele>
        <time>2016-11-05T10:47:15Z</time>
      </trkpt>
      <trkpt lat="45.96366" lon="4.83858">
        <ele>247</ele>
        <time>2016-11-05T10:47:16Z</time>
      </trkpt>
      <trkpt lat="45.96361" lon="4.8385">
        <ele>246</ele>
        <time>2016-11-05T10:47:17Z</time>
      </trkpt>
      <trkpt lat="45.96357" lon="4.83843">
        <ele>246</ele>
        <time>2016-11-05T10:47:18Z</time>
      </trkpt>
      <trkpt lat="45.96352" lon="4.83836">
        <ele>245</ele>
        <time>2016-11-05T10:47:19Z</time>
      </trkpt>
      <trkpt lat="45.96347" lon="4.83829">
        <ele>245</ele>
        <time>2016-11-05T10:47:20Z</time>
      </trkpt>
      <trkpt lat="45.96342" lon="4.83823">
        <ele>245</ele>
        <time>2016-11-05T10:47:21Z</time>
      </trkpt>
      <trkpt lat="45.96336" lon="4.83817">
        <ele>245</ele>
        <time>2016-11-05T10:47:22Z</time>
      </trkpt>
      <trkpt lat="45.96331" lon="4.83811">
        <ele>244</ele>
        <time>2016-11-05T10:47:23Z</time>
      </trkpt>
      <trkpt lat="45.96325" lon="4.83807">
        <ele>245</ele>
        <time>2016-11-05T10:47:24Z</time>
      </trkpt>
      <trkpt lat="45.9632" lon="4.83803">
        <ele>245</ele>
        <time>2016-11-05T10:47:25Z</time>
      </trkpt>
      <trkpt lat="45.96314" lon="4.83799">
        <ele>245</ele>
        <time>2016-11-05T10:47:26Z</time>
      </trkpt>
      <trkpt lat="45.96309" lon="4.83794">
        <ele>245</ele>
        <time>2016-11-05T10:47:27Z</time>
      </trkpt>
      <trkpt lat="45.96304" lon="4.8379">
        <ele>245</ele>
        <time>2016-11-05T10:47:28Z</time>
      </trkpt>
      <trkpt lat="45.963" lon="4.83786">
        <ele>245</ele>
        <time>2016-11-05T10:47:29Z</time>
      </trkpt>
      <trkpt lat="45.96296" lon="4.83782">
        <ele>245</ele>
        <time>2016-11-05T10:47:30Z</time>
      </trkpt>
      <trkpt lat="45.96292" lon="4.83777">
        <ele>245</ele>
        <time>2016-11-05T10:47:31Z</time>
      </trkpt>
      <trkpt lat="45.96287" lon="4.83772">
        <ele>245</ele>
        <time>2016-11-05T10:47:32Z</time>
      </trkpt>
      <trkpt lat="45.96282" lon="4.83767">
        <ele>245</ele>
        <time>2016-11-05T10:47:33Z</time>
      </trkpt>
      <trkpt lat="45.96277" lon="4.83762">
        <ele>245</ele>
        <time>2016-11-05T10:47:34Z</time>
      </trkpt>
      <trkpt lat="45.96272" lon="4.83757">
        <ele>245</ele>
        <time>2016-11-05T10:47:35Z</time>
      </trkpt>
      <trkpt lat="45.96267" lon="4.83752">
        <ele>245</ele>
        <time>2016-11-05T10:47:36Z</time>
      </trkpt>
      <trkpt lat="45.96261" lon="4.83747">
        <ele>245</ele>
        <time>2016-11-05T10:47:37Z</time>
      </trkpt>
      <trkpt lat="45.96256" lon="4.83741">
        <ele>245</ele>
        <time>2016-11-05T10:47:38Z</time>
      </trkpt>
      <trkpt lat="45.96251" lon="4.83736">
        <ele>245</ele>
        <time>2016-11-05T10:47:39Z</time>
      </trkpt>
      <trkpt lat="45.96246" lon="4.83731">
        <ele>244</ele>
        <time>2016-11-05T10:47:40Z</time>
      </trkpt>
      <trkpt lat="45.96241" lon="4.83725">
        <ele>244</ele>
        <time>2016-11-05T10:47:41Z</time>
      </trkpt>
      <trkpt lat="45.96236" lon="4.8372">
        <ele>244</ele>
        <time>2016-11-05T10:47:42Z</time>
      </trkpt>
      <trkpt lat="45.96231" lon="4.83715">
        <ele>244</ele>
        <time>2016-11-05T10:47:43Z</time>
      </trkpt>
      <trkpt lat="45.96226" lon="4.8371">
        <ele>244</ele>
        <time>2016-11-05T10:47:44Z</time>
      </trkpt>
      <trkpt lat="45.96221" lon="4.83704">
        <ele>244</ele>
        <time>2016-11-05T10:47:45Z</time>
      </trkpt>
      <trkpt lat="45.96216" lon="4.83699">
        <ele>244</ele>
        <time>2016-11-05T10:47:46Z</time>
      </trkpt>
      <trkpt lat="45.96211" lon="4.83696">
        <ele>243</ele>
        <time>2016-11-05T10:47:47Z</time>
      </trkpt>
      <trkpt lat="45.96207" lon="4.83692">
        <ele>243</ele>
        <time>2016-11-05T10:47:48Z</time>
      </trkpt>
      <trkpt lat="45.96203" lon="4.83688">
        <ele>243</ele>
        <time>2016-11-05T10:47:49Z</time>
      </trkpt>
      <trkpt lat="45.96199" lon="4.83683">
        <ele>243</ele>
        <time>2016-11-05T10:47:50Z</time>
      </trkpt>
      <trkpt lat="45.96194" lon="4.83678">
        <ele>243</ele>
        <time>2016-11-05T10:47:51Z</time>
      </trkpt>
      <trkpt lat="45.9619" lon="4.83673">
        <ele>243</ele>
        <time>2016-11-05T10:47:52Z</time>
      </trkpt>
      <trkpt lat="45.96185" lon="4.83667">
        <ele>242</ele>
        <time>2016-11-05T10:47:53Z</time>
      </trkpt>
      <trkpt lat="45.96181" lon="4.83661">
        <ele>242</ele>
        <time>2016-11-05T10:47:54Z</time>
      </trkpt>
      <trkpt lat="45.96177" lon="4.83655">
        <ele>242</ele>
        <time>2016-11-05T10:47:55Z</time>
      </trkpt>
      <trkpt lat="45.96173" lon="4.83648">
        <ele>242</ele>
        <time>2016-11-05T10:47:56Z</time>
      </trkpt>
      <trkpt lat="45.96169" lon="4.83642">
        <ele>242</ele>
        <time>2016-11-05T10:47:57Z</time>
      </trkpt>
      <trkpt lat="45.96166" lon="4.83635">
        <ele>243</ele>
        <time>2016-11-05T10:47:58Z</time>
      </trkpt>
      <trkpt lat="45.96163" lon="4.83628">
        <ele>242</ele>
        <time>2016-11-05T10:47:59Z</time>
      </trkpt>
      <trkpt lat="45.96161" lon="4.83621">
        <ele>242</ele>
        <time>2016-11-05T10:48:00Z</time>
      </trkpt>
      <trkpt lat="45.96159" lon="4.83613">
        <ele>242</ele>
        <time>2016-11-05T10:48:01Z</time>
      </trkpt>
      <trkpt lat="45.96158" lon="4.83605">
        <ele>242</ele>
        <time>2016-11-05T10:48:02Z</time>
      </trkpt>
      <trkpt lat="45.96156" lon="4.83597">
        <ele>242</ele>
        <time>2016-11-05T10:48:03Z</time>
      </trkpt>
      <trkpt lat="45.96154" lon="4.83589">
        <ele>241</ele>
        <time>2016-11-05T10:48:04Z</time>
      </trkpt>
      <trkpt lat="45.96152" lon="4.83581">
        <ele>241</ele>
        <time>2016-11-05T10:48:05Z</time>
      </trkpt>
      <trkpt lat="45.9615" lon="4.83573">
        <ele>241</ele>
        <time>2016-11-05T10:48:06Z</time>
      </trkpt>
      <trkpt lat="45.96148" lon="4.83565">
        <ele>241</ele>
        <time>2016-11-05T10:48:07Z</time>
      </trkpt>
      <trkpt lat="45.96146" lon="4.83557">
        <ele>241</ele>
        <time>2016-11-05T10:48:08Z</time>
      </trkpt>
      <trkpt lat="45.96145" lon="4.83549">
        <ele>242</ele>
        <time>2016-11-05T10:48:09Z</time>
      </trkpt>
      <trkpt lat="45.96144" lon="4.83542">
        <ele>242</ele>
        <time>2016-11-05T10:48:10Z</time>
      </trkpt>
      <trkpt lat="45.96142" lon="4.83535">
        <ele>242</ele>
        <time>2016-11-05T10:48:11Z</time>
      </trkpt>
      <trkpt lat="45.96141" lon="4.83528">
        <ele>242</ele>
        <time>2016-11-05T10:48:12Z</time>
      </trkpt>
      <trkpt lat="45.96139" lon="4.8352">
        <ele>242</ele>
        <time>2016-11-05T10:48:13Z</time>
      </trkpt>
      <trkpt lat="45.96138" lon="4.83513">
        <ele>241</ele>
        <time>2016-11-05T10:48:14Z</time>
      </trkpt>
      <trkpt lat="45.96136" lon="4.83505">
        <ele>241</ele>
        <time>2016-11-05T10:48:15Z</time>
      </trkpt>
      <trkpt lat="45.96135" lon="4.83497">
        <ele>242</ele>
        <time>2016-11-05T10:48:16Z</time>
      </trkpt>
      <trkpt lat="45.96133" lon="4.83489">
        <ele>242</ele>
        <time>2016-11-05T10:48:17Z</time>
      </trkpt>
      <trkpt lat="45.96131" lon="4.83481">
        <ele>242</ele>
        <time>2016-11-05T10:48:18Z</time>
      </trkpt>
      <trkpt lat="45.96129" lon="4.83473">
        <ele>242</ele>
        <time>2016-11-05T10:48:19Z</time>
      </trkpt>
      <trkpt lat="45.96128" lon="4.83464">
        <ele>242</ele>
        <time>2016-11-05T10:48:20Z</time>
      </trkpt>
      <trkpt lat="45.96126" lon="4.83456">
        <ele>242</ele>
        <time>2016-11-05T10:48:21Z</time>
      </trkpt>
      <trkpt lat="45.96124" lon="4.83447">
        <ele>242</ele>
        <time>2016-11-05T10:48:22Z</time>
      </trkpt>
      <trkpt lat="45.96122" lon="4.83439">
        <ele>242</ele>
        <time>2016-11-05T10:48:23Z</time>
      </trkpt>
      <trkpt lat="45.9612" lon="4.8343">
        <ele>242</ele>
        <time>2016-11-05T10:48:24Z</time>
      </trkpt>
      <trkpt lat="45.96119" lon="4.83422">
        <ele>243</ele>
        <time>2016-11-05T10:48:25Z</time>
      </trkpt>
      <trkpt lat="45.96117" lon="4.83413">
        <ele>243</ele>
        <time>2016-11-05T10:48:26Z</time>
      </trkpt>
      <trkpt lat="45.96116" lon="4.83405">
        <ele>243</ele>
        <time>2016-11-05T10:48:27Z</time>
      </trkpt>
      <trkpt lat="45.96114" lon="4.83397">
        <ele>243</ele>
        <time>2016-11-05T10:48:28Z</time>
      </trkpt>
      <trkpt lat="45.96113" lon="4.83388">
        <ele>243</ele>
        <time>2016-11-05T10:48:29Z</time>
      </trkpt>
      <trkpt lat="45.96111" lon="4.83379">
        <ele>242</ele>
        <time>2016-11-05T10:48:30Z</time>
      </trkpt>
      <trkpt lat="45.96109" lon="4.8337">
        <ele>242</ele>
        <time>2016-11-05T10:48:31Z</time>
      </trkpt>
      <trkpt lat="45.96108" lon="4.83362">
        <ele>242</ele>
        <time>2016-11-05T10:48:32Z</time>
      </trkpt>
      <trkpt lat="45.96106" lon="4.83354">
        <ele>242</ele>
        <time>2016-11-05T10:48:33Z</time>
      </trkpt>
      <trkpt lat="45.96105" lon="4.83346">
        <ele>242</ele>
        <time>2016-11-05T10:48:34Z</time>
      </trkpt>
      <trkpt lat="45.96103" lon="4.83338">
        <ele>242</ele>
        <time>2016-11-05T10:48:35Z</time>
      </trkpt>
      <trkpt lat="45.96101" lon="4.8333">
        <ele>241</ele>
        <time>2016-11-05T10:48:36Z</time>
      </trkpt>
      <trkpt lat="45.961" lon="4.83321">
        <ele>241</ele>
        <time>2016-11-05T10:48:37Z</time>
      </trkpt>
      <trkpt lat="45.96098" lon="4.83313">
        <ele>241</ele>
        <time>2016-11-05T10:48:38Z</time>
      </trkpt>
      <trkpt lat="45.96097" lon="4.83305">
        <ele>241</ele>
        <time>2016-11-05T10:48:39Z</time>
      </trkpt>
      <trkpt lat="45.96096" lon="4.83296">
        <ele>241</ele>
        <time>2016-11-05T10:48:40Z</time>
      </trkpt>
      <trkpt lat="45.96095" lon="4.83288">
        <ele>241</ele>
        <time>2016-11-05T10:48:41Z</time>
      </trkpt>
      <trkpt lat="45.96094" lon="4.83279">
        <ele>241</ele>
        <time>2016-11-05T10:48:42Z</time>
      </trkpt>
      <trkpt lat="45.96094" lon="4.83271">
        <ele>241</ele>
        <time>2016-11-05T10:48:43Z</time>
      </trkpt>
      <trkpt lat="45.96093" lon="4.83263">
        <ele>241</ele>
        <time>2016-11-05T10:48:44Z</time>
      </trkpt>
      <trkpt lat="45.96092" lon="4.83258">
        <ele>241</ele>
        <time>2016-11-05T10:48:45Z</time>
      </trkpt>
      <trkpt lat="45.9609" lon="4.83249">
        <ele>240</ele>
        <time>2016-11-05T10:48:46Z</time>
      </trkpt>
      <trkpt lat="45.96089" lon="4.83241">
        <ele>240</ele>
        <time>2016-11-05T10:48:47Z</time>
      </trkpt>
      <trkpt lat="45.96088" lon="4.83232">
        <ele>240</ele>
        <time>2016-11-05T10:48:48Z</time>
      </trkpt>
      <trkpt lat="45.96088" lon="4.83224">
        <ele>240</ele>
        <time>2016-11-05T10:48:49Z</time>
      </trkpt>
      <trkpt lat="45.96088" lon="4.83216">
        <ele>240</ele>
        <time>2016-11-05T10:48:50Z</time>
      </trkpt>
      <trkpt lat="45.96087" lon="4.83207">
        <ele>240</ele>
        <time>2016-11-05T10:48:51Z</time>
      </trkpt>
      <trkpt lat="45.96086" lon="4.83199">
        <ele>240</ele>
        <time>2016-11-05T10:48:52Z</time>
      </trkpt>
      <trkpt lat="45.96086" lon="4.8319">
        <ele>240</ele>
        <time>2016-11-05T10:48:53Z</time>
      </trkpt>
      <trkpt lat="45.96085" lon="4.83175">
        <ele>240</ele>
        <time>2016-11-05T10:48:55Z</time>
      </trkpt>
      <trkpt lat="45.96083" lon="4.83167">
        <ele>240</ele>
        <time>2016-11-05T10:48:56Z</time>
      </trkpt>
      <trkpt lat="45.96082" lon="4.83157">
        <ele>241</ele>
        <time>2016-11-05T10:48:57Z</time>
      </trkpt>
      <trkpt lat="45.96082" lon="4.83147">
        <ele>242</ele>
        <time>2016-11-05T10:48:58Z</time>
      </trkpt>
      <trkpt lat="45.96082" lon="4.83137">
        <ele>242</ele>
        <time>2016-11-05T10:48:59Z</time>
      </trkpt>
      <trkpt lat="45.96082" lon="4.83127">
        <ele>242</ele>
        <time>2016-11-05T10:49:00Z</time>
      </trkpt>
      <trkpt lat="45.96083" lon="4.83117">
        <ele>242</ele>
        <time>2016-11-05T10:49:01Z</time>
      </trkpt>
      <trkpt lat="45.96083" lon="4.83107">
        <ele>242</ele>
        <time>2016-11-05T10:49:02Z</time>
      </trkpt>
      <trkpt lat="45.96082" lon="4.83098">
        <ele>242</ele>
        <time>2016-11-05T10:49:03Z</time>
      </trkpt>
      <trkpt lat="45.96081" lon="4.83089">
        <ele>241</ele>
        <time>2016-11-05T10:49:04Z</time>
      </trkpt>
      <trkpt lat="45.9608" lon="4.8308">
        <ele>241</ele>
        <time>2016-11-05T10:49:05Z</time>
      </trkpt>
      <trkpt lat="45.96079" lon="4.83073">
        <ele>241</ele>
        <time>2016-11-05T10:49:06Z</time>
      </trkpt>
      <trkpt lat="45.96077" lon="4.83065">
        <ele>242</ele>
        <time>2016-11-05T10:49:07Z</time>
      </trkpt>
      <trkpt lat="45.96074" lon="4.83057">
        <ele>242</ele>
        <time>2016-11-05T10:49:08Z</time>
      </trkpt>
      <trkpt lat="45.96072" lon="4.83049">
        <ele>243</ele>
        <time>2016-11-05T10:49:09Z</time>
      </trkpt>
      <trkpt lat="45.96069" lon="4.83041">
        <ele>243</ele>
        <time>2016-11-05T10:49:10Z</time>
      </trkpt>
      <trkpt lat="45.96067" lon="4.83032">
        <ele>243</ele>
        <time>2016-11-05T10:49:11Z</time>
      </trkpt>
      <trkpt lat="45.96066" lon="4.83023">
        <ele>242</ele>
        <time>2016-11-05T10:49:12Z</time>
      </trkpt>
      <trkpt lat="45.96065" lon="4.83015">
        <ele>242</ele>
        <time>2016-11-05T10:49:13Z</time>
      </trkpt>
      <trkpt lat="45.96064" lon="4.83006">
        <ele>242</ele>
        <time>2016-11-05T10:49:14Z</time>
      </trkpt>
      <trkpt lat="45.96065" lon="4.82997">
        <ele>241</ele>
        <time>2016-11-05T10:49:15Z</time>
      </trkpt>
      <trkpt lat="45.96066" lon="4.82988">
        <ele>241</ele>
        <time>2016-11-05T10:49:16Z</time>
      </trkpt>
      <trkpt lat="45.96067" lon="4.8298">
        <ele>241</ele>
        <time>2016-11-05T10:49:17Z</time>
      </trkpt>
      <trkpt lat="45.96069" lon="4.82971">
        <ele>241</ele>
        <time>2016-11-05T10:49:18Z</time>
      </trkpt>
      <trkpt lat="45.96071" lon="4.82963">
        <ele>241</ele>
        <time>2016-11-05T10:49:19Z</time>
      </trkpt>
      <trkpt lat="45.96074" lon="4.82955">
        <ele>241</ele>
        <time>2016-11-05T10:49:20Z</time>
      </trkpt>
      <trkpt lat="45.96076" lon="4.82946">
        <ele>241</ele>
        <time>2016-11-05T10:49:21Z</time>
      </trkpt>
      <trkpt lat="45.96078" lon="4.82937">
        <ele>240</ele>
        <time>2016-11-05T10:49:22Z</time>
      </trkpt>
      <trkpt lat="45.9608" lon="4.82928">
        <ele>240</ele>
        <time>2016-11-05T10:49:23Z</time>
      </trkpt>
      <trkpt lat="45.96083" lon="4.8292">
        <ele>238</ele>
        <time>2016-11-05T10:49:24Z</time>
      </trkpt>
      <trkpt lat="45.96085" lon="4.82911">
        <ele>238</ele>
        <time>2016-11-05T10:49:25Z</time>
      </trkpt>
      <trkpt lat="45.96088" lon="4.82903">
        <ele>238</ele>
        <time>2016-11-05T10:49:26Z</time>
      </trkpt>
      <trkpt lat="45.96089" lon="4.82895">
        <ele>238</ele>
        <time>2016-11-05T10:49:27Z</time>
      </trkpt>
      <trkpt lat="45.9609" lon="4.82887">
        <ele>237</ele>
        <time>2016-11-05T10:49:28Z</time>
      </trkpt>
      <trkpt lat="45.96092" lon="4.8288">
        <ele>237</ele>
        <time>2016-11-05T10:49:29Z</time>
      </trkpt>
      <trkpt lat="45.96094" lon="4.82872">
        <ele>237</ele>
        <time>2016-11-05T10:49:30Z</time>
      </trkpt>
      <trkpt lat="45.96095" lon="4.82864">
        <ele>237</ele>
        <time>2016-11-05T10:49:31Z</time>
      </trkpt>
      <trkpt lat="45.96095" lon="4.82856">
        <ele>237</ele>
        <time>2016-11-05T10:49:32Z</time>
      </trkpt>
      <trkpt lat="45.96095" lon="4.82848">
        <ele>237</ele>
        <time>2016-11-05T10:49:33Z</time>
      </trkpt>
      <trkpt lat="45.96095" lon="4.82841">
        <ele>237</ele>
        <time>2016-11-05T10:49:34Z</time>
      </trkpt>
      <trkpt lat="45.96095" lon="4.82833">
        <ele>237</ele>
        <time>2016-11-05T10:49:35Z</time>
      </trkpt>
      <trkpt lat="45.96094" lon="4.82825">
        <ele>237</ele>
        <time>2016-11-05T10:49:36Z</time>
      </trkpt>
      <trkpt lat="45.96093" lon="4.82817">
        <ele>237</ele>
        <time>2016-11-05T10:49:37Z</time>
      </trkpt>
      <trkpt lat="45.96092" lon="4.8281">
        <ele>237</ele>
        <time>2016-11-05T10:49:38Z</time>
      </trkpt>
      <trkpt lat="45.96091" lon="4.82803">
        <ele>237</ele>
        <time>2016-11-05T10:49:39Z</time>
      </trkpt>
      <trkpt lat="45.96089" lon="4.82796">
        <ele>237</ele>
        <time>2016-11-05T10:49:40Z</time>
      </trkpt>
      <trkpt lat="45.96087" lon="4.82788">
        <ele>237</ele>
        <time>2016-11-05T10:49:41Z</time>
      </trkpt>
      <trkpt lat="45.96084" lon="4.82774">
        <ele>237</ele>
        <time>2016-11-05T10:49:43Z</time>
      </trkpt>
      <trkpt lat="45.96083" lon="4.82766">
        <ele>238</ele>
        <time>2016-11-05T10:49:44Z</time>
      </trkpt>
      <trkpt lat="45.96081" lon="4.82758">
        <ele>237</ele>
        <time>2016-11-05T10:49:45Z</time>
      </trkpt>
      <trkpt lat="45.96078" lon="4.82749">
        <ele>237</ele>
        <time>2016-11-05T10:49:46Z</time>
      </trkpt>
      <trkpt lat="45.96075" lon="4.82741">
        <ele>237</ele>
        <time>2016-11-05T10:49:47Z</time>
      </trkpt>
      <trkpt lat="45.96073" lon="4.82732">
        <ele>237</ele>
        <time>2016-11-05T10:49:48Z</time>
      </trkpt>
      <trkpt lat="45.96072" lon="4.82725">
        <ele>237</ele>
        <time>2016-11-05T10:49:49Z</time>
      </trkpt>
      <trkpt lat="45.96069" lon="4.82718">
        <ele>237</ele>
        <time>2016-11-05T10:49:50Z</time>
      </trkpt>
      <trkpt lat="45.96066" lon="4.8271">
        <ele>237</ele>
        <time>2016-11-05T10:49:51Z</time>
      </trkpt>
      <trkpt lat="45.96063" lon="4.82703">
        <ele>237</ele>
        <time>2016-11-05T10:49:52Z</time>
      </trkpt>
      <trkpt lat="45.9606" lon="4.82695">
        <ele>237</ele>
        <time>2016-11-05T10:49:53Z</time>
      </trkpt>
      <trkpt lat="45.96057" lon="4.82688">
        <ele>236</ele>
        <time>2016-11-05T10:49:54Z</time>
      </trkpt>
      <trkpt lat="45.96054" lon="4.82682">
        <ele>236</ele>
        <time>2016-11-05T10:49:55Z</time>
      </trkpt>
      <trkpt lat="45.96051" lon="4.82676">
        <ele>236</ele>
        <time>2016-11-05T10:49:56Z</time>
      </trkpt>
      <trkpt lat="45.96048" lon="4.8267">
        <ele>236</ele>
        <time>2016-11-05T10:49:57Z</time>
      </trkpt>
      <trkpt lat="45.96042" lon="4.82654">
        <ele>235</ele>
        <time>2016-11-05T10:49:59Z</time>
      </trkpt>
      <trkpt lat="45.96037" lon="4.82647">
        <ele>235</ele>
        <time>2016-11-05T10:50:00Z</time>
      </trkpt>
      <trkpt lat="45.96032" lon="4.82642">
        <ele>235</ele>
        <time>2016-11-05T10:50:01Z</time>
      </trkpt>
      <trkpt lat="45.96027" lon="4.82635">
        <ele>235</ele>
        <time>2016-11-05T10:50:02Z</time>
      </trkpt>
      <trkpt lat="45.96025" lon="4.82627">
        <ele>235</ele>
        <time>2016-11-05T10:50:03Z</time>
      </trkpt>
      <trkpt lat="45.96023" lon="4.82618">
        <ele>235</ele>
        <time>2016-11-05T10:50:04Z</time>
      </trkpt>
      <trkpt lat="45.9602" lon="4.8261">
        <ele>235</ele>
        <time>2016-11-05T10:50:05Z</time>
      </trkpt>
      <trkpt lat="45.96018" lon="4.82602">
        <ele>235</ele>
        <time>2016-11-05T10:50:06Z</time>
      </trkpt>
      <trkpt lat="45.96016" lon="4.82595">
        <ele>235</ele>
        <time>2016-11-05T10:50:07Z</time>
      </trkpt>
      <trkpt lat="45.96013" lon="4.82587">
        <ele>235</ele>
        <time>2016-11-05T10:50:08Z</time>
      </trkpt>
      <trkpt lat="45.96011" lon="4.8258">
        <ele>234</ele>
        <time>2016-11-05T10:50:09Z</time>
      </trkpt>
      <trkpt lat="45.96009" lon="4.82572">
        <ele>234</ele>
        <time>2016-11-05T10:50:10Z</time>
      </trkpt>
      <trkpt lat="45.96007" lon="4.82564">
        <ele>234</ele>
        <time>2016-11-05T10:50:11Z</time>
      </trkpt>
      <trkpt lat="45.96007" lon="4.82555">
        <ele>235</ele>
        <time>2016-11-05T10:50:12Z</time>
      </trkpt>
      <trkpt lat="45.96007" lon="4.82547">
        <ele>235</ele>
        <time>2016-11-05T10:50:13Z</time>
      </trkpt>
      <trkpt lat="45.96007" lon="4.82538">
        <ele>235</ele>
        <time>2016-11-05T10:50:14Z</time>
      </trkpt>
      <trkpt lat="45.96008" lon="4.82529">
        <ele>235</ele>
        <time>2016-11-05T10:50:15Z</time>
      </trkpt>
      <trkpt lat="45.96008" lon="4.8252">
        <ele>235</ele>
        <time>2016-11-05T10:50:16Z</time>
      </trkpt>
      <trkpt lat="45.96009" lon="4.82511">
        <ele>235</ele>
        <time>2016-11-05T10:50:17Z</time>
      </trkpt>
      <trkpt lat="45.96009" lon="4.82502">
        <ele>235</ele>
        <time>2016-11-05T10:50:18Z</time>
      </trkpt>
      <trkpt lat="45.9601" lon="4.82493">
        <ele>235</ele>
        <time>2016-11-05T10:50:19Z</time>
      </trkpt>
      <trkpt lat="45.96012" lon="4.82484">
        <ele>235</ele>
        <time>2016-11-05T10:50:20Z</time>
      </trkpt>
      <trkpt lat="45.96013" lon="4.82476">
        <ele>235</ele>
        <time>2016-11-05T10:50:21Z</time>
      </trkpt>
      <trkpt lat="45.96015" lon="4.82468">
        <ele>235</ele>
        <time>2016-11-05T10:50:22Z</time>
      </trkpt>
      <trkpt lat="45.96016" lon="4.82461">
        <ele>235</ele>
        <time>2016-11-05T10:50:23Z</time>
      </trkpt>
      <trkpt lat="45.96017" lon="4.82453">
        <ele>235</ele>
        <time>2016-11-05T10:50:24Z</time>
      </trkpt>
      <trkpt lat="45.96018" lon="4.82445">
        <ele>235</ele>
        <time>2016-11-05T10:50:25Z</time>
      </trkpt>
      <trkpt lat="45.9602" lon="4.82437">
        <ele>235</ele>
        <time>2016-11-05T10:50:26Z</time>
      </trkpt>
      <trkpt lat="45.96021" lon="4.82429">
        <ele>235</ele>
        <time>2016-11-05T10:50:27Z</time>
      </trkpt>
      <trkpt lat="45.96022" lon="4.82422">
        <ele>235</ele>
        <time>2016-11-05T10:50:28Z</time>
      </trkpt>
      <trkpt lat="45.96024" lon="4.82406">
        <ele>235</ele>
        <time>2016-11-05T10:50:30Z</time>
      </trkpt>
      <trkpt lat="45.96027" lon="4.82395">
        <ele>235</ele>
        <time>2016-11-05T10:50:32Z</time>
      </trkpt>
      <trkpt lat="45.96029" lon="4.82391">
        <ele>235</ele>
        <time>2016-11-05T10:50:33Z</time>
      </trkpt>
      <trkpt lat="45.96029" lon="4.82384">
        <ele>235</ele>
        <time>2016-11-05T10:50:34Z</time>
      </trkpt>
      <trkpt lat="45.9603" lon="4.82378">
        <ele>235</ele>
        <time>2016-11-05T10:50:35Z</time>
      </trkpt>
      <trkpt lat="45.96029" lon="4.82371">
        <ele>235</ele>
        <time>2016-11-05T10:50:36Z</time>
      </trkpt>
      <trkpt lat="45.96028" lon="4.82365">
        <ele>235</ele>
        <time>2016-11-05T10:50:37Z</time>
      </trkpt>
      <trkpt lat="45.96021" lon="4.82362">
        <ele>235</ele>
        <time>2016-11-05T10:50:39Z</time>
      </trkpt>
      <trkpt lat="45.96019" lon="4.82362">
        <ele>235</ele>
        <time>2016-11-05T10:50:40Z</time>
      </trkpt>
      <trkpt lat="45.96014" lon="4.82363">
        <ele>235</ele>
        <time>2016-11-05T10:50:42Z</time>
      </trkpt>
      <trkpt lat="45.96008" lon="4.82359">
        <ele>235</ele>
        <time>2016-11-05T10:50:43Z</time>
      </trkpt>
      <trkpt lat="45.96001" lon="4.82361">
        <ele>235</ele>
        <time>2016-11-05T10:50:45Z</time>
      </trkpt>
      <trkpt lat="45.95999" lon="4.82362">
        <ele>236</ele>
        <time>2016-11-05T10:50:46Z</time>
      </trkpt>
      <trkpt lat="45.95992" lon="4.82365">
        <ele>237</ele>
        <time>2016-11-05T10:50:48Z</time>
      </trkpt>
      <trkpt lat="45.95988" lon="4.82366">
        <ele>237</ele>
        <time>2016-11-05T10:50:49Z</time>
      </trkpt>
      <trkpt lat="45.9598" lon="4.82369">
        <ele>237</ele>
        <time>2016-11-05T10:50:51Z</time>
      </trkpt>
      <trkpt lat="45.95976" lon="4.82368">
        <ele>237</ele>
        <time>2016-11-05T10:50:52Z</time>
      </trkpt>
      <trkpt lat="45.95972" lon="4.82367">
        <ele>237</ele>
        <time>2016-11-05T10:50:53Z</time>
      </trkpt>
      <trkpt lat="45.95962" lon="4.82369">
        <ele>237</ele>
        <time>2016-11-05T10:50:56Z</time>
      </trkpt>
      <trkpt lat="45.95953" lon="4.82371">
        <ele>237</ele>
        <time>2016-11-05T10:50:59Z</time>
      </trkpt>
      <trkpt lat="45.9595" lon="4.82369">
        <ele>237</ele>
        <time>2016-11-05T10:51:00Z</time>
      </trkpt>
      <trkpt lat="45.95946" lon="4.82367">
        <ele>237</ele>
        <time>2016-11-05T10:51:01Z</time>
      </trkpt>
      <trkpt lat="45.95932" lon="4.82367">
        <ele>238</ele>
        <time>2016-11-05T10:51:05Z</time>
      </trkpt>
      <trkpt lat="45.95924" lon="4.82369">
        <ele>238</ele>
        <time>2016-11-05T10:51:08Z</time>
      </trkpt>
      <trkpt lat="45.95921" lon="4.82368">
        <ele>238</ele>
        <time>2016-11-05T10:51:09Z</time>
      </trkpt>
      <trkpt lat="45.95913" lon="4.82369">
        <ele>242</ele>
        <time>2016-11-05T10:51:12Z</time>
      </trkpt>
      <trkpt lat="45.9591" lon="4.82368">
        <ele>242</ele>
        <time>2016-11-05T10:51:13Z</time>
      </trkpt>
      <trkpt lat="45.95902" lon="4.82369">
        <ele>243</ele>
        <time>2016-11-05T10:51:16Z</time>
      </trkpt>
      <trkpt lat="45.95899" lon="4.8237">
        <ele>243</ele>
        <time>2016-11-05T10:51:17Z</time>
      </trkpt>
      <trkpt lat="45.95891" lon="4.82367">
        <ele>243</ele>
        <time>2016-11-05T10:51:19Z</time>
      </trkpt>
      <trkpt lat="45.95889" lon="4.82368">
        <ele>243</ele>
        <time>2016-11-05T10:51:20Z</time>
      </trkpt>
      <trkpt lat="45.95881" lon="4.82365">
        <ele>244</ele>
        <time>2016-11-05T10:51:23Z</time>
      </trkpt>
      <trkpt lat="45.95879" lon="4.82365">
        <ele>244</ele>
        <time>2016-11-05T10:51:24Z</time>
      </trkpt>
      <trkpt lat="45.95873" lon="4.82365">
        <ele>244</ele>
        <time>2016-11-05T10:51:28Z</time>
      </trkpt>
      <trkpt lat="45.9587" lon="4.82366">
        <ele>244</ele>
        <time>2016-11-05T10:51:29Z</time>
      </trkpt>
      <trkpt lat="45.95862" lon="4.82367">
        <ele>245</ele>
        <time>2016-11-05T10:51:33Z</time>
      </trkpt>
      <trkpt lat="45.9586" lon="4.82367">
        <ele>245</ele>
        <time>2016-11-05T10:51:34Z</time>
      </trkpt>
      <trkpt lat="45.95854" lon="4.82366">
        <ele>245</ele>
        <time>2016-11-05T10:51:37Z</time>
      </trkpt>
      <trkpt lat="45.95849" lon="4.82365">
        <ele>245</ele>
        <time>2016-11-05T10:51:39Z</time>
      </trkpt>
      <trkpt lat="45.95841" lon="4.82362">
        <ele>246</ele>
        <time>2016-11-05T10:51:43Z</time>
      </trkpt>
      <trkpt lat="45.95838" lon="4.82362">
        <ele>246</ele>
        <time>2016-11-05T10:51:44Z</time>
      </trkpt>
      <trkpt lat="45.95831" lon="4.82361">
        <ele>251</ele>
        <time>2016-11-05T10:51:47Z</time>
      </trkpt>
      <trkpt lat="45.95829" lon="4.82361">
        <ele>251</ele>
        <time>2016-11-05T10:51:48Z</time>
      </trkpt>
      <trkpt lat="45.95822" lon="4.82361">
        <ele>251</ele>
        <time>2016-11-05T10:51:51Z</time>
      </trkpt>
      <trkpt lat="45.9582" lon="4.8236">
        <ele>251</ele>
        <time>2016-11-05T10:51:52Z</time>
      </trkpt>
      <trkpt lat="45.95812" lon="4.82356">
        <ele>251</ele>
        <time>2016-11-05T10:51:55Z</time>
      </trkpt>
      <trkpt lat="45.9581" lon="4.82355">
        <ele>251</ele>
        <time>2016-11-05T10:51:56Z</time>
      </trkpt>
      <trkpt lat="45.95802" lon="4.82354">
        <ele>252</ele>
        <time>2016-11-05T10:52:00Z</time>
      </trkpt>
      <trkpt lat="45.958" lon="4.82353">
        <ele>252</ele>
        <time>2016-11-05T10:52:01Z</time>
      </trkpt>
      <trkpt lat="45.95794" lon="4.82351">
        <ele>252</ele>
        <time>2016-11-05T10:52:04Z</time>
      </trkpt>
      <trkpt lat="45.95791" lon="4.82349">
        <ele>252</ele>
        <time>2016-11-05T10:52:05Z</time>
      </trkpt>
      <trkpt lat="45.95784" lon="4.82343">
        <ele>253</ele>
        <time>2016-11-05T10:52:08Z</time>
      </trkpt>
      <trkpt lat="45.95782" lon="4.82341">
        <ele>253</ele>
        <time>2016-11-05T10:52:09Z</time>
      </trkpt>
      <trkpt lat="45.95776" lon="4.82333">
        <ele>252</ele>
        <time>2016-11-05T10:52:12Z</time>
      </trkpt>
      <trkpt lat="45.95774" lon="4.82331">
        <ele>252</ele>
        <time>2016-11-05T10:52:13Z</time>
      </trkpt>
      <trkpt lat="45.95767" lon="4.82325">
        <ele>253</ele>
        <time>2016-11-05T10:52:16Z</time>
      </trkpt>
      <trkpt lat="45.95765" lon="4.82323">
        <ele>253</ele>
        <time>2016-11-05T10:52:17Z</time>
      </trkpt>
      <trkpt lat="45.95758" lon="4.82315">
        <ele>252</ele>
        <time>2016-11-05T10:52:20Z</time>
      </trkpt>
      <trkpt lat="45.95756" lon="4.82313">
        <ele>252</ele>
        <time>2016-11-05T10:52:21Z</time>
      </trkpt>
      <trkpt lat="45.95751" lon="4.82308">
        <ele>252</ele>
        <time>2016-11-05T10:52:23Z</time>
      </trkpt>
      <trkpt lat="45.95746" lon="4.82306">
        <ele>255</ele>
        <time>2016-11-05T10:52:25Z</time>
      </trkpt>
      <trkpt lat="45.95739" lon="4.823">
        <ele>255</ele>
        <time>2016-11-05T10:52:29Z</time>
      </trkpt>
      <trkpt lat="45.95738" lon="4.82297">
        <ele>255</ele>
        <time>2016-11-05T10:52:30Z</time>
      </trkpt>
      <trkpt lat="45.95734" lon="4.82286">
        <ele>255</ele>
        <time>2016-11-05T10:52:33Z</time>
      </trkpt>
      <trkpt lat="45.95733" lon="4.82282">
        <ele>255</ele>
        <time>2016-11-05T10:52:34Z</time>
      </trkpt>
      <trkpt lat="45.95729" lon="4.82276">
        <ele>255</ele>
        <time>2016-11-05T10:52:36Z</time>
      </trkpt>
      <trkpt lat="45.95725" lon="4.82274">
        <ele>255</ele>
        <time>2016-11-05T10:52:37Z</time>
      </trkpt>
      <trkpt lat="45.95719" lon="4.82266">
        <ele>255</ele>
        <time>2016-11-05T10:52:39Z</time>
      </trkpt>
      <trkpt lat="45.95716" lon="4.82264">
        <ele>255</ele>
        <time>2016-11-05T10:52:40Z</time>
      </trkpt>
      <trkpt lat="45.9571" lon="4.82258">
        <ele>255</ele>
        <time>2016-11-05T10:52:42Z</time>
      </trkpt>
      <trkpt lat="45.95707" lon="4.82257">
        <ele>255</ele>
        <time>2016-11-05T10:52:43Z</time>
      </trkpt>
      <trkpt lat="45.957" lon="4.82251">
        <ele>255</ele>
        <time>2016-11-05T10:52:46Z</time>
      </trkpt>
      <trkpt lat="45.95698" lon="4.8225">
        <ele>254</ele>
        <time>2016-11-05T10:52:47Z</time>
      </trkpt>
      <trkpt lat="45.95692" lon="4.82242">
        <ele>254</ele>
        <time>2016-11-05T10:52:50Z</time>
      </trkpt>
      <trkpt lat="45.95689" lon="4.82242">
        <ele>255</ele>
        <time>2016-11-05T10:52:51Z</time>
      </trkpt>
      <trkpt lat="45.95681" lon="4.82241">
        <ele>255</ele>
        <time>2016-11-05T10:52:54Z</time>
      </trkpt>
      <trkpt lat="45.95678" lon="4.82239">
        <ele>255</ele>
        <time>2016-11-05T10:52:55Z</time>
      </trkpt>
      <trkpt lat="45.9567" lon="4.82233">
        <ele>255</ele>
        <time>2016-11-05T10:52:57Z</time>
      </trkpt>
      <trkpt lat="45.95666" lon="4.82231">
        <ele>257</ele>
        <time>2016-11-05T10:52:58Z</time>
      </trkpt>
      <trkpt lat="45.95657" lon="4.8223">
        <ele>257</ele>
        <time>2016-11-05T10:53:00Z</time>
      </trkpt>
      <trkpt lat="45.95654" lon="4.82229">
        <ele>257</ele>
        <time>2016-11-05T10:53:01Z</time>
      </trkpt>
      <trkpt lat="45.95646" lon="4.82229">
        <ele>257</ele>
        <time>2016-11-05T10:53:03Z</time>
      </trkpt>
      <trkpt lat="45.95642" lon="4.82229">
        <ele>257</ele>
        <time>2016-11-05T10:53:04Z</time>
      </trkpt>
      <trkpt lat="45.95635" lon="4.82228">
        <ele>257</ele>
        <time>2016-11-05T10:53:06Z</time>
      </trkpt>
      <trkpt lat="45.95632" lon="4.82228">
        <ele>257</ele>
        <time>2016-11-05T10:53:07Z</time>
      </trkpt>
      <trkpt lat="45.95626" lon="4.82228">
        <ele>257</ele>
        <time>2016-11-05T10:53:09Z</time>
      </trkpt>
      <trkpt lat="45.95623" lon="4.82228">
        <ele>257</ele>
        <time>2016-11-05T10:53:10Z</time>
      </trkpt>
      <trkpt lat="45.95617" lon="4.82229">
        <ele>257</ele>
        <time>2016-11-05T10:53:12Z</time>
      </trkpt>
      <trkpt lat="45.95613" lon="4.82229">
        <ele>257</ele>
        <time>2016-11-05T10:53:13Z</time>
      </trkpt>
      <trkpt lat="45.95606" lon="4.82226">
        <ele>257</ele>
        <time>2016-11-05T10:53:15Z</time>
      </trkpt>
      <trkpt lat="45.95602" lon="4.82225">
        <ele>257</ele>
        <time>2016-11-05T10:53:16Z</time>
      </trkpt>
      <trkpt lat="45.95596" lon="4.82221">
        <ele>257</ele>
        <time>2016-11-05T10:53:18Z</time>
      </trkpt>
      <trkpt lat="45.95593" lon="4.82218">
        <ele>257</ele>
        <time>2016-11-05T10:53:19Z</time>
      </trkpt>
      <trkpt lat="45.95587" lon="4.82213">
        <ele>257</ele>
        <time>2016-11-05T10:53:21Z</time>
      </trkpt>
      <trkpt lat="45.95583" lon="4.82211">
        <ele>258</ele>
        <time>2016-11-05T10:53:22Z</time>
      </trkpt>
      <trkpt lat="45.95576" lon="4.82206">
        <ele>258</ele>
        <time>2016-11-05T10:53:24Z</time>
      </trkpt>
      <trkpt lat="45.95572" lon="4.82203">
        <ele>258</ele>
        <time>2016-11-05T10:53:25Z</time>
      </trkpt>
      <trkpt lat="45.95566" lon="4.82198">
        <ele>258</ele>
        <time>2016-11-05T10:53:27Z</time>
      </trkpt>
      <trkpt lat="45.95563" lon="4.82195">
        <ele>259</ele>
        <time>2016-11-05T10:53:28Z</time>
      </trkpt>
      <trkpt lat="45.95557" lon="4.82191">
        <ele>259</ele>
        <time>2016-11-05T10:53:30Z</time>
      </trkpt>
      <trkpt lat="45.95554" lon="4.82188">
        <ele>259</ele>
        <time>2016-11-05T10:53:31Z</time>
      </trkpt>
      <trkpt lat="45.95548" lon="4.82182">
        <ele>259</ele>
        <time>2016-11-05T10:53:33Z</time>
      </trkpt>
      <trkpt lat="45.95545" lon="4.8218">
        <ele>259</ele>
        <time>2016-11-05T10:53:34Z</time>
      </trkpt>
      <trkpt lat="45.9554" lon="4.82175">
        <ele>259</ele>
        <time>2016-11-05T10:53:36Z</time>
      </trkpt>
      <trkpt lat="45.95537" lon="4.82172">
        <ele>259</ele>
        <time>2016-11-05T10:53:37Z</time>
      </trkpt>
      <trkpt lat="45.95532" lon="4.82168">
        <ele>259</ele>
        <time>2016-11-05T10:53:39Z</time>
      </trkpt>
      <trkpt lat="45.95529" lon="4.82165">
        <ele>259</ele>
        <time>2016-11-05T10:53:40Z</time>
      </trkpt>
      <trkpt lat="45.95523" lon="4.8216">
        <ele>259</ele>
        <time>2016-11-05T10:53:42Z</time>
      </trkpt>
      <trkpt lat="45.95521" lon="4.82157">
        <ele>259</ele>
        <time>2016-11-05T10:53:43Z</time>
      </trkpt>
      <trkpt lat="45.95515" lon="4.82151">
        <ele>259</ele>
        <time>2016-11-05T10:53:45Z</time>
      </trkpt>
      <trkpt lat="45.95512" lon="4.82148">
        <ele>259</ele>
        <time>2016-11-05T10:53:46Z</time>
      </trkpt>
      <trkpt lat="45.95505" lon="4.82142">
        <ele>259</ele>
        <time>2016-11-05T10:53:48Z</time>
      </trkpt>
      <trkpt lat="45.95502" lon="4.82139">
        <ele>259</ele>
        <time>2016-11-05T10:53:49Z</time>
      </trkpt>
      <trkpt lat="45.95495" lon="4.82133">
        <ele>260</ele>
        <time>2016-11-05T10:53:51Z</time>
      </trkpt>
      <trkpt lat="45.95493" lon="4.8213">
        <ele>260</ele>
        <time>2016-11-05T10:53:52Z</time>
      </trkpt>
      <trkpt lat="45.95488" lon="4.82124">
        <ele>260</ele>
        <time>2016-11-05T10:53:54Z</time>
      </trkpt>
      <trkpt lat="45.95485" lon="4.82121">
        <ele>260</ele>
        <time>2016-11-05T10:53:55Z</time>
      </trkpt>
      <trkpt lat="45.95479" lon="4.82115">
        <ele>260</ele>
        <time>2016-11-05T10:53:57Z</time>
      </trkpt>
      <trkpt lat="45.95476" lon="4.82113">
        <ele>260</ele>
        <time>2016-11-05T10:53:58Z</time>
      </trkpt>
      <trkpt lat="45.95469" lon="4.82105">
        <ele>260</ele>
        <time>2016-11-05T10:54:00Z</time>
      </trkpt>
      <trkpt lat="45.95466" lon="4.82101">
        <ele>260</ele>
        <time>2016-11-05T10:54:01Z</time>
      </trkpt>
      <trkpt lat="45.95459" lon="4.82095">
        <ele>260</ele>
        <time>2016-11-05T10:54:03Z</time>
      </trkpt>
      <trkpt lat="45.95456" lon="4.82092">
        <ele>260</ele>
        <time>2016-11-05T10:54:04Z</time>
      </trkpt>
      <trkpt lat="45.9545" lon="4.82085">
        <ele>260</ele>
        <time>2016-11-05T10:54:06Z</time>
      </trkpt>
      <trkpt lat="45.95446" lon="4.82082">
        <ele>260</ele>
        <time>2016-11-05T10:54:07Z</time>
      </trkpt>
      <trkpt lat="45.9544" lon="4.82075">
        <ele>260</ele>
        <time>2016-11-05T10:54:09Z</time>
      </trkpt>
      <trkpt lat="45.95436" lon="4.82071">
        <ele>260</ele>
        <time>2016-11-05T10:54:10Z</time>
      </trkpt>
      <trkpt lat="45.9543" lon="4.82064">
        <ele>260</ele>
        <time>2016-11-05T10:54:12Z</time>
      </trkpt>
      <trkpt lat="45.95426" lon="4.82061">
        <ele>260</ele>
        <time>2016-11-05T10:54:13Z</time>
      </trkpt>
      <trkpt lat="45.95419" lon="4.82053">
        <ele>260</ele>
        <time>2016-11-05T10:54:15Z</time>
      </trkpt>
      <trkpt lat="45.95416" lon="4.8205">
        <ele>261</ele>
        <time>2016-11-05T10:54:16Z</time>
      </trkpt>
      <trkpt lat="45.95409" lon="4.82042">
        <ele>261</ele>
        <time>2016-11-05T10:54:18Z</time>
      </trkpt>
      <trkpt lat="45.95405" lon="4.82038">
        <ele>261</ele>
        <time>2016-11-05T10:54:19Z</time>
      </trkpt>
      <trkpt lat="45.95402" lon="4.82034">
        <ele>261</ele>
        <time>2016-11-05T10:54:20Z</time>
      </trkpt>
      <trkpt lat="45.95398" lon="4.82031">
        <ele>261</ele>
        <time>2016-11-05T10:54:21Z</time>
      </trkpt>
      <trkpt lat="45.95391" lon="4.82023">
        <ele>261</ele>
        <time>2016-11-05T10:54:23Z</time>
      </trkpt>
      <trkpt lat="45.95387" lon="4.8202">
        <ele>261</ele>
        <time>2016-11-05T10:54:24Z</time>
      </trkpt>
      <trkpt lat="45.95381" lon="4.82012">
        <ele>262</ele>
        <time>2016-11-05T10:54:26Z</time>
      </trkpt>
      <trkpt lat="45.95377" lon="4.82009">
        <ele>262</ele>
        <time>2016-11-05T10:54:27Z</time>
      </trkpt>
      <trkpt lat="45.9537" lon="4.82002">
        <ele>262</ele>
        <time>2016-11-05T10:54:29Z</time>
      </trkpt>
      <trkpt lat="45.95366" lon="4.81998">
        <ele>261</ele>
        <time>2016-11-05T10:54:30Z</time>
      </trkpt>
      <trkpt lat="45.95359" lon="4.8199">
        <ele>261</ele>
        <time>2016-11-05T10:54:32Z</time>
      </trkpt>
      <trkpt lat="45.95356" lon="4.81987">
        <ele>261</ele>
        <time>2016-11-05T10:54:33Z</time>
      </trkpt>
      <trkpt lat="45.9535" lon="4.81979">
        <ele>261</ele>
        <time>2016-11-05T10:54:35Z</time>
      </trkpt>
      <trkpt lat="45.95346" lon="4.81976">
        <ele>261</ele>
        <time>2016-11-05T10:54:36Z</time>
      </trkpt>
      <trkpt lat="45.95339" lon="4.8197">
        <ele>261</ele>
        <time>2016-11-05T10:54:38Z</time>
      </trkpt>
      <trkpt lat="45.95336" lon="4.81966">
        <ele>261</ele>
        <time>2016-11-05T10:54:39Z</time>
      </trkpt>
      <trkpt lat="45.95329" lon="4.81959">
        <ele>262</ele>
        <time>2016-11-05T10:54:41Z</time>
      </trkpt>
      <trkpt lat="45.95326" lon="4.81956">
        <ele>262</ele>
        <time>2016-11-05T10:54:42Z</time>
      </trkpt>
      <trkpt lat="45.95319" lon="4.81949">
        <ele>262</ele>
        <time>2016-11-05T10:54:44Z</time>
      </trkpt>
      <trkpt lat="45.95315" lon="4.81945">
        <ele>261</ele>
        <time>2016-11-05T10:54:45Z</time>
      </trkpt>
      <trkpt lat="45.95308" lon="4.81937">
        <ele>261</ele>
        <time>2016-11-05T10:54:47Z</time>
      </trkpt>
      <trkpt lat="45.95305" lon="4.81932">
        <ele>261</ele>
        <time>2016-11-05T10:54:48Z</time>
      </trkpt>
      <trkpt lat="45.95301" lon="4.81928">
        <ele>261</ele>
        <time>2016-11-05T10:54:49Z</time>
      </trkpt>
      <trkpt lat="45.95298" lon="4.81924">
        <ele>261</ele>
        <time>2016-11-05T10:54:50Z</time>
      </trkpt>
      <trkpt lat="45.95294" lon="4.81919">
        <ele>261</ele>
        <time>2016-11-05T10:54:51Z</time>
      </trkpt>
      <trkpt lat="45.95291" lon="4.81913">
        <ele>260</ele>
        <time>2016-11-05T10:54:52Z</time>
      </trkpt>
      <trkpt lat="45.95288" lon="4.81908">
        <ele>260</ele>
        <time>2016-11-05T10:54:53Z</time>
      </trkpt>
      <trkpt lat="45.95284" lon="4.81903">
        <ele>260</ele>
        <time>2016-11-05T10:54:54Z</time>
      </trkpt>
      <trkpt lat="45.95281" lon="4.81897">
        <ele>260</ele>
        <time>2016-11-05T10:54:55Z</time>
      </trkpt>
      <trkpt lat="45.95278" lon="4.81893">
        <ele>260</ele>
        <time>2016-11-05T10:54:56Z</time>
      </trkpt>
      <trkpt lat="45.95275" lon="4.81888">
        <ele>260</ele>
        <time>2016-11-05T10:54:57Z</time>
      </trkpt>
      <trkpt lat="45.95272" lon="4.81883">
        <ele>260</ele>
        <time>2016-11-05T10:54:58Z</time>
      </trkpt>
      <trkpt lat="45.95268" lon="4.81879">
        <ele>260</ele>
        <time>2016-11-05T10:54:59Z</time>
      </trkpt>
      <trkpt lat="45.95264" lon="4.81874">
        <ele>260</ele>
        <time>2016-11-05T10:55:00Z</time>
      </trkpt>
      <trkpt lat="45.95261" lon="4.8187">
        <ele>260</ele>
        <time>2016-11-05T10:55:01Z</time>
      </trkpt>
      <trkpt lat="45.95257" lon="4.81865">
        <ele>260</ele>
        <time>2016-11-05T10:55:02Z</time>
      </trkpt>
      <trkpt lat="45.95254" lon="4.8186">
        <ele>260</ele>
        <time>2016-11-05T10:55:03Z</time>
      </trkpt>
      <trkpt lat="45.95251" lon="4.81855">
        <ele>259</ele>
        <time>2016-11-05T10:55:04Z</time>
      </trkpt>
      <trkpt lat="45.95247" lon="4.8185">
        <ele>260</ele>
        <time>2016-11-05T10:55:05Z</time>
      </trkpt>
      <trkpt lat="45.95244" lon="4.81845">
        <ele>260</ele>
        <time>2016-11-05T10:55:06Z</time>
      </trkpt>
      <trkpt lat="45.9524" lon="4.8184">
        <ele>259</ele>
        <time>2016-11-05T10:55:07Z</time>
      </trkpt>
      <trkpt lat="45.95237" lon="4.81834">
        <ele>260</ele>
        <time>2016-11-05T10:55:08Z</time>
      </trkpt>
      <trkpt lat="45.95234" lon="4.81829">
        <ele>259</ele>
        <time>2016-11-05T10:55:09Z</time>
      </trkpt>
      <trkpt lat="45.95231" lon="4.81823">
        <ele>259</ele>
        <time>2016-11-05T10:55:10Z</time>
      </trkpt>
      <trkpt lat="45.95227" lon="4.81818">
        <ele>259</ele>
        <time>2016-11-05T10:55:11Z</time>
      </trkpt>
      <trkpt lat="45.95224" lon="4.81813">
        <ele>259</ele>
        <time>2016-11-05T10:55:12Z</time>
      </trkpt>
      <trkpt lat="45.9522" lon="4.81808">
        <ele>259</ele>
        <time>2016-11-05T10:55:13Z</time>
      </trkpt>
      <trkpt lat="45.95218" lon="4.81803">
        <ele>259</ele>
        <time>2016-11-05T10:55:14Z</time>
      </trkpt>
      <trkpt lat="45.95214" lon="4.81797">
        <ele>259</ele>
        <time>2016-11-05T10:55:15Z</time>
      </trkpt>
      <trkpt lat="45.95211" lon="4.81792">
        <ele>258</ele>
        <time>2016-11-05T10:55:16Z</time>
      </trkpt>
      <trkpt lat="45.95207" lon="4.81787">
        <ele>258</ele>
        <time>2016-11-05T10:55:17Z</time>
      </trkpt>
      <trkpt lat="45.95203" lon="4.81781">
        <ele>258</ele>
        <time>2016-11-05T10:55:18Z</time>
      </trkpt>
      <trkpt lat="45.95199" lon="4.81774">
        <ele>258</ele>
        <time>2016-11-05T10:55:19Z</time>
      </trkpt>
      <trkpt lat="45.95195" lon="4.81768">
        <ele>258</ele>
        <time>2016-11-05T10:55:20Z</time>
      </trkpt>
      <trkpt lat="45.9519" lon="4.81761">
        <ele>258</ele>
        <time>2016-11-05T10:55:21Z</time>
      </trkpt>
      <trkpt lat="45.95186" lon="4.81755">
        <ele>258</ele>
        <time>2016-11-05T10:55:22Z</time>
      </trkpt>
      <trkpt lat="45.95181" lon="4.81747">
        <ele>257</ele>
        <time>2016-11-05T10:55:23Z</time>
      </trkpt>
      <trkpt lat="45.95177" lon="4.8174">
        <ele>257</ele>
        <time>2016-11-05T10:55:24Z</time>
      </trkpt>
      <trkpt lat="45.95172" lon="4.81732">
        <ele>257</ele>
        <time>2016-11-05T10:55:25Z</time>
      </trkpt>
      <trkpt lat="45.95168" lon="4.81724">
        <ele>257</ele>
        <time>2016-11-05T10:55:26Z</time>
      </trkpt>
      <trkpt lat="45.95165" lon="4.81715">
        <ele>256</ele>
        <time>2016-11-05T10:55:27Z</time>
      </trkpt>
      <trkpt lat="45.95161" lon="4.81705">
        <ele>255</ele>
        <time>2016-11-05T10:55:28Z</time>
      </trkpt>
      <trkpt lat="45.95158" lon="4.81695">
        <ele>255</ele>
        <time>2016-11-05T10:55:29Z</time>
      </trkpt>
      <trkpt lat="45.95154" lon="4.81684">
        <ele>255</ele>
        <time>2016-11-05T10:55:30Z</time>
      </trkpt>
      <trkpt lat="45.9515" lon="4.81673">
        <ele>255</ele>
        <time>2016-11-05T10:55:31Z</time>
      </trkpt>
      <trkpt lat="45.95146" lon="4.81661">
        <ele>253</ele>
        <time>2016-11-05T10:55:32Z</time>
      </trkpt>
      <trkpt lat="45.95142" lon="4.8165">
        <ele>253</ele>
        <time>2016-11-05T10:55:33Z</time>
      </trkpt>
      <trkpt lat="45.95138" lon="4.81638">
        <ele>253</ele>
        <time>2016-11-05T10:55:34Z</time>
      </trkpt>
      <trkpt lat="45.95135" lon="4.81627">
        <ele>253</ele>
        <time>2016-11-05T10:55:35Z</time>
      </trkpt>
      <trkpt lat="45.95131" lon="4.81615">
        <ele>252</ele>
        <time>2016-11-05T10:55:36Z</time>
      </trkpt>
      <trkpt lat="45.95128" lon="4.81604">
        <ele>252</ele>
        <time>2016-11-05T10:55:37Z</time>
      </trkpt>
      <trkpt lat="45.95124" lon="4.81593">
        <ele>252</ele>
        <time>2016-11-05T10:55:38Z</time>
      </trkpt>
      <trkpt lat="45.9512" lon="4.81582">
        <ele>251</ele>
        <time>2016-11-05T10:55:39Z</time>
      </trkpt>
      <trkpt lat="45.95117" lon="4.81571">
        <ele>251</ele>
        <time>2016-11-05T10:55:40Z</time>
      </trkpt>
      <trkpt lat="45.95113" lon="4.8156">
        <ele>251</ele>
        <time>2016-11-05T10:55:41Z</time>
      </trkpt>
      <trkpt lat="45.9511" lon="4.8155">
        <ele>251</ele>
        <time>2016-11-05T10:55:42Z</time>
      </trkpt>
      <trkpt lat="45.95106" lon="4.8154">
        <ele>251</ele>
        <time>2016-11-05T10:55:43Z</time>
      </trkpt>
      <trkpt lat="45.95103" lon="4.81531">
        <ele>251</ele>
        <time>2016-11-05T10:55:44Z</time>
      </trkpt>
      <trkpt lat="45.951" lon="4.81522">
        <ele>251</ele>
        <time>2016-11-05T10:55:45Z</time>
      </trkpt>
      <trkpt lat="45.95098" lon="4.81514">
        <ele>251</ele>
        <time>2016-11-05T10:55:46Z</time>
      </trkpt>
      <trkpt lat="45.95094" lon="4.81508">
        <ele>252</ele>
        <time>2016-11-05T10:55:47Z</time>
      </trkpt>
      <trkpt lat="45.95092" lon="4.81502">
        <ele>252</ele>
        <time>2016-11-05T10:55:48Z</time>
      </trkpt>
      <trkpt lat="45.95089" lon="4.81496">
        <ele>252</ele>
        <time>2016-11-05T10:55:49Z</time>
      </trkpt>
      <trkpt lat="45.95087" lon="4.8149">
        <ele>251</ele>
        <time>2016-11-05T10:55:50Z</time>
      </trkpt>
      <trkpt lat="45.95085" lon="4.81485">
        <ele>251</ele>
        <time>2016-11-05T10:55:51Z</time>
      </trkpt>
      <trkpt lat="45.95082" lon="4.81479">
        <ele>253</ele>
        <time>2016-11-05T10:55:52Z</time>
      </trkpt>
      <trkpt lat="45.9508" lon="4.81473">
        <ele>253</ele>
        <time>2016-11-05T10:55:53Z</time>
      </trkpt>
      <trkpt lat="45.95077" lon="4.81467">
        <ele>253</ele>
        <time>2016-11-05T10:55:54Z</time>
      </trkpt>
      <trkpt lat="45.95075" lon="4.8146">
        <ele>253</ele>
        <time>2016-11-05T10:55:55Z</time>
      </trkpt>
      <trkpt lat="45.95073" lon="4.81454">
        <ele>253</ele>
        <time>2016-11-05T10:55:56Z</time>
      </trkpt>
      <trkpt lat="45.9507" lon="4.81449">
        <ele>253</ele>
        <time>2016-11-05T10:55:57Z</time>
      </trkpt>
      <trkpt lat="45.95067" lon="4.81443">
        <ele>253</ele>
        <time>2016-11-05T10:55:58Z</time>
      </trkpt>
      <trkpt lat="45.95065" lon="4.81436">
        <ele>253</ele>
        <time>2016-11-05T10:55:59Z</time>
      </trkpt>
      <trkpt lat="45.95063" lon="4.8143">
        <ele>252</ele>
        <time>2016-11-05T10:56:00Z</time>
      </trkpt>
      <trkpt lat="45.95061" lon="4.81423">
        <ele>252</ele>
        <time>2016-11-05T10:56:01Z</time>
      </trkpt>
      <trkpt lat="45.95059" lon="4.81416">
        <ele>253</ele>
        <time>2016-11-05T10:56:02Z</time>
      </trkpt>
      <trkpt lat="45.95057" lon="4.8141">
        <ele>253</ele>
        <time>2016-11-05T10:56:03Z</time>
      </trkpt>
      <trkpt lat="45.95054" lon="4.81405">
        <ele>253</ele>
        <time>2016-11-05T10:56:04Z</time>
      </trkpt>
      <trkpt lat="45.95051" lon="4.81394">
        <ele>253</ele>
        <time>2016-11-05T10:56:06Z</time>
      </trkpt>
      <trkpt lat="45.95049" lon="4.81389">
        <ele>253</ele>
        <time>2016-11-05T10:56:07Z</time>
      </trkpt>
      <trkpt lat="45.95046" lon="4.81377">
        <ele>254</ele>
        <time>2016-11-05T10:56:09Z</time>
      </trkpt>
      <trkpt lat="45.95044" lon="4.81371">
        <ele>254</ele>
        <time>2016-11-05T10:56:10Z</time>
      </trkpt>
      <trkpt lat="45.9504" lon="4.81359">
        <ele>254</ele>
        <time>2016-11-05T10:56:12Z</time>
      </trkpt>
      <trkpt lat="45.95038" lon="4.81354">
        <ele>254</ele>
        <time>2016-11-05T10:56:13Z</time>
      </trkpt>
      <trkpt lat="45.95035" lon="4.81342">
        <ele>254</ele>
        <time>2016-11-05T10:56:15Z</time>
      </trkpt>
      <trkpt lat="45.95033" lon="4.81337">
        <ele>254</ele>
        <time>2016-11-05T10:56:16Z</time>
      </trkpt>
      <trkpt lat="45.9503" lon="4.81326">
        <ele>255</ele>
        <time>2016-11-05T10:56:18Z</time>
      </trkpt>
      <trkpt lat="45.95029" lon="4.8132">
        <ele>255</ele>
        <time>2016-11-05T10:56:19Z</time>
      </trkpt>
      <trkpt lat="45.95026" lon="4.81309">
        <ele>255</ele>
        <time>2016-11-05T10:56:21Z</time>
      </trkpt>
      <trkpt lat="45.95024" lon="4.81304">
        <ele>255</ele>
        <time>2016-11-05T10:56:22Z</time>
      </trkpt>
      <trkpt lat="45.95022" lon="4.81292">
        <ele>255</ele>
        <time>2016-11-05T10:56:24Z</time>
      </trkpt>
      <trkpt lat="45.95021" lon="4.81287">
        <ele>255</ele>
        <time>2016-11-05T10:56:25Z</time>
      </trkpt>
      <trkpt lat="45.95019" lon="4.81275">
        <ele>255</ele>
        <time>2016-11-05T10:56:27Z</time>
      </trkpt>
      <trkpt lat="45.95018" lon="4.81269">
        <ele>255</ele>
        <time>2016-11-05T10:56:28Z</time>
      </trkpt>
      <trkpt lat="45.95016" lon="4.81262">
        <ele>255</ele>
        <time>2016-11-05T10:56:29Z</time>
      </trkpt>
      <trkpt lat="45.95015" lon="4.81255">
        <ele>256</ele>
        <time>2016-11-05T10:56:30Z</time>
      </trkpt>
      <trkpt lat="45.95014" lon="4.81248">
        <ele>256</ele>
        <time>2016-11-05T10:56:31Z</time>
      </trkpt>
      <trkpt lat="45.95014" lon="4.81241">
        <ele>256</ele>
        <time>2016-11-05T10:56:32Z</time>
      </trkpt>
      <trkpt lat="45.95012" lon="4.81228">
        <ele>256</ele>
        <time>2016-11-05T10:56:34Z</time>
      </trkpt>
      <trkpt lat="45.95011" lon="4.81222">
        <ele>256</ele>
        <time>2016-11-05T10:56:35Z</time>
      </trkpt>
      <trkpt lat="45.95009" lon="4.8121">
        <ele>256</ele>
        <time>2016-11-05T10:56:37Z</time>
      </trkpt>
      <trkpt lat="45.95008" lon="4.81204">
        <ele>256</ele>
        <time>2016-11-05T10:56:38Z</time>
      </trkpt>
      <trkpt lat="45.95007" lon="4.81198">
        <ele>256</ele>
        <time>2016-11-05T10:56:39Z</time>
      </trkpt>
      <trkpt lat="45.95006" lon="4.81191">
        <ele>256</ele>
        <time>2016-11-05T10:56:40Z</time>
      </trkpt>
      <trkpt lat="45.95006" lon="4.81184">
        <ele>256</ele>
        <time>2016-11-05T10:56:41Z</time>
      </trkpt>
      <trkpt lat="45.95005" lon="4.81177">
        <ele>256</ele>
        <time>2016-11-05T10:56:42Z</time>
      </trkpt>
      <trkpt lat="45.95004" lon="4.8117">
        <ele>256</ele>
        <time>2016-11-05T10:56:43Z</time>
      </trkpt>
      <trkpt lat="45.95004" lon="4.81163">
        <ele>256</ele>
        <time>2016-11-05T10:56:44Z</time>
      </trkpt>
      <trkpt lat="45.95002" lon="4.8115">
        <ele>256</ele>
        <time>2016-11-05T10:56:46Z</time>
      </trkpt>
      <trkpt lat="45.95002" lon="4.81144">
        <ele>256</ele>
        <time>2016-11-05T10:56:47Z</time>
      </trkpt>
      <trkpt lat="45.95" lon="4.81133">
        <ele>256</ele>
        <time>2016-11-05T10:56:49Z</time>
      </trkpt>
      <trkpt lat="45.94999" lon="4.81127">
        <ele>256</ele>
        <time>2016-11-05T10:56:50Z</time>
      </trkpt>
      <trkpt lat="45.94998" lon="4.81116">
        <ele>257</ele>
        <time>2016-11-05T10:56:52Z</time>
      </trkpt>
      <trkpt lat="45.94997" lon="4.8111">
        <ele>257</ele>
        <time>2016-11-05T10:56:53Z</time>
      </trkpt>
      <trkpt lat="45.94995" lon="4.81099">
        <ele>257</ele>
        <time>2016-11-05T10:56:55Z</time>
      </trkpt>
      <trkpt lat="45.94995" lon="4.81094">
        <ele>257</ele>
        <time>2016-11-05T10:56:56Z</time>
      </trkpt>
      <trkpt lat="45.94995" lon="4.81082">
        <ele>257</ele>
        <time>2016-11-05T10:56:58Z</time>
      </trkpt>
      <trkpt lat="45.94994" lon="4.81076">
        <ele>257</ele>
        <time>2016-11-05T10:56:59Z</time>
      </trkpt>
      <trkpt lat="45.94994" lon="4.81069">
        <ele>257</ele>
        <time>2016-11-05T10:57:00Z</time>
      </trkpt>
      <trkpt lat="45.94993" lon="4.81062">
        <ele>257</ele>
        <time>2016-11-05T10:57:01Z</time>
      </trkpt>
      <trkpt lat="45.94993" lon="4.81056">
        <ele>257</ele>
        <time>2016-11-05T10:57:02Z</time>
      </trkpt>
      <trkpt lat="45.94993" lon="4.81049">
        <ele>257</ele>
        <time>2016-11-05T10:57:03Z</time>
      </trkpt>
      <trkpt lat="45.94992" lon="4.81037">
        <ele>257</ele>
        <time>2016-11-05T10:57:05Z</time>
      </trkpt>
      <trkpt lat="45.94991" lon="4.81031">
        <ele>257</ele>
        <time>2016-11-05T10:57:06Z</time>
      </trkpt>
      <trkpt lat="45.9499" lon="4.81019">
        <ele>257</ele>
        <time>2016-11-05T10:57:08Z</time>
      </trkpt>
      <trkpt lat="45.9499" lon="4.81012">
        <ele>257</ele>
        <time>2016-11-05T10:57:09Z</time>
      </trkpt>
      <trkpt lat="45.94989" lon="4.81">
        <ele>257</ele>
        <time>2016-11-05T10:57:11Z</time>
      </trkpt>
      <trkpt lat="45.94988" lon="4.80993">
        <ele>257</ele>
        <time>2016-11-05T10:57:12Z</time>
      </trkpt>
      <trkpt lat="45.94987" lon="4.80986">
        <ele>258</ele>
        <time>2016-11-05T10:57:13Z</time>
      </trkpt>
      <trkpt lat="45.94987" lon="4.8098">
        <ele>258</ele>
        <time>2016-11-05T10:57:14Z</time>
      </trkpt>
      <trkpt lat="45.94986" lon="4.80973">
        <ele>258</ele>
        <time>2016-11-05T10:57:15Z</time>
      </trkpt>
      <trkpt lat="45.94985" lon="4.80966">
        <ele>258</ele>
        <time>2016-11-05T10:57:16Z</time>
      </trkpt>
      <trkpt lat="45.94984" lon="4.80959">
        <ele>258</ele>
        <time>2016-11-05T10:57:17Z</time>
      </trkpt>
      <trkpt lat="45.94983" lon="4.80952">
        <ele>258</ele>
        <time>2016-11-05T10:57:18Z</time>
      </trkpt>
      <trkpt lat="45.94982" lon="4.80946">
        <ele>258</ele>
        <time>2016-11-05T10:57:19Z</time>
      </trkpt>
      <trkpt lat="45.94981" lon="4.8094">
        <ele>258</ele>
        <time>2016-11-05T10:57:20Z</time>
      </trkpt>
      <trkpt lat="45.9498" lon="4.80933">
        <ele>258</ele>
        <time>2016-11-05T10:57:21Z</time>
      </trkpt>
      <trkpt lat="45.94979" lon="4.80927">
        <ele>258</ele>
        <time>2016-11-05T10:57:22Z</time>
      </trkpt>
      <trkpt lat="45.94978" lon="4.80921">
        <ele>258</ele>
        <time>2016-11-05T10:57:23Z</time>
      </trkpt>
      <trkpt lat="45.94976" lon="4.80914">
        <ele>258</ele>
        <time>2016-11-05T10:57:24Z</time>
      </trkpt>
      <trkpt lat="45.94975" lon="4.80908">
        <ele>258</ele>
        <time>2016-11-05T10:57:25Z</time>
      </trkpt>
      <trkpt lat="45.94974" lon="4.80901">
        <ele>258</ele>
        <time>2016-11-05T10:57:26Z</time>
      </trkpt>
      <trkpt lat="45.94972" lon="4.80891">
        <ele>258</ele>
        <time>2016-11-05T10:57:28Z</time>
      </trkpt>
      <trkpt lat="45.94971" lon="4.80885">
        <ele>258</ele>
        <time>2016-11-05T10:57:29Z</time>
      </trkpt>
      <trkpt lat="45.94968" lon="4.80874">
        <ele>259</ele>
        <time>2016-11-05T10:57:31Z</time>
      </trkpt>
      <trkpt lat="45.94968" lon="4.80867">
        <ele>259</ele>
        <time>2016-11-05T10:57:32Z</time>
      </trkpt>
      <trkpt lat="45.94967" lon="4.8086">
        <ele>259</ele>
        <time>2016-11-05T10:57:33Z</time>
      </trkpt>
      <trkpt lat="45.94965" lon="4.80853">
        <ele>259</ele>
        <time>2016-11-05T10:57:34Z</time>
      </trkpt>
      <trkpt lat="45.94964" lon="4.80846">
        <ele>259</ele>
        <time>2016-11-05T10:57:35Z</time>
      </trkpt>
      <trkpt lat="45.94962" lon="4.80839">
        <ele>259</ele>
        <time>2016-11-05T10:57:36Z</time>
      </trkpt>
      <trkpt lat="45.94959" lon="4.80828">
        <ele>259</ele>
        <time>2016-11-05T10:57:38Z</time>
      </trkpt>
      <trkpt lat="45.94958" lon="4.80823">
        <ele>258</ele>
        <time>2016-11-05T10:57:39Z</time>
      </trkpt>
      <trkpt lat="45.94956" lon="4.80813">
        <ele>258</ele>
        <time>2016-11-05T10:57:41Z</time>
      </trkpt>
      <trkpt lat="45.94955" lon="4.80808">
        <ele>258</ele>
        <time>2016-11-05T10:57:42Z</time>
      </trkpt>
      <trkpt lat="45.94956" lon="4.80798">
        <ele>259</ele>
        <time>2016-11-05T10:57:45Z</time>
      </trkpt>
      <trkpt lat="45.94956" lon="4.80795">
        <ele>259</ele>
        <time>2016-11-05T10:57:46Z</time>
      </trkpt>
      <trkpt lat="45.94956" lon="4.80785">
        <ele>259</ele>
        <time>2016-11-05T10:57:48Z</time>
      </trkpt>
      <trkpt lat="45.94955" lon="4.8078">
        <ele>259</ele>
        <time>2016-11-05T10:57:49Z</time>
      </trkpt>
      <trkpt lat="45.94953" lon="4.80768">
        <ele>259</ele>
        <time>2016-11-05T10:57:51Z</time>
      </trkpt>
      <trkpt lat="45.94953" lon="4.80762">
        <ele>259</ele>
        <time>2016-11-05T10:57:52Z</time>
      </trkpt>
      <trkpt lat="45.94954" lon="4.80755">
        <ele>259</ele>
        <time>2016-11-05T10:57:53Z</time>
      </trkpt>
      <trkpt lat="45.94954" lon="4.80748">
        <ele>259</ele>
        <time>2016-11-05T10:57:54Z</time>
      </trkpt>
      <trkpt lat="45.94954" lon="4.8074">
        <ele>259</ele>
        <time>2016-11-05T10:57:55Z</time>
      </trkpt>
      <trkpt lat="45.94954" lon="4.80733">
        <ele>259</ele>
        <time>2016-11-05T10:57:56Z</time>
      </trkpt>
      <trkpt lat="45.94954" lon="4.80726">
        <ele>259</ele>
        <time>2016-11-05T10:57:57Z</time>
      </trkpt>
      <trkpt lat="45.94954" lon="4.80719">
        <ele>259</ele>
        <time>2016-11-05T10:57:58Z</time>
      </trkpt>
      <trkpt lat="45.94954" lon="4.80713">
        <ele>259</ele>
        <time>2016-11-05T10:57:59Z</time>
      </trkpt>
      <trkpt lat="45.94954" lon="4.80706">
        <ele>259</ele>
        <time>2016-11-05T10:58:00Z</time>
      </trkpt>
      <trkpt lat="45.94955" lon="4.80699">
        <ele>259</ele>
        <time>2016-11-05T10:58:01Z</time>
      </trkpt>
      <trkpt lat="45.94955" lon="4.80692">
        <ele>259</ele>
        <time>2016-11-05T10:58:02Z</time>
      </trkpt>
      <trkpt lat="45.94954" lon="4.80685">
        <ele>259</ele>
        <time>2016-11-05T10:58:03Z</time>
      </trkpt>
      <trkpt lat="45.94953" lon="4.80677">
        <ele>259</ele>
        <time>2016-11-05T10:58:04Z</time>
      </trkpt>
      <trkpt lat="45.94953" lon="4.80669">
        <ele>259</ele>
        <time>2016-11-05T10:58:05Z</time>
      </trkpt>
      <trkpt lat="45.94952" lon="4.8066">
        <ele>259</ele>
        <time>2016-11-05T10:58:06Z</time>
      </trkpt>
      <trkpt lat="45.94952" lon="4.80652">
        <ele>259</ele>
        <time>2016-11-05T10:58:07Z</time>
      </trkpt>
      <trkpt lat="45.94952" lon="4.80644">
        <ele>258</ele>
        <time>2016-11-05T10:58:08Z</time>
      </trkpt>
      <trkpt lat="45.94952" lon="4.80636">
        <ele>258</ele>
        <time>2016-11-05T10:58:09Z</time>
      </trkpt>
      <trkpt lat="45.94952" lon="4.80628">
        <ele>258</ele>
        <time>2016-11-05T10:58:10Z</time>
      </trkpt>
      <trkpt lat="45.94952" lon="4.8062">
        <ele>258</ele>
        <time>2016-11-05T10:58:11Z</time>
      </trkpt>
      <trkpt lat="45.94952" lon="4.80612">
        <ele>258</ele>
        <time>2016-11-05T10:58:12Z</time>
      </trkpt>
      <trkpt lat="45.94952" lon="4.80604">
        <ele>258</ele>
        <time>2016-11-05T10:58:13Z</time>
      </trkpt>
      <trkpt lat="45.94951" lon="4.80596">
        <ele>258</ele>
        <time>2016-11-05T10:58:14Z</time>
      </trkpt>
      <trkpt lat="45.94951" lon="4.80587">
        <ele>258</ele>
        <time>2016-11-05T10:58:15Z</time>
      </trkpt>
      <trkpt lat="45.9495" lon="4.80579">
        <ele>257</ele>
        <time>2016-11-05T10:58:16Z</time>
      </trkpt>
      <trkpt lat="45.9495" lon="4.80571">
        <ele>257</ele>
        <time>2016-11-05T10:58:17Z</time>
      </trkpt>
      <trkpt lat="45.94949" lon="4.80563">
        <ele>257</ele>
        <time>2016-11-05T10:58:18Z</time>
      </trkpt>
      <trkpt lat="45.94949" lon="4.80556">
        <ele>258</ele>
        <time>2016-11-05T10:58:19Z</time>
      </trkpt>
      <trkpt lat="45.94949" lon="4.80548">
        <ele>258</ele>
        <time>2016-11-05T10:58:20Z</time>
      </trkpt>
      <trkpt lat="45.94949" lon="4.8054">
        <ele>258</ele>
        <time>2016-11-05T10:58:21Z</time>
      </trkpt>
      <trkpt lat="45.94948" lon="4.80533">
        <ele>258</ele>
        <time>2016-11-05T10:58:22Z</time>
      </trkpt>
      <trkpt lat="45.94948" lon="4.80525">
        <ele>258</ele>
        <time>2016-11-05T10:58:23Z</time>
      </trkpt>
      <trkpt lat="45.94947" lon="4.80517">
        <ele>258</ele>
        <time>2016-11-05T10:58:24Z</time>
      </trkpt>
      <trkpt lat="45.94947" lon="4.8051">
        <ele>258</ele>
        <time>2016-11-05T10:58:25Z</time>
      </trkpt>
      <trkpt lat="45.94947" lon="4.80502">
        <ele>258</ele>
        <time>2016-11-05T10:58:26Z</time>
      </trkpt>
      <trkpt lat="45.94947" lon="4.80494">
        <ele>258</ele>
        <time>2016-11-05T10:58:27Z</time>
      </trkpt>
      <trkpt lat="45.94947" lon="4.80486">
        <ele>258</ele>
        <time>2016-11-05T10:58:28Z</time>
      </trkpt>
      <trkpt lat="45.94948" lon="4.80478">
        <ele>258</ele>
        <time>2016-11-05T10:58:29Z</time>
      </trkpt>
      <trkpt lat="45.94949" lon="4.80469">
        <ele>258</ele>
        <time>2016-11-05T10:58:30Z</time>
      </trkpt>
      <trkpt lat="45.94949" lon="4.80461">
        <ele>258</ele>
        <time>2016-11-05T10:58:31Z</time>
      </trkpt>
      <trkpt lat="45.94949" lon="4.80453">
        <ele>258</ele>
        <time>2016-11-05T10:58:32Z</time>
      </trkpt>
      <trkpt lat="45.94949" lon="4.80446">
        <ele>259</ele>
        <time>2016-11-05T10:58:33Z</time>
      </trkpt>
      <trkpt lat="45.94949" lon="4.80438">
        <ele>259</ele>
        <time>2016-11-05T10:58:34Z</time>
      </trkpt>
      <trkpt lat="45.94949" lon="4.8043">
        <ele>259</ele>
        <time>2016-11-05T10:58:35Z</time>
      </trkpt>
      <trkpt lat="45.94949" lon="4.80422">
        <ele>259</ele>
        <time>2016-11-05T10:58:36Z</time>
      </trkpt>
      <trkpt lat="45.94949" lon="4.80415">
        <ele>258</ele>
        <time>2016-11-05T10:58:37Z</time>
      </trkpt>
      <trkpt lat="45.94949" lon="4.80408">
        <ele>258</ele>
        <time>2016-11-05T10:58:38Z</time>
      </trkpt>
      <trkpt lat="45.94949" lon="4.804">
        <ele>258</ele>
        <time>2016-11-05T10:58:39Z</time>
      </trkpt>
      <trkpt lat="45.94949" lon="4.80392">
        <ele>258</ele>
        <time>2016-11-05T10:58:40Z</time>
      </trkpt>
      <trkpt lat="45.94948" lon="4.80383">
        <ele>258</ele>
        <time>2016-11-05T10:58:41Z</time>
      </trkpt>
      <trkpt lat="45.94947" lon="4.80375">
        <ele>258</ele>
        <time>2016-11-05T10:58:42Z</time>
      </trkpt>
      <trkpt lat="45.94946" lon="4.80366">
        <ele>258</ele>
        <time>2016-11-05T10:58:43Z</time>
      </trkpt>
      <trkpt lat="45.94946" lon="4.80357">
        <ele>258</ele>
        <time>2016-11-05T10:58:44Z</time>
      </trkpt>
      <trkpt lat="45.94946" lon="4.80348">
        <ele>258</ele>
        <time>2016-11-05T10:58:45Z</time>
      </trkpt>
      <trkpt lat="45.94946" lon="4.80339">
        <ele>258</ele>
        <time>2016-11-05T10:58:46Z</time>
      </trkpt>
      <trkpt lat="45.94945" lon="4.8033">
        <ele>257</ele>
        <time>2016-11-05T10:58:47Z</time>
      </trkpt>
      <trkpt lat="45.94945" lon="4.80321">
        <ele>257</ele>
        <time>2016-11-05T10:58:48Z</time>
      </trkpt>
      <trkpt lat="45.94945" lon="4.80313">
        <ele>257</ele>
        <time>2016-11-05T10:58:49Z</time>
      </trkpt>
      <trkpt lat="45.94944" lon="4.80305">
        <ele>257</ele>
        <time>2016-11-05T10:58:50Z</time>
      </trkpt>
      <trkpt lat="45.94943" lon="4.80297">
        <ele>257</ele>
        <time>2016-11-05T10:58:51Z</time>
      </trkpt>
      <trkpt lat="45.94943" lon="4.80289">
        <ele>257</ele>
        <time>2016-11-05T10:58:52Z</time>
      </trkpt>
      <trkpt lat="45.94942" lon="4.80281">
        <ele>257</ele>
        <time>2016-11-05T10:58:53Z</time>
      </trkpt>
      <trkpt lat="45.94941" lon="4.80273">
        <ele>257</ele>
        <time>2016-11-05T10:58:54Z</time>
      </trkpt>
      <trkpt lat="45.94941" lon="4.80265">
        <ele>257</ele>
        <time>2016-11-05T10:58:55Z</time>
      </trkpt>
      <trkpt lat="45.9494" lon="4.80256">
        <ele>257</ele>
        <time>2016-11-05T10:58:56Z</time>
      </trkpt>
      <trkpt lat="45.94939" lon="4.80248">
        <ele>256</ele>
        <time>2016-11-05T10:58:57Z</time>
      </trkpt>
      <trkpt lat="45.94938" lon="4.8024">
        <ele>256</ele>
        <time>2016-11-05T10:58:58Z</time>
      </trkpt>
      <trkpt lat="45.94938" lon="4.80231">
        <ele>256</ele>
        <time>2016-11-05T10:58:59Z</time>
      </trkpt>
      <trkpt lat="45.94937" lon="4.80222">
        <ele>256</ele>
        <time>2016-11-05T10:59:00Z</time>
      </trkpt>
      <trkpt lat="45.94936" lon="4.80214">
        <ele>256</ele>
        <time>2016-11-05T10:59:01Z</time>
      </trkpt>
      <trkpt lat="45.94935" lon="4.80205">
        <ele>256</ele>
        <time>2016-11-05T10:59:02Z</time>
      </trkpt>
      <trkpt lat="45.94934" lon="4.80197">
        <ele>256</ele>
        <time>2016-11-05T10:59:03Z</time>
      </trkpt>
      <trkpt lat="45.94933" lon="4.80188">
        <ele>256</ele>
        <time>2016-11-05T10:59:04Z</time>
      </trkpt>
      <trkpt lat="45.94932" lon="4.8018">
        <ele>256</ele>
        <time>2016-11-05T10:59:05Z</time>
      </trkpt>
      <trkpt lat="45.94931" lon="4.80172">
        <ele>255</ele>
        <time>2016-11-05T10:59:06Z</time>
      </trkpt>
      <trkpt lat="45.9493" lon="4.80164">
        <ele>255</ele>
        <time>2016-11-05T10:59:07Z</time>
      </trkpt>
      <trkpt lat="45.94928" lon="4.80156">
        <ele>255</ele>
        <time>2016-11-05T10:59:08Z</time>
      </trkpt>
      <trkpt lat="45.94927" lon="4.80148">
        <ele>256</ele>
        <time>2016-11-05T10:59:09Z</time>
      </trkpt>
      <trkpt lat="45.94927" lon="4.8014">
        <ele>256</ele>
        <time>2016-11-05T10:59:10Z</time>
      </trkpt>
      <trkpt lat="45.94925" lon="4.80132">
        <ele>256</ele>
        <time>2016-11-05T10:59:11Z</time>
      </trkpt>
      <trkpt lat="45.94924" lon="4.80125">
        <ele>256</ele>
        <time>2016-11-05T10:59:12Z</time>
      </trkpt>
      <trkpt lat="45.94922" lon="4.80117">
        <ele>256</ele>
        <time>2016-11-05T10:59:13Z</time>
      </trkpt>
      <trkpt lat="45.9492" lon="4.80109">
        <ele>256</ele>
        <time>2016-11-05T10:59:14Z</time>
      </trkpt>
      <trkpt lat="45.94918" lon="4.80101">
        <ele>256</ele>
        <time>2016-11-05T10:59:15Z</time>
      </trkpt>
      <trkpt lat="45.94917" lon="4.80093">
        <ele>257</ele>
        <time>2016-11-05T10:59:16Z</time>
      </trkpt>
      <trkpt lat="45.94915" lon="4.80086">
        <ele>257</ele>
        <time>2016-11-05T10:59:17Z</time>
      </trkpt>
      <trkpt lat="45.94914" lon="4.80078">
        <ele>257</ele>
        <time>2016-11-05T10:59:18Z</time>
      </trkpt>
      <trkpt lat="45.94912" lon="4.80071">
        <ele>257</ele>
        <time>2016-11-05T10:59:19Z</time>
      </trkpt>
      <trkpt lat="45.9491" lon="4.80063">
        <ele>256</ele>
        <time>2016-11-05T10:59:20Z</time>
      </trkpt>
      <trkpt lat="45.94907" lon="4.80055">
        <ele>256</ele>
        <time>2016-11-05T10:59:21Z</time>
      </trkpt>
      <trkpt lat="45.94905" lon="4.80046">
        <ele>256</ele>
        <time>2016-11-05T10:59:22Z</time>
      </trkpt>
      <trkpt lat="45.94902" lon="4.80038">
        <ele>256</ele>
        <time>2016-11-05T10:59:23Z</time>
      </trkpt>
      <trkpt lat="45.94899" lon="4.8003">
        <ele>256</ele>
        <time>2016-11-05T10:59:24Z</time>
      </trkpt>
      <trkpt lat="45.94896" lon="4.80023">
        <ele>256</ele>
        <time>2016-11-05T10:59:25Z</time>
      </trkpt>
      <trkpt lat="45.94893" lon="4.80015">
        <ele>256</ele>
        <time>2016-11-05T10:59:26Z</time>
      </trkpt>
      <trkpt lat="45.9489" lon="4.80006">
        <ele>256</ele>
        <time>2016-11-05T10:59:27Z</time>
      </trkpt>
      <trkpt lat="45.94887" lon="4.79998">
        <ele>256</ele>
        <time>2016-11-05T10:59:28Z</time>
      </trkpt>
      <trkpt lat="45.94884" lon="4.7999">
        <ele>256</ele>
        <time>2016-11-05T10:59:29Z</time>
      </trkpt>
      <trkpt lat="45.94882" lon="4.79983">
        <ele>256</ele>
        <time>2016-11-05T10:59:30Z</time>
      </trkpt>
      <trkpt lat="45.94879" lon="4.79975">
        <ele>256</ele>
        <time>2016-11-05T10:59:31Z</time>
      </trkpt>
      <trkpt lat="45.94876" lon="4.79968">
        <ele>256</ele>
        <time>2016-11-05T10:59:32Z</time>
      </trkpt>
      <trkpt lat="45.94873" lon="4.79961">
        <ele>256</ele>
        <time>2016-11-05T10:59:33Z</time>
      </trkpt>
      <trkpt lat="45.94871" lon="4.79953">
        <ele>256</ele>
        <time>2016-11-05T10:59:34Z</time>
      </trkpt>
      <trkpt lat="45.94869" lon="4.79946">
        <ele>256</ele>
        <time>2016-11-05T10:59:35Z</time>
      </trkpt>
      <trkpt lat="45.94866" lon="4.79938">
        <ele>256</ele>
        <time>2016-11-05T10:59:36Z</time>
      </trkpt>
      <trkpt lat="45.94863" lon="4.7993">
        <ele>256</ele>
        <time>2016-11-05T10:59:37Z</time>
      </trkpt>
      <trkpt lat="45.9486" lon="4.79922">
        <ele>256</ele>
        <time>2016-11-05T10:59:38Z</time>
      </trkpt>
      <trkpt lat="45.94852" lon="4.79899">
        <ele>255</ele>
        <time>2016-11-05T10:59:41Z</time>
      </trkpt>
      <trkpt lat="45.94833" lon="4.79851">
        <ele>254</ele>
        <time>2016-11-05T10:59:47Z</time>
      </trkpt>
      <trkpt lat="45.94831" lon="4.79841">
        <ele>254</ele>
        <time>2016-11-05T10:59:48Z</time>
      </trkpt>
      <trkpt lat="45.94829" lon="4.79832">
        <ele>254</ele>
        <time>2016-11-05T10:59:49Z</time>
      </trkpt>
      <trkpt lat="45.94827" lon="4.79823">
        <ele>254</ele>
        <time>2016-11-05T10:59:50Z</time>
      </trkpt>
      <trkpt lat="45.94824" lon="4.79815">
        <ele>254</ele>
        <time>2016-11-05T10:59:51Z</time>
      </trkpt>
      <trkpt lat="45.94822" lon="4.79806">
        <ele>254</ele>
        <time>2016-11-05T10:59:52Z</time>
      </trkpt>
      <trkpt lat="45.9482" lon="4.79797">
        <ele>254</ele>
        <time>2016-11-05T10:59:53Z</time>
      </trkpt>
      <trkpt lat="45.94817" lon="4.79789">
        <ele>254</ele>
        <time>2016-11-05T10:59:54Z</time>
      </trkpt>
      <trkpt lat="45.94814" lon="4.79781">
        <ele>254</ele>
        <time>2016-11-05T10:59:55Z</time>
      </trkpt>
      <trkpt lat="45.94811" lon="4.79773">
        <ele>254</ele>
        <time>2016-11-05T10:59:56Z</time>
      </trkpt>
      <trkpt lat="45.94809" lon="4.79765">
        <ele>254</ele>
        <time>2016-11-05T10:59:57Z</time>
      </trkpt>
      <trkpt lat="45.94806" lon="4.79748">
        <ele>254</ele>
        <time>2016-11-05T10:59:59Z</time>
      </trkpt>
      <trkpt lat="45.94802" lon="4.79738">
        <ele>254</ele>
        <time>2016-11-05T11:00:00Z</time>
      </trkpt>
      <trkpt lat="45.948" lon="4.79729">
        <ele>254</ele>
        <time>2016-11-05T11:00:01Z</time>
      </trkpt>
      <trkpt lat="45.94799" lon="4.79722">
        <ele>254</ele>
        <time>2016-11-05T11:00:02Z</time>
      </trkpt>
      <trkpt lat="45.94796" lon="4.79713">
        <ele>254</ele>
        <time>2016-11-05T11:00:03Z</time>
      </trkpt>
      <trkpt lat="45.94794" lon="4.79705">
        <ele>254</ele>
        <time>2016-11-05T11:00:04Z</time>
      </trkpt>
      <trkpt lat="45.94792" lon="4.79697">
        <ele>254</ele>
        <time>2016-11-05T11:00:05Z</time>
      </trkpt>
      <trkpt lat="45.9479" lon="4.79689">
        <ele>254</ele>
        <time>2016-11-05T11:00:06Z</time>
      </trkpt>
      <trkpt lat="45.94787" lon="4.79683">
        <ele>254</ele>
        <time>2016-11-05T11:00:07Z</time>
      </trkpt>
      <trkpt lat="45.94785" lon="4.79675">
        <ele>254</ele>
        <time>2016-11-05T11:00:08Z</time>
      </trkpt>
      <trkpt lat="45.94784" lon="4.79668">
        <ele>254</ele>
        <time>2016-11-05T11:00:09Z</time>
      </trkpt>
      <trkpt lat="45.94782" lon="4.7966">
        <ele>254</ele>
        <time>2016-11-05T11:00:10Z</time>
      </trkpt>
      <trkpt lat="45.9478" lon="4.79653">
        <ele>254</ele>
        <time>2016-11-05T11:00:11Z</time>
      </trkpt>
      <trkpt lat="45.94778" lon="4.79647">
        <ele>254</ele>
        <time>2016-11-05T11:00:12Z</time>
      </trkpt>
      <trkpt lat="45.94774" lon="4.79632">
        <ele>253</ele>
        <time>2016-11-05T11:00:14Z</time>
      </trkpt>
      <trkpt lat="45.94772" lon="4.79627">
        <ele>253</ele>
        <time>2016-11-05T11:00:15Z</time>
      </trkpt>
      <trkpt lat="45.9477" lon="4.7962">
        <ele>253</ele>
        <time>2016-11-05T11:00:16Z</time>
      </trkpt>
      <trkpt lat="45.94768" lon="4.79613">
        <ele>253</ele>
        <time>2016-11-05T11:00:17Z</time>
      </trkpt>
      <trkpt lat="45.94767" lon="4.79587">
        <ele>253</ele>
        <time>2016-11-05T11:00:22Z</time>
      </trkpt>
      <trkpt lat="45.94768" lon="4.79585">
        <ele>253</ele>
        <time>2016-11-05T11:00:23Z</time>
      </trkpt>
      <trkpt lat="45.94768" lon="4.79585">
        <ele>253</ele>
        <time>2016-11-05T11:00:24Z</time>
      </trkpt>
      <trkpt lat="45.94772" lon="4.7958">
        <ele>252</ele>
        <time>2016-11-05T11:00:31Z</time>
      </trkpt>
      <trkpt lat="45.94771" lon="4.79576">
        <ele>252</ele>
        <time>2016-11-05T11:00:32Z</time>
      </trkpt>
      <trkpt lat="45.94769" lon="4.79571">
        <ele>252</ele>
        <time>2016-11-05T11:00:33Z</time>
      </trkpt>
      <trkpt lat="45.94766" lon="4.79564">
        <ele>252</ele>
        <time>2016-11-05T11:00:34Z</time>
      </trkpt>
      <trkpt lat="45.94764" lon="4.79558">
        <ele>252</ele>
        <time>2016-11-05T11:00:35Z</time>
      </trkpt>
      <trkpt lat="45.94761" lon="4.79551">
        <ele>252</ele>
        <time>2016-11-05T11:00:36Z</time>
      </trkpt>
      <trkpt lat="45.94758" lon="4.79544">
        <ele>252</ele>
        <time>2016-11-05T11:00:37Z</time>
      </trkpt>
      <trkpt lat="45.94755" lon="4.79536">
        <ele>252</ele>
        <time>2016-11-05T11:00:38Z</time>
      </trkpt>
      <trkpt lat="45.94753" lon="4.79529">
        <ele>252</ele>
        <time>2016-11-05T11:00:39Z</time>
      </trkpt>
      <trkpt lat="45.9475" lon="4.79522">
        <ele>253</ele>
        <time>2016-11-05T11:00:40Z</time>
      </trkpt>
      <trkpt lat="45.94747" lon="4.79514">
        <ele>252</ele>
        <time>2016-11-05T11:00:41Z</time>
      </trkpt>
      <trkpt lat="45.94744" lon="4.79506">
        <ele>252</ele>
        <time>2016-11-05T11:00:42Z</time>
      </trkpt>
      <trkpt lat="45.94741" lon="4.79498">
        <ele>252</ele>
        <time>2016-11-05T11:00:43Z</time>
      </trkpt>
      <trkpt lat="45.94738" lon="4.79491">
        <ele>252</ele>
        <time>2016-11-05T11:00:44Z</time>
      </trkpt>
      <trkpt lat="45.94734" lon="4.79483">
        <ele>253</ele>
        <time>2016-11-05T11:00:45Z</time>
      </trkpt>
      <trkpt lat="45.94731" lon="4.79476">
        <ele>253</ele>
        <time>2016-11-05T11:00:46Z</time>
      </trkpt>
      <trkpt lat="45.94728" lon="4.79469">
        <ele>253</ele>
        <time>2016-11-05T11:00:47Z</time>
      </trkpt>
      <trkpt lat="45.94726" lon="4.79461">
        <ele>253</ele>
        <time>2016-11-05T11:00:48Z</time>
      </trkpt>
      <trkpt lat="45.94723" lon="4.79455">
        <ele>253</ele>
        <time>2016-11-05T11:00:49Z</time>
      </trkpt>
      <trkpt lat="45.94721" lon="4.79449">
        <ele>253</ele>
        <time>2016-11-05T11:00:50Z</time>
      </trkpt>
      <trkpt lat="45.94719" lon="4.79443">
        <ele>253</ele>
        <time>2016-11-05T11:00:51Z</time>
      </trkpt>
      <trkpt lat="45.94716" lon="4.79438">
        <ele>253</ele>
        <time>2016-11-05T11:00:52Z</time>
      </trkpt>
      <trkpt lat="45.94713" lon="4.79432">
        <ele>253</ele>
        <time>2016-11-05T11:00:53Z</time>
      </trkpt>
      <trkpt lat="45.9471" lon="4.79426">
        <ele>253</ele>
        <time>2016-11-05T11:00:54Z</time>
      </trkpt>
      <trkpt lat="45.94707" lon="4.79419">
        <ele>253</ele>
        <time>2016-11-05T11:00:55Z</time>
      </trkpt>
      <trkpt lat="45.94704" lon="4.79412">
        <ele>253</ele>
        <time>2016-11-05T11:00:56Z</time>
      </trkpt>
      <trkpt lat="45.94701" lon="4.79406">
        <ele>253</ele>
        <time>2016-11-05T11:00:57Z</time>
      </trkpt>
      <trkpt lat="45.94699" lon="4.79399">
        <ele>253</ele>
        <time>2016-11-05T11:00:58Z</time>
      </trkpt>
      <trkpt lat="45.94696" lon="4.79392">
        <ele>253</ele>
        <time>2016-11-05T11:00:59Z</time>
      </trkpt>
      <trkpt lat="45.94692" lon="4.79385">
        <ele>253</ele>
        <time>2016-11-05T11:01:00Z</time>
      </trkpt>
      <trkpt lat="45.94689" lon="4.79379">
        <ele>253</ele>
        <time>2016-11-05T11:01:01Z</time>
      </trkpt>
      <trkpt lat="45.94685" lon="4.79373">
        <ele>253</ele>
        <time>2016-11-05T11:01:02Z</time>
      </trkpt>
      <trkpt lat="45.94682" lon="4.79367">
        <ele>253</ele>
        <time>2016-11-05T11:01:03Z</time>
      </trkpt>
      <trkpt lat="45.94679" lon="4.79361">
        <ele>253</ele>
        <time>2016-11-05T11:01:04Z</time>
      </trkpt>
      <trkpt lat="45.94676" lon="4.79354">
        <ele>253</ele>
        <time>2016-11-05T11:01:05Z</time>
      </trkpt>
      <trkpt lat="45.94673" lon="4.79348">
        <ele>253</ele>
        <time>2016-11-05T11:01:06Z</time>
      </trkpt>
      <trkpt lat="45.9467" lon="4.79342">
        <ele>254</ele>
        <time>2016-11-05T11:01:07Z</time>
      </trkpt>
      <trkpt lat="45.94666" lon="4.79336">
        <ele>254</ele>
        <time>2016-11-05T11:01:08Z</time>
      </trkpt>
      <trkpt lat="45.94663" lon="4.79329">
        <ele>254</ele>
        <time>2016-11-05T11:01:09Z</time>
      </trkpt>
      <trkpt lat="45.9466" lon="4.79322">
        <ele>254</ele>
        <time>2016-11-05T11:01:10Z</time>
      </trkpt>
      <trkpt lat="45.94656" lon="4.79315">
        <ele>254</ele>
        <time>2016-11-05T11:01:11Z</time>
      </trkpt>
      <trkpt lat="45.94652" lon="4.79308">
        <ele>254</ele>
        <time>2016-11-05T11:01:12Z</time>
      </trkpt>
      <trkpt lat="45.94649" lon="4.79301">
        <ele>254</ele>
        <time>2016-11-05T11:01:13Z</time>
      </trkpt>
      <trkpt lat="45.94645" lon="4.79294">
        <ele>254</ele>
        <time>2016-11-05T11:01:14Z</time>
      </trkpt>
      <trkpt lat="45.94642" lon="4.79286">
        <ele>254</ele>
        <time>2016-11-05T11:01:15Z</time>
      </trkpt>
      <trkpt lat="45.94636" lon="4.79272">
        <ele>254</ele>
        <time>2016-11-05T11:01:17Z</time>
      </trkpt>
      <trkpt lat="45.94632" lon="4.79263">
        <ele>254</ele>
        <time>2016-11-05T11:01:18Z</time>
      </trkpt>
      <trkpt lat="45.94628" lon="4.79256">
        <ele>254</ele>
        <time>2016-11-05T11:01:19Z</time>
      </trkpt>
      <trkpt lat="45.94625" lon="4.79248">
        <ele>256</ele>
        <time>2016-11-05T11:01:20Z</time>
      </trkpt>
      <trkpt lat="45.94621" lon="4.79241">
        <ele>256</ele>
        <time>2016-11-05T11:01:21Z</time>
      </trkpt>
      <trkpt lat="45.94618" lon="4.79235">
        <ele>256</ele>
        <time>2016-11-05T11:01:22Z</time>
      </trkpt>
      <trkpt lat="45.94615" lon="4.7923">
        <ele>256</ele>
        <time>2016-11-05T11:01:23Z</time>
      </trkpt>
      <trkpt lat="45.94611" lon="4.79224">
        <ele>256</ele>
        <time>2016-11-05T11:01:24Z</time>
      </trkpt>
      <trkpt lat="45.94607" lon="4.79219">
        <ele>256</ele>
        <time>2016-11-05T11:01:25Z</time>
      </trkpt>
      <trkpt lat="45.94604" lon="4.79213">
        <ele>257</ele>
        <time>2016-11-05T11:01:26Z</time>
      </trkpt>
      <trkpt lat="45.946" lon="4.79207">
        <ele>257</ele>
        <time>2016-11-05T11:01:27Z</time>
      </trkpt>
      <trkpt lat="45.94596" lon="4.79201">
        <ele>257</ele>
        <time>2016-11-05T11:01:28Z</time>
      </trkpt>
      <trkpt lat="45.94593" lon="4.79195">
        <ele>257</ele>
        <time>2016-11-05T11:01:29Z</time>
      </trkpt>
      <trkpt lat="45.94589" lon="4.79188">
        <ele>258</ele>
        <time>2016-11-05T11:01:30Z</time>
      </trkpt>
      <trkpt lat="45.94586" lon="4.79182">
        <ele>258</ele>
        <time>2016-11-05T11:01:31Z</time>
      </trkpt>
      <trkpt lat="45.94581" lon="4.79176">
        <ele>258</ele>
        <time>2016-11-05T11:01:32Z</time>
      </trkpt>
      <trkpt lat="45.94576" lon="4.79171">
        <ele>258</ele>
        <time>2016-11-05T11:01:33Z</time>
      </trkpt>
      <trkpt lat="45.94573" lon="4.79165">
        <ele>258</ele>
        <time>2016-11-05T11:01:34Z</time>
      </trkpt>
      <trkpt lat="45.94569" lon="4.79159">
        <ele>258</ele>
        <time>2016-11-05T11:01:35Z</time>
      </trkpt>
      <trkpt lat="45.94566" lon="4.79152">
        <ele>257</ele>
        <time>2016-11-05T11:01:36Z</time>
      </trkpt>
      <trkpt lat="45.94563" lon="4.79146">
        <ele>257</ele>
        <time>2016-11-05T11:01:37Z</time>
      </trkpt>
      <trkpt lat="45.94561" lon="4.79141">
        <ele>257</ele>
        <time>2016-11-05T11:01:38Z</time>
      </trkpt>
      <trkpt lat="45.94558" lon="4.79135">
        <ele>257</ele>
        <time>2016-11-05T11:01:39Z</time>
      </trkpt>
      <trkpt lat="45.94555" lon="4.79129">
        <ele>257</ele>
        <time>2016-11-05T11:01:40Z</time>
      </trkpt>
      <trkpt lat="45.94553" lon="4.79122">
        <ele>257</ele>
        <time>2016-11-05T11:01:41Z</time>
      </trkpt>
      <trkpt lat="45.9455" lon="4.79116">
        <ele>256</ele>
        <time>2016-11-05T11:01:42Z</time>
      </trkpt>
      <trkpt lat="45.94547" lon="4.79109">
        <ele>256</ele>
        <time>2016-11-05T11:01:43Z</time>
      </trkpt>
      <trkpt lat="45.94543" lon="4.79102">
        <ele>256</ele>
        <time>2016-11-05T11:01:44Z</time>
      </trkpt>
      <trkpt lat="45.9454" lon="4.79094">
        <ele>256</ele>
        <time>2016-11-05T11:01:45Z</time>
      </trkpt>
      <trkpt lat="45.94537" lon="4.79087">
        <ele>256</ele>
        <time>2016-11-05T11:01:46Z</time>
      </trkpt>
      <trkpt lat="45.94533" lon="4.7908">
        <ele>255</ele>
        <time>2016-11-05T11:01:47Z</time>
      </trkpt>
      <trkpt lat="45.94531" lon="4.79069">
        <ele>255</ele>
        <time>2016-11-05T11:01:48Z</time>
      </trkpt>
      <trkpt lat="45.94527" lon="4.79057">
        <ele>255</ele>
        <time>2016-11-05T11:01:49Z</time>
      </trkpt>
      <trkpt lat="45.94522" lon="4.79049">
        <ele>255</ele>
        <time>2016-11-05T11:01:50Z</time>
      </trkpt>
      <trkpt lat="45.94517" lon="4.79044">
        <ele>255</ele>
        <time>2016-11-05T11:01:51Z</time>
      </trkpt>
      <trkpt lat="45.94513" lon="4.79036">
        <ele>255</ele>
        <time>2016-11-05T11:01:52Z</time>
      </trkpt>
      <trkpt lat="45.94505" lon="4.79022">
        <ele>255</ele>
        <time>2016-11-05T11:01:54Z</time>
      </trkpt>
      <trkpt lat="45.94496" lon="4.79006">
        <ele>254</ele>
        <time>2016-11-05T11:01:56Z</time>
      </trkpt>
      <trkpt lat="45.94492" lon="4.78998">
        <ele>254</ele>
        <time>2016-11-05T11:01:57Z</time>
      </trkpt>
      <trkpt lat="45.94488" lon="4.78989">
        <ele>254</ele>
        <time>2016-11-05T11:01:58Z</time>
      </trkpt>
      <trkpt lat="45.94483" lon="4.7898">
        <ele>254</ele>
        <time>2016-11-05T11:01:59Z</time>
      </trkpt>
      <trkpt lat="45.94478" lon="4.78971">
        <ele>254</ele>
        <time>2016-11-05T11:02:00Z</time>
      </trkpt>
      <trkpt lat="45.94474" lon="4.78961">
        <ele>254</ele>
        <time>2016-11-05T11:02:01Z</time>
      </trkpt>
      <trkpt lat="45.9447" lon="4.7895">
        <ele>254</ele>
        <time>2016-11-05T11:02:02Z</time>
      </trkpt>
      <trkpt lat="45.94466" lon="4.78939">
        <ele>254</ele>
        <time>2016-11-05T11:02:03Z</time>
      </trkpt>
      <trkpt lat="45.94461" lon="4.78929">
        <ele>254</ele>
        <time>2016-11-05T11:02:04Z</time>
      </trkpt>
      <trkpt lat="45.94459" lon="4.78917">
        <ele>254</ele>
        <time>2016-11-05T11:02:05Z</time>
      </trkpt>
      <trkpt lat="45.94456" lon="4.78904">
        <ele>253</ele>
        <time>2016-11-05T11:02:06Z</time>
      </trkpt>
      <trkpt lat="45.94456" lon="4.78889">
        <ele>253</ele>
        <time>2016-11-05T11:02:07Z</time>
      </trkpt>
      <trkpt lat="45.94456" lon="4.78874">
        <ele>253</ele>
        <time>2016-11-05T11:02:08Z</time>
      </trkpt>
      <trkpt lat="45.94457" lon="4.78859">
        <ele>253</ele>
        <time>2016-11-05T11:02:09Z</time>
      </trkpt>
      <trkpt lat="45.9446" lon="4.78843">
        <ele>253</ele>
        <time>2016-11-05T11:02:10Z</time>
      </trkpt>
      <trkpt lat="45.94464" lon="4.78827">
        <ele>251</ele>
        <time>2016-11-05T11:02:11Z</time>
      </trkpt>
      <trkpt lat="45.94469" lon="4.78811">
        <ele>251</ele>
        <time>2016-11-05T11:02:12Z</time>
      </trkpt>
      <trkpt lat="45.94472" lon="4.78794">
        <ele>250</ele>
        <time>2016-11-05T11:02:13Z</time>
      </trkpt>
      <trkpt lat="45.94475" lon="4.78779">
        <ele>250</ele>
        <time>2016-11-05T11:02:14Z</time>
      </trkpt>
      <trkpt lat="45.94479" lon="4.7876">
        <ele>249</ele>
        <time>2016-11-05T11:02:15Z</time>
      </trkpt>
      <trkpt lat="45.94479" lon="4.78745">
        <ele>246</ele>
        <time>2016-11-05T11:02:16Z</time>
      </trkpt>
      <trkpt lat="45.94478" lon="4.78728">
        <ele>246</ele>
        <time>2016-11-05T11:02:17Z</time>
      </trkpt>
      <trkpt lat="45.94477" lon="4.78711">
        <ele>245</ele>
        <time>2016-11-05T11:02:18Z</time>
      </trkpt>
      <trkpt lat="45.94474" lon="4.78694">
        <ele>244</ele>
        <time>2016-11-05T11:02:19Z</time>
      </trkpt>
      <trkpt lat="45.94472" lon="4.78678">
        <ele>244</ele>
        <time>2016-11-05T11:02:20Z</time>
      </trkpt>
      <trkpt lat="45.94469" lon="4.78661">
        <ele>241</ele>
        <time>2016-11-05T11:02:21Z</time>
      </trkpt>
      <trkpt lat="45.94466" lon="4.78645">
        <ele>241</ele>
        <time>2016-11-05T11:02:22Z</time>
      </trkpt>
      <trkpt lat="45.94463" lon="4.78628">
        <ele>241</ele>
        <time>2016-11-05T11:02:23Z</time>
      </trkpt>
      <trkpt lat="45.94459" lon="4.78611">
        <ele>241</ele>
        <time>2016-11-05T11:02:24Z</time>
      </trkpt>
      <trkpt lat="45.94453" lon="4.78596">
        <ele>240</ele>
        <time>2016-11-05T11:02:25Z</time>
      </trkpt>
      <trkpt lat="45.94448" lon="4.78581">
        <ele>239</ele>
        <time>2016-11-05T11:02:26Z</time>
      </trkpt>
      <trkpt lat="45.94442" lon="4.78566">
        <ele>239</ele>
        <time>2016-11-05T11:02:27Z</time>
      </trkpt>
      <trkpt lat="45.94433" lon="4.78548">
        <ele>239</ele>
        <time>2016-11-05T11:02:28Z</time>
      </trkpt>
      <trkpt lat="45.94425" lon="4.78532">
        <ele>238</ele>
        <time>2016-11-05T11:02:29Z</time>
      </trkpt>
      <trkpt lat="45.94418" lon="4.7852">
        <ele>237</ele>
        <time>2016-11-05T11:02:30Z</time>
      </trkpt>
      <trkpt lat="45.9441" lon="4.78508">
        <ele>235</ele>
        <time>2016-11-05T11:02:31Z</time>
      </trkpt>
      <trkpt lat="45.94403" lon="4.785">
        <ele>236</ele>
        <time>2016-11-05T11:02:32Z</time>
      </trkpt>
      <trkpt lat="45.94394" lon="4.78491">
        <ele>235</ele>
        <time>2016-11-05T11:02:33Z</time>
      </trkpt>
      <trkpt lat="45.94358" lon="4.78449">
        <ele>235</ele>
        <time>2016-11-05T11:02:37Z</time>
      </trkpt>
      <trkpt lat="45.9435" lon="4.78438">
        <ele>234</ele>
        <time>2016-11-05T11:02:38Z</time>
      </trkpt>
      <trkpt lat="45.94342" lon="4.78426">
        <ele>232</ele>
        <time>2016-11-05T11:02:39Z</time>
      </trkpt>
      <trkpt lat="45.94334" lon="4.78413">
        <ele>230</ele>
        <time>2016-11-05T11:02:40Z</time>
      </trkpt>
      <trkpt lat="45.94328" lon="4.784">
        <ele>230</ele>
        <time>2016-11-05T11:02:41Z</time>
      </trkpt>
      <trkpt lat="45.94321" lon="4.78387">
        <ele>230</ele>
        <time>2016-11-05T11:02:42Z</time>
      </trkpt>
      <trkpt lat="45.94315" lon="4.78374">
        <ele>229</ele>
        <time>2016-11-05T11:02:43Z</time>
      </trkpt>
      <trkpt lat="45.94308" lon="4.78362">
        <ele>229</ele>
        <time>2016-11-05T11:02:44Z</time>
      </trkpt>
      <trkpt lat="45.94302" lon="4.7835">
        <ele>229</ele>
        <time>2016-11-05T11:02:45Z</time>
      </trkpt>
      <trkpt lat="45.94295" lon="4.78339">
        <ele>228</ele>
        <time>2016-11-05T11:02:46Z</time>
      </trkpt>
      <trkpt lat="45.94287" lon="4.78329">
        <ele>228</ele>
        <time>2016-11-05T11:02:47Z</time>
      </trkpt>
      <trkpt lat="45.94278" lon="4.7832">
        <ele>228</ele>
        <time>2016-11-05T11:02:48Z</time>
      </trkpt>
      <trkpt lat="45.94269" lon="4.78313">
        <ele>227</ele>
        <time>2016-11-05T11:02:49Z</time>
      </trkpt>
      <trkpt lat="45.9426" lon="4.78307">
        <ele>227</ele>
        <time>2016-11-05T11:02:50Z</time>
      </trkpt>
      <trkpt lat="45.9425" lon="4.78303">
        <ele>222</ele>
        <time>2016-11-05T11:02:51Z</time>
      </trkpt>
      <trkpt lat="45.9424" lon="4.78299">
        <ele>222</ele>
        <time>2016-11-05T11:02:52Z</time>
      </trkpt>
      <trkpt lat="45.9423" lon="4.78296">
        <ele>222</ele>
        <time>2016-11-05T11:02:53Z</time>
      </trkpt>
      <trkpt lat="45.94221" lon="4.78295">
        <ele>222</ele>
        <time>2016-11-05T11:02:54Z</time>
      </trkpt>
      <trkpt lat="45.94212" lon="4.78294">
        <ele>222</ele>
        <time>2016-11-05T11:02:55Z</time>
      </trkpt>
      <trkpt lat="45.94203" lon="4.78292">
        <ele>221</ele>
        <time>2016-11-05T11:02:56Z</time>
      </trkpt>
      <trkpt lat="45.94194" lon="4.78289">
        <ele>221</ele>
        <time>2016-11-05T11:02:57Z</time>
      </trkpt>
      <trkpt lat="45.94184" lon="4.78284">
        <ele>221</ele>
        <time>2016-11-05T11:02:58Z</time>
      </trkpt>
      <trkpt lat="45.94175" lon="4.78278">
        <ele>221</ele>
        <time>2016-11-05T11:02:59Z</time>
      </trkpt>
      <trkpt lat="45.94167" lon="4.78272">
        <ele>216</ele>
        <time>2016-11-05T11:03:00Z</time>
      </trkpt>
      <trkpt lat="45.94158" lon="4.78266">
        <ele>216</ele>
        <time>2016-11-05T11:03:01Z</time>
      </trkpt>
      <trkpt lat="45.94149" lon="4.7826">
        <ele>216</ele>
        <time>2016-11-05T11:03:02Z</time>
      </trkpt>
      <trkpt lat="45.9414" lon="4.78254">
        <ele>215</ele>
        <time>2016-11-05T11:03:03Z</time>
      </trkpt>
      <trkpt lat="45.94131" lon="4.78248">
        <ele>215</ele>
        <time>2016-11-05T11:03:04Z</time>
      </trkpt>
      <trkpt lat="45.94122" lon="4.78243">
        <ele>215</ele>
        <time>2016-11-05T11:03:05Z</time>
      </trkpt>
      <trkpt lat="45.94114" lon="4.78237">
        <ele>214</ele>
        <time>2016-11-05T11:03:06Z</time>
      </trkpt>
      <trkpt lat="45.94105" lon="4.78232">
        <ele>213</ele>
        <time>2016-11-05T11:03:07Z</time>
      </trkpt>
      <trkpt lat="45.94096" lon="4.78226">
        <ele>213</ele>
        <time>2016-11-05T11:03:08Z</time>
      </trkpt>
      <trkpt lat="45.94088" lon="4.78221">
        <ele>213</ele>
        <time>2016-11-05T11:03:09Z</time>
      </trkpt>
      <trkpt lat="45.94079" lon="4.78214">
        <ele>206</ele>
        <time>2016-11-05T11:03:10Z</time>
      </trkpt>
      <trkpt lat="45.9407" lon="4.78208">
        <ele>206</ele>
        <time>2016-11-05T11:03:11Z</time>
      </trkpt>
      <trkpt lat="45.94061" lon="4.78202">
        <ele>206</ele>
        <time>2016-11-05T11:03:12Z</time>
      </trkpt>
      <trkpt lat="45.94051" lon="4.78196">
        <ele>206</ele>
        <time>2016-11-05T11:03:13Z</time>
      </trkpt>
      <trkpt lat="45.94042" lon="4.7819">
        <ele>205</ele>
        <time>2016-11-05T11:03:14Z</time>
      </trkpt>
      <trkpt lat="45.94033" lon="4.78184">
        <ele>204</ele>
        <time>2016-11-05T11:03:15Z</time>
      </trkpt>
      <trkpt lat="45.94024" lon="4.78178">
        <ele>204</ele>
        <time>2016-11-05T11:03:16Z</time>
      </trkpt>
      <trkpt lat="45.94015" lon="4.78173">
        <ele>203</ele>
        <time>2016-11-05T11:03:17Z</time>
      </trkpt>
      <trkpt lat="45.9401" lon="4.78171">
        <ele>202</ele>
        <time>2016-11-05T11:03:18Z</time>
      </trkpt>
      <trkpt lat="45.94003" lon="4.78165">
        <ele>202</ele>
        <time>2016-11-05T11:03:20Z</time>
      </trkpt>
      <trkpt lat="45.94" lon="4.78164">
        <ele>200</ele>
        <time>2016-11-05T11:03:21Z</time>
      </trkpt>
      <trkpt lat="45.93994" lon="4.78154">
        <ele>199</ele>
        <time>2016-11-05T11:03:23Z</time>
      </trkpt>
      <trkpt lat="45.93992" lon="4.78148">
        <ele>198</ele>
        <time>2016-11-05T11:03:24Z</time>
      </trkpt>
      <trkpt lat="45.93992" lon="4.78142">
        <ele>198</ele>
        <time>2016-11-05T11:03:25Z</time>
      </trkpt>
      <trkpt lat="45.93992" lon="4.78135">
        <ele>197</ele>
        <time>2016-11-05T11:03:26Z</time>
      </trkpt>
      <trkpt lat="45.93993" lon="4.78128">
        <ele>197</ele>
        <time>2016-11-05T11:03:27Z</time>
      </trkpt>
      <trkpt lat="45.93994" lon="4.7812">
        <ele>197</ele>
        <time>2016-11-05T11:03:28Z</time>
      </trkpt>
      <trkpt lat="45.93996" lon="4.78113">
        <ele>197</ele>
        <time>2016-11-05T11:03:29Z</time>
      </trkpt>
      <trkpt lat="45.93997" lon="4.78106">
        <ele>197</ele>
        <time>2016-11-05T11:03:30Z</time>
      </trkpt>
      <trkpt lat="45.93998" lon="4.78098">
        <ele>198</ele>
        <time>2016-11-05T11:03:31Z</time>
      </trkpt>
      <trkpt lat="45.93999" lon="4.7809">
        <ele>198</ele>
        <time>2016-11-05T11:03:32Z</time>
      </trkpt>
      <trkpt lat="45.94" lon="4.78082">
        <ele>199</ele>
        <time>2016-11-05T11:03:33Z</time>
      </trkpt>
      <trkpt lat="45.94002" lon="4.78073">
        <ele>200</ele>
        <time>2016-11-05T11:03:34Z</time>
      </trkpt>
      <trkpt lat="45.94003" lon="4.78065">
        <ele>201</ele>
        <time>2016-11-05T11:03:35Z</time>
      </trkpt>
      <trkpt lat="45.94005" lon="4.78057">
        <ele>201</ele>
        <time>2016-11-05T11:03:36Z</time>
      </trkpt>
      <trkpt lat="45.94007" lon="4.7805">
        <ele>201</ele>
        <time>2016-11-05T11:03:37Z</time>
      </trkpt>
      <trkpt lat="45.94009" lon="4.78043">
        <ele>201</ele>
        <time>2016-11-05T11:03:38Z</time>
      </trkpt>
      <trkpt lat="45.94011" lon="4.78035">
        <ele>201</ele>
        <time>2016-11-05T11:03:39Z</time>
      </trkpt>
      <trkpt lat="45.94013" lon="4.78027">
        <ele>201</ele>
        <time>2016-11-05T11:03:40Z</time>
      </trkpt>
      <trkpt lat="45.94014" lon="4.78019">
        <ele>200</ele>
        <time>2016-11-05T11:03:41Z</time>
      </trkpt>
      <trkpt lat="45.94015" lon="4.78011">
        <ele>200</ele>
        <time>2016-11-05T11:03:42Z</time>
      </trkpt>
      <trkpt lat="45.94017" lon="4.78002">
        <ele>200</ele>
        <time>2016-11-05T11:03:43Z</time>
      </trkpt>
      <trkpt lat="45.94018" lon="4.77994">
        <ele>199</ele>
        <time>2016-11-05T11:03:44Z</time>
      </trkpt>
      <trkpt lat="45.94019" lon="4.77985">
        <ele>200</ele>
        <time>2016-11-05T11:03:45Z</time>
      </trkpt>
      <trkpt lat="45.94021" lon="4.77976">
        <ele>200</ele>
        <time>2016-11-05T11:03:46Z</time>
      </trkpt>
      <trkpt lat="45.94022" lon="4.77968">
        <ele>200</ele>
        <time>2016-11-05T11:03:47Z</time>
      </trkpt>
      <trkpt lat="45.94023" lon="4.7796">
        <ele>200</ele>
        <time>2016-11-05T11:03:48Z</time>
      </trkpt>
      <trkpt lat="45.94025" lon="4.77953">
        <ele>200</ele>
        <time>2016-11-05T11:03:49Z</time>
      </trkpt>
      <trkpt lat="45.94027" lon="4.77947">
        <ele>200</ele>
        <time>2016-11-05T11:03:50Z</time>
      </trkpt>
      <trkpt lat="45.94028" lon="4.77934">
        <ele>200</ele>
        <time>2016-11-05T11:03:52Z</time>
      </trkpt>
      <trkpt lat="45.94026" lon="4.77927">
        <ele>199</ele>
        <time>2016-11-05T11:03:53Z</time>
      </trkpt>
      <trkpt lat="45.94023" lon="4.77922">
        <ele>199</ele>
        <time>2016-11-05T11:03:54Z</time>
      </trkpt>
      <trkpt lat="45.94018" lon="4.7792">
        <ele>198</ele>
        <time>2016-11-05T11:03:55Z</time>
      </trkpt>
      <trkpt lat="45.94012" lon="4.77919">
        <ele>197</ele>
        <time>2016-11-05T11:03:56Z</time>
      </trkpt>
      <trkpt lat="45.94006" lon="4.7792">
        <ele>196</ele>
        <time>2016-11-05T11:03:57Z</time>
      </trkpt>
      <trkpt lat="45.93999" lon="4.77923">
        <ele>193</ele>
        <time>2016-11-05T11:03:58Z</time>
      </trkpt>
      <trkpt lat="45.93992" lon="4.77925">
        <ele>192</ele>
        <time>2016-11-05T11:03:59Z</time>
      </trkpt>
      <trkpt lat="45.93985" lon="4.77929">
        <ele>192</ele>
        <time>2016-11-05T11:04:00Z</time>
      </trkpt>
      <trkpt lat="45.93977" lon="4.77934">
        <ele>191</ele>
        <time>2016-11-05T11:04:01Z</time>
      </trkpt>
      <trkpt lat="45.93969" lon="4.7794">
        <ele>191</ele>
        <time>2016-11-05T11:04:02Z</time>
      </trkpt>
      <trkpt lat="45.93961" lon="4.77946">
        <ele>190</ele>
        <time>2016-11-05T11:04:03Z</time>
      </trkpt>
      <trkpt lat="45.93953" lon="4.77953">
        <ele>190</ele>
        <time>2016-11-05T11:04:04Z</time>
      </trkpt>
      <trkpt lat="45.93944" lon="4.77959">
        <ele>189</ele>
        <time>2016-11-05T11:04:05Z</time>
      </trkpt>
      <trkpt lat="45.93935" lon="4.77965">
        <ele>189</ele>
        <time>2016-11-05T11:04:06Z</time>
      </trkpt>
      <trkpt lat="45.93926" lon="4.7797">
        <ele>188</ele>
        <time>2016-11-05T11:04:07Z</time>
      </trkpt>
      <trkpt lat="45.93918" lon="4.77976">
        <ele>188</ele>
        <time>2016-11-05T11:04:08Z</time>
      </trkpt>
      <trkpt lat="45.93911" lon="4.77981">
        <ele>182</ele>
        <time>2016-11-05T11:04:09Z</time>
      </trkpt>
      <trkpt lat="45.93904" lon="4.77986">
        <ele>182</ele>
        <time>2016-11-05T11:04:10Z</time>
      </trkpt>
      <trkpt lat="45.93899" lon="4.7799">
        <ele>182</ele>
        <time>2016-11-05T11:04:11Z</time>
      </trkpt>
      <trkpt lat="45.93893" lon="4.77996">
        <ele>182</ele>
        <time>2016-11-05T11:04:13Z</time>
      </trkpt>
      <trkpt lat="45.93891" lon="4.77998">
        <ele>182</ele>
        <time>2016-11-05T11:04:14Z</time>
      </trkpt>
      <trkpt lat="45.93887" lon="4.78006">
        <ele>184</ele>
        <time>2016-11-05T11:04:19Z</time>
      </trkpt>
      <trkpt lat="45.93884" lon="4.78009">
        <ele>184</ele>
        <time>2016-11-05T11:04:21Z</time>
      </trkpt>
      <trkpt lat="45.93879" lon="4.78016">
        <ele>184</ele>
        <time>2016-11-05T11:04:23Z</time>
      </trkpt>
      <trkpt lat="45.93874" lon="4.78015">
        <ele>183</ele>
        <time>2016-11-05T11:04:24Z</time>
      </trkpt>
      <trkpt lat="45.9387" lon="4.78012">
        <ele>183</ele>
        <time>2016-11-05T11:04:25Z</time>
      </trkpt>
      <trkpt lat="45.93866" lon="4.78007">
        <ele>183</ele>
        <time>2016-11-05T11:04:26Z</time>
      </trkpt>
      <trkpt lat="45.93861" lon="4.78002">
        <ele>182</ele>
        <time>2016-11-05T11:04:27Z</time>
      </trkpt>
      <trkpt lat="45.93857" lon="4.77997">
        <ele>179</ele>
        <time>2016-11-05T11:04:28Z</time>
      </trkpt>
      <trkpt lat="45.93852" lon="4.77993">
        <ele>179</ele>
        <time>2016-11-05T11:04:29Z</time>
      </trkpt>
      <trkpt lat="45.93847" lon="4.7799">
        <ele>179</ele>
        <time>2016-11-05T11:04:30Z</time>
      </trkpt>
      <trkpt lat="45.93843" lon="4.77987">
        <ele>179</ele>
        <time>2016-11-05T11:04:31Z</time>
      </trkpt>
      <trkpt lat="45.93838" lon="4.77982">
        <ele>178</ele>
        <time>2016-11-05T11:04:32Z</time>
      </trkpt>
      <trkpt lat="45.93834" lon="4.77977">
        <ele>178</ele>
        <time>2016-11-05T11:04:33Z</time>
      </trkpt>
      <trkpt lat="45.93831" lon="4.77971">
        <ele>172</ele>
        <time>2016-11-05T11:04:34Z</time>
      </trkpt>
      <trkpt lat="45.93827" lon="4.77966">
        <ele>171</ele>
        <time>2016-11-05T11:04:35Z</time>
      </trkpt>
      <trkpt lat="45.93823" lon="4.7796">
        <ele>170</ele>
        <time>2016-11-05T11:04:36Z</time>
      </trkpt>
      <trkpt lat="45.93818" lon="4.77954">
        <ele>170</ele>
        <time>2016-11-05T11:04:37Z</time>
      </trkpt>
      <trkpt lat="45.93815" lon="4.7795">
        <ele>169</ele>
        <time>2016-11-05T11:04:38Z</time>
      </trkpt>
      <trkpt lat="45.93811" lon="4.77946">
        <ele>169</ele>
        <time>2016-11-05T11:04:39Z</time>
      </trkpt>
      <trkpt lat="45.93807" lon="4.77942">
        <ele>169</ele>
        <time>2016-11-05T11:04:40Z</time>
      </trkpt>
      <trkpt lat="45.93804" lon="4.77937">
        <ele>169</ele>
        <time>2016-11-05T11:04:41Z</time>
      </trkpt>
      <trkpt lat="45.938" lon="4.77932">
        <ele>168</ele>
        <time>2016-11-05T11:04:42Z</time>
      </trkpt>
      <trkpt lat="45.93797" lon="4.77927">
        <ele>168</ele>
        <time>2016-11-05T11:04:43Z</time>
      </trkpt>
      <trkpt lat="45.93793" lon="4.77922">
        <ele>168</ele>
        <time>2016-11-05T11:04:44Z</time>
      </trkpt>
      <trkpt lat="45.93789" lon="4.77917">
        <ele>166</ele>
        <time>2016-11-05T11:04:45Z</time>
      </trkpt>
      <trkpt lat="45.93785" lon="4.77912">
        <ele>166</ele>
        <time>2016-11-05T11:04:46Z</time>
      </trkpt>
      <trkpt lat="45.93782" lon="4.77907">
        <ele>166</ele>
        <time>2016-11-05T11:04:47Z</time>
      </trkpt>
      <trkpt lat="45.93778" lon="4.77902">
        <ele>166</ele>
        <time>2016-11-05T11:04:48Z</time>
      </trkpt>
      <trkpt lat="45.93775" lon="4.77897">
        <ele>166</ele>
        <time>2016-11-05T11:04:49Z</time>
      </trkpt>
      <trkpt lat="45.93772" lon="4.77892">
        <ele>166</ele>
        <time>2016-11-05T11:04:50Z</time>
      </trkpt>
      <trkpt lat="45.93768" lon="4.77888">
        <ele>166</ele>
        <time>2016-11-05T11:04:51Z</time>
      </trkpt>
      <trkpt lat="45.93764" lon="4.77883">
        <ele>166</ele>
        <time>2016-11-05T11:04:52Z</time>
      </trkpt>
      <trkpt lat="45.93761" lon="4.77878">
        <ele>166</ele>
        <time>2016-11-05T11:04:53Z</time>
      </trkpt>
      <trkpt lat="45.93757" lon="4.77874">
        <ele>166</ele>
        <time>2016-11-05T11:04:54Z</time>
      </trkpt>
      <trkpt lat="45.93754" lon="4.77868">
        <ele>166</ele>
        <time>2016-11-05T11:04:55Z</time>
      </trkpt>
      <trkpt lat="45.9375" lon="4.77862">
        <ele>166</ele>
        <time>2016-11-05T11:04:56Z</time>
      </trkpt>
      <trkpt lat="45.93747" lon="4.77857">
        <ele>167</ele>
        <time>2016-11-05T11:04:57Z</time>
      </trkpt>
      <trkpt lat="45.93743" lon="4.77852">
        <ele>167</ele>
        <time>2016-11-05T11:04:58Z</time>
      </trkpt>
      <trkpt lat="45.93739" lon="4.77847">
        <ele>167</ele>
        <time>2016-11-05T11:04:59Z</time>
      </trkpt>
      <trkpt lat="45.93735" lon="4.77842">
        <ele>167</ele>
        <time>2016-11-05T11:05:00Z</time>
      </trkpt>
      <trkpt lat="45.93731" lon="4.77837">
        <ele>167</ele>
        <time>2016-11-05T11:05:01Z</time>
      </trkpt>
      <trkpt lat="45.93727" lon="4.77831">
        <ele>168</ele>
        <time>2016-11-05T11:05:02Z</time>
      </trkpt>
      <trkpt lat="45.93723" lon="4.77825">
        <ele>168</ele>
        <time>2016-11-05T11:05:03Z</time>
      </trkpt>
      <trkpt lat="45.93719" lon="4.7782">
        <ele>169</ele>
        <time>2016-11-05T11:05:04Z</time>
      </trkpt>
      <trkpt lat="45.93715" lon="4.77814">
        <ele>169</ele>
        <time>2016-11-05T11:05:05Z</time>
      </trkpt>
      <trkpt lat="45.9371" lon="4.77808">
        <ele>169</ele>
        <time>2016-11-05T11:05:06Z</time>
      </trkpt>
      <trkpt lat="45.93706" lon="4.77802">
        <ele>169</ele>
        <time>2016-11-05T11:05:07Z</time>
      </trkpt>
      <trkpt lat="45.93701" lon="4.77796">
        <ele>169</ele>
        <time>2016-11-05T11:05:08Z</time>
      </trkpt>
      <trkpt lat="45.93697" lon="4.7779">
        <ele>169</ele>
        <time>2016-11-05T11:05:09Z</time>
      </trkpt>
      <trkpt lat="45.93692" lon="4.77784">
        <ele>170</ele>
        <time>2016-11-05T11:05:10Z</time>
      </trkpt>
      <trkpt lat="45.93687" lon="4.77778">
        <ele>170</ele>
        <time>2016-11-05T11:05:11Z</time>
      </trkpt>
      <trkpt lat="45.93683" lon="4.77771">
        <ele>170</ele>
        <time>2016-11-05T11:05:12Z</time>
      </trkpt>
      <trkpt lat="45.93678" lon="4.77764">
        <ele>170</ele>
        <time>2016-11-05T11:05:13Z</time>
      </trkpt>
      <trkpt lat="45.93673" lon="4.77757">
        <ele>170</ele>
        <time>2016-11-05T11:05:14Z</time>
      </trkpt>
      <trkpt lat="45.93668" lon="4.7775">
        <ele>171</ele>
        <time>2016-11-05T11:05:15Z</time>
      </trkpt>
      <trkpt lat="45.93663" lon="4.77742">
        <ele>171</ele>
        <time>2016-11-05T11:05:16Z</time>
      </trkpt>
      <trkpt lat="45.93658" lon="4.77734">
        <ele>170</ele>
        <time>2016-11-05T11:05:17Z</time>
      </trkpt>
      <trkpt lat="45.93653" lon="4.77726">
        <ele>170</ele>
        <time>2016-11-05T11:05:18Z</time>
      </trkpt>
      <trkpt lat="45.93648" lon="4.77717">
        <ele>170</ele>
        <time>2016-11-05T11:05:19Z</time>
      </trkpt>
      <trkpt lat="45.93643" lon="4.77708">
        <ele>170</ele>
        <time>2016-11-05T11:05:20Z</time>
      </trkpt>
      <trkpt lat="45.93638" lon="4.77698">
        <ele>169</ele>
        <time>2016-11-05T11:05:21Z</time>
      </trkpt>
      <trkpt lat="45.93633" lon="4.77689">
        <ele>169</ele>
        <time>2016-11-05T11:05:22Z</time>
      </trkpt>
      <trkpt lat="45.93628" lon="4.77679">
        <ele>169</ele>
        <time>2016-11-05T11:05:23Z</time>
      </trkpt>
      <trkpt lat="45.93624" lon="4.77669">
        <ele>169</ele>
        <time>2016-11-05T11:05:24Z</time>
      </trkpt>
      <trkpt lat="45.9362" lon="4.77659">
        <ele>169</ele>
        <time>2016-11-05T11:05:25Z</time>
      </trkpt>
      <trkpt lat="45.93616" lon="4.7765">
        <ele>169</ele>
        <time>2016-11-05T11:05:26Z</time>
      </trkpt>
      <trkpt lat="45.93611" lon="4.7764">
        <ele>169</ele>
        <time>2016-11-05T11:05:27Z</time>
      </trkpt>
      <trkpt lat="45.93607" lon="4.77631">
        <ele>169</ele>
        <time>2016-11-05T11:05:28Z</time>
      </trkpt>
      <trkpt lat="45.93603" lon="4.77622">
        <ele>170</ele>
        <time>2016-11-05T11:05:29Z</time>
      </trkpt>
      <trkpt lat="45.936" lon="4.77613">
        <ele>170</ele>
        <time>2016-11-05T11:05:30Z</time>
      </trkpt>
      <trkpt lat="45.93597" lon="4.77605">
        <ele>170</ele>
        <time>2016-11-05T11:05:31Z</time>
      </trkpt>
      <trkpt lat="45.93594" lon="4.77597">
        <ele>170</ele>
        <time>2016-11-05T11:05:32Z</time>
      </trkpt>
      <trkpt lat="45.93591" lon="4.77589">
        <ele>170</ele>
        <time>2016-11-05T11:05:33Z</time>
      </trkpt>
      <trkpt lat="45.93588" lon="4.77582">
        <ele>170</ele>
        <time>2016-11-05T11:05:34Z</time>
      </trkpt>
      <trkpt lat="45.93586" lon="4.77574">
        <ele>170</ele>
        <time>2016-11-05T11:05:35Z</time>
      </trkpt>
      <trkpt lat="45.93584" lon="4.77566">
        <ele>170</ele>
        <time>2016-11-05T11:05:36Z</time>
      </trkpt>
      <trkpt lat="45.93582" lon="4.77559">
        <ele>169</ele>
        <time>2016-11-05T11:05:37Z</time>
      </trkpt>
      <trkpt lat="45.9358" lon="4.77551">
        <ele>169</ele>
        <time>2016-11-05T11:05:38Z</time>
      </trkpt>
      <trkpt lat="45.93578" lon="4.77544">
        <ele>169</ele>
        <time>2016-11-05T11:05:39Z</time>
      </trkpt>
      <trkpt lat="45.93576" lon="4.77537">
        <ele>169</ele>
        <time>2016-11-05T11:05:40Z</time>
      </trkpt>
      <trkpt lat="45.93574" lon="4.7753">
        <ele>169</ele>
        <time>2016-11-05T11:05:41Z</time>
      </trkpt>
      <trkpt lat="45.93572" lon="4.77522">
        <ele>169</ele>
        <time>2016-11-05T11:05:42Z</time>
      </trkpt>
      <trkpt lat="45.93571" lon="4.77515">
        <ele>169</ele>
        <time>2016-11-05T11:05:43Z</time>
      </trkpt>
      <trkpt lat="45.93569" lon="4.77508">
        <ele>169</ele>
        <time>2016-11-05T11:05:44Z</time>
      </trkpt>
      <trkpt lat="45.93567" lon="4.775">
        <ele>169</ele>
        <time>2016-11-05T11:05:45Z</time>
      </trkpt>
      <trkpt lat="45.93566" lon="4.77493">
        <ele>169</ele>
        <time>2016-11-05T11:05:46Z</time>
      </trkpt>
      <trkpt lat="45.93564" lon="4.77485">
        <ele>169</ele>
        <time>2016-11-05T11:05:47Z</time>
      </trkpt>
      <trkpt lat="45.93563" lon="4.77478">
        <ele>169</ele>
        <time>2016-11-05T11:05:48Z</time>
      </trkpt>
      <trkpt lat="45.93561" lon="4.7747">
        <ele>169</ele>
        <time>2016-11-05T11:05:49Z</time>
      </trkpt>
      <trkpt lat="45.93559" lon="4.77462">
        <ele>169</ele>
        <time>2016-11-05T11:05:50Z</time>
      </trkpt>
      <trkpt lat="45.93558" lon="4.77455">
        <ele>169</ele>
        <time>2016-11-05T11:05:51Z</time>
      </trkpt>
      <trkpt lat="45.93556" lon="4.77447">
        <ele>169</ele>
        <time>2016-11-05T11:05:52Z</time>
      </trkpt>
      <trkpt lat="45.93554" lon="4.7744">
        <ele>169</ele>
        <time>2016-11-05T11:05:53Z</time>
      </trkpt>
      <trkpt lat="45.93552" lon="4.77432">
        <ele>169</ele>
        <time>2016-11-05T11:05:54Z</time>
      </trkpt>
      <trkpt lat="45.9355" lon="4.77425">
        <ele>170</ele>
        <time>2016-11-05T11:05:55Z</time>
      </trkpt>
      <trkpt lat="45.93549" lon="4.77417">
        <ele>170</ele>
        <time>2016-11-05T11:05:56Z</time>
      </trkpt>
      <trkpt lat="45.93547" lon="4.7741">
        <ele>170</ele>
        <time>2016-11-05T11:05:57Z</time>
      </trkpt>
      <trkpt lat="45.93546" lon="4.77402">
        <ele>170</ele>
        <time>2016-11-05T11:05:58Z</time>
      </trkpt>
      <trkpt lat="45.93544" lon="4.77396">
        <ele>170</ele>
        <time>2016-11-05T11:05:59Z</time>
      </trkpt>
      <trkpt lat="45.93543" lon="4.77389">
        <ele>170</ele>
        <time>2016-11-05T11:06:00Z</time>
      </trkpt>
      <trkpt lat="45.93542" lon="4.77382">
        <ele>170</ele>
        <time>2016-11-05T11:06:01Z</time>
      </trkpt>
      <trkpt lat="45.9354" lon="4.77375">
        <ele>170</ele>
        <time>2016-11-05T11:06:02Z</time>
      </trkpt>
      <trkpt lat="45.93539" lon="4.77367">
        <ele>170</ele>
        <time>2016-11-05T11:06:03Z</time>
      </trkpt>
      <trkpt lat="45.93537" lon="4.77359">
        <ele>170</ele>
        <time>2016-11-05T11:06:04Z</time>
      </trkpt>
      <trkpt lat="45.93535" lon="4.77351">
        <ele>170</ele>
        <time>2016-11-05T11:06:05Z</time>
      </trkpt>
      <trkpt lat="45.93533" lon="4.77342">
        <ele>170</ele>
        <time>2016-11-05T11:06:06Z</time>
      </trkpt>
      <trkpt lat="45.93531" lon="4.77334">
        <ele>170</ele>
        <time>2016-11-05T11:06:07Z</time>
      </trkpt>
      <trkpt lat="45.9353" lon="4.77325">
        <ele>170</ele>
        <time>2016-11-05T11:06:08Z</time>
      </trkpt>
      <trkpt lat="45.93528" lon="4.77317">
        <ele>170</ele>
        <time>2016-11-05T11:06:09Z</time>
      </trkpt>
      <trkpt lat="45.93526" lon="4.77309">
        <ele>170</ele>
        <time>2016-11-05T11:06:10Z</time>
      </trkpt>
      <trkpt lat="45.93524" lon="4.77301">
        <ele>170</ele>
        <time>2016-11-05T11:06:11Z</time>
      </trkpt>
      <trkpt lat="45.93522" lon="4.77293">
        <ele>170</ele>
        <time>2016-11-05T11:06:12Z</time>
      </trkpt>
      <trkpt lat="45.9352" lon="4.77286">
        <ele>170</ele>
        <time>2016-11-05T11:06:13Z</time>
      </trkpt>
      <trkpt lat="45.93519" lon="4.77279">
        <ele>170</ele>
        <time>2016-11-05T11:06:14Z</time>
      </trkpt>
      <trkpt lat="45.93517" lon="4.77271">
        <ele>170</ele>
        <time>2016-11-05T11:06:15Z</time>
      </trkpt>
      <trkpt lat="45.93515" lon="4.77264">
        <ele>170</ele>
        <time>2016-11-05T11:06:16Z</time>
      </trkpt>
      <trkpt lat="45.93514" lon="4.77257">
        <ele>170</ele>
        <time>2016-11-05T11:06:17Z</time>
      </trkpt>
      <trkpt lat="45.93512" lon="4.7725">
        <ele>170</ele>
        <time>2016-11-05T11:06:18Z</time>
      </trkpt>
      <trkpt lat="45.93511" lon="4.77243">
        <ele>169</ele>
        <time>2016-11-05T11:06:19Z</time>
      </trkpt>
      <trkpt lat="45.93509" lon="4.77237">
        <ele>169</ele>
        <time>2016-11-05T11:06:20Z</time>
      </trkpt>
      <trkpt lat="45.93507" lon="4.77229">
        <ele>169</ele>
        <time>2016-11-05T11:06:21Z</time>
      </trkpt>
      <trkpt lat="45.93506" lon="4.77222">
        <ele>169</ele>
        <time>2016-11-05T11:06:22Z</time>
      </trkpt>
      <trkpt lat="45.93505" lon="4.77215">
        <ele>169</ele>
        <time>2016-11-05T11:06:23Z</time>
      </trkpt>
      <trkpt lat="45.93503" lon="4.77208">
        <ele>169</ele>
        <time>2016-11-05T11:06:24Z</time>
      </trkpt>
      <trkpt lat="45.93501" lon="4.772">
        <ele>169</ele>
        <time>2016-11-05T11:06:25Z</time>
      </trkpt>
      <trkpt lat="45.935" lon="4.77192">
        <ele>169</ele>
        <time>2016-11-05T11:06:26Z</time>
      </trkpt>
      <trkpt lat="45.93498" lon="4.77185">
        <ele>169</ele>
        <time>2016-11-05T11:06:27Z</time>
      </trkpt>
      <trkpt lat="45.93497" lon="4.77177">
        <ele>169</ele>
        <time>2016-11-05T11:06:28Z</time>
      </trkpt>
      <trkpt lat="45.93496" lon="4.7717">
        <ele>169</ele>
        <time>2016-11-05T11:06:29Z</time>
      </trkpt>
      <trkpt lat="45.93494" lon="4.77162">
        <ele>169</ele>
        <time>2016-11-05T11:06:30Z</time>
      </trkpt>
      <trkpt lat="45.93492" lon="4.77154">
        <ele>169</ele>
        <time>2016-11-05T11:06:31Z</time>
      </trkpt>
      <trkpt lat="45.9349" lon="4.77147">
        <ele>169</ele>
        <time>2016-11-05T11:06:32Z</time>
      </trkpt>
      <trkpt lat="45.93489" lon="4.7714">
        <ele>169</ele>
        <time>2016-11-05T11:06:33Z</time>
      </trkpt>
      <trkpt lat="45.93487" lon="4.77132">
        <ele>169</ele>
        <time>2016-11-05T11:06:34Z</time>
      </trkpt>
      <trkpt lat="45.93486" lon="4.77125">
        <ele>169</ele>
        <time>2016-11-05T11:06:35Z</time>
      </trkpt>
      <trkpt lat="45.93484" lon="4.77117">
        <ele>169</ele>
        <time>2016-11-05T11:06:36Z</time>
      </trkpt>
      <trkpt lat="45.93483" lon="4.7711">
        <ele>169</ele>
        <time>2016-11-05T11:06:37Z</time>
      </trkpt>
      <trkpt lat="45.93482" lon="4.77102">
        <ele>169</ele>
        <time>2016-11-05T11:06:38Z</time>
      </trkpt>
      <trkpt lat="45.9348" lon="4.77095">
        <ele>169</ele>
        <time>2016-11-05T11:06:39Z</time>
      </trkpt>
      <trkpt lat="45.93479" lon="4.77088">
        <ele>169</ele>
        <time>2016-11-05T11:06:40Z</time>
      </trkpt>
      <trkpt lat="45.93478" lon="4.7708">
        <ele>170</ele>
        <time>2016-11-05T11:06:41Z</time>
      </trkpt>
      <trkpt lat="45.93476" lon="4.77073">
        <ele>170</ele>
        <time>2016-11-05T11:06:42Z</time>
      </trkpt>
      <trkpt lat="45.93475" lon="4.77065">
        <ele>170</ele>
        <time>2016-11-05T11:06:43Z</time>
      </trkpt>
      <trkpt lat="45.93473" lon="4.77058">
        <ele>170</ele>
        <time>2016-11-05T11:06:44Z</time>
      </trkpt>
      <trkpt lat="45.93472" lon="4.77051">
        <ele>170</ele>
        <time>2016-11-05T11:06:45Z</time>
      </trkpt>
      <trkpt lat="45.93471" lon="4.77043">
        <ele>170</ele>
        <time>2016-11-05T11:06:46Z</time>
      </trkpt>
      <trkpt lat="45.93469" lon="4.77035">
        <ele>170</ele>
        <time>2016-11-05T11:06:47Z</time>
      </trkpt>
      <trkpt lat="45.93468" lon="4.77027">
        <ele>170</ele>
        <time>2016-11-05T11:06:48Z</time>
      </trkpt>
      <trkpt lat="45.93466" lon="4.77019">
        <ele>170</ele>
        <time>2016-11-05T11:06:49Z</time>
      </trkpt>
      <trkpt lat="45.93465" lon="4.77011">
        <ele>170</ele>
        <time>2016-11-05T11:06:50Z</time>
      </trkpt>
      <trkpt lat="45.93464" lon="4.77003">
        <ele>170</ele>
        <time>2016-11-05T11:06:51Z</time>
      </trkpt>
      <trkpt lat="45.93462" lon="4.76995">
        <ele>170</ele>
        <time>2016-11-05T11:06:52Z</time>
      </trkpt>
      <trkpt lat="45.93462" lon="4.76987">
        <ele>170</ele>
        <time>2016-11-05T11:06:53Z</time>
      </trkpt>
      <trkpt lat="45.93461" lon="4.76978">
        <ele>170</ele>
        <time>2016-11-05T11:06:54Z</time>
      </trkpt>
      <trkpt lat="45.9346" lon="4.7697">
        <ele>170</ele>
        <time>2016-11-05T11:06:55Z</time>
      </trkpt>
      <trkpt lat="45.93459" lon="4.76962">
        <ele>170</ele>
        <time>2016-11-05T11:06:56Z</time>
      </trkpt>
      <trkpt lat="45.93458" lon="4.76954">
        <ele>170</ele>
        <time>2016-11-05T11:06:57Z</time>
      </trkpt>
      <trkpt lat="45.93457" lon="4.76946">
        <ele>170</ele>
        <time>2016-11-05T11:06:58Z</time>
      </trkpt>
      <trkpt lat="45.93455" lon="4.76938">
        <ele>170</ele>
        <time>2016-11-05T11:06:59Z</time>
      </trkpt>
      <trkpt lat="45.93454" lon="4.7693">
        <ele>170</ele>
        <time>2016-11-05T11:07:00Z</time>
      </trkpt>
      <trkpt lat="45.93453" lon="4.76923">
        <ele>170</ele>
        <time>2016-11-05T11:07:01Z</time>
      </trkpt>
      <trkpt lat="45.93451" lon="4.76915">
        <ele>170</ele>
        <time>2016-11-05T11:07:02Z</time>
      </trkpt>
      <trkpt lat="45.93449" lon="4.76908">
        <ele>170</ele>
        <time>2016-11-05T11:07:03Z</time>
      </trkpt>
      <trkpt lat="45.93447" lon="4.76901">
        <ele>170</ele>
        <time>2016-11-05T11:07:04Z</time>
      </trkpt>
      <trkpt lat="45.93445" lon="4.76894">
        <ele>170</ele>
        <time>2016-11-05T11:07:05Z</time>
      </trkpt>
      <trkpt lat="45.93443" lon="4.76886">
        <ele>170</ele>
        <time>2016-11-05T11:07:06Z</time>
      </trkpt>
      <trkpt lat="45.93441" lon="4.76879">
        <ele>170</ele>
        <time>2016-11-05T11:07:07Z</time>
      </trkpt>
      <trkpt lat="45.93439" lon="4.76872">
        <ele>171</ele>
        <time>2016-11-05T11:07:08Z</time>
      </trkpt>
      <trkpt lat="45.93436" lon="4.76865">
        <ele>171</ele>
        <time>2016-11-05T11:07:09Z</time>
      </trkpt>
      <trkpt lat="45.93433" lon="4.76858">
        <ele>171</ele>
        <time>2016-11-05T11:07:10Z</time>
      </trkpt>
      <trkpt lat="45.9343" lon="4.76851">
        <ele>171</ele>
        <time>2016-11-05T11:07:11Z</time>
      </trkpt>
      <trkpt lat="45.93427" lon="4.76845">
        <ele>171</ele>
        <time>2016-11-05T11:07:12Z</time>
      </trkpt>
      <trkpt lat="45.93424" lon="4.76839">
        <ele>171</ele>
        <time>2016-11-05T11:07:13Z</time>
      </trkpt>
      <trkpt lat="45.93421" lon="4.76833">
        <ele>172</ele>
        <time>2016-11-05T11:07:14Z</time>
      </trkpt>
      <trkpt lat="45.93418" lon="4.76828">
        <ele>172</ele>
        <time>2016-11-05T11:07:15Z</time>
      </trkpt>
      <trkpt lat="45.93415" lon="4.76822">
        <ele>172</ele>
        <time>2016-11-05T11:07:16Z</time>
      </trkpt>
      <trkpt lat="45.93412" lon="4.76816">
        <ele>172</ele>
        <time>2016-11-05T11:07:17Z</time>
      </trkpt>
      <trkpt lat="45.93408" lon="4.76811">
        <ele>172</ele>
        <time>2016-11-05T11:07:18Z</time>
      </trkpt>
      <trkpt lat="45.93405" lon="4.76805">
        <ele>172</ele>
        <time>2016-11-05T11:07:19Z</time>
      </trkpt>
      <trkpt lat="45.93401" lon="4.768">
        <ele>172</ele>
        <time>2016-11-05T11:07:20Z</time>
      </trkpt>
      <trkpt lat="45.93397" lon="4.76795">
        <ele>172</ele>
        <time>2016-11-05T11:07:21Z</time>
      </trkpt>
      <trkpt lat="45.93393" lon="4.7679">
        <ele>172</ele>
        <time>2016-11-05T11:07:22Z</time>
      </trkpt>
      <trkpt lat="45.93389" lon="4.76786">
        <ele>172</ele>
        <time>2016-11-05T11:07:23Z</time>
      </trkpt>
      <trkpt lat="45.93385" lon="4.76781">
        <ele>172</ele>
        <time>2016-11-05T11:07:24Z</time>
      </trkpt>
      <trkpt lat="45.9338" lon="4.76777">
        <ele>172</ele>
        <time>2016-11-05T11:07:25Z</time>
      </trkpt>
      <trkpt lat="45.93375" lon="4.76772">
        <ele>172</ele>
        <time>2016-11-05T11:07:26Z</time>
      </trkpt>
      <trkpt lat="45.93371" lon="4.76767">
        <ele>172</ele>
        <time>2016-11-05T11:07:27Z</time>
      </trkpt>
      <trkpt lat="45.93366" lon="4.76762">
        <ele>172</ele>
        <time>2016-11-05T11:07:28Z</time>
      </trkpt>
      <trkpt lat="45.93361" lon="4.76757">
        <ele>172</ele>
        <time>2016-11-05T11:07:29Z</time>
      </trkpt>
      <trkpt lat="45.93356" lon="4.76752">
        <ele>172</ele>
        <time>2016-11-05T11:07:30Z</time>
      </trkpt>
      <trkpt lat="45.93352" lon="4.76747">
        <ele>172</ele>
        <time>2016-11-05T11:07:31Z</time>
      </trkpt>
      <trkpt lat="45.93347" lon="4.76742">
        <ele>172</ele>
        <time>2016-11-05T11:07:32Z</time>
      </trkpt>
      <trkpt lat="45.93342" lon="4.76738">
        <ele>172</ele>
        <time>2016-11-05T11:07:33Z</time>
      </trkpt>
      <trkpt lat="45.93338" lon="4.76734">
        <ele>172</ele>
        <time>2016-11-05T11:07:34Z</time>
      </trkpt>
      <trkpt lat="45.93333" lon="4.7673">
        <ele>172</ele>
        <time>2016-11-05T11:07:35Z</time>
      </trkpt>
      <trkpt lat="45.93329" lon="4.76726">
        <ele>172</ele>
        <time>2016-11-05T11:07:36Z</time>
      </trkpt>
      <trkpt lat="45.93325" lon="4.76722">
        <ele>172</ele>
        <time>2016-11-05T11:07:37Z</time>
      </trkpt>
      <trkpt lat="45.9332" lon="4.76718">
        <ele>172</ele>
        <time>2016-11-05T11:07:38Z</time>
      </trkpt>
      <trkpt lat="45.93316" lon="4.76713">
        <ele>172</ele>
        <time>2016-11-05T11:07:39Z</time>
      </trkpt>
      <trkpt lat="45.93311" lon="4.76709">
        <ele>172</ele>
        <time>2016-11-05T11:07:40Z</time>
      </trkpt>
      <trkpt lat="45.93306" lon="4.76704">
        <ele>172</ele>
        <time>2016-11-05T11:07:41Z</time>
      </trkpt>
      <trkpt lat="45.93301" lon="4.76699">
        <ele>172</ele>
        <time>2016-11-05T11:07:42Z</time>
      </trkpt>
      <trkpt lat="45.93296" lon="4.76694">
        <ele>172</ele>
        <time>2016-11-05T11:07:43Z</time>
      </trkpt>
      <trkpt lat="45.93292" lon="4.7669">
        <ele>172</ele>
        <time>2016-11-05T11:07:44Z</time>
      </trkpt>
      <trkpt lat="45.93287" lon="4.76686">
        <ele>172</ele>
        <time>2016-11-05T11:07:45Z</time>
      </trkpt>
      <trkpt lat="45.93283" lon="4.76681">
        <ele>172</ele>
        <time>2016-11-05T11:07:46Z</time>
      </trkpt>
      <trkpt lat="45.93278" lon="4.76677">
        <ele>172</ele>
        <time>2016-11-05T11:07:47Z</time>
      </trkpt>
      <trkpt lat="45.93274" lon="4.76672">
        <ele>172</ele>
        <time>2016-11-05T11:07:48Z</time>
      </trkpt>
      <trkpt lat="45.93269" lon="4.76668">
        <ele>172</ele>
        <time>2016-11-05T11:07:49Z</time>
      </trkpt>
      <trkpt lat="45.93265" lon="4.76664">
        <ele>171</ele>
        <time>2016-11-05T11:07:50Z</time>
      </trkpt>
      <trkpt lat="45.93261" lon="4.76659">
        <ele>171</ele>
        <time>2016-11-05T11:07:51Z</time>
      </trkpt>
      <trkpt lat="45.93256" lon="4.76655">
        <ele>171</ele>
        <time>2016-11-05T11:07:52Z</time>
      </trkpt>
      <trkpt lat="45.93252" lon="4.7665">
        <ele>171</ele>
        <time>2016-11-05T11:07:53Z</time>
      </trkpt>
      <trkpt lat="45.93248" lon="4.76646">
        <ele>171</ele>
        <time>2016-11-05T11:07:54Z</time>
      </trkpt>
      <trkpt lat="45.93243" lon="4.76641">
        <ele>171</ele>
        <time>2016-11-05T11:07:55Z</time>
      </trkpt>
      <trkpt lat="45.93239" lon="4.76637">
        <ele>171</ele>
        <time>2016-11-05T11:07:56Z</time>
      </trkpt>
      <trkpt lat="45.93235" lon="4.76633">
        <ele>170</ele>
        <time>2016-11-05T11:07:57Z</time>
      </trkpt>
      <trkpt lat="45.9323" lon="4.76629">
        <ele>170</ele>
        <time>2016-11-05T11:07:58Z</time>
      </trkpt>
      <trkpt lat="45.93226" lon="4.76623">
        <ele>170</ele>
        <time>2016-11-05T11:07:59Z</time>
      </trkpt>
      <trkpt lat="45.93221" lon="4.76619">
        <ele>170</ele>
        <time>2016-11-05T11:08:00Z</time>
      </trkpt>
      <trkpt lat="45.93216" lon="4.76614">
        <ele>170</ele>
        <time>2016-11-05T11:08:01Z</time>
      </trkpt>
      <trkpt lat="45.93211" lon="4.76609">
        <ele>170</ele>
        <time>2016-11-05T11:08:02Z</time>
      </trkpt>
      <trkpt lat="45.93206" lon="4.76604">
        <ele>170</ele>
        <time>2016-11-05T11:08:03Z</time>
      </trkpt>
      <trkpt lat="45.93201" lon="4.766">
        <ele>170</ele>
        <time>2016-11-05T11:08:04Z</time>
      </trkpt>
      <trkpt lat="45.93197" lon="4.76595">
        <ele>170</ele>
        <time>2016-11-05T11:08:05Z</time>
      </trkpt>
      <trkpt lat="45.93193" lon="4.7659">
        <ele>170</ele>
        <time>2016-11-05T11:08:06Z</time>
      </trkpt>
      <trkpt lat="45.93188" lon="4.76586">
        <ele>170</ele>
        <time>2016-11-05T11:08:07Z</time>
      </trkpt>
      <trkpt lat="45.93184" lon="4.76582">
        <ele>170</ele>
        <time>2016-11-05T11:08:08Z</time>
      </trkpt>
      <trkpt lat="45.9318" lon="4.76577">
        <ele>170</ele>
        <time>2016-11-05T11:08:09Z</time>
      </trkpt>
      <trkpt lat="45.93175" lon="4.76573">
        <ele>170</ele>
        <time>2016-11-05T11:08:10Z</time>
      </trkpt>
      <trkpt lat="45.93171" lon="4.76569">
        <ele>170</ele>
        <time>2016-11-05T11:08:11Z</time>
      </trkpt>
      <trkpt lat="45.93166" lon="4.76564">
        <ele>170</ele>
        <time>2016-11-05T11:08:12Z</time>
      </trkpt>
      <trkpt lat="45.93161" lon="4.76559">
        <ele>170</ele>
        <time>2016-11-05T11:08:13Z</time>
      </trkpt>
      <trkpt lat="45.93156" lon="4.76554">
        <ele>170</ele>
        <time>2016-11-05T11:08:14Z</time>
      </trkpt>
      <trkpt lat="45.93151" lon="4.76549">
        <ele>170</ele>
        <time>2016-11-05T11:08:15Z</time>
      </trkpt>
      <trkpt lat="45.93146" lon="4.76544">
        <ele>170</ele>
        <time>2016-11-05T11:08:16Z</time>
      </trkpt>
      <trkpt lat="45.93142" lon="4.7654">
        <ele>170</ele>
        <time>2016-11-05T11:08:17Z</time>
      </trkpt>
      <trkpt lat="45.93137" lon="4.76536">
        <ele>170</ele>
        <time>2016-11-05T11:08:18Z</time>
      </trkpt>
      <trkpt lat="45.93133" lon="4.76531">
        <ele>170</ele>
        <time>2016-11-05T11:08:19Z</time>
      </trkpt>
      <trkpt lat="45.93129" lon="4.76526">
        <ele>170</ele>
        <time>2016-11-05T11:08:20Z</time>
      </trkpt>
      <trkpt lat="45.93125" lon="4.76522">
        <ele>170</ele>
        <time>2016-11-05T11:08:21Z</time>
      </trkpt>
      <trkpt lat="45.9312" lon="4.76517">
        <ele>170</ele>
        <time>2016-11-05T11:08:22Z</time>
      </trkpt>
      <trkpt lat="45.93116" lon="4.76513">
        <ele>170</ele>
        <time>2016-11-05T11:08:23Z</time>
      </trkpt>
      <trkpt lat="45.93111" lon="4.76508">
        <ele>170</ele>
        <time>2016-11-05T11:08:24Z</time>
      </trkpt>
      <trkpt lat="45.93107" lon="4.76504">
        <ele>170</ele>
        <time>2016-11-05T11:08:25Z</time>
      </trkpt>
      <trkpt lat="45.93102" lon="4.765">
        <ele>169</ele>
        <time>2016-11-05T11:08:26Z</time>
      </trkpt>
      <trkpt lat="45.93097" lon="4.76495">
        <ele>170</ele>
        <time>2016-11-05T11:08:27Z</time>
      </trkpt>
      <trkpt lat="45.93093" lon="4.7649">
        <ele>170</ele>
        <time>2016-11-05T11:08:28Z</time>
      </trkpt>
      <trkpt lat="45.93088" lon="4.76486">
        <ele>170</ele>
        <time>2016-11-05T11:08:29Z</time>
      </trkpt>
      <trkpt lat="45.93084" lon="4.76482">
        <ele>169</ele>
        <time>2016-11-05T11:08:30Z</time>
      </trkpt>
      <trkpt lat="45.9308" lon="4.76478">
        <ele>169</ele>
        <time>2016-11-05T11:08:31Z</time>
      </trkpt>
      <trkpt lat="45.93076" lon="4.76473">
        <ele>169</ele>
        <time>2016-11-05T11:08:32Z</time>
      </trkpt>
      <trkpt lat="45.93071" lon="4.76468">
        <ele>169</ele>
        <time>2016-11-05T11:08:33Z</time>
      </trkpt>
      <trkpt lat="45.93066" lon="4.76464">
        <ele>169</ele>
        <time>2016-11-05T11:08:34Z</time>
      </trkpt>
      <trkpt lat="45.93062" lon="4.76459">
        <ele>169</ele>
        <time>2016-11-05T11:08:35Z</time>
      </trkpt>
      <trkpt lat="45.93057" lon="4.76454">
        <ele>169</ele>
        <time>2016-11-05T11:08:36Z</time>
      </trkpt>
      <trkpt lat="45.93052" lon="4.7645">
        <ele>169</ele>
        <time>2016-11-05T11:08:37Z</time>
      </trkpt>
      <trkpt lat="45.93048" lon="4.76446">
        <ele>169</ele>
        <time>2016-11-05T11:08:38Z</time>
      </trkpt>
      <trkpt lat="45.93044" lon="4.76442">
        <ele>169</ele>
        <time>2016-11-05T11:08:39Z</time>
      </trkpt>
      <trkpt lat="45.93039" lon="4.76438">
        <ele>169</ele>
        <time>2016-11-05T11:08:40Z</time>
      </trkpt>
      <trkpt lat="45.93035" lon="4.76434">
        <ele>169</ele>
        <time>2016-11-05T11:08:41Z</time>
      </trkpt>
      <trkpt lat="45.93031" lon="4.7643">
        <ele>169</ele>
        <time>2016-11-05T11:08:42Z</time>
      </trkpt>
      <trkpt lat="45.93027" lon="4.76427">
        <ele>169</ele>
        <time>2016-11-05T11:08:43Z</time>
      </trkpt>
      <trkpt lat="45.93022" lon="4.76423">
        <ele>169</ele>
        <time>2016-11-05T11:08:44Z</time>
      </trkpt>
      <trkpt lat="45.93018" lon="4.76419">
        <ele>169</ele>
        <time>2016-11-05T11:08:45Z</time>
      </trkpt>
      <trkpt lat="45.93013" lon="4.76416">
        <ele>169</ele>
        <time>2016-11-05T11:08:46Z</time>
      </trkpt>
      <trkpt lat="45.93009" lon="4.76412">
        <ele>169</ele>
        <time>2016-11-05T11:08:47Z</time>
      </trkpt>
      <trkpt lat="45.93005" lon="4.76408">
        <ele>169</ele>
        <time>2016-11-05T11:08:48Z</time>
      </trkpt>
      <trkpt lat="45.93001" lon="4.76404">
        <ele>169</ele>
        <time>2016-11-05T11:08:49Z</time>
      </trkpt>
      <trkpt lat="45.92996" lon="4.764">
        <ele>169</ele>
        <time>2016-11-05T11:08:50Z</time>
      </trkpt>
      <trkpt lat="45.92992" lon="4.76395">
        <ele>169</ele>
        <time>2016-11-05T11:08:51Z</time>
      </trkpt>
      <trkpt lat="45.92988" lon="4.7639">
        <ele>169</ele>
        <time>2016-11-05T11:08:52Z</time>
      </trkpt>
      <trkpt lat="45.92984" lon="4.76386">
        <ele>169</ele>
        <time>2016-11-05T11:08:53Z</time>
      </trkpt>
      <trkpt lat="45.92979" lon="4.76381">
        <ele>169</ele>
        <time>2016-11-05T11:08:54Z</time>
      </trkpt>
      <trkpt lat="45.92975" lon="4.76377">
        <ele>169</ele>
        <time>2016-11-05T11:08:55Z</time>
      </trkpt>
      <trkpt lat="45.9297" lon="4.76372">
        <ele>169</ele>
        <time>2016-11-05T11:08:56Z</time>
      </trkpt>
      <trkpt lat="45.92966" lon="4.76368">
        <ele>169</ele>
        <time>2016-11-05T11:08:57Z</time>
      </trkpt>
      <trkpt lat="45.92961" lon="4.76363">
        <ele>169</ele>
        <time>2016-11-05T11:08:58Z</time>
      </trkpt>
      <trkpt lat="45.92957" lon="4.76358">
        <ele>169</ele>
        <time>2016-11-05T11:08:59Z</time>
      </trkpt>
      <trkpt lat="45.92952" lon="4.76353">
        <ele>169</ele>
        <time>2016-11-05T11:09:00Z</time>
      </trkpt>
      <trkpt lat="45.92948" lon="4.76348">
        <ele>169</ele>
        <time>2016-11-05T11:09:01Z</time>
      </trkpt>
      <trkpt lat="45.92943" lon="4.76344">
        <ele>169</ele>
        <time>2016-11-05T11:09:02Z</time>
      </trkpt>
      <trkpt lat="45.92938" lon="4.76339">
        <ele>169</ele>
        <time>2016-11-05T11:09:03Z</time>
      </trkpt>
      <trkpt lat="45.92934" lon="4.76334">
        <ele>169</ele>
        <time>2016-11-05T11:09:04Z</time>
      </trkpt>
      <trkpt lat="45.92929" lon="4.76329">
        <ele>169</ele>
        <time>2016-11-05T11:09:05Z</time>
      </trkpt>
      <trkpt lat="45.92925" lon="4.76324">
        <ele>169</ele>
        <time>2016-11-05T11:09:06Z</time>
      </trkpt>
      <trkpt lat="45.92921" lon="4.7632">
        <ele>169</ele>
        <time>2016-11-05T11:09:07Z</time>
      </trkpt>
      <trkpt lat="45.92917" lon="4.76316">
        <ele>169</ele>
        <time>2016-11-05T11:09:08Z</time>
      </trkpt>
      <trkpt lat="45.92914" lon="4.76312">
        <ele>169</ele>
        <time>2016-11-05T11:09:09Z</time>
      </trkpt>
      <trkpt lat="45.9291" lon="4.76308">
        <ele>169</ele>
        <time>2016-11-05T11:09:10Z</time>
      </trkpt>
      <trkpt lat="45.92906" lon="4.76304">
        <ele>169</ele>
        <time>2016-11-05T11:09:11Z</time>
      </trkpt>
      <trkpt lat="45.92902" lon="4.763">
        <ele>169</ele>
        <time>2016-11-05T11:09:12Z</time>
      </trkpt>
      <trkpt lat="45.92897" lon="4.76296">
        <ele>169</ele>
        <time>2016-11-05T11:09:13Z</time>
      </trkpt>
      <trkpt lat="45.92893" lon="4.76292">
        <ele>169</ele>
        <time>2016-11-05T11:09:14Z</time>
      </trkpt>
      <trkpt lat="45.92889" lon="4.76287">
        <ele>169</ele>
        <time>2016-11-05T11:09:15Z</time>
      </trkpt>
      <trkpt lat="45.92885" lon="4.76282">
        <ele>169</ele>
        <time>2016-11-05T11:09:16Z</time>
      </trkpt>
      <trkpt lat="45.92881" lon="4.76278">
        <ele>169</ele>
        <time>2016-11-05T11:09:17Z</time>
      </trkpt>
      <trkpt lat="45.92877" lon="4.76273">
        <ele>169</ele>
        <time>2016-11-05T11:09:18Z</time>
      </trkpt>
      <trkpt lat="45.92873" lon="4.76269">
        <ele>169</ele>
        <time>2016-11-05T11:09:19Z</time>
      </trkpt>
      <trkpt lat="45.92869" lon="4.76265">
        <ele>169</ele>
        <time>2016-11-05T11:09:20Z</time>
      </trkpt>
      <trkpt lat="45.92864" lon="4.7626">
        <ele>169</ele>
        <time>2016-11-05T11:09:21Z</time>
      </trkpt>
      <trkpt lat="45.9286" lon="4.76256">
        <ele>169</ele>
        <time>2016-11-05T11:09:22Z</time>
      </trkpt>
      <trkpt lat="45.92856" lon="4.76252">
        <ele>169</ele>
        <time>2016-11-05T11:09:23Z</time>
      </trkpt>
      <trkpt lat="45.92852" lon="4.76248">
        <ele>169</ele>
        <time>2016-11-05T11:09:24Z</time>
      </trkpt>
      <trkpt lat="45.92848" lon="4.76244">
        <ele>169</ele>
        <time>2016-11-05T11:09:25Z</time>
      </trkpt>
      <trkpt lat="45.92844" lon="4.7624">
        <ele>169</ele>
        <time>2016-11-05T11:09:26Z</time>
      </trkpt>
      <trkpt lat="45.9284" lon="4.76235">
        <ele>169</ele>
        <time>2016-11-05T11:09:27Z</time>
      </trkpt>
      <trkpt lat="45.92835" lon="4.76231">
        <ele>169</ele>
        <time>2016-11-05T11:09:28Z</time>
      </trkpt>
      <trkpt lat="45.92831" lon="4.76227">
        <ele>168</ele>
        <time>2016-11-05T11:09:29Z</time>
      </trkpt>
      <trkpt lat="45.92826" lon="4.76221">
        <ele>168</ele>
        <time>2016-11-05T11:09:30Z</time>
      </trkpt>
      <trkpt lat="45.92821" lon="4.76215">
        <ele>168</ele>
        <time>2016-11-05T11:09:31Z</time>
      </trkpt>
      <trkpt lat="45.92816" lon="4.76211">
        <ele>168</ele>
        <time>2016-11-05T11:09:32Z</time>
      </trkpt>
      <trkpt lat="45.92812" lon="4.76207">
        <ele>168</ele>
        <time>2016-11-05T11:09:33Z</time>
      </trkpt>
      <trkpt lat="45.92807" lon="4.76203">
        <ele>168</ele>
        <time>2016-11-05T11:09:34Z</time>
      </trkpt>
      <trkpt lat="45.92802" lon="4.76198">
        <ele>168</ele>
        <time>2016-11-05T11:09:35Z</time>
      </trkpt>
      <trkpt lat="45.92798" lon="4.76195">
        <ele>168</ele>
        <time>2016-11-05T11:09:36Z</time>
      </trkpt>
      <trkpt lat="45.92793" lon="4.76191">
        <ele>168</ele>
        <time>2016-11-05T11:09:37Z</time>
      </trkpt>
      <trkpt lat="45.92789" lon="4.76187">
        <ele>168</ele>
        <time>2016-11-05T11:09:38Z</time>
      </trkpt>
      <trkpt lat="45.92784" lon="4.76183">
        <ele>168</ele>
        <time>2016-11-05T11:09:39Z</time>
      </trkpt>
      <trkpt lat="45.9278" lon="4.76179">
        <ele>167</ele>
        <time>2016-11-05T11:09:40Z</time>
      </trkpt>
      <trkpt lat="45.92775" lon="4.76174">
        <ele>167</ele>
        <time>2016-11-05T11:09:41Z</time>
      </trkpt>
      <trkpt lat="45.92771" lon="4.76169">
        <ele>167</ele>
        <time>2016-11-05T11:09:42Z</time>
      </trkpt>
      <trkpt lat="45.92765" lon="4.76165">
        <ele>167</ele>
        <time>2016-11-05T11:09:43Z</time>
      </trkpt>
      <trkpt lat="45.9276" lon="4.76162">
        <ele>167</ele>
        <time>2016-11-05T11:09:44Z</time>
      </trkpt>
      <trkpt lat="45.92755" lon="4.76157">
        <ele>167</ele>
        <time>2016-11-05T11:09:45Z</time>
      </trkpt>
      <trkpt lat="45.92751" lon="4.76152">
        <ele>167</ele>
        <time>2016-11-05T11:09:46Z</time>
      </trkpt>
      <trkpt lat="45.92746" lon="4.76149">
        <ele>168</ele>
        <time>2016-11-05T11:09:47Z</time>
      </trkpt>
      <trkpt lat="45.92742" lon="4.76145">
        <ele>168</ele>
        <time>2016-11-05T11:09:48Z</time>
      </trkpt>
      <trkpt lat="45.92737" lon="4.76141">
        <ele>168</ele>
        <time>2016-11-05T11:09:49Z</time>
      </trkpt>
      <trkpt lat="45.92732" lon="4.76137">
        <ele>168</ele>
        <time>2016-11-05T11:09:50Z</time>
      </trkpt>
      <trkpt lat="45.92727" lon="4.76133">
        <ele>168</ele>
        <time>2016-11-05T11:09:51Z</time>
      </trkpt>
      <trkpt lat="45.92723" lon="4.7613">
        <ele>168</ele>
        <time>2016-11-05T11:09:52Z</time>
      </trkpt>
      <trkpt lat="45.92718" lon="4.76127">
        <ele>168</ele>
        <time>2016-11-05T11:09:53Z</time>
      </trkpt>
      <trkpt lat="45.92714" lon="4.76124">
        <ele>168</ele>
        <time>2016-11-05T11:09:54Z</time>
      </trkpt>
      <trkpt lat="45.92709" lon="4.76121">
        <ele>168</ele>
        <time>2016-11-05T11:09:55Z</time>
      </trkpt>
      <trkpt lat="45.92704" lon="4.76117">
        <ele>169</ele>
        <time>2016-11-05T11:09:56Z</time>
      </trkpt>
      <trkpt lat="45.927" lon="4.76114">
        <ele>169</ele>
        <time>2016-11-05T11:09:57Z</time>
      </trkpt>
      <trkpt lat="45.92695" lon="4.7611">
        <ele>169</ele>
        <time>2016-11-05T11:09:58Z</time>
      </trkpt>
      <trkpt lat="45.9269" lon="4.76107">
        <ele>169</ele>
        <time>2016-11-05T11:09:59Z</time>
      </trkpt>
      <trkpt lat="45.92686" lon="4.76104">
        <ele>169</ele>
        <time>2016-11-05T11:10:00Z</time>
      </trkpt>
      <trkpt lat="45.92681" lon="4.761">
        <ele>169</ele>
        <time>2016-11-05T11:10:01Z</time>
      </trkpt>
      <trkpt lat="45.92676" lon="4.76097">
        <ele>169</ele>
        <time>2016-11-05T11:10:02Z</time>
      </trkpt>
      <trkpt lat="45.92672" lon="4.76094">
        <ele>169</ele>
        <time>2016-11-05T11:10:03Z</time>
      </trkpt>
      <trkpt lat="45.92667" lon="4.76091">
        <ele>170</ele>
        <time>2016-11-05T11:10:04Z</time>
      </trkpt>
      <trkpt lat="45.92659" lon="4.76085">
        <ele>170</ele>
        <time>2016-11-05T11:10:06Z</time>
      </trkpt>
      <trkpt lat="45.92655" lon="4.76081">
        <ele>170</ele>
        <time>2016-11-05T11:10:07Z</time>
      </trkpt>
      <trkpt lat="45.9265" lon="4.76078">
        <ele>170</ele>
        <time>2016-11-05T11:10:08Z</time>
      </trkpt>
      <trkpt lat="45.92646" lon="4.76075">
        <ele>170</ele>
        <time>2016-11-05T11:10:09Z</time>
      </trkpt>
      <trkpt lat="45.92642" lon="4.76071">
        <ele>170</ele>
        <time>2016-11-05T11:10:10Z</time>
      </trkpt>
      <trkpt lat="45.92637" lon="4.76068">
        <ele>170</ele>
        <time>2016-11-05T11:10:11Z</time>
      </trkpt>
      <trkpt lat="45.92633" lon="4.76065">
        <ele>170</ele>
        <time>2016-11-05T11:10:12Z</time>
      </trkpt>
      <trkpt lat="45.92628" lon="4.76063">
        <ele>170</ele>
        <time>2016-11-05T11:10:13Z</time>
      </trkpt>
      <trkpt lat="45.92624" lon="4.7606">
        <ele>171</ele>
        <time>2016-11-05T11:10:14Z</time>
      </trkpt>
      <trkpt lat="45.92619" lon="4.76057">
        <ele>171</ele>
        <time>2016-11-05T11:10:15Z</time>
      </trkpt>
      <trkpt lat="45.92615" lon="4.76053">
        <ele>171</ele>
        <time>2016-11-05T11:10:16Z</time>
      </trkpt>
      <trkpt lat="45.92611" lon="4.76051">
        <ele>171</ele>
        <time>2016-11-05T11:10:17Z</time>
      </trkpt>
      <trkpt lat="45.92606" lon="4.76047">
        <ele>171</ele>
        <time>2016-11-05T11:10:18Z</time>
      </trkpt>
      <trkpt lat="45.92602" lon="4.76044">
        <ele>171</ele>
        <time>2016-11-05T11:10:19Z</time>
      </trkpt>
      <trkpt lat="45.92598" lon="4.76041">
        <ele>171</ele>
        <time>2016-11-05T11:10:20Z</time>
      </trkpt>
      <trkpt lat="45.92594" lon="4.76037">
        <ele>171</ele>
        <time>2016-11-05T11:10:21Z</time>
      </trkpt>
      <trkpt lat="45.9259" lon="4.76034">
        <ele>171</ele>
        <time>2016-11-05T11:10:22Z</time>
      </trkpt>
      <trkpt lat="45.92586" lon="4.76032">
        <ele>171</ele>
        <time>2016-11-05T11:10:23Z</time>
      </trkpt>
      <trkpt lat="45.92581" lon="4.76029">
        <ele>172</ele>
        <time>2016-11-05T11:10:24Z</time>
      </trkpt>
      <trkpt lat="45.92577" lon="4.76026">
        <ele>172</ele>
        <time>2016-11-05T11:10:25Z</time>
      </trkpt>
      <trkpt lat="45.92573" lon="4.76023">
        <ele>172</ele>
        <time>2016-11-05T11:10:26Z</time>
      </trkpt>
      <trkpt lat="45.92569" lon="4.7602">
        <ele>172</ele>
        <time>2016-11-05T11:10:27Z</time>
      </trkpt>
      <trkpt lat="45.92565" lon="4.76017">
        <ele>172</ele>
        <time>2016-11-05T11:10:28Z</time>
      </trkpt>
      <trkpt lat="45.92561" lon="4.76013">
        <ele>172</ele>
        <time>2016-11-05T11:10:29Z</time>
      </trkpt>
      <trkpt lat="45.92557" lon="4.76011">
        <ele>172</ele>
        <time>2016-11-05T11:10:30Z</time>
      </trkpt>
      <trkpt lat="45.92553" lon="4.76008">
        <ele>172</ele>
        <time>2016-11-05T11:10:31Z</time>
      </trkpt>
      <trkpt lat="45.92548" lon="4.76005">
        <ele>172</ele>
        <time>2016-11-05T11:10:32Z</time>
      </trkpt>
      <trkpt lat="45.92544" lon="4.76002">
        <ele>172</ele>
        <time>2016-11-05T11:10:33Z</time>
      </trkpt>
      <trkpt lat="45.9254" lon="4.75999">
        <ele>172</ele>
        <time>2016-11-05T11:10:34Z</time>
      </trkpt>
      <trkpt lat="45.92535" lon="4.75995">
        <ele>172</ele>
        <time>2016-11-05T11:10:35Z</time>
      </trkpt>
      <trkpt lat="45.92531" lon="4.75992">
        <ele>172</ele>
        <time>2016-11-05T11:10:36Z</time>
      </trkpt>
      <trkpt lat="45.92526" lon="4.75988">
        <ele>172</ele>
        <time>2016-11-05T11:10:37Z</time>
      </trkpt>
      <trkpt lat="45.92521" lon="4.75984">
        <ele>172</ele>
        <time>2016-11-05T11:10:38Z</time>
      </trkpt>
      <trkpt lat="45.92517" lon="4.75981">
        <ele>172</ele>
        <time>2016-11-05T11:10:39Z</time>
      </trkpt>
      <trkpt lat="45.92512" lon="4.75978">
        <ele>172</ele>
        <time>2016-11-05T11:10:40Z</time>
      </trkpt>
      <trkpt lat="45.92508" lon="4.75975">
        <ele>172</ele>
        <time>2016-11-05T11:10:41Z</time>
      </trkpt>
      <trkpt lat="45.92503" lon="4.75971">
        <ele>172</ele>
        <time>2016-11-05T11:10:42Z</time>
      </trkpt>
      <trkpt lat="45.92499" lon="4.75968">
        <ele>172</ele>
        <time>2016-11-05T11:10:43Z</time>
      </trkpt>
      <trkpt lat="45.92494" lon="4.75965">
        <ele>172</ele>
        <time>2016-11-05T11:10:44Z</time>
      </trkpt>
      <trkpt lat="45.92489" lon="4.75962">
        <ele>172</ele>
        <time>2016-11-05T11:10:45Z</time>
      </trkpt>
      <trkpt lat="45.92484" lon="4.75959">
        <ele>172</ele>
        <time>2016-11-05T11:10:46Z</time>
      </trkpt>
      <trkpt lat="45.92479" lon="4.75955">
        <ele>172</ele>
        <time>2016-11-05T11:10:47Z</time>
      </trkpt>
      <trkpt lat="45.92474" lon="4.75952">
        <ele>172</ele>
        <time>2016-11-05T11:10:48Z</time>
      </trkpt>
      <trkpt lat="45.92468" lon="4.75948">
        <ele>172</ele>
        <time>2016-11-05T11:10:49Z</time>
      </trkpt>
      <trkpt lat="45.92463" lon="4.75945">
        <ele>172</ele>
        <time>2016-11-05T11:10:50Z</time>
      </trkpt>
      <trkpt lat="45.92458" lon="4.75941">
        <ele>172</ele>
        <time>2016-11-05T11:10:51Z</time>
      </trkpt>
      <trkpt lat="45.92453" lon="4.75938">
        <ele>172</ele>
        <time>2016-11-05T11:10:52Z</time>
      </trkpt>
      <trkpt lat="45.92448" lon="4.75934">
        <ele>172</ele>
        <time>2016-11-05T11:10:53Z</time>
      </trkpt>
      <trkpt lat="45.92442" lon="4.7593">
        <ele>172</ele>
        <time>2016-11-05T11:10:54Z</time>
      </trkpt>
      <trkpt lat="45.92437" lon="4.75927">
        <ele>172</ele>
        <time>2016-11-05T11:10:55Z</time>
      </trkpt>
      <trkpt lat="45.92431" lon="4.75923">
        <ele>172</ele>
        <time>2016-11-05T11:10:56Z</time>
      </trkpt>
      <trkpt lat="45.92425" lon="4.75919">
        <ele>172</ele>
        <time>2016-11-05T11:10:57Z</time>
      </trkpt>
      <trkpt lat="45.92419" lon="4.75915">
        <ele>172</ele>
        <time>2016-11-05T11:10:58Z</time>
      </trkpt>
      <trkpt lat="45.92413" lon="4.75911">
        <ele>172</ele>
        <time>2016-11-05T11:10:59Z</time>
      </trkpt>
      <trkpt lat="45.92407" lon="4.75907">
        <ele>172</ele>
        <time>2016-11-05T11:11:00Z</time>
      </trkpt>
      <trkpt lat="45.92401" lon="4.75903">
        <ele>173</ele>
        <time>2016-11-05T11:11:01Z</time>
      </trkpt>
      <trkpt lat="45.92396" lon="4.75898">
        <ele>173</ele>
        <time>2016-11-05T11:11:02Z</time>
      </trkpt>
      <trkpt lat="45.92389" lon="4.75894">
        <ele>173</ele>
        <time>2016-11-05T11:11:03Z</time>
      </trkpt>
      <trkpt lat="45.92383" lon="4.7589">
        <ele>173</ele>
        <time>2016-11-05T11:11:04Z</time>
      </trkpt>
      <trkpt lat="45.92378" lon="4.75886">
        <ele>173</ele>
        <time>2016-11-05T11:11:05Z</time>
      </trkpt>
      <trkpt lat="45.92372" lon="4.75882">
        <ele>173</ele>
        <time>2016-11-05T11:11:06Z</time>
      </trkpt>
      <trkpt lat="45.92366" lon="4.75879">
        <ele>173</ele>
        <time>2016-11-05T11:11:07Z</time>
      </trkpt>
      <trkpt lat="45.92361" lon="4.75875">
        <ele>173</ele>
        <time>2016-11-05T11:11:08Z</time>
      </trkpt>
      <trkpt lat="45.92355" lon="4.75872">
        <ele>173</ele>
        <time>2016-11-05T11:11:09Z</time>
      </trkpt>
      <trkpt lat="45.9235" lon="4.75869">
        <ele>173</ele>
        <time>2016-11-05T11:11:10Z</time>
      </trkpt>
      <trkpt lat="45.92345" lon="4.75865">
        <ele>173</ele>
        <time>2016-11-05T11:11:11Z</time>
      </trkpt>
      <trkpt lat="45.9234" lon="4.75862">
        <ele>173</ele>
        <time>2016-11-05T11:11:12Z</time>
      </trkpt>
      <trkpt lat="45.92335" lon="4.75859">
        <ele>173</ele>
        <time>2016-11-05T11:11:13Z</time>
      </trkpt>
      <trkpt lat="45.92331" lon="4.75856">
        <ele>174</ele>
        <time>2016-11-05T11:11:14Z</time>
      </trkpt>
      <trkpt lat="45.92326" lon="4.75853">
        <ele>174</ele>
        <time>2016-11-05T11:11:15Z</time>
      </trkpt>
      <trkpt lat="45.92321" lon="4.7585">
        <ele>174</ele>
        <time>2016-11-05T11:11:16Z</time>
      </trkpt>
      <trkpt lat="45.92316" lon="4.75847">
        <ele>174</ele>
        <time>2016-11-05T11:11:17Z</time>
      </trkpt>
      <trkpt lat="45.92311" lon="4.75845">
        <ele>173</ele>
        <time>2016-11-05T11:11:18Z</time>
      </trkpt>
      <trkpt lat="45.92305" lon="4.75842">
        <ele>173</ele>
        <time>2016-11-05T11:11:19Z</time>
      </trkpt>
      <trkpt lat="45.923" lon="4.75839">
        <ele>173</ele>
        <time>2016-11-05T11:11:20Z</time>
      </trkpt>
      <trkpt lat="45.92295" lon="4.75835">
        <ele>173</ele>
        <time>2016-11-05T11:11:21Z</time>
      </trkpt>
      <trkpt lat="45.92289" lon="4.75832">
        <ele>174</ele>
        <time>2016-11-05T11:11:22Z</time>
      </trkpt>
      <trkpt lat="45.92284" lon="4.75828">
        <ele>174</ele>
        <time>2016-11-05T11:11:23Z</time>
      </trkpt>
      <trkpt lat="45.92279" lon="4.75824">
        <ele>174</ele>
        <time>2016-11-05T11:11:24Z</time>
      </trkpt>
      <trkpt lat="45.92275" lon="4.75819">
        <ele>174</ele>
        <time>2016-11-05T11:11:25Z</time>
      </trkpt>
      <trkpt lat="45.92271" lon="4.75814">
        <ele>174</ele>
        <time>2016-11-05T11:11:26Z</time>
      </trkpt>
      <trkpt lat="45.92268" lon="4.75808">
        <ele>174</ele>
        <time>2016-11-05T11:11:27Z</time>
      </trkpt>
      <trkpt lat="45.92265" lon="4.75803">
        <ele>174</ele>
        <time>2016-11-05T11:11:28Z</time>
      </trkpt>
      <trkpt lat="45.92263" lon="4.75797">
        <ele>174</ele>
        <time>2016-11-05T11:11:29Z</time>
      </trkpt>
      <trkpt lat="45.92262" lon="4.75791">
        <ele>174</ele>
        <time>2016-11-05T11:11:30Z</time>
      </trkpt>
      <trkpt lat="45.9226" lon="4.75784">
        <ele>174</ele>
        <time>2016-11-05T11:11:31Z</time>
      </trkpt>
      <trkpt lat="45.92259" lon="4.75778">
        <ele>174</ele>
        <time>2016-11-05T11:11:32Z</time>
      </trkpt>
      <trkpt lat="45.92258" lon="4.75771">
        <ele>174</ele>
        <time>2016-11-05T11:11:33Z</time>
      </trkpt>
      <trkpt lat="45.92257" lon="4.75765">
        <ele>174</ele>
        <time>2016-11-05T11:11:34Z</time>
      </trkpt>
      <trkpt lat="45.92255" lon="4.75757">
        <ele>174</ele>
        <time>2016-11-05T11:11:35Z</time>
      </trkpt>
      <trkpt lat="45.92254" lon="4.7575">
        <ele>174</ele>
        <time>2016-11-05T11:11:36Z</time>
      </trkpt>
      <trkpt lat="45.92252" lon="4.75743">
        <ele>174</ele>
        <time>2016-11-05T11:11:37Z</time>
      </trkpt>
      <trkpt lat="45.9225" lon="4.75735">
        <ele>174</ele>
        <time>2016-11-05T11:11:38Z</time>
      </trkpt>
      <trkpt lat="45.92248" lon="4.75727">
        <ele>174</ele>
        <time>2016-11-05T11:11:39Z</time>
      </trkpt>
      <trkpt lat="45.92245" lon="4.7572">
        <ele>174</ele>
        <time>2016-11-05T11:11:40Z</time>
      </trkpt>
      <trkpt lat="45.92243" lon="4.75713">
        <ele>174</ele>
        <time>2016-11-05T11:11:41Z</time>
      </trkpt>
      <trkpt lat="45.9224" lon="4.75707">
        <ele>174</ele>
        <time>2016-11-05T11:11:42Z</time>
      </trkpt>
      <trkpt lat="45.92237" lon="4.75701">
        <ele>174</ele>
        <time>2016-11-05T11:11:43Z</time>
      </trkpt>
      <trkpt lat="45.92233" lon="4.75696">
        <ele>174</ele>
        <time>2016-11-05T11:11:44Z</time>
      </trkpt>
      <trkpt lat="45.92229" lon="4.75691">
        <ele>174</ele>
        <time>2016-11-05T11:11:45Z</time>
      </trkpt>
      <trkpt lat="45.92225" lon="4.75687">
        <ele>174</ele>
        <time>2016-11-05T11:11:46Z</time>
      </trkpt>
      <trkpt lat="45.9222" lon="4.75682">
        <ele>174</ele>
        <time>2016-11-05T11:11:47Z</time>
      </trkpt>
      <trkpt lat="45.92215" lon="4.75678">
        <ele>174</ele>
        <time>2016-11-05T11:11:48Z</time>
      </trkpt>
      <trkpt lat="45.92211" lon="4.75673">
        <ele>174</ele>
        <time>2016-11-05T11:11:49Z</time>
      </trkpt>
      <trkpt lat="45.92206" lon="4.75668">
        <ele>174</ele>
        <time>2016-11-05T11:11:50Z</time>
      </trkpt>
      <trkpt lat="45.92201" lon="4.75663">
        <ele>174</ele>
        <time>2016-11-05T11:11:51Z</time>
      </trkpt>
      <trkpt lat="45.92197" lon="4.75659">
        <ele>174</ele>
        <time>2016-11-05T11:11:52Z</time>
      </trkpt>
      <trkpt lat="45.92192" lon="4.75654">
        <ele>174</ele>
        <time>2016-11-05T11:11:53Z</time>
      </trkpt>
      <trkpt lat="45.92188" lon="4.7565">
        <ele>174</ele>
        <time>2016-11-05T11:11:54Z</time>
      </trkpt>
      <trkpt lat="45.92183" lon="4.75646">
        <ele>174</ele>
        <time>2016-11-05T11:11:55Z</time>
      </trkpt>
      <trkpt lat="45.92179" lon="4.75642">
        <ele>174</ele>
        <time>2016-11-05T11:11:56Z</time>
      </trkpt>
      <trkpt lat="45.92174" lon="4.75637">
        <ele>174</ele>
        <time>2016-11-05T11:11:57Z</time>
      </trkpt>
      <trkpt lat="45.9217" lon="4.75633">
        <ele>174</ele>
        <time>2016-11-05T11:11:58Z</time>
      </trkpt>
      <trkpt lat="45.92166" lon="4.75629">
        <ele>174</ele>
        <time>2016-11-05T11:11:59Z</time>
      </trkpt>
      <trkpt lat="45.92161" lon="4.75624">
        <ele>174</ele>
        <time>2016-11-05T11:12:00Z</time>
      </trkpt>
      <trkpt lat="45.92157" lon="4.75619">
        <ele>174</ele>
        <time>2016-11-05T11:12:01Z</time>
      </trkpt>
      <trkpt lat="45.92152" lon="4.75613">
        <ele>174</ele>
        <time>2016-11-05T11:12:02Z</time>
      </trkpt>
      <trkpt lat="45.92147" lon="4.75608">
        <ele>174</ele>
        <time>2016-11-05T11:12:03Z</time>
      </trkpt>
      <trkpt lat="45.92142" lon="4.75604">
        <ele>174</ele>
        <time>2016-11-05T11:12:04Z</time>
      </trkpt>
      <trkpt lat="45.92137" lon="4.756">
        <ele>174</ele>
        <time>2016-11-05T11:12:05Z</time>
      </trkpt>
      <trkpt lat="45.92133" lon="4.75596">
        <ele>174</ele>
        <time>2016-11-05T11:12:06Z</time>
      </trkpt>
      <trkpt lat="45.92129" lon="4.75592">
        <ele>174</ele>
        <time>2016-11-05T11:12:07Z</time>
      </trkpt>
      <trkpt lat="45.92125" lon="4.75588">
        <ele>174</ele>
        <time>2016-11-05T11:12:08Z</time>
      </trkpt>
      <trkpt lat="45.92122" lon="4.75583">
        <ele>174</ele>
        <time>2016-11-05T11:12:09Z</time>
      </trkpt>
      <trkpt lat="45.92117" lon="4.75574">
        <ele>174</ele>
        <time>2016-11-05T11:12:11Z</time>
      </trkpt>
      <trkpt lat="45.92116" lon="4.75568">
        <ele>174</ele>
        <time>2016-11-05T11:12:12Z</time>
      </trkpt>
      <trkpt lat="45.92118" lon="4.75557">
        <ele>174</ele>
        <time>2016-11-05T11:12:14Z</time>
      </trkpt>
      <trkpt lat="45.92121" lon="4.75552">
        <ele>174</ele>
        <time>2016-11-05T11:12:15Z</time>
      </trkpt>
      <trkpt lat="45.92124" lon="4.75547">
        <ele>174</ele>
        <time>2016-11-05T11:12:16Z</time>
      </trkpt>
      <trkpt lat="45.92128" lon="4.75541">
        <ele>174</ele>
        <time>2016-11-05T11:12:17Z</time>
      </trkpt>
      <trkpt lat="45.92131" lon="4.75535">
        <ele>174</ele>
        <time>2016-11-05T11:12:18Z</time>
      </trkpt>
      <trkpt lat="45.92135" lon="4.75529">
        <ele>174</ele>
        <time>2016-11-05T11:12:19Z</time>
      </trkpt>
      <trkpt lat="45.92138" lon="4.75523">
        <ele>174</ele>
        <time>2016-11-05T11:12:20Z</time>
      </trkpt>
      <trkpt lat="45.92141" lon="4.75517">
        <ele>174</ele>
        <time>2016-11-05T11:12:21Z</time>
      </trkpt>
      <trkpt lat="45.92144" lon="4.75511">
        <ele>174</ele>
        <time>2016-11-05T11:12:22Z</time>
      </trkpt>
      <trkpt lat="45.92146" lon="4.75505">
        <ele>175</ele>
        <time>2016-11-05T11:12:23Z</time>
      </trkpt>
      <trkpt lat="45.92149" lon="4.75499">
        <ele>175</ele>
        <time>2016-11-05T11:12:24Z</time>
      </trkpt>
      <trkpt lat="45.92151" lon="4.75493">
        <ele>175</ele>
        <time>2016-11-05T11:12:25Z</time>
      </trkpt>
      <trkpt lat="45.92154" lon="4.75486">
        <ele>176</ele>
        <time>2016-11-05T11:12:26Z</time>
      </trkpt>
      <trkpt lat="45.92156" lon="4.7548">
        <ele>176</ele>
        <time>2016-11-05T11:12:27Z</time>
      </trkpt>
      <trkpt lat="45.92158" lon="4.75474">
        <ele>176</ele>
        <time>2016-11-05T11:12:28Z</time>
      </trkpt>
      <trkpt lat="45.92161" lon="4.75467">
        <ele>176</ele>
        <time>2016-11-05T11:12:29Z</time>
      </trkpt>
      <trkpt lat="45.92164" lon="4.75461">
        <ele>176</ele>
        <time>2016-11-05T11:12:30Z</time>
      </trkpt>
      <trkpt lat="45.92166" lon="4.75455">
        <ele>176</ele>
        <time>2016-11-05T11:12:31Z</time>
      </trkpt>
      <trkpt lat="45.92168" lon="4.75448">
        <ele>176</ele>
        <time>2016-11-05T11:12:32Z</time>
      </trkpt>
      <trkpt lat="45.92171" lon="4.75442">
        <ele>177</ele>
        <time>2016-11-05T11:12:33Z</time>
      </trkpt>
      <trkpt lat="45.92173" lon="4.75435">
        <ele>177</ele>
        <time>2016-11-05T11:12:34Z</time>
      </trkpt>
      <trkpt lat="45.92176" lon="4.75429">
        <ele>177</ele>
        <time>2016-11-05T11:12:35Z</time>
      </trkpt>
      <trkpt lat="45.92178" lon="4.75423">
        <ele>177</ele>
        <time>2016-11-05T11:12:36Z</time>
      </trkpt>
      <trkpt lat="45.92181" lon="4.75417">
        <ele>177</ele>
        <time>2016-11-05T11:12:37Z</time>
      </trkpt>
      <trkpt lat="45.92185" lon="4.75406">
        <ele>177</ele>
        <time>2016-11-05T11:12:39Z</time>
      </trkpt>
      <trkpt lat="45.92187" lon="4.754">
        <ele>177</ele>
        <time>2016-11-05T11:12:40Z</time>
      </trkpt>
      <trkpt lat="45.9219" lon="4.7539">
        <ele>177</ele>
        <time>2016-11-05T11:12:42Z</time>
      </trkpt>
      <trkpt lat="45.92193" lon="4.75384">
        <ele>177</ele>
        <time>2016-11-05T11:12:43Z</time>
      </trkpt>
      <trkpt lat="45.92195" lon="4.75378">
        <ele>177</ele>
        <time>2016-11-05T11:12:44Z</time>
      </trkpt>
      <trkpt lat="45.92197" lon="4.75371">
        <ele>177</ele>
        <time>2016-11-05T11:12:45Z</time>
      </trkpt>
      <trkpt lat="45.922" lon="4.75364">
        <ele>177</ele>
        <time>2016-11-05T11:12:46Z</time>
      </trkpt>
      <trkpt lat="45.92202" lon="4.75358">
        <ele>177</ele>
        <time>2016-11-05T11:12:47Z</time>
      </trkpt>
      <trkpt lat="45.92204" lon="4.75351">
        <ele>177</ele>
        <time>2016-11-05T11:12:48Z</time>
      </trkpt>
      <trkpt lat="45.92205" lon="4.75345">
        <ele>177</ele>
        <time>2016-11-05T11:12:49Z</time>
      </trkpt>
      <trkpt lat="45.92206" lon="4.75337">
        <ele>177</ele>
        <time>2016-11-05T11:12:50Z</time>
      </trkpt>
      <trkpt lat="45.92208" lon="4.7533">
        <ele>176</ele>
        <time>2016-11-05T11:12:51Z</time>
      </trkpt>
      <trkpt lat="45.92209" lon="4.75322">
        <ele>176</ele>
        <time>2016-11-05T11:12:52Z</time>
      </trkpt>
      <trkpt lat="45.9221" lon="4.75313">
        <ele>176</ele>
        <time>2016-11-05T11:12:53Z</time>
      </trkpt>
      <trkpt lat="45.92211" lon="4.75304">
        <ele>176</ele>
        <time>2016-11-05T11:12:54Z</time>
      </trkpt>
      <trkpt lat="45.92211" lon="4.75295">
        <ele>176</ele>
        <time>2016-11-05T11:12:55Z</time>
      </trkpt>
      <trkpt lat="45.92212" lon="4.75286">
        <ele>176</ele>
        <time>2016-11-05T11:12:56Z</time>
      </trkpt>
      <trkpt lat="45.92212" lon="4.75277">
        <ele>176</ele>
        <time>2016-11-05T11:12:57Z</time>
      </trkpt>
      <trkpt lat="45.92212" lon="4.75268">
        <ele>176</ele>
        <time>2016-11-05T11:12:58Z</time>
      </trkpt>
      <trkpt lat="45.92212" lon="4.75259">
        <ele>175</ele>
        <time>2016-11-05T11:12:59Z</time>
      </trkpt>
      <trkpt lat="45.92212" lon="4.7525">
        <ele>175</ele>
        <time>2016-11-05T11:13:00Z</time>
      </trkpt>
      <trkpt lat="45.92213" lon="4.75241">
        <ele>175</ele>
        <time>2016-11-05T11:13:01Z</time>
      </trkpt>
      <trkpt lat="45.92214" lon="4.75231">
        <ele>175</ele>
        <time>2016-11-05T11:13:02Z</time>
      </trkpt>
      <trkpt lat="45.92215" lon="4.75222">
        <ele>175</ele>
        <time>2016-11-05T11:13:03Z</time>
      </trkpt>
      <trkpt lat="45.92216" lon="4.75213">
        <ele>175</ele>
        <time>2016-11-05T11:13:04Z</time>
      </trkpt>
      <trkpt lat="45.92218" lon="4.75204">
        <ele>175</ele>
        <time>2016-11-05T11:13:05Z</time>
      </trkpt>
      <trkpt lat="45.9222" lon="4.75194">
        <ele>175</ele>
        <time>2016-11-05T11:13:06Z</time>
      </trkpt>
      <trkpt lat="45.92222" lon="4.75185">
        <ele>175</ele>
        <time>2016-11-05T11:13:07Z</time>
      </trkpt>
      <trkpt lat="45.92225" lon="4.75177">
        <ele>175</ele>
        <time>2016-11-05T11:13:08Z</time>
      </trkpt>
      <trkpt lat="45.92229" lon="4.75168">
        <ele>175</ele>
        <time>2016-11-05T11:13:09Z</time>
      </trkpt>
      <trkpt lat="45.92232" lon="4.7516">
        <ele>174</ele>
        <time>2016-11-05T11:13:10Z</time>
      </trkpt>
      <trkpt lat="45.92236" lon="4.75152">
        <ele>174</ele>
        <time>2016-11-05T11:13:11Z</time>
      </trkpt>
      <trkpt lat="45.92241" lon="4.75145">
        <ele>174</ele>
        <time>2016-11-05T11:13:12Z</time>
      </trkpt>
      <trkpt lat="45.92245" lon="4.75138">
        <ele>174</ele>
        <time>2016-11-05T11:13:13Z</time>
      </trkpt>
      <trkpt lat="45.92249" lon="4.75132">
        <ele>174</ele>
        <time>2016-11-05T11:13:14Z</time>
      </trkpt>
      <trkpt lat="45.92254" lon="4.75126">
        <ele>174</ele>
        <time>2016-11-05T11:13:15Z</time>
      </trkpt>
      <trkpt lat="45.92259" lon="4.75121">
        <ele>174</ele>
        <time>2016-11-05T11:13:16Z</time>
      </trkpt>
      <trkpt lat="45.92264" lon="4.75115">
        <ele>174</ele>
        <time>2016-11-05T11:13:17Z</time>
      </trkpt>
      <trkpt lat="45.9227" lon="4.75109">
        <ele>174</ele>
        <time>2016-11-05T11:13:18Z</time>
      </trkpt>
      <trkpt lat="45.92275" lon="4.75104">
        <ele>174</ele>
        <time>2016-11-05T11:13:19Z</time>
      </trkpt>
      <trkpt lat="45.92279" lon="4.75099">
        <ele>173</ele>
        <time>2016-11-05T11:13:20Z</time>
      </trkpt>
      <trkpt lat="45.92284" lon="4.75094">
        <ele>173</ele>
        <time>2016-11-05T11:13:21Z</time>
      </trkpt>
      <trkpt lat="45.92289" lon="4.75089">
        <ele>173</ele>
        <time>2016-11-05T11:13:22Z</time>
      </trkpt>
      <trkpt lat="45.92294" lon="4.75084">
        <ele>173</ele>
        <time>2016-11-05T11:13:23Z</time>
      </trkpt>
      <trkpt lat="45.92299" lon="4.75079">
        <ele>172</ele>
        <time>2016-11-05T11:13:24Z</time>
      </trkpt>
      <trkpt lat="45.92303" lon="4.75074">
        <ele>172</ele>
        <time>2016-11-05T11:13:25Z</time>
      </trkpt>
      <trkpt lat="45.92308" lon="4.75069">
        <ele>172</ele>
        <time>2016-11-05T11:13:26Z</time>
      </trkpt>
      <trkpt lat="45.92312" lon="4.75063">
        <ele>172</ele>
        <time>2016-11-05T11:13:27Z</time>
      </trkpt>
      <trkpt lat="45.92316" lon="4.75056">
        <ele>172</ele>
        <time>2016-11-05T11:13:28Z</time>
      </trkpt>
      <trkpt lat="45.92321" lon="4.75049">
        <ele>172</ele>
        <time>2016-11-05T11:13:29Z</time>
      </trkpt>
      <trkpt lat="45.92325" lon="4.75042">
        <ele>172</ele>
        <time>2016-11-05T11:13:30Z</time>
      </trkpt>
      <trkpt lat="45.92329" lon="4.75035">
        <ele>171</ele>
        <time>2016-11-05T11:13:31Z</time>
      </trkpt>
      <trkpt lat="45.92333" lon="4.75028">
        <ele>171</ele>
        <time>2016-11-05T11:13:32Z</time>
      </trkpt>
      <trkpt lat="45.92336" lon="4.75021">
        <ele>170</ele>
        <time>2016-11-05T11:13:33Z</time>
      </trkpt>
      <trkpt lat="45.92341" lon="4.75014">
        <ele>170</ele>
        <time>2016-11-05T11:13:34Z</time>
      </trkpt>
      <trkpt lat="45.92344" lon="4.75008">
        <ele>170</ele>
        <time>2016-11-05T11:13:35Z</time>
      </trkpt>
      <trkpt lat="45.92346" lon="4.75001">
        <ele>170</ele>
        <time>2016-11-05T11:13:36Z</time>
      </trkpt>
      <trkpt lat="45.92348" lon="4.74994">
        <ele>170</ele>
        <time>2016-11-05T11:13:37Z</time>
      </trkpt>
      <trkpt lat="45.92351" lon="4.74987">
        <ele>170</ele>
        <time>2016-11-05T11:13:38Z</time>
      </trkpt>
      <trkpt lat="45.92353" lon="4.7498">
        <ele>170</ele>
        <time>2016-11-05T11:13:39Z</time>
      </trkpt>
      <trkpt lat="45.92356" lon="4.74973">
        <ele>170</ele>
        <time>2016-11-05T11:13:40Z</time>
      </trkpt>
      <trkpt lat="45.92358" lon="4.74966">
        <ele>170</ele>
        <time>2016-11-05T11:13:41Z</time>
      </trkpt>
      <trkpt lat="45.92361" lon="4.74959">
        <ele>170</ele>
        <time>2016-11-05T11:13:42Z</time>
      </trkpt>
      <trkpt lat="45.92363" lon="4.74952">
        <ele>170</ele>
        <time>2016-11-05T11:13:43Z</time>
      </trkpt>
      <trkpt lat="45.92367" lon="4.74945">
        <ele>170</ele>
        <time>2016-11-05T11:13:44Z</time>
      </trkpt>
      <trkpt lat="45.92369" lon="4.74937">
        <ele>170</ele>
        <time>2016-11-05T11:13:45Z</time>
      </trkpt>
      <trkpt lat="45.92372" lon="4.7493">
        <ele>170</ele>
        <time>2016-11-05T11:13:46Z</time>
      </trkpt>
      <trkpt lat="45.92375" lon="4.74923">
        <ele>170</ele>
        <time>2016-11-05T11:13:47Z</time>
      </trkpt>
      <trkpt lat="45.92378" lon="4.74916">
        <ele>171</ele>
        <time>2016-11-05T11:13:48Z</time>
      </trkpt>
      <trkpt lat="45.92381" lon="4.74909">
        <ele>171</ele>
        <time>2016-11-05T11:13:49Z</time>
      </trkpt>
      <trkpt lat="45.92384" lon="4.74902">
        <ele>171</ele>
        <time>2016-11-05T11:13:50Z</time>
      </trkpt>
      <trkpt lat="45.92386" lon="4.74895">
        <ele>171</ele>
        <time>2016-11-05T11:13:51Z</time>
      </trkpt>
      <trkpt lat="45.92389" lon="4.74888">
        <ele>171</ele>
        <time>2016-11-05T11:13:52Z</time>
      </trkpt>
      <trkpt lat="45.92392" lon="4.74881">
        <ele>171</ele>
        <time>2016-11-05T11:13:53Z</time>
      </trkpt>
      <trkpt lat="45.92395" lon="4.74875">
        <ele>171</ele>
        <time>2016-11-05T11:13:54Z</time>
      </trkpt>
      <trkpt lat="45.92397" lon="4.74867">
        <ele>171</ele>
        <time>2016-11-05T11:13:55Z</time>
      </trkpt>
      <trkpt lat="45.924" lon="4.7486">
        <ele>171</ele>
        <time>2016-11-05T11:13:56Z</time>
      </trkpt>
      <trkpt lat="45.92402" lon="4.74853">
        <ele>171</ele>
        <time>2016-11-05T11:13:57Z</time>
      </trkpt>
      <trkpt lat="45.92404" lon="4.74845">
        <ele>171</ele>
        <time>2016-11-05T11:13:58Z</time>
      </trkpt>
      <trkpt lat="45.92406" lon="4.74838">
        <ele>171</ele>
        <time>2016-11-05T11:13:59Z</time>
      </trkpt>
      <trkpt lat="45.92407" lon="4.7483">
        <ele>171</ele>
        <time>2016-11-05T11:14:00Z</time>
      </trkpt>
      <trkpt lat="45.92409" lon="4.74823">
        <ele>171</ele>
        <time>2016-11-05T11:14:01Z</time>
      </trkpt>
      <trkpt lat="45.92411" lon="4.74815">
        <ele>171</ele>
        <time>2016-11-05T11:14:02Z</time>
      </trkpt>
      <trkpt lat="45.92413" lon="4.74808">
        <ele>171</ele>
        <time>2016-11-05T11:14:03Z</time>
      </trkpt>
      <trkpt lat="45.92414" lon="4.748">
        <ele>171</ele>
        <time>2016-11-05T11:14:04Z</time>
      </trkpt>
      <trkpt lat="45.92416" lon="4.74793">
        <ele>171</ele>
        <time>2016-11-05T11:14:05Z</time>
      </trkpt>
      <trkpt lat="45.92417" lon="4.74785">
        <ele>171</ele>
        <time>2016-11-05T11:14:06Z</time>
      </trkpt>
      <trkpt lat="45.92419" lon="4.74778">
        <ele>171</ele>
        <time>2016-11-05T11:14:07Z</time>
      </trkpt>
      <trkpt lat="45.92421" lon="4.7477">
        <ele>171</ele>
        <time>2016-11-05T11:14:08Z</time>
      </trkpt>
      <trkpt lat="45.92422" lon="4.74763">
        <ele>171</ele>
        <time>2016-11-05T11:14:09Z</time>
      </trkpt>
      <trkpt lat="45.92424" lon="4.74756">
        <ele>171</ele>
        <time>2016-11-05T11:14:10Z</time>
      </trkpt>
      <trkpt lat="45.92426" lon="4.7475">
        <ele>172</ele>
        <time>2016-11-05T11:14:11Z</time>
      </trkpt>
      <trkpt lat="45.92428" lon="4.74743">
        <ele>171</ele>
        <time>2016-11-05T11:14:12Z</time>
      </trkpt>
      <trkpt lat="45.9243" lon="4.74737">
        <ele>171</ele>
        <time>2016-11-05T11:14:13Z</time>
      </trkpt>
      <trkpt lat="45.92432" lon="4.74731">
        <ele>171</ele>
        <time>2016-11-05T11:14:14Z</time>
      </trkpt>
      <trkpt lat="45.92434" lon="4.74725">
        <ele>171</ele>
        <time>2016-11-05T11:14:15Z</time>
      </trkpt>
      <trkpt lat="45.92436" lon="4.74719">
        <ele>171</ele>
        <time>2016-11-05T11:14:16Z</time>
      </trkpt>
      <trkpt lat="45.92438" lon="4.74713">
        <ele>171</ele>
        <time>2016-11-05T11:14:17Z</time>
      </trkpt>
      <trkpt lat="45.9244" lon="4.74707">
        <ele>171</ele>
        <time>2016-11-05T11:14:18Z</time>
      </trkpt>
      <trkpt lat="45.92443" lon="4.74701">
        <ele>171</ele>
        <time>2016-11-05T11:14:19Z</time>
      </trkpt>
      <trkpt lat="45.92446" lon="4.74695">
        <ele>171</ele>
        <time>2016-11-05T11:14:20Z</time>
      </trkpt>
      <trkpt lat="45.92449" lon="4.74689">
        <ele>171</ele>
        <time>2016-11-05T11:14:21Z</time>
      </trkpt>
      <trkpt lat="45.92451" lon="4.74684">
        <ele>171</ele>
        <time>2016-11-05T11:14:22Z</time>
      </trkpt>
      <trkpt lat="45.92454" lon="4.74678">
        <ele>171</ele>
        <time>2016-11-05T11:14:23Z</time>
      </trkpt>
      <trkpt lat="45.92456" lon="4.74672">
        <ele>171</ele>
        <time>2016-11-05T11:14:24Z</time>
      </trkpt>
      <trkpt lat="45.92459" lon="4.74666">
        <ele>171</ele>
        <time>2016-11-05T11:14:25Z</time>
      </trkpt>
      <trkpt lat="45.92462" lon="4.74661">
        <ele>171</ele>
        <time>2016-11-05T11:14:26Z</time>
      </trkpt>
      <trkpt lat="45.92465" lon="4.74655">
        <ele>171</ele>
        <time>2016-11-05T11:14:27Z</time>
      </trkpt>
      <trkpt lat="45.92468" lon="4.74649">
        <ele>171</ele>
        <time>2016-11-05T11:14:28Z</time>
      </trkpt>
      <trkpt lat="45.92471" lon="4.74643">
        <ele>171</ele>
        <time>2016-11-05T11:14:29Z</time>
      </trkpt>
      <trkpt lat="45.92475" lon="4.74638">
        <ele>171</ele>
        <time>2016-11-05T11:14:30Z</time>
      </trkpt>
      <trkpt lat="45.92479" lon="4.74633">
        <ele>171</ele>
        <time>2016-11-05T11:14:31Z</time>
      </trkpt>
      <trkpt lat="45.92483" lon="4.74627">
        <ele>171</ele>
        <time>2016-11-05T11:14:32Z</time>
      </trkpt>
      <trkpt lat="45.92487" lon="4.74621">
        <ele>171</ele>
        <time>2016-11-05T11:14:33Z</time>
      </trkpt>
      <trkpt lat="45.92491" lon="4.74615">
        <ele>171</ele>
        <time>2016-11-05T11:14:34Z</time>
      </trkpt>
      <trkpt lat="45.92496" lon="4.7461">
        <ele>171</ele>
        <time>2016-11-05T11:14:35Z</time>
      </trkpt>
      <trkpt lat="45.925" lon="4.74604">
        <ele>171</ele>
        <time>2016-11-05T11:14:36Z</time>
      </trkpt>
      <trkpt lat="45.92505" lon="4.74599">
        <ele>171</ele>
        <time>2016-11-05T11:14:37Z</time>
      </trkpt>
      <trkpt lat="45.92509" lon="4.74595">
        <ele>171</ele>
        <time>2016-11-05T11:14:38Z</time>
      </trkpt>
      <trkpt lat="45.92513" lon="4.7459">
        <ele>171</ele>
        <time>2016-11-05T11:14:39Z</time>
      </trkpt>
      <trkpt lat="45.92517" lon="4.74585">
        <ele>171</ele>
        <time>2016-11-05T11:14:40Z</time>
      </trkpt>
      <trkpt lat="45.92521" lon="4.7458">
        <ele>171</ele>
        <time>2016-11-05T11:14:41Z</time>
      </trkpt>
      <trkpt lat="45.92525" lon="4.74575">
        <ele>171</ele>
        <time>2016-11-05T11:14:42Z</time>
      </trkpt>
      <trkpt lat="45.92529" lon="4.74569">
        <ele>171</ele>
        <time>2016-11-05T11:14:43Z</time>
      </trkpt>
      <trkpt lat="45.92533" lon="4.74564">
        <ele>171</ele>
        <time>2016-11-05T11:14:44Z</time>
      </trkpt>
      <trkpt lat="45.92537" lon="4.74557">
        <ele>171</ele>
        <time>2016-11-05T11:14:45Z</time>
      </trkpt>
      <trkpt lat="45.92541" lon="4.74551">
        <ele>171</ele>
        <time>2016-11-05T11:14:46Z</time>
      </trkpt>
      <trkpt lat="45.92546" lon="4.74545">
        <ele>170</ele>
        <time>2016-11-05T11:14:47Z</time>
      </trkpt>
      <trkpt lat="45.9255" lon="4.74538">
        <ele>170</ele>
        <time>2016-11-05T11:14:48Z</time>
      </trkpt>
      <trkpt lat="45.92554" lon="4.7453">
        <ele>170</ele>
        <time>2016-11-05T11:14:49Z</time>
      </trkpt>
      <trkpt lat="45.92558" lon="4.74524">
        <ele>170</ele>
        <time>2016-11-05T11:14:50Z</time>
      </trkpt>
      <trkpt lat="45.92562" lon="4.74517">
        <ele>170</ele>
        <time>2016-11-05T11:14:51Z</time>
      </trkpt>
      <trkpt lat="45.92566" lon="4.74511">
        <ele>170</ele>
        <time>2016-11-05T11:14:52Z</time>
      </trkpt>
      <trkpt lat="45.92569" lon="4.74504">
        <ele>170</ele>
        <time>2016-11-05T11:14:53Z</time>
      </trkpt>
      <trkpt lat="45.92573" lon="4.74497">
        <ele>170</ele>
        <time>2016-11-05T11:14:54Z</time>
      </trkpt>
      <trkpt lat="45.92577" lon="4.74491">
        <ele>170</ele>
        <time>2016-11-05T11:14:55Z</time>
      </trkpt>
      <trkpt lat="45.9258" lon="4.74484">
        <ele>170</ele>
        <time>2016-11-05T11:14:56Z</time>
      </trkpt>
      <trkpt lat="45.92584" lon="4.74478">
        <ele>170</ele>
        <time>2016-11-05T11:14:57Z</time>
      </trkpt>
      <trkpt lat="45.92587" lon="4.74473">
        <ele>170</ele>
        <time>2016-11-05T11:14:58Z</time>
      </trkpt>
      <trkpt lat="45.9259" lon="4.74466">
        <ele>170</ele>
        <time>2016-11-05T11:14:59Z</time>
      </trkpt>
      <trkpt lat="45.92593" lon="4.7446">
        <ele>170</ele>
        <time>2016-11-05T11:15:00Z</time>
      </trkpt>
      <trkpt lat="45.92596" lon="4.74454">
        <ele>170</ele>
        <time>2016-11-05T11:15:01Z</time>
      </trkpt>
      <trkpt lat="45.926" lon="4.74448">
        <ele>170</ele>
        <time>2016-11-05T11:15:02Z</time>
      </trkpt>
      <trkpt lat="45.92604" lon="4.74441">
        <ele>170</ele>
        <time>2016-11-05T11:15:03Z</time>
      </trkpt>
      <trkpt lat="45.92607" lon="4.74434">
        <ele>170</ele>
        <time>2016-11-05T11:15:04Z</time>
      </trkpt>
      <trkpt lat="45.92611" lon="4.74427">
        <ele>170</ele>
        <time>2016-11-05T11:15:05Z</time>
      </trkpt>
      <trkpt lat="45.92615" lon="4.74421">
        <ele>170</ele>
        <time>2016-11-05T11:15:06Z</time>
      </trkpt>
      <trkpt lat="45.92619" lon="4.74413">
        <ele>170</ele>
        <time>2016-11-05T11:15:07Z</time>
      </trkpt>
      <trkpt lat="45.92622" lon="4.74406">
        <ele>170</ele>
        <time>2016-11-05T11:15:08Z</time>
      </trkpt>
      <trkpt lat="45.92626" lon="4.744">
        <ele>170</ele>
        <time>2016-11-05T11:15:09Z</time>
      </trkpt>
      <trkpt lat="45.92629" lon="4.74393">
        <ele>170</ele>
        <time>2016-11-05T11:15:10Z</time>
      </trkpt>
      <trkpt lat="45.92633" lon="4.74387">
        <ele>170</ele>
        <time>2016-11-05T11:15:11Z</time>
      </trkpt>
      <trkpt lat="45.92636" lon="4.74381">
        <ele>170</ele>
        <time>2016-11-05T11:15:12Z</time>
      </trkpt>
      <trkpt lat="45.92639" lon="4.74376">
        <ele>170</ele>
        <time>2016-11-05T11:15:13Z</time>
      </trkpt>
      <trkpt lat="45.92643" lon="4.7437">
        <ele>171</ele>
        <time>2016-11-05T11:15:14Z</time>
      </trkpt>
      <trkpt lat="45.92646" lon="4.74364">
        <ele>171</ele>
        <time>2016-11-05T11:15:15Z</time>
      </trkpt>
      <trkpt lat="45.92649" lon="4.74358">
        <ele>171</ele>
        <time>2016-11-05T11:15:16Z</time>
      </trkpt>
      <trkpt lat="45.92653" lon="4.74351">
        <ele>171</ele>
        <time>2016-11-05T11:15:17Z</time>
      </trkpt>
      <trkpt lat="45.92656" lon="4.74345">
        <ele>171</ele>
        <time>2016-11-05T11:15:18Z</time>
      </trkpt>
      <trkpt lat="45.9266" lon="4.74338">
        <ele>171</ele>
        <time>2016-11-05T11:15:19Z</time>
      </trkpt>
      <trkpt lat="45.92663" lon="4.74331">
        <ele>171</ele>
        <time>2016-11-05T11:15:20Z</time>
      </trkpt>
      <trkpt lat="45.92667" lon="4.74324">
        <ele>171</ele>
        <time>2016-11-05T11:15:21Z</time>
      </trkpt>
      <trkpt lat="45.9267" lon="4.74317">
        <ele>171</ele>
        <time>2016-11-05T11:15:22Z</time>
      </trkpt>
      <trkpt lat="45.92674" lon="4.74311">
        <ele>171</ele>
        <time>2016-11-05T11:15:23Z</time>
      </trkpt>
      <trkpt lat="45.92677" lon="4.74304">
        <ele>171</ele>
        <time>2016-11-05T11:15:24Z</time>
      </trkpt>
      <trkpt lat="45.92681" lon="4.74298">
        <ele>171</ele>
        <time>2016-11-05T11:15:25Z</time>
      </trkpt>
      <trkpt lat="45.92684" lon="4.74292">
        <ele>171</ele>
        <time>2016-11-05T11:15:26Z</time>
      </trkpt>
      <trkpt lat="45.92688" lon="4.74285">
        <ele>171</ele>
        <time>2016-11-05T11:15:27Z</time>
      </trkpt>
      <trkpt lat="45.92691" lon="4.74279">
        <ele>171</ele>
        <time>2016-11-05T11:15:28Z</time>
      </trkpt>
      <trkpt lat="45.92695" lon="4.74273">
        <ele>171</ele>
        <time>2016-11-05T11:15:29Z</time>
      </trkpt>
      <trkpt lat="45.92698" lon="4.74267">
        <ele>171</ele>
        <time>2016-11-05T11:15:30Z</time>
      </trkpt>
      <trkpt lat="45.92702" lon="4.74261">
        <ele>171</ele>
        <time>2016-11-05T11:15:31Z</time>
      </trkpt>
      <trkpt lat="45.92705" lon="4.74255">
        <ele>171</ele>
        <time>2016-11-05T11:15:32Z</time>
      </trkpt>
      <trkpt lat="45.92709" lon="4.74249">
        <ele>171</ele>
        <time>2016-11-05T11:15:33Z</time>
      </trkpt>
      <trkpt lat="45.92713" lon="4.74243">
        <ele>171</ele>
        <time>2016-11-05T11:15:34Z</time>
      </trkpt>
      <trkpt lat="45.92717" lon="4.74237">
        <ele>171</ele>
        <time>2016-11-05T11:15:35Z</time>
      </trkpt>
      <trkpt lat="45.92721" lon="4.74232">
        <ele>171</ele>
        <time>2016-11-05T11:15:36Z</time>
      </trkpt>
      <trkpt lat="45.92725" lon="4.74226">
        <ele>171</ele>
        <time>2016-11-05T11:15:37Z</time>
      </trkpt>
      <trkpt lat="45.92728" lon="4.74221">
        <ele>171</ele>
        <time>2016-11-05T11:15:38Z</time>
      </trkpt>
      <trkpt lat="45.92732" lon="4.74215">
        <ele>171</ele>
        <time>2016-11-05T11:15:39Z</time>
      </trkpt>
      <trkpt lat="45.92737" lon="4.74209">
        <ele>171</ele>
        <time>2016-11-05T11:15:40Z</time>
      </trkpt>
      <trkpt lat="45.92741" lon="4.74204">
        <ele>171</ele>
        <time>2016-11-05T11:15:41Z</time>
      </trkpt>
      <trkpt lat="45.92745" lon="4.74198">
        <ele>171</ele>
        <time>2016-11-05T11:15:42Z</time>
      </trkpt>
      <trkpt lat="45.92749" lon="4.74193">
        <ele>171</ele>
        <time>2016-11-05T11:15:43Z</time>
      </trkpt>
      <trkpt lat="45.92753" lon="4.74188">
        <ele>172</ele>
        <time>2016-11-05T11:15:44Z</time>
      </trkpt>
      <trkpt lat="45.92758" lon="4.74182">
        <ele>172</ele>
        <time>2016-11-05T11:15:45Z</time>
      </trkpt>
      <trkpt lat="45.92762" lon="4.74177">
        <ele>172</ele>
        <time>2016-11-05T11:15:46Z</time>
      </trkpt>
      <trkpt lat="45.92768" lon="4.74171">
        <ele>172</ele>
        <time>2016-11-05T11:15:47Z</time>
      </trkpt>
      <trkpt lat="45.92773" lon="4.74166">
        <ele>172</ele>
        <time>2016-11-05T11:15:48Z</time>
      </trkpt>
      <trkpt lat="45.92778" lon="4.74161">
        <ele>172</ele>
        <time>2016-11-05T11:15:49Z</time>
      </trkpt>
      <trkpt lat="45.92783" lon="4.74156">
        <ele>172</ele>
        <time>2016-11-05T11:15:50Z</time>
      </trkpt>
      <trkpt lat="45.92789" lon="4.74151">
        <ele>172</ele>
        <time>2016-11-05T11:15:51Z</time>
      </trkpt>
      <trkpt lat="45.92793" lon="4.74147">
        <ele>172</ele>
        <time>2016-11-05T11:15:52Z</time>
      </trkpt>
      <trkpt lat="45.92798" lon="4.74142">
        <ele>172</ele>
        <time>2016-11-05T11:15:53Z</time>
      </trkpt>
      <trkpt lat="45.92802" lon="4.74137">
        <ele>172</ele>
        <time>2016-11-05T11:15:54Z</time>
      </trkpt>
      <trkpt lat="45.92806" lon="4.74133">
        <ele>172</ele>
        <time>2016-11-05T11:15:55Z</time>
      </trkpt>
      <trkpt lat="45.9281" lon="4.74128">
        <ele>172</ele>
        <time>2016-11-05T11:15:56Z</time>
      </trkpt>
      <trkpt lat="45.92814" lon="4.74122">
        <ele>172</ele>
        <time>2016-11-05T11:15:57Z</time>
      </trkpt>
      <trkpt lat="45.92819" lon="4.74117">
        <ele>172</ele>
        <time>2016-11-05T11:15:58Z</time>
      </trkpt>
      <trkpt lat="45.92823" lon="4.74112">
        <ele>171</ele>
        <time>2016-11-05T11:15:59Z</time>
      </trkpt>
      <trkpt lat="45.92828" lon="4.74107">
        <ele>171</ele>
        <time>2016-11-05T11:16:00Z</time>
      </trkpt>
      <trkpt lat="45.92832" lon="4.74102">
        <ele>171</ele>
        <time>2016-11-05T11:16:01Z</time>
      </trkpt>
      <trkpt lat="45.92837" lon="4.74096">
        <ele>171</ele>
        <time>2016-11-05T11:16:02Z</time>
      </trkpt>
      <trkpt lat="45.92842" lon="4.7409">
        <ele>171</ele>
        <time>2016-11-05T11:16:03Z</time>
      </trkpt>
      <trkpt lat="45.92846" lon="4.74085">
        <ele>171</ele>
        <time>2016-11-05T11:16:04Z</time>
      </trkpt>
      <trkpt lat="45.9285" lon="4.7408">
        <ele>172</ele>
        <time>2016-11-05T11:16:05Z</time>
      </trkpt>
      <trkpt lat="45.92853" lon="4.74076">
        <ele>172</ele>
        <time>2016-11-05T11:16:06Z</time>
      </trkpt>
      <trkpt lat="45.92857" lon="4.74071">
        <ele>172</ele>
        <time>2016-11-05T11:16:07Z</time>
      </trkpt>
      <trkpt lat="45.92861" lon="4.74067">
        <ele>172</ele>
        <time>2016-11-05T11:16:08Z</time>
      </trkpt>
      <trkpt lat="45.92865" lon="4.74062">
        <ele>172</ele>
        <time>2016-11-05T11:16:09Z</time>
      </trkpt>
      <trkpt lat="45.92869" lon="4.74058">
        <ele>172</ele>
        <time>2016-11-05T11:16:10Z</time>
      </trkpt>
      <trkpt lat="45.92873" lon="4.74054">
        <ele>172</ele>
        <time>2016-11-05T11:16:11Z</time>
      </trkpt>
      <trkpt lat="45.92878" lon="4.74051">
        <ele>172</ele>
        <time>2016-11-05T11:16:12Z</time>
      </trkpt>
      <trkpt lat="45.92882" lon="4.7405">
        <ele>172</ele>
        <time>2016-11-05T11:16:13Z</time>
      </trkpt>
      <trkpt lat="45.92887" lon="4.7405">
        <ele>172</ele>
        <time>2016-11-05T11:16:14Z</time>
      </trkpt>
      <trkpt lat="45.92891" lon="4.74051">
        <ele>172</ele>
        <time>2016-11-05T11:16:15Z</time>
      </trkpt>
      <trkpt lat="45.92896" lon="4.74051">
        <ele>172</ele>
        <time>2016-11-05T11:16:16Z</time>
      </trkpt>
      <trkpt lat="45.92901" lon="4.74051">
        <ele>172</ele>
        <time>2016-11-05T11:16:17Z</time>
      </trkpt>
      <trkpt lat="45.92906" lon="4.74049">
        <ele>172</ele>
        <time>2016-11-05T11:16:18Z</time>
      </trkpt>
      <trkpt lat="45.9291" lon="4.74045">
        <ele>172</ele>
        <time>2016-11-05T11:16:19Z</time>
      </trkpt>
      <trkpt lat="45.92914" lon="4.74041">
        <ele>172</ele>
        <time>2016-11-05T11:16:20Z</time>
      </trkpt>
      <trkpt lat="45.92917" lon="4.74034">
        <ele>172</ele>
        <time>2016-11-05T11:16:21Z</time>
      </trkpt>
      <trkpt lat="45.92919" lon="4.74027">
        <ele>172</ele>
        <time>2016-11-05T11:16:22Z</time>
      </trkpt>
      <trkpt lat="45.9292" lon="4.74018">
        <ele>172</ele>
        <time>2016-11-05T11:16:23Z</time>
      </trkpt>
      <trkpt lat="45.9292" lon="4.7401">
        <ele>172</ele>
        <time>2016-11-05T11:16:24Z</time>
      </trkpt>
      <trkpt lat="45.92918" lon="4.74002">
        <ele>172</ele>
        <time>2016-11-05T11:16:25Z</time>
      </trkpt>
      <trkpt lat="45.92915" lon="4.73995">
        <ele>172</ele>
        <time>2016-11-05T11:16:26Z</time>
      </trkpt>
      <trkpt lat="45.92912" lon="4.7399">
        <ele>172</ele>
        <time>2016-11-05T11:16:27Z</time>
      </trkpt>
      <trkpt lat="45.92907" lon="4.73986">
        <ele>172</ele>
        <time>2016-11-05T11:16:28Z</time>
      </trkpt>
      <trkpt lat="45.92903" lon="4.73983">
        <ele>172</ele>
        <time>2016-11-05T11:16:29Z</time>
      </trkpt>
      <trkpt lat="45.92898" lon="4.7398">
        <ele>172</ele>
        <time>2016-11-05T11:16:30Z</time>
      </trkpt>
      <trkpt lat="45.92895" lon="4.73975">
        <ele>172</ele>
        <time>2016-11-05T11:16:31Z</time>
      </trkpt>
      <trkpt lat="45.92892" lon="4.73969">
        <ele>172</ele>
        <time>2016-11-05T11:16:32Z</time>
      </trkpt>
      <trkpt lat="45.92891" lon="4.73962">
        <ele>172</ele>
        <time>2016-11-05T11:16:33Z</time>
      </trkpt>
      <trkpt lat="45.92891" lon="4.73955">
        <ele>172</ele>
        <time>2016-11-05T11:16:34Z</time>
      </trkpt>
      <trkpt lat="45.9289" lon="4.73947">
        <ele>172</ele>
        <time>2016-11-05T11:16:35Z</time>
      </trkpt>
      <trkpt lat="45.9289" lon="4.73939">
        <ele>172</ele>
        <time>2016-11-05T11:16:36Z</time>
      </trkpt>
      <trkpt lat="45.92889" lon="4.73931">
        <ele>172</ele>
        <time>2016-11-05T11:16:37Z</time>
      </trkpt>
      <trkpt lat="45.92887" lon="4.73923">
        <ele>172</ele>
        <time>2016-11-05T11:16:38Z</time>
      </trkpt>
      <trkpt lat="45.92885" lon="4.73915">
        <ele>173</ele>
        <time>2016-11-05T11:16:39Z</time>
      </trkpt>
      <trkpt lat="45.92884" lon="4.73906">
        <ele>173</ele>
        <time>2016-11-05T11:16:40Z</time>
      </trkpt>
      <trkpt lat="45.92883" lon="4.73897">
        <ele>173</ele>
        <time>2016-11-05T11:16:41Z</time>
      </trkpt>
      <trkpt lat="45.92882" lon="4.73889">
        <ele>173</ele>
        <time>2016-11-05T11:16:42Z</time>
      </trkpt>
      <trkpt lat="45.9288" lon="4.7388">
        <ele>173</ele>
        <time>2016-11-05T11:16:43Z</time>
      </trkpt>
      <trkpt lat="45.92877" lon="4.73872">
        <ele>173</ele>
        <time>2016-11-05T11:16:44Z</time>
      </trkpt>
      <trkpt lat="45.92875" lon="4.73864">
        <ele>173</ele>
        <time>2016-11-05T11:16:45Z</time>
      </trkpt>
      <trkpt lat="45.92873" lon="4.73856">
        <ele>173</ele>
        <time>2016-11-05T11:16:46Z</time>
      </trkpt>
      <trkpt lat="45.92871" lon="4.73848">
        <ele>173</ele>
        <time>2016-11-05T11:16:47Z</time>
      </trkpt>
      <trkpt lat="45.92869" lon="4.73839">
        <ele>173</ele>
        <time>2016-11-05T11:16:48Z</time>
      </trkpt>
      <trkpt lat="45.92867" lon="4.73831">
        <ele>173</ele>
        <time>2016-11-05T11:16:49Z</time>
      </trkpt>
      <trkpt lat="45.92866" lon="4.73822">
        <ele>173</ele>
        <time>2016-11-05T11:16:50Z</time>
      </trkpt>
      <trkpt lat="45.92863" lon="4.73815">
        <ele>173</ele>
        <time>2016-11-05T11:16:51Z</time>
      </trkpt>
      <trkpt lat="45.92862" lon="4.73808">
        <ele>173</ele>
        <time>2016-11-05T11:16:52Z</time>
      </trkpt>
      <trkpt lat="45.92859" lon="4.73802">
        <ele>173</ele>
        <time>2016-11-05T11:16:53Z</time>
      </trkpt>
      <trkpt lat="45.92856" lon="4.73795">
        <ele>173</ele>
        <time>2016-11-05T11:16:54Z</time>
      </trkpt>
      <trkpt lat="45.92853" lon="4.7379">
        <ele>173</ele>
        <time>2016-11-05T11:16:55Z</time>
      </trkpt>
      <trkpt lat="45.92848" lon="4.73785">
        <ele>173</ele>
        <time>2016-11-05T11:16:56Z</time>
      </trkpt>
      <trkpt lat="45.92843" lon="4.73781">
        <ele>173</ele>
        <time>2016-11-05T11:16:57Z</time>
      </trkpt>
      <trkpt lat="45.92838" lon="4.73778">
        <ele>172</ele>
        <time>2016-11-05T11:16:58Z</time>
      </trkpt>
      <trkpt lat="45.92833" lon="4.73775">
        <ele>173</ele>
        <time>2016-11-05T11:16:59Z</time>
      </trkpt>
      <trkpt lat="45.92829" lon="4.73772">
        <ele>173</ele>
        <time>2016-11-05T11:17:00Z</time>
      </trkpt>
      <trkpt lat="45.92824" lon="4.7377">
        <ele>173</ele>
        <time>2016-11-05T11:17:01Z</time>
      </trkpt>
      <trkpt lat="45.92819" lon="4.73767">
        <ele>173</ele>
        <time>2016-11-05T11:17:02Z</time>
      </trkpt>
      <trkpt lat="45.92815" lon="4.73764">
        <ele>173</ele>
        <time>2016-11-05T11:17:03Z</time>
      </trkpt>
      <trkpt lat="45.9281" lon="4.73761">
        <ele>173</ele>
        <time>2016-11-05T11:17:04Z</time>
      </trkpt>
      <trkpt lat="45.92806" lon="4.73759">
        <ele>173</ele>
        <time>2016-11-05T11:17:05Z</time>
      </trkpt>
      <trkpt lat="45.92797" lon="4.73754">
        <ele>173</ele>
        <time>2016-11-05T11:17:07Z</time>
      </trkpt>
      <trkpt lat="45.92794" lon="4.73752">
        <ele>173</ele>
        <time>2016-11-05T11:17:08Z</time>
      </trkpt>
      <trkpt lat="45.92788" lon="4.73747">
        <ele>172</ele>
        <time>2016-11-05T11:17:10Z</time>
      </trkpt>
      <trkpt lat="45.92785" lon="4.73743">
        <ele>172</ele>
        <time>2016-11-05T11:17:11Z</time>
      </trkpt>
      <trkpt lat="45.9278" lon="4.73734">
        <ele>172</ele>
        <time>2016-11-05T11:17:13Z</time>
      </trkpt>
      <trkpt lat="45.92776" lon="4.73731">
        <ele>172</ele>
        <time>2016-11-05T11:17:14Z</time>
      </trkpt>
      <trkpt lat="45.92771" lon="4.73728">
        <ele>172</ele>
        <time>2016-11-05T11:17:15Z</time>
      </trkpt>
      <trkpt lat="45.92767" lon="4.73727">
        <ele>172</ele>
        <time>2016-11-05T11:17:16Z</time>
      </trkpt>
      <trkpt lat="45.92762" lon="4.73725">
        <ele>172</ele>
        <time>2016-11-05T11:17:17Z</time>
      </trkpt>
      <trkpt lat="45.92757" lon="4.73724">
        <ele>172</ele>
        <time>2016-11-05T11:17:18Z</time>
      </trkpt>
      <trkpt lat="45.92753" lon="4.73723">
        <ele>172</ele>
        <time>2016-11-05T11:17:19Z</time>
      </trkpt>
      <trkpt lat="45.92748" lon="4.7372">
        <ele>173</ele>
        <time>2016-11-05T11:17:20Z</time>
      </trkpt>
      <trkpt lat="45.92744" lon="4.73719">
        <ele>173</ele>
        <time>2016-11-05T11:17:21Z</time>
      </trkpt>
      <trkpt lat="45.92739" lon="4.73716">
        <ele>173</ele>
        <time>2016-11-05T11:17:23Z</time>
      </trkpt>
      <trkpt lat="45.92734" lon="4.73715">
        <ele>173</ele>
        <time>2016-11-05T11:17:24Z</time>
      </trkpt>
      <trkpt lat="45.92729" lon="4.73715">
        <ele>173</ele>
        <time>2016-11-05T11:17:25Z</time>
      </trkpt>
      <trkpt lat="45.92725" lon="4.73714">
        <ele>173</ele>
        <time>2016-11-05T11:17:26Z</time>
      </trkpt>
      <trkpt lat="45.92705" lon="4.73705">
        <ele>173</ele>
        <time>2016-11-05T11:17:30Z</time>
      </trkpt>
      <trkpt lat="45.92699" lon="4.73704">
        <ele>173</ele>
        <time>2016-11-05T11:17:31Z</time>
      </trkpt>
      <trkpt lat="45.92695" lon="4.73704">
        <ele>173</ele>
        <time>2016-11-05T11:17:32Z</time>
      </trkpt>
      <trkpt lat="45.9269" lon="4.73704">
        <ele>173</ele>
        <time>2016-11-05T11:17:33Z</time>
      </trkpt>
      <trkpt lat="45.92684" lon="4.73703">
        <ele>173</ele>
        <time>2016-11-05T11:17:34Z</time>
      </trkpt>
      <trkpt lat="45.92679" lon="4.73702">
        <ele>173</ele>
        <time>2016-11-05T11:17:35Z</time>
      </trkpt>
      <trkpt lat="45.92674" lon="4.737">
        <ele>174</ele>
        <time>2016-11-05T11:17:36Z</time>
      </trkpt>
      <trkpt lat="45.92669" lon="4.73698">
        <ele>174</ele>
        <time>2016-11-05T11:17:37Z</time>
      </trkpt>
      <trkpt lat="45.92665" lon="4.73696">
        <ele>173</ele>
        <time>2016-11-05T11:17:38Z</time>
      </trkpt>
      <trkpt lat="45.9266" lon="4.73692">
        <ele>173</ele>
        <time>2016-11-05T11:17:39Z</time>
      </trkpt>
      <trkpt lat="45.92649" lon="4.73683">
        <ele>173</ele>
        <time>2016-11-05T11:17:41Z</time>
      </trkpt>
      <trkpt lat="45.92644" lon="4.7368">
        <ele>173</ele>
        <time>2016-11-05T11:17:42Z</time>
      </trkpt>
      <trkpt lat="45.9264" lon="4.73674">
        <ele>173</ele>
        <time>2016-11-05T11:17:43Z</time>
      </trkpt>
      <trkpt lat="45.92637" lon="4.73668">
        <ele>173</ele>
        <time>2016-11-05T11:17:44Z</time>
      </trkpt>
      <trkpt lat="45.92635" lon="4.73661">
        <ele>173</ele>
        <time>2016-11-05T11:17:45Z</time>
      </trkpt>
      <trkpt lat="45.92632" lon="4.73654">
        <ele>173</ele>
        <time>2016-11-05T11:17:46Z</time>
      </trkpt>
      <trkpt lat="45.92629" lon="4.73647">
        <ele>173</ele>
        <time>2016-11-05T11:17:47Z</time>
      </trkpt>
      <trkpt lat="45.92627" lon="4.7364">
        <ele>173</ele>
        <time>2016-11-05T11:17:48Z</time>
      </trkpt>
      <trkpt lat="45.92624" lon="4.73634">
        <ele>173</ele>
        <time>2016-11-05T11:17:49Z</time>
      </trkpt>
      <trkpt lat="45.92621" lon="4.73629">
        <ele>173</ele>
        <time>2016-11-05T11:17:50Z</time>
      </trkpt>
      <trkpt lat="45.92618" lon="4.73624">
        <ele>173</ele>
        <time>2016-11-05T11:17:51Z</time>
      </trkpt>
      <trkpt lat="45.92614" lon="4.73621">
        <ele>173</ele>
        <time>2016-11-05T11:17:52Z</time>
      </trkpt>
      <trkpt lat="45.92609" lon="4.73619">
        <ele>173</ele>
        <time>2016-11-05T11:17:53Z</time>
      </trkpt>
      <trkpt lat="45.92604" lon="4.73618">
        <ele>173</ele>
        <time>2016-11-05T11:17:54Z</time>
      </trkpt>
      <trkpt lat="45.926" lon="4.73618">
        <ele>173</ele>
        <time>2016-11-05T11:17:55Z</time>
      </trkpt>
      <trkpt lat="45.92595" lon="4.73619">
        <ele>173</ele>
        <time>2016-11-05T11:17:56Z</time>
      </trkpt>
      <trkpt lat="45.92589" lon="4.73619">
        <ele>173</ele>
        <time>2016-11-05T11:17:57Z</time>
      </trkpt>
      <trkpt lat="45.92584" lon="4.7362">
        <ele>173</ele>
        <time>2016-11-05T11:17:58Z</time>
      </trkpt>
      <trkpt lat="45.92579" lon="4.73621">
        <ele>173</ele>
        <time>2016-11-05T11:17:59Z</time>
      </trkpt>
      <trkpt lat="45.92574" lon="4.73623">
        <ele>173</ele>
        <time>2016-11-05T11:18:00Z</time>
      </trkpt>
      <trkpt lat="45.92569" lon="4.73625">
        <ele>173</ele>
        <time>2016-11-05T11:18:01Z</time>
      </trkpt>
      <trkpt lat="45.92564" lon="4.73627">
        <ele>173</ele>
        <time>2016-11-05T11:18:02Z</time>
      </trkpt>
      <trkpt lat="45.92559" lon="4.73629">
        <ele>173</ele>
        <time>2016-11-05T11:18:03Z</time>
      </trkpt>
      <trkpt lat="45.92554" lon="4.7363">
        <ele>173</ele>
        <time>2016-11-05T11:18:04Z</time>
      </trkpt>
      <trkpt lat="45.92549" lon="4.73631">
        <ele>173</ele>
        <time>2016-11-05T11:18:05Z</time>
      </trkpt>
      <trkpt lat="45.92541" lon="4.73633">
        <ele>173</ele>
        <time>2016-11-05T11:18:07Z</time>
      </trkpt>
      <trkpt lat="45.92536" lon="4.73634">
        <ele>173</ele>
        <time>2016-11-05T11:18:08Z</time>
      </trkpt>
      <trkpt lat="45.92527" lon="4.73635">
        <ele>173</ele>
        <time>2016-11-05T11:18:10Z</time>
      </trkpt>
      <trkpt lat="45.92523" lon="4.73636">
        <ele>173</ele>
        <time>2016-11-05T11:18:11Z</time>
      </trkpt>
      <trkpt lat="45.92515" lon="4.73637">
        <ele>173</ele>
        <time>2016-11-05T11:18:13Z</time>
      </trkpt>
      <trkpt lat="45.92511" lon="4.73637">
        <ele>174</ele>
        <time>2016-11-05T11:18:14Z</time>
      </trkpt>
      <trkpt lat="45.92503" lon="4.73638">
        <ele>174</ele>
        <time>2016-11-05T11:18:16Z</time>
      </trkpt>
      <trkpt lat="45.925" lon="4.73638">
        <ele>174</ele>
        <time>2016-11-05T11:18:17Z</time>
      </trkpt>
      <trkpt lat="45.92493" lon="4.73638">
        <ele>174</ele>
        <time>2016-11-05T11:18:19Z</time>
      </trkpt>
      <trkpt lat="45.9249" lon="4.73637">
        <ele>174</ele>
        <time>2016-11-05T11:18:20Z</time>
      </trkpt>
      <trkpt lat="45.92483" lon="4.73635">
        <ele>174</ele>
        <time>2016-11-05T11:18:22Z</time>
      </trkpt>
      <trkpt lat="45.92479" lon="4.73635">
        <ele>174</ele>
        <time>2016-11-05T11:18:23Z</time>
      </trkpt>
      <trkpt lat="45.92473" lon="4.73642">
        <ele>174</ele>
        <time>2016-11-05T11:18:25Z</time>
      </trkpt>
      <trkpt lat="45.92471" lon="4.73646">
        <ele>174</ele>
        <time>2016-11-05T11:18:26Z</time>
      </trkpt>
      <trkpt lat="45.92469" lon="4.73656">
        <ele>174</ele>
        <time>2016-11-05T11:18:28Z</time>
      </trkpt>
      <trkpt lat="45.92469" lon="4.73661">
        <ele>174</ele>
        <time>2016-11-05T11:18:29Z</time>
      </trkpt>
      <trkpt lat="45.92468" lon="4.73671">
        <ele>174</ele>
        <time>2016-11-05T11:18:31Z</time>
      </trkpt>
      <trkpt lat="45.92468" lon="4.73676">
        <ele>174</ele>
        <time>2016-11-05T11:18:32Z</time>
      </trkpt>
      <trkpt lat="45.92467" lon="4.73686">
        <ele>174</ele>
        <time>2016-11-05T11:18:34Z</time>
      </trkpt>
      <trkpt lat="45.92466" lon="4.73691">
        <ele>174</ele>
        <time>2016-11-05T11:18:35Z</time>
      </trkpt>
      <trkpt lat="45.92464" lon="4.73702">
        <ele>174</ele>
        <time>2016-11-05T11:18:38Z</time>
      </trkpt>
      <trkpt lat="45.92463" lon="4.73705">
        <ele>174</ele>
        <time>2016-11-05T11:18:39Z</time>
      </trkpt>
      <trkpt lat="45.92463" lon="4.73706">
        <ele>174</ele>
        <time>2016-11-05T11:18:40Z</time>
      </trkpt>
      <trkpt lat="45.92463" lon="4.73706">
        <ele>174</ele>
        <time>2016-11-05T11:18:41Z</time>
      </trkpt>
      <trkpt lat="45.92463" lon="4.73706">
        <ele>174</ele>
        <time>2016-11-05T11:18:42Z</time>
      </trkpt>
      <trkpt lat="45.92464" lon="4.73703">
        <ele>174</ele>
        <time>2016-11-05T11:18:43Z</time>
      </trkpt>
      <trkpt lat="45.92463" lon="4.73704">
        <ele>174</ele>
        <time>2016-11-05T11:18:44Z</time>
      </trkpt>
      <trkpt lat="45.92455" lon="4.73708">
        <ele>174</ele>
        <time>2016-11-05T11:19:01Z</time>
      </trkpt>
      <trkpt lat="45.92454" lon="4.73708">
        <ele>174</ele>
        <time>2016-11-05T11:19:02Z</time>
      </trkpt>
      <trkpt lat="45.92453" lon="4.73709">
        <ele>174</ele>
        <time>2016-11-05T11:19:06Z</time>
      </trkpt>
      <trkpt lat="45.92453" lon="4.73708">
        <ele>174</ele>
        <time>2016-11-05T11:19:07Z</time>
      </trkpt>
      <trkpt lat="45.92454" lon="4.73708">
        <ele>174</ele>
        <time>2016-11-05T11:19:09Z</time>
      </trkpt>
      <trkpt lat="45.92456" lon="4.73713">
        <ele>174</ele>
        <time>2016-11-05T11:19:10Z</time>
      </trkpt>
      <trkpt lat="45.9246" lon="4.73719">
        <ele>174</ele>
        <time>2016-11-05T11:18:57.807Z</time>
      </trkpt>
    </trkseg>
  </trk>
</gpx>